<?xml version='1.0' encoding='UTF-8'?><gpx version="1.1" creator="JPX - https://github.com/jenetics/jpx" xmlns="http://www.topografix.com/GPX/1/1"><trk><trkseg><trkpt lat="41.488334099885854" lon="12.617543403902184"><ele>59.0</ele><time>2026-05-01T06:56:16.998Z</time></trkpt><trkpt lat="41.48831146359539" lon="12.617391032465946"><ele>59.00000000000001</ele><time>2026-05-01T06:56:39Z</time></trkpt><trkpt lat="41.48831525743607" lon="12.617271386092101"><ele>59.00000000000001</ele><time>2026-05-01T06:56:40Z</time></trkpt><trkpt lat="41.48835018953738" lon="12.617133609133386"><ele>59.0</ele><time>2026-05-01T06:56:41Z</time></trkpt><trkpt lat="41.488363876080705" lon="12.616988336670534"><ele>59.0</ele><time>2026-05-01T06:56:42Z</time></trkpt><trkpt lat="41.48837426147471" lon="12.61687810343155"><ele>58.833333333333336</ele><time>2026-05-01T06:56:43Z</time></trkpt><trkpt lat="41.48836959946063" lon="12.616790874891157"><ele>58.66666666666667</ele><time>2026-05-01T06:56:44Z</time></trkpt><trkpt lat="41.488382435121224" lon="12.616701877385399"><ele>58.5</ele><time>2026-05-01T06:56:45Z</time></trkpt><trkpt lat="41.48840265228834" lon="12.616621407144518"><ele>58.33333333333333</ele><time>2026-05-01T06:56:48Z</time></trkpt><trkpt lat="41.48829208784584" lon="12.616548495788539"><ele>58.166666666666664</ele><time>2026-05-01T06:56:49.999Z</time></trkpt><trkpt lat="41.48820039440909" lon="12.616543105456314"><ele>58.0</ele><time>2026-05-01T06:56:50.999Z</time></trkpt><trkpt lat="41.48809084496604" lon="12.616535396538987"><ele>58.0</ele><time>2026-05-01T06:56:51.999Z</time></trkpt><trkpt lat="41.48796329950013" lon="12.616520247263857"><ele>58.0</ele><time>2026-05-01T06:56:52.999Z</time></trkpt><trkpt lat="41.487837604648675" lon="12.616496867967339"><ele>58.0</ele><time>2026-05-01T06:56:53.999Z</time></trkpt><trkpt lat="41.48770663864637" lon="12.61647554952404"><ele>58.0</ele><time>2026-05-01T06:56:54.999Z</time></trkpt><trkpt lat="41.48756804876659" lon="12.61645795748449"><ele>59.0</ele><time>2026-05-01T06:56:55.999Z</time></trkpt><trkpt lat="41.48744538446941" lon="12.616436102875506"><ele>60.0</ele><time>2026-05-01T06:56:56.999Z</time></trkpt><trkpt lat="41.48732987911239" lon="12.616417976929974"><ele>61.0</ele><time>2026-05-01T06:56:57.999Z</time></trkpt><trkpt lat="41.48715842138647" lon="12.616391867542998"><ele>62.0</ele><time>2026-05-01T06:56:59.999Z</time></trkpt><trkpt lat="41.487075852639286" lon="12.61637409096467"><ele>62.400000000000006</ele><time>2026-05-01T06:57:01.999Z</time></trkpt><trkpt lat="41.48696875999583" lon="12.616386439091546"><ele>62.800000000000004</ele><time>2026-05-01T06:57:03.999Z</time></trkpt><trkpt lat="41.48688029521874" lon="12.616408226102438"><ele>63.2</ele><time>2026-05-01T06:57:04.999Z</time></trkpt><trkpt lat="41.4867768373271" lon="12.616424107203958"><ele>63.6</ele><time>2026-05-01T06:57:05.999Z</time></trkpt><trkpt lat="41.486660484727814" lon="12.616421842315294"><ele>64.0</ele><time>2026-05-01T06:57:06.999Z</time></trkpt><trkpt lat="41.48653301165398" lon="12.616399763666541"><ele>64.0</ele><time>2026-05-01T06:57:07.999Z</time></trkpt><trkpt lat="41.486390482991666" lon="12.616371413623513"><ele>64.0</ele><time>2026-05-01T06:57:08.999Z</time></trkpt><trkpt lat="41.48623434427654" lon="12.616342348069248"><ele>64.0</ele><time>2026-05-01T06:57:09.999Z</time></trkpt><trkpt lat="41.48607281833128" lon="12.616319801934976"><ele>64.0</ele><time>2026-05-01T06:57:10.999Z</time></trkpt><trkpt lat="41.48590742947464" lon="12.616298689536386"><ele>64.0</ele><time>2026-05-01T06:57:11.999Z</time></trkpt><trkpt lat="41.48575881041594" lon="12.616280954622374"><ele>64.0</ele><time>2026-05-01T06:57:12.999Z</time></trkpt><trkpt lat="41.48562142365931" lon="12.616262341766245"><ele>64.0</ele><time>2026-05-01T06:57:13.999Z</time></trkpt><trkpt lat="41.48549469301276" lon="12.616244477633558"><ele>64.0</ele><time>2026-05-01T06:57:14.999Z</time></trkpt><trkpt lat="41.485386663098495" lon="12.61622629128299"><ele>64.0</ele><time>2026-05-01T06:57:15.999Z</time></trkpt><trkpt lat="41.48529799196046" lon="12.61619379235325"><ele>64.0</ele><time>2026-05-01T06:57:16.999Z</time></trkpt><trkpt lat="41.48522536163278" lon="12.616195640099317"><ele>64.0</ele><time>2026-05-01T06:57:17.999Z</time></trkpt><trkpt lat="41.485152943731926" lon="12.616152886114996"><ele>63.0</ele><time>2026-05-01T06:57:19.999Z</time></trkpt><trkpt lat="41.48517255618948" lon="12.61591820269293"><ele>62.0</ele><time>2026-05-01T06:57:20.999Z</time></trkpt><trkpt lat="41.485195653046226" lon="12.61576171813034"><ele>61.0</ele><time>2026-05-01T06:57:21.999Z</time></trkpt><trkpt lat="41.485215782808076" lon="12.615595217094572"><ele>60.0</ele><time>2026-05-01T06:57:22.999Z</time></trkpt><trkpt lat="41.48522977095119" lon="12.61542387581612"><ele>60.5</ele><time>2026-05-01T06:57:23.999Z</time></trkpt><trkpt lat="41.4852474175622" lon="12.615238957109186"><ele>61.0</ele><time>2026-05-01T06:57:24.999Z</time></trkpt><trkpt lat="41.48526573137001" lon="12.615042143306573"><ele>61.5</ele><time>2026-05-01T06:57:25.999Z</time></trkpt><trkpt lat="41.48528400358102" lon="12.614843644764461"><ele>62.0</ele><time>2026-05-01T06:57:26.999Z</time></trkpt><trkpt lat="41.4853016716227" lon="12.61464906059692"><ele>61.75</ele><time>2026-05-01T06:57:27.999Z</time></trkpt><trkpt lat="41.48531614574768" lon="12.61447333486056"><ele>61.5</ele><time>2026-05-01T06:57:28.999Z</time></trkpt><trkpt lat="41.48533042816792" lon="12.614301293304917"><ele>61.25</ele><time>2026-05-01T06:57:29.999Z</time></trkpt><trkpt lat="41.48534584647568" lon="12.614144361605176"><ele>61.0</ele><time>2026-05-01T06:57:30.999Z</time></trkpt><trkpt lat="41.48536290026945" lon="12.614010994600727"><ele>61.0</ele><time>2026-05-01T06:57:31.999Z</time></trkpt><trkpt lat="41.485378353347805" lon="12.613910170019208"><ele>60.99999999999999</ele><time>2026-05-01T06:57:32.999Z</time></trkpt><trkpt lat="41.48538707561518" lon="12.61379508606987"><ele>60.99999999999999</ele><time>2026-05-01T06:57:34.999Z</time></trkpt><trkpt lat="41.48523755869995" lon="12.613722436895875"><ele>61.0</ele><time>2026-05-01T06:57:37.999Z</time></trkpt><trkpt lat="41.48514908044986" lon="12.613717273839585"><ele>61.0</ele><time>2026-05-01T06:57:38.999Z</time></trkpt><trkpt lat="41.4850531797255" lon="12.61370162285654"><ele>61.0</ele><time>2026-05-01T06:57:39.999Z</time></trkpt><trkpt lat="41.48495230418834" lon="12.613680940272006"><ele>61.0</ele><time>2026-05-01T06:57:40.999Z</time></trkpt><trkpt lat="41.48483551019008" lon="12.613647867754159"><ele>61.0</ele><time>2026-05-01T06:57:41.999Z</time></trkpt><trkpt lat="41.4847038257776" lon="12.613625308191432"><ele>61.0</ele><time>2026-05-01T06:57:42.999Z</time></trkpt><trkpt lat="41.48455858921127" lon="12.61362267301507"><ele>60.33333333333333</ele><time>2026-05-01T06:57:43.999Z</time></trkpt><trkpt lat="41.48440628093941" lon="12.613594576576732"><ele>59.66666666666667</ele><time>2026-05-01T06:57:44.999Z</time></trkpt><trkpt lat="41.48425298484664" lon="12.613567679268199"><ele>59.0</ele><time>2026-05-01T06:57:45.999Z</time></trkpt><trkpt lat="41.48409424154366" lon="12.61352050858461"><ele>59.0</ele><time>2026-05-01T06:57:46.998Z</time></trkpt><trkpt lat="41.483923775665225" lon="12.613514888915535"><ele>59.0</ele><time>2026-05-01T06:57:47.998Z</time></trkpt><trkpt lat="41.48376318823922" lon="12.61348573523276"><ele>59.0</ele><time>2026-05-01T06:57:48.998Z</time></trkpt><trkpt lat="41.48362173581124" lon="12.61345796607632"><ele>58.75</ele><time>2026-05-01T06:57:49.998Z</time></trkpt><trkpt lat="41.48349337227972" lon="12.613436872735528"><ele>58.5</ele><time>2026-05-01T06:57:50.998Z</time></trkpt><trkpt lat="41.48339606083988" lon="12.61341810532981"><ele>58.25</ele><time>2026-05-01T06:57:51.998Z</time></trkpt><trkpt lat="41.48331923421328" lon="12.613401966794411"><ele>58.0</ele><time>2026-05-01T06:57:53.998Z</time></trkpt><trkpt lat="41.48325019761992" lon="12.613228101059573"><ele>58.0</ele><time>2026-05-01T06:57:56.998Z</time></trkpt><trkpt lat="41.483206049390034" lon="12.613108110628035"><ele>58.0</ele><time>2026-05-01T06:57:57.998Z</time></trkpt><trkpt lat="41.483191342569214" lon="12.612971605037185"><ele>58.0</ele><time>2026-05-01T06:57:58.998Z</time></trkpt><trkpt lat="41.48315792352642" lon="12.612826755087463"><ele>58.0</ele><time>2026-05-01T06:57:59.998Z</time></trkpt><trkpt lat="41.483115507583044" lon="12.61271731796631"><ele>58.0</ele><time>2026-05-01T06:58:00.998Z</time></trkpt><trkpt lat="41.483094164431364" lon="12.612615384948084"><ele>57.99999999999999</ele><time>2026-05-01T06:58:01.998Z</time></trkpt><trkpt lat="41.48306939000944" lon="12.612502894893593"><ele>58.0</ele><time>2026-05-01T06:58:02.998Z</time></trkpt><trkpt lat="41.48304192301852" lon="12.612384112592123"><ele>58.0</ele><time>2026-05-01T06:58:03.998Z</time></trkpt><trkpt lat="41.48301399288507" lon="12.612265706373943"><ele>58.0</ele><time>2026-05-01T06:58:04.998Z</time></trkpt><trkpt lat="41.48299067581013" lon="12.612157411398588"><ele>57.99999999999999</ele><time>2026-05-01T06:58:05.998Z</time></trkpt><trkpt lat="41.48296845750305" lon="12.612054388684658"><ele>58.0</ele><time>2026-05-01T06:58:06.998Z</time></trkpt><trkpt lat="41.482945349284186" lon="12.611956301093418"><ele>58.0</ele><time>2026-05-01T06:58:07.998Z</time></trkpt><trkpt lat="41.48292483486864" lon="12.61181269156708"><ele>58.0</ele><time>2026-05-01T06:58:09.998Z</time></trkpt><trkpt lat="41.48281226685296" lon="12.611828825064652"><ele>58.0</ele><time>2026-05-01T06:58:10.998Z</time></trkpt><trkpt lat="41.48271983250162" lon="12.61182098665783"><ele>58.0</ele><time>2026-05-01T06:58:11.998Z</time></trkpt><trkpt lat="41.48260393254636" lon="12.611752289552784"><ele>58.0</ele><time>2026-05-01T06:58:12.998Z</time></trkpt><trkpt lat="41.482467330262786" lon="12.611708737898493"><ele>58.0</ele><time>2026-05-01T06:58:13.998Z</time></trkpt><trkpt lat="41.48233247775204" lon="12.611629394478959"><ele>58.0</ele><time>2026-05-01T06:58:14.998Z</time></trkpt><trkpt lat="41.48218149310458" lon="12.611592056818326"><ele>58.0</ele><time>2026-05-01T06:58:15.998Z</time></trkpt><trkpt lat="41.482030954647314" lon="12.611510468316384"><ele>57.666666666666664</ele><time>2026-05-01T06:58:16.998Z</time></trkpt><trkpt lat="41.48187070651098" lon="12.611446582884662"><ele>57.33333333333333</ele><time>2026-05-01T06:58:17.998Z</time></trkpt><trkpt lat="41.48170787252884" lon="12.611382525916154"><ele>57.0</ele><time>2026-05-01T06:58:18.998Z</time></trkpt><trkpt lat="41.48153792063976" lon="12.61131849060884"><ele>57.0</ele><time>2026-05-01T06:58:19.998Z</time></trkpt><trkpt lat="41.48136195306621" lon="12.611279867503018"><ele>57.0</ele><time>2026-05-01T06:58:20.998Z</time></trkpt><trkpt lat="41.481191114988235" lon="12.611214092046184"><ele>57.0</ele><time>2026-05-01T06:58:21.998Z</time></trkpt><trkpt lat="41.48101747753411" lon="12.611151983429814"><ele>56.0</ele><time>2026-05-01T06:58:22.998Z</time></trkpt><trkpt lat="41.48084082235201" lon="12.611087369023922"><ele>55.0</ele><time>2026-05-01T06:58:23.998Z</time></trkpt><trkpt lat="41.48065974629948" lon="12.61102453476155"><ele>54.0</ele><time>2026-05-01T06:58:24.998Z</time></trkpt><trkpt lat="41.48047416005072" lon="12.610961013714402"><ele>53.66666666666667</ele><time>2026-05-01T06:58:25.998Z</time></trkpt><trkpt lat="41.48029006947313" lon="12.610900596796553"><ele>53.333333333333336</ele><time>2026-05-01T06:58:26.998Z</time></trkpt><trkpt lat="41.48010718628565" lon="12.610835286998254"><ele>53.0</ele><time>2026-05-01T06:58:27.998Z</time></trkpt><trkpt lat="41.47991987488954" lon="12.610768705550983"><ele>53.0</ele><time>2026-05-01T06:58:28.998Z</time></trkpt><trkpt lat="41.479738676776996" lon="12.610705455540717"><ele>53.0</ele><time>2026-05-01T06:58:29.998Z</time></trkpt><trkpt lat="41.47955901293164" lon="12.610636144212025"><ele>53.0</ele><time>2026-05-01T06:58:30.998Z</time></trkpt><trkpt lat="41.479379173332234" lon="12.610542483917875"><ele>52.66666666666667</ele><time>2026-05-01T06:58:31.998Z</time></trkpt><trkpt lat="41.47919258243466" lon="12.610463133375509"><ele>52.33333333333333</ele><time>2026-05-01T06:58:32.998Z</time></trkpt><trkpt lat="41.47900511883592" lon="12.610384932900727"><ele>52.0</ele><time>2026-05-01T06:58:33.998Z</time></trkpt><trkpt lat="41.47881175288823" lon="12.610309611131557"><ele>51.33333333333333</ele><time>2026-05-01T06:58:34.998Z</time></trkpt><trkpt lat="41.47861253050637" lon="12.61023277732296"><ele>50.66666666666667</ele><time>2026-05-01T06:58:35.999Z</time></trkpt><trkpt lat="41.4784116677769" lon="12.610155310653122"><ele>50.0</ele><time>2026-05-01T06:58:36.999Z</time></trkpt><trkpt lat="41.47821600531173" lon="12.610075967504548"><ele>50.0</ele><time>2026-05-01T06:58:37.999Z</time></trkpt><trkpt lat="41.478014380971786" lon="12.60999641123218"><ele>50.0</ele><time>2026-05-01T06:58:38.999Z</time></trkpt><trkpt lat="41.47781397403868" lon="12.609920046220957"><ele>50.0</ele><time>2026-05-01T06:58:39.999Z</time></trkpt><trkpt lat="41.47761719534983" lon="12.609845063752031"><ele>50.0</ele><time>2026-05-01T06:58:40.999Z</time></trkpt><trkpt lat="41.47743967146836" lon="12.60977795436566"><ele>50.0</ele><time>2026-05-01T06:58:41.999Z</time></trkpt><trkpt lat="41.47729109400695" lon="12.609721817014675"><ele>50.0</ele><time>2026-05-01T06:58:42.999Z</time></trkpt><trkpt lat="41.47715876977821" lon="12.609671110353034"><ele>50.25</ele><time>2026-05-01T06:58:43.999Z</time></trkpt><trkpt lat="41.47704029988392" lon="12.609625652706809"><ele>50.5</ele><time>2026-05-01T06:58:44.999Z</time></trkpt><trkpt lat="41.476930279840566" lon="12.609583437297475"><ele>50.75</ele><time>2026-05-01T06:58:45.999Z</time></trkpt><trkpt lat="41.47680762156097" lon="12.609536372509265"><ele>51.0</ele><time>2026-05-01T06:58:46.999Z</time></trkpt><trkpt lat="41.476684513725274" lon="12.609489161663273"><ele>50.5</ele><time>2026-05-01T06:58:47.999Z</time></trkpt><trkpt lat="41.47655499700219" lon="12.609451423307375"><ele>50.0</ele><time>2026-05-01T06:58:48.999Z</time></trkpt><trkpt lat="41.47641800575454" lon="12.609400534094616"><ele>49.5</ele><time>2026-05-01T06:58:49.999Z</time></trkpt><trkpt lat="41.4762654890748" lon="12.609343340472549"><ele>49.0</ele><time>2026-05-01T06:58:50.999Z</time></trkpt><trkpt lat="41.47610541765239" lon="12.609286420596954"><ele>47.0</ele><time>2026-05-01T06:58:51.999Z</time></trkpt><trkpt lat="41.47595161164065" lon="12.60923096170682"><ele>45.0</ele><time>2026-05-01T06:58:52.999Z</time></trkpt><trkpt lat="41.47580728795915" lon="12.609180160940614"><ele>43.0</ele><time>2026-05-01T06:58:53.999Z</time></trkpt><trkpt lat="41.4756710025265" lon="12.609127391289803"><ele>43.0</ele><time>2026-05-01T06:58:54.999Z</time></trkpt><trkpt lat="41.47554560335472" lon="12.609088989692074"><ele>43.0</ele><time>2026-05-01T06:58:55.999Z</time></trkpt><trkpt lat="41.47543732595876" lon="12.609050490941064"><ele>43.0</ele><time>2026-05-01T06:58:56.999Z</time></trkpt><trkpt lat="41.47533798965491" lon="12.609012331853247"><ele>43.0</ele><time>2026-05-01T06:58:57.999Z</time></trkpt><trkpt lat="41.475243086547664" lon="12.60897929475144"><ele>43.0</ele><time>2026-05-01T06:58:58.999Z</time></trkpt><trkpt lat="41.475155589511715" lon="12.608950330084468"><ele>42.0</ele><time>2026-05-01T06:58:59.999Z</time></trkpt><trkpt lat="41.475073925942226" lon="12.608924058903051"><ele>41.0</ele><time>2026-05-01T06:59:00.999Z</time></trkpt><trkpt lat="41.475008211917064" lon="12.608904444039494"><ele>40.0</ele><time>2026-05-01T06:59:01.999Z</time></trkpt><trkpt lat="41.47494204340566" lon="12.60886088044771"><ele>39.0</ele><time>2026-05-01T06:59:04.999Z</time></trkpt><trkpt lat="41.474905538781286" lon="12.608682019751358"><ele>38.0</ele><time>2026-05-01T06:59:06.999Z</time></trkpt><trkpt lat="41.47489238318641" lon="12.608543391138864"><ele>37.25</ele><time>2026-05-01T06:59:07.999Z</time></trkpt><trkpt lat="41.474868979411035" lon="12.608394692981115"><ele>36.5</ele><time>2026-05-01T06:59:08.999Z</time></trkpt><trkpt lat="41.47483891173308" lon="12.608226265120853"><ele>35.75</ele><time>2026-05-01T06:59:09.999Z</time></trkpt><trkpt lat="41.474801646392784" lon="12.608045344618859"><ele>35.0</ele><time>2026-05-01T06:59:10.999Z</time></trkpt><trkpt lat="41.47475234588183" lon="12.60785328380551"><ele>34.33333333333333</ele><time>2026-05-01T06:59:11.999Z</time></trkpt><trkpt lat="41.47468858847921" lon="12.60765689010902"><ele>33.666666666666664</ele><time>2026-05-01T06:59:12.999Z</time></trkpt><trkpt lat="41.474612841278244" lon="12.607456466705543"><ele>33.0</ele><time>2026-05-01T06:59:13.999Z</time></trkpt><trkpt lat="41.474535002574626" lon="12.60724465130658"><ele>32.666666666666664</ele><time>2026-05-01T06:59:14.999Z</time></trkpt><trkpt lat="41.474454552601564" lon="12.607025064861583"><ele>32.33333333333333</ele><time>2026-05-01T06:59:15.999Z</time></trkpt><trkpt lat="41.47437068918427" lon="12.606798646955003"><ele>32.0</ele><time>2026-05-01T06:59:16.999Z</time></trkpt><trkpt lat="41.47429225832621" lon="12.606582704328789"><ele>31.0</ele><time>2026-05-01T06:59:17.999Z</time></trkpt><trkpt lat="41.47421689849235" lon="12.60637289914971"><ele>30.0</ele><time>2026-05-01T06:59:18.999Z</time></trkpt><trkpt lat="41.474141415082556" lon="12.60616307667147"><ele>29.0</ele><time>2026-05-01T06:59:19.999Z</time></trkpt><trkpt lat="41.4740697215164" lon="12.605961274382876"><ele>28.25</ele><time>2026-05-01T06:59:20.999Z</time></trkpt><trkpt lat="41.474003308256876" lon="12.605772329168627"><ele>27.5</ele><time>2026-05-01T06:59:21.999Z</time></trkpt><trkpt lat="41.4739422947635" lon="12.605600997314573"><ele>26.75</ele><time>2026-05-01T06:59:22.999Z</time></trkpt><trkpt lat="41.47388238708185" lon="12.605437762443836"><ele>26.0</ele><time>2026-05-01T06:59:23.999Z</time></trkpt><trkpt lat="41.473825510890045" lon="12.60528637528947"><ele>25.666666666666664</ele><time>2026-05-01T06:59:24.999Z</time></trkpt><trkpt lat="41.473776985008264" lon="12.605153258796168"><ele>25.333333333333332</ele><time>2026-05-01T06:59:25.999Z</time></trkpt><trkpt lat="41.473735372499675" lon="12.605036497239471"><ele>25.0</ele><time>2026-05-01T06:59:26.999Z</time></trkpt><trkpt lat="41.473697267657634" lon="12.60493255236617"><ele>24.666666666666664</ele><time>2026-05-01T06:59:27.999Z</time></trkpt><trkpt lat="41.47366329783821" lon="12.604834643228141"><ele>24.333333333333332</ele><time>2026-05-01T06:59:28.999Z</time></trkpt><trkpt lat="41.47363263022244" lon="12.604746199836075"><ele>24.0</ele><time>2026-05-01T06:59:29.999Z</time></trkpt><trkpt lat="41.473596515536215" lon="12.604641101213055"><ele>23.0</ele><time>2026-05-01T06:59:31.999Z</time></trkpt><trkpt lat="41.47357334775523" lon="12.604549262866835"><ele>22.0</ele><time>2026-05-01T06:59:39.999Z</time></trkpt><trkpt lat="41.473451542596784" lon="12.604606265702754"><ele>21.0</ele><time>2026-05-01T06:59:40.999Z</time></trkpt><trkpt lat="41.473382735149805" lon="12.60467342575082"><ele>20.0</ele><time>2026-05-01T06:59:41.999Z</time></trkpt><trkpt lat="41.47330344335963" lon="12.604746355157605"><ele>19.0</ele><time>2026-05-01T06:59:42.999Z</time></trkpt><trkpt lat="41.473215554991604" lon="12.60481563400344"><ele>19.0</ele><time>2026-05-01T06:59:43.999Z</time></trkpt><trkpt lat="41.47313290979142" lon="12.604880373407651"><ele>19.0</ele><time>2026-05-01T06:59:44.999Z</time></trkpt><trkpt lat="41.47304153886142" lon="12.60496148802062"><ele>19.0</ele><time>2026-05-01T06:59:45.999Z</time></trkpt><trkpt lat="41.472937192179685" lon="12.605051000539333"><ele>19.0</ele><time>2026-05-01T06:59:46.999Z</time></trkpt><trkpt lat="41.47281583551553" lon="12.605157349464603"><ele>19.666666666666664</ele><time>2026-05-01T06:59:47.999Z</time></trkpt><trkpt lat="41.47265987336226" lon="12.605263269320668"><ele>20.333333333333332</ele><time>2026-05-01T06:59:48.999Z</time></trkpt><trkpt lat="41.47250709509571" lon="12.605388444249481"><ele>21.0</ele><time>2026-05-01T06:59:49.998Z</time></trkpt><trkpt lat="41.47234878254542" lon="12.605533241289"><ele>21.0</ele><time>2026-05-01T06:59:50.998Z</time></trkpt><trkpt lat="41.47216870083642" lon="12.605679473763022"><ele>21.0</ele><time>2026-05-01T06:59:51.998Z</time></trkpt><trkpt lat="41.47198201193441" lon="12.605831350085001"><ele>21.0</ele><time>2026-05-01T06:59:52.998Z</time></trkpt><trkpt lat="41.471783104359965" lon="12.605994089130487"><ele>21.5</ele><time>2026-05-01T06:59:53.998Z</time></trkpt><trkpt lat="41.47158751451864" lon="12.606158257022711"><ele>22.0</ele><time>2026-05-01T06:59:54.998Z</time></trkpt><trkpt lat="41.471392374340766" lon="12.606319040753636"><ele>18.5</ele><time>2026-05-01T06:59:55.998Z</time></trkpt><trkpt lat="41.47119610684216" lon="12.606480096096561"><ele>15.0</ele><time>2026-05-01T06:59:56.998Z</time></trkpt><trkpt lat="41.47100866598911" lon="12.606636757828737"><ele>15.0</ele><time>2026-05-01T06:59:57.998Z</time></trkpt><trkpt lat="41.47083813180718" lon="12.606777944390922"><ele>15.0</ele><time>2026-05-01T06:59:58.998Z</time></trkpt><trkpt lat="41.470685855878465" lon="12.606904055761376"><ele>15.0</ele><time>2026-05-01T06:59:59.998Z</time></trkpt><trkpt lat="41.47055367690941" lon="12.607013822610249"><ele>16.25</ele><time>2026-05-01T07:00:00.998Z</time></trkpt><trkpt lat="41.47043471136845" lon="12.607114260840637"><ele>17.5</ele><time>2026-05-01T07:00:01.998Z</time></trkpt><trkpt lat="41.47031796407728" lon="12.607217167719412"><ele>18.75</ele><time>2026-05-01T07:00:02.998Z</time></trkpt><trkpt lat="41.470195869458834" lon="12.607319181998074"><ele>20.0</ele><time>2026-05-01T07:00:03.998Z</time></trkpt><trkpt lat="41.470069468345336" lon="12.607425455579033"><ele>20.0</ele><time>2026-05-01T07:00:04.998Z</time></trkpt><trkpt lat="41.46994659065894" lon="12.607530156591222"><ele>20.0</ele><time>2026-05-01T07:00:05.998Z</time></trkpt><trkpt lat="41.469795971320245" lon="12.607633411192293"><ele>20.0</ele><time>2026-05-01T07:00:06.998Z</time></trkpt><trkpt lat="41.46963367764031" lon="12.60776756944744"><ele>20.666666666666668</ele><time>2026-05-01T07:00:07.998Z</time></trkpt><trkpt lat="41.46947838699728" lon="12.607919813310764"><ele>21.333333333333332</ele><time>2026-05-01T07:00:08.998Z</time></trkpt><trkpt lat="41.469306924797245" lon="12.608045625121832"><ele>22.0</ele><time>2026-05-01T07:00:09.998Z</time></trkpt><trkpt lat="41.4691404704068" lon="12.608173859478658"><ele>22.0</ele><time>2026-05-01T07:00:10.998Z</time></trkpt><trkpt lat="41.468978531364286" lon="12.608308983465898"><ele>22.0</ele><time>2026-05-01T07:00:11.998Z</time></trkpt><trkpt lat="41.46881670034403" lon="12.60845065373239"><ele>22.0</ele><time>2026-05-01T07:00:12.998Z</time></trkpt><trkpt lat="41.46864656769414" lon="12.608615356423439"><ele>22.666666666666664</ele><time>2026-05-01T07:00:13.998Z</time></trkpt><trkpt lat="41.468479997192524" lon="12.608805255370447"><ele>23.333333333333332</ele><time>2026-05-01T07:00:14.998Z</time></trkpt><trkpt lat="41.46832663633811" lon="12.609018277091058"><ele>24.0</ele><time>2026-05-01T07:00:15.998Z</time></trkpt><trkpt lat="41.46819558015694" lon="12.609215031026341"><ele>24.0</ele><time>2026-05-01T07:00:16.998Z</time></trkpt><trkpt lat="41.46806788332747" lon="12.609385510244286"><ele>24.0</ele><time>2026-05-01T07:00:17.998Z</time></trkpt><trkpt lat="41.46794222302272" lon="12.60953928863374"><ele>24.0</ele><time>2026-05-01T07:00:18.998Z</time></trkpt><trkpt lat="41.467820787526534" lon="12.609676722553356"><ele>25.0</ele><time>2026-05-01T07:00:19.998Z</time></trkpt><trkpt lat="41.467686513727465" lon="12.609798508733403"><ele>26.0</ele><time>2026-05-01T07:00:20.998Z</time></trkpt><trkpt lat="41.467535576792635" lon="12.609918447497105"><ele>27.0</ele><time>2026-05-01T07:00:21.998Z</time></trkpt><trkpt lat="41.46737807243192" lon="12.610036933344967"><ele>27.0</ele><time>2026-05-01T07:00:22.998Z</time></trkpt><trkpt lat="41.467236212434265" lon="12.610141773559093"><ele>27.0</ele><time>2026-05-01T07:00:23.998Z</time></trkpt><trkpt lat="41.46711888155122" lon="12.6102286050209"><ele>27.0</ele><time>2026-05-01T07:00:24.998Z</time></trkpt><trkpt lat="41.46702012440915" lon="12.610300981826661"><ele>27.0</ele><time>2026-05-01T07:00:25.998Z</time></trkpt><trkpt lat="41.46693618930009" lon="12.610361053293373"><ele>25.75</ele><time>2026-05-01T07:00:26.998Z</time></trkpt><trkpt lat="41.466839790252195" lon="12.610427160529953"><ele>24.5</ele><time>2026-05-01T07:00:27.998Z</time></trkpt><trkpt lat="41.466733162018045" lon="12.610504801722803"><ele>23.25</ele><time>2026-05-01T07:00:28.998Z</time></trkpt><trkpt lat="41.46662872201029" lon="12.610585852577156"><ele>22.0</ele><time>2026-05-01T07:00:29.998Z</time></trkpt><trkpt lat="41.46652434755339" lon="12.610670336093795"><ele>22.0</ele><time>2026-05-01T07:00:30.998Z</time></trkpt><trkpt lat="41.4664243430399" lon="12.61074552824744"><ele>22.0</ele><time>2026-05-01T07:00:31.998Z</time></trkpt><trkpt lat="41.46633434365489" lon="12.610799305427317"><ele>22.0</ele><time>2026-05-01T07:00:32.998Z</time></trkpt><trkpt lat="41.466256299464234" lon="12.610830522255497"><ele>22.0</ele><time>2026-05-01T07:00:33.998Z</time></trkpt><trkpt lat="41.46614201909213" lon="12.610867146925242"><ele>22.0</ele><time>2026-05-01T07:00:35.998Z</time></trkpt><trkpt lat="41.46603018525991" lon="12.610877975216106"><ele>21.25</ele><time>2026-05-01T07:00:37.998Z</time></trkpt><trkpt lat="41.465960749544706" lon="12.610877668757437"><ele>20.5</ele><time>2026-05-01T07:00:38.998Z</time></trkpt><trkpt lat="41.465897065054115" lon="12.610888200639879"><ele>19.75</ele><time>2026-05-01T07:00:39.998Z</time></trkpt><trkpt lat="41.4656097153815" lon="12.610992471632352"><ele>19.0</ele><time>2026-05-01T07:00:43.999Z</time></trkpt><trkpt lat="41.465511502256604" lon="12.611012662136448"><ele>18.75</ele><time>2026-05-01T07:00:44.999Z</time></trkpt><trkpt lat="41.46539170668005" lon="12.611042138497451"><ele>18.5</ele><time>2026-05-01T07:00:45.999Z</time></trkpt><trkpt lat="41.465259939216345" lon="12.611069144289091"><ele>18.25</ele><time>2026-05-01T07:00:46.999Z</time></trkpt><trkpt lat="41.46511607650047" lon="12.61108452816997"><ele>18.0</ele><time>2026-05-01T07:00:47.999Z</time></trkpt><trkpt lat="41.464961054257344" lon="12.611086199046904"><ele>18.0</ele><time>2026-05-01T07:00:48.999Z</time></trkpt><trkpt lat="41.46479509827122" lon="12.611091288336388"><ele>18.0</ele><time>2026-05-01T07:00:49.999Z</time></trkpt><trkpt lat="41.464624612354406" lon="12.611101669926667"><ele>18.0</ele><time>2026-05-01T07:00:50.999Z</time></trkpt><trkpt lat="41.46444919394633" lon="12.61108871086073"><ele>17.666666666666668</ele><time>2026-05-01T07:00:51.999Z</time></trkpt><trkpt lat="41.464264627853" lon="12.61110368474227"><ele>17.333333333333336</ele><time>2026-05-01T07:00:52.999Z</time></trkpt><trkpt lat="41.46407827879799" lon="12.611118804894655"><ele>17.0</ele><time>2026-05-01T07:00:53.999Z</time></trkpt><trkpt lat="41.463899346425414" lon="12.61113470739957"><ele>17.333333333333336</ele><time>2026-05-01T07:00:54.999Z</time></trkpt><trkpt lat="41.46373658965803" lon="12.611149255226026"><ele>17.666666666666668</ele><time>2026-05-01T07:00:55.999Z</time></trkpt><trkpt lat="41.463577799600266" lon="12.611164208559082"><ele>18.0</ele><time>2026-05-01T07:00:56.999Z</time></trkpt><trkpt lat="41.463409725921736" lon="12.611177908612913"><ele>18.0</ele><time>2026-05-01T07:00:57.999Z</time></trkpt><trkpt lat="41.46323010695517" lon="12.61119316545284"><ele>18.0</ele><time>2026-05-01T07:00:58.999Z</time></trkpt><trkpt lat="41.46305787259364" lon="12.611207795034142"><ele>18.0</ele><time>2026-05-01T07:00:59.999Z</time></trkpt><trkpt lat="41.46289802253144" lon="12.611239784882068"><ele>17.0</ele><time>2026-05-01T07:01:00.999Z</time></trkpt><trkpt lat="41.462739767930934" lon="12.611266634327512"><ele>16.0</ele><time>2026-05-01T07:01:01.999Z</time></trkpt><trkpt lat="41.462580373810425" lon="12.61132457965288"><ele>15.0</ele><time>2026-05-01T07:01:02.999Z</time></trkpt><trkpt lat="41.46242576667446" lon="12.61141622616031"><ele>15.0</ele><time>2026-05-01T07:01:03.999Z</time></trkpt><trkpt lat="41.462276719471504" lon="12.611542462165664"><ele>15.0</ele><time>2026-05-01T07:01:04.999Z</time></trkpt><trkpt lat="41.46212769367661" lon="12.611672633736712"><ele>15.0</ele><time>2026-05-01T07:01:05.999Z</time></trkpt><trkpt lat="41.46198666700481" lon="12.611795438370871"><ele>14.75</ele><time>2026-05-01T07:01:06.999Z</time></trkpt><trkpt lat="41.461855547787735" lon="12.611899514514143"><ele>14.5</ele><time>2026-05-01T07:01:07.999Z</time></trkpt><trkpt lat="41.461730850862615" lon="12.611999807039828"><ele>14.25</ele><time>2026-05-01T07:01:08.999Z</time></trkpt><trkpt lat="41.46161717471757" lon="12.612090542386282"><ele>14.0</ele><time>2026-05-01T07:01:09.999Z</time></trkpt><trkpt lat="41.46151018067269" lon="12.612173056019971"><ele>14.0</ele><time>2026-05-01T07:01:10.999Z</time></trkpt><trkpt lat="41.4614119512296" lon="12.612247348429689"><ele>13.999999999999998</ele><time>2026-05-01T07:01:11.999Z</time></trkpt><trkpt lat="41.461323435520654" lon="12.612315136739232"><ele>13.999999999999998</ele><time>2026-05-01T07:01:12.999Z</time></trkpt><trkpt lat="41.46125354286543" lon="12.612374073376294"><ele>14.0</ele><time>2026-05-01T07:01:13.999Z</time></trkpt><trkpt lat="41.46119602412279" lon="12.612419265313317"><ele>14.0</ele><time>2026-05-01T07:01:14.999Z</time></trkpt><trkpt lat="41.461108395364995" lon="12.612467167055017"><ele>14.0</ele><time>2026-05-01T07:01:16.999Z</time></trkpt><trkpt lat="41.46111317616663" lon="12.612667930221917"><ele>14.0</ele><time>2026-05-01T07:01:18.999Z</time></trkpt><trkpt lat="41.46128143463719" lon="12.612649017160363"><ele>14.0</ele><time>2026-05-01T07:01:20.999Z</time></trkpt><trkpt lat="41.461359469104856" lon="12.612581816407138"><ele>14.0</ele><time>2026-05-01T07:01:22.999Z</time></trkpt><trkpt lat="41.46133751314888" lon="12.612464284463503"><ele>14.000000000000002</ele><time>2026-05-01T07:03:10.999Z</time></trkpt><trkpt lat="41.46139627788103" lon="12.612427487255815"><ele>14.0</ele><time>2026-05-01T07:12:13.999Z</time></trkpt><trkpt lat="41.46145774581332" lon="12.612374099465354"><ele>14.0</ele><time>2026-05-01T07:12:15.999Z</time></trkpt><trkpt lat="41.46141498448717" lon="12.612306696034016"><ele>14.0</ele><time>2026-05-01T07:12:18.999Z</time></trkpt><trkpt lat="41.46132142143033" lon="12.612299822193528"><ele>14.000000000000002</ele><time>2026-05-01T07:12:20.999Z</time></trkpt><trkpt lat="41.46123157401249" lon="12.612381637571222"><ele>14.0</ele><time>2026-05-01T07:12:21.999Z</time></trkpt><trkpt lat="41.46114611721083" lon="12.612442013314409"><ele>13.0</ele><time>2026-05-01T07:12:22.999Z</time></trkpt><trkpt lat="41.46104446046537" lon="12.612521073555515"><ele>12.0</ele><time>2026-05-01T07:12:23.999Z</time></trkpt><trkpt lat="41.46093603389886" lon="12.612611340589057"><ele>11.0</ele><time>2026-05-01T07:12:24.999Z</time></trkpt><trkpt lat="41.46081696173629" lon="12.612706482707397"><ele>10.0</ele><time>2026-05-01T07:12:25.999Z</time></trkpt><trkpt lat="41.46069114389686" lon="12.612808035820152"><ele>10.333333333333334</ele><time>2026-05-01T07:12:26.999Z</time></trkpt><trkpt lat="41.460559921811466" lon="12.612913968981783"><ele>10.666666666666666</ele><time>2026-05-01T07:12:27.999Z</time></trkpt><trkpt lat="41.46042150883368" lon="12.613024998669207"><ele>11.0</ele><time>2026-05-01T07:12:28.999Z</time></trkpt><trkpt lat="41.46027438556663" lon="12.61314166120411"><ele>11.0</ele><time>2026-05-01T07:12:29.999Z</time></trkpt><trkpt lat="41.46013434842841" lon="12.613249609458833"><ele>11.0</ele><time>2026-05-01T07:12:30.999Z</time></trkpt><trkpt lat="41.45999826609528" lon="12.613353557697147"><ele>11.0</ele><time>2026-05-01T07:12:31.999Z</time></trkpt><trkpt lat="41.459867314705534" lon="12.613455460477454"><ele>11.0</ele><time>2026-05-01T07:12:32.999Z</time></trkpt><trkpt lat="41.459747572031894" lon="12.61354852618482"><ele>11.0</ele><time>2026-05-01T07:12:33.999Z</time></trkpt><trkpt lat="41.45963809746713" lon="12.613633701716445"><ele>11.0</ele><time>2026-05-01T07:12:34.999Z</time></trkpt><trkpt lat="41.45953679514514" lon="12.61371761251853"><ele>11.0</ele><time>2026-05-01T07:12:35.999Z</time></trkpt><trkpt lat="41.459430812976976" lon="12.61380646696636"><ele>12.25</ele><time>2026-05-01T07:12:36.999Z</time></trkpt><trkpt lat="41.45931642518779" lon="12.613902364800833"><ele>13.5</ele><time>2026-05-01T07:12:37.999Z</time></trkpt><trkpt lat="41.45919014835398" lon="12.61400408854253"><ele>14.75</ele><time>2026-05-01T07:12:38.999Z</time></trkpt><trkpt lat="41.45906183674598" lon="12.614104514066696"><ele>16.0</ele><time>2026-05-01T07:12:39.999Z</time></trkpt><trkpt lat="41.45894477481914" lon="12.614195097254044"><ele>16.0</ele><time>2026-05-01T07:12:40.999Z</time></trkpt><trkpt lat="41.4588321139223" lon="12.614284054709755"><ele>16.0</ele><time>2026-05-01T07:12:41.998Z</time></trkpt><trkpt lat="41.45871670280995" lon="12.614375485535726"><ele>16.0</ele><time>2026-05-01T07:12:42.998Z</time></trkpt><trkpt lat="41.45859980440754" lon="12.614468871004545"><ele>16.0</ele><time>2026-05-01T07:12:43.998Z</time></trkpt><trkpt lat="41.458476586037314" lon="12.614571264057032"><ele>16.0</ele><time>2026-05-01T07:12:44.998Z</time></trkpt><trkpt lat="41.458348377037424" lon="12.614681633373612"><ele>16.0</ele><time>2026-05-01T07:12:45.998Z</time></trkpt><trkpt lat="41.458217032758064" lon="12.614762979513037"><ele>16.0</ele><time>2026-05-01T07:12:46.998Z</time></trkpt><trkpt lat="41.458091644428265" lon="12.614862601876105"><ele>16.0</ele><time>2026-05-01T07:12:47.998Z</time></trkpt><trkpt lat="41.457971416088796" lon="12.614958124567863"><ele>16.25</ele><time>2026-05-01T07:12:48.998Z</time></trkpt><trkpt lat="41.45786112309386" lon="12.615045753832066"><ele>16.5</ele><time>2026-05-01T07:12:49.998Z</time></trkpt><trkpt lat="41.457763005491174" lon="12.615152409830456"><ele>16.75</ele><time>2026-05-01T07:12:50.998Z</time></trkpt><trkpt lat="41.45764556660236" lon="12.6152507586355"><ele>17.0</ele><time>2026-05-01T07:12:51.998Z</time></trkpt><trkpt lat="41.45751366572961" lon="12.615358024657542"><ele>17.0</ele><time>2026-05-01T07:12:52.998Z</time></trkpt><trkpt lat="41.457372181058176" lon="12.61546752096054"><ele>17.0</ele><time>2026-05-01T07:12:53.998Z</time></trkpt><trkpt lat="41.457219572551146" lon="12.615554939305937"><ele>17.0</ele><time>2026-05-01T07:12:54.998Z</time></trkpt><trkpt lat="41.457070639485565" lon="12.61567316938175"><ele>15.666666666666668</ele><time>2026-05-01T07:12:55.998Z</time></trkpt><trkpt lat="41.45691431812505" lon="12.615797265390476"><ele>14.333333333333332</ele><time>2026-05-01T07:12:56.998Z</time></trkpt><trkpt lat="41.45675457621979" lon="12.61592416302456"><ele>13.0</ele><time>2026-05-01T07:12:57.998Z</time></trkpt><trkpt lat="41.45659531829579" lon="12.616050649950846"><ele>13.0</ele><time>2026-05-01T07:12:58.998Z</time></trkpt><trkpt lat="41.456432738502315" lon="12.616179775214855"><ele>13.0</ele><time>2026-05-01T07:12:59.998Z</time></trkpt><trkpt lat="41.4562625449839" lon="12.616314947498394"><ele>13.0</ele><time>2026-05-01T07:13:00.998Z</time></trkpt><trkpt lat="41.456092421683955" lon="12.616449419408397"><ele>13.0</ele><time>2026-05-01T07:13:01.998Z</time></trkpt><trkpt lat="41.45592132469039" lon="12.616584024810141"><ele>13.0</ele><time>2026-05-01T07:13:02.998Z</time></trkpt><trkpt lat="41.45575373839566" lon="12.616715868277895"><ele>13.0</ele><time>2026-05-01T07:13:03.998Z</time></trkpt><trkpt lat="41.45559879328991" lon="12.616838818419506"><ele>12.0</ele><time>2026-05-01T07:13:04.998Z</time></trkpt><trkpt lat="41.45544298270316" lon="12.616963974630266"><ele>11.0</ele><time>2026-05-01T07:13:05.998Z</time></trkpt><trkpt lat="41.45529393489838" lon="12.617083518219895"><ele>10.0</ele><time>2026-05-01T07:13:06.998Z</time></trkpt><trkpt lat="41.45515271362662" lon="12.617219606339523"><ele>12.333333333333334</ele><time>2026-05-01T07:13:07.998Z</time></trkpt><trkpt lat="41.45500309671978" lon="12.617313503089086"><ele>14.666666666666668</ele><time>2026-05-01T07:13:08.998Z</time></trkpt><trkpt lat="41.45486857163146" lon="12.617418565502108"><ele>17.0</ele><time>2026-05-01T07:13:09.998Z</time></trkpt><trkpt lat="41.45473096688489" lon="12.617520047734299"><ele>15.0</ele><time>2026-05-01T07:13:10.998Z</time></trkpt><trkpt lat="41.45458729990544" lon="12.61762484510816"><ele>13.0</ele><time>2026-05-01T07:13:11.998Z</time></trkpt><trkpt lat="41.454431899757544" lon="12.617711305442173"><ele>11.0</ele><time>2026-05-01T07:13:12.998Z</time></trkpt><trkpt lat="41.454267655707945" lon="12.61780841369498"><ele>12.333333333333332</ele><time>2026-05-01T07:13:13.998Z</time></trkpt><trkpt lat="41.45410142173108" lon="12.61790625842398"><ele>13.666666666666666</ele><time>2026-05-01T07:13:14.998Z</time></trkpt><trkpt lat="41.45393434286548" lon="12.618004598404157"><ele>15.0</ele><time>2026-05-01T07:13:15.998Z</time></trkpt><trkpt lat="41.453773306204056" lon="12.618133138632293"><ele>15.0</ele><time>2026-05-01T07:13:17Z</time></trkpt><trkpt lat="41.453601034481295" lon="12.61823016984711"><ele>15.0</ele><time>2026-05-01T07:13:18Z</time></trkpt><trkpt lat="41.45342883243428" lon="12.618321745066934"><ele>15.0</ele><time>2026-05-01T07:13:19Z</time></trkpt><trkpt lat="41.45312486994305" lon="12.618484902253176"><ele>15.0</ele><time>2026-05-01T07:13:21Z</time></trkpt><trkpt lat="41.45299252253464" lon="12.618553929963673"><ele>15.0</ele><time>2026-05-01T07:13:22Z</time></trkpt><trkpt lat="41.452870536084646" lon="12.618617297914268"><ele>15.0</ele><time>2026-05-01T07:13:23Z</time></trkpt><trkpt lat="41.45275508911071" lon="12.618683646543047"><ele>15.0</ele><time>2026-05-01T07:13:24Z</time></trkpt><trkpt lat="41.45263322689371" lon="12.618709863754109"><ele>15.8</ele><time>2026-05-01T07:13:25Z</time></trkpt><trkpt lat="41.45254116715891" lon="12.618757454111481"><ele>16.6</ele><time>2026-05-01T07:13:26Z</time></trkpt><trkpt lat="41.45245269872316" lon="12.618803187926051"><ele>17.4</ele><time>2026-05-01T07:13:27Z</time></trkpt><trkpt lat="41.45235024700418" lon="12.618856150414887"><ele>18.2</ele><time>2026-05-01T07:13:28Z</time></trkpt><trkpt lat="41.45224033288972" lon="12.618913306463575"><ele>19.0</ele><time>2026-05-01T07:13:29Z</time></trkpt><trkpt lat="41.45213377943341" lon="12.618969512636257"><ele>18.0</ele><time>2026-05-01T07:13:30Z</time></trkpt><trkpt lat="41.45201739155114" lon="12.619028556499577"><ele>17.0</ele><time>2026-05-01T07:13:31Z</time></trkpt><trkpt lat="41.45189073431091" lon="12.619093699388625"><ele>16.0</ele><time>2026-05-01T07:13:32Z</time></trkpt><trkpt lat="41.45175928253264" lon="12.619161308241596"><ele>15.0</ele><time>2026-05-01T07:13:33Z</time></trkpt><trkpt lat="41.451625918116164" lon="12.61923052334955"><ele>15.0</ele><time>2026-05-01T07:13:34Z</time></trkpt><trkpt lat="41.451492293237244" lon="12.6192999066966"><ele>15.0</ele><time>2026-05-01T07:13:35Z</time></trkpt><trkpt lat="41.45136082532338" lon="12.619368170056038"><ele>15.0</ele><time>2026-05-01T07:13:36Z</time></trkpt><trkpt lat="41.45123750525456" lon="12.619432122797193"><ele>15.0</ele><time>2026-05-01T07:13:37Z</time></trkpt><trkpt lat="41.451119372611736" lon="12.619492090287801"><ele>15.75</ele><time>2026-05-01T07:13:38Z</time></trkpt><trkpt lat="41.45099610528823" lon="12.61956269910372"><ele>16.5</ele><time>2026-05-01T07:13:39Z</time></trkpt><trkpt lat="41.45088270266665" lon="12.619660006826837"><ele>17.25</ele><time>2026-05-01T07:13:39.999Z</time></trkpt><trkpt lat="41.45078593588334" lon="12.619765399473616"><ele>18.0</ele><time>2026-05-01T07:13:40.999Z</time></trkpt><trkpt lat="41.450699753844695" lon="12.619860328864162"><ele>18.0</ele><time>2026-05-01T07:13:41.999Z</time></trkpt><trkpt lat="41.45062851186498" lon="12.61993995486475"><ele>18.0</ele><time>2026-05-01T07:13:42.999Z</time></trkpt><trkpt lat="41.45057257548626" lon="12.620016701822244"><ele>18.0</ele><time>2026-05-01T07:13:43.999Z</time></trkpt><trkpt lat="41.45048141630935" lon="12.620041220951235"><ele>18.0</ele><time>2026-05-01T07:13:45.999Z</time></trkpt><trkpt lat="41.4504031283639" lon="12.620055570254452"><ele>18.0</ele><time>2026-05-01T07:13:47.999Z</time></trkpt><trkpt lat="41.45030268382255" lon="12.62007430541863"><ele>18.0</ele><time>2026-05-01T07:13:49.999Z</time></trkpt><trkpt lat="41.45022485673838" lon="12.620063787617914"><ele>17.8</ele><time>2026-05-01T07:13:50.999Z</time></trkpt><trkpt lat="41.45013986059088" lon="12.620035200729822"><ele>17.6</ele><time>2026-05-01T07:13:51.999Z</time></trkpt><trkpt lat="41.450049371122304" lon="12.620003128959699"><ele>17.4</ele><time>2026-05-01T07:13:52.999Z</time></trkpt><trkpt lat="41.44994575681757" lon="12.619973322107912"><ele>17.2</ele><time>2026-05-01T07:13:53.999Z</time></trkpt><trkpt lat="41.44983661780293" lon="12.619941095254992"><ele>17.0</ele><time>2026-05-01T07:13:54.999Z</time></trkpt><trkpt lat="41.44974580829051" lon="12.619911329321015"><ele>17.0</ele><time>2026-05-01T07:13:55.999Z</time></trkpt><trkpt lat="41.449682938136135" lon="12.619889489368184"><ele>17.0</ele><time>2026-05-01T07:13:56.999Z</time></trkpt><trkpt lat="41.44957735028044" lon="12.619854513478508"><ele>17.0</ele><time>2026-05-01T07:13:58.999Z</time></trkpt><trkpt lat="41.4495144677301" lon="12.619817203969758"><ele>17.0</ele><time>2026-05-01T07:14:00.999Z</time></trkpt><trkpt lat="41.44947418907594" lon="12.62000926067249"><ele>17.0</ele><time>2026-05-01T07:14:02.999Z</time></trkpt><trkpt lat="41.44949410614536" lon="12.620097930628233"><ele>16.833333333333336</ele><time>2026-05-01T07:14:03.999Z</time></trkpt><trkpt lat="41.449519066876924" lon="12.620199308159142"><ele>16.666666666666668</ele><time>2026-05-01T07:14:04.999Z</time></trkpt><trkpt lat="41.4495416994235" lon="12.620293530608393"><ele>16.5</ele><time>2026-05-01T07:14:05.999Z</time></trkpt><trkpt lat="41.44956698750049" lon="12.620389681153327"><ele>16.333333333333332</ele><time>2026-05-01T07:14:06.999Z</time></trkpt><trkpt lat="41.44959757594212" lon="12.620491578625668"><ele>16.166666666666664</ele><time>2026-05-01T07:14:07.999Z</time></trkpt><trkpt lat="41.44963519494962" lon="12.620603280911844"><ele>16.0</ele><time>2026-05-01T07:14:08.999Z</time></trkpt><trkpt lat="41.449671196560544" lon="12.62073055043955"><ele>16.400000000000002</ele><time>2026-05-01T07:14:09.999Z</time></trkpt><trkpt lat="41.44970608922233" lon="12.620868282274401"><ele>16.8</ele><time>2026-05-01T07:14:10.999Z</time></trkpt><trkpt lat="41.44973887367225" lon="12.621010550182225"><ele>17.200000000000003</ele><time>2026-05-01T07:14:11.999Z</time></trkpt><trkpt lat="41.44976681581223" lon="12.621156952305077"><ele>17.6</ele><time>2026-05-01T07:14:12.999Z</time></trkpt><trkpt lat="41.449791460666496" lon="12.621304074830094"><ele>18.0</ele><time>2026-05-01T07:14:13.999Z</time></trkpt><trkpt lat="41.44981406354013" lon="12.621450841316536"><ele>18.25</ele><time>2026-05-01T07:14:14.999Z</time></trkpt><trkpt lat="41.4498406380104" lon="12.62159343816628"><ele>18.5</ele><time>2026-05-01T07:14:15.999Z</time></trkpt><trkpt lat="41.449874782990136" lon="12.621733330488409"><ele>18.75</ele><time>2026-05-01T07:14:16.999Z</time></trkpt><trkpt lat="41.449911423971805" lon="12.621877484784811"><ele>19.0</ele><time>2026-05-01T07:14:17.999Z</time></trkpt><trkpt lat="41.44995040826625" lon="12.62203147729424"><ele>19.75</ele><time>2026-05-01T07:14:18.999Z</time></trkpt><trkpt lat="41.449995340577225" lon="12.622199047086276"><ele>20.5</ele><time>2026-05-01T07:14:19.999Z</time></trkpt><trkpt lat="41.450041499574326" lon="12.622378422434572"><ele>21.25</ele><time>2026-05-01T07:14:20.999Z</time></trkpt><trkpt lat="41.450089666912824" lon="12.622558677843328"><ele>22.0</ele><time>2026-05-01T07:14:21.999Z</time></trkpt><trkpt lat="41.450137269951725" lon="12.622739920289776"><ele>21.75</ele><time>2026-05-01T07:14:22.999Z</time></trkpt><trkpt lat="41.45018582036895" lon="12.622920837202638"><ele>21.5</ele><time>2026-05-01T07:14:23.999Z</time></trkpt><trkpt lat="41.45023169674962" lon="12.623098909055875"><ele>21.25</ele><time>2026-05-01T07:14:24.999Z</time></trkpt><trkpt lat="41.45027403066784" lon="12.62326640799162"><ele>21.0</ele><time>2026-05-01T07:14:25.999Z</time></trkpt><trkpt lat="41.45031442420615" lon="12.623423773058905"><ele>21.0</ele><time>2026-05-01T07:14:26.999Z</time></trkpt><trkpt lat="41.45035370799252" lon="12.623581925987876"><ele>21.0</ele><time>2026-05-01T07:14:27.999Z</time></trkpt><trkpt lat="41.45039689492204" lon="12.623751622731296"><ele>21.0</ele><time>2026-05-01T07:14:28.999Z</time></trkpt><trkpt lat="41.450441120406936" lon="12.62392400130813"><ele>21.0</ele><time>2026-05-01T07:14:29.999Z</time></trkpt><trkpt lat="41.450487023524445" lon="12.624099309853191"><ele>22.25</ele><time>2026-05-01T07:14:30.999Z</time></trkpt><trkpt lat="41.450535641634346" lon="12.624280570737191"><ele>23.5</ele><time>2026-05-01T07:14:31.999Z</time></trkpt><trkpt lat="41.450583860606976" lon="12.624469277653473"><ele>24.75</ele><time>2026-05-01T07:14:32.999Z</time></trkpt><trkpt lat="41.45063052742643" lon="12.624652189306026"><ele>26.0</ele><time>2026-05-01T07:14:33.999Z</time></trkpt><trkpt lat="41.45067160737882" lon="12.624817746354635"><ele>26.0</ele><time>2026-05-01T07:14:34.999Z</time></trkpt><trkpt lat="41.45070897552841" lon="12.624970887153598"><ele>26.0</ele><time>2026-05-01T07:14:35.999Z</time></trkpt><trkpt lat="41.450738210585314" lon="12.625116609822518"><ele>26.0</ele><time>2026-05-01T07:14:36.999Z</time></trkpt><trkpt lat="41.450766388314776" lon="12.62525550922284"><ele>26.0</ele><time>2026-05-01T07:14:37.999Z</time></trkpt><trkpt lat="41.45078353418104" lon="12.625384380914994"><ele>26.0</ele><time>2026-05-01T07:14:38.999Z</time></trkpt><trkpt lat="41.45078749383727" lon="12.625514182783734"><ele>26.0</ele><time>2026-05-01T07:14:39.999Z</time></trkpt><trkpt lat="41.4507897593764" lon="12.62565353468777"><ele>26.0</ele><time>2026-05-01T07:14:40.998Z</time></trkpt><trkpt lat="41.45083579645081" lon="12.625788335509737"><ele>26.0</ele><time>2026-05-01T07:14:41.998Z</time></trkpt><trkpt lat="41.450915148884185" lon="12.625923404688523"><ele>26.0</ele><time>2026-05-01T07:14:42.998Z</time></trkpt><trkpt lat="41.450986290487904" lon="12.626089231681995"><ele>25.333333333333332</ele><time>2026-05-01T07:14:43.998Z</time></trkpt><trkpt lat="41.45104672390145" lon="12.626282719516736"><ele>24.666666666666664</ele><time>2026-05-01T07:14:44.998Z</time></trkpt><trkpt lat="41.451107212121094" lon="12.626501940394252"><ele>24.0</ele><time>2026-05-01T07:14:45.998Z</time></trkpt><trkpt lat="41.45117113661597" lon="12.626739441331512"><ele>24.0</ele><time>2026-05-01T07:14:46.998Z</time></trkpt><trkpt lat="41.45121916348567" lon="12.626989054832206"><ele>24.0</ele><time>2026-05-01T07:14:47.998Z</time></trkpt><trkpt lat="41.45130513993457" lon="12.62721843187413"><ele>24.0</ele><time>2026-05-01T07:14:48.998Z</time></trkpt><trkpt lat="41.451368639267756" lon="12.627451278870323"><ele>25.333333333333336</ele><time>2026-05-01T07:14:49.998Z</time></trkpt><trkpt lat="41.45143218891113" lon="12.62769956715064"><ele>26.666666666666668</ele><time>2026-05-01T07:14:50.998Z</time></trkpt><trkpt lat="41.451486427882614" lon="12.62793284070364"><ele>28.0</ele><time>2026-05-01T07:14:51.998Z</time></trkpt><trkpt lat="41.45153468185594" lon="12.628147987584104"><ele>28.333333333333336</ele><time>2026-05-01T07:14:52.998Z</time></trkpt><trkpt lat="41.45157749041856" lon="12.628359254236882"><ele>28.666666666666664</ele><time>2026-05-01T07:14:53.998Z</time></trkpt><trkpt lat="41.451634057677225" lon="12.628582175745956"><ele>29.0</ele><time>2026-05-01T07:14:54.998Z</time></trkpt><trkpt lat="41.45170027579688" lon="12.628830311255157"><ele>28.666666666666664</ele><time>2026-05-01T07:14:55.998Z</time></trkpt><trkpt lat="41.45175046647568" lon="12.629095050587166"><ele>28.333333333333336</ele><time>2026-05-01T07:14:56.998Z</time></trkpt><trkpt lat="41.45181631371078" lon="12.629366556220823"><ele>28.0</ele><time>2026-05-01T07:14:57.998Z</time></trkpt><trkpt lat="41.45189866097478" lon="12.629623706729106"><ele>28.0</ele><time>2026-05-01T07:14:58.998Z</time></trkpt><trkpt lat="41.45196274803794" lon="12.629873733355105"><ele>28.0</ele><time>2026-05-01T07:14:59.998Z</time></trkpt><trkpt lat="41.452025643923434" lon="12.63010115421774"><ele>28.0</ele><time>2026-05-01T07:15:00.998Z</time></trkpt><trkpt lat="41.45209639864792" lon="12.630331700625144"><ele>28.0</ele><time>2026-05-01T07:15:01.998Z</time></trkpt><trkpt lat="41.452168494097805" lon="12.630594361316291"><ele>28.0</ele><time>2026-05-01T07:15:02.998Z</time></trkpt><trkpt lat="41.45222931593114" lon="12.630867607451517"><ele>28.0</ele><time>2026-05-01T07:15:03.998Z</time></trkpt><trkpt lat="41.45236082173899" lon="12.631422828014195"><ele>28.0</ele><time>2026-05-01T07:15:05.998Z</time></trkpt><trkpt lat="41.45242872282086" lon="12.631685403439581"><ele>28.0</ele><time>2026-05-01T07:15:06.998Z</time></trkpt><trkpt lat="41.452491634260134" lon="12.631928852676635"><ele>28.0</ele><time>2026-05-01T07:15:07.998Z</time></trkpt><trkpt lat="41.452536097401165" lon="12.632166044655081"><ele>28.25</ele><time>2026-05-01T07:15:08.998Z</time></trkpt><trkpt lat="41.45259323931812" lon="12.6323860236876"><ele>28.5</ele><time>2026-05-01T07:15:09.998Z</time></trkpt><trkpt lat="41.45263952124344" lon="12.632564488580837"><ele>28.75</ele><time>2026-05-01T07:15:10.998Z</time></trkpt><trkpt lat="41.45267522780825" lon="12.632704582580907"><ele>29.0</ele><time>2026-05-01T07:15:11.998Z</time></trkpt><trkpt lat="41.45270755673372" lon="12.632831423747795"><ele>29.0</ele><time>2026-05-01T07:15:12.998Z</time></trkpt><trkpt lat="41.452741503310165" lon="12.632964612331943"><ele>29.0</ele><time>2026-05-01T07:15:13.998Z</time></trkpt><trkpt lat="41.45277568789348" lon="12.633098931764875"><ele>29.0</ele><time>2026-05-01T07:15:14.998Z</time></trkpt><trkpt lat="41.45280836768362" lon="12.633227435719883"><ele>29.0</ele><time>2026-05-01T07:15:15.998Z</time></trkpt><trkpt lat="41.45284174297617" lon="12.633358674658407"><ele>29.0</ele><time>2026-05-01T07:15:16.998Z</time></trkpt><trkpt lat="41.45287459353932" lon="12.633487081063402"><ele>29.25</ele><time>2026-05-01T07:15:17.998Z</time></trkpt><trkpt lat="41.45291422191977" lon="12.633639025856123"><ele>29.5</ele><time>2026-05-01T07:15:18.998Z</time></trkpt><trkpt lat="41.452960413278625" lon="12.63381461065642"><ele>29.75</ele><time>2026-05-01T07:15:19.998Z</time></trkpt><trkpt lat="41.45300903365544" lon="12.633995104935241"><ele>30.0</ele><time>2026-05-01T07:15:20.998Z</time></trkpt><trkpt lat="41.45306058524081" lon="12.634184159992941"><ele>30.0</ele><time>2026-05-01T07:15:21.998Z</time></trkpt><trkpt lat="41.453112764031786" lon="12.634390232194738"><ele>30.0</ele><time>2026-05-01T07:15:22.999Z</time></trkpt><trkpt lat="41.45316444240542" lon="12.63461212345268"><ele>30.0</ele><time>2026-05-01T07:15:23.999Z</time></trkpt><trkpt lat="41.45322101601434" lon="12.634842289059673"><ele>29.666666666666664</ele><time>2026-05-01T07:15:24.999Z</time></trkpt><trkpt lat="41.45328263078272" lon="12.635081514301232"><ele>29.333333333333332</ele><time>2026-05-01T07:15:25.999Z</time></trkpt><trkpt lat="41.45336058801057" lon="12.635316299430057"><ele>29.0</ele><time>2026-05-01T07:15:26.999Z</time></trkpt><trkpt lat="41.45342549793479" lon="12.635562421090704"><ele>29.0</ele><time>2026-05-01T07:15:27.999Z</time></trkpt><trkpt lat="41.453487850885324" lon="12.635803429885055"><ele>29.0</ele><time>2026-05-01T07:15:28.999Z</time></trkpt><trkpt lat="41.45354387851066" lon="12.636036626084842"><ele>29.0</ele><time>2026-05-01T07:15:29.999Z</time></trkpt><trkpt lat="41.453596805003144" lon="12.636270371782118"><ele>27.666666666666664</ele><time>2026-05-01T07:15:30.999Z</time></trkpt><trkpt lat="41.45363497656239" lon="12.636512816114793"><ele>26.333333333333336</ele><time>2026-05-01T07:15:31.999Z</time></trkpt><trkpt lat="41.45365975926311" lon="12.636764910896705"><ele>25.0</ele><time>2026-05-01T07:15:32.999Z</time></trkpt><trkpt lat="41.453669504227165" lon="12.637025678634831"><ele>23.666666666666668</ele><time>2026-05-01T07:15:33.999Z</time></trkpt><trkpt lat="41.45366189564477" lon="12.637271605572227"><ele>22.333333333333336</ele><time>2026-05-01T07:15:34.999Z</time></trkpt><trkpt lat="41.45365711418141" lon="12.637500985307314"><ele>21.0</ele><time>2026-05-01T07:15:35.999Z</time></trkpt><trkpt lat="41.45365678030022" lon="12.637704133303695"><ele>20.5</ele><time>2026-05-01T07:15:36.999Z</time></trkpt><trkpt lat="41.45365940956074" lon="12.637882816768446"><ele>20.0</ele><time>2026-05-01T07:15:37.999Z</time></trkpt><trkpt lat="41.45365753726558" lon="12.638049647812773"><ele>19.5</ele><time>2026-05-01T07:15:38.999Z</time></trkpt><trkpt lat="41.45365519615323" lon="12.638209146986371"><ele>19.0</ele><time>2026-05-01T07:15:39.999Z</time></trkpt><trkpt lat="41.45365779208283" lon="12.638391077526173"><ele>19.0</ele><time>2026-05-01T07:15:40.999Z</time></trkpt><trkpt lat="41.4536605403936" lon="12.638571850263126"><ele>19.0</ele><time>2026-05-01T07:15:41.999Z</time></trkpt><trkpt lat="41.45366521822182" lon="12.638736611286323"><ele>19.0</ele><time>2026-05-01T07:15:42.999Z</time></trkpt><trkpt lat="41.45365682629546" lon="12.638883657790918"><ele>19.0</ele><time>2026-05-01T07:15:43.999Z</time></trkpt><trkpt lat="41.453657549377446" lon="12.639020941819703"><ele>18.8</ele><time>2026-05-01T07:15:44.999Z</time></trkpt><trkpt lat="41.45365826641866" lon="12.639157078881752"><ele>18.599999999999998</ele><time>2026-05-01T07:15:45.999Z</time></trkpt><trkpt lat="41.45366710319188" lon="12.639296397389858"><ele>18.4</ele><time>2026-05-01T07:15:46.999Z</time></trkpt><trkpt lat="41.45366362916472" lon="12.63942539257082"><ele>18.2</ele><time>2026-05-01T07:15:47.999Z</time></trkpt><trkpt lat="41.453661234162816" lon="12.639541865233438"><ele>18.0</ele><time>2026-05-01T07:15:48.999Z</time></trkpt><trkpt lat="41.45364806223299" lon="12.639667682734723"><ele>16.75</ele><time>2026-05-01T07:15:49.999Z</time></trkpt><trkpt lat="41.45361273532681" lon="12.639807267607221"><ele>15.5</ele><time>2026-05-01T07:15:50.999Z</time></trkpt><trkpt lat="41.45359230746471" lon="12.639960053784671"><ele>14.25</ele><time>2026-05-01T07:15:51.999Z</time></trkpt><trkpt lat="41.45361852545463" lon="12.640122324758837"><ele>13.0</ele><time>2026-05-01T07:15:52.999Z</time></trkpt><trkpt lat="41.4536548337328" lon="12.640297018271818"><ele>12.25</ele><time>2026-05-01T07:15:53.999Z</time></trkpt><trkpt lat="41.453669554488094" lon="12.64047904309474"><ele>11.5</ele><time>2026-05-01T07:15:54.999Z</time></trkpt><trkpt lat="41.453679410663966" lon="12.640663454327093"><ele>10.75</ele><time>2026-05-01T07:15:55.999Z</time></trkpt><trkpt lat="41.45368664689729" lon="12.640809170712728"><ele>10.0</ele><time>2026-05-01T07:15:56.999Z</time></trkpt><trkpt lat="41.4536891558368" lon="12.640899999785564"><ele>10.0</ele><time>2026-05-01T07:15:58.999Z</time></trkpt><trkpt lat="41.45367699071966" lon="12.641065302677905"><ele>10.0</ele><time>2026-05-01T07:16:01.999Z</time></trkpt><trkpt lat="41.45367888506657" lon="12.641220243506323"><ele>10.0</ele><time>2026-05-01T07:16:02.999Z</time></trkpt><trkpt lat="41.45368074795313" lon="12.641396136941374"><ele>10.0</ele><time>2026-05-01T07:16:03.999Z</time></trkpt><trkpt lat="41.45368287583587" lon="12.641597051680767"><ele>9.666666666666668</ele><time>2026-05-01T07:16:04.999Z</time></trkpt><trkpt lat="41.453697548211125" lon="12.641808691114303"><ele>9.333333333333334</ele><time>2026-05-01T07:16:05.999Z</time></trkpt><trkpt lat="41.45369935389603" lon="12.642036189697722"><ele>9.0</ele><time>2026-05-01T07:16:06.999Z</time></trkpt><trkpt lat="41.4537073683471" lon="12.642271302756553"><ele>8.666666666666666</ele><time>2026-05-01T07:16:07.999Z</time></trkpt><trkpt lat="41.453720525223744" lon="12.642505384703492"><ele>8.333333333333332</ele><time>2026-05-01T07:16:08.999Z</time></trkpt><trkpt lat="41.453735236322466" lon="12.642759311371126"><ele>8.0</ele><time>2026-05-01T07:16:09.999Z</time></trkpt><trkpt lat="41.4537519900856" lon="12.643029815513533"><ele>9.0</ele><time>2026-05-01T07:16:10.999Z</time></trkpt><trkpt lat="41.45377333206972" lon="12.6432907703248"><ele>10.0</ele><time>2026-05-01T07:16:11.999Z</time></trkpt><trkpt lat="41.453812934455826" lon="12.643558770050847"><ele>11.0</ele><time>2026-05-01T07:16:12.999Z</time></trkpt><trkpt lat="41.453881732052565" lon="12.643845024058963"><ele>14.5</ele><time>2026-05-01T07:16:13.999Z</time></trkpt><trkpt lat="41.45396463330816" lon="12.64415252671682"><ele>18.0</ele><time>2026-05-01T07:16:14.999Z</time></trkpt><trkpt lat="41.45404667775133" lon="12.644462712567336"><ele>16.5</ele><time>2026-05-01T07:16:15.999Z</time></trkpt><trkpt lat="41.45412812475349" lon="12.64477685921399"><ele>15.0</ele><time>2026-05-01T07:16:16.999Z</time></trkpt><trkpt lat="41.45421755655136" lon="12.645091765602691"><ele>13.0</ele><time>2026-05-01T07:16:17.999Z</time></trkpt><trkpt lat="41.45430643334855" lon="12.645412700954356"><ele>11.0</ele><time>2026-05-01T07:16:18.999Z</time></trkpt><trkpt lat="41.45439517917715" lon="12.645739814113043"><ele>11.0</ele><time>2026-05-01T07:16:19.999Z</time></trkpt><trkpt lat="41.454485513354875" lon="12.646072900783896"><ele>11.0</ele><time>2026-05-01T07:16:20.999Z</time></trkpt><trkpt lat="41.45457866037421" lon="12.646408079716934"><ele>12.0</ele><time>2026-05-01T07:16:21.999Z</time></trkpt><trkpt lat="41.45467045510665" lon="12.646749974060043"><ele>13.0</ele><time>2026-05-01T07:16:22.999Z</time></trkpt><trkpt lat="41.45475311874385" lon="12.64707066688017"><ele>13.0</ele><time>2026-05-01T07:16:23.999Z</time></trkpt><trkpt lat="41.454830858159895" lon="12.647370450497684"><ele>13.0</ele><time>2026-05-01T07:16:24.999Z</time></trkpt><trkpt lat="41.45490895304822" lon="12.64766637641278"><ele>13.0</ele><time>2026-05-01T07:16:25.999Z</time></trkpt><trkpt lat="41.454988495808784" lon="12.647957219199055"><ele>13.0</ele><time>2026-05-01T07:16:26.999Z</time></trkpt><trkpt lat="41.45507667035323" lon="12.648259537234058"><ele>13.0</ele><time>2026-05-01T07:16:27.999Z</time></trkpt><trkpt lat="41.45517303358581" lon="12.648559185976879"><ele>13.0</ele><time>2026-05-01T07:16:28.999Z</time></trkpt><trkpt lat="41.45527152989826" lon="12.648840994117155"><ele>11.5</ele><time>2026-05-01T07:16:29.999Z</time></trkpt><trkpt lat="41.455370332549876" lon="12.649109600592112"><ele>10.0</ele><time>2026-05-01T07:16:30.999Z</time></trkpt><trkpt lat="41.45546968230861" lon="12.64938077070117"><ele>11.666666666666668</ele><time>2026-05-01T07:16:31.999Z</time></trkpt><trkpt lat="41.45556845509944" lon="12.649648612558892"><ele>13.333333333333334</ele><time>2026-05-01T07:16:32.999Z</time></trkpt><trkpt lat="41.45565953974041" lon="12.649901709047956"><ele>15.0</ele><time>2026-05-01T07:16:33.999Z</time></trkpt><trkpt lat="41.4557425234761" lon="12.650139165404902"><ele>14.0</ele><time>2026-05-01T07:16:34.999Z</time></trkpt><trkpt lat="41.455819841646104" lon="12.650364302450717"><ele>13.0</ele><time>2026-05-01T07:16:35.999Z</time></trkpt><trkpt lat="41.455889667530684" lon="12.650571028892063"><ele>12.0</ele><time>2026-05-01T07:16:36.999Z</time></trkpt><trkpt lat="41.45594956333489" lon="12.65075849332259"><ele>12.0</ele><time>2026-05-01T07:16:37.999Z</time></trkpt><trkpt lat="41.455998957048486" lon="12.650927618693528"><ele>12.0</ele><time>2026-05-01T07:16:38.999Z</time></trkpt><trkpt lat="41.45604980712317" lon="12.651095277761726"><ele>12.0</ele><time>2026-05-01T07:16:39.999Z</time></trkpt><trkpt lat="41.45609589217402" lon="12.651261257585645"><ele>12.0</ele><time>2026-05-01T07:16:40.998Z</time></trkpt><trkpt lat="41.45613696447347" lon="12.65142523103014"><ele>12.2</ele><time>2026-05-01T07:16:41.998Z</time></trkpt><trkpt lat="41.45617267996132" lon="12.651577105950864"><ele>12.399999999999999</ele><time>2026-05-01T07:16:42.998Z</time></trkpt><trkpt lat="41.45620365210181" lon="12.651723891635623"><ele>12.600000000000001</ele><time>2026-05-01T07:16:43.998Z</time></trkpt><trkpt lat="41.45622907384723" lon="12.651856817520656"><ele>12.8</ele><time>2026-05-01T07:16:44.998Z</time></trkpt><trkpt lat="41.456250819683675" lon="12.651967718518176"><ele>13.0</ele><time>2026-05-01T07:16:45.998Z</time></trkpt><trkpt lat="41.45626929682808" lon="12.652068291502145"><ele>12.333333333333332</ele><time>2026-05-01T07:16:46.998Z</time></trkpt><trkpt lat="41.45628628936238" lon="12.65216367175181"><ele>11.666666666666666</ele><time>2026-05-01T07:16:47.998Z</time></trkpt><trkpt lat="41.45630280622016" lon="12.652262752893234"><ele>11.0</ele><time>2026-05-01T07:16:48.998Z</time></trkpt><trkpt lat="41.456319831307304" lon="12.652360705613903"><ele>10.333333333333332</ele><time>2026-05-01T07:16:49.998Z</time></trkpt><trkpt lat="41.4563334135004" lon="12.652444911860005"><ele>9.666666666666666</ele><time>2026-05-01T07:16:50.998Z</time></trkpt><trkpt lat="41.45636031389581" lon="12.652615201598698"><ele>9.0</ele><time>2026-05-01T07:16:52.998Z</time></trkpt><trkpt lat="41.456376434646074" lon="12.652699417747812"><ele>11.2</ele><time>2026-05-01T07:16:53.998Z</time></trkpt><trkpt lat="41.45640221804515" lon="12.652844435469653"><ele>13.4</ele><time>2026-05-01T07:16:55.998Z</time></trkpt><trkpt lat="41.45641939067826" lon="12.653002073292308"><ele>15.6</ele><time>2026-05-01T07:16:57.998Z</time></trkpt><trkpt lat="41.45643845152208" lon="12.653154655969361"><ele>17.8</ele><time>2026-05-01T07:16:59.998Z</time></trkpt><trkpt lat="41.456451101715494" lon="12.653238799675544"><ele>20.0</ele><time>2026-05-01T07:17:00.998Z</time></trkpt><trkpt lat="41.45646334127713" lon="12.65332562807644"><ele>20.0</ele><time>2026-05-01T07:17:01.998Z</time></trkpt><trkpt lat="41.45648140072057" lon="12.65347490399247"><ele>20.0</ele><time>2026-05-01T07:17:03.998Z</time></trkpt><trkpt lat="41.456510923208015" lon="12.653577505339191"><ele>20.0</ele><time>2026-05-01T07:17:05.998Z</time></trkpt><trkpt lat="41.45650687113747" lon="12.653666126871407"><ele>20.0</ele><time>2026-05-01T07:17:34.999Z</time></trkpt><trkpt lat="41.45652200326021" lon="12.653753719004865"><ele>20.0</ele><time>2026-05-01T07:17:35.999Z</time></trkpt><trkpt lat="41.45652883317986" lon="12.653902579643272"><ele>20.0</ele><time>2026-05-01T07:17:36.999Z</time></trkpt><trkpt lat="41.456547804272375" lon="12.654071831241298"><ele>19.5</ele><time>2026-05-01T07:17:37.999Z</time></trkpt><trkpt lat="41.45657182619443" lon="12.654254537871399"><ele>19.0</ele><time>2026-05-01T07:17:38.999Z</time></trkpt><trkpt lat="41.45660928301955" lon="12.654442674872117"><ele>18.5</ele><time>2026-05-01T07:17:39.999Z</time></trkpt><trkpt lat="41.4566726194929" lon="12.65463898562924"><ele>18.0</ele><time>2026-05-01T07:17:40.999Z</time></trkpt><trkpt lat="41.45675257468666" lon="12.654834804810259"><ele>16.333333333333332</ele><time>2026-05-01T07:17:41.999Z</time></trkpt><trkpt lat="41.456843079541805" lon="12.65502147232894"><ele>14.666666666666666</ele><time>2026-05-01T07:17:42.999Z</time></trkpt><trkpt lat="41.45692407703233" lon="12.655192502267363"><ele>13.0</ele><time>2026-05-01T07:17:43.999Z</time></trkpt><trkpt lat="41.45699693795987" lon="12.655359250564373"><ele>12.333333333333332</ele><time>2026-05-01T07:17:44.999Z</time></trkpt><trkpt lat="41.45706135400737" lon="12.655525873405596"><ele>11.666666666666666</ele><time>2026-05-01T07:17:45.999Z</time></trkpt><trkpt lat="41.457110695347225" lon="12.655710720141759"><ele>11.0</ele><time>2026-05-01T07:17:46.999Z</time></trkpt><trkpt lat="41.45713466783694" lon="12.655933367118342"><ele>13.333333333333332</ele><time>2026-05-01T07:17:47.999Z</time></trkpt><trkpt lat="41.45715112272712" lon="12.656168201236488"><ele>15.666666666666666</ele><time>2026-05-01T07:17:48.999Z</time></trkpt><trkpt lat="41.45716956318221" lon="12.656404162902158"><ele>18.0</ele><time>2026-05-01T07:17:49.999Z</time></trkpt><trkpt lat="41.45718362385241" lon="12.656617877367136"><ele>18.0</ele><time>2026-05-01T07:17:50.999Z</time></trkpt><trkpt lat="41.45719345688172" lon="12.65680830481686"><ele>18.0</ele><time>2026-05-01T07:17:51.999Z</time></trkpt><trkpt lat="41.45720459280798" lon="12.656978205394648"><ele>18.0</ele><time>2026-05-01T07:17:52.999Z</time></trkpt><trkpt lat="41.45721629862295" lon="12.657141242796998"><ele>18.0</ele><time>2026-05-01T07:17:53.999Z</time></trkpt><trkpt lat="41.45722505525684" lon="12.65728184459677"><ele>17.666666666666668</ele><time>2026-05-01T07:17:54.999Z</time></trkpt><trkpt lat="41.457234433162746" lon="12.657386500841733"><ele>17.333333333333332</ele><time>2026-05-01T07:17:55.999Z</time></trkpt><trkpt lat="41.45724278016382" lon="12.657474011128476"><ele>17.0</ele><time>2026-05-01T07:17:56.999Z</time></trkpt><trkpt lat="41.45724004333712" lon="12.657625055466994"><ele>16.666666666666664</ele><time>2026-05-01T07:17:58.999Z</time></trkpt><trkpt lat="41.45723566812376" lon="12.657731054842648"><ele>16.333333333333332</ele><time>2026-05-01T07:17:59.999Z</time></trkpt><trkpt lat="41.45723538720942" lon="12.65787829788569"><ele>16.0</ele><time>2026-05-01T07:18:00.999Z</time></trkpt><trkpt lat="41.45722920934517" lon="12.658078197061128"><ele>16.0</ele><time>2026-05-01T07:18:01.999Z</time></trkpt><trkpt lat="41.45721902188017" lon="12.658293028017088"><ele>16.0</ele><time>2026-05-01T07:18:02.999Z</time></trkpt><trkpt lat="41.457205528942424" lon="12.658508960595478"><ele>16.0</ele><time>2026-05-01T07:18:03.999Z</time></trkpt><trkpt lat="41.457196678176466" lon="12.658709920862378"><ele>16.0</ele><time>2026-05-01T07:18:04.999Z</time></trkpt><trkpt lat="41.45720096346209" lon="12.658896285983865"><ele>16.0</ele><time>2026-05-01T07:18:05.999Z</time></trkpt><trkpt lat="41.45720944488873" lon="12.659091589139688"><ele>16.0</ele><time>2026-05-01T07:18:06.999Z</time></trkpt><trkpt lat="41.45721446783087" lon="12.659290355071516"><ele>16.0</ele><time>2026-05-01T07:18:07.999Z</time></trkpt><trkpt lat="41.45721795910716" lon="12.65948410432575"><ele>16.0</ele><time>2026-05-01T07:18:08.999Z</time></trkpt><trkpt lat="41.45722459615124" lon="12.659661083546002"><ele>16.0</ele><time>2026-05-01T07:18:09.999Z</time></trkpt><trkpt lat="41.45724279685613" lon="12.659842949703672"><ele>16.0</ele><time>2026-05-01T07:18:10.999Z</time></trkpt><trkpt lat="41.4572597912742" lon="12.660015634143258"><ele>16.0</ele><time>2026-05-01T07:18:11.999Z</time></trkpt><trkpt lat="41.45727403319922" lon="12.660179644232791"><ele>15.75</ele><time>2026-05-01T07:18:12.999Z</time></trkpt><trkpt lat="41.45728341234766" lon="12.660330717733805"><ele>15.5</ele><time>2026-05-01T07:18:13.999Z</time></trkpt><trkpt lat="41.45729689913497" lon="12.660475013215722"><ele>15.25</ele><time>2026-05-01T07:18:14.999Z</time></trkpt><trkpt lat="41.457317344941046" lon="12.660661168682388"><ele>15.0</ele><time>2026-05-01T07:18:15.999Z</time></trkpt><trkpt lat="41.45733149122682" lon="12.660875816238796"><ele>15.0</ele><time>2026-05-01T07:18:16.999Z</time></trkpt><trkpt lat="41.45734474208508" lon="12.661096630924407"><ele>15.0</ele><time>2026-05-01T07:18:17.999Z</time></trkpt><trkpt lat="41.457361224541835" lon="12.661301933140951"><ele>15.0</ele><time>2026-05-01T07:18:18.999Z</time></trkpt><trkpt lat="41.45735517931992" lon="12.661495212156673"><ele>14.0</ele><time>2026-05-01T07:18:19.999Z</time></trkpt><trkpt lat="41.45736759294956" lon="12.661702231950617"><ele>13.0</ele><time>2026-05-01T07:18:20.999Z</time></trkpt><trkpt lat="41.45738020745689" lon="12.661929969070105"><ele>12.0</ele><time>2026-05-01T07:18:21.999Z</time></trkpt><trkpt lat="41.457404811809255" lon="12.662155324296972"><ele>12.0</ele><time>2026-05-01T07:18:22.999Z</time></trkpt><trkpt lat="41.45741631918118" lon="12.662386652573982"><ele>12.0</ele><time>2026-05-01T07:18:23.999Z</time></trkpt><trkpt lat="41.4574283741794" lon="12.662599621468619"><ele>12.0</ele><time>2026-05-01T07:18:24.999Z</time></trkpt><trkpt lat="41.45744063540106" lon="12.662799171142847"><ele>11.25</ele><time>2026-05-01T07:18:25.999Z</time></trkpt><trkpt lat="41.45745430213461" lon="12.662992943630625"><ele>10.5</ele><time>2026-05-01T07:18:26.999Z</time></trkpt><trkpt lat="41.4574679429354" lon="12.663193639542643"><ele>9.75</ele><time>2026-05-01T07:18:27.999Z</time></trkpt><trkpt lat="41.45746267662238" lon="12.663389943988138"><ele>9.0</ele><time>2026-05-01T07:18:28.999Z</time></trkpt><trkpt lat="41.45749236246725" lon="12.663576089567407"><ele>8.5</ele><time>2026-05-01T07:18:29.999Z</time></trkpt><trkpt lat="41.45750721640508" lon="12.663751880699225"><ele>8.0</ele><time>2026-05-01T07:18:30.999Z</time></trkpt><trkpt lat="41.45752041327944" lon="12.663900628564736"><ele>7.5</ele><time>2026-05-01T07:18:31.999Z</time></trkpt><trkpt lat="41.45752869096346" lon="12.66402930511077"><ele>7.0</ele><time>2026-05-01T07:18:32.999Z</time></trkpt><trkpt lat="41.45753505308129" lon="12.664173244206303"><ele>7.0</ele><time>2026-05-01T07:18:33.999Z</time></trkpt><trkpt lat="41.457556866235336" lon="12.664360303834027"><ele>7.0</ele><time>2026-05-01T07:18:34.999Z</time></trkpt><trkpt lat="41.45759573075305" lon="12.664585459146545"><ele>7.0</ele><time>2026-05-01T07:18:35.999Z</time></trkpt><trkpt lat="41.45762782282425" lon="12.6648023311414"><ele>6.333333333333334</ele><time>2026-05-01T07:18:36.999Z</time></trkpt><trkpt lat="41.457659123403985" lon="12.665022273889894"><ele>5.666666666666667</ele><time>2026-05-01T07:18:37.999Z</time></trkpt><trkpt lat="41.457685218376135" lon="12.66525814728204"><ele>5.0</ele><time>2026-05-01T07:18:38.999Z</time></trkpt><trkpt lat="41.45771145129522" lon="12.665481372559181"><ele>4.75</ele><time>2026-05-01T07:18:39.999Z</time></trkpt><trkpt lat="41.45773585124338" lon="12.665688542637824"><ele>4.5</ele><time>2026-05-01T07:18:40.999Z</time></trkpt><trkpt lat="41.45775853433475" lon="12.665869387434881"><ele>4.25</ele><time>2026-05-01T07:18:41.999Z</time></trkpt><trkpt lat="41.45777165049083" lon="12.666034490689613"><ele>4.0</ele><time>2026-05-01T07:18:42.998Z</time></trkpt><trkpt lat="41.45775858128382" lon="12.666196588661993"><ele>4.0</ele><time>2026-05-01T07:18:43.998Z</time></trkpt><trkpt lat="41.45770196029909" lon="12.666336504249376"><ele>4.0</ele><time>2026-05-01T07:18:44.998Z</time></trkpt><trkpt lat="41.45761486444354" lon="12.666433864769012"><ele>4.0</ele><time>2026-05-01T07:18:45.998Z</time></trkpt><trkpt lat="41.45750671841004" lon="12.666376825601143"><ele>4.0</ele><time>2026-05-01T07:18:46.998Z</time></trkpt><trkpt lat="41.45745228279637" lon="12.666673177992411"><ele>4.0</ele><time>2026-05-01T07:18:47.998Z</time></trkpt><trkpt lat="41.45740456511967" lon="12.66684931461893"><ele>4.0</ele><time>2026-05-01T07:18:48.998Z</time></trkpt><trkpt lat="41.45737495213707" lon="12.666996569683558"><ele>4.0</ele><time>2026-05-01T07:18:49.998Z</time></trkpt><trkpt lat="41.45738309107389" lon="12.66713806341727"><ele>4.0</ele><time>2026-05-01T07:18:50.998Z</time></trkpt><trkpt lat="41.45744430867226" lon="12.667289329313416"><ele>5.0</ele><time>2026-05-01T07:18:51.998Z</time></trkpt><trkpt lat="41.457525861117844" lon="12.667478711501136"><ele>6.0</ele><time>2026-05-01T07:18:52.998Z</time></trkpt><trkpt lat="41.45759564645628" lon="12.667674603703933"><ele>7.0</ele><time>2026-05-01T07:18:53.998Z</time></trkpt><trkpt lat="41.45766934409078" lon="12.66786649805199"><ele>7.333333333333334</ele><time>2026-05-01T07:18:54.998Z</time></trkpt><trkpt lat="41.45777500133957" lon="12.668035131257025"><ele>7.666666666666666</ele><time>2026-05-01T07:18:55.998Z</time></trkpt><trkpt lat="41.45791846608361" lon="12.668139270539843"><ele>8.0</ele><time>2026-05-01T07:18:56.998Z</time></trkpt><trkpt lat="41.4580499119969" lon="12.668194034555487"><ele>8.0</ele><time>2026-05-01T07:18:57.998Z</time></trkpt><trkpt lat="41.4581532159451" lon="12.668241618795465"><ele>8.0</ele><time>2026-05-01T07:18:58.998Z</time></trkpt><trkpt lat="41.458240277704554" lon="12.668302435441051"><ele>8.0</ele><time>2026-05-01T07:18:59.998Z</time></trkpt><trkpt lat="41.458320363121054" lon="12.668320776280652"><ele>8.0</ele><time>2026-05-01T07:19:00.998Z</time></trkpt><trkpt lat="41.458431933064276" lon="12.66836731746299"><ele>8.0</ele><time>2026-05-01T07:19:02.998Z</time></trkpt><trkpt lat="41.45849087724096" lon="12.668401676843452"><ele>8.0</ele><time>2026-05-01T07:19:03.998Z</time></trkpt><trkpt lat="41.45857120251558" lon="12.668480507258666"><ele>8.0</ele><time>2026-05-01T07:19:05.998Z</time></trkpt><trkpt lat="41.45865196798823" lon="12.668602153445445"><ele>8.0</ele><time>2026-05-01T07:19:12.998Z</time></trkpt><trkpt lat="41.45874133208613" lon="12.668657632893844"><ele>8.0</ele><time>2026-05-01T07:19:14.998Z</time></trkpt><trkpt lat="41.458809001163935" lon="12.668658210484532"><ele>8.0</ele><time>2026-05-01T07:19:15.998Z</time></trkpt><trkpt lat="41.45889390771658" lon="12.668650797644867"><ele>8.5</ele><time>2026-05-01T07:19:16.998Z</time></trkpt><trkpt lat="41.45900029340039" lon="12.668664647810292"><ele>9.0</ele><time>2026-05-01T07:19:17.998Z</time></trkpt><trkpt lat="41.459120779821006" lon="12.668712603132844"><ele>9.5</ele><time>2026-05-01T07:19:18.998Z</time></trkpt><trkpt lat="41.45924774408417" lon="12.668776705166637"><ele>10.0</ele><time>2026-05-01T07:19:19.998Z</time></trkpt><trkpt lat="41.45939405803897" lon="12.66882511316056"><ele>10.0</ele><time>2026-05-01T07:19:20.998Z</time></trkpt><trkpt lat="41.45956156596181" lon="12.668843943231266"><ele>10.0</ele><time>2026-05-01T07:19:21.998Z</time></trkpt><trkpt lat="41.459734683716036" lon="12.668844860126724"><ele>10.0</ele><time>2026-05-01T07:19:22.998Z</time></trkpt><trkpt lat="41.45989951347395" lon="12.668857877245761"><ele>10.25</ele><time>2026-05-01T07:19:23.998Z</time></trkpt><trkpt lat="41.460039254830185" lon="12.668861577974061"><ele>10.5</ele><time>2026-05-01T07:19:24.998Z</time></trkpt><trkpt lat="41.46016470285495" lon="12.668867460162305"><ele>10.75</ele><time>2026-05-01T07:19:25.998Z</time></trkpt><trkpt lat="41.46028569593492" lon="12.668877935525666"><ele>11.0</ele><time>2026-05-01T07:19:26.998Z</time></trkpt><trkpt lat="41.4603962329887" lon="12.668885397392312"><ele>10.8</ele><time>2026-05-01T07:19:27.998Z</time></trkpt><trkpt lat="41.46050376800117" lon="12.668890020455464"><ele>10.600000000000001</ele><time>2026-05-01T07:19:28.998Z</time></trkpt><trkpt lat="41.46061004662319" lon="12.668892928021908"><ele>10.4</ele><time>2026-05-01T07:19:29.998Z</time></trkpt><trkpt lat="41.46071335569167" lon="12.66889760678566"><ele>10.2</ele><time>2026-05-01T07:19:30.998Z</time></trkpt><trkpt lat="41.4608030021294" lon="12.6689012430671"><ele>10.0</ele><time>2026-05-01T07:19:31.998Z</time></trkpt><trkpt lat="41.460885551886555" lon="12.668910281183965"><ele>10.0</ele><time>2026-05-01T07:19:32.998Z</time></trkpt><trkpt lat="41.460967025062104" lon="12.668917203971082"><ele>10.0</ele><time>2026-05-01T07:19:33.998Z</time></trkpt><trkpt lat="41.461042929048276" lon="12.668924526481229"><ele>10.0</ele><time>2026-05-01T07:19:34.999Z</time></trkpt><trkpt lat="41.46111576389566" lon="12.668957466927829"><ele>10.0</ele><time>2026-05-01T07:19:35.999Z</time></trkpt><trkpt lat="41.46118716152523" lon="12.668972891160157"><ele>10.0</ele><time>2026-05-01T07:19:36.999Z</time></trkpt><trkpt lat="41.46125954028719" lon="12.668992452132915"><ele>10.0</ele><time>2026-05-01T07:19:37.999Z</time></trkpt><trkpt lat="41.46135052263993" lon="12.669001985368274"><ele>10.5</ele><time>2026-05-01T07:19:38.999Z</time></trkpt><trkpt lat="41.461449419997365" lon="12.669059590138398"><ele>11.0</ele><time>2026-05-01T07:19:39.999Z</time></trkpt><trkpt lat="41.46155369589244" lon="12.66913175140635"><ele>11.5</ele><time>2026-05-01T07:19:40.999Z</time></trkpt><trkpt lat="41.46164944462907" lon="12.669240107701672"><ele>12.0</ele><time>2026-05-01T07:19:41.999Z</time></trkpt><trkpt lat="41.46175416119772" lon="12.669343486557057"><ele>11.666666666666666</ele><time>2026-05-01T07:19:42.999Z</time></trkpt><trkpt lat="41.46186563411886" lon="12.669478847242654"><ele>11.333333333333332</ele><time>2026-05-01T07:19:43.999Z</time></trkpt><trkpt lat="41.46199690254474" lon="12.669619714335735"><ele>11.0</ele><time>2026-05-01T07:19:44.999Z</time></trkpt><trkpt lat="41.46207963267995" lon="12.66980912681464"><ele>11.5</ele><time>2026-05-01T07:19:45.999Z</time></trkpt><trkpt lat="41.46214702930859" lon="12.669987312095332"><ele>12.0</ele><time>2026-05-01T07:19:46.999Z</time></trkpt><trkpt lat="41.462214916490325" lon="12.67013981721464"><ele>12.5</ele><time>2026-05-01T07:19:47.999Z</time></trkpt><trkpt lat="41.46228358549423" lon="12.670266911337437"><ele>13.0</ele><time>2026-05-01T07:19:48.999Z</time></trkpt><trkpt lat="41.46234961552598" lon="12.670375403427201"><ele>11.999999999999998</ele><time>2026-05-01T07:19:49.999Z</time></trkpt><trkpt lat="41.46240917364288" lon="12.67046741991874"><ele>11.0</ele><time>2026-05-01T07:19:50.999Z</time></trkpt><trkpt lat="41.46246325924754" lon="12.670537897323582"><ele>10.0</ele><time>2026-05-01T07:19:51.999Z</time></trkpt><trkpt lat="41.462543111281754" lon="12.670636044758371"><ele>9.0</ele><time>2026-05-01T07:19:53.999Z</time></trkpt><trkpt lat="41.46259494400957" lon="12.670691494754909"><ele>8.0</ele><time>2026-05-01T07:19:56.999Z</time></trkpt><trkpt lat="41.46267373819356" lon="12.670780388634157"><ele>7.0</ele><time>2026-05-01T07:19:58.999Z</time></trkpt><trkpt lat="41.46272422050407" lon="12.670604126206678"><ele>7.000000000000001</ele><time>2026-05-01T07:20:00.999Z</time></trkpt><trkpt lat="41.462741825688255" lon="12.670505865684337"><ele>7.0</ele><time>2026-05-01T07:20:01.999Z</time></trkpt><trkpt lat="41.462761287491375" lon="12.670397242598353"><ele>7.0</ele><time>2026-05-01T07:20:02.999Z</time></trkpt><trkpt lat="41.462781057679734" lon="12.670286898132742"><ele>7.0</ele><time>2026-05-01T07:20:03.999Z</time></trkpt><trkpt lat="41.46280915779884" lon="12.670174249935048"><ele>7.000000000000001</ele><time>2026-05-01T07:20:04.999Z</time></trkpt><trkpt lat="41.462832414440705" lon="12.670031699575118"><ele>7.0</ele><time>2026-05-01T07:20:05.999Z</time></trkpt><trkpt lat="41.46286457644826" lon="12.66985045054177"><ele>7.333333333333334</ele><time>2026-05-01T07:20:06.999Z</time></trkpt><trkpt lat="41.46290291378291" lon="12.669643086378796"><ele>7.666666666666666</ele><time>2026-05-01T07:20:07.999Z</time></trkpt><trkpt lat="41.46293958395329" lon="12.669427677570166"><ele>8.0</ele><time>2026-05-01T07:20:08.999Z</time></trkpt><trkpt lat="41.46296827559043" lon="12.669237851742405"><ele>8.0</ele><time>2026-05-01T07:20:09.999Z</time></trkpt><trkpt lat="41.46298996706875" lon="12.669065933083543"><ele>8.0</ele><time>2026-05-01T07:20:10.999Z</time></trkpt><trkpt lat="41.463007043187964" lon="12.668905106754721"><ele>8.0</ele><time>2026-05-01T07:20:11.999Z</time></trkpt><trkpt lat="41.46303290610188" lon="12.66875560043446"><ele>8.0</ele><time>2026-05-01T07:20:12.999Z</time></trkpt><trkpt lat="41.463063657557875" lon="12.668617148629705"><ele>7.0</ele><time>2026-05-01T07:20:13.999Z</time></trkpt><trkpt lat="41.46309224902607" lon="12.668486939241083"><ele>6.000000000000001</ele><time>2026-05-01T07:20:14.999Z</time></trkpt><trkpt lat="41.46311343221162" lon="12.668364172139054"><ele>5.0</ele><time>2026-05-01T07:20:15.999Z</time></trkpt><trkpt lat="41.46313124875724" lon="12.668251671377423"><ele>4.0</ele><time>2026-05-01T07:20:16.999Z</time></trkpt><trkpt lat="41.463146082636655" lon="12.668134335798682"><ele>3.0</ele><time>2026-05-01T07:20:17.999Z</time></trkpt><trkpt lat="41.46317172366781" lon="12.667976787320214"><ele>3.0</ele><time>2026-05-01T07:20:18.999Z</time></trkpt><trkpt lat="41.4632087184051" lon="12.667777617773238"><ele>3.0</ele><time>2026-05-01T07:20:19.999Z</time></trkpt><trkpt lat="41.46324995535144" lon="12.667545615184379"><ele>3.0</ele><time>2026-05-01T07:20:20.999Z</time></trkpt><trkpt lat="41.46330088101632" lon="12.667279409584031"><ele>3.0</ele><time>2026-05-01T07:20:21.999Z</time></trkpt><trkpt lat="41.46335870875037" lon="12.666969065716298"><ele>3.0</ele><time>2026-05-01T07:20:22.999Z</time></trkpt><trkpt lat="41.46341530790529" lon="12.666637113162132"><ele>3.0</ele><time>2026-05-01T07:20:23.999Z</time></trkpt><trkpt lat="41.4634756759647" lon="12.666285586915027"><ele>3.0</ele><time>2026-05-01T07:20:24.999Z</time></trkpt><trkpt lat="41.463538244643644" lon="12.665915568707279"><ele>3.0</ele><time>2026-05-01T07:20:25.999Z</time></trkpt><trkpt lat="41.463603545023055" lon="12.665536503874852"><ele>3.0</ele><time>2026-05-01T07:20:26.999Z</time></trkpt><trkpt lat="41.46366523343858" lon="12.665167532462183"><ele>6.5</ele><time>2026-05-01T07:20:27.999Z</time></trkpt><trkpt lat="41.46372173109887" lon="12.664835414020757"><ele>10.0</ele><time>2026-05-01T07:20:28.999Z</time></trkpt><trkpt lat="41.46377643546846" lon="12.664517659812232"><ele>9.0</ele><time>2026-05-01T07:20:29.999Z</time></trkpt><trkpt lat="41.46383104054198" lon="12.664213520382784"><ele>8.0</ele><time>2026-05-01T07:20:30.999Z</time></trkpt><trkpt lat="41.46388232942671" lon="12.663934700608914"><ele>7.0</ele><time>2026-05-01T07:20:31.999Z</time></trkpt><trkpt lat="41.46392811100653" lon="12.66368520798747"><ele>7.0</ele><time>2026-05-01T07:20:32.999Z</time></trkpt><trkpt lat="41.463967015177346" lon="12.663474344419164"><ele>7.0</ele><time>2026-05-01T07:20:33.999Z</time></trkpt><trkpt lat="41.464000968714316" lon="12.663285728667718"><ele>7.0</ele><time>2026-05-01T07:20:34.999Z</time></trkpt><trkpt lat="41.46402890157137" lon="12.663132718123363"><ele>7.0</ele><time>2026-05-01T07:20:35.999Z</time></trkpt><trkpt lat="41.46405254379767" lon="12.662996508938226"><ele>7.0</ele><time>2026-05-01T07:20:36.999Z</time></trkpt><trkpt lat="41.46407500941379" lon="12.662854478360671"><ele>7.0</ele><time>2026-05-01T07:20:37.999Z</time></trkpt><trkpt lat="41.46409733430697" lon="12.66270805878129"><ele>7.0</ele><time>2026-05-01T07:20:38.999Z</time></trkpt><trkpt lat="41.46412930775563" lon="12.662545061844362"><ele>7.0</ele><time>2026-05-01T07:20:39.999Z</time></trkpt><trkpt lat="41.464162647742356" lon="12.662386988201416"><ele>7.6</ele><time>2026-05-01T07:20:40.999Z</time></trkpt><trkpt lat="41.464188894701024" lon="12.662246615597542"><ele>8.2</ele><time>2026-05-01T07:20:41.999Z</time></trkpt><trkpt lat="41.4642156993604" lon="12.662109380439851"><ele>8.8</ele><time>2026-05-01T07:20:42.999Z</time></trkpt><trkpt lat="41.46424272092271" lon="12.661981615182887"><ele>9.4</ele><time>2026-05-01T07:20:43.999Z</time></trkpt><trkpt lat="41.46427361600397" lon="12.66189623966753"><ele>10.0</ele><time>2026-05-01T07:20:44.998Z</time></trkpt><trkpt lat="41.46447121479355" lon="12.661956901845363"><ele>10.0</ele><time>2026-05-01T07:20:45.998Z</time></trkpt><trkpt lat="41.46458598422764" lon="12.661991705516387"><ele>10.0</ele><time>2026-05-01T07:20:46.998Z</time></trkpt><trkpt lat="41.46472002533382" lon="12.662037190217188"><ele>10.0</ele><time>2026-05-01T07:20:47.998Z</time></trkpt><trkpt lat="41.46488275443125" lon="12.662069240510228"><ele>10.0</ele><time>2026-05-01T07:20:48.998Z</time></trkpt><trkpt lat="41.465083363714626" lon="12.662070517490298"><ele>10.333333333333334</ele><time>2026-05-01T07:20:49.998Z</time></trkpt><trkpt lat="41.46531251106923" lon="12.662049530242907"><ele>10.666666666666666</ele><time>2026-05-01T07:20:50.998Z</time></trkpt><trkpt lat="41.46553074519297" lon="12.662035896436523"><ele>11.0</ele><time>2026-05-01T07:20:51.998Z</time></trkpt><trkpt lat="41.46571982850202" lon="12.662024917221594"><ele>11.333333333333332</ele><time>2026-05-01T07:20:52.998Z</time></trkpt><trkpt lat="41.46589306322332" lon="12.662013157665518"><ele>11.666666666666666</ele><time>2026-05-01T07:20:53.998Z</time></trkpt><trkpt lat="41.46606052023015" lon="12.661995712202545"><ele>12.0</ele><time>2026-05-01T07:20:54.998Z</time></trkpt><trkpt lat="41.466215619968295" lon="12.66198572482213"><ele>12.5</ele><time>2026-05-01T07:20:55.998Z</time></trkpt><trkpt lat="41.466349774106945" lon="12.661984891594988"><ele>13.0</ele><time>2026-05-01T07:20:56.998Z</time></trkpt><trkpt lat="41.466465613892105" lon="12.661998017926917"><ele>13.5</ele><time>2026-05-01T07:20:57.998Z</time></trkpt><trkpt lat="41.46656481546507" lon="12.662034653481374"><ele>14.0</ele><time>2026-05-01T07:20:58.998Z</time></trkpt><trkpt lat="41.46665726468347" lon="12.662115470752418"><ele>14.0</ele><time>2026-05-01T07:20:59.998Z</time></trkpt><trkpt lat="41.46675260076564" lon="12.662231806036056"><ele>14.0</ele><time>2026-05-01T07:21:00.998Z</time></trkpt><trkpt lat="41.466849749021534" lon="12.662394654428734"><ele>14.0</ele><time>2026-05-01T07:21:01.998Z</time></trkpt><trkpt lat="41.46695357129813" lon="12.662579138068702"><ele>14.0</ele><time>2026-05-01T07:21:02.998Z</time></trkpt><trkpt lat="41.46705789532801" lon="12.662779532123245"><ele>14.0</ele><time>2026-05-01T07:21:03.998Z</time></trkpt><trkpt lat="41.46716005225543" lon="12.66299143113398"><ele>14.0</ele><time>2026-05-01T07:21:04.998Z</time></trkpt><trkpt lat="41.46728643158309" lon="12.663179960121997"><ele>14.333333333333334</ele><time>2026-05-01T07:21:05.998Z</time></trkpt><trkpt lat="41.467447162354794" lon="12.663335698521466"><ele>14.666666666666668</ele><time>2026-05-01T07:21:06.998Z</time></trkpt><trkpt lat="41.4676262164861" lon="12.663487559194555"><ele>15.0</ele><time>2026-05-01T07:21:07.998Z</time></trkpt><trkpt lat="41.46779764692383" lon="12.663631806808429"><ele>15.0</ele><time>2026-05-01T07:21:08.998Z</time></trkpt><trkpt lat="41.46793171370307" lon="12.663753194302966"><ele>15.0</ele><time>2026-05-01T07:21:09.998Z</time></trkpt><trkpt lat="41.46804608074269" lon="12.663863447585967"><ele>15.0</ele><time>2026-05-01T07:21:10.998Z</time></trkpt><trkpt lat="41.46816042712121" lon="12.663969082625547"><ele>15.0</ele><time>2026-05-01T07:21:11.998Z</time></trkpt><trkpt lat="41.468273999532784" lon="12.66407010787399"><ele>15.0</ele><time>2026-05-01T07:21:12.998Z</time></trkpt><trkpt lat="41.46838914957911" lon="12.664151702940302"><ele>15.0</ele><time>2026-05-01T07:21:13.998Z</time></trkpt><trkpt lat="41.46849789017045" lon="12.664217957825755"><ele>15.0</ele><time>2026-05-01T07:21:14.998Z</time></trkpt><trkpt lat="41.46861209970048" lon="12.664281911155932"><ele>15.0</ele><time>2026-05-01T07:21:15.998Z</time></trkpt><trkpt lat="41.46873390760409" lon="12.664351664939893"><ele>15.25</ele><time>2026-05-01T07:21:16.998Z</time></trkpt><trkpt lat="41.468855409340776" lon="12.664428515139573"><ele>15.5</ele><time>2026-05-01T07:21:17.998Z</time></trkpt><trkpt lat="41.46895612424922" lon="12.664508038759486"><ele>15.75</ele><time>2026-05-01T07:21:18.998Z</time></trkpt><trkpt lat="41.46905678688989" lon="12.664580293675641"><ele>16.0</ele><time>2026-05-01T07:21:19.998Z</time></trkpt><trkpt lat="41.46918223387628" lon="12.664642551823128"><ele>16.0</ele><time>2026-05-01T07:21:20.998Z</time></trkpt><trkpt lat="41.46933495947264" lon="12.664705057217464"><ele>16.0</ele><time>2026-05-01T07:21:21.998Z</time></trkpt><trkpt lat="41.46951319702724" lon="12.664764306416506"><ele>16.0</ele><time>2026-05-01T07:21:22.998Z</time></trkpt><trkpt lat="41.46971407141185" lon="12.664823896173976"><ele>16.0</ele><time>2026-05-01T07:21:23.998Z</time></trkpt><trkpt lat="41.469919333167375" lon="12.664879307707661"><ele>16.0</ele><time>2026-05-01T07:21:24.998Z</time></trkpt><trkpt lat="41.47012978308633" lon="12.66493124636418"><ele>16.0</ele><time>2026-05-01T07:21:25.998Z</time></trkpt><trkpt lat="41.4703374244568" lon="12.664976205805207"><ele>16.333333333333332</ele><time>2026-05-01T07:21:26.998Z</time></trkpt><trkpt lat="41.47054026073303" lon="12.665023846122942"><ele>16.666666666666668</ele><time>2026-05-01T07:21:27.998Z</time></trkpt><trkpt lat="41.47072837103233" lon="12.665070633769062"><ele>17.0</ele><time>2026-05-01T07:21:28.998Z</time></trkpt><trkpt lat="41.47090920357573" lon="12.665116290392001"><ele>17.0</ele><time>2026-05-01T07:21:29.998Z</time></trkpt><trkpt lat="41.47108607113452" lon="12.665166211733657"><ele>17.0</ele><time>2026-05-01T07:21:30.998Z</time></trkpt><trkpt lat="41.4712631868861" lon="12.665218634007761"><ele>17.0</ele><time>2026-05-01T07:21:31.998Z</time></trkpt><trkpt lat="41.471445456958996" lon="12.665264844514743"><ele>18.0</ele><time>2026-05-01T07:21:32.998Z</time></trkpt><trkpt lat="41.47163516682769" lon="12.66531459990673"><ele>19.0</ele><time>2026-05-01T07:21:33.998Z</time></trkpt><trkpt lat="41.47183688316085" lon="12.665384595735137"><ele>20.0</ele><time>2026-05-01T07:21:34.998Z</time></trkpt><trkpt lat="41.472032658503394" lon="12.665477921741575"><ele>20.0</ele><time>2026-05-01T07:21:35.998Z</time></trkpt><trkpt lat="41.472221137362645" lon="12.665579262312013"><ele>20.0</ele><time>2026-05-01T07:21:36.998Z</time></trkpt><trkpt lat="41.47241110123001" lon="12.665681884156767"><ele>20.0</ele><time>2026-05-01T07:21:37.998Z</time></trkpt><trkpt lat="41.472604307596974" lon="12.665784116500584"><ele>20.0</ele><time>2026-05-01T07:21:38.998Z</time></trkpt><trkpt lat="41.472798991424746" lon="12.6658943541367"><ele>20.0</ele><time>2026-05-01T07:21:39.998Z</time></trkpt><trkpt lat="41.472993211256" lon="12.66601187017283"><ele>20.0</ele><time>2026-05-01T07:21:40.999Z</time></trkpt><trkpt lat="41.47318753720233" lon="12.666135723236577"><ele>19.333333333333336</ele><time>2026-05-01T07:21:41.999Z</time></trkpt><trkpt lat="41.47338471666681" lon="12.666265052910356"><ele>18.666666666666668</ele><time>2026-05-01T07:21:42.999Z</time></trkpt><trkpt lat="41.47358491495799" lon="12.666398537840822"><ele>18.0</ele><time>2026-05-01T07:21:43.999Z</time></trkpt><trkpt lat="41.47379054898243" lon="12.66653267576394"><ele>18.0</ele><time>2026-05-01T07:21:44.999Z</time></trkpt><trkpt lat="41.47399402155911" lon="12.666663434875332"><ele>18.0</ele><time>2026-05-01T07:21:45.999Z</time></trkpt><trkpt lat="41.47419819282224" lon="12.66679900654393"><ele>18.0</ele><time>2026-05-01T07:21:46.999Z</time></trkpt><trkpt lat="41.47440761766654" lon="12.666937397657794"><ele>18.0</ele><time>2026-05-01T07:21:47.999Z</time></trkpt><trkpt lat="41.47462155880717" lon="12.667074525907829"><ele>18.0</ele><time>2026-05-01T07:21:48.999Z</time></trkpt><trkpt lat="41.47484382532594" lon="12.667204799486951"><ele>18.0</ele><time>2026-05-01T07:21:49.999Z</time></trkpt><trkpt lat="41.4750753656767" lon="12.667325710435907"><ele>18.0</ele><time>2026-05-01T07:21:50.999Z</time></trkpt><trkpt lat="41.47531418266367" lon="12.667429050689762"><ele>18.0</ele><time>2026-05-01T07:21:51.999Z</time></trkpt><trkpt lat="41.47555693848204" lon="12.667521668622307"><ele>19.0</ele><time>2026-05-01T07:21:52.999Z</time></trkpt><trkpt lat="41.475800439645944" lon="12.667612366799775"><ele>20.0</ele><time>2026-05-01T07:21:53.999Z</time></trkpt><trkpt lat="41.476038756476036" lon="12.667708148450272"><ele>20.0</ele><time>2026-05-01T07:21:54.999Z</time></trkpt><trkpt lat="41.47627220173308" lon="12.667807363544194"><ele>20.0</ele><time>2026-05-01T07:21:55.999Z</time></trkpt><trkpt lat="41.476500231754166" lon="12.667910752800788"><ele>20.0</ele><time>2026-05-01T07:21:56.999Z</time></trkpt><trkpt lat="41.47672844770467" lon="12.668026717286365"><ele>20.0</ele><time>2026-05-01T07:21:57.999Z</time></trkpt><trkpt lat="41.47695125485652" lon="12.668159375561801"><ele>21.5</ele><time>2026-05-01T07:21:58.999Z</time></trkpt><trkpt lat="41.47717283512757" lon="12.668305818616664"><ele>23.0</ele><time>2026-05-01T07:21:59.999Z</time></trkpt><trkpt lat="41.477382727706825" lon="12.668456342079509"><ele>23.0</ele><time>2026-05-01T07:22:00.999Z</time></trkpt><trkpt lat="41.4775820115089" lon="12.668600485320965"><ele>23.0</ele><time>2026-05-01T07:22:01.999Z</time></trkpt><trkpt lat="41.477775162240015" lon="12.668729396569788"><ele>23.0</ele><time>2026-05-01T07:22:02.999Z</time></trkpt><trkpt lat="41.47797737399906" lon="12.668838927716301"><ele>23.0</ele><time>2026-05-01T07:22:03.999Z</time></trkpt><trkpt lat="41.47817654038115" lon="12.668942012574373"><ele>23.0</ele><time>2026-05-01T07:22:04.999Z</time></trkpt><trkpt lat="41.478361765749284" lon="12.6690433800722"><ele>23.0</ele><time>2026-05-01T07:22:05.999Z</time></trkpt><trkpt lat="41.47853539955631" lon="12.669124947530175"><ele>23.0</ele><time>2026-05-01T07:22:06.999Z</time></trkpt><trkpt lat="41.47870332133504" lon="12.66919338124321"><ele>23.0</ele><time>2026-05-01T07:22:07.999Z</time></trkpt><trkpt lat="41.47888129894449" lon="12.669268325826812"><ele>23.0</ele><time>2026-05-01T07:22:08.999Z</time></trkpt><trkpt lat="41.47907024956302" lon="12.669347785020978"><ele>23.0</ele><time>2026-05-01T07:22:09.999Z</time></trkpt><trkpt lat="41.4792549738884" lon="12.669423100777763"><ele>23.0</ele><time>2026-05-01T07:22:10.999Z</time></trkpt><trkpt lat="41.4794245801878" lon="12.669486117192852"><ele>23.0</ele><time>2026-05-01T07:22:11.999Z</time></trkpt><trkpt lat="41.47957963973434" lon="12.669529037485322"><ele>22.333333333333336</ele><time>2026-05-01T07:22:12.999Z</time></trkpt><trkpt lat="41.479732346675775" lon="12.66956836935248"><ele>21.666666666666668</ele><time>2026-05-01T07:22:13.999Z</time></trkpt><trkpt lat="41.479891668456176" lon="12.669603668828364"><ele>21.0</ele><time>2026-05-01T07:22:14.999Z</time></trkpt><trkpt lat="41.48005248295201" lon="12.669653576534078"><ele>21.0</ele><time>2026-05-01T07:22:15.999Z</time></trkpt><trkpt lat="41.48023310848962" lon="12.669692911763235"><ele>21.0</ele><time>2026-05-01T07:22:16.999Z</time></trkpt><trkpt lat="41.480421287000006" lon="12.669734103891965"><ele>21.0</ele><time>2026-05-01T07:22:17.999Z</time></trkpt><trkpt lat="41.48061354875762" lon="12.669761305373076"><ele>21.666666666666668</ele><time>2026-05-01T07:22:18.999Z</time></trkpt><trkpt lat="41.48080450187628" lon="12.669813354782853"><ele>22.333333333333336</ele><time>2026-05-01T07:22:19.999Z</time></trkpt><trkpt lat="41.481000718580695" lon="12.669843101853203"><ele>23.0</ele><time>2026-05-01T07:22:20.999Z</time></trkpt><trkpt lat="41.48119815942594" lon="12.66985097037612"><ele>22.666666666666668</ele><time>2026-05-01T07:22:21.999Z</time></trkpt><trkpt lat="41.481403166229555" lon="12.669829479334236"><ele>22.333333333333332</ele><time>2026-05-01T07:22:22.999Z</time></trkpt><trkpt lat="41.48161130463287" lon="12.669776305784902"><ele>22.0</ele><time>2026-05-01T07:22:23.999Z</time></trkpt><trkpt lat="41.48182265344864" lon="12.669706321241431"><ele>22.0</ele><time>2026-05-01T07:22:24.999Z</time></trkpt><trkpt lat="41.48203675740958" lon="12.669625443582479"><ele>22.0</ele><time>2026-05-01T07:22:25.999Z</time></trkpt><trkpt lat="41.48224403153453" lon="12.669551074805513"><ele>22.0</ele><time>2026-05-01T07:22:26.999Z</time></trkpt><trkpt lat="41.482453103850034" lon="12.669476574367822"><ele>22.0</ele><time>2026-05-01T07:22:27.999Z</time></trkpt><trkpt lat="41.482659666381196" lon="12.669402141085106"><ele>22.0</ele><time>2026-05-01T07:22:28.999Z</time></trkpt><trkpt lat="41.48286316071982" lon="12.669326853393647"><ele>22.0</ele><time>2026-05-01T07:22:29.999Z</time></trkpt><trkpt lat="41.4830547115676" lon="12.669257436916645"><ele>21.0</ele><time>2026-05-01T07:22:30.999Z</time></trkpt><trkpt lat="41.483238453841125" lon="12.669188447670567"><ele>20.0</ele><time>2026-05-01T07:22:31.999Z</time></trkpt><trkpt lat="41.48341536858162" lon="12.669127402013501"><ele>19.0</ele><time>2026-05-01T07:22:32.999Z</time></trkpt><trkpt lat="41.483577477198985" lon="12.669070423274173"><ele>19.0</ele><time>2026-05-01T07:22:33.999Z</time></trkpt><trkpt lat="41.48373819152892" lon="12.669017233680664"><ele>19.0</ele><time>2026-05-01T07:22:34.999Z</time></trkpt><trkpt lat="41.48391414023244" lon="12.66895372343955"><ele>19.0</ele><time>2026-05-01T07:22:35.999Z</time></trkpt><trkpt lat="41.48409787372057" lon="12.668891423623249"><ele>19.0</ele><time>2026-05-01T07:22:37Z</time></trkpt><trkpt lat="41.484291126999004" lon="12.668834350197574"><ele>19.0</ele><time>2026-05-01T07:22:38Z</time></trkpt><trkpt lat="41.48449270080922" lon="12.6687561164114"><ele>19.0</ele><time>2026-05-01T07:22:39Z</time></trkpt><trkpt lat="41.484702948512044" lon="12.668703543505533"><ele>18.333333333333332</ele><time>2026-05-01T07:22:40Z</time></trkpt><trkpt lat="41.48491213190248" lon="12.668630783884758"><ele>17.666666666666668</ele><time>2026-05-01T07:22:41Z</time></trkpt><trkpt lat="41.485110142181895" lon="12.668541185405182"><ele>17.0</ele><time>2026-05-01T07:22:42Z</time></trkpt><trkpt lat="41.48529554395103" lon="12.66848486075855"><ele>17.666666666666668</ele><time>2026-05-01T07:22:43Z</time></trkpt><trkpt lat="41.485465574923694" lon="12.668429707565599"><ele>18.333333333333332</ele><time>2026-05-01T07:22:44Z</time></trkpt><trkpt lat="41.48562772395524" lon="12.668383396844364"><ele>19.0</ele><time>2026-05-01T07:22:45Z</time></trkpt><trkpt lat="41.48578018334847" lon="12.668341282234351"><ele>19.0</ele><time>2026-05-01T07:22:46Z</time></trkpt><trkpt lat="41.485923146451114" lon="12.668309787078737"><ele>19.0</ele><time>2026-05-01T07:22:47Z</time></trkpt><trkpt lat="41.48606091798815" lon="12.668286830875603"><ele>19.0</ele><time>2026-05-01T07:22:48Z</time></trkpt><trkpt lat="41.486196277285664" lon="12.668273164154542"><ele>19.0</ele><time>2026-05-01T07:22:49Z</time></trkpt><trkpt lat="41.4863454212686" lon="12.668278647873157"><ele>20.333333333333332</ele><time>2026-05-01T07:22:50Z</time></trkpt><trkpt lat="41.486501205311136" lon="12.668345791116215"><ele>21.666666666666668</ele><time>2026-05-01T07:22:51Z</time></trkpt><trkpt lat="41.48665491582323" lon="12.668393377991727"><ele>23.0</ele><time>2026-05-01T07:22:52Z</time></trkpt><trkpt lat="41.48678811988948" lon="12.668476589602074"><ele>23.0</ele><time>2026-05-01T07:22:53Z</time></trkpt><trkpt lat="41.486912712269046" lon="12.66856629352044"><ele>23.0</ele><time>2026-05-01T07:22:54Z</time></trkpt><trkpt lat="41.48704950713606" lon="12.668674771192228"><ele>23.0</ele><time>2026-05-01T07:22:55Z</time></trkpt><trkpt lat="41.487185583952" lon="12.668834055677742"><ele>23.0</ele><time>2026-05-01T07:22:56Z</time></trkpt><trkpt lat="41.487337679953185" lon="12.668992516609677"><ele>23.0</ele><time>2026-05-01T07:22:57Z</time></trkpt><trkpt lat="41.4874913816697" lon="12.66915329545614"><ele>23.0</ele><time>2026-05-01T07:22:57.999Z</time></trkpt><trkpt lat="41.48765862297889" lon="12.66932614844819"><ele>22.333333333333336</ele><time>2026-05-01T07:22:58.999Z</time></trkpt><trkpt lat="41.487817117995675" lon="12.669459768565737"><ele>21.666666666666668</ele><time>2026-05-01T07:22:59.999Z</time></trkpt><trkpt lat="41.48793713618372" lon="12.669580637785687"><ele>21.0</ele><time>2026-05-01T07:23:00.999Z</time></trkpt><trkpt lat="41.48804111939801" lon="12.669676012840231"><ele>21.0</ele><time>2026-05-01T07:23:01.999Z</time></trkpt><trkpt lat="41.48814722269918" lon="12.669763876257145"><ele>21.0</ele><time>2026-05-01T07:23:02.999Z</time></trkpt><trkpt lat="41.48826724475533" lon="12.66985600632465"><ele>21.0</ele><time>2026-05-01T07:23:03.999Z</time></trkpt><trkpt lat="41.488405595087585" lon="12.669950115523319"><ele>21.0</ele><time>2026-05-01T07:23:04.999Z</time></trkpt><trkpt lat="41.488569295732944" lon="12.670041630844922"><ele>21.0</ele><time>2026-05-01T07:23:05.999Z</time></trkpt><trkpt lat="41.488731814758935" lon="12.670138894046175"><ele>21.0</ele><time>2026-05-01T07:23:06.999Z</time></trkpt><trkpt lat="41.488901098592954" lon="12.670252683283518"><ele>21.0</ele><time>2026-05-01T07:23:07.999Z</time></trkpt><trkpt lat="41.489075856304794" lon="12.670371695717145"><ele>22.0</ele><time>2026-05-01T07:23:08.999Z</time></trkpt><trkpt lat="41.48925913669236" lon="12.670507717082476"><ele>23.0</ele><time>2026-05-01T07:23:09.999Z</time></trkpt><trkpt lat="41.48943961375532" lon="12.670656414299964"><ele>24.0</ele><time>2026-05-01T07:23:10.999Z</time></trkpt><trkpt lat="41.48962005814405" lon="12.67081830873855"><ele>24.0</ele><time>2026-05-01T07:23:11.999Z</time></trkpt><trkpt lat="41.489799143081406" lon="12.67098535554857"><ele>24.0</ele><time>2026-05-01T07:23:12.999Z</time></trkpt><trkpt lat="41.48997217501964" lon="12.671162304101717"><ele>24.0</ele><time>2026-05-01T07:23:13.999Z</time></trkpt><trkpt lat="41.4901261959251" lon="12.67137185233506"><ele>25.0</ele><time>2026-05-01T07:23:14.999Z</time></trkpt><trkpt lat="41.49026360506647" lon="12.671612452607485"><ele>26.0</ele><time>2026-05-01T07:23:15.999Z</time></trkpt><trkpt lat="41.49035540633969" lon="12.671886735670983"><ele>26.0</ele><time>2026-05-01T07:23:16.999Z</time></trkpt><trkpt lat="41.49041210252544" lon="12.672164822800593"><ele>26.0</ele><time>2026-05-01T07:23:17.999Z</time></trkpt><trkpt lat="41.490477522872936" lon="12.672455388538173"><ele>26.0</ele><time>2026-05-01T07:23:18.999Z</time></trkpt><trkpt lat="41.490519600871515" lon="12.672763802925266"><ele>30.0</ele><time>2026-05-01T07:23:19.999Z</time></trkpt><trkpt lat="41.490576211658365" lon="12.673063615233144"><ele>34.0</ele><time>2026-05-01T07:23:20.999Z</time></trkpt><trkpt lat="41.49064714185894" lon="12.673347355114508"><ele>34.0</ele><time>2026-05-01T07:23:21.999Z</time></trkpt><trkpt lat="41.490747214571186" lon="12.67361882708865"><ele>34.0</ele><time>2026-05-01T07:23:22.999Z</time></trkpt><trkpt lat="41.4908808315589" lon="12.673877627607302"><ele>34.0</ele><time>2026-05-01T07:23:23.999Z</time></trkpt><trkpt lat="41.491026089111614" lon="12.674125886981043"><ele>34.0</ele><time>2026-05-01T07:23:24.999Z</time></trkpt><trkpt lat="41.49117539886944" lon="12.67436604045459"><ele>32.0</ele><time>2026-05-01T07:23:25.999Z</time></trkpt><trkpt lat="41.49133862941885" lon="12.674602333565485"><ele>30.0</ele><time>2026-05-01T07:23:26.999Z</time></trkpt><trkpt lat="41.49151322039003" lon="12.674826840579152"><ele>30.0</ele><time>2026-05-01T07:23:27.999Z</time></trkpt><trkpt lat="41.49170237048817" lon="12.675050207482272"><ele>30.0</ele><time>2026-05-01T07:23:28.999Z</time></trkpt><trkpt lat="41.491898343709416" lon="12.675267957239676"><ele>31.5</ele><time>2026-05-01T07:23:29.999Z</time></trkpt><trkpt lat="41.49209955437567" lon="12.675477859892043"><ele>33.0</ele><time>2026-05-01T07:23:30.999Z</time></trkpt><trkpt lat="41.49230451971174" lon="12.675685631248138"><ele>33.0</ele><time>2026-05-01T07:23:31.999Z</time></trkpt><trkpt lat="41.492503245896636" lon="12.675892311155906"><ele>33.0</ele><time>2026-05-01T07:23:32.999Z</time></trkpt><trkpt lat="41.49270544563363" lon="12.676104563195373"><ele>32.0</ele><time>2026-05-01T07:23:33.999Z</time></trkpt><trkpt lat="41.49290918916913" lon="12.676315243272398"><ele>31.0</ele><time>2026-05-01T07:23:34.999Z</time></trkpt><trkpt lat="41.4931115544213" lon="12.676525632602544"><ele>31.0</ele><time>2026-05-01T07:23:35.999Z</time></trkpt><trkpt lat="41.493310731882325" lon="12.676735306050128"><ele>31.0</ele><time>2026-05-01T07:23:36.999Z</time></trkpt><trkpt lat="41.49350420828497" lon="12.676944052798854"><ele>31.5</ele><time>2026-05-01T07:23:37.999Z</time></trkpt><trkpt lat="41.493691233163666" lon="12.677155493255057"><ele>32.0</ele><time>2026-05-01T07:23:38.999Z</time></trkpt><trkpt lat="41.49387265402888" lon="12.677380922258305"><ele>33.0</ele><time>2026-05-01T07:23:39.999Z</time></trkpt><trkpt lat="41.494046914695055" lon="12.677627292597338"><ele>34.0</ele><time>2026-05-01T07:23:40.999Z</time></trkpt><trkpt lat="41.49421166039829" lon="12.677889391695107"><ele>34.0</ele><time>2026-05-01T07:23:41.999Z</time></trkpt><trkpt lat="41.494366392035154" lon="12.67816399957115"><ele>34.0</ele><time>2026-05-01T07:23:42.999Z</time></trkpt><trkpt lat="41.49452244550369" lon="12.678439453333743"><ele>34.0</ele><time>2026-05-01T07:23:43.999Z</time></trkpt><trkpt lat="41.49468349303436" lon="12.678709787943234"><ele>34.0</ele><time>2026-05-01T07:23:44.999Z</time></trkpt><trkpt lat="41.49485482701679" lon="12.678966615763406"><ele>34.0</ele><time>2026-05-01T07:23:45.999Z</time></trkpt><trkpt lat="41.495037792963615" lon="12.67921344966105"><ele>34.0</ele><time>2026-05-01T07:23:47Z</time></trkpt><trkpt lat="41.49522358645017" lon="12.679435896532201"><ele>34.0</ele><time>2026-05-01T07:23:48Z</time></trkpt><trkpt lat="41.495404882841214" lon="12.679637918981234"><ele>34.0</ele><time>2026-05-01T07:23:49Z</time></trkpt><trkpt lat="41.49558653766569" lon="12.679829503026458"><ele>34.5</ele><time>2026-05-01T07:23:50Z</time></trkpt><trkpt lat="41.49577361854372" lon="12.680020683066006"><ele>35.0</ele><time>2026-05-01T07:23:51Z</time></trkpt><trkpt lat="41.49595876679513" lon="12.680200150659504"><ele>35.0</ele><time>2026-05-01T07:23:52Z</time></trkpt><trkpt lat="41.49614785580915" lon="12.680379895966848"><ele>35.0</ele><time>2026-05-01T07:23:53Z</time></trkpt><trkpt lat="41.496336999305704" lon="12.680565389750395"><ele>36.0</ele><time>2026-05-01T07:23:54Z</time></trkpt><trkpt lat="41.496523442231734" lon="12.680750959886776"><ele>37.0</ele><time>2026-05-01T07:23:55Z</time></trkpt><trkpt lat="41.49670737102186" lon="12.680933980410906"><ele>37.5</ele><time>2026-05-01T07:23:56Z</time></trkpt><trkpt lat="41.496890813233286" lon="12.681115033712237"><ele>38.0</ele><time>2026-05-01T07:23:57Z</time></trkpt><trkpt lat="41.49707380055172" lon="12.681301303824734"><ele>38.0</ele><time>2026-05-01T07:23:58Z</time></trkpt><trkpt lat="41.49725374112072" lon="12.681495626771245"><ele>38.0</ele><time>2026-05-01T07:23:59Z</time></trkpt><trkpt lat="41.49742974195523" lon="12.681698048800087"><ele>38.0</ele><time>2026-05-01T07:24:00Z</time></trkpt><trkpt lat="41.4975980629872" lon="12.681899991911763"><ele>38.0</ele><time>2026-05-01T07:24:01Z</time></trkpt><trkpt lat="41.49776431066629" lon="12.682102971234874"><ele>38.5</ele><time>2026-05-01T07:24:02Z</time></trkpt><trkpt lat="41.4979275433834" lon="12.682302975351098"><ele>39.0</ele><time>2026-05-01T07:24:03Z</time></trkpt><trkpt lat="41.49809905165055" lon="12.68250692680004"><ele>39.0</ele><time>2026-05-01T07:24:04Z</time></trkpt><trkpt lat="41.49826767811138" lon="12.682696867710344"><ele>39.0</ele><time>2026-05-01T07:24:05Z</time></trkpt><trkpt lat="41.49841648046468" lon="12.682904798291863"><ele>39.0</ele><time>2026-05-01T07:24:06Z</time></trkpt><trkpt lat="41.498578078223446" lon="12.683096795801093"><ele>40.0</ele><time>2026-05-01T07:24:07Z</time></trkpt><trkpt lat="41.49879527666567" lon="12.683215934049185"><ele>41.0</ele><time>2026-05-01T07:24:08Z</time></trkpt><trkpt lat="41.4989797287433" lon="12.683382591535471"><ele>41.0</ele><time>2026-05-01T07:24:09Z</time></trkpt><trkpt lat="41.49916931102949" lon="12.683549486077382"><ele>41.0</ele><time>2026-05-01T07:24:10Z</time></trkpt><trkpt lat="41.49935885924393" lon="12.6837200320299"><ele>41.0</ele><time>2026-05-01T07:24:11Z</time></trkpt><trkpt lat="41.499545813198964" lon="12.683888075000283"><ele>41.0</ele><time>2026-05-01T07:24:12Z</time></trkpt><trkpt lat="41.49973267680712" lon="12.684056740847897"><ele>42.0</ele><time>2026-05-01T07:24:13Z</time></trkpt><trkpt lat="41.49991986369841" lon="12.684224749828454"><ele>43.0</ele><time>2026-05-01T07:24:14Z</time></trkpt><trkpt lat="41.50009699109842" lon="12.684385822141587"><ele>44.0</ele><time>2026-05-01T07:24:15Z</time></trkpt><trkpt lat="41.50026359404088" lon="12.68453614238522"><ele>44.33333333333333</ele><time>2026-05-01T07:24:16Z</time></trkpt><trkpt lat="41.50041856415337" lon="12.684671423628696"><ele>44.666666666666664</ele><time>2026-05-01T07:24:17Z</time></trkpt><trkpt lat="41.500563344404014" lon="12.684792776360835"><ele>45.0</ele><time>2026-05-01T07:24:18Z</time></trkpt><trkpt lat="41.50069474495292" lon="12.68489759258867"><ele>45.0</ele><time>2026-05-01T07:24:19Z</time></trkpt><trkpt lat="41.500811994733944" lon="12.684987547900867"><ele>45.0</ele><time>2026-05-01T07:24:20Z</time></trkpt><trkpt lat="41.500911889403625" lon="12.685060703183979"><ele>45.0</ele><time>2026-05-01T07:24:21Z</time></trkpt><trkpt lat="41.50099584585529" lon="12.685126669074801"><ele>45.0</ele><time>2026-05-01T07:24:22Z</time></trkpt><trkpt lat="41.50106599325084" lon="12.685186086044821"><ele>45.0</ele><time>2026-05-01T07:24:23Z</time></trkpt><trkpt lat="41.501132297216294" lon="12.68525988965842"><ele>45.333333333333336</ele><time>2026-05-01T07:24:24Z</time></trkpt><trkpt lat="41.50119248482223" lon="12.68533732715065"><ele>45.666666666666664</ele><time>2026-05-01T07:24:25Z</time></trkpt><trkpt lat="41.50126160332934" lon="12.685375492499443"><ele>46.0</ele><time>2026-05-01T07:24:26Z</time></trkpt><trkpt lat="41.50133676209875" lon="12.685374876793162"><ele>46.33333333333333</ele><time>2026-05-01T07:24:27Z</time></trkpt><trkpt lat="41.50141461086005" lon="12.685378391942212"><ele>46.666666666666664</ele><time>2026-05-01T07:24:28Z</time></trkpt><trkpt lat="41.501501157035285" lon="12.68540449486896"><ele>47.0</ele><time>2026-05-01T07:24:29Z</time></trkpt><trkpt lat="41.50160786820554" lon="12.685454489943277"><ele>47.400000000000006</ele><time>2026-05-01T07:24:30Z</time></trkpt><trkpt lat="41.5017204446718" lon="12.685531094132394"><ele>47.800000000000004</ele><time>2026-05-01T07:24:31Z</time></trkpt><trkpt lat="41.5018171188127" lon="12.685607691403561"><ele>48.2</ele><time>2026-05-01T07:24:32Z</time></trkpt><trkpt lat="41.50190473977537" lon="12.685668292459114"><ele>48.6</ele><time>2026-05-01T07:24:33Z</time></trkpt><trkpt lat="41.5019969276538" lon="12.68572922011642"><ele>49.0</ele><time>2026-05-01T07:24:34Z</time></trkpt><trkpt lat="41.50209422573994" lon="12.685799599188343"><ele>49.2</ele><time>2026-05-01T07:24:35Z</time></trkpt><trkpt lat="41.50219093027465" lon="12.685874371082754"><ele>49.400000000000006</ele><time>2026-05-01T07:24:36Z</time></trkpt><trkpt lat="41.502280758806386" lon="12.685939968457014"><ele>49.6</ele><time>2026-05-01T07:24:37Z</time></trkpt><trkpt lat="41.50237211959929" lon="12.686011124409747"><ele>49.8</ele><time>2026-05-01T07:24:38Z</time></trkpt><trkpt lat="41.50247015630925" lon="12.68610174364307"><ele>50.0</ele><time>2026-05-01T07:24:39Z</time></trkpt><trkpt lat="41.50257192981384" lon="12.686199034986323"><ele>50.0</ele><time>2026-05-01T07:24:40Z</time></trkpt><trkpt lat="41.50267402971841" lon="12.686299577068676"><ele>50.0</ele><time>2026-05-01T07:24:41Z</time></trkpt><trkpt lat="41.50277568652013" lon="12.686402504515389"><ele>50.0</ele><time>2026-05-01T07:24:42Z</time></trkpt><trkpt lat="41.50287891093575" lon="12.686509588869411"><ele>50.0</ele><time>2026-05-01T07:24:43Z</time></trkpt><trkpt lat="41.50298560786674" lon="12.686626706691197"><ele>51.0</ele><time>2026-05-01T07:24:44Z</time></trkpt><trkpt lat="41.50309041539543" lon="12.686749401423796"><ele>52.0</ele><time>2026-05-01T07:24:45Z</time></trkpt><trkpt lat="41.50319158672483" lon="12.686872463458089"><ele>53.0</ele><time>2026-05-01T07:24:46Z</time></trkpt><trkpt lat="41.50328258974756" lon="12.686981301073692"><ele>54.0</ele><time>2026-05-01T07:24:47Z</time></trkpt><trkpt lat="41.503363113121765" lon="12.687076674972433"><ele>54.166666666666664</ele><time>2026-05-01T07:24:48Z</time></trkpt><trkpt lat="41.503435032866115" lon="12.687162611013644"><ele>54.33333333333333</ele><time>2026-05-01T07:24:49Z</time></trkpt><trkpt lat="41.503499735789575" lon="12.687236520372553"><ele>54.5</ele><time>2026-05-01T07:24:50Z</time></trkpt><trkpt lat="41.503547935146244" lon="12.68729585432575"><ele>54.666666666666664</ele><time>2026-05-01T07:24:51Z</time></trkpt><trkpt lat="41.50359145216757" lon="12.687373471483319"><ele>54.83333333333333</ele><time>2026-05-01T07:24:53Z</time></trkpt><trkpt lat="41.50359710509658" lon="12.687486394545518"><ele>55.0</ele><time>2026-05-01T07:24:56Z</time></trkpt><trkpt lat="41.50365350331339" lon="12.687469243337391"><ele>55.0</ele><time>2026-05-01T07:33:06.999Z</time></trkpt><trkpt lat="41.50372012690085" lon="12.687481877190068"><ele>55.0</ele><time>2026-05-01T07:33:10.999Z</time></trkpt><trkpt lat="41.503797606814864" lon="12.687550983273116"><ele>55.0</ele><time>2026-05-01T07:33:11.999Z</time></trkpt><trkpt lat="41.503901943449165" lon="12.687649773440068"><ele>55.0</ele><time>2026-05-01T07:33:12.999Z</time></trkpt><trkpt lat="41.50401656369096" lon="12.687745946350393"><ele>55.0</ele><time>2026-05-01T07:33:13.999Z</time></trkpt><trkpt lat="41.504149264817784" lon="12.68784260810268"><ele>56.0</ele><time>2026-05-01T07:33:14.999Z</time></trkpt><trkpt lat="41.50428697626161" lon="12.687930799190543"><ele>57.0</ele><time>2026-05-01T07:33:15.999Z</time></trkpt><trkpt lat="41.50443254079112" lon="12.688021828742725"><ele>58.0</ele><time>2026-05-01T07:33:16.999Z</time></trkpt><trkpt lat="41.50458291840176" lon="12.688112670899322"><ele>58.666666666666664</ele><time>2026-05-01T07:33:17.999Z</time></trkpt><trkpt lat="41.50473550384334" lon="12.688197768677652"><ele>59.33333333333333</ele><time>2026-05-01T07:33:18.999Z</time></trkpt><trkpt lat="41.50489494974702" lon="12.688283929768767"><ele>60.0</ele><time>2026-05-01T07:33:19.999Z</time></trkpt><trkpt lat="41.50505425993867" lon="12.688371013795148"><ele>60.0</ele><time>2026-05-01T07:33:20.999Z</time></trkpt><trkpt lat="41.50520058108139" lon="12.688470367241022"><ele>60.0</ele><time>2026-05-01T07:33:21.999Z</time></trkpt><trkpt lat="41.505324703727574" lon="12.688567740352056"><ele>60.0</ele><time>2026-05-01T07:33:22.999Z</time></trkpt><trkpt lat="41.50544756749425" lon="12.688669851913783"><ele>59.33333333333333</ele><time>2026-05-01T07:33:23.999Z</time></trkpt><trkpt lat="41.50557533093559" lon="12.68878258376395"><ele>58.666666666666664</ele><time>2026-05-01T07:33:24.999Z</time></trkpt><trkpt lat="41.50570740277377" lon="12.688898754369621"><ele>58.0</ele><time>2026-05-01T07:33:25.999Z</time></trkpt><trkpt lat="41.50583935497762" lon="12.689012025648209"><ele>58.0</ele><time>2026-05-01T07:33:26.999Z</time></trkpt><trkpt lat="41.50597278451864" lon="12.689127366914553"><ele>58.0</ele><time>2026-05-01T07:33:27.999Z</time></trkpt><trkpt lat="41.5061095494495" lon="12.689243704333977"><ele>58.0</ele><time>2026-05-01T07:33:28.999Z</time></trkpt><trkpt lat="41.50624845582812" lon="12.689361100986101"><ele>57.666666666666664</ele><time>2026-05-01T07:33:29.999Z</time></trkpt><trkpt lat="41.50638832304908" lon="12.689485157384103"><ele>57.33333333333333</ele><time>2026-05-01T07:33:30.999Z</time></trkpt><trkpt lat="41.506530430641874" lon="12.689599595516603"><ele>57.0</ele><time>2026-05-01T07:33:31.999Z</time></trkpt><trkpt lat="41.50666794406412" lon="12.689714229317822"><ele>57.0</ele><time>2026-05-01T07:33:32.999Z</time></trkpt><trkpt lat="41.50681187359749" lon="12.689830563628913"><ele>57.0</ele><time>2026-05-01T07:33:33.999Z</time></trkpt><trkpt lat="41.5069696490113" lon="12.689964323740297"><ele>57.0</ele><time>2026-05-01T07:33:34.999Z</time></trkpt><trkpt lat="41.507149304564905" lon="12.69011113026993"><ele>58.0</ele><time>2026-05-01T07:33:35.999Z</time></trkpt><trkpt lat="41.50734063869015" lon="12.690276614723691"><ele>59.0</ele><time>2026-05-01T07:33:36.999Z</time></trkpt><trkpt lat="41.50752509703248" lon="12.690453972950841"><ele>59.0</ele><time>2026-05-01T07:33:37.999Z</time></trkpt><trkpt lat="41.50772339698585" lon="12.69063672142935"><ele>59.0</ele><time>2026-05-01T07:33:38.999Z</time></trkpt><trkpt lat="41.50792535156013" lon="12.690815859816643"><ele>60.66666666666667</ele><time>2026-05-01T07:33:39.999Z</time></trkpt><trkpt lat="41.5081108734411" lon="12.690977430270491"><ele>62.33333333333333</ele><time>2026-05-01T07:33:40.999Z</time></trkpt><trkpt lat="41.50829392857267" lon="12.691135216666313"><ele>64.0</ele><time>2026-05-01T07:33:41.999Z</time></trkpt><trkpt lat="41.50847502875802" lon="12.691289659080219"><ele>64.0</ele><time>2026-05-01T07:33:42.999Z</time></trkpt><trkpt lat="41.50865206483819" lon="12.691454591670897"><ele>64.0</ele><time>2026-05-01T07:33:43.999Z</time></trkpt><trkpt lat="41.5088259528729" lon="12.69163599006817"><ele>64.0</ele><time>2026-05-01T07:33:44.999Z</time></trkpt><trkpt lat="41.50899971338065" lon="12.691830767645476"><ele>64.5</ele><time>2026-05-01T07:33:45.999Z</time></trkpt><trkpt lat="41.50917045337686" lon="12.692044334816845"><ele>65.0</ele><time>2026-05-01T07:33:46.999Z</time></trkpt><trkpt lat="41.50933609267845" lon="12.692264586831834"><ele>65.0</ele><time>2026-05-01T07:33:47.999Z</time></trkpt><trkpt lat="41.5094970926649" lon="12.692500114266904"><ele>65.0</ele><time>2026-05-01T07:33:48.999Z</time></trkpt><trkpt lat="41.5096515886409" lon="12.692750148195255"><ele>65.5</ele><time>2026-05-01T07:33:49.998Z</time></trkpt><trkpt lat="41.509800485119264" lon="12.693017160798254"><ele>66.0</ele><time>2026-05-01T07:33:50.998Z</time></trkpt><trkpt lat="41.50994434794315" lon="12.693295325568954"><ele>66.0</ele><time>2026-05-01T07:33:51.998Z</time></trkpt><trkpt lat="41.51008454978853" lon="12.69358188086363"><ele>66.0</ele><time>2026-05-01T07:33:52.998Z</time></trkpt><trkpt lat="41.51022293077518" lon="12.693873347042047"><ele>66.0</ele><time>2026-05-01T07:33:53.998Z</time></trkpt><trkpt lat="41.51036100105171" lon="12.694165017145755"><ele>66.0</ele><time>2026-05-01T07:33:54.998Z</time></trkpt><trkpt lat="41.51050061958884" lon="12.69445950297685"><ele>65.5</ele><time>2026-05-01T07:33:55.998Z</time></trkpt><trkpt lat="41.51063769415527" lon="12.694746815194868"><ele>65.0</ele><time>2026-05-01T07:33:56.998Z</time></trkpt><trkpt lat="41.51077457243927" lon="12.695025881192258"><ele>65.5</ele><time>2026-05-01T07:33:57.998Z</time></trkpt><trkpt lat="41.5109076968568" lon="12.69530660387871"><ele>66.0</ele><time>2026-05-01T07:33:58.998Z</time></trkpt><trkpt lat="41.51103660862987" lon="12.695588447602182"><ele>66.0</ele><time>2026-05-01T07:33:59.998Z</time></trkpt><trkpt lat="41.51117169815013" lon="12.695878623093488"><ele>66.0</ele><time>2026-05-01T07:34:01Z</time></trkpt><trkpt lat="41.51130954191325" lon="12.696164679134641"><ele>66.5</ele><time>2026-05-01T07:34:02Z</time></trkpt><trkpt lat="41.51144230388924" lon="12.69644121551253"><ele>67.0</ele><time>2026-05-01T07:34:03Z</time></trkpt><trkpt lat="41.511571783106305" lon="12.69671033736187"><ele>66.5</ele><time>2026-05-01T07:34:04Z</time></trkpt><trkpt lat="41.51170236003625" lon="12.69697978225207"><ele>66.0</ele><time>2026-05-01T07:34:05Z</time></trkpt><trkpt lat="41.51183321617997" lon="12.697246874582728"><ele>66.0</ele><time>2026-05-01T07:34:06Z</time></trkpt><trkpt lat="41.51196621847824" lon="12.697518117603405"><ele>66.0</ele><time>2026-05-01T07:34:07Z</time></trkpt><trkpt lat="41.512099045919776" lon="12.697791995824602"><ele>67.5</ele><time>2026-05-01T07:34:08Z</time></trkpt><trkpt lat="41.51223120361088" lon="12.698068666553805"><ele>69.0</ele><time>2026-05-01T07:34:09Z</time></trkpt><trkpt lat="41.51236513177929" lon="12.698350839166721"><ele>68.0</ele><time>2026-05-01T07:34:10Z</time></trkpt><trkpt lat="41.51250061083217" lon="12.698636270241156"><ele>67.0</ele><time>2026-05-01T07:34:11Z</time></trkpt><trkpt lat="41.51263473387423" lon="12.698914803393174"><ele>67.0</ele><time>2026-05-01T07:34:12Z</time></trkpt><trkpt lat="41.51276204838097" lon="12.699181408798555"><ele>67.0</ele><time>2026-05-01T07:34:13Z</time></trkpt><trkpt lat="41.51288351148143" lon="12.69943226307102"><ele>67.0</ele><time>2026-05-01T07:34:14Z</time></trkpt><trkpt lat="41.51300037964668" lon="12.69967940970807"><ele>67.0</ele><time>2026-05-01T07:34:15Z</time></trkpt><trkpt lat="41.51311240330588" lon="12.699917198587377"><ele>67.0</ele><time>2026-05-01T07:34:16Z</time></trkpt><trkpt lat="41.51321784332795" lon="12.700134218765594"><ele>67.33333333333333</ele><time>2026-05-01T07:34:17Z</time></trkpt><trkpt lat="41.513315151407575" lon="12.7003320553555"><ele>67.66666666666667</ele><time>2026-05-01T07:34:18Z</time></trkpt><trkpt lat="41.513402316638654" lon="12.700512694634563"><ele>68.0</ele><time>2026-05-01T07:34:19Z</time></trkpt><trkpt lat="41.51349860701585" lon="12.700699669334483"><ele>68.0</ele><time>2026-05-01T07:34:20Z</time></trkpt><trkpt lat="41.51360287105461" lon="12.700889939347691"><ele>68.0</ele><time>2026-05-01T07:34:21Z</time></trkpt><trkpt lat="41.51370854328534" lon="12.70106219768056"><ele>68.0</ele><time>2026-05-01T07:34:22Z</time></trkpt><trkpt lat="41.51381759827176" lon="12.701214153230353"><ele>68.0</ele><time>2026-05-01T07:34:23Z</time></trkpt><trkpt lat="41.51393556430985" lon="12.701353625501762"><ele>68.0</ele><time>2026-05-01T07:34:24Z</time></trkpt><trkpt lat="41.51406436784572" lon="12.701488125358171"><ele>68.0</ele><time>2026-05-01T07:34:25Z</time></trkpt><trkpt lat="41.514199577459685" lon="12.701616548578178"><ele>68.0</ele><time>2026-05-01T07:34:26Z</time></trkpt><trkpt lat="41.51434013709323" lon="12.701737654703978"><ele>68.0</ele><time>2026-05-01T07:34:27Z</time></trkpt><trkpt lat="41.514481515383366" lon="12.701846198896343"><ele>68.0</ele><time>2026-05-01T07:34:28Z</time></trkpt><trkpt lat="41.514624128114214" lon="12.701939614988323"><ele>68.0</ele><time>2026-05-01T07:34:29Z</time></trkpt><trkpt lat="41.51477081147833" lon="12.702021162837648"><ele>68.0</ele><time>2026-05-01T07:34:30Z</time></trkpt><trkpt lat="41.51492352313965" lon="12.702087918712085"><ele>68.0</ele><time>2026-05-01T07:34:31Z</time></trkpt><trkpt lat="41.51508398743975" lon="12.702144139745114"><ele>68.0</ele><time>2026-05-01T07:34:32Z</time></trkpt><trkpt lat="41.51525382372666" lon="12.702197364436698"><ele>68.0</ele><time>2026-05-01T07:34:33Z</time></trkpt><trkpt lat="41.51543007827414" lon="12.70223921148896"><ele>68.0</ele><time>2026-05-01T07:34:34Z</time></trkpt><trkpt lat="41.51561456553038" lon="12.702263452772627"><ele>67.66666666666667</ele><time>2026-05-01T07:34:35Z</time></trkpt><trkpt lat="41.515810269535116" lon="12.702268392988886"><ele>67.33333333333333</ele><time>2026-05-01T07:34:36Z</time></trkpt><trkpt lat="41.51601295126324" lon="12.702253670710359"><ele>67.0</ele><time>2026-05-01T07:34:37Z</time></trkpt><trkpt lat="41.51622380498717" lon="12.70221174803546"><ele>66.66666666666666</ele><time>2026-05-01T07:34:38Z</time></trkpt><trkpt lat="41.51643624085253" lon="12.70216949375676"><ele>66.33333333333333</ele><time>2026-05-01T07:34:39Z</time></trkpt><trkpt lat="41.51664978993826" lon="12.70212770026905"><ele>66.0</ele><time>2026-05-01T07:34:40Z</time></trkpt><trkpt lat="41.51684951792324" lon="12.702089020308014"><ele>66.0</ele><time>2026-05-01T07:34:41Z</time></trkpt><trkpt lat="41.517048402039585" lon="12.702050114311925"><ele>66.0</ele><time>2026-05-01T07:34:42Z</time></trkpt><trkpt lat="41.51723963913273" lon="12.702015700219201"><ele>66.0</ele><time>2026-05-01T07:34:43Z</time></trkpt><trkpt lat="41.51743102148331" lon="12.701979126643216"><ele>66.0</ele><time>2026-05-01T07:34:44Z</time></trkpt><trkpt lat="41.517625083559324" lon="12.701946260221103"><ele>66.0</ele><time>2026-05-01T07:34:44.999Z</time></trkpt><trkpt lat="41.517817966857415" lon="12.70190871445265"><ele>66.0</ele><time>2026-05-01T07:34:45.999Z</time></trkpt><trkpt lat="41.51801152968547" lon="12.701870000926208"><ele>66.0</ele><time>2026-05-01T07:34:46.999Z</time></trkpt><trkpt lat="41.51820929118825" lon="12.701824767133573"><ele>66.0</ele><time>2026-05-01T07:34:47.999Z</time></trkpt><trkpt lat="41.518427748564285" lon="12.701773573083939"><ele>66.0</ele><time>2026-05-01T07:34:48.999Z</time></trkpt><trkpt lat="41.518654394184885" lon="12.701728984085195"><ele>65.66666666666667</ele><time>2026-05-01T07:34:49.999Z</time></trkpt><trkpt lat="41.51887108814408" lon="12.701691852877145"><ele>65.33333333333334</ele><time>2026-05-01T07:34:50.999Z</time></trkpt><trkpt lat="41.519081966734724" lon="12.701656409304993"><ele>65.0</ele><time>2026-05-01T07:34:51.999Z</time></trkpt><trkpt lat="41.51928013659222" lon="12.701622784247494"><ele>65.0</ele><time>2026-05-01T07:34:52.999Z</time></trkpt><trkpt lat="41.519474631672146" lon="12.7015960906212"><ele>65.0</ele><time>2026-05-01T07:34:53.999Z</time></trkpt><trkpt lat="41.519666010935666" lon="12.701583167610885"><ele>65.0</ele><time>2026-05-01T07:34:54.999Z</time></trkpt><trkpt lat="41.519860616029455" lon="12.701579038083446"><ele>65.33333333333334</ele><time>2026-05-01T07:34:55.999Z</time></trkpt><trkpt lat="41.52004838689285" lon="12.701583979815663"><ele>65.66666666666667</ele><time>2026-05-01T07:34:56.999Z</time></trkpt><trkpt lat="41.52022604690814" lon="12.701593562799596"><ele>66.0</ele><time>2026-05-01T07:34:57.999Z</time></trkpt><trkpt lat="41.52040124885102" lon="12.701618339159833"><ele>66.0</ele><time>2026-05-01T07:34:58.999Z</time></trkpt><trkpt lat="41.520582010588456" lon="12.701657074790335"><ele>66.0</ele><time>2026-05-01T07:34:59.999Z</time></trkpt><trkpt lat="41.520765974140254" lon="12.701708013401745"><ele>66.0</ele><time>2026-05-01T07:35:00.999Z</time></trkpt><trkpt lat="41.52095214262548" lon="12.701769276038647"><ele>66.0</ele><time>2026-05-01T07:35:01.999Z</time></trkpt><trkpt lat="41.521133807787464" lon="12.701843887022761"><ele>66.0</ele><time>2026-05-01T07:35:02.999Z</time></trkpt><trkpt lat="41.52131720200419" lon="12.70192421828235"><ele>66.0</ele><time>2026-05-01T07:35:03.999Z</time></trkpt><trkpt lat="41.52149787026681" lon="12.702006705677347"><ele>65.66666666666667</ele><time>2026-05-01T07:35:04.999Z</time></trkpt><trkpt lat="41.521678028937885" lon="12.70210428427269"><ele>65.33333333333334</ele><time>2026-05-01T07:35:05.999Z</time></trkpt><trkpt lat="41.52185030916029" lon="12.702207668566922"><ele>65.0</ele><time>2026-05-01T07:35:06.999Z</time></trkpt><trkpt lat="41.52201522221748" lon="12.70231351184454"><ele>65.33333333333334</ele><time>2026-05-01T07:35:07.999Z</time></trkpt><trkpt lat="41.52218019387913" lon="12.702420379821293"><ele>65.66666666666667</ele><time>2026-05-01T07:35:08.999Z</time></trkpt><trkpt lat="41.52234239976824" lon="12.702528122631987"><ele>66.0</ele><time>2026-05-01T07:35:09.999Z</time></trkpt><trkpt lat="41.52250450947484" lon="12.702636906605239"><ele>66.0</ele><time>2026-05-01T07:35:10.999Z</time></trkpt><trkpt lat="41.52266088939006" lon="12.702740595363709"><ele>66.0</ele><time>2026-05-01T07:35:11.999Z</time></trkpt><trkpt lat="41.522816312032234" lon="12.702844759351052"><ele>66.0</ele><time>2026-05-01T07:35:12.999Z</time></trkpt><trkpt lat="41.52297054252986" lon="12.702948601964346"><ele>65.75</ele><time>2026-05-01T07:35:13.999Z</time></trkpt><trkpt lat="41.52310698943796" lon="12.703039911091576"><ele>65.5</ele><time>2026-05-01T07:35:14.999Z</time></trkpt><trkpt lat="41.52323189651455" lon="12.703122045378567"><ele>65.25</ele><time>2026-05-01T07:35:15.999Z</time></trkpt><trkpt lat="41.5233599812988" lon="12.703206297672219"><ele>65.0</ele><time>2026-05-01T07:35:16.999Z</time></trkpt><trkpt lat="41.52348959717591" lon="12.703290229021059"><ele>65.0</ele><time>2026-05-01T07:35:17.999Z</time></trkpt><trkpt lat="41.523624866505294" lon="12.703378864952262"><ele>65.0</ele><time>2026-05-01T07:35:18.999Z</time></trkpt><trkpt lat="41.52376975382967" lon="12.70347106785342"><ele>65.0</ele><time>2026-05-01T07:35:19.999Z</time></trkpt><trkpt lat="41.52391144278019" lon="12.703562528454995"><ele>65.25</ele><time>2026-05-01T07:35:20.999Z</time></trkpt><trkpt lat="41.52404815471415" lon="12.703653222459577"><ele>65.5</ele><time>2026-05-01T07:35:21.999Z</time></trkpt><trkpt lat="41.524182076690344" lon="12.703741008302973"><ele>65.75</ele><time>2026-05-01T07:35:22.999Z</time></trkpt><trkpt lat="41.52431233898836" lon="12.703827706998142"><ele>66.0</ele><time>2026-05-01T07:35:23.999Z</time></trkpt><trkpt lat="41.52443406218481" lon="12.703905452665444"><ele>66.0</ele><time>2026-05-01T07:35:24.999Z</time></trkpt><trkpt lat="41.52454764030616" lon="12.703981144368065"><ele>66.0</ele><time>2026-05-01T07:35:25.999Z</time></trkpt><trkpt lat="41.52465569651584" lon="12.704054329102537"><ele>66.0</ele><time>2026-05-01T07:35:26.999Z</time></trkpt><trkpt lat="41.52476491823786" lon="12.704126329218468"><ele>66.0</ele><time>2026-05-01T07:35:27.999Z</time></trkpt><trkpt lat="41.52488671741238" lon="12.704203622401439"><ele>65.0</ele><time>2026-05-01T07:35:28.999Z</time></trkpt><trkpt lat="41.525015565163805" lon="12.70428309668326"><ele>64.0</ele><time>2026-05-01T07:35:29.999Z</time></trkpt><trkpt lat="41.52515330211066" lon="12.704370266686436"><ele>63.0</ele><time>2026-05-01T07:35:30.999Z</time></trkpt><trkpt lat="41.52530556268688" lon="12.704471067942604"><ele>62.33333333333333</ele><time>2026-05-01T07:35:31.999Z</time></trkpt><trkpt lat="41.5254731687799" lon="12.70458183050992"><ele>61.666666666666664</ele><time>2026-05-01T07:35:32.999Z</time></trkpt><trkpt lat="41.52564495968919" lon="12.704694407003888"><ele>61.0</ele><time>2026-05-01T07:35:33.999Z</time></trkpt><trkpt lat="41.52580811519921" lon="12.704801624541991"><ele>61.0</ele><time>2026-05-01T07:35:34.999Z</time></trkpt><trkpt lat="41.52596206095565" lon="12.704903181662043"><ele>61.0</ele><time>2026-05-01T07:35:35.999Z</time></trkpt><trkpt lat="41.526105395088955" lon="12.7049952549107"><ele>61.0</ele><time>2026-05-01T07:35:36.999Z</time></trkpt><trkpt lat="41.526242692796686" lon="12.705083975158171"><ele>60.5</ele><time>2026-05-01T07:35:37.999Z</time></trkpt><trkpt lat="41.52637223654657" lon="12.705172263122932"><ele>60.0</ele><time>2026-05-01T07:35:38.999Z</time></trkpt><trkpt lat="41.52650223656817" lon="12.705263311891763"><ele>59.5</ele><time>2026-05-01T07:35:39.999Z</time></trkpt><trkpt lat="41.526643481585644" lon="12.705354702971299"><ele>59.0</ele><time>2026-05-01T07:35:40.999Z</time></trkpt><trkpt lat="41.52679588728492" lon="12.705452176304947"><ele>59.0</ele><time>2026-05-01T07:35:41.999Z</time></trkpt><trkpt lat="41.5269545916382" lon="12.705557506780098"><ele>59.0</ele><time>2026-05-01T07:35:42.999Z</time></trkpt><trkpt lat="41.52711496863574" lon="12.70567157684699"><ele>59.0</ele><time>2026-05-01T07:35:43.999Z</time></trkpt><trkpt lat="41.527279721103625" lon="12.705798985610805"><ele>58.0</ele><time>2026-05-01T07:35:44.999Z</time></trkpt><trkpt lat="41.52744952274725" lon="12.705934271254073"><ele>57.0</ele><time>2026-05-01T07:35:45.999Z</time></trkpt><trkpt lat="41.52762359608284" lon="12.706079398494149"><ele>56.0</ele><time>2026-05-01T07:35:46.999Z</time></trkpt><trkpt lat="41.527801148889026" lon="12.706226870935295"><ele>56.0</ele><time>2026-05-01T07:35:47.999Z</time></trkpt><trkpt lat="41.52796863095424" lon="12.70636496256764"><ele>56.0</ele><time>2026-05-01T07:35:48.998Z</time></trkpt><trkpt lat="41.52812575690601" lon="12.706493366201794"><ele>56.0</ele><time>2026-05-01T07:35:49.998Z</time></trkpt><trkpt lat="41.52828375957816" lon="12.706623792409072"><ele>56.0</ele><time>2026-05-01T07:35:50.998Z</time></trkpt><trkpt lat="41.52843961494174" lon="12.70675396976817"><ele>56.0</ele><time>2026-05-01T07:35:51.998Z</time></trkpt><trkpt lat="41.528596356372375" lon="12.706886968379232"><ele>56.0</ele><time>2026-05-01T07:35:52.998Z</time></trkpt><trkpt lat="41.52875561350627" lon="12.707020836309932"><ele>56.0</ele><time>2026-05-01T07:35:53.998Z</time></trkpt><trkpt lat="41.52891315732308" lon="12.707149615651483"><ele>56.0</ele><time>2026-05-01T07:35:54.998Z</time></trkpt><trkpt lat="41.52906879889652" lon="12.707302342674444"><ele>56.0</ele><time>2026-05-01T07:35:55.998Z</time></trkpt><trkpt lat="41.52925709762933" lon="12.707461638716048"><ele>56.0</ele><time>2026-05-01T07:35:56.998Z</time></trkpt><trkpt lat="41.5294661053417" lon="12.707638454042362"><ele>56.0</ele><time>2026-05-01T07:35:57.998Z</time></trkpt><trkpt lat="41.52969091836634" lon="12.707825205673554"><ele>54.5</ele><time>2026-05-01T07:35:58.998Z</time></trkpt><trkpt lat="41.5299327093997" lon="12.708026974165561"><ele>53.0</ele><time>2026-05-01T07:35:59.998Z</time></trkpt><trkpt lat="41.53016777177031" lon="12.70822924695854"><ele>53.5</ele><time>2026-05-01T07:36:00.998Z</time></trkpt><trkpt lat="41.530407409730024" lon="12.708425267130856"><ele>54.0</ele><time>2026-05-01T07:36:01.998Z</time></trkpt><trkpt lat="41.530618749547365" lon="12.708628643099678"><ele>54.5</ele><time>2026-05-01T07:36:02.998Z</time></trkpt><trkpt lat="41.530834928361664" lon="12.708839421572598"><ele>55.0</ele><time>2026-05-01T07:36:03.998Z</time></trkpt><trkpt lat="41.53106135839008" lon="12.70905746714247"><ele>54.5</ele><time>2026-05-01T07:36:04.998Z</time></trkpt><trkpt lat="41.53128814514461" lon="12.709279988943733"><ele>54.0</ele><time>2026-05-01T07:36:05.998Z</time></trkpt><trkpt lat="41.53151949839618" lon="12.709510172213422"><ele>53.0</ele><time>2026-05-01T07:36:07Z</time></trkpt><trkpt lat="41.53175537928173" lon="12.709751583443836"><ele>52.0</ele><time>2026-05-01T07:36:08Z</time></trkpt><trkpt lat="41.53199338624142" lon="12.709997351771975"><ele>51.5</ele><time>2026-05-01T07:36:09Z</time></trkpt><trkpt lat="41.53223389970671" lon="12.710243858685486"><ele>51.0</ele><time>2026-05-01T07:36:10Z</time></trkpt><trkpt lat="41.532476342620974" lon="12.71048671698086"><ele>51.0</ele><time>2026-05-01T07:36:11Z</time></trkpt><trkpt lat="41.53271809056379" lon="12.710727408408424"><ele>51.0</ele><time>2026-05-01T07:36:12Z</time></trkpt><trkpt lat="41.53296473535047" lon="12.71096942111879"><ele>50.5</ele><time>2026-05-01T07:36:13Z</time></trkpt><trkpt lat="41.533209433647286" lon="12.71121547420844"><ele>50.0</ele><time>2026-05-01T07:36:14Z</time></trkpt><trkpt lat="41.53345088931293" lon="12.711458535351134"><ele>50.0</ele><time>2026-05-01T07:36:15Z</time></trkpt><trkpt lat="41.533687653013615" lon="12.711700489427633"><ele>50.0</ele><time>2026-05-01T07:36:16Z</time></trkpt><trkpt lat="41.533924314249894" lon="12.711936415467429"><ele>49.5</ele><time>2026-05-01T07:36:17Z</time></trkpt><trkpt lat="41.534160540973225" lon="12.712168897186372"><ele>49.0</ele><time>2026-05-01T07:36:18Z</time></trkpt><trkpt lat="41.53438922759627" lon="12.712395041310774"><ele>49.5</ele><time>2026-05-01T07:36:19Z</time></trkpt><trkpt lat="41.534611778804134" lon="12.71260948192952"><ele>50.0</ele><time>2026-05-01T07:36:20Z</time></trkpt><trkpt lat="41.53483140296945" lon="12.712824976718743"><ele>50.0</ele><time>2026-05-01T07:36:21Z</time></trkpt><trkpt lat="41.53504555740309" lon="12.713047258998502"><ele>50.0</ele><time>2026-05-01T07:36:22Z</time></trkpt><trkpt lat="41.535253105034826" lon="12.713279575685462"><ele>50.0</ele><time>2026-05-01T07:36:23Z</time></trkpt><trkpt lat="41.535452915329465" lon="12.713521815844912"><ele>50.0</ele><time>2026-05-01T07:36:24Z</time></trkpt><trkpt lat="41.535644385052336" lon="12.7137806044484"><ele>52.0</ele><time>2026-05-01T07:36:25Z</time></trkpt><trkpt lat="41.53582578404606" lon="12.714052003222594"><ele>54.0</ele><time>2026-05-01T07:36:26Z</time></trkpt><trkpt lat="41.53599300986277" lon="12.714329946960504"><ele>54.0</ele><time>2026-05-01T07:36:27Z</time></trkpt><trkpt lat="41.536149383374465" lon="12.714616799803977"><ele>54.0</ele><time>2026-05-01T07:36:28Z</time></trkpt><trkpt lat="41.53629926557179" lon="12.71491710825048"><ele>54.0</ele><time>2026-05-01T07:36:29Z</time></trkpt><trkpt lat="41.536442993622494" lon="12.715230413449314"><ele>54.0</ele><time>2026-05-01T07:36:30Z</time></trkpt><trkpt lat="41.53657489492753" lon="12.71555465073762"><ele>53.5</ele><time>2026-05-01T07:36:31Z</time></trkpt><trkpt lat="41.53669422321382" lon="12.715882247505375"><ele>53.0</ele><time>2026-05-01T07:36:32Z</time></trkpt><trkpt lat="41.53681230283629" lon="12.716223679322185"><ele>52.0</ele><time>2026-05-01T07:36:33Z</time></trkpt><trkpt lat="41.53693272044975" lon="12.716566524705895"><ele>51.0</ele><time>2026-05-01T07:36:34Z</time></trkpt><trkpt lat="41.53705040912246" lon="12.716898537095593"><ele>51.0</ele><time>2026-05-01T07:36:35Z</time></trkpt><trkpt lat="41.53716502093988" lon="12.717224829203955"><ele>51.0</ele><time>2026-05-01T07:36:35.999Z</time></trkpt><trkpt lat="41.53727460053004" lon="12.717538123219734"><ele>50.5</ele><time>2026-05-01T07:36:36.999Z</time></trkpt><trkpt lat="41.537379495823565" lon="12.717831588358418"><ele>50.0</ele><time>2026-05-01T07:36:37.999Z</time></trkpt><trkpt lat="41.53748003077498" lon="12.718108344330856"><ele>50.0</ele><time>2026-05-01T07:36:38.999Z</time></trkpt><trkpt lat="41.537580064818776" lon="12.71837262644099"><ele>50.0</ele><time>2026-05-01T07:36:39.999Z</time></trkpt><trkpt lat="41.53767892827335" lon="12.718619742387293"><ele>50.0</ele><time>2026-05-01T07:36:40.999Z</time></trkpt><trkpt lat="41.53777516025618" lon="12.718848789768877"><ele>50.0</ele><time>2026-05-01T07:36:41.999Z</time></trkpt><trkpt lat="41.53787187339527" lon="12.719058336546643"><ele>50.0</ele><time>2026-05-01T07:36:42.999Z</time></trkpt><trkpt lat="41.53796591550842" lon="12.719251398648023"><ele>50.0</ele><time>2026-05-01T07:36:43.999Z</time></trkpt><trkpt lat="41.53805349624063" lon="12.719422505263937"><ele>49.75</ele><time>2026-05-01T07:36:44.999Z</time></trkpt><trkpt lat="41.538135711828666" lon="12.719579729922286"><ele>49.5</ele><time>2026-05-01T07:36:45.999Z</time></trkpt><trkpt lat="41.53821736390127" lon="12.719733872426405"><ele>49.25</ele><time>2026-05-01T07:36:46.999Z</time></trkpt><trkpt lat="41.538299786521996" lon="12.719888244993918"><ele>49.0</ele><time>2026-05-01T07:36:47.999Z</time></trkpt><trkpt lat="41.53838559908444" lon="12.720050673777163"><ele>49.0</ele><time>2026-05-01T07:36:48.999Z</time></trkpt><trkpt lat="41.53847303118048" lon="12.720213452810905"><ele>49.0</ele><time>2026-05-01T07:36:49.999Z</time></trkpt><trkpt lat="41.538554835532665" lon="12.720367629527248"><ele>49.0</ele><time>2026-05-01T07:36:50.999Z</time></trkpt><trkpt lat="41.538634149148066" lon="12.720526689381169"><ele>49.0</ele><time>2026-05-01T07:36:51.999Z</time></trkpt><trkpt lat="41.53872075215938" lon="12.720700328121685"><ele>47.33333333333333</ele><time>2026-05-01T07:36:52.999Z</time></trkpt><trkpt lat="41.538812411624676" lon="12.720881506175282"><ele>45.666666666666664</ele><time>2026-05-01T07:36:53.999Z</time></trkpt><trkpt lat="41.53890998427456" lon="12.721075239804614"><ele>44.0</ele><time>2026-05-01T07:36:54.999Z</time></trkpt><trkpt lat="41.53900906817231" lon="12.721270184305112"><ele>44.0</ele><time>2026-05-01T07:36:55.999Z</time></trkpt><trkpt lat="41.53910698985181" lon="12.721460141552203"><ele>44.0</ele><time>2026-05-01T07:36:56.999Z</time></trkpt><trkpt lat="41.53920028803659" lon="12.721639139819002"><ele>44.0</ele><time>2026-05-01T07:36:57.999Z</time></trkpt><trkpt lat="41.53928875867867" lon="12.721808123933268"><ele>43.5</ele><time>2026-05-01T07:36:58.999Z</time></trkpt><trkpt lat="41.53937889185567" lon="12.721963824525782"><ele>43.0</ele><time>2026-05-01T07:36:59.999Z</time></trkpt><trkpt lat="41.539470089443405" lon="12.72210245577224"><ele>42.5</ele><time>2026-05-01T07:37:00.999Z</time></trkpt><trkpt lat="41.539562159279946" lon="12.722219831755385"><ele>42.0</ele><time>2026-05-01T07:37:01.999Z</time></trkpt><trkpt lat="41.539667272436986" lon="12.722328058170982"><ele>41.5</ele><time>2026-05-01T07:37:02.999Z</time></trkpt><trkpt lat="41.53978290014178" lon="12.72243101028122"><ele>41.0</ele><time>2026-05-01T07:37:03.999Z</time></trkpt><trkpt lat="41.5399091917812" lon="12.722536211295102"><ele>40.5</ele><time>2026-05-01T07:37:04.999Z</time></trkpt><trkpt lat="41.54003500177696" lon="12.722638964482696"><ele>40.0</ele><time>2026-05-01T07:37:05.999Z</time></trkpt><trkpt lat="41.54015489865318" lon="12.722738720458223"><ele>40.0</ele><time>2026-05-01T07:37:06.999Z</time></trkpt><trkpt lat="41.54026679328206" lon="12.72283370764742"><ele>40.0</ele><time>2026-05-01T07:37:07.999Z</time></trkpt><trkpt lat="41.54036685215755" lon="12.72291394976985"><ele>40.0</ele><time>2026-05-01T07:37:08.999Z</time></trkpt><trkpt lat="41.54046333945245" lon="12.722990266728774"><ele>40.0</ele><time>2026-05-01T07:37:09.999Z</time></trkpt><trkpt lat="41.5405540899521" lon="12.723067551750873"><ele>39.0</ele><time>2026-05-01T07:37:10.999Z</time></trkpt><trkpt lat="41.54064632753798" lon="12.723178189063262"><ele>38.0</ele><time>2026-05-01T07:37:11.999Z</time></trkpt><trkpt lat="41.54073102567852" lon="12.723322734265595"><ele>37.0</ele><time>2026-05-01T07:37:12.999Z</time></trkpt><trkpt lat="41.54078602999329" lon="12.723488623844034"><ele>36.0</ele><time>2026-05-01T07:37:13.999Z</time></trkpt><trkpt lat="41.54081142069365" lon="12.723660454298697"><ele>36.0</ele><time>2026-05-01T07:37:14.999Z</time></trkpt><trkpt lat="41.54081537481063" lon="12.72382641338004"><ele>36.0</ele><time>2026-05-01T07:37:15.999Z</time></trkpt><trkpt lat="41.54079937889314" lon="12.723974721739491"><ele>36.0</ele><time>2026-05-01T07:37:16.999Z</time></trkpt><trkpt lat="41.54076477918317" lon="12.724114026995647"><ele>36.0</ele><time>2026-05-01T07:37:17.999Z</time></trkpt><trkpt lat="41.54070915554355" lon="12.724244552414222"><ele>36.0</ele><time>2026-05-01T07:37:18.999Z</time></trkpt><trkpt lat="41.54063193538333" lon="12.724372123675279"><ele>36.0</ele><time>2026-05-01T07:37:19.999Z</time></trkpt><trkpt lat="41.54053477629853" lon="12.724495250177181"><ele>36.0</ele><time>2026-05-01T07:37:20.999Z</time></trkpt><trkpt lat="41.5404368181913" lon="12.724607209369898"><ele>36.0</ele><time>2026-05-01T07:37:21.999Z</time></trkpt><trkpt lat="41.54034975967237" lon="12.724703094584136"><ele>36.6</ele><time>2026-05-01T07:37:22.999Z</time></trkpt><trkpt lat="41.54026994026325" lon="12.724791808697697"><ele>37.2</ele><time>2026-05-01T07:37:23.999Z</time></trkpt><trkpt lat="41.54019364832307" lon="12.724885862465632"><ele>37.8</ele><time>2026-05-01T07:37:24.999Z</time></trkpt><trkpt lat="41.54011977905075" lon="12.724988901557266"><ele>38.4</ele><time>2026-05-01T07:37:25.999Z</time></trkpt><trkpt lat="41.540050877337485" lon="12.725102144704723"><ele>39.0</ele><time>2026-05-01T07:37:26.999Z</time></trkpt><trkpt lat="41.53998067751831" lon="12.72524071594915"><ele>39.0</ele><time>2026-05-01T07:37:27.999Z</time></trkpt><trkpt lat="41.53989965690999" lon="12.72540505449805"><ele>39.0</ele><time>2026-05-01T07:37:28.999Z</time></trkpt><trkpt lat="41.53982792252547" lon="12.725573116316541"><ele>39.0</ele><time>2026-05-01T07:37:29.999Z</time></trkpt><trkpt lat="41.53977878072878" lon="12.725735902177405"><ele>39.0</ele><time>2026-05-01T07:37:30.999Z</time></trkpt><trkpt lat="41.53973890728887" lon="12.725941221732112"><ele>39.0</ele><time>2026-05-01T07:37:31.999Z</time></trkpt><trkpt lat="41.53970459456454" lon="12.726186055827993"><ele>39.0</ele><time>2026-05-01T07:37:32.999Z</time></trkpt><trkpt lat="41.53967698850506" lon="12.726449639580604"><ele>39.0</ele><time>2026-05-01T07:37:33.999Z</time></trkpt><trkpt lat="41.5396515091959" lon="12.726688003234786"><ele>39.0</ele><time>2026-05-01T07:37:34.999Z</time></trkpt><trkpt lat="41.53962237287501" lon="12.726923453490901"><ele>39.0</ele><time>2026-05-01T07:37:35.999Z</time></trkpt><trkpt lat="41.539592342241285" lon="12.727161580089744"><ele>39.0</ele><time>2026-05-01T07:37:36.999Z</time></trkpt><trkpt lat="41.539562654509346" lon="12.727391978467493"><ele>38.333333333333336</ele><time>2026-05-01T07:37:37.998Z</time></trkpt><trkpt lat="41.53953546396295" lon="12.72760574409908"><ele>37.66666666666667</ele><time>2026-05-01T07:37:38.998Z</time></trkpt><trkpt lat="41.53950850092341" lon="12.727816239625879"><ele>37.0</ele><time>2026-05-01T07:37:39.998Z</time></trkpt><trkpt lat="41.53948216973429" lon="12.7280254886154"><ele>37.0</ele><time>2026-05-01T07:37:40.998Z</time></trkpt><trkpt lat="41.53945563260663" lon="12.728225567021285"><ele>37.0</ele><time>2026-05-01T07:37:41.998Z</time></trkpt><trkpt lat="41.53942933381802" lon="12.728434275596774"><ele>37.0</ele><time>2026-05-01T07:37:42.998Z</time></trkpt><trkpt lat="41.53940058652772" lon="12.728640607683825"><ele>37.66666666666667</ele><time>2026-05-01T07:37:43.998Z</time></trkpt><trkpt lat="41.53937447286464" lon="12.728862326272626"><ele>38.333333333333336</ele><time>2026-05-01T07:37:44.998Z</time></trkpt><trkpt lat="41.53934754258014" lon="12.729073552041006"><ele>39.0</ele><time>2026-05-01T07:37:45.998Z</time></trkpt><trkpt lat="41.539325855682016" lon="12.729249193988112"><ele>39.0</ele><time>2026-05-01T07:37:46.998Z</time></trkpt><trkpt lat="41.539308119105456" lon="12.729382245155884"><ele>39.0</ele><time>2026-05-01T07:37:47.998Z</time></trkpt><trkpt lat="41.53929357389327" lon="12.729487054415793"><ele>39.0</ele><time>2026-05-01T07:37:48.998Z</time></trkpt><trkpt lat="41.539285377520095" lon="12.729576759124194"><ele>39.0</ele><time>2026-05-01T07:37:49.998Z</time></trkpt><trkpt lat="41.53927334376295" lon="12.729687536326715"><ele>39.0</ele><time>2026-05-01T07:37:51.998Z</time></trkpt><trkpt lat="41.539284739555484" lon="12.729802097909863"><ele>39.0</ele><time>2026-05-01T07:37:53.998Z</time></trkpt><trkpt lat="41.53934465597224" lon="12.729881216338013"><ele>39.0</ele><time>2026-05-01T07:37:55.998Z</time></trkpt><trkpt lat="41.53944425111778" lon="12.729925439008793"><ele>39.0</ele><time>2026-05-01T07:37:57.998Z</time></trkpt><trkpt lat="41.539508533031764" lon="12.729938875254886"><ele>39.0</ele><time>2026-05-01T07:37:58.998Z</time></trkpt><trkpt lat="41.53960416449582" lon="12.729942331756225"><ele>39.0</ele><time>2026-05-01T07:37:59.998Z</time></trkpt><trkpt lat="41.53972051354083" lon="12.72995841545672"><ele>39.0</ele><time>2026-05-01T07:38:00.998Z</time></trkpt><trkpt lat="41.53983973689822" lon="12.729989953364845"><ele>39.0</ele><time>2026-05-01T07:38:01.998Z</time></trkpt><trkpt lat="41.53996365434429" lon="12.73003006129516"><ele>39.0</ele><time>2026-05-01T07:38:02.998Z</time></trkpt><trkpt lat="41.54009065376457" lon="12.730069975458365"><ele>39.0</ele><time>2026-05-01T07:38:03.998Z</time></trkpt><trkpt lat="41.54022260479316" lon="12.730110530391974"><ele>39.0</ele><time>2026-05-01T07:38:04.998Z</time></trkpt><trkpt lat="41.54036284743816" lon="12.73015023971711"><ele>38.8</ele><time>2026-05-01T07:38:05.998Z</time></trkpt><trkpt lat="41.54049696844687" lon="12.730187394725101"><ele>38.599999999999994</ele><time>2026-05-01T07:38:06.998Z</time></trkpt><trkpt lat="41.54060579767391" lon="12.730214995721132"><ele>38.4</ele><time>2026-05-01T07:38:07.998Z</time></trkpt><trkpt lat="41.540685317103794" lon="12.730240265997146"><ele>38.199999999999996</ele><time>2026-05-01T07:38:08.998Z</time></trkpt><trkpt lat="41.540775840695645" lon="12.730301581423527"><ele>38.0</ele><time>2026-05-01T07:38:10.998Z</time></trkpt><trkpt lat="41.540634994142145" lon="12.730179337076395"><ele>38.0</ele><time>2026-05-01T07:38:19Z</time></trkpt><trkpt lat="41.5405188380961" lon="12.730156223458742"><ele>38.0</ele><time>2026-05-01T07:38:20Z</time></trkpt><trkpt lat="41.5403887103283" lon="12.730128784924064"><ele>38.0</ele><time>2026-05-01T07:38:21Z</time></trkpt><trkpt lat="41.54025207291938" lon="12.730091878052422"><ele>38.0</ele><time>2026-05-01T07:38:22Z</time></trkpt><trkpt lat="41.540106472889676" lon="12.730055913915256"><ele>38.25</ele><time>2026-05-01T07:38:23Z</time></trkpt><trkpt lat="41.53994363324103" lon="12.730016754909549"><ele>38.5</ele><time>2026-05-01T07:38:24Z</time></trkpt><trkpt lat="41.53980583833158" lon="12.729981336592788"><ele>38.75</ele><time>2026-05-01T07:38:25Z</time></trkpt><trkpt lat="41.539673884675445" lon="12.729947850494995"><ele>39.0</ele><time>2026-05-01T07:38:26Z</time></trkpt><trkpt lat="41.53955238193039" lon="12.729916568321324"><ele>39.4</ele><time>2026-05-01T07:38:27Z</time></trkpt><trkpt lat="41.53945269717888" lon="12.729889849044325"><ele>39.8</ele><time>2026-05-01T07:38:28Z</time></trkpt><trkpt lat="41.53937578259336" lon="12.729871181069676"><ele>40.199999999999996</ele><time>2026-05-01T07:38:29Z</time></trkpt><trkpt lat="41.539315627476384" lon="12.72984489983705"><ele>40.599999999999994</ele><time>2026-05-01T07:38:30Z</time></trkpt><trkpt lat="41.53924124179305" lon="12.729848838952654"><ele>41.0</ele><time>2026-05-01T07:38:31Z</time></trkpt><trkpt lat="41.53916963280396" lon="12.730182016555734"><ele>41.0</ele><time>2026-05-01T07:38:33Z</time></trkpt><trkpt lat="41.539159274047876" lon="12.730354153582793"><ele>41.0</ele><time>2026-05-01T07:38:34Z</time></trkpt><trkpt lat="41.5391481262052" lon="12.730524962426934"><ele>41.0</ele><time>2026-05-01T07:38:35Z</time></trkpt><trkpt lat="41.539123380014125" lon="12.730698913523069"><ele>41.0</ele><time>2026-05-01T07:38:36Z</time></trkpt><trkpt lat="41.53909746023679" lon="12.730878747035826"><ele>41.0</ele><time>2026-05-01T07:38:37Z</time></trkpt><trkpt lat="41.53907379005967" lon="12.731073285932673"><ele>41.0</ele><time>2026-05-01T07:38:38Z</time></trkpt><trkpt lat="41.53904828558884" lon="12.731274219319989"><ele>41.0</ele><time>2026-05-01T07:38:39Z</time></trkpt><trkpt lat="41.53902621477398" lon="12.731475088193626"><ele>41.0</ele><time>2026-05-01T07:38:40Z</time></trkpt><trkpt lat="41.538999886352485" lon="12.731675219234837"><ele>41.0</ele><time>2026-05-01T07:38:41Z</time></trkpt><trkpt lat="41.53897000331294" lon="12.731879664205525"><ele>41.0</ele><time>2026-05-01T07:38:41.999Z</time></trkpt><trkpt lat="41.538917617904275" lon="12.732078185649186"><ele>40.25</ele><time>2026-05-01T07:38:42.999Z</time></trkpt><trkpt lat="41.53889546963286" lon="12.732270025086006"><ele>39.5</ele><time>2026-05-01T07:38:43.999Z</time></trkpt><trkpt lat="41.538854352977474" lon="12.73245519674438"><ele>38.75</ele><time>2026-05-01T07:38:44.999Z</time></trkpt><trkpt lat="41.53880847090081" lon="12.732642727716192"><ele>38.0</ele><time>2026-05-01T07:38:45.999Z</time></trkpt><trkpt lat="41.53875596143613" lon="12.732834000433755"><ele>37.33333333333333</ele><time>2026-05-01T07:38:46.999Z</time></trkpt><trkpt lat="41.538697304479996" lon="12.733030401454867"><ele>36.666666666666664</ele><time>2026-05-01T07:38:47.999Z</time></trkpt><trkpt lat="41.538633171110455" lon="12.733230285550452"><ele>36.0</ele><time>2026-05-01T07:38:48.999Z</time></trkpt><trkpt lat="41.5385648793647" lon="12.733425815262375"><ele>36.25</ele><time>2026-05-01T07:38:49.999Z</time></trkpt><trkpt lat="41.53849599151236" lon="12.733614366917084"><ele>36.5</ele><time>2026-05-01T07:38:50.999Z</time></trkpt><trkpt lat="41.538428706523966" lon="12.733792274634856"><ele>36.75</ele><time>2026-05-01T07:38:51.999Z</time></trkpt><trkpt lat="41.53836475669349" lon="12.733950130795346"><ele>37.0</ele><time>2026-05-01T07:38:52.999Z</time></trkpt><trkpt lat="41.53830880589006" lon="12.734080303453473"><ele>37.0</ele><time>2026-05-01T07:38:53.999Z</time></trkpt><trkpt lat="41.53826781381834" lon="12.734175964154355"><ele>37.0</ele><time>2026-05-01T07:38:54.999Z</time></trkpt><trkpt lat="41.53822076374998" lon="12.734257828516629"><ele>37.0</ele><time>2026-05-01T07:38:56.999Z</time></trkpt><trkpt lat="41.53841687909059" lon="12.734266481951288"><ele>37.0</ele><time>2026-05-01T07:38:58.999Z</time></trkpt><trkpt lat="41.53851031949704" lon="12.73424680700247"><ele>37.0</ele><time>2026-05-01T07:38:59.999Z</time></trkpt><trkpt lat="41.538615169703306" lon="12.734234042480542"><ele>37.0</ele><time>2026-05-01T07:39:00.999Z</time></trkpt><trkpt lat="41.538729000438614" lon="12.734272805934575"><ele>37.0</ele><time>2026-05-01T07:39:01.999Z</time></trkpt><trkpt lat="41.53883225713538" lon="12.734338494281802"><ele>37.0</ele><time>2026-05-01T07:39:02.999Z</time></trkpt><trkpt lat="41.538910112087756" lon="12.734393172957558"><ele>37.0</ele><time>2026-05-01T07:39:03.999Z</time></trkpt><trkpt lat="41.539004454264216" lon="12.734433963702537"><ele>36.800000000000004</ele><time>2026-05-01T07:39:05.999Z</time></trkpt><trkpt lat="41.53903337377707" lon="12.734574269613411"><ele>36.6</ele><time>2026-05-01T07:39:18.999Z</time></trkpt><trkpt lat="41.53906579240771" lon="12.734738569995343"><ele>36.400000000000006</ele><time>2026-05-01T07:39:20.999Z</time></trkpt><trkpt lat="41.53908296699258" lon="12.734836579918374"><ele>36.2</ele><time>2026-05-01T07:39:21.999Z</time></trkpt><trkpt lat="41.53910635482354" lon="12.734948393374182"><ele>36.0</ele><time>2026-05-01T07:39:22.999Z</time></trkpt><trkpt lat="41.53913830938518" lon="12.735070057513232"><ele>36.0</ele><time>2026-05-01T07:39:23.999Z</time></trkpt><trkpt lat="41.53917901079158" lon="12.735196826707135"><ele>36.0</ele><time>2026-05-01T07:39:24.999Z</time></trkpt><trkpt lat="41.53922419828033" lon="12.735322303324448"><ele>36.0</ele><time>2026-05-01T07:39:25.999Z</time></trkpt><trkpt lat="41.539254540762585" lon="12.735453027602846"><ele>36.0</ele><time>2026-05-01T07:39:26.999Z</time></trkpt><trkpt lat="41.53934802384391" lon="12.735554858756021"><ele>36.0</ele><time>2026-05-01T07:39:27.999Z</time></trkpt><trkpt lat="41.53943966540126" lon="12.735658208986381"><ele>35.5</ele><time>2026-05-01T07:39:28.999Z</time></trkpt><trkpt lat="41.53954109329969" lon="12.735746634149423"><ele>35.0</ele><time>2026-05-01T07:39:29.999Z</time></trkpt><trkpt lat="41.53964041371959" lon="12.735839816630898"><ele>34.5</ele><time>2026-05-01T07:39:30.999Z</time></trkpt><trkpt lat="41.5397512256171" lon="12.735939022394831"><ele>34.0</ele><time>2026-05-01T07:39:31.999Z</time></trkpt><trkpt lat="41.539861740759285" lon="12.73603753688587"><ele>33.75</ele><time>2026-05-01T07:39:32.999Z</time></trkpt><trkpt lat="41.539970645472295" lon="12.736138490447582"><ele>33.5</ele><time>2026-05-01T07:39:33.999Z</time></trkpt><trkpt lat="41.54008132475947" lon="12.73624067770574"><ele>33.25</ele><time>2026-05-01T07:39:34.999Z</time></trkpt><trkpt lat="41.540195608422394" lon="12.736346676237522"><ele>33.0</ele><time>2026-05-01T07:39:35.999Z</time></trkpt><trkpt lat="41.5403045599623" lon="12.736450866327035"><ele>34.0</ele><time>2026-05-01T07:39:36.999Z</time></trkpt><trkpt lat="41.540409145259396" lon="12.736554363932026"><ele>35.0</ele><time>2026-05-01T07:39:37.999Z</time></trkpt><trkpt lat="41.540517222103084" lon="12.736654169730615"><ele>36.0</ele><time>2026-05-01T07:39:38.999Z</time></trkpt><trkpt lat="41.54062479370729" lon="12.736752482931438"><ele>37.0</ele><time>2026-05-01T07:39:39.999Z</time></trkpt><trkpt lat="41.54072946223248" lon="12.736849085334422"><ele>36.75</ele><time>2026-05-01T07:39:40.999Z</time></trkpt><trkpt lat="41.54083452019192" lon="12.736945377884798"><ele>36.5</ele><time>2026-05-01T07:39:41.999Z</time></trkpt><trkpt lat="41.54094034400899" lon="12.737043902685766"><ele>36.25</ele><time>2026-05-01T07:39:42.999Z</time></trkpt><trkpt lat="41.54104690358083" lon="12.737147065769811"><ele>36.0</ele><time>2026-05-01T07:39:43.999Z</time></trkpt><trkpt lat="41.541157929117404" lon="12.737250089519767"><ele>35.75</ele><time>2026-05-01T07:39:44.999Z</time></trkpt><trkpt lat="41.54127297308626" lon="12.73735782827154"><ele>35.5</ele><time>2026-05-01T07:39:45.999Z</time></trkpt><trkpt lat="41.541394454870144" lon="12.737472537613366"><ele>35.25</ele><time>2026-05-01T07:39:46.999Z</time></trkpt><trkpt lat="41.54150695719736" lon="12.737574661941565"><ele>35.0</ele><time>2026-05-01T07:39:47.998Z</time></trkpt><trkpt lat="41.541610924572225" lon="12.737664988170664"><ele>35.2</ele><time>2026-05-01T07:39:48.998Z</time></trkpt><trkpt lat="41.54170593337539" lon="12.737748788057855"><ele>35.4</ele><time>2026-05-01T07:39:49.998Z</time></trkpt><trkpt lat="41.541794448518516" lon="12.737829039714823"><ele>35.6</ele><time>2026-05-01T07:39:50.998Z</time></trkpt><trkpt lat="41.5418769536119" lon="12.737909681396916"><ele>35.8</ele><time>2026-05-01T07:39:51.998Z</time></trkpt><trkpt lat="41.541972606122854" lon="12.738007011182987"><ele>36.0</ele><time>2026-05-01T07:39:52.998Z</time></trkpt><trkpt lat="41.54206771252922" lon="12.738103367021468"><ele>36.0</ele><time>2026-05-01T07:39:53.998Z</time></trkpt><trkpt lat="41.54217412904083" lon="12.738203961731406"><ele>36.0</ele><time>2026-05-01T07:39:54.998Z</time></trkpt><trkpt lat="41.54227343914928" lon="12.7382935119673"><ele>36.0</ele><time>2026-05-01T07:39:55.998Z</time></trkpt><trkpt lat="41.5423619509184" lon="12.738371540565721"><ele>36.0</ele><time>2026-05-01T07:39:56.998Z</time></trkpt><trkpt lat="41.5424417791303" lon="12.738443851065636"><ele>36.0</ele><time>2026-05-01T07:39:57.998Z</time></trkpt><trkpt lat="41.54251166516171" lon="12.73851336115581"><ele>36.0</ele><time>2026-05-01T07:39:58.998Z</time></trkpt><trkpt lat="41.54258256721029" lon="12.738580228240817"><ele>36.0</ele><time>2026-05-01T07:39:59.998Z</time></trkpt><trkpt lat="41.542682370463154" lon="12.738675927058706"><ele>36.0</ele><time>2026-05-01T07:40:00.998Z</time></trkpt><trkpt lat="41.54278459354298" lon="12.738771778622088"><ele>36.0</ele><time>2026-05-01T07:40:01.998Z</time></trkpt><trkpt lat="41.542890676214924" lon="12.738874120353673"><ele>36.5</ele><time>2026-05-01T07:40:02.998Z</time></trkpt><trkpt lat="41.543006090694355" lon="12.738985353938284"><ele>37.0</ele><time>2026-05-01T07:40:03.998Z</time></trkpt><trkpt lat="41.543125429035506" lon="12.739101153874513"><ele>37.5</ele><time>2026-05-01T07:40:04.998Z</time></trkpt><trkpt lat="41.54324250195692" lon="12.73921321911763"><ele>38.0</ele><time>2026-05-01T07:40:05.998Z</time></trkpt><trkpt lat="41.54335824792996" lon="12.73932063829969"><ele>37.75</ele><time>2026-05-01T07:40:06.998Z</time></trkpt><trkpt lat="41.54347439632383" lon="12.739427061512133"><ele>37.5</ele><time>2026-05-01T07:40:07.998Z</time></trkpt><trkpt lat="41.54358888913705" lon="12.739534439261773"><ele>37.25</ele><time>2026-05-01T07:40:08.998Z</time></trkpt><trkpt lat="41.543706031376985" lon="12.73964120151635"><ele>37.0</ele><time>2026-05-01T07:40:09.998Z</time></trkpt><trkpt lat="41.54382216640704" lon="12.7397471643915"><ele>37.75</ele><time>2026-05-01T07:40:10.998Z</time></trkpt><trkpt lat="41.543940149602015" lon="12.739853926649264"><ele>38.5</ele><time>2026-05-01T07:40:11.998Z</time></trkpt><trkpt lat="41.54405629024106" lon="12.739957606265373"><ele>39.25</ele><time>2026-05-01T07:40:12.998Z</time></trkpt><trkpt lat="41.54417039168849" lon="12.740064471323496"><ele>40.0</ele><time>2026-05-01T07:40:13.998Z</time></trkpt><trkpt lat="41.5442850592449" lon="12.740174047757243"><ele>39.75</ele><time>2026-05-01T07:40:14.998Z</time></trkpt><trkpt lat="41.54439877171822" lon="12.740279236230158"><ele>39.5</ele><time>2026-05-01T07:40:15.998Z</time></trkpt><trkpt lat="41.544513845908824" lon="12.740389510766631"><ele>39.25</ele><time>2026-05-01T07:40:16.998Z</time></trkpt><trkpt lat="41.544631214230584" lon="12.74050076672443"><ele>39.0</ele><time>2026-05-01T07:40:17.998Z</time></trkpt><trkpt lat="41.544748657588976" lon="12.740611461421985"><ele>39.0</ele><time>2026-05-01T07:40:19Z</time></trkpt><trkpt lat="41.5448698078547" lon="12.74072226082558"><ele>39.0</ele><time>2026-05-01T07:40:20Z</time></trkpt><trkpt lat="41.544991441651774" lon="12.740831266080578"><ele>39.0</ele><time>2026-05-01T07:40:21Z</time></trkpt><trkpt lat="41.54511377602651" lon="12.740943906527312"><ele>39.0</ele><time>2026-05-01T07:40:22Z</time></trkpt><trkpt lat="41.5452311667464" lon="12.741063351609421"><ele>39.0</ele><time>2026-05-01T07:40:23Z</time></trkpt><trkpt lat="41.54535201016509" lon="12.741184566747839"><ele>39.0</ele><time>2026-05-01T07:40:24Z</time></trkpt><trkpt lat="41.545475744660635" lon="12.741300695442826"><ele>39.0</ele><time>2026-05-01T07:40:25Z</time></trkpt><trkpt lat="41.54559918569095" lon="12.741414130784072"><ele>39.0</ele><time>2026-05-01T07:40:26Z</time></trkpt><trkpt lat="41.54572491756791" lon="12.741527518283252"><ele>39.0</ele><time>2026-05-01T07:40:27Z</time></trkpt><trkpt lat="41.54585276468258" lon="12.741639296057755"><ele>39.0</ele><time>2026-05-01T07:40:28Z</time></trkpt><trkpt lat="41.54598136628648" lon="12.741752852665995"><ele>39.0</ele><time>2026-05-01T07:40:29Z</time></trkpt><trkpt lat="41.546110789662535" lon="12.741867466400338"><ele>39.0</ele><time>2026-05-01T07:40:30Z</time></trkpt><trkpt lat="41.546241331235926" lon="12.741983914448376"><ele>39.0</ele><time>2026-05-01T07:40:31Z</time></trkpt><trkpt lat="41.546370260168395" lon="12.742108804919965"><ele>38.666666666666664</ele><time>2026-05-01T07:40:32Z</time></trkpt><trkpt lat="41.54648973707557" lon="12.742253647809976"><ele>38.33333333333333</ele><time>2026-05-01T07:40:33Z</time></trkpt><trkpt lat="41.54659350107426" lon="12.742421960696927"><ele>38.0</ele><time>2026-05-01T07:40:34Z</time></trkpt><trkpt lat="41.54668337505655" lon="12.742608846333775"><ele>38.0</ele><time>2026-05-01T07:40:35Z</time></trkpt><trkpt lat="41.54675741441769" lon="12.742822343191163"><ele>38.0</ele><time>2026-05-01T07:40:36Z</time></trkpt><trkpt lat="41.54682646725359" lon="12.74309186258726"><ele>38.0</ele><time>2026-05-01T07:40:37Z</time></trkpt><trkpt lat="41.54689532889476" lon="12.743398868489278"><ele>38.5</ele><time>2026-05-01T07:40:38Z</time></trkpt><trkpt lat="41.5469692394874" lon="12.743741180792325"><ele>39.0</ele><time>2026-05-01T07:40:39Z</time></trkpt><trkpt lat="41.547042640746696" lon="12.744091829597192"><ele>40.5</ele><time>2026-05-01T07:40:40Z</time></trkpt><trkpt lat="41.54711776304915" lon="12.744447736339577"><ele>42.0</ele><time>2026-05-01T07:40:41Z</time></trkpt><trkpt lat="41.54719423960551" lon="12.744799003998025"><ele>42.0</ele><time>2026-05-01T07:40:42Z</time></trkpt><trkpt lat="41.54727092747087" lon="12.745150242411464"><ele>42.0</ele><time>2026-05-01T07:40:43Z</time></trkpt><trkpt lat="41.547347695797306" lon="12.74549604411492"><ele>42.0</ele><time>2026-05-01T07:40:44Z</time></trkpt><trkpt lat="41.54742475976128" lon="12.745842124707284"><ele>42.0</ele><time>2026-05-01T07:40:45Z</time></trkpt><trkpt lat="41.54750176850289" lon="12.74618873182906"><ele>42.5</ele><time>2026-05-01T07:40:46Z</time></trkpt><trkpt lat="41.54757921509651" lon="12.746539266829775"><ele>43.0</ele><time>2026-05-01T07:40:47Z</time></trkpt><trkpt lat="41.54765758593447" lon="12.746885903215947"><ele>41.5</ele><time>2026-05-01T07:40:48Z</time></trkpt><trkpt lat="41.54773310795609" lon="12.747230650993222"><ele>40.0</ele><time>2026-05-01T07:40:49Z</time></trkpt><trkpt lat="41.54780846508658" lon="12.747567706239897"><ele>39.5</ele><time>2026-05-01T07:40:49.999Z</time></trkpt><trkpt lat="41.547880821730686" lon="12.747899297456593"><ele>39.0</ele><time>2026-05-01T07:40:50.999Z</time></trkpt><trkpt lat="41.5479510457171" lon="12.748226734527433"><ele>39.0</ele><time>2026-05-01T07:40:51.999Z</time></trkpt><trkpt lat="41.54802317677496" lon="12.748553497354864"><ele>39.0</ele><time>2026-05-01T07:40:52.999Z</time></trkpt><trkpt lat="41.548096069054786" lon="12.748878597588849"><ele>39.0</ele><time>2026-05-01T07:40:53.999Z</time></trkpt><trkpt lat="41.54817025008803" lon="12.749203409368029"><ele>39.0</ele><time>2026-05-01T07:40:54.999Z</time></trkpt><trkpt lat="41.548244612304266" lon="12.749534157838177"><ele>38.5</ele><time>2026-05-01T07:40:55.999Z</time></trkpt><trkpt lat="41.54831474931966" lon="12.749862825388446"><ele>38.0</ele><time>2026-05-01T07:40:56.999Z</time></trkpt><trkpt lat="41.548387194900265" lon="12.750192740646831"><ele>39.5</ele><time>2026-05-01T07:40:57.999Z</time></trkpt><trkpt lat="41.54846426156106" lon="12.750520621070788"><ele>41.0</ele><time>2026-05-01T07:40:58.999Z</time></trkpt><trkpt lat="41.54854038464399" lon="12.7508469163121"><ele>41.5</ele><time>2026-05-01T07:40:59.999Z</time></trkpt><trkpt lat="41.548613617847735" lon="12.751175126200694"><ele>42.0</ele><time>2026-05-01T07:41:00.999Z</time></trkpt><trkpt lat="41.5486856263684" lon="12.751500525806632"><ele>42.0</ele><time>2026-05-01T07:41:01.999Z</time></trkpt><trkpt lat="41.548758679700725" lon="12.751831564731994"><ele>42.0</ele><time>2026-05-01T07:41:02.999Z</time></trkpt><trkpt lat="41.5488293601366" lon="12.75216228833772"><ele>42.5</ele><time>2026-05-01T07:41:03.999Z</time></trkpt><trkpt lat="41.54889982851351" lon="12.752492963520954"><ele>43.0</ele><time>2026-05-01T07:41:04.999Z</time></trkpt><trkpt lat="41.54897152563741" lon="12.752820725586107"><ele>43.5</ele><time>2026-05-01T07:41:05.999Z</time></trkpt><trkpt lat="41.54904240952854" lon="12.753152237933744"><ele>44.0</ele><time>2026-05-01T07:41:06.999Z</time></trkpt><trkpt lat="41.54911314611253" lon="12.753485975057144"><ele>44.5</ele><time>2026-05-01T07:41:07.999Z</time></trkpt><trkpt lat="41.54918506330916" lon="12.753817286140224"><ele>45.0</ele><time>2026-05-01T07:41:08.999Z</time></trkpt><trkpt lat="41.54926055449134" lon="12.754151287880163"><ele>47.0</ele><time>2026-05-01T07:41:09.999Z</time></trkpt><trkpt lat="41.549335704315965" lon="12.754479974707442"><ele>49.0</ele><time>2026-05-01T07:41:10.999Z</time></trkpt><trkpt lat="41.54941022006959" lon="12.754812257045172"><ele>49.0</ele><time>2026-05-01T07:41:11.999Z</time></trkpt><trkpt lat="41.54948425731114" lon="12.755145969332451"><ele>49.0</ele><time>2026-05-01T07:41:12.999Z</time></trkpt><trkpt lat="41.54955778193825" lon="12.75547829344783"><ele>48.5</ele><time>2026-05-01T07:41:13.999Z</time></trkpt><trkpt lat="41.549631471010166" lon="12.755809457442101"><ele>48.0</ele><time>2026-05-01T07:41:14.999Z</time></trkpt><trkpt lat="41.5497062284018" lon="12.75613873015752"><ele>49.0</ele><time>2026-05-01T07:41:15.999Z</time></trkpt><trkpt lat="41.54978133473293" lon="12.756468055044499"><ele>50.0</ele><time>2026-05-01T07:41:16.999Z</time></trkpt><trkpt lat="41.54985415207636" lon="12.756800139917642"><ele>50.5</ele><time>2026-05-01T07:41:17.999Z</time></trkpt><trkpt lat="41.549924855965216" lon="12.757131236393093"><ele>51.0</ele><time>2026-05-01T07:41:18.999Z</time></trkpt><trkpt lat="41.54999467622051" lon="12.757463387001337"><ele>52.5</ele><time>2026-05-01T07:41:19.999Z</time></trkpt><trkpt lat="41.55006775677429" lon="12.75779634366447"><ele>54.0</ele><time>2026-05-01T07:41:20.999Z</time></trkpt><trkpt lat="41.55014458727176" lon="12.758127317534079"><ele>54.0</ele><time>2026-05-01T07:41:21.999Z</time></trkpt><trkpt lat="41.55021936672485" lon="12.758457982290556"><ele>54.0</ele><time>2026-05-01T07:41:22.999Z</time></trkpt><trkpt lat="41.55029163733963" lon="12.758790415454095"><ele>54.0</ele><time>2026-05-01T07:41:23.999Z</time></trkpt><trkpt lat="41.55036134075626" lon="12.75912196344362"><ele>54.0</ele><time>2026-05-01T07:41:24.999Z</time></trkpt><trkpt lat="41.55043070500552" lon="12.759454301043686"><ele>55.0</ele><time>2026-05-01T07:41:25.999Z</time></trkpt><trkpt lat="41.55050116332486" lon="12.759785549951273"><ele>56.0</ele><time>2026-05-01T07:41:26.999Z</time></trkpt><trkpt lat="41.55057582481437" lon="12.760114713256032"><ele>56.0</ele><time>2026-05-01T07:41:27.999Z</time></trkpt><trkpt lat="41.55065482905209" lon="12.760444711752507"><ele>56.0</ele><time>2026-05-01T07:41:28.999Z</time></trkpt><trkpt lat="41.55072625793392" lon="12.760768736237702"><ele>54.5</ele><time>2026-05-01T07:41:29.999Z</time></trkpt><trkpt lat="41.55079244751082" lon="12.761075212221495"><ele>53.0</ele><time>2026-05-01T07:41:30.999Z</time></trkpt><trkpt lat="41.55085995527154" lon="12.761384084610398"><ele>53.0</ele><time>2026-05-01T07:41:31.999Z</time></trkpt><trkpt lat="41.55093001982376" lon="12.761700915924163"><ele>53.0</ele><time>2026-05-01T07:41:32.999Z</time></trkpt><trkpt lat="41.550999582884785" lon="12.762020313529522"><ele>53.0</ele><time>2026-05-01T07:41:33.999Z</time></trkpt><trkpt lat="41.55106913786302" lon="12.762331728578827"><ele>53.0</ele><time>2026-05-01T07:41:34.999Z</time></trkpt><trkpt lat="41.551139935325736" lon="12.762640547361043"><ele>53.0</ele><time>2026-05-01T07:41:35.999Z</time></trkpt><trkpt lat="41.55120685415829" lon="12.762942429797913"><ele>53.0</ele><time>2026-05-01T07:41:36.999Z</time></trkpt><trkpt lat="41.551272412528014" lon="12.76323821854515"><ele>53.333333333333336</ele><time>2026-05-01T07:41:37.999Z</time></trkpt><trkpt lat="41.55133946946795" lon="12.763519630221493"><ele>53.66666666666667</ele><time>2026-05-01T07:41:38.999Z</time></trkpt><trkpt lat="41.551421669388965" lon="12.763794694932935"><ele>54.0</ele><time>2026-05-01T07:41:39.999Z</time></trkpt><trkpt lat="41.55152745594243" lon="12.76405305733546"><ele>55.0</ele><time>2026-05-01T07:41:40.999Z</time></trkpt><trkpt lat="41.551665625535584" lon="12.76429237273227"><ele>56.0</ele><time>2026-05-01T07:41:41.999Z</time></trkpt><trkpt lat="41.55182831525632" lon="12.764520995907093"><ele>56.5</ele><time>2026-05-01T07:41:42.999Z</time></trkpt><trkpt lat="41.55200683718151" lon="12.764747358553931"><ele>57.0</ele><time>2026-05-01T07:41:43.999Z</time></trkpt><trkpt lat="41.55218861021688" lon="12.764976313801263"><ele>54.5</ele><time>2026-05-01T07:41:44.999Z</time></trkpt><trkpt lat="41.55236517883902" lon="12.765208325105412"><ele>52.0</ele><time>2026-05-01T07:41:45.999Z</time></trkpt><trkpt lat="41.552539560772786" lon="12.765442171511566"><ele>52.0</ele><time>2026-05-01T07:41:46.999Z</time></trkpt><trkpt lat="41.55271735139089" lon="12.76567032069983"><ele>52.0</ele><time>2026-05-01T07:41:47.999Z</time></trkpt><trkpt lat="41.5529003755151" lon="12.765901361210446"><ele>52.0</ele><time>2026-05-01T07:41:48.999Z</time></trkpt><trkpt lat="41.55307614831649" lon="12.766135687133614"><ele>52.0</ele><time>2026-05-01T07:41:49.999Z</time></trkpt><trkpt lat="41.55325040828459" lon="12.766372629195523"><ele>52.0</ele><time>2026-05-01T07:41:50.999Z</time></trkpt><trkpt lat="41.55342648734974" lon="12.766605391904756"><ele>52.0</ele><time>2026-05-01T07:41:51.999Z</time></trkpt><trkpt lat="41.553603409783484" lon="12.766836511382673"><ele>52.0</ele><time>2026-05-01T07:41:52.999Z</time></trkpt><trkpt lat="41.55378210019248" lon="12.767066717254012"><ele>52.0</ele><time>2026-05-01T07:41:53.999Z</time></trkpt><trkpt lat="41.55395971469671" lon="12.767298133325976"><ele>52.0</ele><time>2026-05-01T07:41:54.999Z</time></trkpt><trkpt lat="41.55413734418006" lon="12.767530653511487"><ele>52.0</ele><time>2026-05-01T07:41:55.999Z</time></trkpt><trkpt lat="41.554312015269" lon="12.767764296214477"><ele>51.0</ele><time>2026-05-01T07:41:56.999Z</time></trkpt><trkpt lat="41.554487021902325" lon="12.768000136889853"><ele>50.0</ele><time>2026-05-01T07:41:57.998Z</time></trkpt><trkpt lat="41.55466343991491" lon="12.768237032883723"><ele>49.5</ele><time>2026-05-01T07:41:58.998Z</time></trkpt><trkpt lat="41.55484123734963" lon="12.768470985663214"><ele>49.0</ele><time>2026-05-01T07:41:59.998Z</time></trkpt><trkpt lat="41.555021142280836" lon="12.768706601876493"><ele>49.0</ele><time>2026-05-01T07:42:00.998Z</time></trkpt><trkpt lat="41.555201605697675" lon="12.768940934007432"><ele>49.0</ele><time>2026-05-01T07:42:01.998Z</time></trkpt><trkpt lat="41.55538435529623" lon="12.769176849758729"><ele>49.5</ele><time>2026-05-01T07:42:02.998Z</time></trkpt><trkpt lat="41.555564053015935" lon="12.769413431798553"><ele>50.0</ele><time>2026-05-01T07:42:03.998Z</time></trkpt><trkpt lat="41.55574530635352" lon="12.76965280041454"><ele>50.0</ele><time>2026-05-01T07:42:04.998Z</time></trkpt><trkpt lat="41.555925861546534" lon="12.76989129793453"><ele>50.0</ele><time>2026-05-01T07:42:05.998Z</time></trkpt><trkpt lat="41.556107280165" lon="12.770128823127264"><ele>50.0</ele><time>2026-05-01T07:42:06.998Z</time></trkpt><trkpt lat="41.55628863225294" lon="12.770365725675084"><ele>50.0</ele><time>2026-05-01T07:42:07.998Z</time></trkpt><trkpt lat="41.55646946719148" lon="12.770602429418732"><ele>50.0</ele><time>2026-05-01T07:42:08.998Z</time></trkpt><trkpt lat="41.55664985795743" lon="12.770841302136164"><ele>50.0</ele><time>2026-05-01T07:42:09.998Z</time></trkpt><trkpt lat="41.55682856195696" lon="12.771079588858024"><ele>50.0</ele><time>2026-05-01T07:42:10.998Z</time></trkpt><trkpt lat="41.5570073534743" lon="12.771317951443985"><ele>50.0</ele><time>2026-05-01T07:42:11.998Z</time></trkpt><trkpt lat="41.5571830882124" lon="12.771554704009997"><ele>50.5</ele><time>2026-05-01T07:42:12.998Z</time></trkpt><trkpt lat="41.557360944608874" lon="12.771793109021601"><ele>51.0</ele><time>2026-05-01T07:42:13.998Z</time></trkpt><trkpt lat="41.55753921233474" lon="12.772027930175408"><ele>51.0</ele><time>2026-05-01T07:42:14.998Z</time></trkpt><trkpt lat="41.55771706774458" lon="12.772261092197889"><ele>51.0</ele><time>2026-05-01T07:42:15.998Z</time></trkpt><trkpt lat="41.557895981672715" lon="12.772497915671703"><ele>52.0</ele><time>2026-05-01T07:42:16.998Z</time></trkpt><trkpt lat="41.558075484101145" lon="12.772734742364845"><ele>53.0</ele><time>2026-05-01T07:42:17.998Z</time></trkpt><trkpt lat="41.55825333409128" lon="12.772969827174713"><ele>53.0</ele><time>2026-05-01T07:42:18.998Z</time></trkpt><trkpt lat="41.558430887293184" lon="12.773206325358279"><ele>53.0</ele><time>2026-05-01T07:42:19.998Z</time></trkpt><trkpt lat="41.55860849578343" lon="12.773441717737485"><ele>53.5</ele><time>2026-05-01T07:42:20.998Z</time></trkpt><trkpt lat="41.55878533278268" lon="12.77367404914427"><ele>54.0</ele><time>2026-05-01T07:42:21.998Z</time></trkpt><trkpt lat="41.55896115453394" lon="12.773904266045403"><ele>54.0</ele><time>2026-05-01T07:42:22.998Z</time></trkpt><trkpt lat="41.55913743395455" lon="12.77413546612619"><ele>54.0</ele><time>2026-05-01T07:42:23.998Z</time></trkpt><trkpt lat="41.559313770534764" lon="12.774366959672683"><ele>55.0</ele><time>2026-05-01T07:42:25Z</time></trkpt><trkpt lat="41.559489156219804" lon="12.774600630097991"><ele>56.0</ele><time>2026-05-01T07:42:26Z</time></trkpt><trkpt lat="41.559662520628486" lon="12.774832556855548"><ele>57.0</ele><time>2026-05-01T07:42:27Z</time></trkpt><trkpt lat="41.55983584634268" lon="12.775065869837732"><ele>58.0</ele><time>2026-05-01T07:42:28Z</time></trkpt><trkpt lat="41.560011271147296" lon="12.775298396711399"><ele>58.0</ele><time>2026-05-01T07:42:29Z</time></trkpt><trkpt lat="41.560188524888986" lon="12.775523471329965"><ele>58.0</ele><time>2026-05-01T07:42:30Z</time></trkpt><trkpt lat="41.56037228042098" lon="12.775734055891535"><ele>58.5</ele><time>2026-05-01T07:42:31Z</time></trkpt><trkpt lat="41.560569829212966" lon="12.775912386370186"><ele>59.0</ele><time>2026-05-01T07:42:32Z</time></trkpt><trkpt lat="41.56077818711168" lon="12.776053384843774"><ele>59.0</ele><time>2026-05-01T07:42:33Z</time></trkpt><trkpt lat="41.56099675934242" lon="12.776154527861198"><ele>59.0</ele><time>2026-05-01T07:42:34Z</time></trkpt><trkpt lat="41.561226637476175" lon="12.776219502786164"><ele>59.5</ele><time>2026-05-01T07:42:35Z</time></trkpt><trkpt lat="41.56146898604339" lon="12.776273485266467"><ele>60.0</ele><time>2026-05-01T07:42:36Z</time></trkpt><trkpt lat="41.56171589282164" lon="12.776336548929182"><ele>60.0</ele><time>2026-05-01T07:42:37Z</time></trkpt><trkpt lat="41.56196328178038" lon="12.776408050664774"><ele>60.0</ele><time>2026-05-01T07:42:38Z</time></trkpt><trkpt lat="41.56220853613928" lon="12.776478552424518"><ele>60.0</ele><time>2026-05-01T07:42:39Z</time></trkpt><trkpt lat="41.5624551592444" lon="12.776547355647649"><ele>60.0</ele><time>2026-05-01T07:42:40Z</time></trkpt><trkpt lat="41.56270109227297" lon="12.776615140462816"><ele>60.5</ele><time>2026-05-01T07:42:41Z</time></trkpt><trkpt lat="41.56293919704346" lon="12.776684884385418"><ele>61.0</ele><time>2026-05-01T07:42:42Z</time></trkpt><trkpt lat="41.563178032822925" lon="12.776753985154444"><ele>61.0</ele><time>2026-05-01T07:42:43Z</time></trkpt><trkpt lat="41.56339686435138" lon="12.77681404544297"><ele>61.0</ele><time>2026-05-01T07:42:44Z</time></trkpt><trkpt lat="41.56360852346525" lon="12.776876690787205"><ele>61.0</ele><time>2026-05-01T07:42:45Z</time></trkpt><trkpt lat="41.563808000756936" lon="12.77693561001536"><ele>61.0</ele><time>2026-05-01T07:42:46Z</time></trkpt><trkpt lat="41.563991759823686" lon="12.776989729699432"><ele>61.0</ele><time>2026-05-01T07:42:47Z</time></trkpt><trkpt lat="41.56415903534263" lon="12.77703849387581"><ele>61.0</ele><time>2026-05-01T07:42:48Z</time></trkpt><trkpt lat="41.56431373450795" lon="12.77708386827294"><ele>61.0</ele><time>2026-05-01T07:42:49Z</time></trkpt><trkpt lat="41.56445632199549" lon="12.77712127387968"><ele>61.0</ele><time>2026-05-01T07:42:50Z</time></trkpt><trkpt lat="41.56459911508881" lon="12.777138145145289"><ele>61.0</ele><time>2026-05-01T07:42:51Z</time></trkpt><trkpt lat="41.5647311047922" lon="12.777124348467687"><ele>61.0</ele><time>2026-05-01T07:42:52Z</time></trkpt><trkpt lat="41.564846821652154" lon="12.777093886079317"><ele>61.33333333333333</ele><time>2026-05-01T07:42:53Z</time></trkpt><trkpt lat="41.56494148323643" lon="12.777059051477828"><ele>61.666666666666664</ele><time>2026-05-01T07:42:54Z</time></trkpt><trkpt lat="41.56501512621251" lon="12.777037093329236"><ele>62.0</ele><time>2026-05-01T07:42:55Z</time></trkpt><trkpt lat="41.56508227671197" lon="12.777031573101546"><ele>62.33333333333333</ele><time>2026-05-01T07:42:56Z</time></trkpt><trkpt lat="41.565159695617474" lon="12.777008580835057"><ele>62.666666666666664</ele><time>2026-05-01T07:42:57Z</time></trkpt><trkpt lat="41.56524880548326" lon="12.77705933078848"><ele>63.0</ele><time>2026-05-01T07:42:58Z</time></trkpt><trkpt lat="41.56529716785619" lon="12.777250715689787"><ele>63.0</ele><time>2026-05-01T07:42:59Z</time></trkpt><trkpt lat="41.565358509662175" lon="12.777408630535648"><ele>63.0</ele><time>2026-05-01T07:42:59.999Z</time></trkpt><trkpt lat="41.5654258798753" lon="12.777571555138229"><ele>63.0</ele><time>2026-05-01T07:43:00.999Z</time></trkpt><trkpt lat="41.56550305729272" lon="12.777739159969014"><ele>63.0</ele><time>2026-05-01T07:43:01.999Z</time></trkpt><trkpt lat="41.565590400506764" lon="12.777925226822585"><ele>62.33333333333333</ele><time>2026-05-01T07:43:02.999Z</time></trkpt><trkpt lat="41.56568140419939" lon="12.778110668370052"><ele>61.666666666666664</ele><time>2026-05-01T07:43:03.999Z</time></trkpt><trkpt lat="41.56577520555895" lon="12.778284939555345"><ele>61.0</ele><time>2026-05-01T07:43:04.999Z</time></trkpt><trkpt lat="41.565868969217256" lon="12.778451727052037"><ele>60.75</ele><time>2026-05-01T07:43:05.999Z</time></trkpt><trkpt lat="41.5659600152264" lon="12.77861272642203"><ele>60.5</ele><time>2026-05-01T07:43:06.999Z</time></trkpt><trkpt lat="41.566049788668934" lon="12.778776349744529"><ele>60.25</ele><time>2026-05-01T07:43:07.999Z</time></trkpt><trkpt lat="41.566134099372064" lon="12.778933724195246"><ele>60.0</ele><time>2026-05-01T07:43:08.999Z</time></trkpt><trkpt lat="41.56621106522657" lon="12.779095052957137"><ele>60.66666666666667</ele><time>2026-05-01T07:43:09.999Z</time></trkpt><trkpt lat="41.56627519993239" lon="12.779269174837918"><ele>61.333333333333336</ele><time>2026-05-01T07:43:10.999Z</time></trkpt><trkpt lat="41.56632757023986" lon="12.779448743452113"><ele>62.0</ele><time>2026-05-01T07:43:11.999Z</time></trkpt><trkpt lat="41.56635467192284" lon="12.7796638453863"><ele>62.0</ele><time>2026-05-01T07:43:12.999Z</time></trkpt><trkpt lat="41.56639367641613" lon="12.77989820547383"><ele>62.0</ele><time>2026-05-01T07:43:13.999Z</time></trkpt><trkpt lat="41.56644830136923" lon="12.780125705994292"><ele>62.0</ele><time>2026-05-01T07:43:14.999Z</time></trkpt><trkpt lat="41.566492310374926" lon="12.78034371315789"><ele>61.333333333333336</ele><time>2026-05-01T07:43:15.999Z</time></trkpt><trkpt lat="41.56654865881799" lon="12.780540334488395"><ele>60.66666666666667</ele><time>2026-05-01T07:43:16.999Z</time></trkpt><trkpt lat="41.56661480046639" lon="12.780720490891087"><ele>60.0</ele><time>2026-05-01T07:43:17.999Z</time></trkpt><trkpt lat="41.566695904869" lon="12.780884555175193"><ele>59.0</ele><time>2026-05-01T07:43:18.999Z</time></trkpt><trkpt lat="41.56679374295026" lon="12.78104732024971"><ele>58.0</ele><time>2026-05-01T07:43:19.999Z</time></trkpt><trkpt lat="41.56691392849441" lon="12.781192985002317"><ele>57.0</ele><time>2026-05-01T07:43:20.999Z</time></trkpt><trkpt lat="41.56705630793425" lon="12.781322064015464"><ele>57.0</ele><time>2026-05-01T07:43:21.999Z</time></trkpt><trkpt lat="41.56721960481284" lon="12.781440269632773"><ele>57.0</ele><time>2026-05-01T07:43:22.999Z</time></trkpt><trkpt lat="41.56738001278431" lon="12.781602371232538"><ele>57.0</ele><time>2026-05-01T07:43:23.999Z</time></trkpt><trkpt lat="41.56754673351175" lon="12.781738303244895"><ele>57.0</ele><time>2026-05-01T07:43:24.999Z</time></trkpt><trkpt lat="41.5677232856936" lon="12.78186117837631"><ele>57.0</ele><time>2026-05-01T07:43:25.999Z</time></trkpt><trkpt lat="41.56789388988416" lon="12.781998452675696"><ele>57.0</ele><time>2026-05-01T07:43:26.999Z</time></trkpt><trkpt lat="41.5680695828581" lon="12.782134935336689"><ele>58.0</ele><time>2026-05-01T07:43:27.999Z</time></trkpt><trkpt lat="41.56824584354653" lon="12.782269889718961"><ele>59.0</ele><time>2026-05-01T07:43:28.999Z</time></trkpt><trkpt lat="41.56842901646757" lon="12.782406881934063"><ele>60.0</ele><time>2026-05-01T07:43:29.999Z</time></trkpt><trkpt lat="41.568611176449636" lon="12.782544492690885"><ele>60.33333333333333</ele><time>2026-05-01T07:43:30.999Z</time></trkpt><trkpt lat="41.56879908970805" lon="12.782686811734797"><ele>60.666666666666664</ele><time>2026-05-01T07:43:31.999Z</time></trkpt><trkpt lat="41.568984333042685" lon="12.78282592737059"><ele>61.0</ele><time>2026-05-01T07:43:32.999Z</time></trkpt><trkpt lat="41.56917931489133" lon="12.782971011902758"><ele>61.0</ele><time>2026-05-01T07:43:33.999Z</time></trkpt><trkpt lat="41.56937505240143" lon="12.78311675072721"><ele>61.0</ele><time>2026-05-01T07:43:34.999Z</time></trkpt><trkpt lat="41.56956763567823" lon="12.78326174451927"><ele>61.0</ele><time>2026-05-01T07:43:35.999Z</time></trkpt><trkpt lat="41.56976201427829" lon="12.783407407588221"><ele>62.0</ele><time>2026-05-01T07:43:36.999Z</time></trkpt><trkpt lat="41.569957082168145" lon="12.783552753283033"><ele>63.0</ele><time>2026-05-01T07:43:37.999Z</time></trkpt><trkpt lat="41.57015318501037" lon="12.783700600084908"><ele>64.0</ele><time>2026-05-01T07:43:38.999Z</time></trkpt><trkpt lat="41.57034429738038" lon="12.783849331020503"><ele>64.0</ele><time>2026-05-01T07:43:39.999Z</time></trkpt><trkpt lat="41.570537390958165" lon="12.783997678186326"><ele>64.0</ele><time>2026-05-01T07:43:40.999Z</time></trkpt><trkpt lat="41.57072973308397" lon="12.784141129024198"><ele>64.0</ele><time>2026-05-01T07:43:41.999Z</time></trkpt><trkpt lat="41.57092382136944" lon="12.784281086789482"><ele>64.33333333333333</ele><time>2026-05-01T07:43:42.999Z</time></trkpt><trkpt lat="41.57111636980448" lon="12.78441934352889"><ele>64.66666666666667</ele><time>2026-05-01T07:43:43.999Z</time></trkpt><trkpt lat="41.57131119439438" lon="12.784558828287514"><ele>65.0</ele><time>2026-05-01T07:43:44.999Z</time></trkpt><trkpt lat="41.57150026983138" lon="12.784697350350239"><ele>66.33333333333334</ele><time>2026-05-01T07:43:45.999Z</time></trkpt><trkpt lat="41.57168875413961" lon="12.78483930423461"><ele>67.66666666666667</ele><time>2026-05-01T07:43:46.999Z</time></trkpt><trkpt lat="41.571866638281406" lon="12.784974936248695"><ele>69.0</ele><time>2026-05-01T07:43:47.999Z</time></trkpt><trkpt lat="41.57203744488656" lon="12.785102887949035"><ele>69.0</ele><time>2026-05-01T07:43:48.999Z</time></trkpt><trkpt lat="41.572202594844015" lon="12.785244527751072"><ele>69.0</ele><time>2026-05-01T07:43:49.999Z</time></trkpt><trkpt lat="41.572371982868844" lon="12.785409533541614"><ele>69.0</ele><time>2026-05-01T07:43:50.999Z</time></trkpt><trkpt lat="41.57253873533379" lon="12.785593380436188"><ele>69.0</ele><time>2026-05-01T07:43:51.999Z</time></trkpt><trkpt lat="41.57270777205258" lon="12.785780978856154"><ele>69.0</ele><time>2026-05-01T07:43:52.999Z</time></trkpt><trkpt lat="41.57287655852372" lon="12.785982839361129"><ele>69.0</ele><time>2026-05-01T07:43:53.999Z</time></trkpt><trkpt lat="41.573047492628206" lon="12.786184294927205"><ele>67.0</ele><time>2026-05-01T07:43:54.999Z</time></trkpt><trkpt lat="41.57321892851767" lon="12.786382400247637"><ele>65.0</ele><time>2026-05-01T07:43:55.999Z</time></trkpt><trkpt lat="41.5733928435318" lon="12.78657995478499"><ele>65.0</ele><time>2026-05-01T07:43:56.999Z</time></trkpt><trkpt lat="41.573567075364295" lon="12.786777051271512"><ele>65.0</ele><time>2026-05-01T07:43:57.999Z</time></trkpt><trkpt lat="41.57373985507128" lon="12.786972703453332"><ele>64.5</ele><time>2026-05-01T07:43:58.999Z</time></trkpt><trkpt lat="41.57391358951888" lon="12.787168349829447"><ele>64.0</ele><time>2026-05-01T07:43:59.999Z</time></trkpt><trkpt lat="41.574088522276675" lon="12.787364068927225"><ele>64.0</ele><time>2026-05-01T07:44:00.999Z</time></trkpt><trkpt lat="41.57426402969859" lon="12.787561099953312"><ele>64.0</ele><time>2026-05-01T07:44:01.999Z</time></trkpt><trkpt lat="41.57444046284266" lon="12.787757374793943"><ele>63.0</ele><time>2026-05-01T07:44:02.999Z</time></trkpt><trkpt lat="41.57461740814041" lon="12.787951707597488"><ele>62.0</ele><time>2026-05-01T07:44:03.999Z</time></trkpt><trkpt lat="41.57479243196186" lon="12.7881441270668"><ele>62.0</ele><time>2026-05-01T07:44:04.999Z</time></trkpt><trkpt lat="41.57496622436036" lon="12.788339858961079"><ele>62.0</ele><time>2026-05-01T07:44:05.999Z</time></trkpt><trkpt lat="41.5751365016843" lon="12.788537036459427"><ele>61.66666666666667</ele><time>2026-05-01T07:44:06.998Z</time></trkpt><trkpt lat="41.57530506145112" lon="12.788735535030934"><ele>61.33333333333333</ele><time>2026-05-01T07:44:07.998Z</time></trkpt><trkpt lat="41.57547127661338" lon="12.788937912167263"><ele>61.0</ele><time>2026-05-01T07:44:08.998Z</time></trkpt><trkpt lat="41.575626144391784" lon="12.789155771180706"><ele>61.0</ele><time>2026-05-01T07:44:09.998Z</time></trkpt><trkpt lat="41.57577315560043" lon="12.789391630602935"><ele>61.0</ele><time>2026-05-01T07:44:10.998Z</time></trkpt><trkpt lat="41.57591447130368" lon="12.789639096154106"><ele>61.0</ele><time>2026-05-01T07:44:11.998Z</time></trkpt><trkpt lat="41.57605737929623" lon="12.789886836178708"><ele>61.0</ele><time>2026-05-01T07:44:12.998Z</time></trkpt><trkpt lat="41.57620483495262" lon="12.790130945430606"><ele>61.5</ele><time>2026-05-01T07:44:13.998Z</time></trkpt><trkpt lat="41.57635241270377" lon="12.790376008366946"><ele>62.0</ele><time>2026-05-01T07:44:14.998Z</time></trkpt><trkpt lat="41.576499740155604" lon="12.790620176975752"><ele>62.0</ele><time>2026-05-01T07:44:15.998Z</time></trkpt><trkpt lat="41.57664539153257" lon="12.790866912574135"><ele>62.0</ele><time>2026-05-01T07:44:16.998Z</time></trkpt><trkpt lat="41.576793394294334" lon="12.791113292704363"><ele>61.5</ele><time>2026-05-01T07:44:17.998Z</time></trkpt><trkpt lat="41.576943727585125" lon="12.791358640712556"><ele>61.0</ele><time>2026-05-01T07:44:18.998Z</time></trkpt><trkpt lat="41.57709402778815" lon="12.791604573726953"><ele>62.0</ele><time>2026-05-01T07:44:19.998Z</time></trkpt><trkpt lat="41.57724477826657" lon="12.791851690740469"><ele>63.0</ele><time>2026-05-01T07:44:20.998Z</time></trkpt><trkpt lat="41.57739399904629" lon="12.792101633710796"><ele>63.0</ele><time>2026-05-01T07:44:21.998Z</time></trkpt><trkpt lat="41.577542468587914" lon="12.792350730705387"><ele>63.0</ele><time>2026-05-01T07:44:22.998Z</time></trkpt><trkpt lat="41.5776912487409" lon="12.792600093864444"><ele>63.0</ele><time>2026-05-01T07:44:23.998Z</time></trkpt><trkpt lat="41.57783915175654" lon="12.792844874861533"><ele>63.0</ele><time>2026-05-01T07:44:24.998Z</time></trkpt><trkpt lat="41.577985336682694" lon="12.793084324948634"><ele>63.5</ele><time>2026-05-01T07:44:25.998Z</time></trkpt><trkpt lat="41.578130750758234" lon="12.793322017649418"><ele>64.0</ele><time>2026-05-01T07:44:26.998Z</time></trkpt><trkpt lat="41.57827571203643" lon="12.79356006023006"><ele>64.0</ele><time>2026-05-01T07:44:27.998Z</time></trkpt><trkpt lat="41.578419682816154" lon="12.793794830000795"><ele>64.0</ele><time>2026-05-01T07:44:28.998Z</time></trkpt><trkpt lat="41.57855607854679" lon="12.794019626877322"><ele>64.0</ele><time>2026-05-01T07:44:30Z</time></trkpt><trkpt lat="41.57868228427897" lon="12.794229167433889"><ele>63.33333333333333</ele><time>2026-05-01T07:44:31Z</time></trkpt><trkpt lat="41.578801917545995" lon="12.794428365254987"><ele>62.66666666666667</ele><time>2026-05-01T07:44:32Z</time></trkpt><trkpt lat="41.57891984007756" lon="12.794625057645344"><ele>62.0</ele><time>2026-05-01T07:44:33Z</time></trkpt><trkpt lat="41.57903185157285" lon="12.794814361646614"><ele>62.0</ele><time>2026-05-01T07:44:34Z</time></trkpt><trkpt lat="41.57914003010899" lon="12.794996762811992"><ele>62.0</ele><time>2026-05-01T07:44:35Z</time></trkpt><trkpt lat="41.579240179207055" lon="12.795167490667417"><ele>62.0</ele><time>2026-05-01T07:44:36Z</time></trkpt><trkpt lat="41.579333101865856" lon="12.795326576746344"><ele>62.75</ele><time>2026-05-01T07:44:37Z</time></trkpt><trkpt lat="41.57942193812163" lon="12.79548039708733"><ele>63.5</ele><time>2026-05-01T07:44:38Z</time></trkpt><trkpt lat="41.579503205236946" lon="12.795632643409396"><ele>64.25</ele><time>2026-05-01T07:44:39Z</time></trkpt><trkpt lat="41.57957069164284" lon="12.795795945057126"><ele>65.0</ele><time>2026-05-01T07:44:40Z</time></trkpt><trkpt lat="41.57960934467397" lon="12.79596353488544"><ele>65.0</ele><time>2026-05-01T07:44:41Z</time></trkpt><trkpt lat="41.579623101649496" lon="12.796146876589981"><ele>65.0</ele><time>2026-05-01T07:44:42Z</time></trkpt><trkpt lat="41.579614863570356" lon="12.796334415537409"><ele>65.0</ele><time>2026-05-01T07:44:43Z</time></trkpt><trkpt lat="41.57960088671759" lon="12.796509355786098"><ele>65.0</ele><time>2026-05-01T07:44:44Z</time></trkpt><trkpt lat="41.5795999816061" lon="12.796671334899107"><ele>65.0</ele><time>2026-05-01T07:44:45Z</time></trkpt><trkpt lat="41.57962338746947" lon="12.796831370338538"><ele>65.0</ele><time>2026-05-01T07:44:46Z</time></trkpt><trkpt lat="41.57965715633897" lon="12.796963573364087"><ele>65.0</ele><time>2026-05-01T07:44:47Z</time></trkpt><trkpt lat="41.57969084514533" lon="12.797058733594001"><ele>65.0</ele><time>2026-05-01T07:44:48Z</time></trkpt><trkpt lat="41.579731434036155" lon="12.797154389329059"><ele>65.0</ele><time>2026-05-01T07:44:49Z</time></trkpt><trkpt lat="41.57979361828364" lon="12.797286351459954"><ele>65.25</ele><time>2026-05-01T07:44:50Z</time></trkpt><trkpt lat="41.57986823680885" lon="12.797441964047096"><ele>65.5</ele><time>2026-05-01T07:44:51Z</time></trkpt><trkpt lat="41.5799513568337" lon="12.797592644389983"><ele>65.75</ele><time>2026-05-01T07:44:52Z</time></trkpt><trkpt lat="41.5800503525557" lon="12.797751577014353"><ele>66.0</ele><time>2026-05-01T07:44:53Z</time></trkpt><trkpt lat="41.58015413974352" lon="12.797924873926712"><ele>66.33333333333333</ele><time>2026-05-01T07:44:54Z</time></trkpt><trkpt lat="41.5802472904479" lon="12.798113541688181"><ele>66.66666666666666</ele><time>2026-05-01T07:44:55Z</time></trkpt><trkpt lat="41.58032770743865" lon="12.79832591922764"><ele>67.0</ele><time>2026-05-01T07:44:56Z</time></trkpt><trkpt lat="41.58039201567234" lon="12.798561293795935"><ele>67.33333333333333</ele><time>2026-05-01T07:44:57Z</time></trkpt><trkpt lat="41.58043876487781" lon="12.79881395956327"><ele>67.66666666666667</ele><time>2026-05-01T07:44:58Z</time></trkpt><trkpt lat="41.58047464819987" lon="12.799066105436372"><ele>68.0</ele><time>2026-05-01T07:44:59Z</time></trkpt><trkpt lat="41.58052285981258" lon="12.799318840426281"><ele>68.66666666666667</ele><time>2026-05-01T07:45:00Z</time></trkpt><trkpt lat="41.58059172162596" lon="12.799571250730844"><ele>69.33333333333333</ele><time>2026-05-01T07:45:01Z</time></trkpt><trkpt lat="41.58068115745242" lon="12.799818052829586"><ele>70.0</ele><time>2026-05-01T07:45:02Z</time></trkpt><trkpt lat="41.58079003715687" lon="12.800067237851955"><ele>70.33333333333333</ele><time>2026-05-01T07:45:03Z</time></trkpt><trkpt lat="41.580909045865745" lon="12.800314514621476"><ele>70.66666666666667</ele><time>2026-05-01T07:45:04Z</time></trkpt><trkpt lat="41.5810332721062" lon="12.800566427341016"><ele>71.0</ele><time>2026-05-01T07:45:04.999Z</time></trkpt><trkpt lat="41.581158580432366" lon="12.800818726695061"><ele>70.5</ele><time>2026-05-01T07:45:05.999Z</time></trkpt><trkpt lat="41.58128415119459" lon="12.80107375221203"><ele>70.0</ele><time>2026-05-01T07:45:06.999Z</time></trkpt><trkpt lat="41.5814128214721" lon="12.801334361733351"><ele>70.0</ele><time>2026-05-01T07:45:07.999Z</time></trkpt><trkpt lat="41.58154238616873" lon="12.801594668567109"><ele>70.0</ele><time>2026-05-01T07:45:08.999Z</time></trkpt><trkpt lat="41.581672891209394" lon="12.80185614420747"><ele>70.5</ele><time>2026-05-01T07:45:09.999Z</time></trkpt><trkpt lat="41.58180423096532" lon="12.802121023335006"><ele>71.0</ele><time>2026-05-01T07:45:10.999Z</time></trkpt><trkpt lat="41.58193515967564" lon="12.80238548559513"><ele>70.5</ele><time>2026-05-01T07:45:11.999Z</time></trkpt><trkpt lat="41.58206881661602" lon="12.8026529448825"><ele>70.0</ele><time>2026-05-01T07:45:12.999Z</time></trkpt><trkpt lat="41.582199259618335" lon="12.802917333210763"><ele>71.0</ele><time>2026-05-01T07:45:13.999Z</time></trkpt><trkpt lat="41.582327312257924" lon="12.803173552789413"><ele>72.0</ele><time>2026-05-01T07:45:14.999Z</time></trkpt><trkpt lat="41.58245550222972" lon="12.803422699940116"><ele>73.0</ele><time>2026-05-01T07:45:15.999Z</time></trkpt><trkpt lat="41.582588433931406" lon="12.803675037651717"><ele>74.0</ele><time>2026-05-01T07:45:16.999Z</time></trkpt><trkpt lat="41.58270936140771" lon="12.803945569577612"><ele>74.0</ele><time>2026-05-01T07:45:17.999Z</time></trkpt><trkpt lat="41.58284332413331" lon="12.804214821913657"><ele>74.0</ele><time>2026-05-01T07:45:18.999Z</time></trkpt><trkpt lat="41.582975001748075" lon="12.80447948145937"><ele>74.0</ele><time>2026-05-01T07:45:19.999Z</time></trkpt><trkpt lat="41.58311408144123" lon="12.804736713008651"><ele>74.0</ele><time>2026-05-01T07:45:20.999Z</time></trkpt><trkpt lat="41.58323697870434" lon="12.805008403025964"><ele>75.5</ele><time>2026-05-01T07:45:21.999Z</time></trkpt><trkpt lat="41.58336528586496" lon="12.805274288460545"><ele>77.0</ele><time>2026-05-01T07:45:22.999Z</time></trkpt><trkpt lat="41.58349543976691" lon="12.805531579125313"><ele>77.0</ele><time>2026-05-01T07:45:23.999Z</time></trkpt><trkpt lat="41.58362438650517" lon="12.805787518923815"><ele>77.0</ele><time>2026-05-01T07:45:24.999Z</time></trkpt><trkpt lat="41.583748755437945" lon="12.806038921446344"><ele>77.33333333333334</ele><time>2026-05-01T07:45:25.999Z</time></trkpt><trkpt lat="41.58387269717293" lon="12.806286693916746"><ele>77.66666666666667</ele><time>2026-05-01T07:45:26.999Z</time></trkpt><trkpt lat="41.58398167674492" lon="12.806530277956576"><ele>78.0</ele><time>2026-05-01T07:45:27.999Z</time></trkpt><trkpt lat="41.584069682764785" lon="12.806784604135268"><ele>77.33333333333333</ele><time>2026-05-01T07:45:28.999Z</time></trkpt><trkpt lat="41.58413423427215" lon="12.807062211248128"><ele>76.66666666666666</ele><time>2026-05-01T07:45:29.999Z</time></trkpt><trkpt lat="41.584181428203166" lon="12.807357435481745"><ele>76.0</ele><time>2026-05-01T07:45:30.999Z</time></trkpt><trkpt lat="41.58422391828717" lon="12.807659580285229"><ele>75.0</ele><time>2026-05-01T07:45:31.999Z</time></trkpt><trkpt lat="41.584268190020914" lon="12.807963658076197"><ele>74.0</ele><time>2026-05-01T07:45:32.999Z</time></trkpt><trkpt lat="41.58431643898815" lon="12.808276009906773"><ele>73.5</ele><time>2026-05-01T07:45:33.999Z</time></trkpt><trkpt lat="41.584369491321596" lon="12.808591091423565"><ele>73.0</ele><time>2026-05-01T07:45:34.999Z</time></trkpt><trkpt lat="41.584422266827964" lon="12.808912934035208"><ele>73.0</ele><time>2026-05-01T07:45:35.999Z</time></trkpt><trkpt lat="41.58447488836007" lon="12.809239289928948"><ele>73.0</ele><time>2026-05-01T07:45:36.999Z</time></trkpt><trkpt lat="41.58452665847476" lon="12.809563555484928"><ele>74.5</ele><time>2026-05-01T07:45:37.999Z</time></trkpt><trkpt lat="41.584578524936" lon="12.809890447151252"><ele>76.0</ele><time>2026-05-01T07:45:38.999Z</time></trkpt><trkpt lat="41.58462966650943" lon="12.81022150533569"><ele>77.0</ele><time>2026-05-01T07:45:39.999Z</time></trkpt><trkpt lat="41.584678665765914" lon="12.810551515322512"><ele>78.0</ele><time>2026-05-01T07:45:40.999Z</time></trkpt><trkpt lat="41.584729174118635" lon="12.810882945959259"><ele>77.5</ele><time>2026-05-01T07:45:41.999Z</time></trkpt><trkpt lat="41.58477663541739" lon="12.81121252079179"><ele>77.0</ele><time>2026-05-01T07:45:42.999Z</time></trkpt><trkpt lat="41.58482241554441" lon="12.81154327164735"><ele>75.0</ele><time>2026-05-01T07:45:43.999Z</time></trkpt><trkpt lat="41.58486704142721" lon="12.811875407111911"><ele>73.0</ele><time>2026-05-01T07:45:44.999Z</time></trkpt><trkpt lat="41.584916370125846" lon="12.812212515328977"><ele>73.0</ele><time>2026-05-01T07:45:45.999Z</time></trkpt><trkpt lat="41.58496498885773" lon="12.812549597774721"><ele>73.0</ele><time>2026-05-01T07:45:46.999Z</time></trkpt><trkpt lat="41.585015886022276" lon="12.812888203745452"><ele>71.5</ele><time>2026-05-01T07:45:47.999Z</time></trkpt><trkpt lat="41.585065725093784" lon="12.81321920071157"><ele>70.0</ele><time>2026-05-01T07:45:48.999Z</time></trkpt><trkpt lat="41.58511412971634" lon="12.813539550458689"><ele>69.5</ele><time>2026-05-01T07:45:49.999Z</time></trkpt><trkpt lat="41.58516208263091" lon="12.81385718365525"><ele>69.0</ele><time>2026-05-01T07:45:50.999Z</time></trkpt><trkpt lat="41.585210849185785" lon="12.814170205147187"><ele>70.0</ele><time>2026-05-01T07:45:51.999Z</time></trkpt><trkpt lat="41.585257227878174" lon="12.814471822833461"><ele>71.0</ele><time>2026-05-01T07:45:52.999Z</time></trkpt><trkpt lat="41.585300937928665" lon="12.81475682631482"><ele>72.0</ele><time>2026-05-01T07:45:53.999Z</time></trkpt><trkpt lat="41.58534147488003" lon="12.815023088823953"><ele>74.0</ele><time>2026-05-01T07:45:54.999Z</time></trkpt><trkpt lat="41.585382543575086" lon="12.815284060146285"><ele>76.0</ele><time>2026-05-01T07:45:55.999Z</time></trkpt><trkpt lat="41.58542656041171" lon="12.815555139280612"><ele>78.0</ele><time>2026-05-01T07:45:56.999Z</time></trkpt><trkpt lat="41.58546943674957" lon="12.815831390119554"><ele>77.66666666666667</ele><time>2026-05-01T07:45:57.999Z</time></trkpt><trkpt lat="41.58551185020113" lon="12.81611029422713"><ele>77.33333333333334</ele><time>2026-05-01T07:45:58.999Z</time></trkpt><trkpt lat="41.58555167251414" lon="12.816388135766182"><ele>77.0</ele><time>2026-05-01T07:45:59.999Z</time></trkpt><trkpt lat="41.585592382557884" lon="12.816658205226714"><ele>76.66666666666667</ele><time>2026-05-01T07:46:00.999Z</time></trkpt><trkpt lat="41.58563201077167" lon="12.816933768341737"><ele>76.33333333333333</ele><time>2026-05-01T07:46:01.999Z</time></trkpt><trkpt lat="41.585670819252094" lon="12.817205378801198"><ele>76.0</ele><time>2026-05-01T07:46:02.999Z</time></trkpt><trkpt lat="41.58571068846813" lon="12.817467295953122"><ele>75.0</ele><time>2026-05-01T07:46:03.999Z</time></trkpt><trkpt lat="41.58575500403336" lon="12.817730929739826"><ele>74.0</ele><time>2026-05-01T07:46:04.999Z</time></trkpt><trkpt lat="41.58579699664079" lon="12.817982945586781"><ele>73.0</ele><time>2026-05-01T07:46:05.999Z</time></trkpt><trkpt lat="41.585836730623534" lon="12.81822783972428"><ele>73.0</ele><time>2026-05-01T07:46:06.999Z</time></trkpt><trkpt lat="41.58587412578813" lon="12.818453987469809"><ele>73.0</ele><time>2026-05-01T07:46:07.999Z</time></trkpt><trkpt lat="41.585902056039366" lon="12.81863930877078"><ele>73.0</ele><time>2026-05-01T07:46:08.999Z</time></trkpt><trkpt lat="41.585928177157655" lon="12.818794091078983"><ele>73.0</ele><time>2026-05-01T07:46:09.999Z</time></trkpt><trkpt lat="41.58595837686121" lon="12.81893527518353"><ele>73.0</ele><time>2026-05-01T07:46:10.998Z</time></trkpt><trkpt lat="41.58598644691537" lon="12.819061410948308"><ele>73.0</ele><time>2026-05-01T07:46:11.998Z</time></trkpt><trkpt lat="41.58601030625258" lon="12.819207582675116"><ele>73.0</ele><time>2026-05-01T07:46:12.998Z</time></trkpt><trkpt lat="41.58603151679182" lon="12.819384527391737"><ele>73.0</ele><time>2026-05-01T07:46:13.998Z</time></trkpt><trkpt lat="41.5860551407179" lon="12.819580047696384"><ele>73.33333333333333</ele><time>2026-05-01T07:46:14.998Z</time></trkpt><trkpt lat="41.58608825863224" lon="12.819787690848262"><ele>73.66666666666667</ele><time>2026-05-01T07:46:15.998Z</time></trkpt><trkpt lat="41.58612532897173" lon="12.819998780391737"><ele>74.0</ele><time>2026-05-01T07:46:16.998Z</time></trkpt><trkpt lat="41.586161197558894" lon="12.820222219916479"><ele>73.75</ele><time>2026-05-01T07:46:17.998Z</time></trkpt><trkpt lat="41.58619140108539" lon="12.820423555819218"><ele>73.5</ele><time>2026-05-01T07:46:18.998Z</time></trkpt><trkpt lat="41.58621716371024" lon="12.820608686306702"><ele>73.25</ele><time>2026-05-01T07:46:19.998Z</time></trkpt><trkpt lat="41.58624057005599" lon="12.820791160858432"><ele>73.0</ele><time>2026-05-01T07:46:20.998Z</time></trkpt><trkpt lat="41.58626332902873" lon="12.820992591318666"><ele>73.0</ele><time>2026-05-01T07:46:21.998Z</time></trkpt><trkpt lat="41.58628951757962" lon="12.821205560886819"><ele>73.0</ele><time>2026-05-01T07:46:22.998Z</time></trkpt><trkpt lat="41.586318071741346" lon="12.821432136973952"><ele>73.0</ele><time>2026-05-01T07:46:23.998Z</time></trkpt><trkpt lat="41.5863460232997" lon="12.82166482454056"><ele>72.33333333333333</ele><time>2026-05-01T07:46:24.998Z</time></trkpt><trkpt lat="41.58637537671004" lon="12.821897827698034"><ele>71.66666666666667</ele><time>2026-05-01T07:46:25.998Z</time></trkpt><trkpt lat="41.58639880084613" lon="12.8221057078217"><ele>71.0</ele><time>2026-05-01T07:46:26.998Z</time></trkpt><trkpt lat="41.58642133200181" lon="12.822283001679077"><ele>71.0</ele><time>2026-05-01T07:46:27.998Z</time></trkpt><trkpt lat="41.58644409372235" lon="12.822450191793164"><ele>71.0</ele><time>2026-05-01T07:46:28.998Z</time></trkpt><trkpt lat="41.58646125387482" lon="12.822617240467808"><ele>71.0</ele><time>2026-05-01T07:46:29.998Z</time></trkpt><trkpt lat="41.586482384888804" lon="12.822788386600523"><ele>71.0</ele><time>2026-05-01T07:46:30.998Z</time></trkpt><trkpt lat="41.5865080489918" lon="12.822967896562249"><ele>70.75</ele><time>2026-05-01T07:46:31.998Z</time></trkpt><trkpt lat="41.58654121221759" lon="12.823152789333768"><ele>70.5</ele><time>2026-05-01T07:46:32.998Z</time></trkpt><trkpt lat="41.5865810651094" lon="12.823341209499452"><ele>70.25</ele><time>2026-05-01T07:46:33.998Z</time></trkpt><trkpt lat="41.58661806829318" lon="12.823520871205124"><ele>70.0</ele><time>2026-05-01T07:46:34.998Z</time></trkpt><trkpt lat="41.5866512823205" lon="12.823685510587568"><ele>70.0</ele><time>2026-05-01T07:46:36Z</time></trkpt><trkpt lat="41.586680714501775" lon="12.823850649004411"><ele>70.0</ele><time>2026-05-01T07:46:37Z</time></trkpt><trkpt lat="41.586705674623374" lon="12.82401214023457"><ele>70.0</ele><time>2026-05-01T07:46:38Z</time></trkpt><trkpt lat="41.58672782172636" lon="12.824152978882378"><ele>70.0</ele><time>2026-05-01T07:46:39Z</time></trkpt><trkpt lat="41.58674956306475" lon="12.824281847871124"><ele>70.16666666666666</ele><time>2026-05-01T07:46:40Z</time></trkpt><trkpt lat="41.58676985435918" lon="12.824394861263219"><ele>70.33333333333333</ele><time>2026-05-01T07:46:41Z</time></trkpt><trkpt lat="41.586790834202006" lon="12.824505590405902"><ele>70.5</ele><time>2026-05-01T07:46:42Z</time></trkpt><trkpt lat="41.58680929241358" lon="12.824603235917655"><ele>70.66666666666667</ele><time>2026-05-01T07:46:43Z</time></trkpt><trkpt lat="41.58683725364525" lon="12.824713169936741"><ele>70.83333333333334</ele><time>2026-05-01T07:46:45Z</time></trkpt><trkpt lat="41.58684973454322" lon="12.824801481921298"><ele>71.0</ele><time>2026-05-01T07:47:05Z</time></trkpt><trkpt lat="41.586913448691675" lon="12.824913008213786"><ele>71.0</ele><time>2026-05-01T07:47:08Z</time></trkpt><trkpt lat="41.58698453070646" lon="12.824932426864633"><ele>71.0</ele><time>2026-05-01T07:47:08.999Z</time></trkpt><trkpt lat="41.58705916217928" lon="12.824941154227915"><ele>71.0</ele><time>2026-05-01T07:47:09.999Z</time></trkpt><trkpt lat="41.58714407354232" lon="12.824961695753126"><ele>71.0</ele><time>2026-05-01T07:47:10.999Z</time></trkpt><trkpt lat="41.58722817626744" lon="12.824998934883022"><ele>71.0</ele><time>2026-05-01T07:47:11.999Z</time></trkpt><trkpt lat="41.587316855110174" lon="12.825052481056563"><ele>71.0</ele><time>2026-05-01T07:47:12.999Z</time></trkpt><trkpt lat="41.587408640825636" lon="12.82511301902917"><ele>71.39999999999999</ele><time>2026-05-01T07:47:13.999Z</time></trkpt><trkpt lat="41.58749730803745" lon="12.825182260322253"><ele>71.8</ele><time>2026-05-01T07:47:14.999Z</time></trkpt><trkpt lat="41.58757758367676" lon="12.82523872398019"><ele>72.19999999999999</ele><time>2026-05-01T07:47:15.999Z</time></trkpt><trkpt lat="41.58767122462412" lon="12.825299067309981"><ele>72.6</ele><time>2026-05-01T07:47:16.999Z</time></trkpt><trkpt lat="41.587737204977046" lon="12.825371194700516"><ele>73.0</ele><time>2026-05-01T07:47:17.999Z</time></trkpt><trkpt lat="41.58781472901369" lon="12.825469032113608"><ele>73.4</ele><time>2026-05-01T07:47:18.999Z</time></trkpt><trkpt lat="41.58789108106753" lon="12.825590088591177"><ele>73.8</ele><time>2026-05-01T07:47:19.999Z</time></trkpt><trkpt lat="41.58795434857446" lon="12.825704808270228"><ele>74.2</ele><time>2026-05-01T07:47:20.999Z</time></trkpt><trkpt lat="41.588001085620725" lon="12.82582320717787"><ele>74.6</ele><time>2026-05-01T07:47:21.999Z</time></trkpt><trkpt lat="41.588037171422" lon="12.825944881108878"><ele>75.0</ele><time>2026-05-01T07:47:22.999Z</time></trkpt><trkpt lat="41.58806672483681" lon="12.826079091527024"><ele>75.0</ele><time>2026-05-01T07:47:23.999Z</time></trkpt><trkpt lat="41.58809780056215" lon="12.826225502644462"><ele>75.0</ele><time>2026-05-01T07:47:24.999Z</time></trkpt><trkpt lat="41.58813216671704" lon="12.8263854508263"><ele>75.0</ele><time>2026-05-01T07:47:25.999Z</time></trkpt><trkpt lat="41.58817233564601" lon="12.826548261044746"><ele>75.0</ele><time>2026-05-01T07:47:26.999Z</time></trkpt><trkpt lat="41.58821588118941" lon="12.826707008556085"><ele>75.25</ele><time>2026-05-01T07:47:27.999Z</time></trkpt><trkpt lat="41.58826383143315" lon="12.82686121189624"><ele>75.5</ele><time>2026-05-01T07:47:28.999Z</time></trkpt><trkpt lat="41.58831961566738" lon="12.827011431297388"><ele>75.75</ele><time>2026-05-01T07:47:29.999Z</time></trkpt><trkpt lat="41.58838253580364" lon="12.827153493066367"><ele>76.0</ele><time>2026-05-01T07:47:30.999Z</time></trkpt><trkpt lat="41.5884470793235" lon="12.827283071883473"><ele>76.0</ele><time>2026-05-01T07:47:31.999Z</time></trkpt><trkpt lat="41.5885112786767" lon="12.827403821504516"><ele>76.0</ele><time>2026-05-01T07:47:32.999Z</time></trkpt><trkpt lat="41.5885733529825" lon="12.82751353030167"><ele>76.0</ele><time>2026-05-01T07:47:33.999Z</time></trkpt><trkpt lat="41.58863707534039" lon="12.827621031834749"><ele>76.0</ele><time>2026-05-01T07:47:34.999Z</time></trkpt><trkpt lat="41.58870053115887" lon="12.827724531678129"><ele>76.0</ele><time>2026-05-01T07:47:35.999Z</time></trkpt><trkpt lat="41.58875478565985" lon="12.827814506018294"><ele>76.5</ele><time>2026-05-01T07:47:36.999Z</time></trkpt><trkpt lat="41.588795766198984" lon="12.827882540505863"><ele>77.0</ele><time>2026-05-01T07:47:37.999Z</time></trkpt><trkpt lat="41.588834000174934" lon="12.827985143827233"><ele>77.5</ele><time>2026-05-01T07:47:41.999Z</time></trkpt><trkpt lat="41.588830075465964" lon="12.82814050901262"><ele>78.0</ele><time>2026-05-01T07:47:43.999Z</time></trkpt><trkpt lat="41.588817494879564" lon="12.828231109313107"><ele>78.5</ele><time>2026-05-01T07:47:44.999Z</time></trkpt><trkpt lat="41.58881120251148" lon="12.828318237125426"><ele>79.0</ele><time>2026-05-01T07:47:45.999Z</time></trkpt><trkpt lat="41.588805051848354" lon="12.82842161889708"><ele>79.2</ele><time>2026-05-01T07:47:46.999Z</time></trkpt><trkpt lat="41.58879236959752" lon="12.82853274206853"><ele>79.4</ele><time>2026-05-01T07:47:47.999Z</time></trkpt><trkpt lat="41.58877745148685" lon="12.828645301677719"><ele>79.6</ele><time>2026-05-01T07:47:48.999Z</time></trkpt><trkpt lat="41.58874423895272" lon="12.828762306182119"><ele>79.8</ele><time>2026-05-01T07:47:49.999Z</time></trkpt><trkpt lat="41.588750439909695" lon="12.82889265941625"><ele>80.0</ele><time>2026-05-01T07:47:50.999Z</time></trkpt><trkpt lat="41.588749757133314" lon="12.82901287811605"><ele>80.0</ele><time>2026-05-01T07:47:51.999Z</time></trkpt><trkpt lat="41.58875873835404" lon="12.829122383878646"><ele>80.0</ele><time>2026-05-01T07:47:52.999Z</time></trkpt><trkpt lat="41.58877013326511" lon="12.829207031695486"><ele>80.0</ele><time>2026-05-01T07:47:53.999Z</time></trkpt><trkpt lat="41.588771074115016" lon="12.82929283981088"><ele>80.0</ele><time>2026-05-01T07:47:55.999Z</time></trkpt><trkpt lat="41.588788639796945" lon="12.82937827055468"><ele>80.0</ele><time>2026-05-01T07:47:58.999Z</time></trkpt><trkpt lat="41.588807961607856" lon="12.829460633816154"><ele>80.0</ele><time>2026-05-01T07:48:00.999Z</time></trkpt><trkpt lat="41.588829975778594" lon="12.829554474329145"><ele>80.0</ele><time>2026-05-01T07:48:02.999Z</time></trkpt><trkpt lat="41.58883404718034" lon="12.82965121859184"><ele>79.6</ele><time>2026-05-01T07:48:05.999Z</time></trkpt><trkpt lat="41.58878173438041" lon="12.82970142046329"><ele>79.2</ele><time>2026-05-01T07:48:07.999Z</time></trkpt><trkpt lat="41.58881162684019" lon="12.829841941605862"><ele>78.8</ele><time>2026-05-01T07:48:09.999Z</time></trkpt><trkpt lat="41.58890102816438" lon="12.829898601191251"><ele>78.4</ele><time>2026-05-01T07:48:11.999Z</time></trkpt><trkpt lat="41.58894928117732" lon="12.829954971901593"><ele>78.0</ele><time>2026-05-01T07:48:13.998Z</time></trkpt><trkpt lat="41.5889968394033" lon="12.83012206201335"><ele>77.5</ele><time>2026-05-01T07:48:16.998Z</time></trkpt><trkpt lat="41.58903175249634" lon="12.830260143219396"><ele>77.0</ele><time>2026-05-01T07:48:17.998Z</time></trkpt><trkpt lat="41.58907938723124" lon="12.83039414144325"><ele>76.5</ele><time>2026-05-01T07:48:18.998Z</time></trkpt><trkpt lat="41.589109910977214" lon="12.830549575500854"><ele>76.0</ele><time>2026-05-01T07:48:19.998Z</time></trkpt><trkpt lat="41.589176070553194" lon="12.830696354899553"><ele>76.0</ele><time>2026-05-01T07:48:20.998Z</time></trkpt><trkpt lat="41.58922959825358" lon="12.83085572858026"><ele>76.0</ele><time>2026-05-01T07:48:21.998Z</time></trkpt><trkpt lat="41.58928014575196" lon="12.831014470780058"><ele>76.0</ele><time>2026-05-01T07:48:22.998Z</time></trkpt><trkpt lat="41.58932662919683" lon="12.831168905694664"><ele>76.0</ele><time>2026-05-01T07:48:23.998Z</time></trkpt><trkpt lat="41.58937314504103" lon="12.831312947334913"><ele>75.75</ele><time>2026-05-01T07:48:24.998Z</time></trkpt><trkpt lat="41.58942237181189" lon="12.831463943779374"><ele>75.5</ele><time>2026-05-01T07:48:25.998Z</time></trkpt><trkpt lat="41.58947051380248" lon="12.83162414381516"><ele>75.25</ele><time>2026-05-01T07:48:26.998Z</time></trkpt><trkpt lat="41.589515808754825" lon="12.831778362683178"><ele>75.0</ele><time>2026-05-01T07:48:27.998Z</time></trkpt><trkpt lat="41.58956175519251" lon="12.831913182760744"><ele>74.83333333333333</ele><time>2026-05-01T07:48:28.998Z</time></trkpt><trkpt lat="41.589601506270725" lon="12.832020694261699"><ele>74.66666666666667</ele><time>2026-05-01T07:48:29.998Z</time></trkpt><trkpt lat="41.5896340940706" lon="12.832104402108564"><ele>74.5</ele><time>2026-05-01T07:48:30.998Z</time></trkpt><trkpt lat="41.58966429465455" lon="12.832184159894874"><ele>74.33333333333334</ele><time>2026-05-01T07:48:32.998Z</time></trkpt><trkpt lat="41.58971784373027" lon="12.832320257688604"><ele>74.16666666666667</ele><time>2026-05-01T07:48:34.998Z</time></trkpt><trkpt lat="41.58974973729392" lon="12.832414427851917"><ele>74.0</ele><time>2026-05-01T07:48:35.998Z</time></trkpt><trkpt lat="41.58976241631509" lon="12.83252192760062"><ele>74.0</ele><time>2026-05-01T07:48:36.998Z</time></trkpt><trkpt lat="41.58982048316025" lon="12.832621528309613"><ele>74.0</ele><time>2026-05-01T07:48:37.998Z</time></trkpt><trkpt lat="41.58987690740739" lon="12.832735053284582"><ele>74.0</ele><time>2026-05-01T07:48:38.998Z</time></trkpt><trkpt lat="41.58994804373033" lon="12.832835564989514"><ele>74.0</ele><time>2026-05-01T07:48:39.998Z</time></trkpt><trkpt lat="41.59001787892153" lon="12.832916495245499"><ele>74.0</ele><time>2026-05-01T07:48:40.998Z</time></trkpt><trkpt lat="41.590094593743636" lon="12.832992080265745"><ele>73.83333333333334</ele><time>2026-05-01T07:48:42Z</time></trkpt><trkpt lat="41.59018517501628" lon="12.833061384901676"><ele>73.66666666666667</ele><time>2026-05-01T07:48:43Z</time></trkpt><trkpt lat="41.5902816888262" lon="12.83311098232935"><ele>73.5</ele><time>2026-05-01T07:48:44Z</time></trkpt><trkpt lat="41.59036888116454" lon="12.833140520879839"><ele>73.33333333333333</ele><time>2026-05-01T07:48:45Z</time></trkpt><trkpt lat="41.59044402046396" lon="12.833159610253466"><ele>73.16666666666666</ele><time>2026-05-01T07:48:46Z</time></trkpt><trkpt lat="41.59051369530833" lon="12.83317923254433"><ele>73.0</ele><time>2026-05-01T07:48:47Z</time></trkpt><trkpt lat="41.59057927857167" lon="12.83319805843096"><ele>73.66666666666666</ele><time>2026-05-01T07:48:48Z</time></trkpt><trkpt lat="41.59070484030678" lon="12.83323633981412"><ele>74.33333333333333</ele><time>2026-05-01T07:48:50Z</time></trkpt><trkpt lat="41.59077200124617" lon="12.833261648760542"><ele>75.0</ele><time>2026-05-01T07:48:51Z</time></trkpt><trkpt lat="41.590852871499955" lon="12.833270426308943"><ele>75.66666666666667</ele><time>2026-05-01T07:48:52Z</time></trkpt><trkpt lat="41.59093901754647" lon="12.833291804785654"><ele>76.33333333333334</ele><time>2026-05-01T07:48:53Z</time></trkpt><trkpt lat="41.59100823897522" lon="12.833310112408252"><ele>77.0</ele><time>2026-05-01T07:48:54Z</time></trkpt><trkpt lat="41.59107714972946" lon="12.833328228886451"><ele>77.0</ele><time>2026-05-01T07:48:55Z</time></trkpt><trkpt lat="41.59114670271774" lon="12.833349276556635"><ele>77.0</ele><time>2026-05-01T07:48:56Z</time></trkpt><trkpt lat="41.59127524915172" lon="12.833378740977077"><ele>77.0</ele><time>2026-05-01T07:48:58Z</time></trkpt><trkpt lat="41.591386723892256" lon="12.833410033543267"><ele>77.0</ele><time>2026-05-01T07:49:00Z</time></trkpt><trkpt lat="41.591450251171885" lon="12.833429729395057"><ele>77.0</ele><time>2026-05-01T07:49:01Z</time></trkpt><trkpt lat="41.59152680569094" lon="12.833454239984995"><ele>77.0</ele><time>2026-05-01T07:49:01.999Z</time></trkpt><trkpt lat="41.591621863220055" lon="12.8334908305664"><ele>77.0</ele><time>2026-05-01T07:49:02.999Z</time></trkpt><trkpt lat="41.59171054971685" lon="12.833501840917897"><ele>77.0</ele><time>2026-05-01T07:49:03.999Z</time></trkpt><trkpt lat="41.59178651719222" lon="12.833584190754623"><ele>77.0</ele><time>2026-05-01T07:49:04.999Z</time></trkpt><trkpt lat="41.59185407432434" lon="12.833645381277531"><ele>77.0</ele><time>2026-05-01T07:49:05.999Z</time></trkpt><trkpt lat="41.591906963451336" lon="12.833695437845371"><ele>77.0</ele><time>2026-05-01T07:49:06.999Z</time></trkpt><trkpt lat="41.591950132486325" lon="12.833771041433252"><ele>77.0</ele><time>2026-05-01T07:49:07.999Z</time></trkpt><trkpt lat="41.59201371663019" lon="12.833823676561911"><ele>77.0</ele><time>2026-05-01T07:49:08.999Z</time></trkpt><trkpt lat="41.59206170702017" lon="12.833911800323541"><ele>77.0</ele><time>2026-05-01T07:49:09.999Z</time></trkpt><trkpt lat="41.59213228378415" lon="12.833972996953067"><ele>77.0</ele><time>2026-05-01T07:49:10.999Z</time></trkpt><trkpt lat="41.59220370596737" lon="12.834071327207996"><ele>77.0</ele><time>2026-05-01T07:49:12.999Z</time></trkpt><trkpt lat="41.59228226512032" lon="12.834215466016452"><ele>77.0</ele><time>2026-05-01T07:49:14.999Z</time></trkpt><trkpt lat="41.592382138335196" lon="12.834311353864628"><ele>77.0</ele><time>2026-05-01T07:49:16.999Z</time></trkpt><trkpt lat="41.592430263752235" lon="12.834392902069595"><ele>77.0</ele><time>2026-05-01T07:49:17.999Z</time></trkpt><trkpt lat="41.59249723713402" lon="12.834481795359773"><ele>77.0</ele><time>2026-05-01T07:49:18.999Z</time></trkpt><trkpt lat="41.59259761876155" lon="12.834615031877"><ele>77.0</ele><time>2026-05-01T07:49:19.999Z</time></trkpt><trkpt lat="41.59272412792904" lon="12.834786381515913"><ele>77.5</ele><time>2026-05-01T07:49:20.999Z</time></trkpt><trkpt lat="41.592846157284654" lon="12.8349529909802"><ele>78.0</ele><time>2026-05-01T07:49:21.999Z</time></trkpt><trkpt lat="41.5929480223671" lon="12.835072119378959"><ele>78.5</ele><time>2026-05-01T07:49:22.999Z</time></trkpt><trkpt lat="41.59302800468523" lon="12.835200776634595"><ele>79.0</ele><time>2026-05-01T07:49:23.999Z</time></trkpt><trkpt lat="41.59311811885411" lon="12.835328314762773"><ele>79.5</ele><time>2026-05-01T07:49:24.999Z</time></trkpt><trkpt lat="41.59320970675975" lon="12.835470792380297"><ele>80.0</ele><time>2026-05-01T07:49:25.999Z</time></trkpt><trkpt lat="41.59329699591184" lon="12.835605986352787"><ele>80.5</ele><time>2026-05-01T07:49:26.999Z</time></trkpt><trkpt lat="41.593375203876015" lon="12.835712572956233"><ele>81.0</ele><time>2026-05-01T07:49:27.999Z</time></trkpt><trkpt lat="41.59344733631813" lon="12.835815235746598"><ele>81.0</ele><time>2026-05-01T07:49:28.999Z</time></trkpt><trkpt lat="41.59351973702308" lon="12.83590826119151"><ele>81.0</ele><time>2026-05-01T07:49:29.999Z</time></trkpt><trkpt lat="41.59360017251245" lon="12.83600967636877"><ele>81.0</ele><time>2026-05-01T07:49:30.999Z</time></trkpt><trkpt lat="41.59368524676988" lon="12.83611255473107"><ele>81.0</ele><time>2026-05-01T07:49:31.999Z</time></trkpt><trkpt lat="41.59375848510579" lon="12.83620165020082"><ele>81.0</ele><time>2026-05-01T07:49:32.999Z</time></trkpt><trkpt lat="41.5938166188604" lon="12.836273564461871"><ele>81.0</ele><time>2026-05-01T07:49:33.999Z</time></trkpt><trkpt lat="41.59386499494155" lon="12.836336026305101"><ele>81.0</ele><time>2026-05-01T07:49:35.999Z</time></trkpt><trkpt lat="41.593946531663306" lon="12.836439448154112"><ele>81.0</ele><time>2026-05-01T07:49:37.999Z</time></trkpt><trkpt lat="41.593994676544746" lon="12.836515592086606"><ele>81.0</ele><time>2026-05-01T07:49:38.999Z</time></trkpt><trkpt lat="41.594038357339926" lon="12.836607076857888"><ele>81.0</ele><time>2026-05-01T07:49:39.999Z</time></trkpt><trkpt lat="41.59409589116186" lon="12.83672211811885"><ele>81.0</ele><time>2026-05-01T07:49:40.999Z</time></trkpt><trkpt lat="41.59417810566455" lon="12.836850067201862"><ele>81.0</ele><time>2026-05-01T07:49:41.999Z</time></trkpt><trkpt lat="41.59425588146515" lon="12.836958670265469"><ele>81.0</ele><time>2026-05-01T07:49:42.999Z</time></trkpt><trkpt lat="41.59431305341876" lon="12.837044193466607"><ele>81.0</ele><time>2026-05-01T07:49:43.999Z</time></trkpt><trkpt lat="41.59436324802162" lon="12.837115876207479"><ele>81.0</ele><time>2026-05-01T07:49:44.999Z</time></trkpt><trkpt lat="41.59440055813476" lon="12.837212387292082"><ele>81.0</ele><time>2026-05-01T07:49:45.999Z</time></trkpt><trkpt lat="41.59444273905341" lon="12.837342917174691"><ele>81.0</ele><time>2026-05-01T07:49:46.999Z</time></trkpt><trkpt lat="41.59450222151905" lon="12.837506180425516"><ele>81.0</ele><time>2026-05-01T07:49:47.999Z</time></trkpt><trkpt lat="41.594575681250404" lon="12.837714796059442"><ele>81.0</ele><time>2026-05-01T07:49:48.999Z</time></trkpt><trkpt lat="41.59464914162498" lon="12.83792104560472"><ele>81.0</ele><time>2026-05-01T07:49:49.999Z</time></trkpt><trkpt lat="41.59471959403349" lon="12.838105926459491"><ele>81.0</ele><time>2026-05-01T07:49:50.999Z</time></trkpt><trkpt lat="41.59479473082327" lon="12.838272930378027"><ele>81.0</ele><time>2026-05-01T07:49:51.999Z</time></trkpt><trkpt lat="41.594875056519506" lon="12.838434827452629"><ele>81.0</ele><time>2026-05-01T07:49:52.999Z</time></trkpt><trkpt lat="41.594958715454595" lon="12.838610403349078"><ele>81.33333333333333</ele><time>2026-05-01T07:49:53.999Z</time></trkpt><trkpt lat="41.5950407440862" lon="12.838797548980759"><ele>81.66666666666666</ele><time>2026-05-01T07:49:54.999Z</time></trkpt><trkpt lat="41.595118000635864" lon="12.838987350269099"><ele>82.0</ele><time>2026-05-01T07:49:55.999Z</time></trkpt><trkpt lat="41.59519457867021" lon="12.83918387606484"><ele>82.0</ele><time>2026-05-01T07:49:56.999Z</time></trkpt><trkpt lat="41.595273128491385" lon="12.839383598609459"><ele>82.0</ele><time>2026-05-01T07:49:57.999Z</time></trkpt><trkpt lat="41.59535106144851" lon="12.839583365705362"><ele>82.0</ele><time>2026-05-01T07:49:58.999Z</time></trkpt><trkpt lat="41.59542591374408" lon="12.839776623470543"><ele>82.25</ele><time>2026-05-01T07:49:59.999Z</time></trkpt><trkpt lat="41.595489669741866" lon="12.839956906694427"><ele>82.5</ele><time>2026-05-01T07:50:00.999Z</time></trkpt><trkpt lat="41.59554761709306" lon="12.840139114401664"><ele>82.75</ele><time>2026-05-01T07:50:01.998Z</time></trkpt><trkpt lat="41.59560959682021" lon="12.840321208043465"><ele>83.0</ele><time>2026-05-01T07:50:02.998Z</time></trkpt><trkpt lat="41.59567260927698" lon="12.840499441330694"><ele>83.25</ele><time>2026-05-01T07:50:03.998Z</time></trkpt><trkpt lat="41.59573855030382" lon="12.840667224726799"><ele>83.5</ele><time>2026-05-01T07:50:04.998Z</time></trkpt><trkpt lat="41.595812082767125" lon="12.840836165071318"><ele>83.75</ele><time>2026-05-01T07:50:05.998Z</time></trkpt><trkpt lat="41.59588358589017" lon="12.8409943416534"><ele>84.0</ele><time>2026-05-01T07:50:06.998Z</time></trkpt><trkpt lat="41.595951877671354" lon="12.841140852281"><ele>84.0</ele><time>2026-05-01T07:50:07.998Z</time></trkpt><trkpt lat="41.59601644366009" lon="12.841278566258476"><ele>84.0</ele><time>2026-05-01T07:50:08.998Z</time></trkpt><trkpt lat="41.59608036236806" lon="12.841412452646683"><ele>84.0</ele><time>2026-05-01T07:50:09.998Z</time></trkpt><trkpt lat="41.59614416319848" lon="12.841526478867776"><ele>84.0</ele><time>2026-05-01T07:50:10.998Z</time></trkpt><trkpt lat="41.5961963779296" lon="12.841668831159696"><ele>85.25</ele><time>2026-05-01T07:50:11.998Z</time></trkpt><trkpt lat="41.596293656003944" lon="12.841806591812205"><ele>86.5</ele><time>2026-05-01T07:50:12.998Z</time></trkpt><trkpt lat="41.59637968420285" lon="12.84197019678313"><ele>87.75</ele><time>2026-05-01T07:50:13.998Z</time></trkpt><trkpt lat="41.59648410578013" lon="12.842114313387182"><ele>89.0</ele><time>2026-05-01T07:50:14.998Z</time></trkpt><trkpt lat="41.59659334208031" lon="12.842251588008896"><ele>89.0</ele><time>2026-05-01T07:50:15.998Z</time></trkpt><trkpt lat="41.596707754558786" lon="12.842392967798325"><ele>89.0</ele><time>2026-05-01T07:50:16.998Z</time></trkpt><trkpt lat="41.59681359770284" lon="12.842554853256908"><ele>89.0</ele><time>2026-05-01T07:50:17.998Z</time></trkpt><trkpt lat="41.596912303165496" lon="12.842727746709041"><ele>88.0</ele><time>2026-05-01T07:50:18.998Z</time></trkpt><trkpt lat="41.59699972419054" lon="12.842900002291024"><ele>87.0</ele><time>2026-05-01T07:50:19.998Z</time></trkpt><trkpt lat="41.5970942617633" lon="12.843072614716773"><ele>86.0</ele><time>2026-05-01T07:50:20.998Z</time></trkpt><trkpt lat="41.59719371523919" lon="12.843223444552457"><ele>85.5</ele><time>2026-05-01T07:50:21.998Z</time></trkpt><trkpt lat="41.59730398477996" lon="12.843358700741579"><ele>85.0</ele><time>2026-05-01T07:50:22.998Z</time></trkpt><trkpt lat="41.59742349897188" lon="12.843457801515143"><ele>84.5</ele><time>2026-05-01T07:50:23.998Z</time></trkpt><trkpt lat="41.597541450732614" lon="12.843547173930405"><ele>84.0</ele><time>2026-05-01T07:50:24.998Z</time></trkpt><trkpt lat="41.59766722453921" lon="12.8436687433957"><ele>84.0</ele><time>2026-05-01T07:50:25.998Z</time></trkpt><trkpt lat="41.597820843939466" lon="12.843792533812032"><ele>84.0</ele><time>2026-05-01T07:50:26.998Z</time></trkpt><trkpt lat="41.59798546844953" lon="12.843925192342997"><ele>84.0</ele><time>2026-05-01T07:50:27.998Z</time></trkpt><trkpt lat="41.59815836867217" lon="12.844058086543093"><ele>84.0</ele><time>2026-05-01T07:50:28.998Z</time></trkpt><trkpt lat="41.59832365369679" lon="12.844201855845162"><ele>84.0</ele><time>2026-05-01T07:50:29.998Z</time></trkpt><trkpt lat="41.59849118276345" lon="12.844337461665322"><ele>84.0</ele><time>2026-05-01T07:50:30.998Z</time></trkpt><trkpt lat="41.59865266586631" lon="12.844469496752286"><ele>85.33333333333333</ele><time>2026-05-01T07:50:31.998Z</time></trkpt><trkpt lat="41.598802019137224" lon="12.844595029794101"><ele>86.66666666666666</ele><time>2026-05-01T07:50:32.998Z</time></trkpt><trkpt lat="41.59893350292331" lon="12.84470831630406"><ele>88.0</ele><time>2026-05-01T07:50:33.998Z</time></trkpt><trkpt lat="41.59906469980314" lon="12.844819863183213"><ele>88.0</ele><time>2026-05-01T07:50:34.998Z</time></trkpt><trkpt lat="41.59919791728581" lon="12.844929162670576"><ele>88.0</ele><time>2026-05-01T07:50:35.998Z</time></trkpt><trkpt lat="41.59933667506705" lon="12.84504282568675"><ele>88.0</ele><time>2026-05-01T07:50:36.998Z</time></trkpt><trkpt lat="41.599480526685355" lon="12.845154759017356"><ele>87.75</ele><time>2026-05-01T07:50:37.998Z</time></trkpt><trkpt lat="41.5996174008395" lon="12.845262856586327"><ele>87.5</ele><time>2026-05-01T07:50:38.998Z</time></trkpt><trkpt lat="41.599742933327946" lon="12.845369183545092"><ele>87.25</ele><time>2026-05-01T07:50:39.998Z</time></trkpt><trkpt lat="41.5998604224979" lon="12.845468115745113"><ele>87.0</ele><time>2026-05-01T07:50:40.998Z</time></trkpt><trkpt lat="41.59997050879214" lon="12.845547888532472"><ele>87.0</ele><time>2026-05-01T07:50:41.998Z</time></trkpt><trkpt lat="41.60007911210501" lon="12.845594375138512"><ele>87.0</ele><time>2026-05-01T07:50:42.998Z</time></trkpt><trkpt lat="41.60019692499467" lon="12.84564435507005"><ele>87.0</ele><time>2026-05-01T07:50:43.998Z</time></trkpt><trkpt lat="41.60028658644969" lon="12.845773125573228"><ele>87.0</ele><time>2026-05-01T07:50:44.998Z</time></trkpt><trkpt lat="41.60040594054316" lon="12.845849840177912"><ele>87.0</ele><time>2026-05-01T07:50:45.998Z</time></trkpt><trkpt lat="41.60053389589056" lon="12.845890898926848"><ele>87.0</ele><time>2026-05-01T07:50:46.998Z</time></trkpt><trkpt lat="41.600623581720974" lon="12.846076688188623"><ele>87.0</ele><time>2026-05-01T07:50:47.999Z</time></trkpt><trkpt lat="41.60075469797638" lon="12.846206424193754"><ele>87.0</ele><time>2026-05-01T07:50:48.999Z</time></trkpt><trkpt lat="41.60091195781652" lon="12.846342875429457"><ele>87.0</ele><time>2026-05-01T07:50:49.999Z</time></trkpt><trkpt lat="41.60110757980047" lon="12.84649184908741"><ele>87.0</ele><time>2026-05-01T07:50:50.999Z</time></trkpt><trkpt lat="41.60129937694498" lon="12.846644511286978"><ele>87.5</ele><time>2026-05-01T07:50:51.999Z</time></trkpt><trkpt lat="41.60149844747156" lon="12.846802085656392"><ele>88.0</ele><time>2026-05-01T07:50:52.999Z</time></trkpt><trkpt lat="41.6017136115921" lon="12.846978995455697"><ele>88.0</ele><time>2026-05-01T07:50:53.999Z</time></trkpt><trkpt lat="41.601945755478035" lon="12.847177312700357"><ele>88.0</ele><time>2026-05-01T07:50:54.999Z</time></trkpt><trkpt lat="41.60217429199962" lon="12.847370684367544"><ele>89.0</ele><time>2026-05-01T07:50:55.999Z</time></trkpt><trkpt lat="41.60239348425035" lon="12.847550815699828"><ele>90.0</ele><time>2026-05-01T07:50:56.999Z</time></trkpt><trkpt lat="41.60259240621203" lon="12.847713715983076"><ele>90.0</ele><time>2026-05-01T07:50:57.999Z</time></trkpt><trkpt lat="41.60277369440602" lon="12.847863924260658"><ele>90.0</ele><time>2026-05-01T07:50:58.999Z</time></trkpt><trkpt lat="41.60291301495277" lon="12.847978306795886"><ele>90.0</ele><time>2026-05-01T07:50:59.999Z</time></trkpt><trkpt lat="41.60303655132679" lon="12.848090027377863"><ele>91.0</ele><time>2026-05-01T07:51:00.999Z</time></trkpt><trkpt lat="41.6031669872077" lon="12.84820091733163"><ele>92.0</ele><time>2026-05-01T07:51:01.999Z</time></trkpt><trkpt lat="41.60331821155701" lon="12.848326068505326"><ele>93.0</ele><time>2026-05-01T07:51:02.999Z</time></trkpt><trkpt lat="41.60348317020147" lon="12.848461370086255"><ele>93.0</ele><time>2026-05-01T07:51:03.999Z</time></trkpt><trkpt lat="41.60364989471941" lon="12.848600504573136"><ele>93.0</ele><time>2026-05-01T07:51:04.999Z</time></trkpt><trkpt lat="41.60382151921977" lon="12.848744611053133"><ele>93.0</ele><time>2026-05-01T07:51:05.999Z</time></trkpt><trkpt lat="41.603998966798336" lon="12.848893460721877"><ele>93.0</ele><time>2026-05-01T07:51:06.999Z</time></trkpt><trkpt lat="41.604177292842934" lon="12.849042117805762"><ele>93.0</ele><time>2026-05-01T07:51:07.999Z</time></trkpt><trkpt lat="41.60436077607815" lon="12.8491926152558"><ele>93.0</ele><time>2026-05-01T07:51:08.999Z</time></trkpt><trkpt lat="41.60454933332917" lon="12.849345791685607"><ele>93.0</ele><time>2026-05-01T07:51:09.999Z</time></trkpt><trkpt lat="41.6047407641776" lon="12.849504568564136"><ele>93.0</ele><time>2026-05-01T07:51:10.999Z</time></trkpt><trkpt lat="41.60493441930493" lon="12.849662035469038"><ele>93.0</ele><time>2026-05-01T07:51:11.999Z</time></trkpt><trkpt lat="41.605127295921214" lon="12.849819510507837"><ele>93.0</ele><time>2026-05-01T07:51:12.999Z</time></trkpt><trkpt lat="41.6053177926002" lon="12.84997868680294"><ele>93.33333333333333</ele><time>2026-05-01T07:51:13.999Z</time></trkpt><trkpt lat="41.6055068304408" lon="12.850138044376253"><ele>93.66666666666666</ele><time>2026-05-01T07:51:14.999Z</time></trkpt><trkpt lat="41.605694680703316" lon="12.850295412635631"><ele>94.0</ele><time>2026-05-01T07:51:15.999Z</time></trkpt><trkpt lat="41.60588395080257" lon="12.850450665607704"><ele>94.0</ele><time>2026-05-01T07:51:16.999Z</time></trkpt><trkpt lat="41.60607580098267" lon="12.85060687556086"><ele>94.0</ele><time>2026-05-01T07:51:17.999Z</time></trkpt><trkpt lat="41.606266967846175" lon="12.850765907867094"><ele>95.0</ele><time>2026-05-01T07:51:18.999Z</time></trkpt><trkpt lat="41.60645819188844" lon="12.85092488672591"><ele>96.0</ele><time>2026-05-01T07:51:19.999Z</time></trkpt><trkpt lat="41.60665111031175" lon="12.851081736666707"><ele>96.0</ele><time>2026-05-01T07:51:20.999Z</time></trkpt><trkpt lat="41.606843111485915" lon="12.851242188604743"><ele>96.0</ele><time>2026-05-01T07:51:21.999Z</time></trkpt><trkpt lat="41.60703465417694" lon="12.851401198269876"><ele>96.0</ele><time>2026-05-01T07:51:22.999Z</time></trkpt><trkpt lat="41.60722493292584" lon="12.851559340546645"><ele>96.0</ele><time>2026-05-01T07:51:23.999Z</time></trkpt><trkpt lat="41.60741219842021" lon="12.851711825726623"><ele>96.0</ele><time>2026-05-01T07:51:24.999Z</time></trkpt><trkpt lat="41.60759836100413" lon="12.851862609919195"><ele>96.0</ele><time>2026-05-01T07:51:25.999Z</time></trkpt><trkpt lat="41.607779698681526" lon="12.852016707071481"><ele>96.0</ele><time>2026-05-01T07:51:26.999Z</time></trkpt><trkpt lat="41.60795867948501" lon="12.852168960846928"><ele>96.0</ele><time>2026-05-01T07:51:27.999Z</time></trkpt><trkpt lat="41.608138209581895" lon="12.85231904304869"><ele>95.66666666666667</ele><time>2026-05-01T07:51:28.999Z</time></trkpt><trkpt lat="41.60831579215898" lon="12.85246649784927"><ele>95.33333333333334</ele><time>2026-05-01T07:51:29.999Z</time></trkpt><trkpt lat="41.60849379345449" lon="12.852612823152597"><ele>95.0</ele><time>2026-05-01T07:51:30.999Z</time></trkpt><trkpt lat="41.60867158844466" lon="12.852760478792302"><ele>95.0</ele><time>2026-05-01T07:51:31.999Z</time></trkpt><trkpt lat="41.608849151819484" lon="12.852903446453036"><ele>95.0</ele><time>2026-05-01T07:51:32.999Z</time></trkpt><trkpt lat="41.609028830625235" lon="12.853046356012113"><ele>95.0</ele><time>2026-05-01T07:51:33.999Z</time></trkpt><trkpt lat="41.60920829667567" lon="12.853189234687063"><ele>95.0</ele><time>2026-05-01T07:51:34.999Z</time></trkpt><trkpt lat="41.60937981285611" lon="12.853328161108934"><ele>95.0</ele><time>2026-05-01T07:51:35.999Z</time></trkpt><trkpt lat="41.609542303171246" lon="12.853458633690408"><ele>95.0</ele><time>2026-05-01T07:51:36.999Z</time></trkpt><trkpt lat="41.60969694284772" lon="12.853585176985673"><ele>95.33333333333334</ele><time>2026-05-01T07:51:37.999Z</time></trkpt><trkpt lat="41.60984785360273" lon="12.85370923917544"><ele>95.66666666666667</ele><time>2026-05-01T07:51:38.999Z</time></trkpt><trkpt lat="41.609991722493504" lon="12.853829032109017"><ele>96.0</ele><time>2026-05-01T07:51:39.999Z</time></trkpt><trkpt lat="41.61013269730347" lon="12.853945819013045"><ele>96.0</ele><time>2026-05-01T07:51:40.999Z</time></trkpt><trkpt lat="41.610270584911305" lon="12.854060679839083"><ele>96.0</ele><time>2026-05-01T07:51:41.999Z</time></trkpt><trkpt lat="41.610402073719705" lon="12.854170302375472"><ele>96.0</ele><time>2026-05-01T07:51:42.999Z</time></trkpt><trkpt lat="41.61052925468556" lon="12.854276065290717"><ele>93.33333333333333</ele><time>2026-05-01T07:51:43.999Z</time></trkpt><trkpt lat="41.61065006478639" lon="12.854389699752643"><ele>90.66666666666666</ele><time>2026-05-01T07:51:44.999Z</time></trkpt><trkpt lat="41.610757924323075" lon="12.854522354874657"><ele>88.0</ele><time>2026-05-01T07:51:45.999Z</time></trkpt><trkpt lat="41.61087462609109" lon="12.854677874056309"><ele>88.0</ele><time>2026-05-01T07:51:46.999Z</time></trkpt><trkpt lat="41.61099445316017" lon="12.854850628023748"><ele>88.0</ele><time>2026-05-01T07:51:47.999Z</time></trkpt><trkpt lat="41.61111903183254" lon="12.855022783941317"><ele>88.0</ele><time>2026-05-01T07:51:48.999Z</time></trkpt><trkpt lat="41.61124767245077" lon="12.855200688648626"><ele>86.66666666666666</ele><time>2026-05-01T07:51:49.999Z</time></trkpt><trkpt lat="41.61138019839947" lon="12.855381099756757"><ele>85.33333333333333</ele><time>2026-05-01T07:51:50.999Z</time></trkpt><trkpt lat="41.611513254724194" lon="12.855563128386382"><ele>84.0</ele><time>2026-05-01T07:51:51.999Z</time></trkpt><trkpt lat="41.611649982009" lon="12.855735311110458"><ele>84.0</ele><time>2026-05-01T07:51:52.999Z</time></trkpt><trkpt lat="41.61177401226755" lon="12.855921395961118"><ele>84.0</ele><time>2026-05-01T07:51:53.999Z</time></trkpt><trkpt lat="41.61190430232305" lon="12.856114585313914"><ele>84.0</ele><time>2026-05-01T07:51:54.999Z</time></trkpt><trkpt lat="41.612031377197134" lon="12.856334823982202"><ele>84.5</ele><time>2026-05-01T07:51:55.999Z</time></trkpt><trkpt lat="41.61215328443486" lon="12.85658538381721"><ele>85.0</ele><time>2026-05-01T07:51:56.999Z</time></trkpt><trkpt lat="41.61227889215986" lon="12.856856431637148"><ele>82.0</ele><time>2026-05-01T07:51:57.999Z</time></trkpt><trkpt lat="41.61240343787347" lon="12.857154865943775"><ele>79.0</ele><time>2026-05-01T07:51:58.999Z</time></trkpt><trkpt lat="41.61252833574781" lon="12.857443394152483"><ele>78.0</ele><time>2026-05-01T07:51:59.999Z</time></trkpt><trkpt lat="41.61265844643426" lon="12.85774117898951"><ele>77.0</ele><time>2026-05-01T07:52:00.999Z</time></trkpt><trkpt lat="41.61279346662097" lon="12.858034229709531"><ele>77.0</ele><time>2026-05-01T07:52:01.999Z</time></trkpt><trkpt lat="41.61293116413764" lon="12.858325094555443"><ele>77.0</ele><time>2026-05-01T07:52:02.999Z</time></trkpt><trkpt lat="41.61305511493412" lon="12.858593543729492"><ele>77.0</ele><time>2026-05-01T07:52:03.999Z</time></trkpt><trkpt lat="41.61316856070843" lon="12.858846040762854"><ele>77.0</ele><time>2026-05-01T07:52:04.999Z</time></trkpt><trkpt lat="41.61327927930532" lon="12.859087422292896"><ele>77.0</ele><time>2026-05-01T07:52:05.999Z</time></trkpt><trkpt lat="41.61338456336649" lon="12.85931273691278"><ele>77.66666666666667</ele><time>2026-05-01T07:52:06.999Z</time></trkpt><trkpt lat="41.61348980345648" lon="12.859529378290533"><ele>78.33333333333333</ele><time>2026-05-01T07:52:07.999Z</time></trkpt><trkpt lat="41.61359555904903" lon="12.859754303879523"><ele>79.0</ele><time>2026-05-01T07:52:08.999Z</time></trkpt><trkpt lat="41.6136615397471" lon="12.860009260411273"><ele>79.33333333333333</ele><time>2026-05-01T07:52:09.999Z</time></trkpt><trkpt lat="41.61374406559168" lon="12.860268518924656"><ele>79.66666666666667</ele><time>2026-05-01T07:52:10.999Z</time></trkpt><trkpt lat="41.61381922723772" lon="12.860546478322792"><ele>80.0</ele><time>2026-05-01T07:52:11.999Z</time></trkpt><trkpt lat="41.613911183364635" lon="12.860820543385609"><ele>81.5</ele><time>2026-05-01T07:52:12.999Z</time></trkpt><trkpt lat="41.61402755732572" lon="12.861098919519751"><ele>83.0</ele><time>2026-05-01T07:52:13.999Z</time></trkpt><trkpt lat="41.61415653383821" lon="12.861373013648508"><ele>83.0</ele><time>2026-05-01T07:52:14.999Z</time></trkpt><trkpt lat="41.61429256190893" lon="12.861651331479887"><ele>83.0</ele><time>2026-05-01T07:52:15.999Z</time></trkpt><trkpt lat="41.61442241425695" lon="12.861929168067256"><ele>84.5</ele><time>2026-05-01T07:52:16.999Z</time></trkpt><trkpt lat="41.614559009360704" lon="12.86221661336673"><ele>86.0</ele><time>2026-05-01T07:52:17.999Z</time></trkpt><trkpt lat="41.61467549047296" lon="12.862518865114799"><ele>87.5</ele><time>2026-05-01T07:52:18.998Z</time></trkpt><trkpt lat="41.61479882108522" lon="12.862801664212581"><ele>89.0</ele><time>2026-05-01T07:52:19.998Z</time></trkpt><trkpt lat="41.61491981037289" lon="12.863060193283685"><ele>89.0</ele><time>2026-05-01T07:52:20.998Z</time></trkpt><trkpt lat="41.61502455642233" lon="12.863312325555647"><ele>89.0</ele><time>2026-05-01T07:52:21.998Z</time></trkpt><trkpt lat="41.615126143495715" lon="12.863538751503546"><ele>89.0</ele><time>2026-05-01T07:52:22.998Z</time></trkpt><trkpt lat="41.61521988093994" lon="12.863742149911756"><ele>89.5</ele><time>2026-05-01T07:52:23.998Z</time></trkpt><trkpt lat="41.615295881105034" lon="12.863916448226457"><ele>90.0</ele><time>2026-05-01T07:52:24.998Z</time></trkpt><trkpt lat="41.61536607309219" lon="12.864074195471998"><ele>90.5</ele><time>2026-05-01T07:52:25.998Z</time></trkpt><trkpt lat="41.61542818092181" lon="12.86421840057186"><ele>91.0</ele><time>2026-05-01T07:52:26.998Z</time></trkpt><trkpt lat="41.61548523666004" lon="12.864365498757415"><ele>91.0</ele><time>2026-05-01T07:52:27.998Z</time></trkpt><trkpt lat="41.61554476079047" lon="12.864527608013816"><ele>91.0</ele><time>2026-05-01T07:52:28.998Z</time></trkpt><trkpt lat="41.615598687535126" lon="12.864685921711436"><ele>91.0</ele><time>2026-05-01T07:52:29.998Z</time></trkpt><trkpt lat="41.615643326202154" lon="12.864842858886561"><ele>91.0</ele><time>2026-05-01T07:52:30.998Z</time></trkpt><trkpt lat="41.615670679869226" lon="12.865002171682592"><ele>91.0</ele><time>2026-05-01T07:52:31.998Z</time></trkpt><trkpt lat="41.61569397961254" lon="12.865165682744044"><ele>91.0</ele><time>2026-05-01T07:52:32.998Z</time></trkpt><trkpt lat="41.61571246423104" lon="12.865327023678251"><ele>91.0</ele><time>2026-05-01T07:52:33.998Z</time></trkpt><trkpt lat="41.61573003190442" lon="12.865492687790002"><ele>91.0</ele><time>2026-05-01T07:52:34.998Z</time></trkpt><trkpt lat="41.615742357137854" lon="12.865649716945969"><ele>91.0</ele><time>2026-05-01T07:52:35.998Z</time></trkpt><trkpt lat="41.61575231789047" lon="12.865812279856389"><ele>91.0</ele><time>2026-05-01T07:52:36.998Z</time></trkpt><trkpt lat="41.6157568619308" lon="12.865984503677673"><ele>91.0</ele><time>2026-05-01T07:52:37.998Z</time></trkpt><trkpt lat="41.615748721124206" lon="12.866163821131574"><ele>91.0</ele><time>2026-05-01T07:52:38.998Z</time></trkpt><trkpt lat="41.615729180266904" lon="12.866348267598056"><ele>91.0</ele><time>2026-05-01T07:52:39.998Z</time></trkpt><trkpt lat="41.615682786783765" lon="12.866538013267245"><ele>91.0</ele><time>2026-05-01T07:52:40.998Z</time></trkpt><trkpt lat="41.615644519550145" lon="12.866780085173968"><ele>91.0</ele><time>2026-05-01T07:52:41.998Z</time></trkpt><trkpt lat="41.615604495707295" lon="12.867038250307347"><ele>89.66666666666666</ele><time>2026-05-01T07:52:42.998Z</time></trkpt><trkpt lat="41.61556455545033" lon="12.867307506297102"><ele>88.33333333333333</ele><time>2026-05-01T07:52:43.998Z</time></trkpt><trkpt lat="41.61552457521037" lon="12.867577031862417"><ele>87.0</ele><time>2026-05-01T07:52:44.998Z</time></trkpt><trkpt lat="41.615492896279065" lon="12.867858111622095"><ele>85.66666666666667</ele><time>2026-05-01T07:52:45.998Z</time></trkpt><trkpt lat="41.6154526465497" lon="12.868141373421702"><ele>84.33333333333334</ele><time>2026-05-01T07:52:46.998Z</time></trkpt><trkpt lat="41.615408019693035" lon="12.868442745606107"><ele>83.0</ele><time>2026-05-01T07:52:47.998Z</time></trkpt><trkpt lat="41.61536148464321" lon="12.868759220417187"><ele>82.5</ele><time>2026-05-01T07:52:48.998Z</time></trkpt><trkpt lat="41.61529627500795" lon="12.869082896957087"><ele>82.0</ele><time>2026-05-01T07:52:49.998Z</time></trkpt><trkpt lat="41.61524990736008" lon="12.869396928777324"><ele>82.66666666666666</ele><time>2026-05-01T07:52:50.998Z</time></trkpt><trkpt lat="41.61520838628701" lon="12.86968229819611"><ele>83.33333333333333</ele><time>2026-05-01T07:52:51.998Z</time></trkpt><trkpt lat="41.61517040253695" lon="12.869943355995112"><ele>84.0</ele><time>2026-05-01T07:52:52.998Z</time></trkpt><trkpt lat="41.61515001521974" lon="12.870199431894223"><ele>85.0</ele><time>2026-05-01T07:52:54Z</time></trkpt><trkpt lat="41.61511458263476" lon="12.870432860258573"><ele>86.0</ele><time>2026-05-01T07:52:55Z</time></trkpt><trkpt lat="41.61508149196508" lon="12.870650878748702"><ele>87.0</ele><time>2026-05-01T07:52:56Z</time></trkpt><trkpt lat="41.615052440454214" lon="12.870862349085355"><ele>87.66666666666667</ele><time>2026-05-01T07:52:57Z</time></trkpt><trkpt lat="41.615019361935815" lon="12.871064318341052"><ele>88.33333333333334</ele><time>2026-05-01T07:52:58Z</time></trkpt><trkpt lat="41.61498312020135" lon="12.871282356456087"><ele>89.0</ele><time>2026-05-01T07:52:59Z</time></trkpt><trkpt lat="41.614947747564386" lon="12.871515801928709"><ele>89.0</ele><time>2026-05-01T07:53:00Z</time></trkpt><trkpt lat="41.61490841981389" lon="12.871747199724242"><ele>89.0</ele><time>2026-05-01T07:53:01Z</time></trkpt><trkpt lat="41.61487152338809" lon="12.871973206556076"><ele>89.0</ele><time>2026-05-01T07:53:02Z</time></trkpt><trkpt lat="41.61485117729571" lon="12.872184050533392"><ele>90.0</ele><time>2026-05-01T07:53:03Z</time></trkpt><trkpt lat="41.614865309263486" lon="12.872391163540694"><ele>91.0</ele><time>2026-05-01T07:53:04Z</time></trkpt><trkpt lat="41.61492195536237" lon="12.872577695490033"><ele>92.0</ele><time>2026-05-01T07:53:05Z</time></trkpt><trkpt lat="41.61501906840503" lon="12.872732436918014"><ele>95.0</ele><time>2026-05-01T07:53:06Z</time></trkpt><trkpt lat="41.6151603865207" lon="12.87283886958022"><ele>98.0</ele><time>2026-05-01T07:53:07Z</time></trkpt><trkpt lat="41.61532628034536" lon="12.872915271979258"><ele>101.0</ele><time>2026-05-01T07:53:08Z</time></trkpt><trkpt lat="41.61551764243574" lon="12.872946500439596"><ele>101.66666666666666</ele><time>2026-05-01T07:53:09Z</time></trkpt><trkpt lat="41.61572054171681" lon="12.87294019211986"><ele>102.33333333333334</ele><time>2026-05-01T07:53:10Z</time></trkpt><trkpt lat="41.615928357340664" lon="12.872928692171218"><ele>103.0</ele><time>2026-05-01T07:53:11Z</time></trkpt><trkpt lat="41.61613932206051" lon="12.872918087615954"><ele>103.33333333333334</ele><time>2026-05-01T07:53:12Z</time></trkpt><trkpt lat="41.61633026851886" lon="12.872912110075752"><ele>103.66666666666666</ele><time>2026-05-01T07:53:13Z</time></trkpt><trkpt lat="41.61651820014462" lon="12.872910320342156"><ele>104.0</ele><time>2026-05-01T07:53:14Z</time></trkpt><trkpt lat="41.616691355412506" lon="12.872912403925454"><ele>104.0</ele><time>2026-05-01T07:53:15Z</time></trkpt><trkpt lat="41.61685244930498" lon="12.872915396329741"><ele>104.0</ele><time>2026-05-01T07:53:16Z</time></trkpt><trkpt lat="41.61699774993053" lon="12.87293411429031"><ele>104.0</ele><time>2026-05-01T07:53:17Z</time></trkpt><trkpt lat="41.61711151415812" lon="12.872998041794276"><ele>104.0</ele><time>2026-05-01T07:53:17.999Z</time></trkpt><trkpt lat="41.617202160070164" lon="12.873120769825553"><ele>104.66666666666666</ele><time>2026-05-01T07:53:18.999Z</time></trkpt><trkpt lat="41.61723964707042" lon="12.873298231957738"><ele>105.33333333333334</ele><time>2026-05-01T07:53:19.999Z</time></trkpt><trkpt lat="41.61724780254183" lon="12.87349964603472"><ele>106.0</ele><time>2026-05-01T07:53:20.999Z</time></trkpt><trkpt lat="41.617278778920515" lon="12.873716006618594"><ele>106.0</ele><time>2026-05-01T07:53:21.999Z</time></trkpt><trkpt lat="41.617300204966895" lon="12.87392640889007"><ele>106.0</ele><time>2026-05-01T07:53:22.999Z</time></trkpt><trkpt lat="41.61735843344879" lon="12.874130311763016"><ele>106.0</ele><time>2026-05-01T07:53:23.999Z</time></trkpt><trkpt lat="41.61745699504805" lon="12.874304574252989"><ele>103.0</ele><time>2026-05-01T07:53:24.999Z</time></trkpt><trkpt lat="41.617579701293124" lon="12.87445243586691"><ele>100.0</ele><time>2026-05-01T07:53:25.999Z</time></trkpt><trkpt lat="41.61770309004179" lon="12.874588291619787"><ele>97.0</ele><time>2026-05-01T07:53:26.999Z</time></trkpt><trkpt lat="41.61779706780224" lon="12.874765871208478"><ele>98.0</ele><time>2026-05-01T07:53:27.999Z</time></trkpt><trkpt lat="41.617862990894224" lon="12.874981988533543"><ele>99.0</ele><time>2026-05-01T07:53:28.999Z</time></trkpt><trkpt lat="41.61788156039599" lon="12.875230244432835"><ele>100.0</ele><time>2026-05-01T07:53:29.999Z</time></trkpt><trkpt lat="41.617920721551485" lon="12.875503952472034"><ele>97.66666666666667</ele><time>2026-05-01T07:53:30.999Z</time></trkpt><trkpt lat="41.617926526208564" lon="12.875792573896415"><ele>95.33333333333334</ele><time>2026-05-01T07:53:31.999Z</time></trkpt><trkpt lat="41.617938926232064" lon="12.876066894345787"><ele>93.0</ele><time>2026-05-01T07:53:32.999Z</time></trkpt><trkpt lat="41.61795490129222" lon="12.876315630997205"><ele>93.0</ele><time>2026-05-01T07:53:33.999Z</time></trkpt><trkpt lat="41.61797058685783" lon="12.87654577070017"><ele>93.0</ele><time>2026-05-01T07:53:34.999Z</time></trkpt><trkpt lat="41.61799449480946" lon="12.87676174243894"><ele>93.0</ele><time>2026-05-01T07:53:35.999Z</time></trkpt><trkpt lat="41.61804819166491" lon="12.876959026565055"><ele>97.33333333333334</ele><time>2026-05-01T07:53:36.999Z</time></trkpt><trkpt lat="41.61814828658593" lon="12.87711059858272"><ele>101.66666666666667</ele><time>2026-05-01T07:53:37.999Z</time></trkpt><trkpt lat="41.61829482074768" lon="12.877203992952555"><ele>106.0</ele><time>2026-05-01T07:53:38.999Z</time></trkpt><trkpt lat="41.618470940659584" lon="12.877258339585161"><ele>106.0</ele><time>2026-05-01T07:53:39.999Z</time></trkpt><trkpt lat="41.61864192907479" lon="12.877295654533713"><ele>106.0</ele><time>2026-05-01T07:53:40.999Z</time></trkpt><trkpt lat="41.618782999849294" lon="12.877335874089729"><ele>106.0</ele><time>2026-05-01T07:53:41.999Z</time></trkpt><trkpt lat="41.61889789224882" lon="12.877413703881068"><ele>106.0</ele><time>2026-05-01T07:53:42.999Z</time></trkpt><trkpt lat="41.61899007863886" lon="12.877540170733917"><ele>107.5</ele><time>2026-05-01T07:53:43.999Z</time></trkpt><trkpt lat="41.61903796507955" lon="12.877722418972315"><ele>109.0</ele><time>2026-05-01T07:53:44.999Z</time></trkpt><trkpt lat="41.6190462928859" lon="12.877919021292959"><ele>110.5</ele><time>2026-05-01T07:53:45.999Z</time></trkpt><trkpt lat="41.61899817944102" lon="12.878103210157063"><ele>112.0</ele><time>2026-05-01T07:53:46.999Z</time></trkpt><trkpt lat="41.61893193716832" lon="12.878312359681674"><ele>112.66666666666667</ele><time>2026-05-01T07:53:47.999Z</time></trkpt><trkpt lat="41.61886549329738" lon="12.878539014319943"><ele>113.33333333333334</ele><time>2026-05-01T07:53:48.999Z</time></trkpt><trkpt lat="41.61879023629057" lon="12.878745271654708"><ele>114.0</ele><time>2026-05-01T07:53:49.999Z</time></trkpt><trkpt lat="41.61873994220484" lon="12.878945833692846"><ele>114.0</ele><time>2026-05-01T07:53:50.999Z</time></trkpt><trkpt lat="41.61871526687877" lon="12.879173029833025"><ele>114.0</ele><time>2026-05-01T07:53:51.999Z</time></trkpt><trkpt lat="41.61872182316975" lon="12.879395767763011"><ele>114.0</ele><time>2026-05-01T07:53:52.999Z</time></trkpt><trkpt lat="41.61875326588203" lon="12.879580359474517"><ele>113.66666666666666</ele><time>2026-05-01T07:53:53.999Z</time></trkpt><trkpt lat="41.61881379316882" lon="12.879736228857816"><ele>113.33333333333333</ele><time>2026-05-01T07:53:54.999Z</time></trkpt><trkpt lat="41.618937638449026" lon="12.879874295681073"><ele>113.0</ele><time>2026-05-01T07:53:55.999Z</time></trkpt><trkpt lat="41.61908457131328" lon="12.880016706859815"><ele>112.33333333333333</ele><time>2026-05-01T07:53:56.999Z</time></trkpt><trkpt lat="41.6192355446151" lon="12.880182338533261"><ele>111.66666666666666</ele><time>2026-05-01T07:53:57.999Z</time></trkpt><trkpt lat="41.61936634673041" lon="12.88037052020795"><ele>111.0</ele><time>2026-05-01T07:53:58.999Z</time></trkpt><trkpt lat="41.61948098968971" lon="12.880579363136215"><ele>111.0</ele><time>2026-05-01T07:53:59.999Z</time></trkpt><trkpt lat="41.61958389298268" lon="12.880803588073308"><ele>111.0</ele><time>2026-05-01T07:54:00.999Z</time></trkpt><trkpt lat="41.61968766351942" lon="12.88103791529333"><ele>111.0</ele><time>2026-05-01T07:54:01.999Z</time></trkpt><trkpt lat="41.61979502390653" lon="12.88128118588049"><ele>112.0</ele><time>2026-05-01T07:54:02.999Z</time></trkpt><trkpt lat="41.619902792632324" lon="12.881525348325717"><ele>113.0</ele><time>2026-05-01T07:54:03.999Z</time></trkpt><trkpt lat="41.62001275508225" lon="12.881763366042147"><ele>114.0</ele><time>2026-05-01T07:54:04.999Z</time></trkpt><trkpt lat="41.62011093998463" lon="12.881996431338203"><ele>115.0</ele><time>2026-05-01T07:54:05.999Z</time></trkpt><trkpt lat="41.62019533612353" lon="12.8822325667202"><ele>116.0</ele><time>2026-05-01T07:54:06.999Z</time></trkpt><trkpt lat="41.62025881567538" lon="12.882468718260563"><ele>117.0</ele><time>2026-05-01T07:54:07.999Z</time></trkpt><trkpt lat="41.62032533727637" lon="12.882701330994825"><ele>114.66666666666666</ele><time>2026-05-01T07:54:08.999Z</time></trkpt><trkpt lat="41.62040849663443" lon="12.882925104483165"><ele>112.33333333333333</ele><time>2026-05-01T07:54:09.999Z</time></trkpt><trkpt lat="41.62051526518335" lon="12.883127225499718"><ele>110.0</ele><time>2026-05-01T07:54:10.999Z</time></trkpt><trkpt lat="41.62065155942842" lon="12.883315467911796"><ele>109.66666666666666</ele><time>2026-05-01T07:54:11.999Z</time></trkpt><trkpt lat="41.620817771491176" lon="12.88348109287417"><ele>109.33333333333334</ele><time>2026-05-01T07:54:12.999Z</time></trkpt><trkpt lat="41.620986061322334" lon="12.883641940090374"><ele>109.0</ele><time>2026-05-01T07:54:13.999Z</time></trkpt><trkpt lat="41.62116012945858" lon="12.883794142144575"><ele>109.0</ele><time>2026-05-01T07:54:14.999Z</time></trkpt><trkpt lat="41.62133168312274" lon="12.883920596916058"><ele>109.0</ele><time>2026-05-01T07:54:15.999Z</time></trkpt><trkpt lat="41.621496545433075" lon="12.88403599540561"><ele>109.0</ele><time>2026-05-01T07:54:16.999Z</time></trkpt><trkpt lat="41.621643594419474" lon="12.884143752019357"><ele>109.0</ele><time>2026-05-01T07:54:17.999Z</time></trkpt><trkpt lat="41.62175873085009" lon="12.884261491799041"><ele>109.0</ele><time>2026-05-01T07:54:18.999Z</time></trkpt><trkpt lat="41.621845466268034" lon="12.884450883167611"><ele>109.0</ele><time>2026-05-01T07:54:19.999Z</time></trkpt><trkpt lat="41.62195839233292" lon="12.88464674694942"><ele>109.33333333333334</ele><time>2026-05-01T07:54:20.999Z</time></trkpt><trkpt lat="41.62204846263596" lon="12.884869881213143"><ele>109.66666666666666</ele><time>2026-05-01T07:54:21.999Z</time></trkpt><trkpt lat="41.622151917262244" lon="12.885083281012351"><ele>110.0</ele><time>2026-05-01T07:54:22.999Z</time></trkpt><trkpt lat="41.6222577772329" lon="12.885288529985193"><ele>111.33333333333333</ele><time>2026-05-01T07:54:23.999Z</time></trkpt><trkpt lat="41.62235429352764" lon="12.885477460214467"><ele>112.66666666666666</ele><time>2026-05-01T07:54:24.998Z</time></trkpt><trkpt lat="41.62245201758812" lon="12.885653830257228"><ele>114.0</ele><time>2026-05-01T07:54:25.998Z</time></trkpt><trkpt lat="41.62257276655032" lon="12.885803518255972"><ele>114.0</ele><time>2026-05-01T07:54:26.998Z</time></trkpt><trkpt lat="41.62272921475513" lon="12.885917942206293"><ele>114.0</ele><time>2026-05-01T07:54:27.998Z</time></trkpt><trkpt lat="41.62291235740041" lon="12.886006660605682"><ele>114.0</ele><time>2026-05-01T07:54:28.998Z</time></trkpt><trkpt lat="41.6230934455233" lon="12.886088216291071"><ele>117.66666666666666</ele><time>2026-05-01T07:54:29.998Z</time></trkpt><trkpt lat="41.6232749428223" lon="12.886159775555532"><ele>121.33333333333333</ele><time>2026-05-01T07:54:30.998Z</time></trkpt><trkpt lat="41.62346254755108" lon="12.886203800522072"><ele>125.0</ele><time>2026-05-01T07:54:31.998Z</time></trkpt><trkpt lat="41.62366268413403" lon="12.886208949432056"><ele>126.66666666666666</ele><time>2026-05-01T07:54:32.998Z</time></trkpt><trkpt lat="41.62385460464375" lon="12.886186673464026"><ele>128.33333333333334</ele><time>2026-05-01T07:54:33.998Z</time></trkpt><trkpt lat="41.624027818143034" lon="12.886178017191028"><ele>130.0</ele><time>2026-05-01T07:54:34.998Z</time></trkpt><trkpt lat="41.62418773358548" lon="12.886206725454995"><ele>130.0</ele><time>2026-05-01T07:54:35.998Z</time></trkpt><trkpt lat="41.6243254242706" lon="12.886299464040022"><ele>130.0</ele><time>2026-05-01T07:54:36.998Z</time></trkpt><trkpt lat="41.62442915333556" lon="12.88640591255822"><ele>130.0</ele><time>2026-05-01T07:54:37.998Z</time></trkpt><trkpt lat="41.62449040136914" lon="12.886558611842752"><ele>130.0</ele><time>2026-05-01T07:54:38.998Z</time></trkpt><trkpt lat="41.62444513438138" lon="12.886746294397215"><ele>130.5</ele><time>2026-05-01T07:54:39.998Z</time></trkpt><trkpt lat="41.62445945024189" lon="12.886904086675699"><ele>131.0</ele><time>2026-05-01T07:54:40.998Z</time></trkpt><trkpt lat="41.62450526158129" lon="12.88705508625126"><ele>131.5</ele><time>2026-05-01T07:54:41.998Z</time></trkpt><trkpt lat="41.6246228116313" lon="12.887183596081808"><ele>132.0</ele><time>2026-05-01T07:54:42.998Z</time></trkpt><trkpt lat="41.624785203785635" lon="12.887286948419817"><ele>132.66666666666666</ele><time>2026-05-01T07:54:43.998Z</time></trkpt><trkpt lat="41.62495748012846" lon="12.88742174301534"><ele>133.33333333333331</ele><time>2026-05-01T07:54:44.998Z</time></trkpt><trkpt lat="41.62513934832666" lon="12.887565640454511"><ele>134.0</ele><time>2026-05-01T07:54:45.998Z</time></trkpt><trkpt lat="41.62531846316079" lon="12.887718406526066"><ele>135.5</ele><time>2026-05-01T07:54:46.998Z</time></trkpt><trkpt lat="41.6255086759032" lon="12.88787661406851"><ele>137.0</ele><time>2026-05-01T07:54:47.998Z</time></trkpt><trkpt lat="41.62570996793535" lon="12.888044922967781"><ele>137.0</ele><time>2026-05-01T07:54:48.998Z</time></trkpt><trkpt lat="41.62591605108624" lon="12.88821729035557"><ele>137.0</ele><time>2026-05-01T07:54:49.998Z</time></trkpt><trkpt lat="41.62612531724743" lon="12.888393445760551"><ele>139.0</ele><time>2026-05-01T07:54:50.998Z</time></trkpt><trkpt lat="41.62633876880793" lon="12.88857070315142"><ele>141.0</ele><time>2026-05-01T07:54:51.998Z</time></trkpt><trkpt lat="41.6265519621849" lon="12.888749044768678"><ele>141.0</ele><time>2026-05-01T07:54:52.998Z</time></trkpt><trkpt lat="41.62674878542977" lon="12.888913896374838"><ele>141.0</ele><time>2026-05-01T07:54:53.998Z</time></trkpt><trkpt lat="41.62694404452153" lon="12.889080333781312"><ele>142.5</ele><time>2026-05-01T07:54:54.998Z</time></trkpt><trkpt lat="41.62713222241744" lon="12.889246286409847"><ele>144.0</ele><time>2026-05-01T07:54:55.998Z</time></trkpt><trkpt lat="41.62731880269668" lon="12.889418784843482"><ele>144.33333333333334</ele><time>2026-05-01T07:54:56.998Z</time></trkpt><trkpt lat="41.62749489634082" lon="12.889599078025702"><ele>144.66666666666669</ele><time>2026-05-01T07:54:57.998Z</time></trkpt><trkpt lat="41.62765198498981" lon="12.889780566871703"><ele>145.0</ele><time>2026-05-01T07:54:58.998Z</time></trkpt><trkpt lat="41.627788915822286" lon="12.88994791757749"><ele>146.33333333333334</ele><time>2026-05-01T07:55:00Z</time></trkpt><trkpt lat="41.6279183617518" lon="12.890097929403955"><ele>147.66666666666666</ele><time>2026-05-01T07:55:01Z</time></trkpt><trkpt lat="41.62805232242969" lon="12.890224664457886"><ele>149.0</ele><time>2026-05-01T07:55:02Z</time></trkpt><trkpt lat="41.62819763546982" lon="12.890310677755886"><ele>149.0</ele><time>2026-05-01T07:55:03Z</time></trkpt><trkpt lat="41.628362913850005" lon="12.890348297135189"><ele>149.0</ele><time>2026-05-01T07:55:04Z</time></trkpt><trkpt lat="41.628530913997665" lon="12.890323511607649"><ele>149.0</ele><time>2026-05-01T07:55:05Z</time></trkpt><trkpt lat="41.628679912431586" lon="12.890287820023339"><ele>150.0</ele><time>2026-05-01T07:55:06Z</time></trkpt><trkpt lat="41.62883089636003" lon="12.890294006197935"><ele>151.0</ele><time>2026-05-01T07:55:07Z</time></trkpt><trkpt lat="41.62898769933306" lon="12.890364870772611"><ele>152.0</ele><time>2026-05-01T07:55:08Z</time></trkpt><trkpt lat="41.629131017986616" lon="12.890487357832892"><ele>152.0</ele><time>2026-05-01T07:55:09Z</time></trkpt><trkpt lat="41.62926173608788" lon="12.890669709123951"><ele>152.0</ele><time>2026-05-01T07:55:10Z</time></trkpt><trkpt lat="41.62938955335336" lon="12.890867657309313"><ele>152.0</ele><time>2026-05-01T07:55:11Z</time></trkpt><trkpt lat="41.62950746439548" lon="12.891039029503663"><ele>153.66666666666666</ele><time>2026-05-01T07:55:12Z</time></trkpt><trkpt lat="41.6296410771326" lon="12.891195581540027"><ele>155.33333333333334</ele><time>2026-05-01T07:55:13Z</time></trkpt><trkpt lat="41.62978890582211" lon="12.891325325601757"><ele>157.0</ele><time>2026-05-01T07:55:14Z</time></trkpt><trkpt lat="41.629928793294184" lon="12.891430976929605"><ele>157.0</ele><time>2026-05-01T07:55:15Z</time></trkpt><trkpt lat="41.63005767358394" lon="12.891544928947877"><ele>157.0</ele><time>2026-05-01T07:55:16Z</time></trkpt><trkpt lat="41.63017052975277" lon="12.891686064342094"><ele>157.0</ele><time>2026-05-01T07:55:17Z</time></trkpt><trkpt lat="41.63027097436" lon="12.891842516431373"><ele>159.0</ele><time>2026-05-01T07:55:18Z</time></trkpt><trkpt lat="41.63036384318269" lon="12.891993922129203"><ele>161.0</ele><time>2026-05-01T07:55:19Z</time></trkpt><trkpt lat="41.6304570209551" lon="12.892149124589974"><ele>163.0</ele><time>2026-05-01T07:55:20Z</time></trkpt><trkpt lat="41.63055267456967" lon="12.892318105267565"><ele>163.0</ele><time>2026-05-01T07:55:21Z</time></trkpt><trkpt lat="41.630637512292715" lon="12.89250405922821"><ele>163.0</ele><time>2026-05-01T07:55:22Z</time></trkpt><trkpt lat="41.63069682904043" lon="12.89268348298805"><ele>163.0</ele><time>2026-05-01T07:55:23Z</time></trkpt><trkpt lat="41.63074010453439" lon="12.892858666377288"><ele>163.0</ele><time>2026-05-01T07:55:24Z</time></trkpt><trkpt lat="41.630757244593" lon="12.893028172808101"><ele>163.25</ele><time>2026-05-01T07:55:25Z</time></trkpt><trkpt lat="41.63076085432266" lon="12.893190198366717"><ele>163.5</ele><time>2026-05-01T07:55:26Z</time></trkpt><trkpt lat="41.63077044535988" lon="12.893349994622657"><ele>163.75</ele><time>2026-05-01T07:55:27Z</time></trkpt><trkpt lat="41.63079052185056" lon="12.893503154144067"><ele>164.0</ele><time>2026-05-01T07:55:28Z</time></trkpt><trkpt lat="41.63082221198449" lon="12.893654760131849"><ele>164.0</ele><time>2026-05-01T07:55:29Z</time></trkpt><trkpt lat="41.63087719854968" lon="12.893804320797356"><ele>164.0</ele><time>2026-05-01T07:55:29.999Z</time></trkpt><trkpt lat="41.63096901291822" lon="12.893947624286707"><ele>164.0</ele><time>2026-05-01T07:55:30.999Z</time></trkpt><trkpt lat="41.631089610954035" lon="12.894075444096655"><ele>164.0</ele><time>2026-05-01T07:55:31.999Z</time></trkpt><trkpt lat="41.63123539648748" lon="12.894204195941876"><ele>165.0</ele><time>2026-05-01T07:55:32.999Z</time></trkpt><trkpt lat="41.631415220558516" lon="12.894333479854351"><ele>166.0</ele><time>2026-05-01T07:55:33.999Z</time></trkpt><trkpt lat="41.63160474595467" lon="12.894469738532532"><ele>167.0</ele><time>2026-05-01T07:55:34.999Z</time></trkpt><trkpt lat="41.63178357513023" lon="12.89460345383422"><ele>167.0</ele><time>2026-05-01T07:55:35.999Z</time></trkpt><trkpt lat="41.63195266339072" lon="12.894740049199042"><ele>167.0</ele><time>2026-05-01T07:55:36.999Z</time></trkpt><trkpt lat="41.63208651984105" lon="12.89486712744284"><ele>167.0</ele><time>2026-05-01T07:55:37.999Z</time></trkpt><trkpt lat="41.63220795307855" lon="12.89502881005394"><ele>169.0</ele><time>2026-05-01T07:55:38.999Z</time></trkpt><trkpt lat="41.632314138255666" lon="12.895222454705202"><ele>171.0</ele><time>2026-05-01T07:55:39.999Z</time></trkpt><trkpt lat="41.632415909637196" lon="12.895444909659508"><ele>173.0</ele><time>2026-05-01T07:55:40.999Z</time></trkpt><trkpt lat="41.63252451831684" lon="12.895683863965193"><ele>173.0</ele><time>2026-05-01T07:55:41.999Z</time></trkpt><trkpt lat="41.6326452878117" lon="12.895908468734513"><ele>173.0</ele><time>2026-05-01T07:55:42.999Z</time></trkpt><trkpt lat="41.63276787782775" lon="12.896117201132197"><ele>173.0</ele><time>2026-05-01T07:55:43.999Z</time></trkpt><trkpt lat="41.632920099306304" lon="12.896302979494548"><ele>174.33333333333331</ele><time>2026-05-01T07:55:44.999Z</time></trkpt><trkpt lat="41.633084733103" lon="12.896469196928656"><ele>175.66666666666666</ele><time>2026-05-01T07:55:45.999Z</time></trkpt><trkpt lat="41.63325019867836" lon="12.896613488356893"><ele>177.0</ele><time>2026-05-01T07:55:46.999Z</time></trkpt><trkpt lat="41.633403243049194" lon="12.896736735636177"><ele>177.66666666666666</ele><time>2026-05-01T07:55:47.999Z</time></trkpt><trkpt lat="41.63355799465896" lon="12.896825004044468"><ele>178.33333333333331</ele><time>2026-05-01T07:55:48.999Z</time></trkpt><trkpt lat="41.63374546350045" lon="12.896868247287447"><ele>179.0</ele><time>2026-05-01T07:55:49.999Z</time></trkpt><trkpt lat="41.63392530381497" lon="12.896877430294767"><ele>180.25</ele><time>2026-05-01T07:55:50.999Z</time></trkpt><trkpt lat="41.63407675442897" lon="12.896887112203242"><ele>181.5</ele><time>2026-05-01T07:55:51.999Z</time></trkpt><trkpt lat="41.634189402025584" lon="12.89698519489536"><ele>182.75</ele><time>2026-05-01T07:55:52.999Z</time></trkpt><trkpt lat="41.634271621990266" lon="12.897141344873601"><ele>184.0</ele><time>2026-05-01T07:55:53.999Z</time></trkpt><trkpt lat="41.63438917067074" lon="12.89732375620908"><ele>185.33333333333334</ele><time>2026-05-01T07:55:54.999Z</time></trkpt><trkpt lat="41.63452056834847" lon="12.897520750578142"><ele>186.66666666666666</ele><time>2026-05-01T07:55:55.999Z</time></trkpt><trkpt lat="41.63465777768996" lon="12.897730339452874"><ele>188.0</ele><time>2026-05-01T07:55:56.999Z</time></trkpt><trkpt lat="41.634783103779924" lon="12.897935376031208"><ele>188.66666666666666</ele><time>2026-05-01T07:55:57.999Z</time></trkpt><trkpt lat="41.63490813001017" lon="12.898149534036698"><ele>189.33333333333334</ele><time>2026-05-01T07:55:58.999Z</time></trkpt><trkpt lat="41.635047945833584" lon="12.898353482041339"><ele>190.0</ele><time>2026-05-01T07:55:59.999Z</time></trkpt><trkpt lat="41.6351792990612" lon="12.89854909062557"><ele>191.33333333333334</ele><time>2026-05-01T07:56:00.999Z</time></trkpt><trkpt lat="41.63530484885937" lon="12.898721584004932"><ele>192.66666666666669</ele><time>2026-05-01T07:56:01.999Z</time></trkpt><trkpt lat="41.635453054855574" lon="12.898868516779293"><ele>194.0</ele><time>2026-05-01T07:56:02.999Z</time></trkpt><trkpt lat="41.63562630620681" lon="12.898997593691814"><ele>194.0</ele><time>2026-05-01T07:56:03.999Z</time></trkpt><trkpt lat="41.63580573044182" lon="12.89911028001717"><ele>194.0</ele><time>2026-05-01T07:56:04.999Z</time></trkpt><trkpt lat="41.6359477052255" lon="12.899244479465434"><ele>194.0</ele><time>2026-05-01T07:56:05.999Z</time></trkpt><trkpt lat="41.636091781367014" lon="12.89933622586186"><ele>196.0</ele><time>2026-05-01T07:56:06.999Z</time></trkpt><trkpt lat="41.63620365081938" lon="12.899491609750141"><ele>198.0</ele><time>2026-05-01T07:56:07.999Z</time></trkpt><trkpt lat="41.63628394370494" lon="12.899686766696647"><ele>200.0</ele><time>2026-05-01T07:56:08.999Z</time></trkpt><trkpt lat="41.63637860546298" lon="12.899890839264536"><ele>200.0</ele><time>2026-05-01T07:56:09.999Z</time></trkpt><trkpt lat="41.63651856378474" lon="12.900062829336779"><ele>200.0</ele><time>2026-05-01T07:56:10.999Z</time></trkpt><trkpt lat="41.63667784880023" lon="12.900230103484137"><ele>200.0</ele><time>2026-05-01T07:56:11.999Z</time></trkpt><trkpt lat="41.636848080171966" lon="12.900384189026596"><ele>201.66666666666669</ele><time>2026-05-01T07:56:12.999Z</time></trkpt><trkpt lat="41.63701951668336" lon="12.900506735976478"><ele>203.33333333333331</ele><time>2026-05-01T07:56:13.999Z</time></trkpt><trkpt lat="41.6371771901839" lon="12.900597437879744"><ele>205.0</ele><time>2026-05-01T07:56:14.999Z</time></trkpt><trkpt lat="41.63729714954651" lon="12.90068391138973"><ele>205.0</ele><time>2026-05-01T07:56:15.999Z</time></trkpt><trkpt lat="41.63739014427641" lon="12.900752223921083"><ele>205.0</ele><time>2026-05-01T07:56:16.999Z</time></trkpt><trkpt lat="41.637483513593246" lon="12.900820226717517"><ele>205.0</ele><time>2026-05-01T07:56:17.999Z</time></trkpt><trkpt lat="41.637546572257236" lon="12.900959548022557"><ele>205.0</ele><time>2026-05-01T07:56:18.999Z</time></trkpt><trkpt lat="41.63757757752562" lon="12.901100004924068"><ele>205.0</ele><time>2026-05-01T07:56:19.999Z</time></trkpt><trkpt lat="41.63756894361641" lon="12.901228944084451"><ele>205.25</ele><time>2026-05-01T07:56:20.999Z</time></trkpt><trkpt lat="41.63755365754694" lon="12.901346387767058"><ele>205.5</ele><time>2026-05-01T07:56:21.999Z</time></trkpt><trkpt lat="41.637530823871074" lon="12.901454225789132"><ele>205.75</ele><time>2026-05-01T07:56:22.999Z</time></trkpt><trkpt lat="41.63752294566119" lon="12.901617070216291"><ele>206.0</ele><time>2026-05-01T07:56:24.999Z</time></trkpt><trkpt lat="41.63771200836702" lon="12.901654239294912"><ele>207.25</ele><time>2026-05-01T07:56:26.999Z</time></trkpt><trkpt lat="41.63782275652718" lon="12.901620095839302"><ele>208.5</ele><time>2026-05-01T07:56:27.999Z</time></trkpt><trkpt lat="41.637959892745485" lon="12.901626074050236"><ele>209.75</ele><time>2026-05-01T07:56:28.999Z</time></trkpt><trkpt lat="41.63811264453013" lon="12.901658358352941"><ele>211.0</ele><time>2026-05-01T07:56:29.999Z</time></trkpt><trkpt lat="41.63827187866701" lon="12.901697952353615"><ele>211.0</ele><time>2026-05-01T07:56:30.999Z</time></trkpt><trkpt lat="41.63843709370765" lon="12.901728624160667"><ele>211.0</ele><time>2026-05-01T07:56:31.999Z</time></trkpt><trkpt lat="41.63861862444622" lon="12.901752718770574"><ele>211.0</ele><time>2026-05-01T07:56:32.999Z</time></trkpt><trkpt lat="41.63880164215496" lon="12.90176537159494"><ele>213.66666666666666</ele><time>2026-05-01T07:56:33.999Z</time></trkpt><trkpt lat="41.63899151243832" lon="12.901768701825274"><ele>216.33333333333331</ele><time>2026-05-01T07:56:34.999Z</time></trkpt><trkpt lat="41.63918362097826" lon="12.901781777714683"><ele>219.0</ele><time>2026-05-01T07:56:35.999Z</time></trkpt><trkpt lat="41.63937574907823" lon="12.901812411569649"><ele>221.33333333333331</ele><time>2026-05-01T07:56:36.998Z</time></trkpt><trkpt lat="41.639553442803034" lon="12.901836160424796"><ele>223.66666666666666</ele><time>2026-05-01T07:56:37.998Z</time></trkpt><trkpt lat="41.63971375619619" lon="12.901848574684031"><ele>226.0</ele><time>2026-05-01T07:56:38.998Z</time></trkpt><trkpt lat="41.639844989424994" lon="12.90185216802014"><ele>226.0</ele><time>2026-05-01T07:56:39.998Z</time></trkpt><trkpt lat="41.639948068329026" lon="12.901844598517947"><ele>226.00000000000003</ele><time>2026-05-01T07:56:40.998Z</time></trkpt><trkpt lat="41.640040000789014" lon="12.901832117442211"><ele>226.00000000000003</ele><time>2026-05-01T07:56:41.998Z</time></trkpt><trkpt lat="41.640134399891615" lon="12.901844891503744"><ele>226.0</ele><time>2026-05-01T07:56:42.998Z</time></trkpt><trkpt lat="41.640240326106934" lon="12.901887084818158"><ele>226.0</ele><time>2026-05-01T07:56:43.998Z</time></trkpt><trkpt lat="41.64036429260628" lon="12.90195217969137"><ele>226.0</ele><time>2026-05-01T07:56:44.998Z</time></trkpt><trkpt lat="41.64048770329236" lon="12.902000205938402"><ele>226.0</ele><time>2026-05-01T07:56:45.998Z</time></trkpt><trkpt lat="41.64058977890657" lon="12.902137753992962"><ele>226.0</ele><time>2026-05-01T07:56:46.998Z</time></trkpt><trkpt lat="41.64066898392506" lon="12.902290152821285"><ele>226.0</ele><time>2026-05-01T07:56:47.998Z</time></trkpt><trkpt lat="41.640717508519124" lon="12.902482276945177"><ele>228.0</ele><time>2026-05-01T07:56:48.998Z</time></trkpt><trkpt lat="41.640780878305655" lon="12.902922765860925"><ele>230.0</ele><time>2026-05-01T07:56:50.998Z</time></trkpt><trkpt lat="41.640789817261236" lon="12.903170571230119"><ele>231.0</ele><time>2026-05-01T07:56:51.998Z</time></trkpt><trkpt lat="41.6407898466598" lon="12.903425160457802"><ele>232.0</ele><time>2026-05-01T07:56:52.998Z</time></trkpt><trkpt lat="41.64079388708586" lon="12.903656102527911"><ele>233.0</ele><time>2026-05-01T07:56:53.998Z</time></trkpt><trkpt lat="41.640778929503284" lon="12.903856673795076"><ele>233.0</ele><time>2026-05-01T07:56:54.998Z</time></trkpt><trkpt lat="41.64077814385033" lon="12.904036845563654"><ele>233.0</ele><time>2026-05-01T07:56:55.998Z</time></trkpt><trkpt lat="41.64078667245056" lon="12.904219516117033"><ele>233.0</ele><time>2026-05-01T07:56:56.998Z</time></trkpt><trkpt lat="41.64077137733085" lon="12.904407685532144"><ele>233.0</ele><time>2026-05-01T07:56:57.998Z</time></trkpt><trkpt lat="41.64075519489156" lon="12.904607296503325"><ele>234.33333333333334</ele><time>2026-05-01T07:56:58.998Z</time></trkpt><trkpt lat="41.64073667399012" lon="12.904820491535553"><ele>235.66666666666669</ele><time>2026-05-01T07:56:59.998Z</time></trkpt><trkpt lat="41.64072090257865" lon="12.90503327930539"><ele>237.0</ele><time>2026-05-01T07:57:00.998Z</time></trkpt><trkpt lat="41.640705381604555" lon="12.905242135503412"><ele>238.5</ele><time>2026-05-01T07:57:01.998Z</time></trkpt><trkpt lat="41.64069195702118" lon="12.905429884081311"><ele>240.0</ele><time>2026-05-01T07:57:02.998Z</time></trkpt><trkpt lat="41.640680704925494" lon="12.905606687816446"><ele>241.5</ele><time>2026-05-01T07:57:03.998Z</time></trkpt><trkpt lat="41.64067602069838" lon="12.905775752022079"><ele>243.0</ele><time>2026-05-01T07:57:04.998Z</time></trkpt><trkpt lat="41.64067464012588" lon="12.905946273816745"><ele>245.0</ele><time>2026-05-01T07:57:06Z</time></trkpt><trkpt lat="41.64067236872346" lon="12.906114585609656"><ele>247.0</ele><time>2026-05-01T07:57:07Z</time></trkpt><trkpt lat="41.640666878086165" lon="12.906279389430154"><ele>249.0</ele><time>2026-05-01T07:57:08Z</time></trkpt><trkpt lat="41.64066319129905" lon="12.906448044170364"><ele>251.0</ele><time>2026-05-01T07:57:09Z</time></trkpt><trkpt lat="41.6406602208584" lon="12.906616534414628"><ele>252.25</ele><time>2026-05-01T07:57:10Z</time></trkpt><trkpt lat="41.640656489014496" lon="12.906783578211408"><ele>253.5</ele><time>2026-05-01T07:57:11Z</time></trkpt><trkpt lat="41.64065085677239" lon="12.906948824626825"><ele>254.75</ele><time>2026-05-01T07:57:12Z</time></trkpt><trkpt lat="41.640647863566606" lon="12.90711506481725"><ele>256.0</ele><time>2026-05-01T07:57:13Z</time></trkpt><trkpt lat="41.640648718292276" lon="12.907276392867294"><ele>256.0</ele><time>2026-05-01T07:57:14Z</time></trkpt><trkpt lat="41.64064841769511" lon="12.907438320766882"><ele>256.0</ele><time>2026-05-01T07:57:15Z</time></trkpt><trkpt lat="41.64063828323568" lon="12.907601612628131"><ele>256.0</ele><time>2026-05-01T07:57:16Z</time></trkpt><trkpt lat="41.64063297723692" lon="12.907768768249225"><ele>256.0</ele><time>2026-05-01T07:57:17Z</time></trkpt><trkpt lat="41.640610069767696" lon="12.907933202128106"><ele>256.0</ele><time>2026-05-01T07:57:18Z</time></trkpt><trkpt lat="41.64054716510274" lon="12.90808182747297"><ele>256.0</ele><time>2026-05-01T07:57:19Z</time></trkpt><trkpt lat="41.64050405748115" lon="12.908244614983438"><ele>256.0</ele><time>2026-05-01T07:57:20Z</time></trkpt><trkpt lat="41.640440144518394" lon="12.908398640691825"><ele>256.0</ele><time>2026-05-01T07:57:21Z</time></trkpt><trkpt lat="41.640375656352326" lon="12.90855240730094"><ele>256.5</ele><time>2026-05-01T07:57:22Z</time></trkpt><trkpt lat="41.640312337202886" lon="12.908705208508955"><ele>257.0</ele><time>2026-05-01T07:57:23Z</time></trkpt><trkpt lat="41.64024935117078" lon="12.908857921738369"><ele>257.5</ele><time>2026-05-01T07:57:24Z</time></trkpt><trkpt lat="41.64018771085255" lon="12.909011299955779"><ele>258.0</ele><time>2026-05-01T07:57:25Z</time></trkpt><trkpt lat="41.64012336590074" lon="12.90916302489513"><ele>260.75</ele><time>2026-05-01T07:57:26Z</time></trkpt><trkpt lat="41.64006033791433" lon="12.909314133508873"><ele>263.5</ele><time>2026-05-01T07:57:27Z</time></trkpt><trkpt lat="41.63999753561139" lon="12.909473503838122"><ele>266.25</ele><time>2026-05-01T07:57:28Z</time></trkpt><trkpt lat="41.639933288946864" lon="12.909629813997372"><ele>269.0</ele><time>2026-05-01T07:57:29Z</time></trkpt><trkpt lat="41.63986964886231" lon="12.909760150694478"><ele>269.0</ele><time>2026-05-01T07:57:30Z</time></trkpt><trkpt lat="41.639800183082805" lon="12.909857273324258"><ele>269.0</ele><time>2026-05-01T07:57:31Z</time></trkpt><trkpt lat="41.63972692926477" lon="12.909929519182413"><ele>269.0</ele><time>2026-05-01T07:57:32Z</time></trkpt><trkpt lat="41.63966351525409" lon="12.90995779966337"><ele>269.0</ele><time>2026-05-01T07:57:33Z</time></trkpt><trkpt lat="41.63958761420085" lon="12.909996700134114"><ele>269.0</ele><time>2026-05-01T07:57:36Z</time></trkpt><trkpt lat="41.63953361385653" lon="12.910052976594011"><ele>269.0</ele><time>2026-05-01T07:57:44.999Z</time></trkpt><trkpt lat="41.639547544722" lon="12.910196568206425"><ele>269.5</ele><time>2026-05-01T07:57:45.999Z</time></trkpt><trkpt lat="41.639576770555166" lon="12.910299063123986"><ele>270.0</ele><time>2026-05-01T07:57:46.999Z</time></trkpt><trkpt lat="41.63960800701496" lon="12.910409039718662"><ele>270.5</ele><time>2026-05-01T07:57:47.999Z</time></trkpt><trkpt lat="41.63964100240276" lon="12.910525684604208"><ele>271.0</ele><time>2026-05-01T07:57:48.999Z</time></trkpt><trkpt lat="41.63967788867923" lon="12.910644946098882"><ele>271.5</ele><time>2026-05-01T07:57:49.999Z</time></trkpt><trkpt lat="41.639709640349025" lon="12.910745772905184"><ele>272.0</ele><time>2026-05-01T07:57:50.999Z</time></trkpt><trkpt lat="41.63974808369985" lon="12.910835787175381"><ele>272.83333333333337</ele><time>2026-05-01T07:57:51.999Z</time></trkpt><trkpt lat="41.63977795250002" lon="12.910923411525458"><ele>273.6666666666667</ele><time>2026-05-01T07:57:52.999Z</time></trkpt><trkpt lat="41.63980208448992" lon="12.911021174462986"><ele>274.5</ele><time>2026-05-01T07:57:53.999Z</time></trkpt><trkpt lat="41.63981482869264" lon="12.911125644685988"><ele>275.3333333333333</ele><time>2026-05-01T07:57:54.999Z</time></trkpt><trkpt lat="41.63985246386277" lon="12.911233716903947"><ele>276.16666666666663</ele><time>2026-05-01T07:57:55.999Z</time></trkpt><trkpt lat="41.6398736002898" lon="12.911351793752774"><ele>277.0</ele><time>2026-05-01T07:57:56.999Z</time></trkpt><trkpt lat="41.63987318081001" lon="12.911481598728127"><ele>277.0</ele><time>2026-05-01T07:57:57.999Z</time></trkpt><trkpt lat="41.63990043587678" lon="12.911607835867493"><ele>277.0</ele><time>2026-05-01T07:57:58.999Z</time></trkpt><trkpt lat="41.6399130657702" lon="12.911739760139794"><ele>277.0</ele><time>2026-05-01T07:57:59.999Z</time></trkpt><trkpt lat="41.63992807233802" lon="12.911874904932242"><ele>277.0</ele><time>2026-05-01T07:58:00.999Z</time></trkpt><trkpt lat="41.63994406607217" lon="12.911996570172679"><ele>277.0</ele><time>2026-05-01T07:58:01.999Z</time></trkpt><trkpt lat="41.63995574458124" lon="12.912128104216414"><ele>277.6</ele><time>2026-05-01T07:58:02.999Z</time></trkpt><trkpt lat="41.639973500003244" lon="12.912259059285502"><ele>278.2</ele><time>2026-05-01T07:58:03.999Z</time></trkpt><trkpt lat="41.6399840438173" lon="12.912390129286173"><ele>278.8</ele><time>2026-05-01T07:58:04.999Z</time></trkpt><trkpt lat="41.639994030314064" lon="12.912514402313471"><ele>279.4</ele><time>2026-05-01T07:58:05.999Z</time></trkpt><trkpt lat="41.639993385197826" lon="12.912646078375994"><ele>280.0</ele><time>2026-05-01T07:58:06.999Z</time></trkpt><trkpt lat="41.63998514063378" lon="12.912782381201325"><ele>280.3333333333333</ele><time>2026-05-01T07:58:07.999Z</time></trkpt><trkpt lat="41.639946297871795" lon="12.912904271280565"><ele>280.66666666666663</ele><time>2026-05-01T07:58:08.999Z</time></trkpt><trkpt lat="41.63992324767404" lon="12.913027042117912"><ele>281.0</ele><time>2026-05-01T07:58:09.999Z</time></trkpt><trkpt lat="41.63990246996915" lon="12.913131369301434"><ele>281.3333333333333</ele><time>2026-05-01T07:58:10.999Z</time></trkpt><trkpt lat="41.63988102915637" lon="12.91323950212366"><ele>281.6666666666667</ele><time>2026-05-01T07:58:11.999Z</time></trkpt><trkpt lat="41.63986155892394" lon="12.91334265492559"><ele>282.0</ele><time>2026-05-01T07:58:12.999Z</time></trkpt><trkpt lat="41.63984286564326" lon="12.913449259344544"><ele>282.0</ele><time>2026-05-01T07:58:13.999Z</time></trkpt><trkpt lat="41.63982342712926" lon="12.913560113681202"><ele>282.0</ele><time>2026-05-01T07:58:14.999Z</time></trkpt><trkpt lat="41.639804230280205" lon="12.913663614393904"><ele>282.0</ele><time>2026-05-01T07:58:15.999Z</time></trkpt><trkpt lat="41.639794652253535" lon="12.91376010812579"><ele>282.0</ele><time>2026-05-01T07:58:16.999Z</time></trkpt><trkpt lat="41.63978396457031" lon="12.913859999369887"><ele>282.0</ele><time>2026-05-01T07:58:17.999Z</time></trkpt><trkpt lat="41.63975094757422" lon="12.91401235376391"><ele>282.0</ele><time>2026-05-01T07:58:19.999Z</time></trkpt><trkpt lat="41.63972032093879" lon="12.914184339698568"><ele>282.8333333333333</ele><time>2026-05-01T07:58:21.999Z</time></trkpt><trkpt lat="41.639687444770125" lon="12.914299178105601"><ele>283.6666666666667</ele><time>2026-05-01T07:58:22.999Z</time></trkpt><trkpt lat="41.639671379133105" lon="12.91442171733706"><ele>284.5</ele><time>2026-05-01T07:58:23.999Z</time></trkpt><trkpt lat="41.639676482979944" lon="12.914538507313322"><ele>285.33333333333337</ele><time>2026-05-01T07:58:24.999Z</time></trkpt><trkpt lat="41.639652833899916" lon="12.91463229550282"><ele>286.1666666666667</ele><time>2026-05-01T07:58:25.999Z</time></trkpt><trkpt lat="41.639645998736356" lon="12.914729379563246"><ele>287.0</ele><time>2026-05-01T07:58:26.999Z</time></trkpt><trkpt lat="41.639641082213416" lon="12.914813724366152"><ele>287.0</ele><time>2026-05-01T07:58:27.999Z</time></trkpt><trkpt lat="41.63964183974244" lon="12.914936857259258"><ele>287.0</ele><time>2026-05-01T07:58:29.999Z</time></trkpt><trkpt lat="41.63963788324209" lon="12.915024325206701"><ele>287.0</ele><time>2026-05-01T07:58:32.999Z</time></trkpt><trkpt lat="41.639623786722765" lon="12.915110435091497"><ele>287.0</ele><time>2026-05-01T07:58:36.999Z</time></trkpt><trkpt lat="41.63970953296765" lon="12.915201498845743"><ele>287.0</ele><time>2026-05-01T07:58:38.999Z</time></trkpt><trkpt lat="41.63977163326403" lon="12.915217505723657"><ele>287.0</ele><time>2026-05-01T07:58:39.999Z</time></trkpt><trkpt lat="41.63988385964397" lon="12.915236855706322"><ele>288.0</ele><time>2026-05-01T07:58:41.998Z</time></trkpt><trkpt lat="41.6399745574202" lon="12.915259066766705"><ele>289.0</ele><time>2026-05-01T07:58:43.998Z</time></trkpt><trkpt lat="41.64007313011992" lon="12.9152783986315"><ele>290.0</ele><time>2026-05-01T07:58:45.998Z</time></trkpt><trkpt lat="41.64016601423453" lon="12.91526149331346"><ele>291.0</ele><time>2026-05-01T07:58:48.998Z</time></trkpt><trkpt lat="41.64023801302326" lon="12.915248359048093"><ele>292.0</ele><time>2026-05-01T07:58:51.998Z</time></trkpt><trkpt lat="41.640250966407415" lon="12.915375282991462"><ele>295.16666666666663</ele><time>2026-05-01T07:58:53.998Z</time></trkpt><trkpt lat="41.640322922919076" lon="12.91550901271463"><ele>298.3333333333333</ele><time>2026-05-01T07:58:55.998Z</time></trkpt><trkpt lat="41.6403709751821" lon="12.915583169802135"><ele>301.5</ele><time>2026-05-01T07:58:56.998Z</time></trkpt><trkpt lat="41.6404083236519" lon="12.915658373367933"><ele>304.6666666666667</ele><time>2026-05-01T07:58:57.998Z</time></trkpt><trkpt lat="41.64042986167977" lon="12.915739242927083"><ele>307.83333333333337</ele><time>2026-05-01T07:58:58.998Z</time></trkpt><trkpt lat="41.64046669331264" lon="12.915816253263253"><ele>311.0</ele><time>2026-05-01T07:58:59.998Z</time></trkpt><trkpt lat="41.64050827692543" lon="12.915890705096807"><ele>310.83333333333337</ele><time>2026-05-01T07:59:00.998Z</time></trkpt><trkpt lat="41.640556295858325" lon="12.915958494392353"><ele>310.6666666666667</ele><time>2026-05-01T07:59:01.998Z</time></trkpt><trkpt lat="41.64060337665611" lon="12.916023937905525"><ele>310.5</ele><time>2026-05-01T07:59:02.998Z</time></trkpt><trkpt lat="41.64066161190942" lon="12.916071181737749"><ele>310.3333333333333</ele><time>2026-05-01T07:59:03.998Z</time></trkpt><trkpt lat="41.640697002453386" lon="12.916148572041083"><ele>310.16666666666663</ele><time>2026-05-01T07:59:04.998Z</time></trkpt><trkpt lat="41.640740412241485" lon="12.916212116375934"><ele>310.0</ele><time>2026-05-01T07:59:05.998Z</time></trkpt><trkpt lat="41.64080631604847" lon="12.916340480837736"><ele>310.0</ele><time>2026-05-01T07:59:07.998Z</time></trkpt><trkpt lat="41.64084438825677" lon="12.916484567377418"><ele>310.0</ele><time>2026-05-01T07:59:09.998Z</time></trkpt><trkpt lat="41.640868696053815" lon="12.916646627248088"><ele>310.0</ele><time>2026-05-01T07:59:12Z</time></trkpt><trkpt lat="41.64089023672393" lon="12.91680514724993"><ele>310.0</ele><time>2026-05-01T07:59:14Z</time></trkpt><trkpt lat="41.640901459421734" lon="12.916888107561263"><ele>310.0</ele><time>2026-05-01T07:59:15Z</time></trkpt><trkpt lat="41.64091299130191" lon="12.916974212213475"><ele>309.8</ele><time>2026-05-01T07:59:16Z</time></trkpt><trkpt lat="41.64093715424164" lon="12.917138229667806"><ele>309.6</ele><time>2026-05-01T07:59:18Z</time></trkpt><trkpt lat="41.64096982379229" lon="12.917297216201968"><ele>309.4</ele><time>2026-05-01T07:59:20Z</time></trkpt><trkpt lat="41.64101098878449" lon="12.917373199825382"><ele>309.2</ele><time>2026-05-01T07:59:21Z</time></trkpt><trkpt lat="41.64106727433456" lon="12.917435392979064"><ele>309.0</ele><time>2026-05-01T07:59:22Z</time></trkpt><trkpt lat="41.64111910833548" lon="12.917497378051161"><ele>312.5</ele><time>2026-05-01T07:59:23Z</time></trkpt><trkpt lat="41.64117171781986" lon="12.917558158157739"><ele>316.0</ele><time>2026-05-01T07:59:24Z</time></trkpt><trkpt lat="41.641224140792914" lon="12.917615174604492"><ele>319.5</ele><time>2026-05-01T07:59:25Z</time></trkpt><trkpt lat="41.64127771175172" lon="12.917677995954865"><ele>323.0</ele><time>2026-05-01T07:59:26Z</time></trkpt><trkpt lat="41.64138470649305" lon="12.917816257769761"><ele>326.5</ele><time>2026-05-01T07:59:28Z</time></trkpt><trkpt lat="41.64143495285442" lon="12.917885732585235"><ele>330.0</ele><time>2026-05-01T07:59:29Z</time></trkpt><trkpt lat="41.641484362071445" lon="12.917954049908245"><ele>330.0</ele><time>2026-05-01T07:59:30Z</time></trkpt><trkpt lat="41.64153474294901" lon="12.918023710840913"><ele>330.0</ele><time>2026-05-01T07:59:31Z</time></trkpt><trkpt lat="41.641583565828" lon="12.918093391687835"><ele>330.0</ele><time>2026-05-01T07:59:32Z</time></trkpt><trkpt lat="41.641632445431796" lon="12.918167092956644"><ele>330.0</ele><time>2026-05-01T07:59:33Z</time></trkpt><trkpt lat="41.64168627194554" lon="12.918255164582856"><ele>330.0</ele><time>2026-05-01T07:59:34Z</time></trkpt><trkpt lat="41.64174172641838" lon="12.918354256728092"><ele>330.0</ele><time>2026-05-01T07:59:35Z</time></trkpt><trkpt lat="41.641794050156534" lon="12.91846021267267"><ele>326.6</ele><time>2026-05-01T07:59:36Z</time></trkpt><trkpt lat="41.64184639089216" lon="12.918574314595501"><ele>323.2</ele><time>2026-05-01T07:59:37Z</time></trkpt><trkpt lat="41.6419023971823" lon="12.91868454674194"><ele>319.8</ele><time>2026-05-01T07:59:38Z</time></trkpt><trkpt lat="41.64196093546069" lon="12.918790494986968"><ele>316.4</ele><time>2026-05-01T07:59:39Z</time></trkpt><trkpt lat="41.6420253095732" lon="12.918886375390548"><ele>313.0</ele><time>2026-05-01T07:59:40Z</time></trkpt><trkpt lat="41.64209371669678" lon="12.918971940037236"><ele>319.8</ele><time>2026-05-01T07:59:40.999Z</time></trkpt><trkpt lat="41.64217649905659" lon="12.919038761753134"><ele>326.6</ele><time>2026-05-01T07:59:41.999Z</time></trkpt><trkpt lat="41.64226695507101" lon="12.919083038602151"><ele>333.40000000000003</ele><time>2026-05-01T07:59:42.999Z</time></trkpt><trkpt lat="41.642356342529624" lon="12.919121026463042"><ele>340.20000000000005</ele><time>2026-05-01T07:59:43.999Z</time></trkpt><trkpt lat="41.642445786225245" lon="12.919147012749294"><ele>347.0</ele><time>2026-05-01T07:59:44.999Z</time></trkpt><trkpt lat="41.64253539245873" lon="12.919151446946152"><ele>347.0</ele><time>2026-05-01T07:59:45.999Z</time></trkpt><trkpt lat="41.642622888896724" lon="12.919178562683161"><ele>347.0</ele><time>2026-05-01T07:59:46.999Z</time></trkpt><trkpt lat="41.64270980586035" lon="12.919213652303274"><ele>347.0</ele><time>2026-05-01T07:59:47.999Z</time></trkpt><trkpt lat="41.64279429547269" lon="12.91925489517858"><ele>347.0</ele><time>2026-05-01T07:59:48.999Z</time></trkpt><trkpt lat="41.64286648783017" lon="12.919323278198263"><ele>347.0</ele><time>2026-05-01T07:59:49.999Z</time></trkpt><trkpt lat="41.642933635253236" lon="12.919345812594349"><ele>347.0</ele><time>2026-05-01T07:59:50.999Z</time></trkpt><trkpt lat="41.64304278681325" lon="12.919392064243375"><ele>350.33333333333337</ele><time>2026-05-01T07:59:52.999Z</time></trkpt><trkpt lat="41.64310426754549" lon="12.91942015676127"><ele>353.6666666666667</ele><time>2026-05-01T07:59:53.999Z</time></trkpt><trkpt lat="41.64317254046702" lon="12.919379407711288"><ele>357.0</ele><time>2026-05-01T07:59:54.999Z</time></trkpt><trkpt lat="41.64321754676404" lon="12.91927296937536"><ele>360.3333333333333</ele><time>2026-05-01T07:59:55.999Z</time></trkpt><trkpt lat="41.64325484472661" lon="12.919167195683848"><ele>363.66666666666663</ele><time>2026-05-01T07:59:56.999Z</time></trkpt><trkpt lat="41.643289479264986" lon="12.919059986083273"><ele>367.0</ele><time>2026-05-01T07:59:57.999Z</time></trkpt><trkpt lat="41.643347734943795" lon="12.918941956942382"><ele>367.0</ele><time>2026-05-01T07:59:59.999Z</time></trkpt><trkpt lat="41.6433989835704" lon="12.918841016463084"><ele>367.0</ele><time>2026-05-01T08:00:01.999Z</time></trkpt><trkpt lat="41.643454897336724" lon="12.918795286676819"><ele>367.0</ele><time>2026-05-01T08:00:03.999Z</time></trkpt><trkpt lat="41.64351700403412" lon="12.918780925852996"><ele>367.0</ele><time>2026-05-01T08:00:04.999Z</time></trkpt><trkpt lat="41.6435856232412" lon="12.918805492041328"><ele>367.0</ele><time>2026-05-01T08:00:05.999Z</time></trkpt><trkpt lat="41.643644881233" lon="12.918881696323691"><ele>367.0</ele><time>2026-05-01T08:00:06.999Z</time></trkpt><trkpt lat="41.64368838811989" lon="12.91899550890473"><ele>370.0</ele><time>2026-05-01T08:00:07.999Z</time></trkpt><trkpt lat="41.643734343285615" lon="12.919091423693793"><ele>373.0</ele><time>2026-05-01T08:00:08.999Z</time></trkpt><trkpt lat="41.643772764368144" lon="12.919180243095644"><ele>376.0</ele><time>2026-05-01T08:00:09.999Z</time></trkpt><trkpt lat="41.64381395587441" lon="12.919310886039327"><ele>379.0</ele><time>2026-05-01T08:00:11.999Z</time></trkpt><trkpt lat="41.64385457602635" lon="12.919393566054369"><ele>382.00000000000006</ele><time>2026-05-01T08:00:14.999Z</time></trkpt><trkpt lat="41.64389262118051" lon="12.919461995461594"><ele>385.0</ele><time>2026-05-01T08:00:18.999Z</time></trkpt><trkpt lat="41.64401542193778" lon="12.919347987841025"><ele>385.00000000000006</ele><time>2026-05-01T08:00:21.999Z</time></trkpt><trkpt lat="41.64404082621463" lon="12.919251237322484"><ele>385.0</ele><time>2026-05-01T08:00:22.999Z</time></trkpt><trkpt lat="41.64406758717915" lon="12.91914826234863"><ele>385.0</ele><time>2026-05-01T08:00:23.999Z</time></trkpt><trkpt lat="41.6440998250337" lon="12.919044085324089"><ele>385.0</ele><time>2026-05-01T08:00:24.999Z</time></trkpt><trkpt lat="41.644134883654125" lon="12.918941933602492"><ele>385.00000000000006</ele><time>2026-05-01T08:00:25.999Z</time></trkpt><trkpt lat="41.64416776119712" lon="12.918838765357044"><ele>385.0</ele><time>2026-05-01T08:00:26.999Z</time></trkpt><trkpt lat="41.64420308280054" lon="12.91872609757276"><ele>385.0</ele><time>2026-05-01T08:00:27.999Z</time></trkpt><trkpt lat="41.644240881194065" lon="12.918608589895424"><ele>385.0</ele><time>2026-05-01T08:00:28.999Z</time></trkpt><trkpt lat="41.64427742424491" lon="12.918484482821047"><ele>385.0</ele><time>2026-05-01T08:00:29.999Z</time></trkpt><trkpt lat="41.64429720338648" lon="12.918387318733746"><ele>385.0</ele><time>2026-05-01T08:00:30.999Z</time></trkpt><trkpt lat="41.64431298509378" lon="12.9182381141727"><ele>385.0</ele><time>2026-05-01T08:00:32.999Z</time></trkpt><trkpt lat="41.644351317189496" lon="12.918079623452726"><ele>385.6</ele><time>2026-05-01T08:00:34.999Z</time></trkpt><trkpt lat="41.64438601629127" lon="12.918003027501998"><ele>386.2</ele><time>2026-05-01T08:00:35.999Z</time></trkpt><trkpt lat="41.64445606558726" lon="12.917919954676014"><ele>386.79999999999995</ele><time>2026-05-01T08:00:38.999Z</time></trkpt><trkpt lat="41.64455660599131" lon="12.918028020322906"><ele>387.4</ele><time>2026-05-01T08:00:40.999Z</time></trkpt><trkpt lat="41.64467887942941" lon="12.918096388090047"><ele>388.0</ele><time>2026-05-01T08:00:42.999Z</time></trkpt><trkpt lat="41.64477433604187" lon="12.918129561019956"><ele>389.4</ele><time>2026-05-01T08:00:43.998Z</time></trkpt><trkpt lat="41.644868099722046" lon="12.918156509707131"><ele>390.79999999999995</ele><time>2026-05-01T08:00:44.998Z</time></trkpt><trkpt lat="41.64494960189476" lon="12.918165057637461"><ele>392.2</ele><time>2026-05-01T08:00:45.998Z</time></trkpt><trkpt lat="41.64501416849474" lon="12.91819100871634"><ele>393.6</ele><time>2026-05-01T08:00:46.998Z</time></trkpt><trkpt lat="41.64509867938625" lon="12.91821754363453"><ele>395.0</ele><time>2026-05-01T08:00:48.998Z</time></trkpt><trkpt lat="41.64511554318311" lon="12.918444141219691"><ele>395.66666666666663</ele><time>2026-05-01T08:00:49.998Z</time></trkpt><trkpt lat="41.64513829181181" lon="12.918577808640888"><ele>396.3333333333333</ele><time>2026-05-01T08:00:50.998Z</time></trkpt><trkpt lat="41.64516214888178" lon="12.918708929918735"><ele>397.0</ele><time>2026-05-01T08:00:51.998Z</time></trkpt><trkpt lat="41.645189230425146" lon="12.918831390114045"><ele>397.66666666666663</ele><time>2026-05-01T08:00:52.998Z</time></trkpt><trkpt lat="41.645215752154975" lon="12.918925833205646"><ele>398.3333333333333</ele><time>2026-05-01T08:00:53.998Z</time></trkpt><trkpt lat="41.645251065192866" lon="12.919010679875539"><ele>399.0</ele><time>2026-05-01T08:00:54.998Z</time></trkpt><trkpt lat="41.64529553870345" lon="12.919085939361727"><ele>400.0</ele><time>2026-05-01T08:00:55.998Z</time></trkpt><trkpt lat="41.64535003926379" lon="12.919155286989508"><ele>401.0</ele><time>2026-05-01T08:00:56.998Z</time></trkpt><trkpt lat="41.6454112660196" lon="12.919216266487217"><ele>402.0</ele><time>2026-05-01T08:00:57.998Z</time></trkpt><trkpt lat="41.6454774588503" lon="12.91926577010542"><ele>403.0</ele><time>2026-05-01T08:00:58.998Z</time></trkpt><trkpt lat="41.64554659630168" lon="12.919317289513884"><ele>404.0</ele><time>2026-05-01T08:00:59.998Z</time></trkpt><trkpt lat="41.645611598306196" lon="12.919369133595916"><ele>405.0</ele><time>2026-05-01T08:01:00.998Z</time></trkpt><trkpt lat="41.645673271785796" lon="12.919448173064044"><ele>405.6</ele><time>2026-05-01T08:01:01.998Z</time></trkpt><trkpt lat="41.64571869359199" lon="12.919538831213911"><ele>406.2</ele><time>2026-05-01T08:01:02.998Z</time></trkpt><trkpt lat="41.645749893533825" lon="12.919652122907234"><ele>406.79999999999995</ele><time>2026-05-01T08:01:03.998Z</time></trkpt><trkpt lat="41.64580232719141" lon="12.91975049194605"><ele>407.4</ele><time>2026-05-01T08:01:04.998Z</time></trkpt><trkpt lat="41.64585963846738" lon="12.919848703891248"><ele>408.0</ele><time>2026-05-01T08:01:05.998Z</time></trkpt><trkpt lat="41.645921808386504" lon="12.919944390056687"><ele>408.0</ele><time>2026-05-01T08:01:06.998Z</time></trkpt><trkpt lat="41.64599543146323" lon="12.920029501332937"><ele>408.0</ele><time>2026-05-01T08:01:07.998Z</time></trkpt><trkpt lat="41.64607337463848" lon="12.920102481159136"><ele>408.0</ele><time>2026-05-01T08:01:08.998Z</time></trkpt><trkpt lat="41.646145574295524" lon="12.920174620032302"><ele>408.0</ele><time>2026-05-01T08:01:09.998Z</time></trkpt><trkpt lat="41.646217640169276" lon="12.92025003780873"><ele>408.0</ele><time>2026-05-01T08:01:10.998Z</time></trkpt><trkpt lat="41.64629144094015" lon="12.920325982862506"><ele>409.0</ele><time>2026-05-01T08:01:11.998Z</time></trkpt><trkpt lat="41.646368381540846" lon="12.92040050462659"><ele>410.0</ele><time>2026-05-01T08:01:12.998Z</time></trkpt><trkpt lat="41.64645204034193" lon="12.920458657035967"><ele>411.0</ele><time>2026-05-01T08:01:13.998Z</time></trkpt><trkpt lat="41.64653042636988" lon="12.920525460144136"><ele>412.0</ele><time>2026-05-01T08:01:14.998Z</time></trkpt><trkpt lat="41.6466058549125" lon="12.920596766290315"><ele>413.0</ele><time>2026-05-01T08:01:15.998Z</time></trkpt><trkpt lat="41.646680016148814" lon="12.920673108997246"><ele>413.0</ele><time>2026-05-01T08:01:16.998Z</time></trkpt><trkpt lat="41.64675330871907" lon="12.92075184303116"><ele>413.0</ele><time>2026-05-01T08:01:18Z</time></trkpt><trkpt lat="41.64680063411702" lon="12.920864041251207"><ele>413.0</ele><time>2026-05-01T08:01:19Z</time></trkpt><trkpt lat="41.646850909460774" lon="12.920973417403314"><ele>413.0</ele><time>2026-05-01T08:01:20Z</time></trkpt><trkpt lat="41.64689970876673" lon="12.92109093482246"><ele>413.0</ele><time>2026-05-01T08:01:21Z</time></trkpt><trkpt lat="41.64694385566898" lon="12.921211274181545"><ele>415.2</ele><time>2026-05-01T08:01:22Z</time></trkpt><trkpt lat="41.64698821209069" lon="12.921333737178053"><ele>417.4</ele><time>2026-05-01T08:01:23Z</time></trkpt><trkpt lat="41.64703072612237" lon="12.9214591052065"><ele>419.59999999999997</ele><time>2026-05-01T08:01:24Z</time></trkpt><trkpt lat="41.64708208953173" lon="12.921578501990794"><ele>421.79999999999995</ele><time>2026-05-01T08:01:25Z</time></trkpt><trkpt lat="41.64711858000911" lon="12.921706732174622"><ele>424.0</ele><time>2026-05-01T08:01:26Z</time></trkpt><trkpt lat="41.647137879294725" lon="12.92184268895774"><ele>424.6</ele><time>2026-05-01T08:01:27Z</time></trkpt><trkpt lat="41.647170179997616" lon="12.921977721812457"><ele>425.2</ele><time>2026-05-01T08:01:28Z</time></trkpt><trkpt lat="41.64721597559233" lon="12.922105412295982"><ele>425.80000000000007</ele><time>2026-05-01T08:01:29Z</time></trkpt><trkpt lat="41.647246792015075" lon="12.922239710755806"><ele>426.40000000000003</ele><time>2026-05-01T08:01:30Z</time></trkpt><trkpt lat="41.6472582319229" lon="12.922379963803339"><ele>427.0</ele><time>2026-05-01T08:01:31Z</time></trkpt><trkpt lat="41.647263240062784" lon="12.922516622647537"><ele>428.20000000000005</ele><time>2026-05-01T08:01:32Z</time></trkpt><trkpt lat="41.647239081179315" lon="12.922643667596406"><ele>429.40000000000003</ele><time>2026-05-01T08:01:33Z</time></trkpt><trkpt lat="41.64720848491877" lon="12.922779012955308"><ele>430.59999999999997</ele><time>2026-05-01T08:01:34Z</time></trkpt><trkpt lat="41.64718649690825" lon="12.922912152642928"><ele>431.79999999999995</ele><time>2026-05-01T08:01:35Z</time></trkpt><trkpt lat="41.64716622976909" lon="12.923030623143005"><ele>433.0</ele><time>2026-05-01T08:01:36Z</time></trkpt><trkpt lat="41.64715322690197" lon="12.923115825797074"><ele>433.00000000000006</ele><time>2026-05-01T08:01:37Z</time></trkpt><trkpt lat="41.64719050102355" lon="12.923242718978408"><ele>433.0</ele><time>2026-05-01T08:01:38.999Z</time></trkpt><trkpt lat="41.64725145731944" lon="12.923264733727493"><ele>433.0</ele><time>2026-05-01T08:01:39.999Z</time></trkpt><trkpt lat="41.64731880533389" lon="12.92325334923388"><ele>433.0</ele><time>2026-05-01T08:01:40.999Z</time></trkpt><trkpt lat="41.64739129331209" lon="12.923217525480773"><ele>433.00000000000006</ele><time>2026-05-01T08:01:41.999Z</time></trkpt><trkpt lat="41.64744531719189" lon="12.923097963721016"><ele>433.0</ele><time>2026-05-01T08:01:42.999Z</time></trkpt><trkpt lat="41.64752790294692" lon="12.923020264945558"><ele>433.0</ele><time>2026-05-01T08:01:43.999Z</time></trkpt><trkpt lat="41.64760267958136" lon="12.922924900161473"><ele>432.99999999999994</ele><time>2026-05-01T08:01:44.999Z</time></trkpt><trkpt lat="41.647663116198686" lon="12.922818889057755"><ele>432.99999999999994</ele><time>2026-05-01T08:01:45.999Z</time></trkpt><trkpt lat="41.647726402331266" lon="12.922738087185781"><ele>433.0</ele><time>2026-05-01T08:01:46.999Z</time></trkpt><trkpt lat="41.647774124980025" lon="12.92267726098921"><ele>433.0</ele><time>2026-05-01T08:01:47.999Z</time></trkpt><trkpt lat="41.64787309623186" lon="12.922601377265856"><ele>436.2</ele><time>2026-05-01T08:01:49.999Z</time></trkpt><trkpt lat="41.647970970589576" lon="12.922698086013781"><ele>439.4</ele><time>2026-05-01T08:01:51.999Z</time></trkpt><trkpt lat="41.64798545693917" lon="12.922812855958114"><ele>442.59999999999997</ele><time>2026-05-01T08:01:52.999Z</time></trkpt><trkpt lat="41.64802746583847" lon="12.922929980171276"><ele>445.79999999999995</ele><time>2026-05-01T08:01:53.999Z</time></trkpt><trkpt lat="41.64806168214824" lon="12.923070435766967"><ele>449.0</ele><time>2026-05-01T08:01:54.999Z</time></trkpt><trkpt lat="41.648097126735074" lon="12.923210676124764"><ele>449.0</ele><time>2026-05-01T08:01:55.999Z</time></trkpt><trkpt lat="41.64812610266386" lon="12.92335007506517"><ele>449.0</ele><time>2026-05-01T08:01:56.999Z</time></trkpt><trkpt lat="41.64812711380306" lon="12.923491918384174"><ele>449.0</ele><time>2026-05-01T08:01:57.999Z</time></trkpt><trkpt lat="41.648143778668064" lon="12.923628703407344"><ele>449.0</ele><time>2026-05-01T08:01:58.999Z</time></trkpt><trkpt lat="41.648159556568054" lon="12.923761964939532"><ele>449.0</ele><time>2026-05-01T08:01:59.999Z</time></trkpt><trkpt lat="41.64817755490267" lon="12.92389672268435"><ele>449.4</ele><time>2026-05-01T08:02:00.999Z</time></trkpt><trkpt lat="41.648197228491696" lon="12.924029530053557"><ele>449.79999999999995</ele><time>2026-05-01T08:02:01.999Z</time></trkpt><trkpt lat="41.64821658640881" lon="12.924161935126381"><ele>450.20000000000005</ele><time>2026-05-01T08:02:02.999Z</time></trkpt><trkpt lat="41.64823324170914" lon="12.92429222072952"><ele>450.6</ele><time>2026-05-01T08:02:03.999Z</time></trkpt><trkpt lat="41.64824621061895" lon="12.924405434873782"><ele>451.0</ele><time>2026-05-01T08:02:04.999Z</time></trkpt><trkpt lat="41.64825789297586" lon="12.924507417840333"><ele>451.57142857142856</ele><time>2026-05-01T08:02:05.999Z</time></trkpt><trkpt lat="41.64827950185488" lon="12.92459066387364"><ele>452.14285714285717</ele><time>2026-05-01T08:02:06.999Z</time></trkpt><trkpt lat="41.64828862708911" lon="12.92467833048241"><ele>452.7142857142857</ele><time>2026-05-01T08:02:07.999Z</time></trkpt><trkpt lat="41.648314531870156" lon="12.924764664069194"><ele>453.2857142857143</ele><time>2026-05-01T08:02:08.999Z</time></trkpt><trkpt lat="41.64836557036194" lon="12.924839697770365"><ele>453.8571428571429</ele><time>2026-05-01T08:02:09.999Z</time></trkpt><trkpt lat="41.64843622023078" lon="12.92488454563031"><ele>454.42857142857144</ele><time>2026-05-01T08:02:10.999Z</time></trkpt><trkpt lat="41.64851348194623" lon="12.92488592775156"><ele>455.0</ele><time>2026-05-01T08:02:11.999Z</time></trkpt><trkpt lat="41.64858931871517" lon="12.92484731604705"><ele>458.8</ele><time>2026-05-01T08:02:12.999Z</time></trkpt><trkpt lat="41.648664592180644" lon="12.924784007268528"><ele>462.6</ele><time>2026-05-01T08:02:13.999Z</time></trkpt><trkpt lat="41.648743604167485" lon="12.924713081020768"><ele>466.4</ele><time>2026-05-01T08:02:14.999Z</time></trkpt><trkpt lat="41.64882068206956" lon="12.924636837849254"><ele>470.2</ele><time>2026-05-01T08:02:15.999Z</time></trkpt><trkpt lat="41.648881957694236" lon="12.92454301291768"><ele>474.0</ele><time>2026-05-01T08:02:16.999Z</time></trkpt><trkpt lat="41.648926462179475" lon="12.924425000144504"><ele>474.0</ele><time>2026-05-01T08:02:17.999Z</time></trkpt><trkpt lat="41.64896049795197" lon="12.924301747804186"><ele>474.0</ele><time>2026-05-01T08:02:18.999Z</time></trkpt><trkpt lat="41.64900935347221" lon="12.924199137249914"><ele>474.0</ele><time>2026-05-01T08:02:19.999Z</time></trkpt><trkpt lat="41.649039145789665" lon="12.924107056812067"><ele>474.0</ele><time>2026-05-01T08:02:20.999Z</time></trkpt><trkpt lat="41.649066914990826" lon="12.924021229370794"><ele>474.0</ele><time>2026-05-01T08:02:21.999Z</time></trkpt><trkpt lat="41.64913785538896" lon="12.923880488916124"><ele>474.0</ele><time>2026-05-01T08:02:23.999Z</time></trkpt><trkpt lat="41.64921160757736" lon="12.923899339810218"><ele>474.0</ele><time>2026-05-01T08:02:24.999Z</time></trkpt><trkpt lat="41.649265717100796" lon="12.92400548786806"><ele>474.0</ele><time>2026-05-01T08:02:25.999Z</time></trkpt><trkpt lat="41.64929797795476" lon="12.924112303904927"><ele>474.0</ele><time>2026-05-01T08:02:26.999Z</time></trkpt><trkpt lat="41.64930436094759" lon="12.924240538150675"><ele>474.0</ele><time>2026-05-01T08:02:27.999Z</time></trkpt><trkpt lat="41.64934639918221" lon="12.924372461009224"><ele>474.0</ele><time>2026-05-01T08:02:28.999Z</time></trkpt><trkpt lat="41.64935841548144" lon="12.924517215744943"><ele>474.0</ele><time>2026-05-01T08:02:29.999Z</time></trkpt><trkpt lat="41.64938991223334" lon="12.924659175423521"><ele>474.0</ele><time>2026-05-01T08:02:30.999Z</time></trkpt><trkpt lat="41.64942423863169" lon="12.924806707085327"><ele>474.0</ele><time>2026-05-01T08:02:31.999Z</time></trkpt><trkpt lat="41.649456828963785" lon="12.9249467876856"><ele>474.0</ele><time>2026-05-01T08:02:32.999Z</time></trkpt><trkpt lat="41.64948590723645" lon="12.925075868511897"><ele>475.2</ele><time>2026-05-01T08:02:33.999Z</time></trkpt><trkpt lat="41.64950184312866" lon="12.925186447577834"><ele>476.4</ele><time>2026-05-01T08:02:34.999Z</time></trkpt><trkpt lat="41.6494960453588" lon="12.925303394859009"><ele>477.6</ele><time>2026-05-01T08:02:35.999Z</time></trkpt><trkpt lat="41.649470891194284" lon="12.925416414387637"><ele>478.8</ele><time>2026-05-01T08:02:36.999Z</time></trkpt><trkpt lat="41.6494516347377" lon="12.925550037424449"><ele>480.0</ele><time>2026-05-01T08:02:37.999Z</time></trkpt><trkpt lat="41.6494637469938" lon="12.925678967910187"><ele>479.8333333333333</ele><time>2026-05-01T08:02:38.998Z</time></trkpt><trkpt lat="41.649478965043" lon="12.925799759053358"><ele>479.66666666666663</ele><time>2026-05-01T08:02:39.998Z</time></trkpt><trkpt lat="41.649488017346165" lon="12.925904933442164"><ele>479.5</ele><time>2026-05-01T08:02:40.998Z</time></trkpt><trkpt lat="41.649462309389364" lon="12.926012955162134"><ele>479.3333333333333</ele><time>2026-05-01T08:02:41.998Z</time></trkpt><trkpt lat="41.64946711512554" lon="12.926117225936054"><ele>479.16666666666663</ele><time>2026-05-01T08:02:42.998Z</time></trkpt><trkpt lat="41.649458397702126" lon="12.926205718000112"><ele>479.0</ele><time>2026-05-01T08:02:43.998Z</time></trkpt><trkpt lat="41.64961663338979" lon="12.926314665872267"><ele>481.49999999999994</ele><time>2026-05-01T08:02:46.998Z</time></trkpt><trkpt lat="41.649698892440135" lon="12.926275624692412"><ele>484.0</ele><time>2026-05-01T08:02:47.998Z</time></trkpt><trkpt lat="41.64978421847691" lon="12.92627771292872"><ele>486.5</ele><time>2026-05-01T08:02:48.998Z</time></trkpt><trkpt lat="41.64986527479387" lon="12.926272205492563"><ele>489.0</ele><time>2026-05-01T08:02:49.998Z</time></trkpt><trkpt lat="41.64994709329308" lon="12.926296168226566"><ele>491.49999999999994</ele><time>2026-05-01T08:02:50.998Z</time></trkpt><trkpt lat="41.65002104418076" lon="12.926372315683892"><ele>494.0</ele><time>2026-05-01T08:02:51.998Z</time></trkpt><trkpt lat="41.65010264848282" lon="12.926443777026503"><ele>493.99999999999994</ele><time>2026-05-01T08:02:52.998Z</time></trkpt><trkpt lat="41.65019082600398" lon="12.926499023870056"><ele>494.0</ele><time>2026-05-01T08:02:53.998Z</time></trkpt><trkpt lat="41.650266775110865" lon="12.926562957927"><ele>494.0</ele><time>2026-05-01T08:02:54.998Z</time></trkpt><trkpt lat="41.65034004475944" lon="12.926612469850705"><ele>494.0</ele><time>2026-05-01T08:02:55.998Z</time></trkpt><trkpt lat="41.65041854094138" lon="12.92665113463255"><ele>493.99999999999994</ele><time>2026-05-01T08:02:56.998Z</time></trkpt><trkpt lat="41.650508446960686" lon="12.926671351525293"><ele>494.0</ele><time>2026-05-01T08:02:57.998Z</time></trkpt><trkpt lat="41.65060201670333" lon="12.926683559219953"><ele>492.4</ele><time>2026-05-01T08:02:58.998Z</time></trkpt><trkpt lat="41.650694697791835" lon="12.926690295607253"><ele>490.79999999999995</ele><time>2026-05-01T08:02:59.998Z</time></trkpt><trkpt lat="41.6507842767703" lon="12.926730244953461"><ele>489.20000000000005</ele><time>2026-05-01T08:03:00.998Z</time></trkpt><trkpt lat="41.65087480939828" lon="12.926768077034362"><ele>487.6</ele><time>2026-05-01T08:03:01.998Z</time></trkpt><trkpt lat="41.65095913971125" lon="12.92682074207712"><ele>486.0</ele><time>2026-05-01T08:03:02.998Z</time></trkpt><trkpt lat="41.6510397841588" lon="12.926863369915514"><ele>486.0</ele><time>2026-05-01T08:03:03.998Z</time></trkpt><trkpt lat="41.651103923107165" lon="12.926914518821446"><ele>486.0</ele><time>2026-05-01T08:03:04.998Z</time></trkpt><trkpt lat="41.6511672393074" lon="12.926933768901247"><ele>486.0</ele><time>2026-05-01T08:03:05.998Z</time></trkpt><trkpt lat="41.651271508658674" lon="12.926893926272198"><ele>486.0</ele><time>2026-05-01T08:03:07.998Z</time></trkpt><trkpt lat="41.65129185659899" lon="12.926801477831102"><ele>486.0</ele><time>2026-05-01T08:03:08.998Z</time></trkpt><trkpt lat="41.65124561335134" lon="12.926707547688165"><ele>486.0</ele><time>2026-05-01T08:03:09.998Z</time></trkpt><trkpt lat="41.65118036425845" lon="12.926642714387246"><ele>491.4</ele><time>2026-05-01T08:03:10.998Z</time></trkpt><trkpt lat="41.651089052318994" lon="12.92659042264296"><ele>496.8</ele><time>2026-05-01T08:03:11.998Z</time></trkpt><trkpt lat="41.65099938430318" lon="12.926529746653536"><ele>502.19999999999993</ele><time>2026-05-01T08:03:12.998Z</time></trkpt><trkpt lat="41.65091684947815" lon="12.92644034907451"><ele>507.59999999999997</ele><time>2026-05-01T08:03:13.998Z</time></trkpt><trkpt lat="41.650843378932095" lon="12.926333351311936"><ele>513.0</ele><time>2026-05-01T08:03:14.998Z</time></trkpt><trkpt lat="41.6507855420445" lon="12.926213672870412"><ele>513.0</ele><time>2026-05-01T08:03:15.998Z</time></trkpt><trkpt lat="41.65075687411849" lon="12.926079626747574"><ele>513.0</ele><time>2026-05-01T08:03:16.998Z</time></trkpt><trkpt lat="41.65078966539053" lon="12.92594360675692"><ele>513.0</ele><time>2026-05-01T08:03:17.998Z</time></trkpt><trkpt lat="41.65079296064489" lon="12.925807790956416"><ele>513.0</ele><time>2026-05-01T08:03:18.998Z</time></trkpt><trkpt lat="41.65081042092104" lon="12.925677680429207"><ele>513.0</ele><time>2026-05-01T08:03:19.998Z</time></trkpt><trkpt lat="41.650820532611064" lon="12.925543766562985"><ele>516.1999999999999</ele><time>2026-05-01T08:03:20.998Z</time></trkpt><trkpt lat="41.65082148454001" lon="12.92540779280658"><ele>519.4</ele><time>2026-05-01T08:03:21.998Z</time></trkpt><trkpt lat="41.65082504776062" lon="12.925272073669296"><ele>522.5999999999999</ele><time>2026-05-01T08:03:22.998Z</time></trkpt><trkpt lat="41.650828384197574" lon="12.925136004424713"><ele>525.8</ele><time>2026-05-01T08:03:23.999Z</time></trkpt><trkpt lat="41.65083424712427" lon="12.92500157524231"><ele>529.0</ele><time>2026-05-01T08:03:24.999Z</time></trkpt><trkpt lat="41.65083989155587" lon="12.924875931218924"><ele>529.8333333333334</ele><time>2026-05-01T08:03:25.999Z</time></trkpt><trkpt lat="41.65085187550196" lon="12.924770420458291"><ele>530.6666666666667</ele><time>2026-05-01T08:03:26.999Z</time></trkpt><trkpt lat="41.65086620455761" lon="12.924687097545743"><ele>531.5</ele><time>2026-05-01T08:03:27.999Z</time></trkpt><trkpt lat="41.65089164387311" lon="12.92459942560194"><ele>532.3333333333334</ele><time>2026-05-01T08:03:28.999Z</time></trkpt><trkpt lat="41.65091423021226" lon="12.924488162983417"><ele>533.1666666666666</ele><time>2026-05-01T08:03:29.999Z</time></trkpt><trkpt lat="41.65092840512097" lon="12.92435860925831"><ele>534.0</ele><time>2026-05-01T08:03:30.999Z</time></trkpt><trkpt lat="41.650935365435146" lon="12.924223179545335"><ele>535.4</ele><time>2026-05-01T08:03:31.999Z</time></trkpt><trkpt lat="41.65093263250341" lon="12.924085585696233"><ele>536.8</ele><time>2026-05-01T08:03:32.999Z</time></trkpt><trkpt lat="41.65093179463277" lon="12.923946525788647"><ele>538.2</ele><time>2026-05-01T08:03:33.999Z</time></trkpt><trkpt lat="41.65093385178009" lon="12.923805866917869"><ele>539.6</ele><time>2026-05-01T08:03:34.999Z</time></trkpt><trkpt lat="41.65093300626516" lon="12.92366286123688"><ele>541.0</ele><time>2026-05-01T08:03:35.999Z</time></trkpt><trkpt lat="41.65092153397486" lon="12.923518524497066"><ele>542.0</ele><time>2026-05-01T08:03:36.999Z</time></trkpt><trkpt lat="41.65089611380487" lon="12.923373759535119"><ele>543.0</ele><time>2026-05-01T08:03:37.999Z</time></trkpt><trkpt lat="41.650865440952664" lon="12.923229852535153"><ele>544.0</ele><time>2026-05-01T08:03:38.999Z</time></trkpt><trkpt lat="41.65084111160286" lon="12.923082536368497"><ele>545.0</ele><time>2026-05-01T08:03:39.999Z</time></trkpt><trkpt lat="41.65084490093933" lon="12.922934605151253"><ele>546.0</ele><time>2026-05-01T08:03:40.999Z</time></trkpt><trkpt lat="41.650826592317415" lon="12.922781941662763"><ele>546.0</ele><time>2026-05-01T08:03:41.999Z</time></trkpt><trkpt lat="41.65082791013906" lon="12.922632910874713"><ele>546.0</ele><time>2026-05-01T08:03:42.999Z</time></trkpt><trkpt lat="41.650831275171726" lon="12.922482376485233"><ele>546.0</ele><time>2026-05-01T08:03:43.999Z</time></trkpt><trkpt lat="41.65083424369076" lon="12.922328742575381"><ele>546.0</ele><time>2026-05-01T08:03:44.999Z</time></trkpt><trkpt lat="41.65083353702797" lon="12.922177170725325"><ele>548.0</ele><time>2026-05-01T08:03:45.999Z</time></trkpt><trkpt lat="41.65083362568044" lon="12.92202298924169"><ele>550.0</ele><time>2026-05-01T08:03:46.999Z</time></trkpt><trkpt lat="41.650828260076196" lon="12.92187393356107"><ele>552.0</ele><time>2026-05-01T08:03:47.999Z</time></trkpt><trkpt lat="41.650836939705194" lon="12.921729234948986"><ele>554.0</ele><time>2026-05-01T08:03:48.999Z</time></trkpt><trkpt lat="41.650820978845076" lon="12.921609240386818"><ele>556.0</ele><time>2026-05-01T08:03:49.999Z</time></trkpt><trkpt lat="41.65084097588713" lon="12.921460144974185"><ele>557.4</ele><time>2026-05-01T08:03:50.999Z</time></trkpt><trkpt lat="41.65085342247074" lon="12.921312476544898"><ele>558.8</ele><time>2026-05-01T08:03:51.999Z</time></trkpt><trkpt lat="41.650854220496086" lon="12.921168556269265"><ele>560.1999999999999</ele><time>2026-05-01T08:03:52.999Z</time></trkpt><trkpt lat="41.650879082498726" lon="12.921033575732089"><ele>561.6</ele><time>2026-05-01T08:03:53.999Z</time></trkpt><trkpt lat="41.65090569612644" lon="12.920892198823504"><ele>563.0</ele><time>2026-05-01T08:03:54.999Z</time></trkpt><trkpt lat="41.65094338215974" lon="12.920763082150746"><ele>563.6</ele><time>2026-05-01T08:03:55.999Z</time></trkpt><trkpt lat="41.65099033235634" lon="12.920637003506283"><ele>564.1999999999999</ele><time>2026-05-01T08:03:56.999Z</time></trkpt><trkpt lat="41.651043626969035" lon="12.920512874382512"><ele>564.8</ele><time>2026-05-01T08:03:57.999Z</time></trkpt><trkpt lat="41.65110075574994" lon="12.920393404219855"><ele>565.4</ele><time>2026-05-01T08:03:58.999Z</time></trkpt><trkpt lat="41.65116096687958" lon="12.920273363902352"><ele>566.0</ele><time>2026-05-01T08:03:59.999Z</time></trkpt><trkpt lat="41.65122297994297" lon="12.920158001829074"><ele>571.4</ele><time>2026-05-01T08:04:00.999Z</time></trkpt><trkpt lat="41.65128529772701" lon="12.920042621437162"><ele>576.8</ele><time>2026-05-01T08:04:01.999Z</time></trkpt><trkpt lat="41.65134779354011" lon="12.919927486995444"><ele>582.1999999999999</ele><time>2026-05-01T08:04:02.999Z</time></trkpt><trkpt lat="41.651408366062654" lon="12.919813238764775"><ele>587.6</ele><time>2026-05-01T08:04:03.999Z</time></trkpt><trkpt lat="41.65146040576147" lon="12.919687084692637"><ele>593.0</ele><time>2026-05-01T08:04:04.999Z</time></trkpt><trkpt lat="41.65150908680263" lon="12.919559538798786"><ele>593.0</ele><time>2026-05-01T08:04:05.999Z</time></trkpt><trkpt lat="41.65155417281212" lon="12.919431626028693"><ele>593.0</ele><time>2026-05-01T08:04:06.999Z</time></trkpt><trkpt lat="41.65159802980737" lon="12.91930550199669"><ele>593.0</ele><time>2026-05-01T08:04:07.999Z</time></trkpt><trkpt lat="41.651642428023415" lon="12.919175086650585"><ele>593.0</ele><time>2026-05-01T08:04:08.999Z</time></trkpt><trkpt lat="41.651682961953505" lon="12.9190442419804"><ele>593.0</ele><time>2026-05-01T08:04:09.999Z</time></trkpt><trkpt lat="41.6517115266351" lon="12.918906362035875"><ele>591.1999999999999</ele><time>2026-05-01T08:04:10.999Z</time></trkpt><trkpt lat="41.65173103974919" lon="12.91876308477536"><ele>589.4</ele><time>2026-05-01T08:04:11.999Z</time></trkpt><trkpt lat="41.651745236740695" lon="12.918618858276622"><ele>587.5999999999999</ele><time>2026-05-01T08:04:12.999Z</time></trkpt><trkpt lat="41.65176122772623" lon="12.918471455745573"><ele>585.8</ele><time>2026-05-01T08:04:13.999Z</time></trkpt><trkpt lat="41.651778404438446" lon="12.918324930671073"><ele>584.0</ele><time>2026-05-01T08:04:14.999Z</time></trkpt><trkpt lat="41.65179396917507" lon="12.918178678055128"><ele>584.0</ele><time>2026-05-01T08:04:15.999Z</time></trkpt><trkpt lat="41.65180915706358" lon="12.918034061051078"><ele>584.0</ele><time>2026-05-01T08:04:16.999Z</time></trkpt><trkpt lat="41.65182369565349" lon="12.917899119792503"><ele>584.0</ele><time>2026-05-01T08:04:17.999Z</time></trkpt><trkpt lat="41.65183708191013" lon="12.917789309272532"><ele>584.0</ele><time>2026-05-01T08:04:18.999Z</time></trkpt><trkpt lat="41.65185869750065" lon="12.9176907666655"><ele>584.0</ele><time>2026-05-01T08:04:19.999Z</time></trkpt><trkpt lat="41.651905024146934" lon="12.917600758772496"><ele>586.4</ele><time>2026-05-01T08:04:20.999Z</time></trkpt><trkpt lat="41.65198750352048" lon="12.917557182503423"><ele>588.8</ele><time>2026-05-01T08:04:21.999Z</time></trkpt><trkpt lat="41.65207564152692" lon="12.917570428885387"><ele>591.2</ele><time>2026-05-01T08:04:22.999Z</time></trkpt><trkpt lat="41.652140041067284" lon="12.917658782435304"><ele>593.6</ele><time>2026-05-01T08:04:23.999Z</time></trkpt><trkpt lat="41.65215704469014" lon="12.917782153619381"><ele>596.0</ele><time>2026-05-01T08:04:24.999Z</time></trkpt><trkpt lat="41.65211800762036" lon="12.917916900886514"><ele>598.4</ele><time>2026-05-01T08:04:25.999Z</time></trkpt><trkpt lat="41.65212106475795" lon="12.91805836178342"><ele>600.8</ele><time>2026-05-01T08:04:26.999Z</time></trkpt><trkpt lat="41.65211333001801" lon="12.918192780334744"><ele>603.1999999999999</ele><time>2026-05-01T08:04:27.999Z</time></trkpt><trkpt lat="41.652110597571166" lon="12.918322200064281"><ele>605.6</ele><time>2026-05-01T08:04:28.999Z</time></trkpt><trkpt lat="41.65210950907471" lon="12.918444642055066"><ele>608.0</ele><time>2026-05-01T08:04:29.999Z</time></trkpt><trkpt lat="41.65210678014519" lon="12.918570119327502"><ele>609.4</ele><time>2026-05-01T08:04:30.999Z</time></trkpt><trkpt lat="41.65210490687618" lon="12.918695158617314"><ele>610.8</ele><time>2026-05-01T08:04:31.999Z</time></trkpt><trkpt lat="41.65210491144528" lon="12.918822960671916"><ele>612.2</ele><time>2026-05-01T08:04:32.999Z</time></trkpt><trkpt lat="41.65208856448378" lon="12.918955629203873"><ele>613.6</ele><time>2026-05-01T08:04:33.999Z</time></trkpt><trkpt lat="41.6520818059575" lon="12.91908844939788"><ele>615.0</ele><time>2026-05-01T08:04:34.999Z</time></trkpt><trkpt lat="41.652075137668504" lon="12.919221335940222"><ele>617.0</ele><time>2026-05-01T08:04:35.999Z</time></trkpt><trkpt lat="41.65207994244571" lon="12.919361394167815"><ele>619.0</ele><time>2026-05-01T08:04:36.999Z</time></trkpt><trkpt lat="41.652065537760876" lon="12.919498312048871"><ele>621.0</ele><time>2026-05-01T08:04:37.999Z</time></trkpt><trkpt lat="41.65205519732098" lon="12.91962995860616"><ele>623.0</ele><time>2026-05-01T08:04:38.999Z</time></trkpt><trkpt lat="41.652046666422585" lon="12.919754437589765"><ele>625.0</ele><time>2026-05-01T08:04:39.999Z</time></trkpt><trkpt lat="41.652039244757695" lon="12.919861272245216"><ele>625.0</ele><time>2026-05-01T08:04:40.999Z</time></trkpt><trkpt lat="41.65203910434183" lon="12.919958076112367"><ele>625.0</ele><time>2026-05-01T08:04:41.999Z</time></trkpt><trkpt lat="41.652063377524186" lon="12.92003828541381"><ele>625.0</ele><time>2026-05-01T08:04:42.999Z</time></trkpt><trkpt lat="41.65212119422645" lon="12.920080917286734"><ele>625.0</ele><time>2026-05-01T08:04:43.999Z</time></trkpt><trkpt lat="41.65225440724736" lon="12.919968308237522"><ele>625.0</ele><time>2026-05-01T08:04:45.999Z</time></trkpt><trkpt lat="41.652282401403006" lon="12.919847937087344"><ele>625.0</ele><time>2026-05-01T08:04:46.999Z</time></trkpt><trkpt lat="41.65230906152943" lon="12.919716067460604"><ele>625.0</ele><time>2026-05-01T08:04:47.998Z</time></trkpt><trkpt lat="41.65234969256687" lon="12.919581211875702"><ele>625.0</ele><time>2026-05-01T08:04:48.998Z</time></trkpt><trkpt lat="41.65240160556819" lon="12.919441148628561"><ele>625.0</ele><time>2026-05-01T08:04:49.998Z</time></trkpt><trkpt lat="41.6524464561407" lon="12.919295411082437"><ele>625.0</ele><time>2026-05-01T08:04:50.998Z</time></trkpt><trkpt lat="41.65248844229748" lon="12.919151308477115"><ele>623.0</ele><time>2026-05-01T08:04:51.998Z</time></trkpt><trkpt lat="41.65252723684824" lon="12.919008573699223"><ele>621.0</ele><time>2026-05-01T08:04:52.998Z</time></trkpt><trkpt lat="41.652563287209624" lon="12.918869985253789"><ele>619.0</ele><time>2026-05-01T08:04:53.998Z</time></trkpt><trkpt lat="41.65259723766577" lon="12.918739828186599"><ele>617.0</ele><time>2026-05-01T08:04:54.998Z</time></trkpt><trkpt lat="41.65263416398812" lon="12.91862679278296"><ele>615.0</ele><time>2026-05-01T08:04:55.998Z</time></trkpt><trkpt lat="41.652689163434516" lon="12.918549600986994"><ele>615.0</ele><time>2026-05-01T08:04:56.998Z</time></trkpt><trkpt lat="41.65276881761658" lon="12.918513014383654"><ele>615.0</ele><time>2026-05-01T08:04:57.998Z</time></trkpt><trkpt lat="41.65285626649487" lon="12.918556735801605"><ele>615.0</ele><time>2026-05-01T08:04:58.998Z</time></trkpt><trkpt lat="41.65291069104977" lon="12.918676332803567"><ele>615.0</ele><time>2026-05-01T08:04:59.998Z</time></trkpt><trkpt lat="41.6529959093089" lon="12.918762305630962"><ele>615.0</ele><time>2026-05-01T08:05:00.998Z</time></trkpt><trkpt lat="41.65306387661679" lon="12.918862118611706"><ele>616.3333333333334</ele><time>2026-05-01T08:05:01.998Z</time></trkpt><trkpt lat="41.65312649802127" lon="12.918952034086837"><ele>617.6666666666666</ele><time>2026-05-01T08:05:02.998Z</time></trkpt><trkpt lat="41.653185462513036" lon="12.91903544624223"><ele>619.0</ele><time>2026-05-01T08:05:03.998Z</time></trkpt><trkpt lat="41.653242481258275" lon="12.919114203928622"><ele>620.3333333333333</ele><time>2026-05-01T08:05:04.998Z</time></trkpt><trkpt lat="41.65329724287947" lon="12.919195124169912"><ele>621.6666666666666</ele><time>2026-05-01T08:05:05.998Z</time></trkpt><trkpt lat="41.65333459083054" lon="12.9192928391422"><ele>623.0</ele><time>2026-05-01T08:05:06.998Z</time></trkpt><trkpt lat="41.653390709484796" lon="12.919379372557954"><ele>625.6</ele><time>2026-05-01T08:05:07.998Z</time></trkpt><trkpt lat="41.65343888618939" lon="12.919477222590489"><ele>628.1999999999999</ele><time>2026-05-01T08:05:08.998Z</time></trkpt><trkpt lat="41.653493527718005" lon="12.919577345186173"><ele>630.8</ele><time>2026-05-01T08:05:09.998Z</time></trkpt><trkpt lat="41.6535609294333" lon="12.919665053097164"><ele>633.4</ele><time>2026-05-01T08:05:10.998Z</time></trkpt><trkpt lat="41.653642431524915" lon="12.919737238321622"><ele>636.0</ele><time>2026-05-01T08:05:11.998Z</time></trkpt><trkpt lat="41.65372872493411" lon="12.919801926505567"><ele>636.0</ele><time>2026-05-01T08:05:12.998Z</time></trkpt><trkpt lat="41.65381673859346" lon="12.919860406345787"><ele>636.0</ele><time>2026-05-01T08:05:13.998Z</time></trkpt><trkpt lat="41.65390738444382" lon="12.919915026861137"><ele>636.0</ele><time>2026-05-01T08:05:14.998Z</time></trkpt><trkpt lat="41.6539923165934" lon="12.9199960632301"><ele>636.0</ele><time>2026-05-01T08:05:15.998Z</time></trkpt><trkpt lat="41.654083186120616" lon="12.920060111495577"><ele>636.0</ele><time>2026-05-01T08:05:16.998Z</time></trkpt><trkpt lat="41.65417391084975" lon="12.920124783347886"><ele>637.6</ele><time>2026-05-01T08:05:17.998Z</time></trkpt><trkpt lat="41.65427089670905" lon="12.920173507157653"><ele>639.2</ele><time>2026-05-01T08:05:18.998Z</time></trkpt><trkpt lat="41.654357841155786" lon="12.9202480614539"><ele>640.8000000000001</ele><time>2026-05-01T08:05:19.998Z</time></trkpt><trkpt lat="41.65444989496176" lon="12.920315901114847"><ele>642.4000000000001</ele><time>2026-05-01T08:05:20.998Z</time></trkpt><trkpt lat="41.65454534042885" lon="12.92037910411205"><ele>644.0</ele><time>2026-05-01T08:05:21.998Z</time></trkpt><trkpt lat="41.65464496630961" lon="12.920430237162421"><ele>644.0</ele><time>2026-05-01T08:05:22.998Z</time></trkpt><trkpt lat="41.65474970562408" lon="12.920467514362993"><ele>644.0</ele><time>2026-05-01T08:05:23.998Z</time></trkpt><trkpt lat="41.65485590755867" lon="12.920490191510739"><ele>644.0</ele><time>2026-05-01T08:05:24.998Z</time></trkpt><trkpt lat="41.65496171423746" lon="12.920509304321437"><ele>644.0</ele><time>2026-05-01T08:05:25.998Z</time></trkpt><trkpt lat="41.65506540113558" lon="12.920524806918937"><ele>644.0</ele><time>2026-05-01T08:05:26.998Z</time></trkpt><trkpt lat="41.65517079879473" lon="12.920547396016493"><ele>644.0</ele><time>2026-05-01T08:05:27.998Z</time></trkpt><trkpt lat="41.6552738565395" lon="12.920571361074863"><ele>644.0</ele><time>2026-05-01T08:05:28.999Z</time></trkpt><trkpt lat="41.655378638192865" lon="12.920593989362377"><ele>644.0</ele><time>2026-05-01T08:05:29.999Z</time></trkpt><trkpt lat="41.65548325038598" lon="12.920614342336215"><ele>644.0</ele><time>2026-05-01T08:05:30.999Z</time></trkpt><trkpt lat="41.65558863294381" lon="12.920634434354282"><ele>644.0</ele><time>2026-05-01T08:05:31.999Z</time></trkpt><trkpt lat="41.655693387867274" lon="12.920651913050568"><ele>644.6</ele><time>2026-05-01T08:05:32.999Z</time></trkpt><trkpt lat="41.6557998857137" lon="12.920676811233683"><ele>645.2</ele><time>2026-05-01T08:05:33.999Z</time></trkpt><trkpt lat="41.65590602404079" lon="12.92070772310093"><ele>645.8000000000001</ele><time>2026-05-01T08:05:34.999Z</time></trkpt><trkpt lat="41.65601261067389" lon="12.920733592469063"><ele>646.4000000000001</ele><time>2026-05-01T08:05:35.999Z</time></trkpt><trkpt lat="41.65612039402287" lon="12.920740533379542"><ele>647.0</ele><time>2026-05-01T08:05:36.999Z</time></trkpt><trkpt lat="41.65622755441888" lon="12.92074071286122"><ele>647.4000000000001</ele><time>2026-05-01T08:05:37.999Z</time></trkpt><trkpt lat="41.6563301036158" lon="12.920727373724493"><ele>647.8000000000001</ele><time>2026-05-01T08:05:38.999Z</time></trkpt><trkpt lat="41.65642985758871" lon="12.920708428488796"><ele>648.2</ele><time>2026-05-01T08:05:39.999Z</time></trkpt><trkpt lat="41.656532480509426" lon="12.920684622584005"><ele>648.6</ele><time>2026-05-01T08:05:40.999Z</time></trkpt><trkpt lat="41.65663387067784" lon="12.920660955808263"><ele>649.0</ele><time>2026-05-01T08:05:41.999Z</time></trkpt><trkpt lat="41.65673359969249" lon="12.92063403535798"><ele>649.0</ele><time>2026-05-01T08:05:42.999Z</time></trkpt><trkpt lat="41.6568378180933" lon="12.920600971204417"><ele>649.0</ele><time>2026-05-01T08:05:43.999Z</time></trkpt><trkpt lat="41.656941935976654" lon="12.92057349876334"><ele>649.0</ele><time>2026-05-01T08:05:44.999Z</time></trkpt><trkpt lat="41.65704314726128" lon="12.920547687579225"><ele>649.0</ele><time>2026-05-01T08:05:45.999Z</time></trkpt><trkpt lat="41.657144376956694" lon="12.920520756616588"><ele>649.0</ele><time>2026-05-01T08:05:46.999Z</time></trkpt><trkpt lat="41.65724989607642" lon="12.920486692914908"><ele>649.6</ele><time>2026-05-01T08:05:47.999Z</time></trkpt><trkpt lat="41.657353812045" lon="12.920451334313071"><ele>650.2</ele><time>2026-05-01T08:05:48.999Z</time></trkpt><trkpt lat="41.65745983429432" lon="12.920414724282985"><ele>650.8000000000001</ele><time>2026-05-01T08:05:49.999Z</time></trkpt><trkpt lat="41.65756532945716" lon="12.920386123481824"><ele>651.4000000000001</ele><time>2026-05-01T08:05:50.999Z</time></trkpt><trkpt lat="41.65766738807103" lon="12.920353905767584"><ele>652.0</ele><time>2026-05-01T08:05:51.999Z</time></trkpt><trkpt lat="41.65775292157321" lon="12.920328398042853"><ele>650.1666666666667</ele><time>2026-05-01T08:05:52.999Z</time></trkpt><trkpt lat="41.65784429537974" lon="12.920319328308901"><ele>648.3333333333334</ele><time>2026-05-01T08:05:54.999Z</time></trkpt><trkpt lat="41.657917556959944" lon="12.920281189776421"><ele>646.5</ele><time>2026-05-01T08:07:23.998Z</time></trkpt><trkpt lat="41.6579881811282" lon="12.9202588222896"><ele>644.6666666666666</ele><time>2026-05-01T08:07:24.998Z</time></trkpt><trkpt lat="41.65806280766416" lon="12.920217925521724"><ele>642.8333333333333</ele><time>2026-05-01T08:07:25.998Z</time></trkpt><trkpt lat="41.65814419345585" lon="12.920190123335185"><ele>641.0</ele><time>2026-05-01T08:07:26.998Z</time></trkpt><trkpt lat="41.658228032348724" lon="12.920166923526828"><ele>641.0</ele><time>2026-05-01T08:07:27.998Z</time></trkpt><trkpt lat="41.65832887535228" lon="12.920136172058072"><ele>641.0</ele><time>2026-05-01T08:07:28.998Z</time></trkpt><trkpt lat="41.658437085772995" lon="12.920108167899398"><ele>641.0</ele><time>2026-05-01T08:07:29.998Z</time></trkpt><trkpt lat="41.65854216484413" lon="12.920074941587231"><ele>641.0</ele><time>2026-05-01T08:07:30.998Z</time></trkpt><trkpt lat="41.65864957140088" lon="12.920065716780888"><ele>641.0</ele><time>2026-05-01T08:07:31.998Z</time></trkpt><trkpt lat="41.65875645546426" lon="12.920041548682903"><ele>643.75</ele><time>2026-05-01T08:07:32.998Z</time></trkpt><trkpt lat="41.658864665226204" lon="12.920022161674265"><ele>646.5</ele><time>2026-05-01T08:07:33.998Z</time></trkpt><trkpt lat="41.658979571267835" lon="12.920008360535013"><ele>649.25</ele><time>2026-05-01T08:07:34.999Z</time></trkpt><trkpt lat="41.65909827058287" lon="12.920011453738748"><ele>652.0</ele><time>2026-05-01T08:07:35.999Z</time></trkpt><trkpt lat="41.65921951737506" lon="12.920028150819292"><ele>652.0</ele><time>2026-05-01T08:07:36.999Z</time></trkpt><trkpt lat="41.6593469769741" lon="12.920032813938153"><ele>652.0</ele><time>2026-05-01T08:07:37.999Z</time></trkpt><trkpt lat="41.65947525451825" lon="12.920052591400255"><ele>652.0</ele><time>2026-05-01T08:07:38.999Z</time></trkpt><trkpt lat="41.65959546488793" lon="12.920071928828602"><ele>652.0</ele><time>2026-05-01T08:07:39.999Z</time></trkpt><trkpt lat="41.659704565957064" lon="12.920113845564696"><ele>651.8</ele><time>2026-05-01T08:07:40.999Z</time></trkpt><trkpt lat="41.65980963632628" lon="12.92013297671553"><ele>651.6</ele><time>2026-05-01T08:07:41.999Z</time></trkpt><trkpt lat="41.65991482804985" lon="12.920130914569407"><ele>651.4</ele><time>2026-05-01T08:07:42.999Z</time></trkpt><trkpt lat="41.66001503722922" lon="12.920159554772873"><ele>651.1999999999999</ele><time>2026-05-01T08:07:43.999Z</time></trkpt><trkpt lat="41.66011988444525" lon="12.920178892125636"><ele>651.0</ele><time>2026-05-01T08:07:44.999Z</time></trkpt><trkpt lat="41.66022402464826" lon="12.92020465308662"><ele>652.5999999999999</ele><time>2026-05-01T08:07:45.999Z</time></trkpt><trkpt lat="41.66032492539494" lon="12.920227571993038"><ele>654.2</ele><time>2026-05-01T08:07:46.999Z</time></trkpt><trkpt lat="41.66042629074055" lon="12.920253497413139"><ele>655.8</ele><time>2026-05-01T08:07:47.999Z</time></trkpt><trkpt lat="41.660525598810345" lon="12.920271802415847"><ele>657.4000000000001</ele><time>2026-05-01T08:07:48.999Z</time></trkpt><trkpt lat="41.66062648572274" lon="12.920297832877752"><ele>659.0</ele><time>2026-05-01T08:07:49.999Z</time></trkpt><trkpt lat="41.66072643138664" lon="12.920322720243888"><ele>659.0</ele><time>2026-05-01T08:07:50.999Z</time></trkpt><trkpt lat="41.66082864768911" lon="12.920348263125645"><ele>659.0</ele><time>2026-05-01T08:07:51.999Z</time></trkpt><trkpt lat="41.66092952088256" lon="12.920374283719491"><ele>659.0</ele><time>2026-05-01T08:07:52.999Z</time></trkpt><trkpt lat="41.66102589755284" lon="12.920397116624086"><ele>659.0</ele><time>2026-05-01T08:07:53.999Z</time></trkpt><trkpt lat="41.6611237074376" lon="12.920416523602748"><ele>659.0</ele><time>2026-05-01T08:07:54.999Z</time></trkpt><trkpt lat="41.66121929545278" lon="12.920442722569335"><ele>660.8000000000001</ele><time>2026-05-01T08:07:55.999Z</time></trkpt><trkpt lat="41.66131384366869" lon="12.920470773946077"><ele>662.6</ele><time>2026-05-01T08:07:56.999Z</time></trkpt><trkpt lat="41.6614142779785" lon="12.920492454125839"><ele>664.4</ele><time>2026-05-01T08:07:57.999Z</time></trkpt><trkpt lat="41.66151537330223" lon="12.920520060033216"><ele>666.2</ele><time>2026-05-01T08:07:58.999Z</time></trkpt><trkpt lat="41.66161918218072" lon="12.920547018385133"><ele>668.0</ele><time>2026-05-01T08:07:59.999Z</time></trkpt><trkpt lat="41.661724767723875" lon="12.920571914874643"><ele>668.0</ele><time>2026-05-01T08:08:00.999Z</time></trkpt><trkpt lat="41.66183198613324" lon="12.920594983214833"><ele>668.0</ele><time>2026-05-01T08:08:01.999Z</time></trkpt><trkpt lat="41.66193753069895" lon="12.92061941392029"><ele>668.0</ele><time>2026-05-01T08:08:02.999Z</time></trkpt><trkpt lat="41.66204685565018" lon="12.920638017818483"><ele>668.0</ele><time>2026-05-01T08:08:03.999Z</time></trkpt><trkpt lat="41.66215856474681" lon="12.920640753209652"><ele>668.0</ele><time>2026-05-01T08:08:04.999Z</time></trkpt><trkpt lat="41.662271157857596" lon="12.920627419636403"><ele>669.5</ele><time>2026-05-01T08:08:05.999Z</time></trkpt><trkpt lat="41.66238529356616" lon="12.920601942920086"><ele>671.0</ele><time>2026-05-01T08:08:06.999Z</time></trkpt><trkpt lat="41.662498842620394" lon="12.920577203704848"><ele>672.5</ele><time>2026-05-01T08:08:07.999Z</time></trkpt><trkpt lat="41.66261103118874" lon="12.92055146072259"><ele>674.0</ele><time>2026-05-01T08:08:08.999Z</time></trkpt><trkpt lat="41.66272099976226" lon="12.92052606913446"><ele>676.2</ele><time>2026-05-01T08:08:09.999Z</time></trkpt><trkpt lat="41.66282922906659" lon="12.92050612907677"><ele>678.4000000000001</ele><time>2026-05-01T08:08:10.999Z</time></trkpt><trkpt lat="41.66293604319335" lon="12.92048848206392"><ele>680.6</ele><time>2026-05-01T08:08:11.999Z</time></trkpt><trkpt lat="41.66304215443165" lon="12.920472819740805"><ele>682.8</ele><time>2026-05-01T08:08:12.999Z</time></trkpt><trkpt lat="41.66314970140311" lon="12.920458542669497"><ele>685.0</ele><time>2026-05-01T08:08:13.999Z</time></trkpt><trkpt lat="41.663257158503285" lon="12.9204498725787"><ele>685.0</ele><time>2026-05-01T08:08:14.999Z</time></trkpt><trkpt lat="41.66336408371991" lon="12.920447217538417"><ele>685.0</ele><time>2026-05-01T08:08:15.999Z</time></trkpt><trkpt lat="41.6634752756422" lon="12.920448367303392"><ele>685.0</ele><time>2026-05-01T08:08:16.999Z</time></trkpt><trkpt lat="41.66358126358453" lon="12.920448169682118"><ele>685.0</ele><time>2026-05-01T08:08:17.999Z</time></trkpt><trkpt lat="41.66368272698294" lon="12.920460716621255"><ele>685.0</ele><time>2026-05-01T08:08:18.999Z</time></trkpt><trkpt lat="41.66379242905401" lon="12.9204926719839"><ele>684.75</ele><time>2026-05-01T08:08:19.999Z</time></trkpt><trkpt lat="41.66390545912736" lon="12.920549225543567"><ele>684.5</ele><time>2026-05-01T08:08:20.999Z</time></trkpt><trkpt lat="41.66400268764902" lon="12.920655258416728"><ele>684.25</ele><time>2026-05-01T08:08:21.999Z</time></trkpt><trkpt lat="41.66410067501526" lon="12.920756922241804"><ele>684.0</ele><time>2026-05-01T08:08:22.999Z</time></trkpt><trkpt lat="41.66417959633564" lon="12.920878344489534"><ele>684.25</ele><time>2026-05-01T08:08:23.999Z</time></trkpt><trkpt lat="41.664258143404766" lon="12.921015491113186"><ele>684.5</ele><time>2026-05-01T08:08:24.999Z</time></trkpt><trkpt lat="41.66433879003115" lon="12.921165757436732"><ele>684.75</ele><time>2026-05-01T08:08:25.999Z</time></trkpt><trkpt lat="41.664420646701885" lon="12.921318276252812"><ele>685.0</ele><time>2026-05-01T08:08:26.999Z</time></trkpt><trkpt lat="41.664504712794844" lon="12.921474910804937"><ele>685.0</ele><time>2026-05-01T08:08:27.999Z</time></trkpt><trkpt lat="41.664590407194936" lon="12.921634579266112"><ele>685.0</ele><time>2026-05-01T08:08:28.999Z</time></trkpt><trkpt lat="41.66470732554745" lon="12.921765751503727"><ele>685.0</ele><time>2026-05-01T08:08:29.999Z</time></trkpt><trkpt lat="41.664814946243574" lon="12.921905637771559"><ele>685.0</ele><time>2026-05-01T08:08:30.999Z</time></trkpt><trkpt lat="41.664927113151144" lon="12.922038738808185"><ele>686.75</ele><time>2026-05-01T08:08:31.999Z</time></trkpt><trkpt lat="41.66504317548707" lon="12.92217163087834"><ele>688.5</ele><time>2026-05-01T08:08:32.999Z</time></trkpt><trkpt lat="41.66515509051294" lon="12.922303674630745"><ele>690.25</ele><time>2026-05-01T08:08:33.999Z</time></trkpt><trkpt lat="41.665261669525" lon="12.922435766861664"><ele>692.0</ele><time>2026-05-01T08:08:34.999Z</time></trkpt><trkpt lat="41.66536013147828" lon="12.922558339412879"><ele>694.25</ele><time>2026-05-01T08:08:35.999Z</time></trkpt><trkpt lat="41.665464958823264" lon="12.922673263712866"><ele>696.5</ele><time>2026-05-01T08:08:36.999Z</time></trkpt><trkpt lat="41.665570448034586" lon="12.92276347662826"><ele>698.75</ele><time>2026-05-01T08:08:37.999Z</time></trkpt><trkpt lat="41.66567864679288" lon="12.922834463199012"><ele>701.0</ele><time>2026-05-01T08:08:38.999Z</time></trkpt><trkpt lat="41.66579496195029" lon="12.922858367615284"><ele>701.0</ele><time>2026-05-01T08:08:39.999Z</time></trkpt><trkpt lat="41.66591238602621" lon="12.922839642709656"><ele>701.0</ele><time>2026-05-01T08:08:40.999Z</time></trkpt><trkpt lat="41.66602359239434" lon="12.92278629287463"><ele>701.0</ele><time>2026-05-01T08:08:41.999Z</time></trkpt><trkpt lat="41.666128560056954" lon="12.9226987355128"><ele>701.0</ele><time>2026-05-01T08:08:42.999Z</time></trkpt><trkpt lat="41.66623116249791" lon="12.922596032914372"><ele>701.75</ele><time>2026-05-01T08:08:43.999Z</time></trkpt><trkpt lat="41.666338216457035" lon="12.92249421758234"><ele>702.5</ele><time>2026-05-01T08:08:44.999Z</time></trkpt><trkpt lat="41.66644495495104" lon="12.92239232365959"><ele>703.25</ele><time>2026-05-01T08:08:45.999Z</time></trkpt><trkpt lat="41.66655672253099" lon="12.922293115735096"><ele>704.0</ele><time>2026-05-01T08:08:46.999Z</time></trkpt><trkpt lat="41.666668748723424" lon="12.922193499566056"><ele>704.0</ele><time>2026-05-01T08:08:47.999Z</time></trkpt><trkpt lat="41.66677631316192" lon="12.922084133403695"><ele>704.0</ele><time>2026-05-01T08:08:48.999Z</time></trkpt><trkpt lat="41.66687425625977" lon="12.921963037304272"><ele>704.0</ele><time>2026-05-01T08:08:49.999Z</time></trkpt><trkpt lat="41.66696475643255" lon="12.921822072298516"><ele>704.0</ele><time>2026-05-01T08:08:50.999Z</time></trkpt><trkpt lat="41.667051843217585" lon="12.921665025488524"><ele>703.6666666666666</ele><time>2026-05-01T08:08:51.999Z</time></trkpt><trkpt lat="41.66713417542517" lon="12.92149492294579"><ele>703.3333333333334</ele><time>2026-05-01T08:08:52.999Z</time></trkpt><trkpt lat="41.66721346649595" lon="12.921312953577495"><ele>703.0</ele><time>2026-05-01T08:08:53.999Z</time></trkpt><trkpt lat="41.66729508389664" lon="12.921131002395738"><ele>703.0</ele><time>2026-05-01T08:08:54.999Z</time></trkpt><trkpt lat="41.66737489859608" lon="12.92094673471484"><ele>703.0</ele><time>2026-05-01T08:08:55.998Z</time></trkpt><trkpt lat="41.66745440114418" lon="12.920760455340153"><ele>703.0</ele><time>2026-05-01T08:08:56.998Z</time></trkpt><trkpt lat="41.66753698480911" lon="12.920575839276449"><ele>700.0</ele><time>2026-05-01T08:08:57.998Z</time></trkpt><trkpt lat="41.66761879931787" lon="12.920392673618398"><ele>697.0</ele><time>2026-05-01T08:08:58.998Z</time></trkpt><trkpt lat="41.66769916536747" lon="12.920211200748621"><ele>694.0</ele><time>2026-05-01T08:08:59.998Z</time></trkpt><trkpt lat="41.66777443445859" lon="12.920042107859578"><ele>697.5</ele><time>2026-05-01T08:09:00.998Z</time></trkpt><trkpt lat="41.667847423009555" lon="12.919886858239998"><ele>701.0</ele><time>2026-05-01T08:09:01.998Z</time></trkpt><trkpt lat="41.66793451964094" lon="12.919746379161388"><ele>704.5</ele><time>2026-05-01T08:09:02.998Z</time></trkpt><trkpt lat="41.66804146045299" lon="12.919618637007854"><ele>708.0</ele><time>2026-05-01T08:09:03.998Z</time></trkpt><trkpt lat="41.66815864946208" lon="12.919495795695365"><ele>708.0</ele><time>2026-05-01T08:09:04.998Z</time></trkpt><trkpt lat="41.66828365602492" lon="12.919378817936428"><ele>708.0</ele><time>2026-05-01T08:09:05.998Z</time></trkpt><trkpt lat="41.66841005195429" lon="12.919258884908388"><ele>708.0</ele><time>2026-05-01T08:09:06.998Z</time></trkpt><trkpt lat="41.66853294530125" lon="12.91913955073105"><ele>708.25</ele><time>2026-05-01T08:09:07.998Z</time></trkpt><trkpt lat="41.66864346582898" lon="12.919026521353347"><ele>708.5</ele><time>2026-05-01T08:09:08.998Z</time></trkpt><trkpt lat="41.66874531260107" lon="12.918920526468524"><ele>708.75</ele><time>2026-05-01T08:09:09.998Z</time></trkpt><trkpt lat="41.6688447183464" lon="12.918818121427666"><ele>709.0</ele><time>2026-05-01T08:09:10.998Z</time></trkpt><trkpt lat="41.6689566646292" lon="12.918729138223915"><ele>709.0</ele><time>2026-05-01T08:09:11.998Z</time></trkpt><trkpt lat="41.66908957189888" lon="12.918680443607608"><ele>709.0</ele><time>2026-05-01T08:09:12.998Z</time></trkpt><trkpt lat="41.6692309921004" lon="12.918655384778074"><ele>709.0</ele><time>2026-05-01T08:09:13.998Z</time></trkpt><trkpt lat="41.669362447328346" lon="12.91865156797616"><ele>709.0</ele><time>2026-05-01T08:09:14.998Z</time></trkpt><trkpt lat="41.66948218089036" lon="12.91865992091311"><ele>706.5</ele><time>2026-05-01T08:09:15.998Z</time></trkpt><trkpt lat="41.66959391254954" lon="12.918725186704476"><ele>704.0</ele><time>2026-05-01T08:09:16.998Z</time></trkpt><trkpt lat="41.66969301124695" lon="12.918838516844884"><ele>701.5</ele><time>2026-05-01T08:09:17.998Z</time></trkpt><trkpt lat="41.66978325732052" lon="12.918983718157524"><ele>699.0</ele><time>2026-05-01T08:09:18.998Z</time></trkpt><trkpt lat="41.66987166546923" lon="12.919133168130093"><ele>704.5</ele><time>2026-05-01T08:09:19.998Z</time></trkpt><trkpt lat="41.6699649724769" lon="12.919280653601238"><ele>710.0</ele><time>2026-05-01T08:09:20.998Z</time></trkpt><trkpt lat="41.670063728165026" lon="12.919423133260842"><ele>715.5</ele><time>2026-05-01T08:09:21.998Z</time></trkpt><trkpt lat="41.67015885380114" lon="12.919563150757828"><ele>721.0</ele><time>2026-05-01T08:09:22.998Z</time></trkpt><trkpt lat="41.67024472175298" lon="12.91969273621869"><ele>713.0</ele><time>2026-05-01T08:09:23.998Z</time></trkpt><trkpt lat="41.67031507133806" lon="12.91980037149838"><ele>705.0</ele><time>2026-05-01T08:09:24.998Z</time></trkpt><trkpt lat="41.670376114509985" lon="12.919924928402127"><ele>697.0</ele><time>2026-05-01T08:09:25.998Z</time></trkpt><trkpt lat="41.67041241120889" lon="12.920077352335024"><ele>689.0</ele><time>2026-05-01T08:09:26.998Z</time></trkpt><trkpt lat="41.67042436985863" lon="12.92025684830215"><ele>689.0</ele><time>2026-05-01T08:09:27.998Z</time></trkpt><trkpt lat="41.67043319686014" lon="12.920440098224287"><ele>689.0</ele><time>2026-05-01T08:09:28.998Z</time></trkpt><trkpt lat="41.670445560802435" lon="12.920629020354214"><ele>689.0</ele><time>2026-05-01T08:09:29.998Z</time></trkpt><trkpt lat="41.67046178307313" lon="12.920822177299044"><ele>689.0</ele><time>2026-05-01T08:09:30.998Z</time></trkpt><trkpt lat="41.67048144560452" lon="12.921006756402727"><ele>694.25</ele><time>2026-05-01T08:09:31.998Z</time></trkpt><trkpt lat="41.670506214034994" lon="12.921189792121817"><ele>699.5</ele><time>2026-05-01T08:09:32.998Z</time></trkpt><trkpt lat="41.67055055734243" lon="12.921374319502695"><ele>704.75</ele><time>2026-05-01T08:09:33.998Z</time></trkpt><trkpt lat="41.670617535679064" lon="12.921554369788254"><ele>710.0</ele><time>2026-05-01T08:09:34.998Z</time></trkpt><trkpt lat="41.67069922628839" lon="12.921731991679652"><ele>717.3333333333333</ele><time>2026-05-01T08:09:35.998Z</time></trkpt><trkpt lat="41.67078404528107" lon="12.921907187102693"><ele>724.6666666666666</ele><time>2026-05-01T08:09:36.998Z</time></trkpt><trkpt lat="41.67088180882285" lon="12.922075286866527"><ele>732.0</ele><time>2026-05-01T08:09:37.998Z</time></trkpt><trkpt lat="41.67098987657132" lon="12.922234706656566"><ele>732.0</ele><time>2026-05-01T08:09:38.998Z</time></trkpt><trkpt lat="41.67109825140557" lon="12.922390851782161"><ele>732.0</ele><time>2026-05-01T08:09:39.998Z</time></trkpt><trkpt lat="41.67120035041145" lon="12.922540831270412"><ele>732.0</ele><time>2026-05-01T08:09:40.999Z</time></trkpt><trkpt lat="41.671292537995505" lon="12.922678570956817"><ele>732.0</ele><time>2026-05-01T08:09:41.999Z</time></trkpt><trkpt lat="41.6713794118227" lon="12.9228160872026"><ele>727.5</ele><time>2026-05-01T08:09:42.999Z</time></trkpt><trkpt lat="41.67145350386721" lon="12.922963497151622"><ele>723.0</ele><time>2026-05-01T08:09:43.999Z</time></trkpt><trkpt lat="41.67152027995515" lon="12.92312006517029"><ele>718.5</ele><time>2026-05-01T08:09:44.999Z</time></trkpt><trkpt lat="41.67160009843744" lon="12.923251803933402"><ele>714.0</ele><time>2026-05-01T08:09:45.999Z</time></trkpt><trkpt lat="41.671697182469075" lon="12.923331654746667"><ele>714.0</ele><time>2026-05-01T08:09:46.999Z</time></trkpt><trkpt lat="41.67181155807794" lon="12.923361381739394"><ele>714.0</ele><time>2026-05-01T08:09:47.999Z</time></trkpt><trkpt lat="41.671931257553815" lon="12.923366358824058"><ele>714.0</ele><time>2026-05-01T08:09:48.999Z</time></trkpt><trkpt lat="41.67203444211482" lon="12.923379358295692"><ele>714.0</ele><time>2026-05-01T08:09:49.999Z</time></trkpt><trkpt lat="41.672117254759705" lon="12.923418294511144"><ele>714.0</ele><time>2026-05-01T08:09:50.999Z</time></trkpt><trkpt lat="41.672182636489275" lon="12.92350564793264"><ele>705.75</ele><time>2026-05-01T08:09:51.999Z</time></trkpt><trkpt lat="41.67221264810786" lon="12.923638926403827"><ele>697.5</ele><time>2026-05-01T08:09:52.999Z</time></trkpt><trkpt lat="41.67222928246989" lon="12.923797863727428"><ele>689.25</ele><time>2026-05-01T08:09:53.999Z</time></trkpt><trkpt lat="41.67224585027872" lon="12.92397139875154"><ele>681.0</ele><time>2026-05-01T08:09:54.999Z</time></trkpt><trkpt lat="41.67223007308931" lon="12.924150812575373"><ele>680.5</ele><time>2026-05-01T08:09:55.999Z</time></trkpt><trkpt lat="41.67223394520334" lon="12.924318017318253"><ele>680.0</ele><time>2026-05-01T08:09:56.999Z</time></trkpt><trkpt lat="41.67223583561831" lon="12.924481554732882"><ele>679.5</ele><time>2026-05-01T08:09:57.999Z</time></trkpt><trkpt lat="41.672174273610935" lon="12.924635154697539"><ele>679.0</ele><time>2026-05-01T08:09:58.999Z</time></trkpt><trkpt lat="41.67212546948756" lon="12.924788827426706"><ele>679.0</ele><time>2026-05-01T08:09:59.999Z</time></trkpt><trkpt lat="41.67209300995366" lon="12.924928629401828"><ele>679.0</ele><time>2026-05-01T08:10:00.999Z</time></trkpt><trkpt lat="41.67206240700012" lon="12.925040339024582"><ele>679.0</ele><time>2026-05-01T08:10:01.999Z</time></trkpt><trkpt lat="41.67203704608" lon="12.925149229821733"><ele>679.0</ele><time>2026-05-01T08:10:02.999Z</time></trkpt><trkpt lat="41.67204880357699" lon="12.925275515593016"><ele>679.0</ele><time>2026-05-01T08:10:03.999Z</time></trkpt><trkpt lat="41.67212978694538" lon="12.925388404749206"><ele>683.0</ele><time>2026-05-01T08:10:04.999Z</time></trkpt><trkpt lat="41.67219740488794" lon="12.925499005656297"><ele>687.0</ele><time>2026-05-01T08:10:05.999Z</time></trkpt><trkpt lat="41.67225154396058" lon="12.925628975997867"><ele>691.0</ele><time>2026-05-01T08:10:06.999Z</time></trkpt><trkpt lat="41.67231662851028" lon="12.925766007687455"><ele>695.0</ele><time>2026-05-01T08:10:07.999Z</time></trkpt><trkpt lat="41.67237671962723" lon="12.92591575190717"><ele>697.25</ele><time>2026-05-01T08:10:08.999Z</time></trkpt><trkpt lat="41.67243230331249" lon="12.926075252498421"><ele>699.5</ele><time>2026-05-01T08:10:09.999Z</time></trkpt><trkpt lat="41.67248121764793" lon="12.926241485774524"><ele>701.75</ele><time>2026-05-01T08:10:10.999Z</time></trkpt><trkpt lat="41.672512574507046" lon="12.926421005850955"><ele>704.0</ele><time>2026-05-01T08:10:11.999Z</time></trkpt><trkpt lat="41.67253783856009" lon="12.926614638498224"><ele>707.25</ele><time>2026-05-01T08:10:12.999Z</time></trkpt><trkpt lat="41.672563263427364" lon="12.92681681703104"><ele>710.5</ele><time>2026-05-01T08:10:13.999Z</time></trkpt><trkpt lat="41.67259954757666" lon="12.927005263298646"><ele>713.75</ele><time>2026-05-01T08:10:14.999Z</time></trkpt><trkpt lat="41.672632202997896" lon="12.92717516086312"><ele>717.0</ele><time>2026-05-01T08:10:15.999Z</time></trkpt><trkpt lat="41.67265971876107" lon="12.927352524813651"><ele>717.0</ele><time>2026-05-01T08:10:16.999Z</time></trkpt><trkpt lat="41.67267676058451" lon="12.927532915746063"><ele>717.0</ele><time>2026-05-01T08:10:17.999Z</time></trkpt><trkpt lat="41.672687276846176" lon="12.927723053575093"><ele>717.0</ele><time>2026-05-01T08:10:18.999Z</time></trkpt><trkpt lat="41.67269489575533" lon="12.92792208491366"><ele>717.0</ele><time>2026-05-01T08:10:19.999Z</time></trkpt><trkpt lat="41.672697845192104" lon="12.92812591889251"><ele>717.3333333333334</ele><time>2026-05-01T08:10:20.999Z</time></trkpt><trkpt lat="41.67269825464931" lon="12.928332798999328"><ele>717.6666666666667</ele><time>2026-05-01T08:10:21.999Z</time></trkpt><trkpt lat="41.67270031670241" lon="12.928540496844793"><ele>718.0</ele><time>2026-05-01T08:10:22.999Z</time></trkpt><trkpt lat="41.67270463760248" lon="12.928747179932067"><ele>717.6666666666667</ele><time>2026-05-01T08:10:23.999Z</time></trkpt><trkpt lat="41.67271005445112" lon="12.928955093577601"><ele>717.3333333333334</ele><time>2026-05-01T08:10:24.999Z</time></trkpt><trkpt lat="41.67271873774346" lon="12.929156249897163"><ele>717.0</ele><time>2026-05-01T08:10:25.999Z</time></trkpt><trkpt lat="41.672743389892325" lon="12.929352366132523"><ele>717.0</ele><time>2026-05-01T08:10:26.999Z</time></trkpt><trkpt lat="41.672768795429825" lon="12.929539050921761"><ele>717.0</ele><time>2026-05-01T08:10:27.999Z</time></trkpt><trkpt lat="41.672784074650856" lon="12.929721545947976"><ele>717.0</ele><time>2026-05-01T08:10:28.999Z</time></trkpt><trkpt lat="41.67279060441482" lon="12.929911909208872"><ele>717.0</ele><time>2026-05-01T08:10:29.999Z</time></trkpt><trkpt lat="41.67278882547774" lon="12.93009350044141"><ele>715.0</ele><time>2026-05-01T08:10:30.999Z</time></trkpt><trkpt lat="41.67277101903761" lon="12.930272613391342"><ele>713.0</ele><time>2026-05-01T08:10:31.999Z</time></trkpt><trkpt lat="41.672735075818295" lon="12.930439510256633"><ele>711.0</ele><time>2026-05-01T08:10:32.999Z</time></trkpt><trkpt lat="41.6726716964439" lon="12.930605509308398"><ele>709.0</ele><time>2026-05-01T08:10:33.999Z</time></trkpt><trkpt lat="41.67259365625631" lon="12.930789923490034"><ele>708.0</ele><time>2026-05-01T08:10:34.999Z</time></trkpt><trkpt lat="41.672524730704296" lon="12.930981678150175"><ele>707.0</ele><time>2026-05-01T08:10:35.999Z</time></trkpt><trkpt lat="41.67247336097726" lon="12.93116642593706"><ele>706.0</ele><time>2026-05-01T08:10:36.999Z</time></trkpt><trkpt lat="41.672435764448466" lon="12.931351833977232"><ele>706.0</ele><time>2026-05-01T08:10:37.999Z</time></trkpt><trkpt lat="41.67240471041438" lon="12.931514973151566"><ele>706.0</ele><time>2026-05-01T08:10:38.999Z</time></trkpt><trkpt lat="41.67237821926095" lon="12.931628734407127"><ele>706.0</ele><time>2026-05-01T08:10:39.999Z</time></trkpt><trkpt lat="41.672363902200885" lon="12.931733303089885"><ele>706.0</ele><time>2026-05-01T08:10:40.999Z</time></trkpt><trkpt lat="41.67237207210526" lon="12.93182949473944"><ele>706.0</ele><time>2026-05-01T08:10:41.999Z</time></trkpt><trkpt lat="41.672424010514064" lon="12.93192810879176"><ele>707.8</ele><time>2026-05-01T08:10:42.999Z</time></trkpt><trkpt lat="41.67252278578845" lon="12.931985610985082"><ele>709.5999999999999</ele><time>2026-05-01T08:10:43.999Z</time></trkpt><trkpt lat="41.67262179338125" lon="12.931954939559029"><ele>711.4</ele><time>2026-05-01T08:10:44.999Z</time></trkpt><trkpt lat="41.672698581134576" lon="12.931867990088165"><ele>713.2</ele><time>2026-05-01T08:10:45.999Z</time></trkpt><trkpt lat="41.67275954438941" lon="12.931753616998831"><ele>715.0</ele><time>2026-05-01T08:10:46.999Z</time></trkpt><trkpt lat="41.67281408147465" lon="12.931634070850466"><ele>715.0</ele><time>2026-05-01T08:10:47.999Z</time></trkpt><trkpt lat="41.672879103662574" lon="12.931512957297015"><ele>715.0</ele><time>2026-05-01T08:10:48.999Z</time></trkpt><trkpt lat="41.67296863230647" lon="12.931411222786993"><ele>715.0</ele><time>2026-05-01T08:10:49.999Z</time></trkpt><trkpt lat="41.67308384674957" lon="12.9313387136726"><ele>715.0</ele><time>2026-05-01T08:10:50.999Z</time></trkpt><trkpt lat="41.67321297412509" lon="12.93128452381674"><ele>715.0</ele><time>2026-05-01T08:10:51.999Z</time></trkpt><trkpt lat="41.67334308934593" lon="12.931236094804877"><ele>715.0</ele><time>2026-05-01T08:10:52.999Z</time></trkpt><trkpt lat="41.67346750336376" lon="12.931176573316211"><ele>715.0</ele><time>2026-05-01T08:10:53.999Z</time></trkpt><trkpt lat="41.67359496504446" lon="12.931115893105586"><ele>715.0</ele><time>2026-05-01T08:10:54.999Z</time></trkpt><trkpt lat="41.673726172215545" lon="12.931073052993112"><ele>718.2</ele><time>2026-05-01T08:10:55.999Z</time></trkpt><trkpt lat="41.67384581251519" lon="12.93105708250738"><ele>721.4</ele><time>2026-05-01T08:10:56.999Z</time></trkpt><trkpt lat="41.67394700776351" lon="12.931061889446942"><ele>724.5999999999999</ele><time>2026-05-01T08:10:57.999Z</time></trkpt><trkpt lat="41.6740367708433" lon="12.931067638820371"><ele>727.8</ele><time>2026-05-01T08:10:58.999Z</time></trkpt><trkpt lat="41.67411667249842" lon="12.931035230679065"><ele>731.0</ele><time>2026-05-01T08:10:59.999Z</time></trkpt><trkpt lat="41.674186076541076" lon="12.930954781268332"><ele>726.0</ele><time>2026-05-01T08:11:00.999Z</time></trkpt><trkpt lat="41.67422936895018" lon="12.930829964320742"><ele>721.0</ele><time>2026-05-01T08:11:01.999Z</time></trkpt><trkpt lat="41.67424369493162" lon="12.930678907384706"><ele>716.0</ele><time>2026-05-01T08:11:02.998Z</time></trkpt><trkpt lat="41.674241928324186" lon="12.930513064936495"><ele>711.0</ele><time>2026-05-01T08:11:03.998Z</time></trkpt><trkpt lat="41.674247693447285" lon="12.930331579286772"><ele>711.0</ele><time>2026-05-01T08:11:04.998Z</time></trkpt><trkpt lat="41.67426714071964" lon="12.93015134898794"><ele>711.0</ele><time>2026-05-01T08:11:05.998Z</time></trkpt><trkpt lat="41.67429210948775" lon="12.92996872337056"><ele>711.0</ele><time>2026-05-01T08:11:06.998Z</time></trkpt><trkpt lat="41.6743211951234" lon="12.929782137808235"><ele>711.0</ele><time>2026-05-01T08:11:07.998Z</time></trkpt><trkpt lat="41.674349686026545" lon="12.929595544158389"><ele>709.25</ele><time>2026-05-01T08:11:08.998Z</time></trkpt><trkpt lat="41.674382222891666" lon="12.929413721035598"><ele>707.5</ele><time>2026-05-01T08:11:09.998Z</time></trkpt><trkpt lat="41.67443109920053" lon="12.92922989108179"><ele>705.75</ele><time>2026-05-01T08:11:10.998Z</time></trkpt><trkpt lat="41.674495710053655" lon="12.929050859458318"><ele>704.0</ele><time>2026-05-01T08:11:11.998Z</time></trkpt><trkpt lat="41.674575200211166" lon="12.92888381476591"><ele>710.25</ele><time>2026-05-01T08:11:12.998Z</time></trkpt><trkpt lat="41.674666617833694" lon="12.928727686827115"><ele>716.5</ele><time>2026-05-01T08:11:13.998Z</time></trkpt><trkpt lat="41.67476464007627" lon="12.928581554836724"><ele>722.75</ele><time>2026-05-01T08:11:14.998Z</time></trkpt><trkpt lat="41.67484209729485" lon="12.928414835095413"><ele>729.0</ele><time>2026-05-01T08:11:15.998Z</time></trkpt><trkpt lat="41.67489815465532" lon="12.928217267295032"><ele>729.0</ele><time>2026-05-01T08:11:16.998Z</time></trkpt><trkpt lat="41.67494212958007" lon="12.92801616337272"><ele>729.0</ele><time>2026-05-01T08:11:17.998Z</time></trkpt><trkpt lat="41.67497816071361" lon="12.927818386005118"><ele>729.0</ele><time>2026-05-01T08:11:18.998Z</time></trkpt><trkpt lat="41.675020854530054" lon="12.927625632983698"><ele>724.6666666666666</ele><time>2026-05-01T08:11:19.998Z</time></trkpt><trkpt lat="41.675074236384994" lon="12.927439683596967"><ele>720.3333333333333</ele><time>2026-05-01T08:11:20.998Z</time></trkpt><trkpt lat="41.67514790505234" lon="12.927260228846066"><ele>716.0</ele><time>2026-05-01T08:11:21.998Z</time></trkpt><trkpt lat="41.67524556957331" lon="12.92708718339705"><ele>722.6666666666666</ele><time>2026-05-01T08:11:22.998Z</time></trkpt><trkpt lat="41.675354329573864" lon="12.92691604474309"><ele>729.3333333333334</ele><time>2026-05-01T08:11:23.998Z</time></trkpt><trkpt lat="41.67546351677803" lon="12.926743493299774"><ele>736.0</ele><time>2026-05-01T08:11:24.998Z</time></trkpt><trkpt lat="41.67556291587443" lon="12.926573562318646"><ele>736.0</ele><time>2026-05-01T08:11:25.998Z</time></trkpt><trkpt lat="41.67565248122631" lon="12.926411916845293"><ele>736.0</ele><time>2026-05-01T08:11:26.998Z</time></trkpt><trkpt lat="41.67573413764685" lon="12.926261894122762"><ele>736.0</ele><time>2026-05-01T08:11:27.998Z</time></trkpt><trkpt lat="41.67582682115711" lon="12.926115796966148"><ele>736.0</ele><time>2026-05-01T08:11:28.998Z</time></trkpt><trkpt lat="41.675935256333865" lon="12.925987670327478"><ele>738.0</ele><time>2026-05-01T08:11:29.998Z</time></trkpt><trkpt lat="41.676066183697195" lon="12.92589494150615"><ele>740.0</ele><time>2026-05-01T08:11:30.998Z</time></trkpt><trkpt lat="41.67618035178518" lon="12.925765793033525"><ele>742.0</ele><time>2026-05-01T08:11:31.998Z</time></trkpt><trkpt lat="41.6762880774355" lon="12.925665491843963"><ele>744.0</ele><time>2026-05-01T08:11:32.998Z</time></trkpt><trkpt lat="41.67636061676015" lon="12.925568658417037"><ele>744.0</ele><time>2026-05-01T08:11:33.998Z</time></trkpt><trkpt lat="41.67644699211947" lon="12.925470428155828"><ele>744.0</ele><time>2026-05-01T08:11:34.998Z</time></trkpt><trkpt lat="41.67649475269797" lon="12.92532481886705"><ele>744.0</ele><time>2026-05-01T08:11:35.998Z</time></trkpt><trkpt lat="41.67653735996757" lon="12.92517664717633"><ele>744.0</ele><time>2026-05-01T08:11:36.998Z</time></trkpt><trkpt lat="41.67650693963729" lon="12.925008143130484"><ele>742.75</ele><time>2026-05-01T08:11:37.998Z</time></trkpt><trkpt lat="41.67647809071645" lon="12.92483885914324"><ele>741.5</ele><time>2026-05-01T08:11:38.998Z</time></trkpt><trkpt lat="41.676459247193804" lon="12.92468345013251"><ele>740.25</ele><time>2026-05-01T08:11:39.998Z</time></trkpt><trkpt lat="41.67642659819905" lon="12.924507994250087"><ele>739.0</ele><time>2026-05-01T08:11:40.998Z</time></trkpt><trkpt lat="41.6764381744111" lon="12.924365730937131"><ele>739.5</ele><time>2026-05-01T08:11:41.998Z</time></trkpt><trkpt lat="41.67648366377765" lon="12.924193330223869"><ele>740.0</ele><time>2026-05-01T08:11:42.998Z</time></trkpt><trkpt lat="41.676558300168686" lon="12.924019639539058"><ele>740.5</ele><time>2026-05-01T08:11:43.998Z</time></trkpt><trkpt lat="41.67662678312013" lon="12.923835210501936"><ele>741.0</ele><time>2026-05-01T08:11:44.998Z</time></trkpt><trkpt lat="41.67668644714579" lon="12.923629583414264"><ele>741.0</ele><time>2026-05-01T08:11:45.998Z</time></trkpt><trkpt lat="41.67674690557813" lon="12.923415774464138"><ele>741.0</ele><time>2026-05-01T08:11:47Z</time></trkpt><trkpt lat="41.67678745227721" lon="12.923248067230597"><ele>741.0</ele><time>2026-05-01T08:11:48Z</time></trkpt><trkpt lat="41.676828919885246" lon="12.923078106151781"><ele>741.0</ele><time>2026-05-01T08:11:49Z</time></trkpt><trkpt lat="41.6768848073853" lon="12.922809425035032"><ele>741.75</ele><time>2026-05-01T08:11:50Z</time></trkpt><trkpt lat="41.676924287005434" lon="12.922647162888019"><ele>742.5</ele><time>2026-05-01T08:11:51Z</time></trkpt><trkpt lat="41.67695817804273" lon="12.92248611344396"><ele>743.25</ele><time>2026-05-01T08:11:52Z</time></trkpt><trkpt lat="41.67699161414448" lon="12.922346702047312"><ele>744.0</ele><time>2026-05-01T08:11:53Z</time></trkpt><trkpt lat="41.677015463765414" lon="12.922224672157698"><ele>744.0</ele><time>2026-05-01T08:11:54Z</time></trkpt><trkpt lat="41.6770421330938" lon="12.922100106333234"><ele>744.0</ele><time>2026-05-01T08:11:55Z</time></trkpt><trkpt lat="41.677069103022134" lon="12.921981944882308"><ele>744.0</ele><time>2026-05-01T08:11:56Z</time></trkpt><trkpt lat="41.67710774780201" lon="12.921861631391327"><ele>744.0</ele><time>2026-05-01T08:11:57Z</time></trkpt><trkpt lat="41.67718615056704" lon="12.921769193478736"><ele>744.0</ele><time>2026-05-01T08:11:58Z</time></trkpt><trkpt lat="41.67726806218839" lon="12.92165223674234"><ele>743.0</ele><time>2026-05-01T08:11:59Z</time></trkpt><trkpt lat="41.67733789894895" lon="12.921526711122086"><ele>742.0</ele><time>2026-05-01T08:12:00Z</time></trkpt><trkpt lat="41.67741768793538" lon="12.921415807740479"><ele>741.0</ele><time>2026-05-01T08:12:01Z</time></trkpt><trkpt lat="41.67749881781994" lon="12.921293475490785"><ele>740.0</ele><time>2026-05-01T08:12:02Z</time></trkpt><trkpt lat="41.677582663145095" lon="12.921165248389359"><ele>740.0</ele><time>2026-05-01T08:12:03Z</time></trkpt><trkpt lat="41.677656400249944" lon="12.9210557793995"><ele>740.0</ele><time>2026-05-01T08:12:04Z</time></trkpt><trkpt lat="41.67772421243721" lon="12.920954741963744"><ele>740.0</ele><time>2026-05-01T08:12:05Z</time></trkpt><trkpt lat="41.67779727806031" lon="12.92085496167793"><ele>740.0</ele><time>2026-05-01T08:12:06Z</time></trkpt><trkpt lat="41.67786281033008" lon="12.920762231422081"><ele>740.0</ele><time>2026-05-01T08:12:07Z</time></trkpt><trkpt lat="41.67791640734609" lon="12.920691208085103"><ele>738.5</ele><time>2026-05-01T08:12:07.999Z</time></trkpt><trkpt lat="41.677975877167235" lon="12.920637649463412"><ele>737.0</ele><time>2026-05-01T08:12:08.999Z</time></trkpt><trkpt lat="41.67803958442609" lon="12.920642758180025"><ele>735.5</ele><time>2026-05-01T08:12:09.999Z</time></trkpt><trkpt lat="41.67815725917677" lon="12.920619889408956"><ele>734.0</ele><time>2026-05-01T08:12:11.999Z</time></trkpt><trkpt lat="41.678229705434035" lon="12.920588219999852"><ele>732.5</ele><time>2026-05-01T08:12:13.999Z</time></trkpt><trkpt lat="41.67829487159843" lon="12.920547341732172"><ele>731.0</ele><time>2026-05-01T08:12:22.999Z</time></trkpt><trkpt lat="41.67835999398069" lon="12.920544242049672"><ele>731.0</ele><time>2026-05-01T08:12:26.999Z</time></trkpt><trkpt lat="41.6782836430874" lon="12.920684980834654"><ele>731.0</ele><time>2026-05-01T08:12:31.999Z</time></trkpt><trkpt lat="41.678239586766736" lon="12.920794063015823"><ele>731.0</ele><time>2026-05-01T08:12:35.999Z</time></trkpt><trkpt lat="41.678199487439585" lon="12.920967195932201"><ele>731.0</ele><time>2026-05-01T08:12:37.999Z</time></trkpt><trkpt lat="41.67822376770134" lon="12.92114370352977"><ele>729.3333333333333</ele><time>2026-05-01T08:12:38.999Z</time></trkpt><trkpt lat="41.6782381315958" lon="12.921341138701147"><ele>727.6666666666666</ele><time>2026-05-01T08:12:39.999Z</time></trkpt><trkpt lat="41.678253260206745" lon="12.921553792344644"><ele>726.0</ele><time>2026-05-01T08:12:40.999Z</time></trkpt><trkpt lat="41.67825990631115" lon="12.921761880349111"><ele>725.0</ele><time>2026-05-01T08:12:41.999Z</time></trkpt><trkpt lat="41.67826978701567" lon="12.921951012096558"><ele>724.0</ele><time>2026-05-01T08:12:42.999Z</time></trkpt><trkpt lat="41.67827770024043" lon="12.92214456877844"><ele>723.0</ele><time>2026-05-01T08:12:43.999Z</time></trkpt><trkpt lat="41.67829017494095" lon="12.922353962762212"><ele>722.0</ele><time>2026-05-01T08:12:44.999Z</time></trkpt><trkpt lat="41.67830096343927" lon="12.922546605236763"><ele>722.25</ele><time>2026-05-01T08:12:45.999Z</time></trkpt><trkpt lat="41.67830775054858" lon="12.922717613009755"><ele>722.5</ele><time>2026-05-01T08:12:46.999Z</time></trkpt><trkpt lat="41.67830495649499" lon="12.922895845948924"><ele>722.75</ele><time>2026-05-01T08:12:47.999Z</time></trkpt><trkpt lat="41.678292014079396" lon="12.923087339475451"><ele>723.0</ele><time>2026-05-01T08:12:48.999Z</time></trkpt><trkpt lat="41.678266236307586" lon="12.923288421270648"><ele>723.25</ele><time>2026-05-01T08:12:49.999Z</time></trkpt><trkpt lat="41.67822997783858" lon="12.923494422291038"><ele>723.5</ele><time>2026-05-01T08:12:50.999Z</time></trkpt><trkpt lat="41.6781879649793" lon="12.923688345534401"><ele>723.75</ele><time>2026-05-01T08:12:51.999Z</time></trkpt><trkpt lat="41.67815321824243" lon="12.92386143702764"><ele>724.0</ele><time>2026-05-01T08:12:52.999Z</time></trkpt><trkpt lat="41.67812987284685" lon="12.92403295813726"><ele>724.0</ele><time>2026-05-01T08:12:53.999Z</time></trkpt><trkpt lat="41.67813640094564" lon="12.924205379327468"><ele>724.0</ele><time>2026-05-01T08:12:54.999Z</time></trkpt><trkpt lat="41.678177450063686" lon="12.924385395946125"><ele>724.0</ele><time>2026-05-01T08:12:55.999Z</time></trkpt><trkpt lat="41.678243272885524" lon="12.924567465022916"><ele>724.0</ele><time>2026-05-01T08:12:56.999Z</time></trkpt><trkpt lat="41.67826765510133" lon="12.924765472511732"><ele>723.2</ele><time>2026-05-01T08:12:57.999Z</time></trkpt><trkpt lat="41.678294014008905" lon="12.924934843805397"><ele>722.4000000000001</ele><time>2026-05-01T08:12:58.999Z</time></trkpt><trkpt lat="41.678314866535366" lon="12.925077443459108"><ele>721.6</ele><time>2026-05-01T08:12:59.999Z</time></trkpt><trkpt lat="41.67832754304378" lon="12.925191448434505"><ele>720.8</ele><time>2026-05-01T08:13:00.999Z</time></trkpt><trkpt lat="41.678336502047074" lon="12.925305390153467"><ele>720.0</ele><time>2026-05-01T08:13:01.999Z</time></trkpt><trkpt lat="41.678324796875025" lon="12.925407555075733"><ele>718.8</ele><time>2026-05-01T08:13:02.999Z</time></trkpt><trkpt lat="41.67826547258255" lon="12.925498349639474"><ele>717.6</ele><time>2026-05-01T08:13:03.999Z</time></trkpt><trkpt lat="41.6781901000689" lon="12.925593539315265"><ele>716.4000000000001</ele><time>2026-05-01T08:13:04.999Z</time></trkpt><trkpt lat="41.678100226343005" lon="12.92568191538643"><ele>715.2</ele><time>2026-05-01T08:13:05.999Z</time></trkpt><trkpt lat="41.677991489654225" lon="12.925703816166498"><ele>714.0</ele><time>2026-05-01T08:13:06.999Z</time></trkpt><trkpt lat="41.677896075477946" lon="12.925723444395208"><ele>714.0</ele><time>2026-05-01T08:13:07.999Z</time></trkpt><trkpt lat="41.67781545712164" lon="12.92577759002354"><ele>714.0</ele><time>2026-05-01T08:13:08.999Z</time></trkpt><trkpt lat="41.67776391305097" lon="12.925876207484396"><ele>714.0</ele><time>2026-05-01T08:13:09.999Z</time></trkpt><trkpt lat="41.67773620029878" lon="12.926004695078905"><ele>714.0</ele><time>2026-05-01T08:13:10.999Z</time></trkpt><trkpt lat="41.67774875537545" lon="12.926158096930868"><ele>714.0</ele><time>2026-05-01T08:13:11.999Z</time></trkpt><trkpt lat="41.67779335481629" lon="12.926309873878822"><ele>712.75</ele><time>2026-05-01T08:13:12.999Z</time></trkpt><trkpt lat="41.67786050229408" lon="12.926454652431289"><ele>711.5</ele><time>2026-05-01T08:13:13.999Z</time></trkpt><trkpt lat="41.67793159915964" lon="12.926606564131273"><ele>710.25</ele><time>2026-05-01T08:13:14.999Z</time></trkpt><trkpt lat="41.67797671867329" lon="12.926756635041533"><ele>709.0</ele><time>2026-05-01T08:13:15.999Z</time></trkpt><trkpt lat="41.6780466195589" lon="12.926881235496717"><ele>709.0</ele><time>2026-05-01T08:13:16.999Z</time></trkpt><trkpt lat="41.67809902302809" lon="12.927011749949408"><ele>709.0</ele><time>2026-05-01T08:13:17.999Z</time></trkpt><trkpt lat="41.67814719703618" lon="12.92713739361137"><ele>709.0</ele><time>2026-05-01T08:13:18.998Z</time></trkpt><trkpt lat="41.67819957973035" lon="12.927266852328325"><ele>709.0</ele><time>2026-05-01T08:13:19.998Z</time></trkpt><trkpt lat="41.67825738351077" lon="12.927410633803342"><ele>709.0</ele><time>2026-05-01T08:13:20.998Z</time></trkpt><trkpt lat="41.67828983855209" lon="12.927584265021109"><ele>709.0</ele><time>2026-05-01T08:13:21.998Z</time></trkpt><trkpt lat="41.67832088143844" lon="12.927776025988917"><ele>709.0</ele><time>2026-05-01T08:13:22.998Z</time></trkpt><trkpt lat="41.678342392160886" lon="12.927970315540046"><ele>709.0</ele><time>2026-05-01T08:13:23.998Z</time></trkpt><trkpt lat="41.67835561288926" lon="12.928150155589698"><ele>709.0</ele><time>2026-05-01T08:13:24.998Z</time></trkpt><trkpt lat="41.678363833285204" lon="12.92831836837351"><ele>708.25</ele><time>2026-05-01T08:13:25.998Z</time></trkpt><trkpt lat="41.6783529240583" lon="12.928488361978367"><ele>707.5</ele><time>2026-05-01T08:13:26.998Z</time></trkpt><trkpt lat="41.678306517049904" lon="12.928653794404767"><ele>706.75</ele><time>2026-05-01T08:13:27.998Z</time></trkpt><trkpt lat="41.67825260967252" lon="12.928823909754062"><ele>706.0</ele><time>2026-05-01T08:13:28.998Z</time></trkpt><trkpt lat="41.678208252054915" lon="12.928964230923617"><ele>706.0</ele><time>2026-05-01T08:13:29.998Z</time></trkpt><trkpt lat="41.67817920939936" lon="12.929097659768829"><ele>706.0</ele><time>2026-05-01T08:13:30.998Z</time></trkpt><trkpt lat="41.678189095242736" lon="12.92923448685918"><ele>706.0</ele><time>2026-05-01T08:13:31.998Z</time></trkpt><trkpt lat="41.678227046516135" lon="12.929347970036366"><ele>706.0</ele><time>2026-05-01T08:13:32.998Z</time></trkpt><trkpt lat="41.67828553675677" lon="12.92944101488104"><ele>706.0</ele><time>2026-05-01T08:13:33.998Z</time></trkpt><trkpt lat="41.678340882960875" lon="12.929543537159061"><ele>706.0</ele><time>2026-05-01T08:13:34.998Z</time></trkpt><trkpt lat="41.6783922092436" lon="12.929647374164098"><ele>706.0</ele><time>2026-05-01T08:13:35.998Z</time></trkpt><trkpt lat="41.67842147488152" lon="12.92976878187735"><ele>706.0</ele><time>2026-05-01T08:13:36.998Z</time></trkpt><trkpt lat="41.678407709654984" lon="12.9298983643835"><ele>706.0</ele><time>2026-05-01T08:13:37.998Z</time></trkpt><trkpt lat="41.6783725550827" lon="12.930031815349524"><ele>706.0</ele><time>2026-05-01T08:13:38.998Z</time></trkpt><trkpt lat="41.6783269837763" lon="12.93018988192349"><ele>704.0</ele><time>2026-05-01T08:13:39.998Z</time></trkpt><trkpt lat="41.67827890587825" lon="12.93034793850027"><ele>702.0</ele><time>2026-05-01T08:13:40.998Z</time></trkpt><trkpt lat="41.6782360373262" lon="12.93049342817392"><ele>700.0</ele><time>2026-05-01T08:13:41.998Z</time></trkpt><trkpt lat="41.67821381823882" lon="12.930639888537101"><ele>698.0</ele><time>2026-05-01T08:13:42.998Z</time></trkpt><trkpt lat="41.678214845213375" lon="12.930799258138551"><ele>695.5999999999999</ele><time>2026-05-01T08:13:43.998Z</time></trkpt><trkpt lat="41.67824930275779" lon="12.930956903553923"><ele>693.1999999999999</ele><time>2026-05-01T08:13:44.998Z</time></trkpt><trkpt lat="41.67827386870099" lon="12.931087384852999"><ele>690.8</ele><time>2026-05-01T08:13:45.998Z</time></trkpt><trkpt lat="41.67828420614787" lon="12.931201381595535"><ele>688.4</ele><time>2026-05-01T08:13:46.998Z</time></trkpt><trkpt lat="41.67827667540181" lon="12.931316186722901"><ele>686.0</ele><time>2026-05-01T08:13:47.998Z</time></trkpt><trkpt lat="41.67822959990204" lon="12.931419786874477"><ele>686.0</ele><time>2026-05-01T08:13:48.998Z</time></trkpt><trkpt lat="41.67815834194553" lon="12.931535631161"><ele>686.0</ele><time>2026-05-01T08:13:49.998Z</time></trkpt><trkpt lat="41.67809063425799" lon="12.931663163648912"><ele>686.0</ele><time>2026-05-01T08:13:50.998Z</time></trkpt><trkpt lat="41.67803970423174" lon="12.931806786143172"><ele>686.0</ele><time>2026-05-01T08:13:52Z</time></trkpt><trkpt lat="41.67802143452917" lon="12.931977374432321"><ele>684.0</ele><time>2026-05-01T08:13:53Z</time></trkpt><trkpt lat="41.67803451011833" lon="12.932152458321216"><ele>682.0</ele><time>2026-05-01T08:13:54Z</time></trkpt><trkpt lat="41.6780415169574" lon="12.932311311052189"><ele>680.0</ele><time>2026-05-01T08:13:55Z</time></trkpt><trkpt lat="41.678040285018994" lon="12.932465878076002"><ele>678.0</ele><time>2026-05-01T08:13:56Z</time></trkpt><trkpt lat="41.67802333321484" lon="12.93261119446563"><ele>677.0</ele><time>2026-05-01T08:13:57Z</time></trkpt><trkpt lat="41.677999273352306" lon="12.932762772420185"><ele>676.0</ele><time>2026-05-01T08:13:58Z</time></trkpt><trkpt lat="41.67797881545452" lon="12.932910586428454"><ele>675.0</ele><time>2026-05-01T08:13:59Z</time></trkpt><trkpt lat="41.67797043740988" lon="12.933057796401952"><ele>674.0</ele><time>2026-05-01T08:14:00Z</time></trkpt><trkpt lat="41.67800073354222" lon="12.933216372332641"><ele>674.0</ele><time>2026-05-01T08:14:01Z</time></trkpt><trkpt lat="41.678053948836755" lon="12.933361666056058"><ele>674.0</ele><time>2026-05-01T08:14:02Z</time></trkpt><trkpt lat="41.67811076983029" lon="12.933493531517358"><ele>674.0</ele><time>2026-05-01T08:14:03Z</time></trkpt><trkpt lat="41.678168109007345" lon="12.933628709271998"><ele>674.0</ele><time>2026-05-01T08:14:04Z</time></trkpt><trkpt lat="41.6782098442661" lon="12.933759601125669"><ele>674.2</ele><time>2026-05-01T08:14:05Z</time></trkpt><trkpt lat="41.678242114581764" lon="12.933887818339864"><ele>674.4000000000001</ele><time>2026-05-01T08:14:06Z</time></trkpt><trkpt lat="41.67826134217853" lon="12.934020364857298"><ele>674.6</ele><time>2026-05-01T08:14:07Z</time></trkpt><trkpt lat="41.67825815090919" lon="12.934159782946331"><ele>674.8</ele><time>2026-05-01T08:14:08Z</time></trkpt><trkpt lat="41.678231653497924" lon="12.934301044615369"><ele>675.0</ele><time>2026-05-01T08:14:09Z</time></trkpt><trkpt lat="41.678196351781516" lon="12.934462199410792"><ele>673.25</ele><time>2026-05-01T08:14:10Z</time></trkpt><trkpt lat="41.678161295834855" lon="12.934618538768126"><ele>671.5</ele><time>2026-05-01T08:14:11Z</time></trkpt><trkpt lat="41.67812614319366" lon="12.93477086680977"><ele>669.75</ele><time>2026-05-01T08:14:12Z</time></trkpt><trkpt lat="41.67809326872551" lon="12.934924595129834"><ele>668.0</ele><time>2026-05-01T08:14:13Z</time></trkpt><trkpt lat="41.67807754888454" lon="12.935078561990487"><ele>667.5999999999999</ele><time>2026-05-01T08:14:14Z</time></trkpt><trkpt lat="41.67808476842293" lon="12.935231747195791"><ele>667.1999999999999</ele><time>2026-05-01T08:14:15Z</time></trkpt><trkpt lat="41.67812184919148" lon="12.935377475325025"><ele>666.8</ele><time>2026-05-01T08:14:16Z</time></trkpt><trkpt lat="41.67814896619861" lon="12.935509578800698"><ele>666.4</ele><time>2026-05-01T08:14:17Z</time></trkpt><trkpt lat="41.67815840188324" lon="12.935628523015595"><ele>666.0</ele><time>2026-05-01T08:14:17.999Z</time></trkpt><trkpt lat="41.678150359703885" lon="12.935755099344043"><ele>666.0</ele><time>2026-05-01T08:14:18.999Z</time></trkpt><trkpt lat="41.67809995514316" lon="12.935870894414673"><ele>666.0</ele><time>2026-05-01T08:14:19.999Z</time></trkpt><trkpt lat="41.67803892110413" lon="12.936000220113462"><ele>666.0</ele><time>2026-05-01T08:14:20.999Z</time></trkpt><trkpt lat="41.67799266523502" lon="12.936123825620777"><ele>666.0</ele><time>2026-05-01T08:14:21.999Z</time></trkpt><trkpt lat="41.677966726876676" lon="12.936283572163697"><ele>666.0</ele><time>2026-05-01T08:14:22.999Z</time></trkpt><trkpt lat="41.67796647656425" lon="12.936461230404648"><ele>664.0</ele><time>2026-05-01T08:14:23.999Z</time></trkpt><trkpt lat="41.677972201557246" lon="12.936631548469228"><ele>662.0</ele><time>2026-05-01T08:14:24.999Z</time></trkpt><trkpt lat="41.67798084688189" lon="12.936799008594022"><ele>660.0</ele><time>2026-05-01T08:14:25.999Z</time></trkpt><trkpt lat="41.677983599759564" lon="12.936961538194208"><ele>658.0</ele><time>2026-05-01T08:14:26.999Z</time></trkpt><trkpt lat="41.677975228851835" lon="12.937127894484778"><ele>656.0</ele><time>2026-05-01T08:14:27.999Z</time></trkpt><trkpt lat="41.67794911509519" lon="12.937280632995504"><ele>654.0</ele><time>2026-05-01T08:14:28.999Z</time></trkpt><trkpt lat="41.67790454093184" lon="12.937431049006328"><ele>652.0</ele><time>2026-05-01T08:14:29.999Z</time></trkpt><trkpt lat="41.677859116998185" lon="12.937581435904468"><ele>650.0</ele><time>2026-05-01T08:14:30.999Z</time></trkpt><trkpt lat="41.67782147818951" lon="12.93773843140893"><ele>650.0</ele><time>2026-05-01T08:14:31.999Z</time></trkpt><trkpt lat="41.677802215372196" lon="12.937898080818414"><ele>650.0</ele><time>2026-05-01T08:14:32.999Z</time></trkpt><trkpt lat="41.67780754507128" lon="12.938066012652616"><ele>650.0</ele><time>2026-05-01T08:14:33.999Z</time></trkpt><trkpt lat="41.67784212091056" lon="12.93822593279278"><ele>650.0</ele><time>2026-05-01T08:14:34.999Z</time></trkpt><trkpt lat="41.67789428580618" lon="12.938363520056205"><ele>651.0</ele><time>2026-05-01T08:14:35.999Z</time></trkpt><trkpt lat="41.677972971525186" lon="12.938492076884899"><ele>652.0</ele><time>2026-05-01T08:14:36.999Z</time></trkpt><trkpt lat="41.67807662530857" lon="12.938583564617991"><ele>653.0</ele><time>2026-05-01T08:14:37.999Z</time></trkpt><trkpt lat="41.67815549762596" lon="12.938697378413696"><ele>654.0</ele><time>2026-05-01T08:14:38.999Z</time></trkpt><trkpt lat="41.678232964381344" lon="12.938798700554132"><ele>654.0</ele><time>2026-05-01T08:14:39.999Z</time></trkpt><trkpt lat="41.67829403305318" lon="12.938904972774361"><ele>654.0</ele><time>2026-05-01T08:14:40.999Z</time></trkpt><trkpt lat="41.6783323305691" lon="12.939032172144811"><ele>654.0</ele><time>2026-05-01T08:14:41.999Z</time></trkpt><trkpt lat="41.67834488891565" lon="12.939175264231517"><ele>654.0</ele><time>2026-05-01T08:14:42.999Z</time></trkpt><trkpt lat="41.67835380512286" lon="12.939344340377096"><ele>654.0</ele><time>2026-05-01T08:14:43.999Z</time></trkpt><trkpt lat="41.67836158202344" lon="12.939506207434457"><ele>654.75</ele><time>2026-05-01T08:14:44.999Z</time></trkpt><trkpt lat="41.67836932089188" lon="12.93967113588387"><ele>655.5</ele><time>2026-05-01T08:14:45.999Z</time></trkpt><trkpt lat="41.67837678731856" lon="12.939830258129811"><ele>656.25</ele><time>2026-05-01T08:14:46.999Z</time></trkpt><trkpt lat="41.67838329386136" lon="12.93998063849487"><ele>657.0</ele><time>2026-05-01T08:14:47.999Z</time></trkpt><trkpt lat="41.67839693281517" lon="12.940127866151114"><ele>658.8</ele><time>2026-05-01T08:14:48.999Z</time></trkpt><trkpt lat="41.678428124939096" lon="12.940267806673228"><ele>660.6</ele><time>2026-05-01T08:14:49.999Z</time></trkpt><trkpt lat="41.678507359129014" lon="12.940374196986529"><ele>662.4</ele><time>2026-05-01T08:14:50.999Z</time></trkpt><trkpt lat="41.678585039193976" lon="12.940467610709085"><ele>664.1999999999999</ele><time>2026-05-01T08:14:51.999Z</time></trkpt><trkpt lat="41.678682773408035" lon="12.940530870370791"><ele>666.0</ele><time>2026-05-01T08:14:52.999Z</time></trkpt><trkpt lat="41.67878099029155" lon="12.940574829742324"><ele>661.1999999999999</ele><time>2026-05-01T08:14:53.999Z</time></trkpt><trkpt lat="41.67885784612299" lon="12.94065079721943"><ele>656.4</ele><time>2026-05-01T08:14:54.999Z</time></trkpt><trkpt lat="41.67892551498662" lon="12.940741550666509"><ele>651.6</ele><time>2026-05-01T08:14:55.999Z</time></trkpt><trkpt lat="41.678991257265196" lon="12.940854126799826"><ele>646.8</ele><time>2026-05-01T08:14:56.999Z</time></trkpt><trkpt lat="41.67906229027079" lon="12.94098018536756"><ele>642.0</ele><time>2026-05-01T08:14:57.999Z</time></trkpt><trkpt lat="41.67912958720359" lon="12.941103530865746"><ele>642.0</ele><time>2026-05-01T08:14:58.999Z</time></trkpt><trkpt lat="41.679189944092506" lon="12.941225644439886"><ele>642.0</ele><time>2026-05-01T08:14:59.999Z</time></trkpt><trkpt lat="41.67923334456731" lon="12.941355963417456"><ele>642.0</ele><time>2026-05-01T08:15:00.999Z</time></trkpt><trkpt lat="41.67924728189073" lon="12.941496055314682"><ele>642.0</ele><time>2026-05-01T08:15:01.999Z</time></trkpt><trkpt lat="41.67923490842285" lon="12.941638972649915"><ele>642.0</ele><time>2026-05-01T08:15:02.999Z</time></trkpt><trkpt lat="41.67920334897749" lon="12.941791811696227"><ele>641.8</ele><time>2026-05-01T08:15:03.999Z</time></trkpt><trkpt lat="41.67916793310887" lon="12.94194228335283"><ele>641.6</ele><time>2026-05-01T08:15:04.999Z</time></trkpt><trkpt lat="41.67913233874787" lon="12.942080207114262"><ele>641.4</ele><time>2026-05-01T08:15:05.999Z</time></trkpt><trkpt lat="41.679101075487864" lon="12.94221663100548"><ele>641.1999999999999</ele><time>2026-05-01T08:15:06.999Z</time></trkpt><trkpt lat="41.6790934982597" lon="12.942363177052533"><ele>641.0</ele><time>2026-05-01T08:15:07.999Z</time></trkpt><trkpt lat="41.67910504259805" lon="12.942516188280905"><ele>641.5</ele><time>2026-05-01T08:15:08.999Z</time></trkpt><trkpt lat="41.679163690456434" lon="12.94267337526051"><ele>642.0</ele><time>2026-05-01T08:15:09.999Z</time></trkpt><trkpt lat="41.67922415357623" lon="12.942815666870821"><ele>642.5</ele><time>2026-05-01T08:15:10.999Z</time></trkpt><trkpt lat="41.679298510432965" lon="12.942958801340156"><ele>643.0</ele><time>2026-05-01T08:15:11.999Z</time></trkpt><trkpt lat="41.67936812091955" lon="12.943090095244036"><ele>640.0</ele><time>2026-05-01T08:15:12.999Z</time></trkpt><trkpt lat="41.6794394006434" lon="12.943207114927171"><ele>637.0</ele><time>2026-05-01T08:15:13.999Z</time></trkpt><trkpt lat="41.67951211516858" lon="12.943316633321018"><ele>634.0</ele><time>2026-05-01T08:15:14.999Z</time></trkpt><trkpt lat="41.67958982680622" lon="12.943423509683083"><ele>631.0</ele><time>2026-05-01T08:15:15.999Z</time></trkpt><trkpt lat="41.67965757177739" lon="12.9435179771625"><ele>628.0</ele><time>2026-05-01T08:15:16.999Z</time></trkpt><trkpt lat="41.679718531484895" lon="12.943620369202419"><ele>628.0</ele><time>2026-05-01T08:15:17.999Z</time></trkpt><trkpt lat="41.6797580128464" lon="12.943740414139787"><ele>628.0</ele><time>2026-05-01T08:15:18.999Z</time></trkpt><trkpt lat="41.67976886200892" lon="12.943868577885258"><ele>628.0</ele><time>2026-05-01T08:15:19.999Z</time></trkpt><trkpt lat="41.679737046279556" lon="12.943997180632618"><ele>628.0</ele><time>2026-05-01T08:15:20.999Z</time></trkpt><trkpt lat="41.67967560432666" lon="12.944123708862689"><ele>628.0</ele><time>2026-05-01T08:15:21.999Z</time></trkpt><trkpt lat="41.67960820125942" lon="12.944254396121845"><ele>627.75</ele><time>2026-05-01T08:15:22.999Z</time></trkpt><trkpt lat="41.679492155756144" lon="12.944365157453628"><ele>627.5</ele><time>2026-05-01T08:15:23.999Z</time></trkpt><trkpt lat="41.679418547513016" lon="12.9444771630487"><ele>627.25</ele><time>2026-05-01T08:15:24.998Z</time></trkpt><trkpt lat="41.67933664464664" lon="12.944585139788675"><ele>627.0</ele><time>2026-05-01T08:15:25.998Z</time></trkpt><trkpt lat="41.67928384689335" lon="12.944735103693398"><ele>627.0</ele><time>2026-05-01T08:15:26.998Z</time></trkpt><trkpt lat="41.679271381652015" lon="12.944896394309398"><ele>627.0</ele><time>2026-05-01T08:15:27.998Z</time></trkpt><trkpt lat="41.679272336949836" lon="12.945080044336532"><ele>627.0</ele><time>2026-05-01T08:15:28.998Z</time></trkpt><trkpt lat="41.67931538647824" lon="12.945241862278365"><ele>627.0</ele><time>2026-05-01T08:15:29.998Z</time></trkpt><trkpt lat="41.679387493623224" lon="12.945374469092013"><ele>626.5</ele><time>2026-05-01T08:15:30.998Z</time></trkpt><trkpt lat="41.679486442020796" lon="12.945481587819112"><ele>626.0</ele><time>2026-05-01T08:15:31.998Z</time></trkpt><trkpt lat="41.67960419193528" lon="12.945542609630511"><ele>625.5</ele><time>2026-05-01T08:15:32.998Z</time></trkpt><trkpt lat="41.67973568937454" lon="12.94553791418174"><ele>625.0</ele><time>2026-05-01T08:15:33.998Z</time></trkpt><trkpt lat="41.67987504429693" lon="12.945555671060879"><ele>625.0</ele><time>2026-05-01T08:15:34.998Z</time></trkpt><trkpt lat="41.680016389394005" lon="12.945529541757201"><ele>625.0</ele><time>2026-05-01T08:15:35.998Z</time></trkpt><trkpt lat="41.68015583544297" lon="12.945516889854455"><ele>625.0</ele><time>2026-05-01T08:15:36.998Z</time></trkpt><trkpt lat="41.68029142953792" lon="12.945504284514485"><ele>625.0</ele><time>2026-05-01T08:15:37.998Z</time></trkpt><trkpt lat="41.680416979137426" lon="12.945497730721632"><ele>624.4</ele><time>2026-05-01T08:15:38.998Z</time></trkpt><trkpt lat="41.680536075988165" lon="12.945505900639008"><ele>623.8</ele><time>2026-05-01T08:15:39.998Z</time></trkpt><trkpt lat="41.68062941251794" lon="12.94557141517723"><ele>623.2</ele><time>2026-05-01T08:15:40.998Z</time></trkpt><trkpt lat="41.68069883149963" lon="12.945655400635152"><ele>622.6</ele><time>2026-05-01T08:15:41.998Z</time></trkpt><trkpt lat="41.680755948363355" lon="12.945775702664639"><ele>622.0</ele><time>2026-05-01T08:15:42.998Z</time></trkpt><trkpt lat="41.68075414788627" lon="12.945916476684818"><ele>622.0</ele><time>2026-05-01T08:15:43.998Z</time></trkpt><trkpt lat="41.6807429517914" lon="12.946055534635631"><ele>622.0</ele><time>2026-05-01T08:15:44.998Z</time></trkpt><trkpt lat="41.680696903298106" lon="12.946186487459151"><ele>622.0</ele><time>2026-05-01T08:15:45.998Z</time></trkpt><trkpt lat="41.680630866804265" lon="12.946344449201463"><ele>622.0</ele><time>2026-05-01T08:15:46.998Z</time></trkpt><trkpt lat="41.6805820265686" lon="12.946504068630244"><ele>622.0</ele><time>2026-05-01T08:15:47.998Z</time></trkpt><trkpt lat="41.68057269779328" lon="12.946703243695204"><ele>622.0</ele><time>2026-05-01T08:15:48.998Z</time></trkpt><trkpt lat="41.68058997267351" lon="12.946880430471111"><ele>622.0</ele><time>2026-05-01T08:15:49.998Z</time></trkpt><trkpt lat="41.68061071947305" lon="12.947034332800616"><ele>622.0</ele><time>2026-05-01T08:15:50.999Z</time></trkpt><trkpt lat="41.68065521002595" lon="12.947168706859795"><ele>624.0</ele><time>2026-05-01T08:15:51.999Z</time></trkpt><trkpt lat="41.68073030314199" lon="12.947277809155208"><ele>626.0</ele><time>2026-05-01T08:15:52.999Z</time></trkpt><trkpt lat="41.68083230797358" lon="12.947354271250305"><ele>628.0</ele><time>2026-05-01T08:15:53.999Z</time></trkpt><trkpt lat="41.68094794642386" lon="12.947353710991864"><ele>630.0</ele><time>2026-05-01T08:15:54.999Z</time></trkpt><trkpt lat="41.68107012776738" lon="12.947352420910894"><ele>629.0</ele><time>2026-05-01T08:15:55.999Z</time></trkpt><trkpt lat="41.68119034862286" lon="12.947323087946808"><ele>628.0</ele><time>2026-05-01T08:15:56.999Z</time></trkpt><trkpt lat="41.681308281599414" lon="12.947336798136686"><ele>627.0</ele><time>2026-05-01T08:15:58.001Z</time></trkpt><trkpt lat="41.68138938413634" lon="12.947435970391712"><ele>626.0</ele><time>2026-05-01T08:15:59.001Z</time></trkpt><trkpt lat="41.68144811891105" lon="12.947555563839883"><ele>628.25</ele><time>2026-05-01T08:16:00.001Z</time></trkpt><trkpt lat="41.68148436167778" lon="12.947691657713106"><ele>630.5</ele><time>2026-05-01T08:16:01.001Z</time></trkpt><trkpt lat="41.68152102058639" lon="12.947851612969414"><ele>632.75</ele><time>2026-05-01T08:16:02.001Z</time></trkpt><trkpt lat="41.68155429914175" lon="12.947996540955117"><ele>635.0</ele><time>2026-05-01T08:16:03.001Z</time></trkpt><trkpt lat="41.68159040630002" lon="12.948136143360735"><ele>635.0</ele><time>2026-05-01T08:16:04.001Z</time></trkpt><trkpt lat="41.68163308768732" lon="12.948259160858518"><ele>635.0</ele><time>2026-05-01T08:16:05.001Z</time></trkpt><trkpt lat="41.68169990731768" lon="12.948349728889891"><ele>635.0</ele><time>2026-05-01T08:16:06.001Z</time></trkpt><trkpt lat="41.68176992311365" lon="12.94843091232992"><ele>635.0</ele><time>2026-05-01T08:16:07.001Z</time></trkpt><trkpt lat="41.68185307527196" lon="12.948480254474735"><ele>635.0</ele><time>2026-05-01T08:16:08.001Z</time></trkpt><trkpt lat="41.681942976936426" lon="12.948497041052372"><ele>636.2</ele><time>2026-05-01T08:16:09.001Z</time></trkpt><trkpt lat="41.68203166046944" lon="12.948478155475044"><ele>637.4</ele><time>2026-05-01T08:16:10.001Z</time></trkpt><trkpt lat="41.68211772395046" lon="12.94842816985629"><ele>638.5999999999999</ele><time>2026-05-01T08:16:11.001Z</time></trkpt><trkpt lat="41.68220236380599" lon="12.94834748357697"><ele>639.8</ele><time>2026-05-01T08:16:12.001Z</time></trkpt><trkpt lat="41.6822796587372" lon="12.948235891984055"><ele>641.0</ele><time>2026-05-01T08:16:13.001Z</time></trkpt><trkpt lat="41.682350110489885" lon="12.94814695099507"><ele>641.0</ele><time>2026-05-01T08:16:14.001Z</time></trkpt><trkpt lat="41.68241564461379" lon="12.948057099954678"><ele>641.0</ele><time>2026-05-01T08:16:15.001Z</time></trkpt><trkpt lat="41.68247305339014" lon="12.947959407246474"><ele>641.0</ele><time>2026-05-01T08:16:16.001Z</time></trkpt><trkpt lat="41.68251738327796" lon="12.947842363115571"><ele>641.0</ele><time>2026-05-01T08:16:17.001Z</time></trkpt><trkpt lat="41.68255275675333" lon="12.947719374728882"><ele>641.0</ele><time>2026-05-01T08:16:18.001Z</time></trkpt><trkpt lat="41.68257665999894" lon="12.947588696570977"><ele>639.5999999999999</ele><time>2026-05-01T08:16:19.001Z</time></trkpt><trkpt lat="41.68259401022945" lon="12.947460473452344"><ele>638.1999999999999</ele><time>2026-05-01T08:16:20.001Z</time></trkpt><trkpt lat="41.68261306027718" lon="12.947330869575083"><ele>636.8</ele><time>2026-05-01T08:16:21.001Z</time></trkpt><trkpt lat="41.68263621558598" lon="12.947199932241697"><ele>635.4</ele><time>2026-05-01T08:16:22.001Z</time></trkpt><trkpt lat="41.68266601176223" lon="12.947064800201892"><ele>634.0</ele><time>2026-05-01T08:16:23.001Z</time></trkpt><trkpt lat="41.68270216873897" lon="12.946938182234002"><ele>634.0</ele><time>2026-05-01T08:16:24.001Z</time></trkpt><trkpt lat="41.68274391276659" lon="12.946826645911157"><ele>634.0</ele><time>2026-05-01T08:16:25.001Z</time></trkpt><trkpt lat="41.682813585384665" lon="12.946746337671735"><ele>634.0</ele><time>2026-05-01T08:16:26.001Z</time></trkpt><trkpt lat="41.68288387756305" lon="12.946665565540288"><ele>634.0</ele><time>2026-05-01T08:16:27.001Z</time></trkpt><trkpt lat="41.682974459758846" lon="12.946635795089142"><ele>634.0</ele><time>2026-05-01T08:16:28Z</time></trkpt><trkpt lat="41.683056361120144" lon="12.946624727675387"><ele>635.6666666666667</ele><time>2026-05-01T08:16:29Z</time></trkpt><trkpt lat="41.68313734757007" lon="12.94662358067895"><ele>637.3333333333334</ele><time>2026-05-01T08:16:30Z</time></trkpt><trkpt lat="41.68321645276147" lon="12.946628333386762"><ele>639.0</ele><time>2026-05-01T08:16:31Z</time></trkpt><trkpt lat="41.6833000556571" lon="12.946631975742475"><ele>640.6666666666666</ele><time>2026-05-01T08:16:32Z</time></trkpt><trkpt lat="41.68338474435083" lon="12.946626548377344"><ele>642.3333333333333</ele><time>2026-05-01T08:16:33Z</time></trkpt><trkpt lat="41.683473717416575" lon="12.946617971140682"><ele>644.0</ele><time>2026-05-01T08:16:34Z</time></trkpt><trkpt lat="41.68356645572037" lon="12.946598842831865"><ele>646.6</ele><time>2026-05-01T08:16:35Z</time></trkpt><trkpt lat="41.68366265308737" lon="12.946565554339879"><ele>649.2</ele><time>2026-05-01T08:16:36Z</time></trkpt><trkpt lat="41.68376029862929" lon="12.946519813481917"><ele>651.8000000000001</ele><time>2026-05-01T08:16:37Z</time></trkpt><trkpt lat="41.68386316463938" lon="12.946461681444546"><ele>654.4000000000001</ele><time>2026-05-01T08:16:38Z</time></trkpt><trkpt lat="41.68395854056536" lon="12.94640590343995"><ele>657.0</ele><time>2026-05-01T08:16:39Z</time></trkpt><trkpt lat="41.684021260898064" lon="12.946362720893616"><ele>657.0</ele><time>2026-05-01T08:16:40Z</time></trkpt><trkpt lat="41.684101092329044" lon="12.946311196691742"><ele>657.0</ele><time>2026-05-01T08:16:42Z</time></trkpt><trkpt lat="41.684178390903405" lon="12.94621989869048"><ele>657.0</ele><time>2026-05-01T08:16:44Z</time></trkpt><trkpt lat="41.68424584670548" lon="12.946114072023816"><ele>657.0</ele><time>2026-05-01T08:16:46Z</time></trkpt><trkpt lat="41.684293699864085" lon="12.946025642950488"><ele>657.0</ele><time>2026-05-01T08:16:47Z</time></trkpt><trkpt lat="41.68435159325449" lon="12.94590329623721"><ele>659.25</ele><time>2026-05-01T08:16:48Z</time></trkpt><trkpt lat="41.68440577717225" lon="12.945780560006451"><ele>661.5</ele><time>2026-05-01T08:16:49Z</time></trkpt><trkpt lat="41.68445135108224" lon="12.945634245595855"><ele>663.75</ele><time>2026-05-01T08:16:50Z</time></trkpt><trkpt lat="41.68451547912886" lon="12.945492481754592"><ele>666.0</ele><time>2026-05-01T08:16:51Z</time></trkpt><trkpt lat="41.68459675052997" lon="12.94535311483597"><ele>666.0</ele><time>2026-05-01T08:16:52Z</time></trkpt><trkpt lat="41.68465184085549" lon="12.945193153807192"><ele>666.0</ele><time>2026-05-01T08:16:53Z</time></trkpt><trkpt lat="41.684722824187936" lon="12.945041142210973"><ele>666.0</ele><time>2026-05-01T08:16:54Z</time></trkpt><trkpt lat="41.68478568107488" lon="12.944885218422968"><ele>666.0</ele><time>2026-05-01T08:16:55Z</time></trkpt><trkpt lat="41.684857682236014" lon="12.944737444379511"><ele>663.5</ele><time>2026-05-01T08:16:56Z</time></trkpt><trkpt lat="41.6849363725854" lon="12.944592290460657"><ele>661.0</ele><time>2026-05-01T08:16:57Z</time></trkpt><trkpt lat="41.68502478855598" lon="12.94446267810555"><ele>658.5</ele><time>2026-05-01T08:16:58Z</time></trkpt><trkpt lat="41.68512564888163" lon="12.944356565430684"><ele>656.0</ele><time>2026-05-01T08:16:59Z</time></trkpt><trkpt lat="41.6852424792787" lon="12.944281756581809"><ele>656.3333333333333</ele><time>2026-05-01T08:17:00Z</time></trkpt><trkpt lat="41.685372343399415" lon="12.944216168849659"><ele>656.6666666666666</ele><time>2026-05-01T08:17:01Z</time></trkpt><trkpt lat="41.68550574812227" lon="12.94413827517586"><ele>657.0</ele><time>2026-05-01T08:17:02Z</time></trkpt><trkpt lat="41.68566686449183" lon="12.94404748715624"><ele>657.0</ele><time>2026-05-01T08:17:03Z</time></trkpt><trkpt lat="41.6858432313578" lon="12.943943895487914"><ele>657.0</ele><time>2026-05-01T08:17:04Z</time></trkpt><trkpt lat="41.68600439077189" lon="12.943855778579886"><ele>657.0</ele><time>2026-05-01T08:17:05Z</time></trkpt><trkpt lat="41.68614371515937" lon="12.94378423602357"><ele>660.25</ele><time>2026-05-01T08:17:06Z</time></trkpt><trkpt lat="41.68627269900016" lon="12.943721693079175"><ele>663.5</ele><time>2026-05-01T08:17:07Z</time></trkpt><trkpt lat="41.68640993369339" lon="12.943666686322219"><ele>666.75</ele><time>2026-05-01T08:17:08Z</time></trkpt><trkpt lat="41.68655805178994" lon="12.943623577526555"><ele>670.0</ele><time>2026-05-01T08:17:09Z</time></trkpt><trkpt lat="41.68672142812995" lon="12.943597873559337"><ele>670.0</ele><time>2026-05-01T08:17:10Z</time></trkpt><trkpt lat="41.68690115623835" lon="12.943586653944342"><ele>670.0</ele><time>2026-05-01T08:17:11Z</time></trkpt><trkpt lat="41.68708098181355" lon="12.943567663854834"><ele>670.0</ele><time>2026-05-01T08:17:12Z</time></trkpt><trkpt lat="41.68725411100921" lon="12.943543277743148"><ele>670.75</ele><time>2026-05-01T08:17:13Z</time></trkpt><trkpt lat="41.687415107530754" lon="12.943518092844482"><ele>671.5</ele><time>2026-05-01T08:17:14Z</time></trkpt><trkpt lat="41.68754316437289" lon="12.943497088269618"><ele>672.25</ele><time>2026-05-01T08:17:15Z</time></trkpt><trkpt lat="41.68764790015786" lon="12.943497317907765"><ele>673.0</ele><time>2026-05-01T08:17:16Z</time></trkpt><trkpt lat="41.6877441661934" lon="12.943512206434766"><ele>672.0</ele><time>2026-05-01T08:17:17Z</time></trkpt><trkpt lat="41.68784405730141" lon="12.943549728439029"><ele>671.0</ele><time>2026-05-01T08:17:18Z</time></trkpt><trkpt lat="41.687944887705406" lon="12.943596405285378"><ele>670.0</ele><time>2026-05-01T08:17:19Z</time></trkpt><trkpt lat="41.68804579420038" lon="12.943624726271747"><ele>669.0</ele><time>2026-05-01T08:17:20Z</time></trkpt><trkpt lat="41.68815244933051" lon="12.943659596066698"><ele>668.0</ele><time>2026-05-01T08:17:21Z</time></trkpt><trkpt lat="41.68821584212629" lon="12.943984212591486"><ele>668.0</ele><time>2026-05-01T08:17:22Z</time></trkpt><trkpt lat="41.68831740847568" lon="12.944139251253135"><ele>668.0</ele><time>2026-05-01T08:17:23Z</time></trkpt><trkpt lat="41.688437117199854" lon="12.944295224765487"><ele>668.0</ele><time>2026-05-01T08:17:24Z</time></trkpt><trkpt lat="41.68856174666718" lon="12.944443091776932"><ele>667.3333333333333</ele><time>2026-05-01T08:17:25Z</time></trkpt><trkpt lat="41.68869142088907" lon="12.944583434842192"><ele>666.6666666666666</ele><time>2026-05-01T08:17:26Z</time></trkpt><trkpt lat="41.68881399497838" lon="12.944699995198716"><ele>666.0</ele><time>2026-05-01T08:17:27Z</time></trkpt><trkpt lat="41.68892026055969" lon="12.944815308016617"><ele>666.0</ele><time>2026-05-01T08:17:28Z</time></trkpt><trkpt lat="41.6890036374725" lon="12.944931148146702"><ele>666.0</ele><time>2026-05-01T08:17:29Z</time></trkpt><trkpt lat="41.68906706362095" lon="12.945062617566373"><ele>666.0</ele><time>2026-05-01T08:17:30Z</time></trkpt><trkpt lat="41.689098711308034" lon="12.94523798206071"><ele>666.0</ele><time>2026-05-01T08:17:31Z</time></trkpt><trkpt lat="41.68911927650359" lon="12.945427900053422"><ele>666.6666666666666</ele><time>2026-05-01T08:17:31.999Z</time></trkpt><trkpt lat="41.68913471336333" lon="12.94564146697387"><ele>667.3333333333333</ele><time>2026-05-01T08:17:32.999Z</time></trkpt><trkpt lat="41.689164502794945" lon="12.945864054982538"><ele>668.0</ele><time>2026-05-01T08:17:33.999Z</time></trkpt><trkpt lat="41.68921187781482" lon="12.946093369706155"><ele>670.3333333333333</ele><time>2026-05-01T08:17:34.999Z</time></trkpt><trkpt lat="41.6892650306318" lon="12.946314578569252"><ele>672.6666666666666</ele><time>2026-05-01T08:17:35.999Z</time></trkpt><trkpt lat="41.68931816661963" lon="12.94651046455377"><ele>675.0</ele><time>2026-05-01T08:17:36.999Z</time></trkpt><trkpt lat="41.689357880220314" lon="12.946706866800467"><ele>675.0</ele><time>2026-05-01T08:17:37.999Z</time></trkpt><trkpt lat="41.68939368973831" lon="12.946921895925735"><ele>675.0</ele><time>2026-05-01T08:17:38.999Z</time></trkpt><trkpt lat="41.68940567132607" lon="12.94714983214748"><ele>675.0</ele><time>2026-05-01T08:17:39.999Z</time></trkpt><trkpt lat="41.68940252410864" lon="12.947383839744596"><ele>672.75</ele><time>2026-05-01T08:17:40.999Z</time></trkpt><trkpt lat="41.689395569494906" lon="12.947584104530971"><ele>670.5</ele><time>2026-05-01T08:17:41.999Z</time></trkpt><trkpt lat="41.68937948881053" lon="12.947755986378354"><ele>668.25</ele><time>2026-05-01T08:17:42.999Z</time></trkpt><trkpt lat="41.68935705614316" lon="12.947908377812817"><ele>666.0</ele><time>2026-05-01T08:17:43.999Z</time></trkpt><trkpt lat="41.68931739495293" lon="12.948046803619391"><ele>666.0</ele><time>2026-05-01T08:17:44.999Z</time></trkpt><trkpt lat="41.689256434139004" lon="12.948191423739058"><ele>666.0</ele><time>2026-05-01T08:17:45.999Z</time></trkpt><trkpt lat="41.68916141287905" lon="12.948348856858411"><ele>666.0</ele><time>2026-05-01T08:17:46.999Z</time></trkpt><trkpt lat="41.68905741764293" lon="12.948501735660239"><ele>666.0</ele><time>2026-05-01T08:17:47.999Z</time></trkpt><trkpt lat="41.688944699701686" lon="12.948649978902774"><ele>658.0</ele><time>2026-05-01T08:17:48.999Z</time></trkpt><trkpt lat="41.688835276140566" lon="12.948790569007906"><ele>650.0</ele><time>2026-05-01T08:17:49.999Z</time></trkpt><trkpt lat="41.688717581324596" lon="12.94893308388524"><ele>642.0</ele><time>2026-05-01T08:17:50.999Z</time></trkpt><trkpt lat="41.68860769233926" lon="12.949063238678562"><ele>645.5</ele><time>2026-05-01T08:17:51.999Z</time></trkpt><trkpt lat="41.68850779226692" lon="12.949186205355629"><ele>649.0</ele><time>2026-05-01T08:17:52.999Z</time></trkpt><trkpt lat="41.68842148021806" lon="12.949304840831577"><ele>652.5</ele><time>2026-05-01T08:17:53.999Z</time></trkpt><trkpt lat="41.68835075911385" lon="12.949434512061552"><ele>656.0</ele><time>2026-05-01T08:17:54.999Z</time></trkpt><trkpt lat="41.688303775914484" lon="12.949593985392434"><ele>656.0</ele><time>2026-05-01T08:17:55.999Z</time></trkpt><trkpt lat="41.68828852980978" lon="12.949760802336595"><ele>656.0</ele><time>2026-05-01T08:17:56.999Z</time></trkpt><trkpt lat="41.688300317224034" lon="12.949921655114188"><ele>656.0</ele><time>2026-05-01T08:17:57.999Z</time></trkpt><trkpt lat="41.6883453183835" lon="12.950064144575371"><ele>656.0</ele><time>2026-05-01T08:17:58.999Z</time></trkpt><trkpt lat="41.68840918780294" lon="12.950170443227503"><ele>658.0</ele><time>2026-05-01T08:17:59.999Z</time></trkpt><trkpt lat="41.688490098274634" lon="12.950224904792362"><ele>660.0</ele><time>2026-05-01T08:18:00.999Z</time></trkpt><trkpt lat="41.68857947636861" lon="12.950242904129746"><ele>662.0</ele><time>2026-05-01T08:18:01.999Z</time></trkpt><trkpt lat="41.688682074290156" lon="12.95022247287828"><ele>664.0</ele><time>2026-05-01T08:18:02.999Z</time></trkpt><trkpt lat="41.68878629361607" lon="12.950203254328292"><ele>666.0</ele><time>2026-05-01T08:18:04.001Z</time></trkpt><trkpt lat="41.688891132913206" lon="12.950213531075999"><ele>660.5</ele><time>2026-05-01T08:18:05.001Z</time></trkpt><trkpt lat="41.688999710622454" lon="12.950252143601304"><ele>655.0</ele><time>2026-05-01T08:18:06.001Z</time></trkpt><trkpt lat="41.68910775231859" lon="12.950334772194235"><ele>649.5</ele><time>2026-05-01T08:18:07.001Z</time></trkpt><trkpt lat="41.68921041054733" lon="12.950461483003505"><ele>644.0</ele><time>2026-05-01T08:18:08.001Z</time></trkpt><trkpt lat="41.689298631626194" lon="12.950591597336683"><ele>644.0</ele><time>2026-05-01T08:18:09.001Z</time></trkpt><trkpt lat="41.68935924017034" lon="12.950719252873474"><ele>644.0</ele><time>2026-05-01T08:18:10.001Z</time></trkpt><trkpt lat="41.68939166126128" lon="12.950856697750993"><ele>644.0</ele><time>2026-05-01T08:18:11.001Z</time></trkpt><trkpt lat="41.6893856448478" lon="12.951016096962508"><ele>644.0</ele><time>2026-05-01T08:18:12.001Z</time></trkpt><trkpt lat="41.68932838755425" lon="12.951160166756722"><ele>643.0</ele><time>2026-05-01T08:18:13.001Z</time></trkpt><trkpt lat="41.68924682034007" lon="12.95129803836242"><ele>642.0</ele><time>2026-05-01T08:18:14.001Z</time></trkpt><trkpt lat="41.689141605994074" lon="12.951399673774517"><ele>641.0</ele><time>2026-05-01T08:18:15.001Z</time></trkpt><trkpt lat="41.68911551514932" lon="12.951561832768784"><ele>640.0</ele><time>2026-05-01T08:18:16.001Z</time></trkpt><trkpt lat="41.68909833976703" lon="12.951738581850304"><ele>638.0</ele><time>2026-05-01T08:18:17.001Z</time></trkpt><trkpt lat="41.689106144621576" lon="12.951924241707095"><ele>636.0</ele><time>2026-05-01T08:18:18.001Z</time></trkpt><trkpt lat="41.68908282172918" lon="12.952098672387196"><ele>634.0</ele><time>2026-05-01T08:18:19.001Z</time></trkpt><trkpt lat="41.689019936789336" lon="12.952298887478243"><ele>632.0</ele><time>2026-05-01T08:18:20.001Z</time></trkpt><trkpt lat="41.68893778315992" lon="12.952574173367205"><ele>626.6666666666666</ele><time>2026-05-01T08:18:21.001Z</time></trkpt><trkpt lat="41.68887836467772" lon="12.952857352846099"><ele>621.3333333333334</ele><time>2026-05-01T08:18:22.001Z</time></trkpt><trkpt lat="41.688830959127365" lon="12.953104791078982"><ele>616.0</ele><time>2026-05-01T08:18:23.001Z</time></trkpt><trkpt lat="41.688791077006385" lon="12.953312780266517"><ele>612.3333333333334</ele><time>2026-05-01T08:18:24.001Z</time></trkpt><trkpt lat="41.68875516575781" lon="12.953501540822138"><ele>608.6666666666666</ele><time>2026-05-01T08:18:25.001Z</time></trkpt><trkpt lat="41.688734033782744" lon="12.953708762729793"><ele>605.0</ele><time>2026-05-01T08:18:26.001Z</time></trkpt><trkpt lat="41.68871920011282" lon="12.953949853463264"><ele>604.6666666666666</ele><time>2026-05-01T08:18:27.001Z</time></trkpt><trkpt lat="41.68870500806811" lon="12.95420781373552"><ele>604.3333333333334</ele><time>2026-05-01T08:18:28.001Z</time></trkpt><trkpt lat="41.68869175524329" lon="12.954488836674539"><ele>604.0</ele><time>2026-05-01T08:18:29.001Z</time></trkpt><trkpt lat="41.68868147656722" lon="12.954755653354619"><ele>604.0</ele><time>2026-05-01T08:18:30.001Z</time></trkpt><trkpt lat="41.68868058961259" lon="12.95500387117365"><ele>604.0</ele><time>2026-05-01T08:18:31.001Z</time></trkpt><trkpt lat="41.688688653657685" lon="12.955234551568878"><ele>604.0</ele><time>2026-05-01T08:18:32.001Z</time></trkpt><trkpt lat="41.68870055782255" lon="12.955434700311793"><ele>605.0</ele><time>2026-05-01T08:18:33Z</time></trkpt><trkpt lat="41.688704016998926" lon="12.955589569425133"><ele>606.0</ele><time>2026-05-01T08:18:34Z</time></trkpt><trkpt lat="41.68869565994376" lon="12.955730500528901"><ele>607.0</ele><time>2026-05-01T08:18:35Z</time></trkpt><trkpt lat="41.6886624027666" lon="12.955874678800711"><ele>608.0</ele><time>2026-05-01T08:18:36Z</time></trkpt><trkpt lat="41.688596073169265" lon="12.956012521625745"><ele>611.0</ele><time>2026-05-01T08:18:37Z</time></trkpt><trkpt lat="41.68850930662885" lon="12.95613072234025"><ele>614.0</ele><time>2026-05-01T08:18:38Z</time></trkpt><trkpt lat="41.68842938592467" lon="12.956265762958525"><ele>617.0</ele><time>2026-05-01T08:18:39Z</time></trkpt><trkpt lat="41.68837338903897" lon="12.956388713124447"><ele>620.0</ele><time>2026-05-01T08:18:40Z</time></trkpt><trkpt lat="41.68834426800481" lon="12.956561615567024"><ele>619.25</ele><time>2026-05-01T08:18:41Z</time></trkpt><trkpt lat="41.68833704502078" lon="12.95673968850798"><ele>618.5</ele><time>2026-05-01T08:18:42Z</time></trkpt><trkpt lat="41.68834104502028" lon="12.956912429484317"><ele>617.75</ele><time>2026-05-01T08:18:43Z</time></trkpt><trkpt lat="41.68834159282322" lon="12.957111692942803"><ele>617.0</ele><time>2026-05-01T08:18:44Z</time></trkpt><trkpt lat="41.68834938179347" lon="12.957295495097872"><ele>617.0</ele><time>2026-05-01T08:18:45Z</time></trkpt><trkpt lat="41.68836589162507" lon="12.957446421579302"><ele>617.0</ele><time>2026-05-01T08:18:46Z</time></trkpt><trkpt lat="41.68840946168609" lon="12.957605417714799"><ele>617.0</ele><time>2026-05-01T08:18:47Z</time></trkpt><trkpt lat="41.688501323705154" lon="12.95774568738883"><ele>617.0</ele><time>2026-05-01T08:18:48Z</time></trkpt><trkpt lat="41.68861859834577" lon="12.9578460026418"><ele>612.75</ele><time>2026-05-01T08:18:49Z</time></trkpt><trkpt lat="41.688737218378385" lon="12.95791660664693"><ele>608.5</ele><time>2026-05-01T08:18:50Z</time></trkpt><trkpt lat="41.68883629604211" lon="12.9580191859279"><ele>604.25</ele><time>2026-05-01T08:18:51Z</time></trkpt><trkpt lat="41.68892473708167" lon="12.9581134167988"><ele>600.0</ele><time>2026-05-01T08:18:52Z</time></trkpt><trkpt lat="41.688998497108784" lon="12.958221839167228"><ele>600.0</ele><time>2026-05-01T08:18:53Z</time></trkpt><trkpt lat="41.68904455427294" lon="12.958348982276009"><ele>600.0</ele><time>2026-05-01T08:18:54Z</time></trkpt><trkpt lat="41.6890558661148" lon="12.958500710821136"><ele>600.0</ele><time>2026-05-01T08:18:55Z</time></trkpt><trkpt lat="41.68904568236409" lon="12.958667266587304"><ele>600.0</ele><time>2026-05-01T08:18:56Z</time></trkpt><trkpt lat="41.68902625189633" lon="12.958852765392333"><ele>600.25</ele><time>2026-05-01T08:18:57Z</time></trkpt><trkpt lat="41.68900434158655" lon="12.959027814759057"><ele>600.5</ele><time>2026-05-01T08:18:58Z</time></trkpt><trkpt lat="41.68898623020904" lon="12.959190162732506"><ele>600.75</ele><time>2026-05-01T08:18:59Z</time></trkpt><trkpt lat="41.688980749994876" lon="12.959348462178975"><ele>601.0</ele><time>2026-05-01T08:19:00Z</time></trkpt><trkpt lat="41.68899636200857" lon="12.95951125320597"><ele>602.25</ele><time>2026-05-01T08:19:01Z</time></trkpt><trkpt lat="41.68905219903423" lon="12.959664785357342"><ele>603.5</ele><time>2026-05-01T08:19:02Z</time></trkpt><trkpt lat="41.68912124875359" lon="12.95980858272345"><ele>604.75</ele><time>2026-05-01T08:19:03Z</time></trkpt><trkpt lat="41.689209964212964" lon="12.959922073867997"><ele>606.0</ele><time>2026-05-01T08:19:04Z</time></trkpt><trkpt lat="41.689312174377044" lon="12.96000125058591"><ele>603.0</ele><time>2026-05-01T08:19:05Z</time></trkpt><trkpt lat="41.689434482897326" lon="12.960061690234765"><ele>600.0</ele><time>2026-05-01T08:19:06Z</time></trkpt><trkpt lat="41.689568567510136" lon="12.960104332568113"><ele>597.0</ele><time>2026-05-01T08:19:07Z</time></trkpt><trkpt lat="41.689689784999736" lon="12.960154241928434"><ele>594.0</ele><time>2026-05-01T08:19:08Z</time></trkpt><trkpt lat="41.689807851990906" lon="12.960206023564785"><ele>594.0</ele><time>2026-05-01T08:19:09Z</time></trkpt><trkpt lat="41.689919596845215" lon="12.960264169615174"><ele>594.0</ele><time>2026-05-01T08:19:10Z</time></trkpt><trkpt lat="41.69000705489475" lon="12.960364768824057"><ele>594.0</ele><time>2026-05-01T08:19:11Z</time></trkpt><trkpt lat="41.69007327804947" lon="12.960470299481843"><ele>594.0</ele><time>2026-05-01T08:19:12Z</time></trkpt><trkpt lat="41.69011374850606" lon="12.960593355886129"><ele>594.0</ele><time>2026-05-01T08:19:13Z</time></trkpt><trkpt lat="41.69011811608531" lon="12.960730241572668"><ele>594.0</ele><time>2026-05-01T08:19:14Z</time></trkpt><trkpt lat="41.6900988778854" lon="12.960859389387197"><ele>594.0</ele><time>2026-05-01T08:19:15Z</time></trkpt><trkpt lat="41.69005070145587" lon="12.960997798541227"><ele>594.0</ele><time>2026-05-01T08:19:16Z</time></trkpt><trkpt lat="41.6899831974917" lon="12.961143819475224"><ele>594.0</ele><time>2026-05-01T08:19:17Z</time></trkpt><trkpt lat="41.689914976845444" lon="12.9613026998801"><ele>593.25</ele><time>2026-05-01T08:19:18Z</time></trkpt><trkpt lat="41.689860442164054" lon="12.961465123614332"><ele>592.5</ele><time>2026-05-01T08:19:19Z</time></trkpt><trkpt lat="41.689847399783126" lon="12.961640523321812"><ele>591.75</ele><time>2026-05-01T08:19:20Z</time></trkpt><trkpt lat="41.68984125853372" lon="12.961818363082699"><ele>591.0</ele><time>2026-05-01T08:19:21Z</time></trkpt><trkpt lat="41.68986013325571" lon="12.961994019165092"><ele>591.0</ele><time>2026-05-01T08:19:22Z</time></trkpt><trkpt lat="41.68989388360566" lon="12.96216521204124"><ele>591.0</ele><time>2026-05-01T08:19:23Z</time></trkpt><trkpt lat="41.689977429377336" lon="12.962311989781247"><ele>591.0</ele><time>2026-05-01T08:19:24Z</time></trkpt><trkpt lat="41.69006050621175" lon="12.962460755873243"><ele>591.0</ele><time>2026-05-01T08:19:25Z</time></trkpt><trkpt lat="41.69013316225792" lon="12.962624417095896"><ele>589.0</ele><time>2026-05-01T08:19:26Z</time></trkpt><trkpt lat="41.69022052310234" lon="12.962777617836933"><ele>587.0</ele><time>2026-05-01T08:19:27Z</time></trkpt><trkpt lat="41.69030564276001" lon="12.962928849899901"><ele>585.0</ele><time>2026-05-01T08:19:28Z</time></trkpt><trkpt lat="41.69038425893961" lon="12.96307453820389"><ele>583.0</ele><time>2026-05-01T08:19:29Z</time></trkpt><trkpt lat="41.69044429886817" lon="12.963219740766148"><ele>584.25</ele><time>2026-05-01T08:19:30Z</time></trkpt><trkpt lat="41.690481813467095" lon="12.963375702444733"><ele>585.5</ele><time>2026-05-01T08:19:31Z</time></trkpt><trkpt lat="41.69050707239008" lon="12.963551133158496"><ele>586.75</ele><time>2026-05-01T08:19:32Z</time></trkpt><trkpt lat="41.69052626180352" lon="12.963748993667755"><ele>588.0</ele><time>2026-05-01T08:19:32.999Z</time></trkpt><trkpt lat="41.69054914257249" lon="12.963963821302766"><ele>588.0</ele><time>2026-05-01T08:19:33.999Z</time></trkpt><trkpt lat="41.690574072377366" lon="12.964177132500316"><ele>588.0</ele><time>2026-05-01T08:19:34.999Z</time></trkpt><trkpt lat="41.69059734901735" lon="12.964383521756544"><ele>588.0</ele><time>2026-05-01T08:19:35.999Z</time></trkpt><trkpt lat="41.69061070352534" lon="12.964569508477863"><ele>588.0</ele><time>2026-05-01T08:19:36.999Z</time></trkpt><trkpt lat="41.69060762224556" lon="12.964747457137474"><ele>588.0</ele><time>2026-05-01T08:19:37.999Z</time></trkpt><trkpt lat="41.69057745831823" lon="12.96491537719782"><ele>588.0</ele><time>2026-05-01T08:19:38.999Z</time></trkpt><trkpt lat="41.690511210966015" lon="12.965077951415648"><ele>588.0</ele><time>2026-05-01T08:19:39.999Z</time></trkpt><trkpt lat="41.69043470450339" lon="12.965231234956292"><ele>588.0</ele><time>2026-05-01T08:19:40.999Z</time></trkpt><trkpt lat="41.69035447364864" lon="12.965351753026413"><ele>588.0</ele><time>2026-05-01T08:19:41.999Z</time></trkpt><trkpt lat="41.69026598602072" lon="12.965429292730896"><ele>588.0</ele><time>2026-05-01T08:19:42.999Z</time></trkpt><trkpt lat="41.69015942397433" lon="12.96547647999267"><ele>588.0</ele><time>2026-05-01T08:19:43.999Z</time></trkpt><trkpt lat="41.69002271212473" lon="12.96550322458767"><ele>590.0</ele><time>2026-05-01T08:19:44.999Z</time></trkpt><trkpt lat="41.689870295062526" lon="12.965496132505354"><ele>592.0</ele><time>2026-05-01T08:19:45.999Z</time></trkpt><trkpt lat="41.68970547486009" lon="12.965478749730405"><ele>594.0</ele><time>2026-05-01T08:19:46.999Z</time></trkpt><trkpt lat="41.68953734705547" lon="12.965477936326634"><ele>594.5</ele><time>2026-05-01T08:19:47.999Z</time></trkpt><trkpt lat="41.689378734098355" lon="12.965456597557738"><ele>595.0</ele><time>2026-05-01T08:19:48.999Z</time></trkpt><trkpt lat="41.68923799040073" lon="12.96542053433483"><ele>595.5</ele><time>2026-05-01T08:19:49.999Z</time></trkpt><trkpt lat="41.689095402215486" lon="12.965382547087685"><ele>596.0</ele><time>2026-05-01T08:19:50.999Z</time></trkpt><trkpt lat="41.68895112478456" lon="12.965313491327118"><ele>596.0</ele><time>2026-05-01T08:19:51.999Z</time></trkpt><trkpt lat="41.68880736291732" lon="12.965251812103755"><ele>596.0</ele><time>2026-05-01T08:19:52.999Z</time></trkpt><trkpt lat="41.68866641170811" lon="12.965160474540744"><ele>596.0</ele><time>2026-05-01T08:19:53.999Z</time></trkpt><trkpt lat="41.68854030812358" lon="12.965092897876323"><ele>596.0</ele><time>2026-05-01T08:19:54.999Z</time></trkpt><trkpt lat="41.68844905781525" lon="12.965034994554918"><ele>597.0</ele><time>2026-05-01T08:19:55.999Z</time></trkpt><trkpt lat="41.688354641256204" lon="12.964975501551418"><ele>598.0</ele><time>2026-05-01T08:19:56.999Z</time></trkpt><trkpt lat="41.68824188251358" lon="12.964972283417755"><ele>599.0</ele><time>2026-05-01T08:19:57.999Z</time></trkpt><trkpt lat="41.688139438854" lon="12.965021534521961"><ele>600.0</ele><time>2026-05-01T08:19:58.999Z</time></trkpt><trkpt lat="41.68806241173526" lon="12.965133231689457"><ele>601.0</ele><time>2026-05-01T08:19:59.999Z</time></trkpt><trkpt lat="41.68801779456243" lon="12.96526845151317"><ele>601.0</ele><time>2026-05-01T08:20:00.999Z</time></trkpt><trkpt lat="41.687985568197995" lon="12.965407321022072"><ele>601.0</ele><time>2026-05-01T08:20:01.999Z</time></trkpt><trkpt lat="41.68794594743346" lon="12.965548660471308"><ele>601.0</ele><time>2026-05-01T08:20:02.999Z</time></trkpt><trkpt lat="41.68787701782127" lon="12.965696085869778"><ele>601.0</ele><time>2026-05-01T08:20:03.999Z</time></trkpt><trkpt lat="41.68776863924776" lon="12.965832923996757"><ele>604.3333333333334</ele><time>2026-05-01T08:20:04.999Z</time></trkpt><trkpt lat="41.687632420927436" lon="12.965973814324435"><ele>607.6666666666666</ele><time>2026-05-01T08:20:05.999Z</time></trkpt><trkpt lat="41.68748261821142" lon="12.966137511126885"><ele>611.0</ele><time>2026-05-01T08:20:06.999Z</time></trkpt><trkpt lat="41.68732203385106" lon="12.966312877255323"><ele>611.0</ele><time>2026-05-01T08:20:07.999Z</time></trkpt><trkpt lat="41.68716268641379" lon="12.966488605660624"><ele>611.0</ele><time>2026-05-01T08:20:08.999Z</time></trkpt><trkpt lat="41.68700786906918" lon="12.966670458786638"><ele>611.0</ele><time>2026-05-01T08:20:10.001Z</time></trkpt><trkpt lat="41.68685992884034" lon="12.966849796436934"><ele>617.0</ele><time>2026-05-01T08:20:11.001Z</time></trkpt><trkpt lat="41.686729872299615" lon="12.967008655048025"><ele>623.0</ele><time>2026-05-01T08:20:12.001Z</time></trkpt><trkpt lat="41.68660946379096" lon="12.967162043357208"><ele>629.0</ele><time>2026-05-01T08:20:13.001Z</time></trkpt><trkpt lat="41.686483614466546" lon="12.967240881173101"><ele>629.0</ele><time>2026-05-01T08:20:14.001Z</time></trkpt><trkpt lat="41.68638122028041" lon="12.967337402392223"><ele>629.0</ele><time>2026-05-01T08:20:15.001Z</time></trkpt><trkpt lat="41.686294295083904" lon="12.967471803608074"><ele>629.0</ele><time>2026-05-01T08:20:16.001Z</time></trkpt><trkpt lat="41.686238775856715" lon="12.967663156922201"><ele>629.0</ele><time>2026-05-01T08:20:17.001Z</time></trkpt><trkpt lat="41.68620449247115" lon="12.967856745229465"><ele>627.0</ele><time>2026-05-01T08:20:18.001Z</time></trkpt><trkpt lat="41.68617217583556" lon="12.968057073464216"><ele>625.0</ele><time>2026-05-01T08:20:19.001Z</time></trkpt><trkpt lat="41.68611810023957" lon="12.968237904707344"><ele>623.0</ele><time>2026-05-01T08:20:20.001Z</time></trkpt><trkpt lat="41.68604529257616" lon="12.968416002095163"><ele>634.3333333333333</ele><time>2026-05-01T08:20:21.001Z</time></trkpt><trkpt lat="41.685995503223644" lon="12.968614246617946"><ele>645.6666666666666</ele><time>2026-05-01T08:20:22.001Z</time></trkpt><trkpt lat="41.685991748465476" lon="12.968831920154315"><ele>657.0</ele><time>2026-05-01T08:20:23.001Z</time></trkpt><trkpt lat="41.685975797806044" lon="12.969020061189559"><ele>656.0</ele><time>2026-05-01T08:20:24.001Z</time></trkpt><trkpt lat="41.685927682363776" lon="12.969221964694418"><ele>655.0</ele><time>2026-05-01T08:20:25.001Z</time></trkpt><trkpt lat="41.685850485069295" lon="12.969445510108024"><ele>654.0</ele><time>2026-05-01T08:20:26.001Z</time></trkpt><trkpt lat="41.68577752448631" lon="12.969676294905614"><ele>654.0</ele><time>2026-05-01T08:20:27.001Z</time></trkpt><trkpt lat="41.68572859315156" lon="12.969880594968291"><ele>654.0</ele><time>2026-05-01T08:20:28.001Z</time></trkpt><trkpt lat="41.685693052152" lon="12.970090453555523"><ele>654.0</ele><time>2026-05-01T08:20:29.001Z</time></trkpt><trkpt lat="41.68566579156734" lon="12.970291479778922"><ele>653.0</ele><time>2026-05-01T08:20:30.001Z</time></trkpt><trkpt lat="41.685637594849055" lon="12.970472110858832"><ele>652.0</ele><time>2026-05-01T08:20:31.001Z</time></trkpt><trkpt lat="41.685588036094366" lon="12.970646108762633"><ele>651.0</ele><time>2026-05-01T08:20:32.001Z</time></trkpt><trkpt lat="41.68550478582195" lon="12.970841496059657"><ele>650.0</ele><time>2026-05-01T08:20:33Z</time></trkpt><trkpt lat="41.68540567191405" lon="12.971061034243132"><ele>650.0</ele><time>2026-05-01T08:20:34Z</time></trkpt><trkpt lat="41.68531135471294" lon="12.97131982996683"><ele>650.0</ele><time>2026-05-01T08:20:35Z</time></trkpt><trkpt lat="41.68522025297248" lon="12.971614805458593"><ele>658.0</ele><time>2026-05-01T08:20:36Z</time></trkpt><trkpt lat="41.68513378575708" lon="12.971908249190628"><ele>666.0</ele><time>2026-05-01T08:20:37Z</time></trkpt><trkpt lat="41.68504036681379" lon="12.972206912613357"><ele>666.0</ele><time>2026-05-01T08:20:38Z</time></trkpt><trkpt lat="41.684957368685254" lon="12.972472886692564"><ele>666.0</ele><time>2026-05-01T08:20:39Z</time></trkpt><trkpt lat="41.68488873598582" lon="12.97269512153052"><ele>666.0</ele><time>2026-05-01T08:20:40Z</time></trkpt><trkpt lat="41.684832928874" lon="12.972876322123563"><ele>667.0</ele><time>2026-05-01T08:20:41Z</time></trkpt><trkpt lat="41.68479222474343" lon="12.973028474441207"><ele>668.0</ele><time>2026-05-01T08:20:42Z</time></trkpt><trkpt lat="41.68477107585253" lon="12.97319847439606"><ele>669.0</ele><time>2026-05-01T08:20:43Z</time></trkpt><trkpt lat="41.68479292452698" lon="12.973396018449696"><ele>670.0</ele><time>2026-05-01T08:20:44Z</time></trkpt><trkpt lat="41.68486450793014" lon="12.97359563073194"><ele>673.6666666666667</ele><time>2026-05-01T08:20:45Z</time></trkpt><trkpt lat="41.68491547449551" lon="12.973809121918862"><ele>677.3333333333334</ele><time>2026-05-01T08:20:46Z</time></trkpt><trkpt lat="41.6849441161847" lon="12.974009309539682"><ele>681.0</ele><time>2026-05-01T08:20:47Z</time></trkpt><trkpt lat="41.684875524783415" lon="12.97424634839638"><ele>685.0</ele><time>2026-05-01T08:20:48Z</time></trkpt><trkpt lat="41.68480345073059" lon="12.974487393365935"><ele>689.0</ele><time>2026-05-01T08:20:49Z</time></trkpt><trkpt lat="41.684737899298646" lon="12.974744505084967"><ele>693.0</ele><time>2026-05-01T08:20:50Z</time></trkpt><trkpt lat="41.68468308242438" lon="12.97499853910187"><ele>697.3333333333334</ele><time>2026-05-01T08:20:51Z</time></trkpt><trkpt lat="41.68463504530184" lon="12.97523024883055"><ele>701.6666666666667</ele><time>2026-05-01T08:20:52Z</time></trkpt><trkpt lat="41.68458885569971" lon="12.975441439631965"><ele>706.0</ele><time>2026-05-01T08:20:53Z</time></trkpt><trkpt lat="41.68454681314774" lon="12.975659274712184"><ele>708.0</ele><time>2026-05-01T08:20:54Z</time></trkpt><trkpt lat="41.68452248246724" lon="12.975897534690047"><ele>710.0</ele><time>2026-05-01T08:20:55Z</time></trkpt><trkpt lat="41.68451801272542" lon="12.976160858380199"><ele>712.0</ele><time>2026-05-01T08:20:56Z</time></trkpt><trkpt lat="41.68452441389729" lon="12.976446870164287"><ele>713.6666666666667</ele><time>2026-05-01T08:20:57Z</time></trkpt><trkpt lat="41.68452007709089" lon="12.976697013086593"><ele>715.3333333333334</ele><time>2026-05-01T08:20:58Z</time></trkpt><trkpt lat="41.68450854000415" lon="12.976922534256932"><ele>717.0</ele><time>2026-05-01T08:20:59Z</time></trkpt><trkpt lat="41.68449677232557" lon="12.97713228059722"><ele>717.0</ele><time>2026-05-01T08:21:00Z</time></trkpt><trkpt lat="41.68448297541681" lon="12.977301755861571"><ele>717.0</ele><time>2026-05-01T08:21:01Z</time></trkpt><trkpt lat="41.68445401367785" lon="12.977467010072079"><ele>717.0</ele><time>2026-05-01T08:21:02Z</time></trkpt><trkpt lat="41.68437914629781" lon="12.977632623971578"><ele>717.0</ele><time>2026-05-01T08:21:03Z</time></trkpt><trkpt lat="41.684264630012414" lon="12.977795645685829"><ele>716.3333333333334</ele><time>2026-05-01T08:21:04Z</time></trkpt><trkpt lat="41.68412606898118" lon="12.977956202248526"><ele>715.6666666666667</ele><time>2026-05-01T08:21:05Z</time></trkpt><trkpt lat="41.683983860517976" lon="12.978118376493347"><ele>715.0</ele><time>2026-05-01T08:21:06Z</time></trkpt><trkpt lat="41.683843026601124" lon="12.978289118763252"><ele>714.3333333333334</ele><time>2026-05-01T08:21:07Z</time></trkpt><trkpt lat="41.683702950812105" lon="12.978460993032643"><ele>713.6666666666666</ele><time>2026-05-01T08:21:08Z</time></trkpt><trkpt lat="41.68356513793072" lon="12.978630594686537"><ele>713.0</ele><time>2026-05-01T08:21:09Z</time></trkpt><trkpt lat="41.68343382884428" lon="12.978797292154391"><ele>713.0</ele><time>2026-05-01T08:21:10Z</time></trkpt><trkpt lat="41.683316979343616" lon="12.978948151553103"><ele>713.0</ele><time>2026-05-01T08:21:11Z</time></trkpt><trkpt lat="41.68319965276127" lon="12.979097816582213"><ele>713.0</ele><time>2026-05-01T08:21:12Z</time></trkpt><trkpt lat="41.68309058230595" lon="12.97924167922873"><ele>719.6666666666666</ele><time>2026-05-01T08:21:13Z</time></trkpt><trkpt lat="41.682984545475094" lon="12.979395330476178"><ele>726.3333333333334</ele><time>2026-05-01T08:21:14Z</time></trkpt><trkpt lat="41.68288497478246" lon="12.979572292775476"><ele>733.0</ele><time>2026-05-01T08:21:15Z</time></trkpt><trkpt lat="41.68279677679983" lon="12.9797552687758"><ele>731.0</ele><time>2026-05-01T08:21:16Z</time></trkpt><trkpt lat="41.68271554097232" lon="12.979952482959751"><ele>729.0</ele><time>2026-05-01T08:21:17Z</time></trkpt><trkpt lat="41.68263499738397" lon="12.980158717951578"><ele>727.0</ele><time>2026-05-01T08:21:18Z</time></trkpt><trkpt lat="41.68255367859304" lon="12.980362175600092"><ele>727.0</ele><time>2026-05-01T08:21:19Z</time></trkpt><trkpt lat="41.68247020903418" lon="12.980569369998987"><ele>727.0</ele><time>2026-05-01T08:21:20Z</time></trkpt><trkpt lat="41.68238500859809" lon="12.98077999714844"><ele>727.0</ele><time>2026-05-01T08:21:21Z</time></trkpt><trkpt lat="41.68230333996999" lon="12.980997635230114"><ele>732.3333333333334</ele><time>2026-05-01T08:21:22Z</time></trkpt><trkpt lat="41.6822286627876" lon="12.981220819468346"><ele>737.6666666666666</ele><time>2026-05-01T08:21:23Z</time></trkpt><trkpt lat="41.68215365757354" lon="12.981436677805775"><ele>743.0</ele><time>2026-05-01T08:21:24Z</time></trkpt><trkpt lat="41.68208034606672" lon="12.981652610332029"><ele>739.0</ele><time>2026-05-01T08:21:25Z</time></trkpt><trkpt lat="41.6820146830307" lon="12.981878665486864"><ele>735.0</ele><time>2026-05-01T08:21:26Z</time></trkpt><trkpt lat="41.68195861233572" lon="12.982111348118673"><ele>731.0</ele><time>2026-05-01T08:21:27Z</time></trkpt><trkpt lat="41.68191052879953" lon="12.98234846436541"><ele>733.6666666666666</ele><time>2026-05-01T08:21:28Z</time></trkpt><trkpt lat="41.68186510869848" lon="12.982593370120936"><ele>736.3333333333334</ele><time>2026-05-01T08:21:29Z</time></trkpt><trkpt lat="41.6818123176965" lon="12.982838153005961"><ele>739.0</ele><time>2026-05-01T08:21:30Z</time></trkpt><trkpt lat="41.68175604488977" lon="12.98308063054638"><ele>739.0</ele><time>2026-05-01T08:21:30.999Z</time></trkpt><trkpt lat="41.681693721924255" lon="12.983321730450983"><ele>739.0</ele><time>2026-05-01T08:21:31.999Z</time></trkpt><trkpt lat="41.68163334655953" lon="12.98354657565576"><ele>739.0</ele><time>2026-05-01T08:21:32.999Z</time></trkpt><trkpt lat="41.68157745440864" lon="12.983757235136387"><ele>738.75</ele><time>2026-05-01T08:21:33.999Z</time></trkpt><trkpt lat="41.68152747237252" lon="12.98394664388701"><ele>738.5</ele><time>2026-05-01T08:21:34.999Z</time></trkpt><trkpt lat="41.6814777183999" lon="12.984127022118148"><ele>738.25</ele><time>2026-05-01T08:21:35.999Z</time></trkpt><trkpt lat="41.6814329407568" lon="12.984288217184947"><ele>738.0</ele><time>2026-05-01T08:21:36.999Z</time></trkpt><trkpt lat="41.68139671792308" lon="12.98440471763866"><ele>738.0</ele><time>2026-05-01T08:21:37.999Z</time></trkpt><trkpt lat="41.68136922414176" lon="12.984507937480473"><ele>738.0</ele><time>2026-05-01T08:21:38.999Z</time></trkpt><trkpt lat="41.68134652009432" lon="12.984617124714292"><ele>738.0</ele><time>2026-05-01T08:21:39.999Z</time></trkpt><trkpt lat="41.68134266907537" lon="12.984758088568377"><ele>738.0</ele><time>2026-05-01T08:21:40.999Z</time></trkpt><trkpt lat="41.68135226934517" lon="12.984921835534122"><ele>738.0</ele><time>2026-05-01T08:21:41.999Z</time></trkpt><trkpt lat="41.68138284478261" lon="12.985105547431836"><ele>735.6666666666666</ele><time>2026-05-01T08:21:42.999Z</time></trkpt><trkpt lat="41.68143459597656" lon="12.985295358790856"><ele>733.3333333333333</ele><time>2026-05-01T08:21:43.999Z</time></trkpt><trkpt lat="41.681505851657214" lon="12.985483942385372"><ele>731.0</ele><time>2026-05-01T08:21:44.999Z</time></trkpt><trkpt lat="41.68158133337648" lon="12.985669510322777"><ele>730.0</ele><time>2026-05-01T08:21:45.999Z</time></trkpt><trkpt lat="41.68165591035841" lon="12.985857061530684"><ele>729.0</ele><time>2026-05-01T08:21:46.999Z</time></trkpt><trkpt lat="41.6817233459679" lon="12.986039291229332"><ele>728.0</ele><time>2026-05-01T08:21:47.999Z</time></trkpt><trkpt lat="41.68179397332686" lon="12.986212207106465"><ele>728.0</ele><time>2026-05-01T08:21:48.999Z</time></trkpt><trkpt lat="41.68186584369342" lon="12.986387707041802"><ele>728.0</ele><time>2026-05-01T08:21:49.999Z</time></trkpt><trkpt lat="41.68192378116922" lon="12.986570420027189"><ele>728.0</ele><time>2026-05-01T08:21:50.999Z</time></trkpt><trkpt lat="41.68196869617152" lon="12.9867581932565"><ele>728.0</ele><time>2026-05-01T08:21:51.999Z</time></trkpt><trkpt lat="41.682016561090265" lon="12.986941164501227"><ele>727.25</ele><time>2026-05-01T08:21:52.999Z</time></trkpt><trkpt lat="41.68205185966353" lon="12.9871132212481"><ele>726.5</ele><time>2026-05-01T08:21:53.999Z</time></trkpt><trkpt lat="41.682064214458514" lon="12.987271480192016"><ele>725.75</ele><time>2026-05-01T08:21:54.999Z</time></trkpt><trkpt lat="41.68204597753983" lon="12.987432684458659"><ele>725.0</ele><time>2026-05-01T08:21:55.999Z</time></trkpt><trkpt lat="41.68199540241108" lon="12.987606342874116"><ele>720.3333333333333</ele><time>2026-05-01T08:21:56.999Z</time></trkpt><trkpt lat="41.681913049338554" lon="12.987802802344001"><ele>715.6666666666666</ele><time>2026-05-01T08:21:57.999Z</time></trkpt><trkpt lat="41.68181344236259" lon="12.988023311193825"><ele>711.0</ele><time>2026-05-01T08:21:58.999Z</time></trkpt><trkpt lat="41.68171203488949" lon="12.988246680871006"><ele>706.6666666666666</ele><time>2026-05-01T08:21:59.999Z</time></trkpt><trkpt lat="41.68160827299245" lon="12.988479649755897"><ele>702.3333333333333</ele><time>2026-05-01T08:22:00.999Z</time></trkpt><trkpt lat="41.681512858521415" lon="12.988699713170666"><ele>698.0</ele><time>2026-05-01T08:22:01.999Z</time></trkpt><trkpt lat="41.681424025319245" lon="12.98892269667212"><ele>698.0</ele><time>2026-05-01T08:22:02.999Z</time></trkpt><trkpt lat="41.681352343878466" lon="12.989165924961592"><ele>698.0</ele><time>2026-05-01T08:22:03.999Z</time></trkpt><trkpt lat="41.68129927504737" lon="12.98940935923355"><ele>698.0</ele><time>2026-05-01T08:22:04.999Z</time></trkpt><trkpt lat="41.68126089620782" lon="12.989619862450104"><ele>698.0</ele><time>2026-05-01T08:22:05.999Z</time></trkpt><trkpt lat="41.68122979348442" lon="12.989782461134253"><ele>698.0</ele><time>2026-05-01T08:22:06.999Z</time></trkpt><trkpt lat="41.68120762570248" lon="12.989927633028506"><ele>698.0</ele><time>2026-05-01T08:22:07.999Z</time></trkpt><trkpt lat="41.681200017937066" lon="12.99009216766523"><ele>698.0</ele><time>2026-05-01T08:22:08.999Z</time></trkpt><trkpt lat="41.68122310048406" lon="12.990266020810642"><ele>696.3333333333333</ele><time>2026-05-01T08:22:09.999Z</time></trkpt><trkpt lat="41.68127607493758" lon="12.99043351050456"><ele>694.6666666666666</ele><time>2026-05-01T08:22:10.999Z</time></trkpt><trkpt lat="41.681371693703625" lon="12.990589651705404"><ele>693.0</ele><time>2026-05-01T08:22:11.999Z</time></trkpt><trkpt lat="41.68149347169651" lon="12.990753433721757"><ele>695.3333333333334</ele><time>2026-05-01T08:22:12.999Z</time></trkpt><trkpt lat="41.68163969072794" lon="12.990923947378688"><ele>697.6666666666667</ele><time>2026-05-01T08:22:13.999Z</time></trkpt><trkpt lat="41.681794020969384" lon="12.991096287659232"><ele>700.0</ele><time>2026-05-01T08:22:14.999Z</time></trkpt><trkpt lat="41.68193193191691" lon="12.991258543839832"><ele>697.75</ele><time>2026-05-01T08:22:16.001Z</time></trkpt><trkpt lat="41.68204809855336" lon="12.991402903589767"><ele>695.5</ele><time>2026-05-01T08:22:17.001Z</time></trkpt><trkpt lat="41.68214768604122" lon="12.991524466041112"><ele>693.25</ele><time>2026-05-01T08:22:18.001Z</time></trkpt><trkpt lat="41.68223423983465" lon="12.991639728407202"><ele>691.0</ele><time>2026-05-01T08:22:19.001Z</time></trkpt><trkpt lat="41.68230730557989" lon="12.991748258649679"><ele>691.0</ele><time>2026-05-01T08:22:20.001Z</time></trkpt><trkpt lat="41.68237385154705" lon="12.991856700753937"><ele>691.0</ele><time>2026-05-01T08:22:21.001Z</time></trkpt><trkpt lat="41.682433994901025" lon="12.991960094291915"><ele>691.0</ele><time>2026-05-01T08:22:22.001Z</time></trkpt><trkpt lat="41.68249103057896" lon="12.992062051382385"><ele>691.0</ele><time>2026-05-01T08:22:23.001Z</time></trkpt><trkpt lat="41.68256629825663" lon="12.992176796017931"><ele>691.0</ele><time>2026-05-01T08:22:24.001Z</time></trkpt><trkpt lat="41.68266084902095" lon="12.992328707170532"><ele>691.3333333333334</ele><time>2026-05-01T08:22:25.001Z</time></trkpt><trkpt lat="41.68274984893637" lon="12.992513865070682"><ele>691.6666666666666</ele><time>2026-05-01T08:22:26.001Z</time></trkpt><trkpt lat="41.68283804481001" lon="12.992712080034112"><ele>692.0</ele><time>2026-05-01T08:22:27.001Z</time></trkpt><trkpt lat="41.6829320227659" lon="12.992915311086415"><ele>685.3333333333333</ele><time>2026-05-01T08:22:28.001Z</time></trkpt><trkpt lat="41.683024527827065" lon="12.993111443789145"><ele>678.6666666666666</ele><time>2026-05-01T08:22:29.001Z</time></trkpt><trkpt lat="41.68312026592665" lon="12.993291630091816"><ele>672.0</ele><time>2026-05-01T08:22:30.001Z</time></trkpt><trkpt lat="41.68321855650798" lon="12.993471856752207"><ele>672.0</ele><time>2026-05-01T08:22:31.001Z</time></trkpt><trkpt lat="41.68331203632871" lon="12.993659475259753"><ele>672.0</ele><time>2026-05-01T08:22:32.001Z</time></trkpt><trkpt lat="41.683400586941225" lon="12.993857599221267"><ele>672.0</ele><time>2026-05-01T08:22:33.001Z</time></trkpt><trkpt lat="41.68348469806005" lon="12.99406680829621"><ele>672.0</ele><time>2026-05-01T08:22:34.001Z</time></trkpt><trkpt lat="41.683567678276106" lon="12.994280644987919"><ele>672.0</ele><time>2026-05-01T08:22:35.001Z</time></trkpt><trkpt lat="41.683648734912744" lon="12.994489623896717"><ele>672.0</ele><time>2026-05-01T08:22:36.001Z</time></trkpt><trkpt lat="41.68373701518457" lon="12.994704673022243"><ele>670.0</ele><time>2026-05-01T08:22:37Z</time></trkpt><trkpt lat="41.68383774371496" lon="12.994925255517655"><ele>668.0</ele><time>2026-05-01T08:22:38Z</time></trkpt><trkpt lat="41.68394718821836" lon="12.995145572299261"><ele>666.0</ele><time>2026-05-01T08:22:39Z</time></trkpt><trkpt lat="41.684067378143354" lon="12.995346770981564"><ele>666.0</ele><time>2026-05-01T08:22:40Z</time></trkpt><trkpt lat="41.68419581608857" lon="12.995542614336351"><ele>666.0</ele><time>2026-05-01T08:22:41Z</time></trkpt><trkpt lat="41.68433466822751" lon="12.995740892347778"><ele>666.0</ele><time>2026-05-01T08:22:42Z</time></trkpt><trkpt lat="41.68446673731249" lon="12.995938561649199"><ele>669.6666666666666</ele><time>2026-05-01T08:22:43Z</time></trkpt><trkpt lat="41.68459037770224" lon="12.996128119032171"><ele>673.3333333333333</ele><time>2026-05-01T08:22:44Z</time></trkpt><trkpt lat="41.68469351336886" lon="12.996328204538726"><ele>677.0</ele><time>2026-05-01T08:22:45Z</time></trkpt><trkpt lat="41.68480558481574" lon="12.996498101920425"><ele>677.0</ele><time>2026-05-01T08:22:46Z</time></trkpt><trkpt lat="41.68492368769678" lon="12.996669101935037"><ele>677.0</ele><time>2026-05-01T08:22:47Z</time></trkpt><trkpt lat="41.68504616892494" lon="12.996825353614067"><ele>677.0</ele><time>2026-05-01T08:22:48Z</time></trkpt><trkpt lat="41.68513996294526" lon="12.996981193401778"><ele>675.6666666666666</ele><time>2026-05-01T08:22:49Z</time></trkpt><trkpt lat="41.68520288137233" lon="12.997146460349901"><ele>674.3333333333334</ele><time>2026-05-01T08:22:50Z</time></trkpt><trkpt lat="41.68526465993225" lon="12.997318916584412"><ele>673.0</ele><time>2026-05-01T08:22:51Z</time></trkpt><trkpt lat="41.68532985327091" lon="12.99753311643478"><ele>672.6666666666667</ele><time>2026-05-01T08:22:52Z</time></trkpt><trkpt lat="41.685399576413644" lon="12.997772502766757"><ele>672.3333333333334</ele><time>2026-05-01T08:22:53Z</time></trkpt><trkpt lat="41.68547041210475" lon="12.998018111934583"><ele>672.0</ele><time>2026-05-01T08:22:54Z</time></trkpt><trkpt lat="41.685542123259964" lon="12.998271686397864"><ele>670.3333333333334</ele><time>2026-05-01T08:22:55Z</time></trkpt><trkpt lat="41.68561395208274" lon="12.998531103275393"><ele>668.6666666666667</ele><time>2026-05-01T08:22:56Z</time></trkpt><trkpt lat="41.68568559019427" lon="12.998793383299173"><ele>667.0</ele><time>2026-05-01T08:22:57Z</time></trkpt><trkpt lat="41.6857549430613" lon="12.999047296697718"><ele>665.6666666666667</ele><time>2026-05-01T08:22:58Z</time></trkpt><trkpt lat="41.68582970486166" lon="12.99930795914026"><ele>664.3333333333334</ele><time>2026-05-01T08:22:59Z</time></trkpt><trkpt lat="41.68589953112302" lon="12.999567688030588"><ele>663.0</ele><time>2026-05-01T08:23:00Z</time></trkpt><trkpt lat="41.68595955179759" lon="12.99983435561022"><ele>663.0</ele><time>2026-05-01T08:23:01Z</time></trkpt><trkpt lat="41.68601835005817" lon="13.000107725344806"><ele>663.0</ele><time>2026-05-01T08:23:02Z</time></trkpt><trkpt lat="41.68607634748368" lon="13.00037737195982"><ele>663.0</ele><time>2026-05-01T08:23:03Z</time></trkpt><trkpt lat="41.686134895117426" lon="13.000644854782854"><ele>663.6666666666666</ele><time>2026-05-01T08:23:04Z</time></trkpt><trkpt lat="41.686209143061" lon="13.0009034043602"><ele>664.3333333333333</ele><time>2026-05-01T08:23:05Z</time></trkpt><trkpt lat="41.68626463051951" lon="13.001164864463941"><ele>665.0</ele><time>2026-05-01T08:23:06Z</time></trkpt><trkpt lat="41.68631719295174" lon="13.001409661752891"><ele>665.0</ele><time>2026-05-01T08:23:07Z</time></trkpt><trkpt lat="41.68637098811753" lon="13.001643983840808"><ele>665.0</ele><time>2026-05-01T08:23:08Z</time></trkpt><trkpt lat="41.686426775262866" lon="13.001884816875467"><ele>665.0</ele><time>2026-05-01T08:23:09Z</time></trkpt><trkpt lat="41.68647846022687" lon="13.00212869484086"><ele>665.6666666666666</ele><time>2026-05-01T08:23:10Z</time></trkpt><trkpt lat="41.686522611448105" lon="13.002369669054657"><ele>666.3333333333334</ele><time>2026-05-01T08:23:11Z</time></trkpt><trkpt lat="41.686565709341785" lon="13.002599844808412"><ele>667.0</ele><time>2026-05-01T08:23:12Z</time></trkpt><trkpt lat="41.68659958360962" lon="13.002823860840445"><ele>665.3333333333334</ele><time>2026-05-01T08:23:13Z</time></trkpt><trkpt lat="41.68668042777389" lon="13.003025611599352"><ele>663.6666666666666</ele><time>2026-05-01T08:23:14Z</time></trkpt><trkpt lat="41.68676922573886" lon="13.003231846008724"><ele>662.0</ele><time>2026-05-01T08:23:15Z</time></trkpt><trkpt lat="41.68687560443526" lon="13.003444360893749"><ele>664.0</ele><time>2026-05-01T08:23:16Z</time></trkpt><trkpt lat="41.686986172723294" lon="13.003650141786503"><ele>666.0</ele><time>2026-05-01T08:23:17Z</time></trkpt><trkpt lat="41.687094437384545" lon="13.003846364876186"><ele>668.0</ele><time>2026-05-01T08:23:18Z</time></trkpt><trkpt lat="41.687194593399184" lon="13.004033979353515"><ele>666.0</ele><time>2026-05-01T08:23:19Z</time></trkpt><trkpt lat="41.6872788758056" lon="13.00420693707748"><ele>664.0</ele><time>2026-05-01T08:23:20Z</time></trkpt><trkpt lat="41.687321559080054" lon="13.004387297113043"><ele>662.0</ele><time>2026-05-01T08:23:21Z</time></trkpt><trkpt lat="41.687351775284874" lon="13.004572578268586"><ele>660.0</ele><time>2026-05-01T08:23:22Z</time></trkpt><trkpt lat="41.687330259487446" lon="13.004764826007444"><ele>660.0</ele><time>2026-05-01T08:23:23Z</time></trkpt><trkpt lat="41.68727509142907" lon="13.004944473201599"><ele>660.0</ele><time>2026-05-01T08:23:24Z</time></trkpt><trkpt lat="41.68719865798745" lon="13.005134258537318"><ele>660.0</ele><time>2026-05-01T08:23:25Z</time></trkpt><trkpt lat="41.68711420257629" lon="13.005337132518692"><ele>659.6666666666666</ele><time>2026-05-01T08:23:26Z</time></trkpt><trkpt lat="41.68706019566392" lon="13.00554065822288"><ele>659.3333333333333</ele><time>2026-05-01T08:23:27Z</time></trkpt><trkpt lat="41.687014218904594" lon="13.005733089725332"><ele>659.0</ele><time>2026-05-01T08:23:28Z</time></trkpt><trkpt lat="41.68700535181696" lon="13.00595244040924"><ele>659.0</ele><time>2026-05-01T08:23:29Z</time></trkpt><trkpt lat="41.68703858147812" lon="13.006196437129242"><ele>659.0</ele><time>2026-05-01T08:23:30Z</time></trkpt><trkpt lat="41.687095247112765" lon="13.00646354569281"><ele>659.0</ele><time>2026-05-01T08:23:31Z</time></trkpt><trkpt lat="41.6871461100701" lon="13.006712051825499"><ele>660.0</ele><time>2026-05-01T08:23:32Z</time></trkpt><trkpt lat="41.68718598937357" lon="13.006936738794744"><ele>661.0</ele><time>2026-05-01T08:23:33Z</time></trkpt><trkpt lat="41.68721602704063" lon="13.007157202307294"><ele>662.0</ele><time>2026-05-01T08:23:34Z</time></trkpt><trkpt lat="41.687223645362465" lon="13.007411577327296"><ele>660.3333333333333</ele><time>2026-05-01T08:23:34.999Z</time></trkpt><trkpt lat="41.687208909035775" lon="13.007688823930518"><ele>658.6666666666666</ele><time>2026-05-01T08:23:35.999Z</time></trkpt><trkpt lat="41.687189736604985" lon="13.007947016091597"><ele>657.0</ele><time>2026-05-01T08:23:36.999Z</time></trkpt><trkpt lat="41.68717917435175" lon="13.008184300670784"><ele>654.0</ele><time>2026-05-01T08:23:37.999Z</time></trkpt><trkpt lat="41.687162869479856" lon="13.00842178193584"><ele>651.0</ele><time>2026-05-01T08:23:38.999Z</time></trkpt><trkpt lat="41.687137272056304" lon="13.008658877109255"><ele>648.0</ele><time>2026-05-01T08:23:39.999Z</time></trkpt><trkpt lat="41.68709865177562" lon="13.008906961825106"><ele>648.0</ele><time>2026-05-01T08:23:40.999Z</time></trkpt><trkpt lat="41.68705538300958" lon="13.009138719361607"><ele>648.0</ele><time>2026-05-01T08:23:41.999Z</time></trkpt><trkpt lat="41.68700763560838" lon="13.009376495622192"><ele>648.0</ele><time>2026-05-01T08:23:42.999Z</time></trkpt><trkpt lat="41.686953938209555" lon="13.009616130551162"><ele>641.6666666666666</ele><time>2026-05-01T08:23:43.999Z</time></trkpt><trkpt lat="41.68690558331182" lon="13.009845789472438"><ele>635.3333333333333</ele><time>2026-05-01T08:23:44.999Z</time></trkpt><trkpt lat="41.68685726578089" lon="13.010071381518278"><ele>629.0</ele><time>2026-05-01T08:23:45.999Z</time></trkpt><trkpt lat="41.686811635808176" lon="13.01029113250933"><ele>629.0</ele><time>2026-05-01T08:23:46.999Z</time></trkpt><trkpt lat="41.68677518741288" lon="13.010484672292142"><ele>629.0</ele><time>2026-05-01T08:23:47.999Z</time></trkpt><trkpt lat="41.686744560304426" lon="13.010656655282258"><ele>629.0</ele><time>2026-05-01T08:23:48.999Z</time></trkpt><trkpt lat="41.68670344797412" lon="13.010797488422757"><ele>629.0</ele><time>2026-05-01T08:23:49.999Z</time></trkpt><trkpt lat="41.68667293859108" lon="13.010934720830335"><ele>629.6</ele><time>2026-05-01T08:23:50.999Z</time></trkpt><trkpt lat="41.68664771623764" lon="13.01106266886729"><ele>630.2</ele><time>2026-05-01T08:23:51.999Z</time></trkpt><trkpt lat="41.68664433777069" lon="13.011191996050423"><ele>630.8000000000001</ele><time>2026-05-01T08:23:52.999Z</time></trkpt><trkpt lat="41.6866282012682" lon="13.01131383188976"><ele>631.4</ele><time>2026-05-01T08:23:53.999Z</time></trkpt><trkpt lat="41.68661932761418" lon="13.011450701976885"><ele>632.0</ele><time>2026-05-01T08:23:54.999Z</time></trkpt><trkpt lat="41.68661404717353" lon="13.01161025590995"><ele>630.75</ele><time>2026-05-01T08:23:55.999Z</time></trkpt><trkpt lat="41.68660678684605" lon="13.0117719744025"><ele>629.5</ele><time>2026-05-01T08:23:56.999Z</time></trkpt><trkpt lat="41.68660452880428" lon="13.011925896255102"><ele>628.25</ele><time>2026-05-01T08:23:57.999Z</time></trkpt><trkpt lat="41.686592375799194" lon="13.012080468883966"><ele>627.0</ele><time>2026-05-01T08:23:58.999Z</time></trkpt><trkpt lat="41.6865649593132" lon="13.01225323441653"><ele>627.0</ele><time>2026-05-01T08:23:59.999Z</time></trkpt><trkpt lat="41.686532369293715" lon="13.012433268347177"><ele>627.0</ele><time>2026-05-01T08:24:00.999Z</time></trkpt><trkpt lat="41.68649635391338" lon="13.012590689870514"><ele>627.0</ele><time>2026-05-01T08:24:01.999Z</time></trkpt><trkpt lat="41.68646311898274" lon="13.012743080626224"><ele>627.0</ele><time>2026-05-01T08:24:02.999Z</time></trkpt><trkpt lat="41.68643416982622" lon="13.012900551496987"><ele>625.25</ele><time>2026-05-01T08:24:03.999Z</time></trkpt><trkpt lat="41.68640683209414" lon="13.013058399822015"><ele>623.5</ele><time>2026-05-01T08:24:04.999Z</time></trkpt><trkpt lat="41.686373641476266" lon="13.01320700288786"><ele>621.75</ele><time>2026-05-01T08:24:05.999Z</time></trkpt><trkpt lat="41.68634109844606" lon="13.013349037252917"><ele>620.0</ele><time>2026-05-01T08:24:06.999Z</time></trkpt><trkpt lat="41.68628781187234" lon="13.01348457246561"><ele>618.75</ele><time>2026-05-01T08:24:07.999Z</time></trkpt><trkpt lat="41.68623015840077" lon="13.013621680555152"><ele>617.5</ele><time>2026-05-01T08:24:08.999Z</time></trkpt><trkpt lat="41.68615814401302" lon="13.013746252566907"><ele>616.25</ele><time>2026-05-01T08:24:09.999Z</time></trkpt><trkpt lat="41.68610783581534" lon="13.013882447712026"><ele>615.0</ele><time>2026-05-01T08:24:10.999Z</time></trkpt><trkpt lat="41.68604649791286" lon="13.014015929543692"><ele>617.75</ele><time>2026-05-01T08:24:11.999Z</time></trkpt><trkpt lat="41.68599979303197" lon="13.0141678408321"><ele>620.5</ele><time>2026-05-01T08:24:12.999Z</time></trkpt><trkpt lat="41.68597052361345" lon="13.014334245956723"><ele>623.25</ele><time>2026-05-01T08:24:13.999Z</time></trkpt><trkpt lat="41.68595659368686" lon="13.014510525017156"><ele>626.0</ele><time>2026-05-01T08:24:14.999Z</time></trkpt><trkpt lat="41.68595579444835" lon="13.014685741536544"><ele>626.0</ele><time>2026-05-01T08:24:15.999Z</time></trkpt><trkpt lat="41.685974524602315" lon="13.014852021996324"><ele>626.0</ele><time>2026-05-01T08:24:16.999Z</time></trkpt><trkpt lat="41.686003910632245" lon="13.01501237520342"><ele>626.0</ele><time>2026-05-01T08:24:17.999Z</time></trkpt><trkpt lat="41.68605172405883" lon="13.015162895699879"><ele>626.0</ele><time>2026-05-01T08:24:18.999Z</time></trkpt><trkpt lat="41.68612108288523" lon="13.015298472605245"><ele>620.4</ele><time>2026-05-01T08:24:19.999Z</time></trkpt><trkpt lat="41.6861896165438" lon="13.015420149008815"><ele>614.8</ele><time>2026-05-01T08:24:20.999Z</time></trkpt><trkpt lat="41.686253280251464" lon="13.015525993007786"><ele>609.1999999999999</ele><time>2026-05-01T08:24:22.001Z</time></trkpt><trkpt lat="41.686315329649396" lon="13.015634415023893"><ele>603.6</ele><time>2026-05-01T08:24:23.001Z</time></trkpt><trkpt lat="41.68637580308162" lon="13.01574187751301"><ele>598.0</ele><time>2026-05-01T08:24:24.001Z</time></trkpt><trkpt lat="41.68643484195462" lon="13.015858858744513"><ele>598.0</ele><time>2026-05-01T08:24:25.001Z</time></trkpt><trkpt lat="41.68649104857046" lon="13.015975056965825"><ele>598.0</ele><time>2026-05-01T08:24:26.001Z</time></trkpt><trkpt lat="41.68654207813951" lon="13.016092268564812"><ele>598.0</ele><time>2026-05-01T08:24:27.001Z</time></trkpt><trkpt lat="41.68659099438468" lon="13.016212335713634"><ele>598.0</ele><time>2026-05-01T08:24:28.001Z</time></trkpt><trkpt lat="41.686637359448476" lon="13.016327073463199"><ele>598.0</ele><time>2026-05-01T08:24:29.001Z</time></trkpt><trkpt lat="41.68668353628649" lon="13.01643921136563"><ele>598.0</ele><time>2026-05-01T08:24:30.001Z</time></trkpt><trkpt lat="41.68672413805496" lon="13.016546120553947"><ele>598.0</ele><time>2026-05-01T08:24:31.001Z</time></trkpt><trkpt lat="41.68676036727798" lon="13.01665464694152"><ele>598.0</ele><time>2026-05-01T08:24:32.001Z</time></trkpt><trkpt lat="41.68676840916706" lon="13.016772012543129"><ele>598.0</ele><time>2026-05-01T08:24:33.001Z</time></trkpt><trkpt lat="41.6867794584956" lon="13.016884496837157"><ele>598.0</ele><time>2026-05-01T08:24:34.001Z</time></trkpt><trkpt lat="41.68677410356124" lon="13.017010388418537"><ele>598.0</ele><time>2026-05-01T08:24:35.001Z</time></trkpt><trkpt lat="41.68676613568868" lon="13.01713813505324"><ele>597.5</ele><time>2026-05-01T08:24:36.001Z</time></trkpt><trkpt lat="41.68675610982094" lon="13.017255880942715"><ele>597.0</ele><time>2026-05-01T08:24:37.001Z</time></trkpt><trkpt lat="41.68675228718282" lon="13.017361957415124"><ele>596.5</ele><time>2026-05-01T08:24:38.001Z</time></trkpt><trkpt lat="41.68677234678253" lon="13.017453408237325"><ele>596.0</ele><time>2026-05-01T08:24:39Z</time></trkpt><trkpt lat="41.686787003041395" lon="13.017600357085284"><ele>595.5</ele><time>2026-05-01T08:24:41Z</time></trkpt><trkpt lat="41.686787427230165" lon="13.01771565525179"><ele>595.0</ele><time>2026-05-01T08:24:43Z</time></trkpt><trkpt lat="41.68681243900318" lon="13.017841843987458"><ele>595.0</ele><time>2026-05-01T08:24:49Z</time></trkpt><trkpt lat="41.686850892664005" lon="13.01798321786845"><ele>595.0</ele><time>2026-05-01T08:24:50Z</time></trkpt><trkpt lat="41.68692605472495" lon="13.018110240170557"><ele>595.0</ele><time>2026-05-01T08:24:51Z</time></trkpt><trkpt lat="41.68701006525237" lon="13.018201577165383"><ele>595.0</ele><time>2026-05-01T08:24:52Z</time></trkpt><trkpt lat="41.68710388205708" lon="13.018278431052448"><ele>592.2</ele><time>2026-05-01T08:24:53Z</time></trkpt><trkpt lat="41.687183622783515" lon="13.01837348729415"><ele>589.4</ele><time>2026-05-01T08:24:54Z</time></trkpt><trkpt lat="41.68725548351449" lon="13.018454717772538"><ele>586.6</ele><time>2026-05-01T08:24:55Z</time></trkpt><trkpt lat="41.68732862955438" lon="13.018536947468718"><ele>583.8</ele><time>2026-05-01T08:24:56Z</time></trkpt><trkpt lat="41.687402374178546" lon="13.018617931372505"><ele>581.0</ele><time>2026-05-01T08:24:57Z</time></trkpt><trkpt lat="41.68746836320589" lon="13.018726634134874"><ele>581.0</ele><time>2026-05-01T08:24:58Z</time></trkpt><trkpt lat="41.68755871856384" lon="13.018809438441282"><ele>581.0</ele><time>2026-05-01T08:24:59Z</time></trkpt><trkpt lat="41.68762842031535" lon="13.018893604404713"><ele>581.0</ele><time>2026-05-01T08:25:00Z</time></trkpt><trkpt lat="41.68768817690071" lon="13.01898069142372"><ele>581.0</ele><time>2026-05-01T08:25:01Z</time></trkpt><trkpt lat="41.68775340110524" lon="13.019048715461713"><ele>581.0</ele><time>2026-05-01T08:25:02Z</time></trkpt><trkpt lat="41.687814258811244" lon="13.019113965827499"><ele>580.0</ele><time>2026-05-01T08:25:03Z</time></trkpt><trkpt lat="41.687880326922674" lon="13.019249247587618"><ele>579.0</ele><time>2026-05-01T08:25:05Z</time></trkpt><trkpt lat="41.687768213212" lon="13.019308605255318"><ele>578.0</ele><time>2026-05-01T08:25:07Z</time></trkpt><trkpt lat="41.68770686108949" lon="13.019356291112572"><ele>577.0</ele><time>2026-05-01T08:25:08Z</time></trkpt><trkpt lat="41.68762693374547" lon="13.019412639080068"><ele>576.0</ele><time>2026-05-01T08:25:09Z</time></trkpt><trkpt lat="41.68753799464096" lon="13.019469210476375"><ele>578.2</ele><time>2026-05-01T08:25:10Z</time></trkpt><trkpt lat="41.687432951979325" lon="13.019540377637876"><ele>580.4000000000001</ele><time>2026-05-01T08:25:11Z</time></trkpt><trkpt lat="41.6873339767422" lon="13.019607433853892"><ele>582.6</ele><time>2026-05-01T08:25:12Z</time></trkpt><trkpt lat="41.68724082928497" lon="13.019670540585754"><ele>584.8000000000001</ele><time>2026-05-01T08:25:13Z</time></trkpt><trkpt lat="41.68714757836807" lon="13.019747056462013"><ele>587.0</ele><time>2026-05-01T08:25:14Z</time></trkpt><trkpt lat="41.68705031580036" lon="13.01983559367573"><ele>587.0</ele><time>2026-05-01T08:25:15Z</time></trkpt><trkpt lat="41.68695272221041" lon="13.019930905118992"><ele>587.0</ele><time>2026-05-01T08:25:16Z</time></trkpt><trkpt lat="41.68685271983953" lon="13.020028924575323"><ele>587.0</ele><time>2026-05-01T08:25:17Z</time></trkpt><trkpt lat="41.68674933353245" lon="13.020129974808123"><ele>587.0</ele><time>2026-05-01T08:25:18Z</time></trkpt><trkpt lat="41.68664166361633" lon="13.020235125127614"><ele>588.75</ele><time>2026-05-01T08:25:19Z</time></trkpt><trkpt lat="41.68653540320598" lon="13.02034144373195"><ele>590.5</ele><time>2026-05-01T08:25:20Z</time></trkpt><trkpt lat="41.686426843315516" lon="13.020452334670352"><ele>592.25</ele><time>2026-05-01T08:25:21Z</time></trkpt><trkpt lat="41.68631776344842" lon="13.020564039828457"><ele>594.0</ele><time>2026-05-01T08:25:22Z</time></trkpt><trkpt lat="41.68620511513981" lon="13.020673615245409"><ele>595.0</ele><time>2026-05-01T08:25:23Z</time></trkpt><trkpt lat="41.68609484664492" lon="13.020784984385603"><ele>596.0</ele><time>2026-05-01T08:25:24Z</time></trkpt><trkpt lat="41.685997323555" lon="13.020913815889449"><ele>597.0</ele><time>2026-05-01T08:25:25Z</time></trkpt><trkpt lat="41.68589055705952" lon="13.021027889120443"><ele>598.0</ele><time>2026-05-01T08:25:26Z</time></trkpt><trkpt lat="41.68577227710681" lon="13.021125295328918"><ele>598.0</ele><time>2026-05-01T08:25:27Z</time></trkpt><trkpt lat="41.68566780486467" lon="13.021232722663012"><ele>598.0</ele><time>2026-05-01T08:25:28Z</time></trkpt><trkpt lat="41.685570961984" lon="13.021335298239618"><ele>598.0</ele><time>2026-05-01T08:25:29Z</time></trkpt><trkpt lat="41.685479128283255" lon="13.021435396513207"><ele>598.0</ele><time>2026-05-01T08:25:30Z</time></trkpt><trkpt lat="41.68534183380926" lon="13.021474682537356"><ele>600.25</ele><time>2026-05-01T08:25:31Z</time></trkpt><trkpt lat="41.685256307448455" lon="13.021611429189218"><ele>602.5</ele><time>2026-05-01T08:25:32Z</time></trkpt><trkpt lat="41.68531399469387" lon="13.021846929435748"><ele>604.75</ele><time>2026-05-01T08:25:33Z</time></trkpt><trkpt lat="41.685324275865604" lon="13.022018309290852"><ele>607.0</ele><time>2026-05-01T08:25:34Z</time></trkpt><trkpt lat="41.68534826806099" lon="13.022199214011554"><ele>602.5</ele><time>2026-05-01T08:25:35Z</time></trkpt><trkpt lat="41.68536742052951" lon="13.0223815577903"><ele>598.0</ele><time>2026-05-01T08:25:36Z</time></trkpt><trkpt lat="41.68538334926332" lon="13.022569276932483"><ele>593.5</ele><time>2026-05-01T08:25:37Z</time></trkpt><trkpt lat="41.6853965618107" lon="13.02275454342944"><ele>589.0</ele><time>2026-05-01T08:25:38Z</time></trkpt><trkpt lat="41.68540939478317" lon="13.02293451796502"><ele>588.6</ele><time>2026-05-01T08:25:38.999Z</time></trkpt><trkpt lat="41.68541915021169" lon="13.023089984927642"><ele>588.2</ele><time>2026-05-01T08:25:39.999Z</time></trkpt><trkpt lat="41.68542721523002" lon="13.02322750343363"><ele>587.8000000000001</ele><time>2026-05-01T08:25:40.999Z</time></trkpt><trkpt lat="41.685430554650225" lon="13.023351988774836"><ele>587.4</ele><time>2026-05-01T08:25:41.999Z</time></trkpt><trkpt lat="41.685427001948085" lon="13.023473470825842"><ele>587.0</ele><time>2026-05-01T08:25:42.999Z</time></trkpt><trkpt lat="41.685408924533114" lon="13.02360383888153"><ele>588.5</ele><time>2026-05-01T08:25:43.999Z</time></trkpt><trkpt lat="41.68536525627643" lon="13.023744866721607"><ele>590.0</ele><time>2026-05-01T08:25:44.999Z</time></trkpt><trkpt lat="41.685273967058244" lon="13.023858184169985"><ele>591.5</ele><time>2026-05-01T08:25:45.999Z</time></trkpt><trkpt lat="41.68517345320449" lon="13.023961326737991"><ele>593.0</ele><time>2026-05-01T08:25:46.999Z</time></trkpt><trkpt lat="41.68505382144103" lon="13.024081708443884"><ele>594.6666666666666</ele><time>2026-05-01T08:25:47.999Z</time></trkpt><trkpt lat="41.68493349794925" lon="13.024205463012693"><ele>596.3333333333334</ele><time>2026-05-01T08:25:48.999Z</time></trkpt><trkpt lat="41.684806504438036" lon="13.024333962355591"><ele>598.0</ele><time>2026-05-01T08:25:49.999Z</time></trkpt><trkpt lat="41.68467880181846" lon="13.024462446548183"><ele>598.0</ele><time>2026-05-01T08:25:50.999Z</time></trkpt><trkpt lat="41.68455911485069" lon="13.02458558026254"><ele>598.0</ele><time>2026-05-01T08:25:51.999Z</time></trkpt><trkpt lat="41.684448330400954" lon="13.024700778934857"><ele>598.0</ele><time>2026-05-01T08:25:52.999Z</time></trkpt><trkpt lat="41.68433303733171" lon="13.024808477742448"><ele>598.0</ele><time>2026-05-01T08:25:53.999Z</time></trkpt><trkpt lat="41.68420195481562" lon="13.024895839016517"><ele>598.6666666666667</ele><time>2026-05-01T08:25:54.999Z</time></trkpt><trkpt lat="41.684055033671754" lon="13.02495671566725"><ele>599.3333333333334</ele><time>2026-05-01T08:25:55.999Z</time></trkpt><trkpt lat="41.68388454575722" lon="13.024991717330385"><ele>600.0</ele><time>2026-05-01T08:25:56.999Z</time></trkpt><trkpt lat="41.683703688844034" lon="13.025027776731454"><ele>596.0</ele><time>2026-05-01T08:25:57.999Z</time></trkpt><trkpt lat="41.68353525339995" lon="13.0250572982781"><ele>592.0</ele><time>2026-05-01T08:25:58.999Z</time></trkpt><trkpt lat="41.683375974776645" lon="13.025086793383808"><ele>588.0</ele><time>2026-05-01T08:25:59.999Z</time></trkpt><trkpt lat="41.68322514045331" lon="13.02515261108479"><ele>588.0</ele><time>2026-05-01T08:26:00.999Z</time></trkpt><trkpt lat="41.6830823308787" lon="13.025230618767289"><ele>588.0</ele><time>2026-05-01T08:26:01.999Z</time></trkpt><trkpt lat="41.68296259477299" lon="13.025350400472528"><ele>588.0</ele><time>2026-05-01T08:26:02.999Z</time></trkpt><trkpt lat="41.68287478683991" lon="13.025461518639794"><ele>588.0</ele><time>2026-05-01T08:26:03.999Z</time></trkpt><trkpt lat="41.68281977892123" lon="13.02556777742787"><ele>588.0</ele><time>2026-05-01T08:26:04.999Z</time></trkpt><trkpt lat="41.68278929542741" lon="13.0256859472068"><ele>588.0</ele><time>2026-05-01T08:26:05.999Z</time></trkpt><trkpt lat="41.682773771690734" lon="13.025842689595077"><ele>588.0</ele><time>2026-05-01T08:26:06.999Z</time></trkpt><trkpt lat="41.68277084767031" lon="13.026032273882848"><ele>588.0</ele><time>2026-05-01T08:26:07.999Z</time></trkpt><trkpt lat="41.68277381784258" lon="13.02621410526134"><ele>584.75</ele><time>2026-05-01T08:26:08.999Z</time></trkpt><trkpt lat="41.68275110399875" lon="13.026383969056667"><ele>581.5</ele><time>2026-05-01T08:26:09.999Z</time></trkpt><trkpt lat="41.68271833123924" lon="13.02655162890101"><ele>578.25</ele><time>2026-05-01T08:26:10.999Z</time></trkpt><trkpt lat="41.682649993641014" lon="13.026709271898875"><ele>575.0</ele><time>2026-05-01T08:26:11.999Z</time></trkpt><trkpt lat="41.68257069228256" lon="13.026867455116204"><ele>573.0</ele><time>2026-05-01T08:26:12.999Z</time></trkpt><trkpt lat="41.68248380545961" lon="13.027033535145227"><ele>571.0</ele><time>2026-05-01T08:26:13.999Z</time></trkpt><trkpt lat="41.6824026428951" lon="13.027230317410663"><ele>569.0</ele><time>2026-05-01T08:26:14.999Z</time></trkpt><trkpt lat="41.682307875376495" lon="13.027420251930486"><ele>569.0</ele><time>2026-05-01T08:26:15.999Z</time></trkpt><trkpt lat="41.6822129579149" lon="13.027617883751333"><ele>569.0</ele><time>2026-05-01T08:26:16.999Z</time></trkpt><trkpt lat="41.682125383783934" lon="13.027809951810807"><ele>569.0</ele><time>2026-05-01T08:26:17.999Z</time></trkpt><trkpt lat="41.682049280628654" lon="13.027987480310859"><ele>569.0</ele><time>2026-05-01T08:26:18.999Z</time></trkpt><trkpt lat="41.6819835259802" lon="13.028167424488874"><ele>569.0</ele><time>2026-05-01T08:26:19.999Z</time></trkpt><trkpt lat="41.68194483780848" lon="13.028374970501991"><ele>569.0</ele><time>2026-05-01T08:26:20.999Z</time></trkpt><trkpt lat="41.68193620601598" lon="13.028601928019956"><ele>567.3333333333333</ele><time>2026-05-01T08:26:21.999Z</time></trkpt><trkpt lat="41.681960287568614" lon="13.028841893397464"><ele>565.6666666666666</ele><time>2026-05-01T08:26:22.999Z</time></trkpt><trkpt lat="41.681990544699154" lon="13.029065986007135"><ele>564.0</ele><time>2026-05-01T08:26:23.999Z</time></trkpt><trkpt lat="41.682006948242474" lon="13.02923189631613"><ele>563.0</ele><time>2026-05-01T08:26:24.999Z</time></trkpt><trkpt lat="41.68201692311497" lon="13.029340996556154"><ele>562.0</ele><time>2026-05-01T08:26:25.999Z</time></trkpt><trkpt lat="41.682012403321885" lon="13.02942596293572"><ele>561.0</ele><time>2026-05-01T08:26:28.001Z</time></trkpt><trkpt lat="41.682036013315106" lon="13.029538485286157"><ele>560.0</ele><time>2026-05-01T08:30:36.999Z</time></trkpt><trkpt lat="41.68206258944712" lon="13.029663611268615"><ele>559.0</ele><time>2026-05-01T08:30:37.999Z</time></trkpt><trkpt lat="41.6821149663342" lon="13.029806342166696"><ele>558.0</ele><time>2026-05-01T08:30:39Z</time></trkpt><trkpt lat="41.68218468817659" lon="13.029961131175913"><ele>553.6666666666666</ele><time>2026-05-01T08:30:40Z</time></trkpt><trkpt lat="41.682271273763156" lon="13.030118250234127"><ele>549.3333333333333</ele><time>2026-05-01T08:30:41Z</time></trkpt><trkpt lat="41.68236754173003" lon="13.030273987674232"><ele>545.0</ele><time>2026-05-01T08:30:42Z</time></trkpt><trkpt lat="41.682464586177" lon="13.030445211560941"><ele>545.0</ele><time>2026-05-01T08:30:43Z</time></trkpt><trkpt lat="41.68256361140034" lon="13.030617948183865"><ele>545.0</ele><time>2026-05-01T08:30:44Z</time></trkpt><trkpt lat="41.682654073422434" lon="13.030779578253831"><ele>545.0</ele><time>2026-05-01T08:30:45Z</time></trkpt><trkpt lat="41.68274008184898" lon="13.030928705229982"><ele>546.5</ele><time>2026-05-01T08:30:46Z</time></trkpt><trkpt lat="41.682829204102724" lon="13.031076584013297"><ele>548.0</ele><time>2026-05-01T08:30:47Z</time></trkpt><trkpt lat="41.68292044503278" lon="13.031217700801719"><ele>549.5</ele><time>2026-05-01T08:30:48Z</time></trkpt><trkpt lat="41.683002348245324" lon="13.031350030615828"><ele>551.0</ele><time>2026-05-01T08:30:49Z</time></trkpt><trkpt lat="41.68308176533629" lon="13.03148207936187"><ele>551.0</ele><time>2026-05-01T08:30:50Z</time></trkpt><trkpt lat="41.683156851176655" lon="13.031606996922097"><ele>551.0</ele><time>2026-05-01T08:30:51Z</time></trkpt><trkpt lat="41.68321672890213" lon="13.031709738876454"><ele>551.0</ele><time>2026-05-01T08:30:52Z</time></trkpt><trkpt lat="41.68326792697704" lon="13.031801037021923"><ele>551.0</ele><time>2026-05-01T08:30:53Z</time></trkpt><trkpt lat="41.68329277226799" lon="13.031914165298723"><ele>551.0</ele><time>2026-05-01T08:30:54Z</time></trkpt><trkpt lat="41.68323914688169" lon="13.03202758236759"><ele>546.75</ele><time>2026-05-01T08:30:55Z</time></trkpt><trkpt lat="41.68315334719732" lon="13.032117236753509"><ele>542.5</ele><time>2026-05-01T08:30:56Z</time></trkpt><trkpt lat="41.683017102144994" lon="13.032147078451954"><ele>538.25</ele><time>2026-05-01T08:30:57Z</time></trkpt><trkpt lat="41.68289164810379" lon="13.032204458897969"><ele>534.0</ele><time>2026-05-01T08:30:58Z</time></trkpt><trkpt lat="41.682765823630795" lon="13.032270876933188"><ele>527.25</ele><time>2026-05-01T08:30:59Z</time></trkpt><trkpt lat="41.68262816729007" lon="13.032287693729952"><ele>520.5</ele><time>2026-05-01T08:31:00Z</time></trkpt><trkpt lat="41.682498726289985" lon="13.032316651471426"><ele>513.75</ele><time>2026-05-01T08:31:01Z</time></trkpt><trkpt lat="41.68236587529933" lon="13.03235911341702"><ele>507.0</ele><time>2026-05-01T08:31:02Z</time></trkpt><trkpt lat="41.68222375232908" lon="13.03238894139381"><ele>507.0</ele><time>2026-05-01T08:31:03Z</time></trkpt><trkpt lat="41.68207737025696" lon="13.03244603130817"><ele>507.0</ele><time>2026-05-01T08:31:04Z</time></trkpt><trkpt lat="41.68192734329716" lon="13.032545322676382"><ele>507.0</ele><time>2026-05-01T08:31:05Z</time></trkpt><trkpt lat="41.681781237857166" lon="13.032673850089525"><ele>506.66666666666663</ele><time>2026-05-01T08:31:06Z</time></trkpt><trkpt lat="41.68164127179399" lon="13.032814836452259"><ele>506.3333333333333</ele><time>2026-05-01T08:31:07Z</time></trkpt><trkpt lat="41.68150773408441" lon="13.032960640163383"><ele>506.0</ele><time>2026-05-01T08:31:08Z</time></trkpt><trkpt lat="41.681374622534726" lon="13.033120934960284"><ele>506.0</ele><time>2026-05-01T08:31:09Z</time></trkpt><trkpt lat="41.68124444113005" lon="13.033298675864978"><ele>506.0</ele><time>2026-05-01T08:31:10Z</time></trkpt><trkpt lat="41.68112023408442" lon="13.033479184166156"><ele>506.0</ele><time>2026-05-01T08:31:11Z</time></trkpt><trkpt lat="41.680997316458615" lon="13.03364896633399"><ele>507.66666666666663</ele><time>2026-05-01T08:31:12Z</time></trkpt><trkpt lat="41.680883373179924" lon="13.033825037474948"><ele>509.33333333333337</ele><time>2026-05-01T08:31:13Z</time></trkpt><trkpt lat="41.680770721681306" lon="13.033997358646438"><ele>511.0</ele><time>2026-05-01T08:31:14Z</time></trkpt><trkpt lat="41.68066118666099" lon="13.034185930443522"><ele>511.0</ele><time>2026-05-01T08:31:15Z</time></trkpt><trkpt lat="41.68056509622234" lon="13.034398256294752"><ele>511.0</ele><time>2026-05-01T08:31:16Z</time></trkpt><trkpt lat="41.68048122787335" lon="13.034615749311117"><ele>511.0</ele><time>2026-05-01T08:31:17Z</time></trkpt><trkpt lat="41.680404683046035" lon="13.034833437216276"><ele>516.3333333333334</ele><time>2026-05-01T08:31:18Z</time></trkpt><trkpt lat="41.68032743890997" lon="13.035048131050651"><ele>521.6666666666666</ele><time>2026-05-01T08:31:19Z</time></trkpt><trkpt lat="41.68024557831256" lon="13.035256299585061"><ele>527.0</ele><time>2026-05-01T08:31:20Z</time></trkpt><trkpt lat="41.680150478703794" lon="13.03545254301062"><ele>515.3333333333333</ele><time>2026-05-01T08:31:21Z</time></trkpt><trkpt lat="41.68005055395487" lon="13.03564357889957"><ele>503.66666666666663</ele><time>2026-05-01T08:31:22Z</time></trkpt><trkpt lat="41.67995100552779" lon="13.03583632518277"><ele>492.0</ele><time>2026-05-01T08:31:23Z</time></trkpt><trkpt lat="41.67985706574945" lon="13.03603239364411"><ele>492.0</ele><time>2026-05-01T08:31:24Z</time></trkpt><trkpt lat="41.67976612791625" lon="13.036219994360135"><ele>492.0</ele><time>2026-05-01T08:31:25Z</time></trkpt><trkpt lat="41.67967567244402" lon="13.036404081747078"><ele>492.0</ele><time>2026-05-01T08:31:26Z</time></trkpt><trkpt lat="41.67958490249073" lon="13.036589479250285"><ele>498.33333333333337</ele><time>2026-05-01T08:31:27Z</time></trkpt><trkpt lat="41.67949473293981" lon="13.036777140592758"><ele>504.6666666666667</ele><time>2026-05-01T08:31:28Z</time></trkpt><trkpt lat="41.67940027226003" lon="13.036969807013111"><ele>511.0</ele><time>2026-05-01T08:31:29Z</time></trkpt><trkpt lat="41.679307239896076" lon="13.037167086932273"><ele>500.33333333333337</ele><time>2026-05-01T08:31:30Z</time></trkpt><trkpt lat="41.679214099632844" lon="13.037369558529337"><ele>489.66666666666663</ele><time>2026-05-01T08:31:31Z</time></trkpt><trkpt lat="41.6791230675912" lon="13.03756744600241"><ele>479.0</ele><time>2026-05-01T08:31:32Z</time></trkpt><trkpt lat="41.679035186664" lon="13.037761706362947"><ele>479.0</ele><time>2026-05-01T08:31:33Z</time></trkpt><trkpt lat="41.67895015267607" lon="13.037953938863723"><ele>479.0</ele><time>2026-05-01T08:31:34Z</time></trkpt><trkpt lat="41.67886606152014" lon="13.038138659791747"><ele>479.0</ele><time>2026-05-01T08:31:35Z</time></trkpt><trkpt lat="41.678769498819754" lon="13.03830881484769"><ele>480.0</ele><time>2026-05-01T08:31:36Z</time></trkpt><trkpt lat="41.67870607731008" lon="13.038495627245803"><ele>481.0</ele><time>2026-05-01T08:31:37Z</time></trkpt><trkpt lat="41.67864172634122" lon="13.038657349018322"><ele>482.0</ele><time>2026-05-01T08:31:38Z</time></trkpt><trkpt lat="41.67859882384046" lon="13.038818406651275"><ele>483.0</ele><time>2026-05-01T08:31:39Z</time></trkpt><trkpt lat="41.67858401513328" lon="13.038996809334268"><ele>482.5</ele><time>2026-05-01T08:31:40Z</time></trkpt><trkpt lat="41.67861114075195" lon="13.039177344714185"><ele>482.0</ele><time>2026-05-01T08:31:41Z</time></trkpt><trkpt lat="41.678687066323896" lon="13.039339272993297"><ele>481.5</ele><time>2026-05-01T08:31:42Z</time></trkpt><trkpt lat="41.67879660078467" lon="13.039488455430524"><ele>481.0</ele><time>2026-05-01T08:31:43Z</time></trkpt><trkpt lat="41.67892418733726" lon="13.03963628448817"><ele>481.0</ele><time>2026-05-01T08:31:44Z</time></trkpt><trkpt lat="41.67906412625701" lon="13.039783837696964"><ele>481.0</ele><time>2026-05-01T08:31:45Z</time></trkpt><trkpt lat="41.67920795211783" lon="13.039938547955233"><ele>481.0</ele><time>2026-05-01T08:31:46Z</time></trkpt><trkpt lat="41.67935669640142" lon="13.040095022244827"><ele>483.0</ele><time>2026-05-01T08:31:47Z</time></trkpt><trkpt lat="41.679505559896455" lon="13.04025781003871"><ele>485.0</ele><time>2026-05-01T08:31:47.999Z</time></trkpt><trkpt lat="41.67964933206322" lon="13.040426128284377"><ele>487.0</ele><time>2026-05-01T08:31:48.999Z</time></trkpt><trkpt lat="41.67978345062657" lon="13.040615954103181"><ele>476.0</ele><time>2026-05-01T08:31:49.999Z</time></trkpt><trkpt lat="41.679908608616756" lon="13.040800888209537"><ele>465.0</ele><time>2026-05-01T08:31:50.999Z</time></trkpt><trkpt lat="41.68002825542712" lon="13.040975909979242"><ele>454.0</ele><time>2026-05-01T08:31:51.999Z</time></trkpt><trkpt lat="41.68014991065341" lon="13.041144014866656"><ele>454.0</ele><time>2026-05-01T08:31:52.999Z</time></trkpt><trkpt lat="41.68026337178157" lon="13.041302426593155"><ele>454.0</ele><time>2026-05-01T08:31:53.999Z</time></trkpt><trkpt lat="41.680366293332646" lon="13.041446154894698"><ele>454.0</ele><time>2026-05-01T08:31:54.999Z</time></trkpt><trkpt lat="41.680466087287186" lon="13.041580809794617"><ele>454.0</ele><time>2026-05-01T08:31:55.999Z</time></trkpt><trkpt lat="41.680567359894376" lon="13.041707007708657"><ele>454.0</ele><time>2026-05-01T08:31:56.999Z</time></trkpt><trkpt lat="41.68068155657323" lon="13.041816173405708"><ele>454.0</ele><time>2026-05-01T08:31:57.999Z</time></trkpt><trkpt lat="41.68081456875934" lon="13.041907814117637"><ele>454.0</ele><time>2026-05-01T08:31:58.999Z</time></trkpt><trkpt lat="41.680963192347804" lon="13.041977380040088"><ele>461.6666666666667</ele><time>2026-05-01T08:31:59.999Z</time></trkpt><trkpt lat="41.68112066863937" lon="13.042044311762568"><ele>469.33333333333337</ele><time>2026-05-01T08:32:00.999Z</time></trkpt><trkpt lat="41.68127278124425" lon="13.04213454765205"><ele>477.0</ele><time>2026-05-01T08:32:01.999Z</time></trkpt><trkpt lat="41.68142258353901" lon="13.042264683744722"><ele>477.0</ele><time>2026-05-01T08:32:02.999Z</time></trkpt><trkpt lat="41.681534300697585" lon="13.042428967293368"><ele>477.0</ele><time>2026-05-01T08:32:03.999Z</time></trkpt><trkpt lat="41.6816406774963" lon="13.042579679134857"><ele>477.0</ele><time>2026-05-01T08:32:04.999Z</time></trkpt><trkpt lat="41.68178833533375" lon="13.04269812477279"><ele>474.33333333333337</ele><time>2026-05-01T08:32:05.999Z</time></trkpt><trkpt lat="41.68194651731425" lon="13.042804615693102"><ele>471.6666666666667</ele><time>2026-05-01T08:32:06.999Z</time></trkpt><trkpt lat="41.68209213876297" lon="13.042909524879832"><ele>469.0</ele><time>2026-05-01T08:32:07.999Z</time></trkpt><trkpt lat="41.68223125267787" lon="13.04300472379832"><ele>469.0</ele><time>2026-05-01T08:32:08.999Z</time></trkpt><trkpt lat="41.68236534255612" lon="13.04310186978153"><ele>469.0</ele><time>2026-05-01T08:32:09.999Z</time></trkpt><trkpt lat="41.68248652022141" lon="13.043219212919425"><ele>469.0</ele><time>2026-05-01T08:32:10.999Z</time></trkpt><trkpt lat="41.682590901282154" lon="13.043370500251287"><ele>456.6666666666667</ele><time>2026-05-01T08:32:11.999Z</time></trkpt><trkpt lat="41.68267201146285" lon="13.043560757294923"><ele>444.33333333333337</ele><time>2026-05-01T08:32:12.999Z</time></trkpt><trkpt lat="41.68271222987764" lon="13.043776670843082"><ele>432.0</ele><time>2026-05-01T08:32:13.999Z</time></trkpt><trkpt lat="41.68275871523123" lon="13.043974601336824"><ele>434.75</ele><time>2026-05-01T08:32:14.999Z</time></trkpt><trkpt lat="41.682773295812595" lon="13.044160559389978"><ele>437.5</ele><time>2026-05-01T08:32:15.999Z</time></trkpt><trkpt lat="41.682789110047075" lon="13.044327741277394"><ele>440.25</ele><time>2026-05-01T08:32:16.999Z</time></trkpt><trkpt lat="41.682813982963985" lon="13.044488029670648"><ele>443.0</ele><time>2026-05-01T08:32:17.999Z</time></trkpt><trkpt lat="41.682842064682916" lon="13.044643233779208"><ele>443.0</ele><time>2026-05-01T08:32:18.999Z</time></trkpt><trkpt lat="41.68287400961626" lon="13.044797540707352"><ele>443.0</ele><time>2026-05-01T08:32:19.999Z</time></trkpt><trkpt lat="41.682917536439525" lon="13.0449581336592"><ele>443.0</ele><time>2026-05-01T08:32:20.999Z</time></trkpt><trkpt lat="41.68297081135534" lon="13.04511196065823"><ele>443.0</ele><time>2026-05-01T08:32:21.999Z</time></trkpt><trkpt lat="41.68303538477955" lon="13.045249355047808"><ele>438.0</ele><time>2026-05-01T08:32:22.999Z</time></trkpt><trkpt lat="41.68311772453946" lon="13.045362802766226"><ele>433.0</ele><time>2026-05-01T08:32:23.999Z</time></trkpt><trkpt lat="41.683219046751475" lon="13.045441586166394"><ele>428.0</ele><time>2026-05-01T08:32:24.999Z</time></trkpt><trkpt lat="41.68333657920889" lon="13.045476778563625"><ele>423.0</ele><time>2026-05-01T08:32:25.999Z</time></trkpt><trkpt lat="41.683463347869136" lon="13.045459757951578"><ele>423.0</ele><time>2026-05-01T08:32:26.999Z</time></trkpt><trkpt lat="41.683574601008246" lon="13.045431993269936"><ele>423.0</ele><time>2026-05-01T08:32:27.999Z</time></trkpt><trkpt lat="41.683684590003274" lon="13.045379138431255"><ele>423.0</ele><time>2026-05-01T08:32:28.999Z</time></trkpt><trkpt lat="41.68379017454424" lon="13.045296943042617"><ele>423.0</ele><time>2026-05-01T08:32:29.999Z</time></trkpt><trkpt lat="41.683885138385605" lon="13.045193267487864"><ele>425.25</ele><time>2026-05-01T08:32:30.999Z</time></trkpt><trkpt lat="41.683978914156334" lon="13.045078881008067"><ele>427.5</ele><time>2026-05-01T08:32:31.999Z</time></trkpt><trkpt lat="41.684068130375564" lon="13.044967397518386"><ele>429.75</ele><time>2026-05-01T08:32:32.999Z</time></trkpt><trkpt lat="41.68414912700553" lon="13.04486347962501"><ele>432.0</ele><time>2026-05-01T08:32:33.999Z</time></trkpt><trkpt lat="41.68424149728443" lon="13.044751486786566"><ele>432.0</ele><time>2026-05-01T08:32:34.999Z</time></trkpt><trkpt lat="41.684328368855454" lon="13.044611109784976"><ele>432.0</ele><time>2026-05-01T08:32:35.999Z</time></trkpt><trkpt lat="41.68439690354809" lon="13.044456546143243"><ele>432.0</ele><time>2026-05-01T08:32:36.999Z</time></trkpt><trkpt lat="41.684460418995364" lon="13.044313693163742"><ele>432.0</ele><time>2026-05-01T08:32:37.999Z</time></trkpt><trkpt lat="41.684528499081054" lon="13.044180230543256"><ele>427.0</ele><time>2026-05-01T08:32:38.999Z</time></trkpt><trkpt lat="41.68460217389584" lon="13.044046490719682"><ele>422.0</ele><time>2026-05-01T08:32:39.999Z</time></trkpt><trkpt lat="41.684670041522786" lon="13.043909317462088"><ele>417.0</ele><time>2026-05-01T08:32:40.999Z</time></trkpt><trkpt lat="41.68474262551412" lon="13.043765754366317"><ele>412.0</ele><time>2026-05-01T08:32:41.999Z</time></trkpt><trkpt lat="41.68481677511406" lon="13.043617408340392"><ele>412.0</ele><time>2026-05-01T08:32:42.999Z</time></trkpt><trkpt lat="41.68489926756661" lon="13.04347712685195"><ele>412.0</ele><time>2026-05-01T08:32:44Z</time></trkpt><trkpt lat="41.684996556244904" lon="13.043346803046022"><ele>412.0</ele><time>2026-05-01T08:32:45Z</time></trkpt><trkpt lat="41.685103845220546" lon="13.043228371293107"><ele>412.0</ele><time>2026-05-01T08:32:46Z</time></trkpt><trkpt lat="41.685207328422656" lon="13.043110521313219"><ele>412.0</ele><time>2026-05-01T08:32:47Z</time></trkpt><trkpt lat="41.68530204900603" lon="13.042992648441711"><ele>412.0</ele><time>2026-05-01T08:32:48Z</time></trkpt><trkpt lat="41.685392635704595" lon="13.042884789616014"><ele>412.0</ele><time>2026-05-01T08:32:49Z</time></trkpt><trkpt lat="41.68549149835598" lon="13.042788332260804"><ele>412.0</ele><time>2026-05-01T08:32:50Z</time></trkpt><trkpt lat="41.68561400220979" lon="13.042712201753561"><ele>412.0</ele><time>2026-05-01T08:32:51Z</time></trkpt><trkpt lat="41.68574966547467" lon="13.042658014755755"><ele>412.0</ele><time>2026-05-01T08:32:52Z</time></trkpt><trkpt lat="41.68588216011676" lon="13.042619788333374"><ele>412.0</ele><time>2026-05-01T08:32:53Z</time></trkpt><trkpt lat="41.68601269243514" lon="13.042576502925101"><ele>412.0</ele><time>2026-05-01T08:32:54Z</time></trkpt><trkpt lat="41.68613895555565" lon="13.042531795097215"><ele>406.25</ele><time>2026-05-01T08:32:55Z</time></trkpt><trkpt lat="41.68626810355984" lon="13.042489706211729"><ele>400.5</ele><time>2026-05-01T08:32:56Z</time></trkpt><trkpt lat="41.68640336863404" lon="13.042458802481129"><ele>394.75</ele><time>2026-05-01T08:32:57Z</time></trkpt><trkpt lat="41.686541326108134" lon="13.04243280523534"><ele>389.0</ele><time>2026-05-01T08:32:58Z</time></trkpt><trkpt lat="41.68667266960698" lon="13.042408176675895"><ele>388.75</ele><time>2026-05-01T08:32:59Z</time></trkpt><trkpt lat="41.6868098252932" lon="13.042392491653782"><ele>388.5</ele><time>2026-05-01T08:33:00Z</time></trkpt><trkpt lat="41.68694991918245" lon="13.042408940741495"><ele>388.25</ele><time>2026-05-01T08:33:01Z</time></trkpt><trkpt lat="41.687081000380516" lon="13.042453074355542"><ele>388.0</ele><time>2026-05-01T08:33:02Z</time></trkpt><trkpt lat="41.687208485335155" lon="13.04250720998073"><ele>388.0</ele><time>2026-05-01T08:33:03Z</time></trkpt><trkpt lat="41.68734238329085" lon="13.042550557952872"><ele>388.0</ele><time>2026-05-01T08:33:04Z</time></trkpt><trkpt lat="41.687472420006195" lon="13.042587885329425"><ele>388.0</ele><time>2026-05-01T08:33:05Z</time></trkpt><trkpt lat="41.687604480275084" lon="13.042615471921831"><ele>388.0</ele><time>2026-05-01T08:33:06Z</time></trkpt><trkpt lat="41.68774137189361" lon="13.042637333029486"><ele>384.0</ele><time>2026-05-01T08:33:07Z</time></trkpt><trkpt lat="41.687881131855484" lon="13.042636928146912"><ele>380.0</ele><time>2026-05-01T08:33:08Z</time></trkpt><trkpt lat="41.68802076539103" lon="13.042635713441284"><ele>376.0</ele><time>2026-05-01T08:33:09Z</time></trkpt><trkpt lat="41.68815701965911" lon="13.042633797467703"><ele>372.0</ele><time>2026-05-01T08:33:10Z</time></trkpt><trkpt lat="41.68829223097853" lon="13.042618281816045"><ele>372.0</ele><time>2026-05-01T08:33:11Z</time></trkpt><trkpt lat="41.688429345918834" lon="13.04256126017294"><ele>372.0</ele><time>2026-05-01T08:33:12Z</time></trkpt><trkpt lat="41.68855753962879" lon="13.042459564318253"><ele>372.0</ele><time>2026-05-01T08:33:13Z</time></trkpt><trkpt lat="41.6886764868586" lon="13.042349501293598"><ele>372.0</ele><time>2026-05-01T08:33:14Z</time></trkpt><trkpt lat="41.68879646004156" lon="13.042253129235965"><ele>378.25</ele><time>2026-05-01T08:33:15Z</time></trkpt><trkpt lat="41.68891617889434" lon="13.04217385551023"><ele>384.5</ele><time>2026-05-01T08:33:16Z</time></trkpt><trkpt lat="41.68904185036211" lon="13.042122800202149"><ele>390.75</ele><time>2026-05-01T08:33:17Z</time></trkpt><trkpt lat="41.689179370628025" lon="13.042120764255335"><ele>397.0</ele><time>2026-05-01T08:33:18Z</time></trkpt><trkpt lat="41.68931656102597" lon="13.04216819228915"><ele>391.0</ele><time>2026-05-01T08:33:19Z</time></trkpt><trkpt lat="41.68945591567258" lon="13.042214876137598"><ele>385.0</ele><time>2026-05-01T08:33:20Z</time></trkpt><trkpt lat="41.68959341967626" lon="13.042208955056111"><ele>379.0</ele><time>2026-05-01T08:33:21Z</time></trkpt><trkpt lat="41.68973460906093" lon="13.042159729928446"><ele>373.0</ele><time>2026-05-01T08:33:22Z</time></trkpt><trkpt lat="41.68987769005009" lon="13.042084973507805"><ele>373.0</ele><time>2026-05-01T08:33:23Z</time></trkpt><trkpt lat="41.69001823150525" lon="13.042006664178329"><ele>373.0</ele><time>2026-05-01T08:33:24Z</time></trkpt><trkpt lat="41.69016035247637" lon="13.041935598731929"><ele>373.0</ele><time>2026-05-01T08:33:25Z</time></trkpt><trkpt lat="41.690305352301394" lon="13.0418720325815"><ele>368.0</ele><time>2026-05-01T08:33:25.999Z</time></trkpt><trkpt lat="41.690452081668525" lon="13.041820429877225"><ele>363.0</ele><time>2026-05-01T08:33:26.999Z</time></trkpt><trkpt lat="41.6905957481251" lon="13.041783131962374"><ele>358.0</ele><time>2026-05-01T08:33:27.999Z</time></trkpt><trkpt lat="41.69073813497215" lon="13.041752028765893"><ele>353.0</ele><time>2026-05-01T08:33:28.999Z</time></trkpt><trkpt lat="41.69088532769077" lon="13.041712245958854"><ele>353.0</ele><time>2026-05-01T08:33:29.999Z</time></trkpt><trkpt lat="41.6910339991364" lon="13.041634174203654"><ele>353.0</ele><time>2026-05-01T08:33:30.999Z</time></trkpt><trkpt lat="41.69117116599509" lon="13.041518040669766"><ele>353.0</ele><time>2026-05-01T08:33:31.999Z</time></trkpt><trkpt lat="41.691301666639326" lon="13.041370158478227"><ele>351.6666666666667</ele><time>2026-05-01T08:33:32.999Z</time></trkpt><trkpt lat="41.69144297879339" lon="13.04122981726152"><ele>350.3333333333333</ele><time>2026-05-01T08:33:33.999Z</time></trkpt><trkpt lat="41.69158489106866" lon="13.041081298194904"><ele>349.0</ele><time>2026-05-01T08:33:34.999Z</time></trkpt><trkpt lat="41.691726364049075" lon="13.040934427333431"><ele>347.0</ele><time>2026-05-01T08:33:35.999Z</time></trkpt><trkpt lat="41.69186033821896" lon="13.04078604589014"><ele>345.0</ele><time>2026-05-01T08:33:36.999Z</time></trkpt><trkpt lat="41.69199037818646" lon="13.040643380839692"><ele>343.0</ele><time>2026-05-01T08:33:37.999Z</time></trkpt><trkpt lat="41.69211842564864" lon="13.040503078569545"><ele>343.0</ele><time>2026-05-01T08:33:38.999Z</time></trkpt><trkpt lat="41.6922439730256" lon="13.040367373125466"><ele>343.0</ele><time>2026-05-01T08:33:39.999Z</time></trkpt><trkpt lat="41.692360958958865" lon="13.040239597279838"><ele>343.0</ele><time>2026-05-01T08:33:40.999Z</time></trkpt><trkpt lat="41.692463738266724" lon="13.040123920648021"><ele>343.0</ele><time>2026-05-01T08:33:41.999Z</time></trkpt><trkpt lat="41.69255796774157" lon="13.040020454401816"><ele>341.66666666666663</ele><time>2026-05-01T08:33:42.999Z</time></trkpt><trkpt lat="41.6926346580471" lon="13.039937683933859"><ele>340.3333333333333</ele><time>2026-05-01T08:33:43.999Z</time></trkpt><trkpt lat="41.69270201411234" lon="13.039876526768085"><ele>339.0</ele><time>2026-05-01T08:33:44.999Z</time></trkpt><trkpt lat="41.69276588950747" lon="13.039853027380373"><ele>337.6666666666667</ele><time>2026-05-01T08:33:45.999Z</time></trkpt><trkpt lat="41.692828575506" lon="13.039887271946277"><ele>336.33333333333337</ele><time>2026-05-01T08:33:46.999Z</time></trkpt><trkpt lat="41.692866917573426" lon="13.039968909963394"><ele>335.0</ele><time>2026-05-01T08:33:47.999Z</time></trkpt><trkpt lat="41.69285522961053" lon="13.040073396665798"><ele>337.0</ele><time>2026-05-01T08:33:48.999Z</time></trkpt><trkpt lat="41.69278136609618" lon="13.040154354581652"><ele>339.0</ele><time>2026-05-01T08:33:49.999Z</time></trkpt><trkpt lat="41.69267941864807" lon="13.040213414811193"><ele>341.0</ele><time>2026-05-01T08:33:50.999Z</time></trkpt><trkpt lat="41.69256560024003" lon="13.040271658692221"><ele>343.0</ele><time>2026-05-01T08:33:51.999Z</time></trkpt><trkpt lat="41.69245249616377" lon="13.040334903085377"><ele>343.0</ele><time>2026-05-01T08:33:52.999Z</time></trkpt><trkpt lat="41.6924264857181" lon="13.040470571262661"><ele>343.0</ele><time>2026-05-01T08:33:53.999Z</time></trkpt><trkpt lat="41.69233287808959" lon="13.040586817557644"><ele>343.0</ele><time>2026-05-01T08:33:54.999Z</time></trkpt><trkpt lat="41.69225616409904" lon="13.040741217898347"><ele>343.0</ele><time>2026-05-01T08:33:55.999Z</time></trkpt><trkpt lat="41.69219135788808" lon="13.040913823960384"><ele>344.5</ele><time>2026-05-01T08:33:56.999Z</time></trkpt><trkpt lat="41.69213064825763" lon="13.04108459086575"><ele>346.0</ele><time>2026-05-01T08:33:57.999Z</time></trkpt><trkpt lat="41.69206997569943" lon="13.0412429287363"><ele>347.5</ele><time>2026-05-01T08:33:58.999Z</time></trkpt><trkpt lat="41.69198995339832" lon="13.041395273236786"><ele>349.0</ele><time>2026-05-01T08:33:59.999Z</time></trkpt><trkpt lat="41.691900825771384" lon="13.04153937587825"><ele>343.0</ele><time>2026-05-01T08:34:00.999Z</time></trkpt><trkpt lat="41.6918065588304" lon="13.041677526069353"><ele>337.0</ele><time>2026-05-01T08:34:01.999Z</time></trkpt><trkpt lat="41.69170852003593" lon="13.04181682440538"><ele>331.0</ele><time>2026-05-01T08:34:02.999Z</time></trkpt><trkpt lat="41.691617896625864" lon="13.04195442296479"><ele>325.0</ele><time>2026-05-01T08:34:03.999Z</time></trkpt><trkpt lat="41.69153099525659" lon="13.042095705777198"><ele>325.0</ele><time>2026-05-01T08:34:04.999Z</time></trkpt><trkpt lat="41.69146582197699" lon="13.042255246591676"><ele>325.0</ele><time>2026-05-01T08:34:05.999Z</time></trkpt><trkpt lat="41.69141829208752" lon="13.042423853754586"><ele>325.0</ele><time>2026-05-01T08:34:06.999Z</time></trkpt><trkpt lat="41.691370427071774" lon="13.042582622839365"><ele>325.0</ele><time>2026-05-01T08:34:07.999Z</time></trkpt><trkpt lat="41.691268809174574" lon="13.042699945359708"><ele>325.3333333333333</ele><time>2026-05-01T08:34:08.999Z</time></trkpt><trkpt lat="41.69116810574774" lon="13.042827655874625"><ele>325.6666666666667</ele><time>2026-05-01T08:34:09.999Z</time></trkpt><trkpt lat="41.69104744173838" lon="13.042951939736744"><ele>326.0</ele><time>2026-05-01T08:34:10.999Z</time></trkpt><trkpt lat="41.690922320709156" lon="13.04308444087634"><ele>326.0</ele><time>2026-05-01T08:34:11.999Z</time></trkpt><trkpt lat="41.69079593404195" lon="13.043220353513128"><ele>326.0</ele><time>2026-05-01T08:34:12.999Z</time></trkpt><trkpt lat="41.69067467627971" lon="13.043378052370842"><ele>326.0</ele><time>2026-05-01T08:34:13.999Z</time></trkpt><trkpt lat="41.69053109343505" lon="13.043519440256416"><ele>322.6666666666667</ele><time>2026-05-01T08:34:14.999Z</time></trkpt><trkpt lat="41.69039937726141" lon="13.043659611107262"><ele>319.3333333333333</ele><time>2026-05-01T08:34:15.999Z</time></trkpt><trkpt lat="41.69026979015598" lon="13.04379349271186"><ele>316.0</ele><time>2026-05-01T08:34:16.999Z</time></trkpt><trkpt lat="41.69014022634297" lon="13.04392213295948"><ele>316.0</ele><time>2026-05-01T08:34:17.999Z</time></trkpt><trkpt lat="41.690008187525045" lon="13.044037063151087"><ele>316.0</ele><time>2026-05-01T08:34:18.999Z</time></trkpt><trkpt lat="41.689858443560865" lon="13.044109609044458"><ele>316.0</ele><time>2026-05-01T08:34:19.999Z</time></trkpt><trkpt lat="41.68972691802376" lon="13.044211233926845"><ele>310.0</ele><time>2026-05-01T08:34:20.998Z</time></trkpt><trkpt lat="41.68958786224873" lon="13.044294533713776"><ele>304.0</ele><time>2026-05-01T08:34:21.998Z</time></trkpt><trkpt lat="41.6894539464991" lon="13.044397808413278"><ele>298.0</ele><time>2026-05-01T08:34:22.998Z</time></trkpt><trkpt lat="41.68932805787708" lon="13.044530223449925"><ele>298.0</ele><time>2026-05-01T08:34:23.998Z</time></trkpt><trkpt lat="41.68922335429115" lon="13.044689262855348"><ele>298.0</ele><time>2026-05-01T08:34:24.998Z</time></trkpt><trkpt lat="41.68913606644612" lon="13.044861914121213"><ele>298.0</ele><time>2026-05-01T08:34:25.998Z</time></trkpt><trkpt lat="41.68903593982476" lon="13.045015944662529"><ele>293.3333333333333</ele><time>2026-05-01T08:34:26.998Z</time></trkpt><trkpt lat="41.688921525556786" lon="13.045154951627769"><ele>288.6666666666667</ele><time>2026-05-01T08:34:27.998Z</time></trkpt><trkpt lat="41.68879622500926" lon="13.045290723715798"><ele>284.0</ele><time>2026-05-01T08:34:28.998Z</time></trkpt><trkpt lat="41.6886679490365" lon="13.0454377246353"><ele>284.0</ele><time>2026-05-01T08:34:29.998Z</time></trkpt><trkpt lat="41.68853289828198" lon="13.045562734953513"><ele>284.0</ele><time>2026-05-01T08:34:30.998Z</time></trkpt><trkpt lat="41.68840815097971" lon="13.045680428223282"><ele>284.0</ele><time>2026-05-01T08:34:31.998Z</time></trkpt><trkpt lat="41.68830506749614" lon="13.045786797961538"><ele>284.0</ele><time>2026-05-01T08:34:32.998Z</time></trkpt><trkpt lat="41.688222787296674" lon="13.045870549332822"><ele>284.0</ele><time>2026-05-01T08:34:33.998Z</time></trkpt><trkpt lat="41.68815977916075" lon="13.04594046462673"><ele>284.0</ele><time>2026-05-01T08:34:34.998Z</time></trkpt><trkpt lat="41.68812227477332" lon="13.046012339363596"><ele>284.0</ele><time>2026-05-01T08:34:35.998Z</time></trkpt><trkpt lat="41.688117805122054" lon="13.04610930515498"><ele>284.0</ele><time>2026-05-01T08:34:36.998Z</time></trkpt><trkpt lat="41.688148123504035" lon="13.046210760673748"><ele>284.0</ele><time>2026-05-01T08:34:37.998Z</time></trkpt><trkpt lat="41.68821192607769" lon="13.046282432903432"><ele>284.0</ele><time>2026-05-01T08:34:38.998Z</time></trkpt><trkpt lat="41.68830154386869" lon="13.046302605463048"><ele>284.0</ele><time>2026-05-01T08:34:39.998Z</time></trkpt><trkpt lat="41.6883898159162" lon="13.046256003717419"><ele>284.0</ele><time>2026-05-01T08:34:40.998Z</time></trkpt><trkpt lat="41.68846540900085" lon="13.04615984540271"><ele>284.0</ele><time>2026-05-01T08:34:41.998Z</time></trkpt><trkpt lat="41.68854311926857" lon="13.0460571066719"><ele>284.0</ele><time>2026-05-01T08:34:42.998Z</time></trkpt><trkpt lat="41.68864601024016" lon="13.045984306644943"><ele>284.0</ele><time>2026-05-01T08:34:43.998Z</time></trkpt><trkpt lat="41.68876626368948" lon="13.045951412965058"><ele>281.5</ele><time>2026-05-01T08:34:44.998Z</time></trkpt><trkpt lat="41.68887841707536" lon="13.045907790260765"><ele>279.0</ele><time>2026-05-01T08:34:45.998Z</time></trkpt><trkpt lat="41.68898478381246" lon="13.045855313077928"><ele>276.5</ele><time>2026-05-01T08:34:46.998Z</time></trkpt><trkpt lat="41.68910399540512" lon="13.045836786153785"><ele>274.0</ele><time>2026-05-01T08:34:47.998Z</time></trkpt><trkpt lat="41.68922979907777" lon="13.045847306812238"><ele>274.0</ele><time>2026-05-01T08:34:48.998Z</time></trkpt><trkpt lat="41.68935425477692" lon="13.045892366317675"><ele>274.0</ele><time>2026-05-01T08:34:50Z</time></trkpt><trkpt lat="41.689472030975814" lon="13.045948237770721"><ele>274.0</ele><time>2026-05-01T08:34:51Z</time></trkpt><trkpt lat="41.689584368343866" lon="13.045993996002887"><ele>274.0</ele><time>2026-05-01T08:34:52Z</time></trkpt><trkpt lat="41.68969712121681" lon="13.046039051848519"><ele>272.75</ele><time>2026-05-01T08:34:53Z</time></trkpt><trkpt lat="41.68981120728683" lon="13.046096424837733"><ele>271.5</ele><time>2026-05-01T08:34:54Z</time></trkpt><trkpt lat="41.689924362679946" lon="13.046180295872285"><ele>270.25</ele><time>2026-05-01T08:34:55Z</time></trkpt><trkpt lat="41.690028897715784" lon="13.046295374337367"><ele>269.0</ele><time>2026-05-01T08:34:56Z</time></trkpt><trkpt lat="41.690132078083096" lon="13.0464307094027"><ele>269.0</ele><time>2026-05-01T08:34:57Z</time></trkpt><trkpt lat="41.69023593394039" lon="13.046573604305733"><ele>269.0</ele><time>2026-05-01T08:34:58Z</time></trkpt><trkpt lat="41.69033669385106" lon="13.046703705801475"><ele>269.0</ele><time>2026-05-01T08:34:59Z</time></trkpt><trkpt lat="41.69043381107579" lon="13.046824885561323"><ele>269.0</ele><time>2026-05-01T08:35:00Z</time></trkpt><trkpt lat="41.69052910246441" lon="13.046941559514268"><ele>266.25</ele><time>2026-05-01T08:35:01Z</time></trkpt><trkpt lat="41.69061879966584" lon="13.047062301298828"><ele>263.5</ele><time>2026-05-01T08:35:02Z</time></trkpt><trkpt lat="41.69069620893805" lon="13.047190225828738"><ele>260.75</ele><time>2026-05-01T08:35:03Z</time></trkpt><trkpt lat="41.690762925048105" lon="13.047328537773154"><ele>258.0</ele><time>2026-05-01T08:35:04Z</time></trkpt><trkpt lat="41.69082068341419" lon="13.047467972855678"><ele>256.25</ele><time>2026-05-01T08:35:05Z</time></trkpt><trkpt lat="41.69087992025144" lon="13.047603959729587"><ele>254.5</ele><time>2026-05-01T08:35:06Z</time></trkpt><trkpt lat="41.69094062601238" lon="13.047744050018128"><ele>252.75</ele><time>2026-05-01T08:35:07Z</time></trkpt><trkpt lat="41.6910030065044" lon="13.047887401774092"><ele>251.0</ele><time>2026-05-01T08:35:08Z</time></trkpt><trkpt lat="41.6910691428611" lon="13.048034973774568"><ele>250.5</ele><time>2026-05-01T08:35:09Z</time></trkpt><trkpt lat="41.69113971640558" lon="13.048190483118132"><ele>250.0</ele><time>2026-05-01T08:35:10Z</time></trkpt><trkpt lat="41.69120899332876" lon="13.04834448735545"><ele>249.5</ele><time>2026-05-01T08:35:11Z</time></trkpt><trkpt lat="41.691281152641466" lon="13.048500069118074"><ele>249.0</ele><time>2026-05-01T08:35:12Z</time></trkpt><trkpt lat="41.69135322162237" lon="13.048656328825805"><ele>248.25</ele><time>2026-05-01T08:35:13Z</time></trkpt><trkpt lat="41.69142428504093" lon="13.048803999788657"><ele>247.5</ele><time>2026-05-01T08:35:14Z</time></trkpt><trkpt lat="41.69148815947353" lon="13.048943068939005"><ele>246.75</ele><time>2026-05-01T08:35:15Z</time></trkpt><trkpt lat="41.691544226278026" lon="13.04906922397535"><ele>246.0</ele><time>2026-05-01T08:35:16Z</time></trkpt><trkpt lat="41.691602287712236" lon="13.04918737505785"><ele>245.4</ele><time>2026-05-01T08:35:17Z</time></trkpt><trkpt lat="41.69165542808785" lon="13.049307934437318"><ele>244.8</ele><time>2026-05-01T08:35:18Z</time></trkpt><trkpt lat="41.69169815655652" lon="13.04942388227866"><ele>244.20000000000002</ele><time>2026-05-01T08:35:19Z</time></trkpt><trkpt lat="41.69173463532983" lon="13.049539229222933"><ele>243.60000000000002</ele><time>2026-05-01T08:35:20Z</time></trkpt><trkpt lat="41.691764937750925" lon="13.049654451633854"><ele>243.0</ele><time>2026-05-01T08:35:21Z</time></trkpt><trkpt lat="41.69178930524742" lon="13.049782437240955"><ele>243.0</ele><time>2026-05-01T08:35:22Z</time></trkpt><trkpt lat="41.69182231552303" lon="13.049914630894571"><ele>243.0</ele><time>2026-05-01T08:35:23Z</time></trkpt><trkpt lat="41.691892419422544" lon="13.050030493738731"><ele>243.0</ele><time>2026-05-01T08:35:24Z</time></trkpt><trkpt lat="41.69198652500632" lon="13.050139942267032"><ele>243.0</ele><time>2026-05-01T08:35:25Z</time></trkpt><trkpt lat="41.69214945334956" lon="13.050415573380517"><ele>243.0</ele><time>2026-05-01T08:35:27Z</time></trkpt><trkpt lat="41.692197778087056" lon="13.050591243765089"><ele>243.0</ele><time>2026-05-01T08:35:28Z</time></trkpt><trkpt lat="41.692192522979994" lon="13.050805476912444"><ele>243.0</ele><time>2026-05-01T08:35:29Z</time></trkpt><trkpt lat="41.69221271872218" lon="13.051020978192506"><ele>243.0</ele><time>2026-05-01T08:35:30Z</time></trkpt><trkpt lat="41.692219948630864" lon="13.051233145742888"><ele>243.0</ele><time>2026-05-01T08:35:31Z</time></trkpt><trkpt lat="41.69222797181797" lon="13.051443459958058"><ele>243.0</ele><time>2026-05-01T08:35:32Z</time></trkpt><trkpt lat="41.69223691300422" lon="13.051644886576664"><ele>243.0</ele><time>2026-05-01T08:35:33Z</time></trkpt><trkpt lat="41.69223257410987" lon="13.051847433748671"><ele>243.0</ele><time>2026-05-01T08:35:34Z</time></trkpt><trkpt lat="41.692175702897565" lon="13.052050384735884"><ele>243.0</ele><time>2026-05-01T08:35:35Z</time></trkpt><trkpt lat="41.69211317103001" lon="13.052265819928316"><ele>242.0</ele><time>2026-05-01T08:35:36Z</time></trkpt><trkpt lat="41.692039658737926" lon="13.052487345602673"><ele>241.0</ele><time>2026-05-01T08:35:37Z</time></trkpt><trkpt lat="41.691974616123886" lon="13.052721997288174"><ele>240.0</ele><time>2026-05-01T08:35:38Z</time></trkpt><trkpt lat="41.69189239894788" lon="13.052953720108464"><ele>240.0</ele><time>2026-05-01T08:35:39Z</time></trkpt><trkpt lat="41.69181218980831" lon="13.053185881746547"><ele>240.0</ele><time>2026-05-01T08:35:40Z</time></trkpt><trkpt lat="41.69172036586725" lon="13.053391533077834"><ele>240.0</ele><time>2026-05-01T08:35:41Z</time></trkpt><trkpt lat="41.6916446950172" lon="13.053594344523232"><ele>240.66666666666669</ele><time>2026-05-01T08:35:42Z</time></trkpt><trkpt lat="41.69158459372415" lon="13.0538107868438"><ele>241.33333333333334</ele><time>2026-05-01T08:35:43Z</time></trkpt><trkpt lat="41.691502813021124" lon="13.054016306677607"><ele>242.0</ele><time>2026-05-01T08:35:44Z</time></trkpt><trkpt lat="41.69140677536119" lon="13.054222966365945"><ele>240.0</ele><time>2026-05-01T08:35:45Z</time></trkpt><trkpt lat="41.69129298882381" lon="13.054417545186977"><ele>238.0</ele><time>2026-05-01T08:35:46Z</time></trkpt><trkpt lat="41.69117763041646" lon="13.054599463794599"><ele>236.0</ele><time>2026-05-01T08:35:47Z</time></trkpt><trkpt lat="41.691069365186095" lon="13.054774378842614"><ele>236.33333333333334</ele><time>2026-05-01T08:35:48Z</time></trkpt><trkpt lat="41.6909743268162" lon="13.054960503421835"><ele>236.66666666666669</ele><time>2026-05-01T08:35:49Z</time></trkpt><trkpt lat="41.69089121500721" lon="13.055160973224133"><ele>237.0</ele><time>2026-05-01T08:35:50Z</time></trkpt><trkpt lat="41.690821836129864" lon="13.055374343087763"><ele>237.0</ele><time>2026-05-01T08:35:51Z</time></trkpt><trkpt lat="41.6907709215251" lon="13.055582670583892"><ele>237.0</ele><time>2026-05-01T08:35:52Z</time></trkpt><trkpt lat="41.6907494407187" lon="13.05578533317207"><ele>237.0</ele><time>2026-05-01T08:35:53Z</time></trkpt><trkpt lat="41.6907573871238" lon="13.056005644449531"><ele>236.33333333333331</ele><time>2026-05-01T08:35:53.999Z</time></trkpt><trkpt lat="41.69078859413761" lon="13.056233163078666"><ele>235.66666666666666</ele><time>2026-05-01T08:35:54.999Z</time></trkpt><trkpt lat="41.69082826877953" lon="13.056456020624834"><ele>235.0</ele><time>2026-05-01T08:35:55.999Z</time></trkpt><trkpt lat="41.690835000550564" lon="13.056672034736932"><ele>234.33333333333331</ele><time>2026-05-01T08:35:56.999Z</time></trkpt><trkpt lat="41.690826597735395" lon="13.056885860720689"><ele>233.66666666666669</ele><time>2026-05-01T08:35:57.999Z</time></trkpt><trkpt lat="41.69078101451379" lon="13.057104675076918"><ele>233.0</ele><time>2026-05-01T08:35:58.999Z</time></trkpt><trkpt lat="41.690726212156314" lon="13.057336331431355"><ele>233.33333333333334</ele><time>2026-05-01T08:35:59.999Z</time></trkpt><trkpt lat="41.690681776729114" lon="13.057573576136832"><ele>233.66666666666669</ele><time>2026-05-01T08:36:00.999Z</time></trkpt><trkpt lat="41.69062304556136" lon="13.05780290874181"><ele>234.0</ele><time>2026-05-01T08:36:01.999Z</time></trkpt><trkpt lat="41.690566058852006" lon="13.058031551899608"><ele>234.0</ele><time>2026-05-01T08:36:02.999Z</time></trkpt><trkpt lat="41.690494050454504" lon="13.058249411372326"><ele>234.0</ele><time>2026-05-01T08:36:03.999Z</time></trkpt><trkpt lat="41.69044021543797" lon="13.058463478919512"><ele>234.0</ele><time>2026-05-01T08:36:04.999Z</time></trkpt><trkpt lat="41.690403139658606" lon="13.058687248935462"><ele>234.33333333333331</ele><time>2026-05-01T08:36:05.999Z</time></trkpt><trkpt lat="41.690351988063654" lon="13.05890643077354"><ele>234.66666666666666</ele><time>2026-05-01T08:36:06.999Z</time></trkpt><trkpt lat="41.69028722218671" lon="13.059120930933986"><ele>235.0</ele><time>2026-05-01T08:36:07.999Z</time></trkpt><trkpt lat="41.6902501876536" lon="13.059352569620222"><ele>233.33333333333331</ele><time>2026-05-01T08:36:08.999Z</time></trkpt><trkpt lat="41.69025319127377" lon="13.059595362549572"><ele>231.66666666666669</ele><time>2026-05-01T08:36:09.999Z</time></trkpt><trkpt lat="41.69025705859572" lon="13.059843362208866"><ele>230.0</ele><time>2026-05-01T08:36:10.999Z</time></trkpt><trkpt lat="41.69026854329567" lon="13.060091756159576"><ele>234.66666666666669</ele><time>2026-05-01T08:36:11.999Z</time></trkpt><trkpt lat="41.69026469407769" lon="13.060343254616102"><ele>239.33333333333331</ele><time>2026-05-01T08:36:12.999Z</time></trkpt><trkpt lat="41.69027491419737" lon="13.060595229278762"><ele>244.0</ele><time>2026-05-01T08:36:13.999Z</time></trkpt><trkpt lat="41.69029873585579" lon="13.060850177314087"><ele>244.0</ele><time>2026-05-01T08:36:14.999Z</time></trkpt><trkpt lat="41.69030653181872" lon="13.061101134295836"><ele>244.0</ele><time>2026-05-01T08:36:15.999Z</time></trkpt><trkpt lat="41.69032576292293" lon="13.06133566383464"><ele>244.0</ele><time>2026-05-01T08:36:16.999Z</time></trkpt><trkpt lat="41.690357728782814" lon="13.06156611617462"><ele>243.33333333333331</ele><time>2026-05-01T08:36:17.999Z</time></trkpt><trkpt lat="41.69039609001406" lon="13.061787131529254"><ele>242.66666666666669</ele><time>2026-05-01T08:36:18.999Z</time></trkpt><trkpt lat="41.69043593450572" lon="13.062011406341465"><ele>242.0</ele><time>2026-05-01T08:36:19.999Z</time></trkpt><trkpt lat="41.690472119896555" lon="13.062236982689226"><ele>240.33333333333334</ele><time>2026-05-01T08:36:20.999Z</time></trkpt><trkpt lat="41.69049243138846" lon="13.062472752552827"><ele>238.66666666666669</ele><time>2026-05-01T08:36:21.999Z</time></trkpt><trkpt lat="41.69047074660308" lon="13.062713514984292"><ele>237.0</ele><time>2026-05-01T08:36:22.999Z</time></trkpt><trkpt lat="41.69046144170892" lon="13.062960014388663"><ele>237.0</ele><time>2026-05-01T08:36:23.999Z</time></trkpt><trkpt lat="41.690467903482066" lon="13.063210536458246"><ele>237.0</ele><time>2026-05-01T08:36:24.999Z</time></trkpt><trkpt lat="41.690457484347" lon="13.063465119484837"><ele>237.0</ele><time>2026-05-01T08:36:25.999Z</time></trkpt><trkpt lat="41.69044879657571" lon="13.063720678159982"><ele>235.0</ele><time>2026-05-01T08:36:26.999Z</time></trkpt><trkpt lat="41.69045076700559" lon="13.063978005892531"><ele>233.0</ele><time>2026-05-01T08:36:27.999Z</time></trkpt><trkpt lat="41.69046802570095" lon="13.064238021723789"><ele>231.0</ele><time>2026-05-01T08:36:28.999Z</time></trkpt><trkpt lat="41.69050055714194" lon="13.064494931049381"><ele>230.0</ele><time>2026-05-01T08:36:29.999Z</time></trkpt><trkpt lat="41.69054567062007" lon="13.06474765957226"><ele>229.0</ele><time>2026-05-01T08:36:30.999Z</time></trkpt><trkpt lat="41.690585807980696" lon="13.065000926297847"><ele>228.0</ele><time>2026-05-01T08:36:31.999Z</time></trkpt><trkpt lat="41.690623932042364" lon="13.065249779738231"><ele>227.33333333333331</ele><time>2026-05-01T08:36:32.999Z</time></trkpt><trkpt lat="41.690660807081066" lon="13.065478306524364"><ele>226.66666666666666</ele><time>2026-05-01T08:36:33.999Z</time></trkpt><trkpt lat="41.690697016074665" lon="13.065707131027663"><ele>226.0</ele><time>2026-05-01T08:36:34.999Z</time></trkpt><trkpt lat="41.69072919258682" lon="13.06594458494232"><ele>224.66666666666666</ele><time>2026-05-01T08:36:35.999Z</time></trkpt><trkpt lat="41.69075421902714" lon="13.066180273605113"><ele>223.33333333333331</ele><time>2026-05-01T08:36:36.999Z</time></trkpt><trkpt lat="41.69076829575826" lon="13.066424168083755"><ele>222.0</ele><time>2026-05-01T08:36:37.999Z</time></trkpt><trkpt lat="41.69077141632664" lon="13.066670114201969"><ele>221.0</ele><time>2026-05-01T08:36:38.999Z</time></trkpt><trkpt lat="41.690770036102776" lon="13.066907125428543"><ele>220.0</ele><time>2026-05-01T08:36:39.999Z</time></trkpt><trkpt lat="41.69076835326028" lon="13.067131452538888"><ele>219.0</ele><time>2026-05-01T08:36:40.999Z</time></trkpt><trkpt lat="41.69077508437125" lon="13.067357711856937"><ele>219.0</ele><time>2026-05-01T08:36:41.999Z</time></trkpt><trkpt lat="41.69078822481805" lon="13.067574281332579"><ele>219.0</ele><time>2026-05-01T08:36:42.999Z</time></trkpt><trkpt lat="41.690815221159674" lon="13.0677907989795"><ele>219.0</ele><time>2026-05-01T08:36:43.999Z</time></trkpt><trkpt lat="41.69086152225766" lon="13.068011621583025"><ele>219.0</ele><time>2026-05-01T08:36:44.999Z</time></trkpt><trkpt lat="41.69092651047833" lon="13.068227425362807"><ele>219.0</ele><time>2026-05-01T08:36:45.999Z</time></trkpt><trkpt lat="41.69099186631147" lon="13.068431481302442"><ele>219.0</ele><time>2026-05-01T08:36:46.999Z</time></trkpt><trkpt lat="41.69105603114602" lon="13.06862168130583"><ele>219.0</ele><time>2026-05-01T08:36:47.999Z</time></trkpt><trkpt lat="41.69110482320406" lon="13.068769568886152"><ele>218.99999999999997</ele><time>2026-05-01T08:36:48.999Z</time></trkpt><trkpt lat="41.691149837148686" lon="13.068897608092671"><ele>218.99999999999997</ele><time>2026-05-01T08:36:49.999Z</time></trkpt><trkpt lat="41.6911961968515" lon="13.069029861158645"><ele>219.0</ele><time>2026-05-01T08:36:50.999Z</time></trkpt><trkpt lat="41.69124743063068" lon="13.0691648901299"><ele>219.0</ele><time>2026-05-01T08:36:51.999Z</time></trkpt><trkpt lat="41.69128076016765" lon="13.069297928829988"><ele>219.33333333333334</ele><time>2026-05-01T08:36:52.999Z</time></trkpt><trkpt lat="41.69133146206765" lon="13.069371268696967"><ele>219.66666666666669</ele><time>2026-05-01T08:36:53.998Z</time></trkpt><trkpt lat="41.691365307689864" lon="13.069462629407587"><ele>220.0</ele><time>2026-05-01T08:36:56Z</time></trkpt><trkpt lat="41.691362384986064" lon="13.069566764490759"><ele>220.33333333333334</ele><time>2026-05-01T08:37:00Z</time></trkpt><trkpt lat="41.69128067046203" lon="13.069616429595369"><ele>220.66666666666669</ele><time>2026-05-01T08:37:02Z</time></trkpt><trkpt lat="41.69121931380844" lon="13.069670654150986"><ele>221.0</ele><time>2026-05-01T08:37:03Z</time></trkpt><trkpt lat="41.69115814937276" lon="13.069725970123686"><ele>221.0</ele><time>2026-05-01T08:37:04Z</time></trkpt><trkpt lat="41.691095750846145" lon="13.069783355117847"><ele>221.00000000000003</ele><time>2026-05-01T08:37:05Z</time></trkpt><trkpt lat="41.69103044412259" lon="13.06984374573397"><ele>221.00000000000003</ele><time>2026-05-01T08:37:06Z</time></trkpt><trkpt lat="41.69096305241161" lon="13.069933248371518"><ele>221.0</ele><time>2026-05-01T08:37:07Z</time></trkpt><trkpt lat="41.69087371626828" lon="13.069991885021446"><ele>221.0</ele><time>2026-05-01T08:37:08Z</time></trkpt><trkpt lat="41.69078883133903" lon="13.070072960133015"><ele>220.75</ele><time>2026-05-01T08:37:09Z</time></trkpt><trkpt lat="41.6906982076607" lon="13.070159516441146"><ele>220.5</ele><time>2026-05-01T08:37:10Z</time></trkpt><trkpt lat="41.6906046947169" lon="13.070248832308211"><ele>220.25</ele><time>2026-05-01T08:37:11Z</time></trkpt><trkpt lat="41.690505781515995" lon="13.070342441807508"><ele>220.0</ele><time>2026-05-01T08:37:12Z</time></trkpt><trkpt lat="41.690404187677814" lon="13.070437089990438"><ele>220.0</ele><time>2026-05-01T08:37:13Z</time></trkpt><trkpt lat="41.69030379036653" lon="13.070530167317646"><ele>220.0</ele><time>2026-05-01T08:37:14Z</time></trkpt><trkpt lat="41.69019546756577" lon="13.07063017951374"><ele>220.0</ele><time>2026-05-01T08:37:15Z</time></trkpt><trkpt lat="41.69007556317034" lon="13.07073971136732"><ele>220.0</ele><time>2026-05-01T08:37:16Z</time></trkpt><trkpt lat="41.689961705805445" lon="13.070843390815801"><ele>221.0</ele><time>2026-05-01T08:37:17Z</time></trkpt><trkpt lat="41.68985131066903" lon="13.070968041500944"><ele>222.0</ele><time>2026-05-01T08:37:18Z</time></trkpt><trkpt lat="41.68973332241714" lon="13.07107068771016"><ele>223.0</ele><time>2026-05-01T08:37:19Z</time></trkpt><trkpt lat="41.68962349171412" lon="13.071175275548061"><ele>224.0</ele><time>2026-05-01T08:37:20Z</time></trkpt><trkpt lat="41.68953203713005" lon="13.071282341871745"><ele>224.0</ele><time>2026-05-01T08:37:21Z</time></trkpt><trkpt lat="41.6894561958683" lon="13.0714116263319"><ele>224.0</ele><time>2026-05-01T08:37:22Z</time></trkpt><trkpt lat="41.689402439282816" lon="13.071561090000971"><ele>224.0</ele><time>2026-05-01T08:37:23Z</time></trkpt><trkpt lat="41.689385733738554" lon="13.07173581713659"><ele>224.0</ele><time>2026-05-01T08:37:24Z</time></trkpt><trkpt lat="41.68939605605561" lon="13.071931019521072"><ele>225.75</ele><time>2026-05-01T08:37:25Z</time></trkpt><trkpt lat="41.68942481725035" lon="13.072117537244507"><ele>227.5</ele><time>2026-05-01T08:37:26Z</time></trkpt><trkpt lat="41.689420621175344" lon="13.072292336708239"><ele>229.25</ele><time>2026-05-01T08:37:27Z</time></trkpt><trkpt lat="41.68942527354876" lon="13.07245141390289"><ele>231.0</ele><time>2026-05-01T08:37:28Z</time></trkpt><trkpt lat="41.689406466983556" lon="13.072588043381883"><ele>231.20000000000002</ele><time>2026-05-01T08:37:29Z</time></trkpt><trkpt lat="41.68936769051431" lon="13.0727076848191"><ele>231.40000000000003</ele><time>2026-05-01T08:37:30Z</time></trkpt><trkpt lat="41.68926709235731" lon="13.07275066685998"><ele>231.6</ele><time>2026-05-01T08:37:31Z</time></trkpt><trkpt lat="41.68916328189248" lon="13.072802280993338"><ele>231.8</ele><time>2026-05-01T08:37:32Z</time></trkpt><trkpt lat="41.68904179198355" lon="13.072870788871766"><ele>232.0</ele><time>2026-05-01T08:37:33Z</time></trkpt><trkpt lat="41.68892602125366" lon="13.072956883681634"><ele>232.0</ele><time>2026-05-01T08:37:34Z</time></trkpt><trkpt lat="41.688819742263696" lon="13.073019443529859"><ele>232.0</ele><time>2026-05-01T08:37:35Z</time></trkpt><trkpt lat="41.68870801976753" lon="13.073084438244752"><ele>232.0</ele><time>2026-05-01T08:37:36Z</time></trkpt><trkpt lat="41.68859035129221" lon="13.073101306142977"><ele>232.0</ele><time>2026-05-01T08:37:37Z</time></trkpt><trkpt lat="41.688485513749875" lon="13.073099618865532"><ele>232.0</ele><time>2026-05-01T08:37:38Z</time></trkpt><trkpt lat="41.68837793697253" lon="13.073047145708403"><ele>232.0</ele><time>2026-05-01T08:37:39Z</time></trkpt><trkpt lat="41.68826220296295" lon="13.072947197080975"><ele>232.0</ele><time>2026-05-01T08:37:40Z</time></trkpt><trkpt lat="41.68812803802185" lon="13.07286052206328"><ele>232.0</ele><time>2026-05-01T08:37:41Z</time></trkpt><trkpt lat="41.6880049157373" lon="13.07275524069075"><ele>232.0</ele><time>2026-05-01T08:37:42Z</time></trkpt><trkpt lat="41.68788839648899" lon="13.072661617701234"><ele>232.0</ele><time>2026-05-01T08:37:43Z</time></trkpt><trkpt lat="41.68778375819268" lon="13.072575235222875"><ele>232.0</ele><time>2026-05-01T08:37:44Z</time></trkpt><trkpt lat="41.68769100886389" lon="13.072503248403537"><ele>232.0</ele><time>2026-05-01T08:37:45Z</time></trkpt><trkpt lat="41.68760052617033" lon="13.072460966039905"><ele>230.75</ele><time>2026-05-01T08:37:46Z</time></trkpt><trkpt lat="41.68748587778867" lon="13.072446917853883"><ele>229.5</ele><time>2026-05-01T08:37:47Z</time></trkpt><trkpt lat="41.687349677464844" lon="13.072439079730675"><ele>228.25</ele><time>2026-05-01T08:37:48Z</time></trkpt><trkpt lat="41.68720453024016" lon="13.072505613011595"><ele>227.0</ele><time>2026-05-01T08:37:49Z</time></trkpt><trkpt lat="41.687052498636916" lon="13.07253172055054"><ele>223.33333333333334</ele><time>2026-05-01T08:37:50Z</time></trkpt><trkpt lat="41.68689680525196" lon="13.072577192898517"><ele>219.66666666666669</ele><time>2026-05-01T08:37:51Z</time></trkpt><trkpt lat="41.68673918453195" lon="13.072623343394726"><ele>216.0</ele><time>2026-05-01T08:37:52Z</time></trkpt><trkpt lat="41.68659037712243" lon="13.072666167845536"><ele>216.0</ele><time>2026-05-01T08:37:53Z</time></trkpt><trkpt lat="41.6864360842188" lon="13.072732884345507"><ele>216.0</ele><time>2026-05-01T08:37:54Z</time></trkpt><trkpt lat="41.6862683409319" lon="13.072757801553017"><ele>216.0</ele><time>2026-05-01T08:37:55Z</time></trkpt><trkpt lat="41.68610141431559" lon="13.072803345415027"><ele>214.33333333333331</ele><time>2026-05-01T08:37:56Z</time></trkpt><trkpt lat="41.685945313598076" lon="13.0728449956603"><ele>212.66666666666666</ele><time>2026-05-01T08:37:56.999Z</time></trkpt><trkpt lat="41.685800026171634" lon="13.072883503033907"><ele>211.0</ele><time>2026-05-01T08:37:57.999Z</time></trkpt><trkpt lat="41.68565923653823" lon="13.07292254163602"><ele>211.0</ele><time>2026-05-01T08:37:58.999Z</time></trkpt><trkpt lat="41.68553188358924" lon="13.072981451448024"><ele>211.0</ele><time>2026-05-01T08:37:59.999Z</time></trkpt><trkpt lat="41.685407282086466" lon="13.073018456880563"><ele>211.0</ele><time>2026-05-01T08:38:00.999Z</time></trkpt><trkpt lat="41.685277701048015" lon="13.073040403245415"><ele>211.0</ele><time>2026-05-01T08:38:01.999Z</time></trkpt><trkpt lat="41.685143960306696" lon="13.073093561603079"><ele>210.5</ele><time>2026-05-01T08:38:02.999Z</time></trkpt><trkpt lat="41.68501558921714" lon="13.073176469521627"><ele>210.0</ele><time>2026-05-01T08:38:03.999Z</time></trkpt><trkpt lat="41.684883518035534" lon="13.073219237829017"><ele>209.5</ele><time>2026-05-01T08:38:04.999Z</time></trkpt><trkpt lat="41.68476470851843" lon="13.073280048653551"><ele>209.0</ele><time>2026-05-01T08:38:05.999Z</time></trkpt><trkpt lat="41.68463973547619" lon="13.073334934973861"><ele>209.0</ele><time>2026-05-01T08:38:06.999Z</time></trkpt><trkpt lat="41.684501082657036" lon="13.073364467110006"><ele>209.0</ele><time>2026-05-01T08:38:07.999Z</time></trkpt><trkpt lat="41.684359669165524" lon="13.07335893659697"><ele>209.0</ele><time>2026-05-01T08:38:08.999Z</time></trkpt><trkpt lat="41.684226912833886" lon="13.07334784113441"><ele>209.0</ele><time>2026-05-01T08:38:09.999Z</time></trkpt><trkpt lat="41.684092743431684" lon="13.073351110560255"><ele>207.75</ele><time>2026-05-01T08:38:10.999Z</time></trkpt><trkpt lat="41.68395821231022" lon="13.073341035983125"><ele>206.5</ele><time>2026-05-01T08:38:11.999Z</time></trkpt><trkpt lat="41.683824425350124" lon="13.07334992406088"><ele>205.25</ele><time>2026-05-01T08:38:12.999Z</time></trkpt><trkpt lat="41.68369467355853" lon="13.07339288347918"><ele>204.0</ele><time>2026-05-01T08:38:13.999Z</time></trkpt><trkpt lat="41.683571190583415" lon="13.073489002182887"><ele>202.33333333333331</ele><time>2026-05-01T08:38:14.999Z</time></trkpt><trkpt lat="41.683458795071296" lon="13.073624196087776"><ele>200.66666666666666</ele><time>2026-05-01T08:38:15.999Z</time></trkpt><trkpt lat="41.68334866031484" lon="13.07377431178366"><ele>199.0</ele><time>2026-05-01T08:38:16.999Z</time></trkpt><trkpt lat="41.68323156332954" lon="13.07392184062587"><ele>199.0</ele><time>2026-05-01T08:38:17.999Z</time></trkpt><trkpt lat="41.68311135700036" lon="13.074066580964077"><ele>199.0</ele><time>2026-05-01T08:38:18.999Z</time></trkpt><trkpt lat="41.68299369814433" lon="13.074211862435535"><ele>199.0</ele><time>2026-05-01T08:38:19.999Z</time></trkpt><trkpt lat="41.6828810846009" lon="13.074352325895038"><ele>199.0</ele><time>2026-05-01T08:38:20.999Z</time></trkpt><trkpt lat="41.68276843145326" lon="13.07449384865862"><ele>199.0</ele><time>2026-05-01T08:38:21.999Z</time></trkpt><trkpt lat="41.68265756351826" lon="13.074637528139917"><ele>199.0</ele><time>2026-05-01T08:38:22.999Z</time></trkpt><trkpt lat="41.682547592110545" lon="13.074778210853884"><ele>198.75</ele><time>2026-05-01T08:38:23.999Z</time></trkpt><trkpt lat="41.68244164019219" lon="13.074908296619128"><ele>198.5</ele><time>2026-05-01T08:38:24.999Z</time></trkpt><trkpt lat="41.68234354260777" lon="13.075029464800023"><ele>198.25</ele><time>2026-05-01T08:38:25.999Z</time></trkpt><trkpt lat="41.682254539896306" lon="13.075140907332333"><ele>198.0</ele><time>2026-05-01T08:38:26.999Z</time></trkpt><trkpt lat="41.68216600475067" lon="13.075243493235853"><ele>198.0</ele><time>2026-05-01T08:38:27.999Z</time></trkpt><trkpt lat="41.682089702428776" lon="13.075347475816505"><ele>198.0</ele><time>2026-05-01T08:38:28.999Z</time></trkpt><trkpt lat="41.68201819024326" lon="13.075431575548023"><ele>198.0</ele><time>2026-05-01T08:38:29.999Z</time></trkpt><trkpt lat="41.681964299368104" lon="13.075497073044517"><ele>198.0</ele><time>2026-05-01T08:38:30.999Z</time></trkpt><trkpt lat="41.681900411682584" lon="13.075565012475284"><ele>198.0</ele><time>2026-05-01T08:38:32.999Z</time></trkpt><trkpt lat="41.68182605988905" lon="13.07565588559612"><ele>198.0</ele><time>2026-05-01T08:38:34.999Z</time></trkpt><trkpt lat="41.68176090911221" lon="13.075740438926235"><ele>198.0</ele><time>2026-05-01T08:38:35.999Z</time></trkpt><trkpt lat="41.6816921691229" lon="13.075841794731737"><ele>198.0</ele><time>2026-05-01T08:38:36.999Z</time></trkpt><trkpt lat="41.681592087562" lon="13.07593674948063"><ele>198.0</ele><time>2026-05-01T08:38:37.999Z</time></trkpt><trkpt lat="41.68149085995931" lon="13.076061130912798"><ele>197.33333333333331</ele><time>2026-05-01T08:38:38.999Z</time></trkpt><trkpt lat="41.68138733996843" lon="13.076203626942744"><ele>196.66666666666666</ele><time>2026-05-01T08:38:39.999Z</time></trkpt><trkpt lat="41.68127734421362" lon="13.076346134244892"><ele>196.0</ele><time>2026-05-01T08:38:40.999Z</time></trkpt><trkpt lat="41.68115948542368" lon="13.076488761670458"><ele>196.0</ele><time>2026-05-01T08:38:41.999Z</time></trkpt><trkpt lat="41.68104400755874" lon="13.076628054152593"><ele>196.0</ele><time>2026-05-01T08:38:42.999Z</time></trkpt><trkpt lat="41.68093035282413" lon="13.07676425641698"><ele>196.0</ele><time>2026-05-01T08:38:43.999Z</time></trkpt><trkpt lat="41.680806119694914" lon="13.07691715537892"><ele>196.0</ele><time>2026-05-01T08:38:44.999Z</time></trkpt><trkpt lat="41.6806732889002" lon="13.07708547118511"><ele>196.0</ele><time>2026-05-01T08:38:45.999Z</time></trkpt><trkpt lat="41.680530490919686" lon="13.077272011581275"><ele>196.0</ele><time>2026-05-01T08:38:46.999Z</time></trkpt><trkpt lat="41.68036976105429" lon="13.077437776584231"><ele>197.33333333333331</ele><time>2026-05-01T08:38:47.999Z</time></trkpt><trkpt lat="41.68022929104776" lon="13.077610687681071"><ele>198.66666666666669</ele><time>2026-05-01T08:38:48.999Z</time></trkpt><trkpt lat="41.68010335718202" lon="13.077763179605057"><ele>200.0</ele><time>2026-05-01T08:38:49.999Z</time></trkpt><trkpt lat="41.67999894239242" lon="13.077921346813437"><ele>200.0</ele><time>2026-05-01T08:38:50.999Z</time></trkpt><trkpt lat="41.67988985389013" lon="13.078050069697007"><ele>200.0</ele><time>2026-05-01T08:38:51.999Z</time></trkpt><trkpt lat="41.67978783142647" lon="13.07817201776466"><ele>200.0</ele><time>2026-05-01T08:38:52.999Z</time></trkpt><trkpt lat="41.679695322878004" lon="13.07828499350344"><ele>200.0</ele><time>2026-05-01T08:38:53.999Z</time></trkpt><trkpt lat="41.67961041755787" lon="13.078395084190909"><ele>200.0</ele><time>2026-05-01T08:38:54.999Z</time></trkpt><trkpt lat="41.67952020439494" lon="13.078477514839214"><ele>200.0</ele><time>2026-05-01T08:38:55.999Z</time></trkpt><trkpt lat="41.679444763600735" lon="13.078569842777062"><ele>200.0</ele><time>2026-05-01T08:38:56.999Z</time></trkpt><trkpt lat="41.67937593503635" lon="13.078654078359502"><ele>200.0</ele><time>2026-05-01T08:38:57.999Z</time></trkpt><trkpt lat="41.679322297882784" lon="13.078738714275843"><ele>200.0</ele><time>2026-05-01T08:38:58.998Z</time></trkpt><trkpt lat="41.679256938087555" lon="13.078809630980368"><ele>200.0</ele><time>2026-05-01T08:38:59.998Z</time></trkpt><trkpt lat="41.67918841710762" lon="13.078893385169673"><ele>200.0</ele><time>2026-05-01T08:39:01Z</time></trkpt><trkpt lat="41.67911369801165" lon="13.078991162081126"><ele>200.0</ele><time>2026-05-01T08:39:02Z</time></trkpt><trkpt lat="41.679037838551096" lon="13.07909456255434"><ele>200.0</ele><time>2026-05-01T08:39:03Z</time></trkpt><trkpt lat="41.67894277143038" lon="13.079209018515773"><ele>200.0</ele><time>2026-05-01T08:39:04Z</time></trkpt><trkpt lat="41.678834784833676" lon="13.07933802470048"><ele>200.33333333333334</ele><time>2026-05-01T08:39:05Z</time></trkpt><trkpt lat="41.67871892480557" lon="13.079473639811813"><ele>200.66666666666669</ele><time>2026-05-01T08:39:06Z</time></trkpt><trkpt lat="41.67860642406229" lon="13.079609496529766"><ele>201.0</ele><time>2026-05-01T08:39:07Z</time></trkpt><trkpt lat="41.67849171706909" lon="13.079755118018753"><ele>201.66666666666669</ele><time>2026-05-01T08:39:08Z</time></trkpt><trkpt lat="41.67837114631923" lon="13.079903635026746"><ele>202.33333333333334</ele><time>2026-05-01T08:39:09Z</time></trkpt><trkpt lat="41.678247999992564" lon="13.080054612435179"><ele>203.0</ele><time>2026-05-01T08:39:10Z</time></trkpt><trkpt lat="41.6781213938963" lon="13.080209140884355"><ele>203.66666666666669</ele><time>2026-05-01T08:39:11Z</time></trkpt><trkpt lat="41.6779945264677" lon="13.080360911870871"><ele>204.33333333333331</ele><time>2026-05-01T08:39:12Z</time></trkpt><trkpt lat="41.67786079525733" lon="13.080526181621028"><ele>205.0</ele><time>2026-05-01T08:39:13Z</time></trkpt><trkpt lat="41.67772840125051" lon="13.080702180935248"><ele>206.0</ele><time>2026-05-01T08:39:14Z</time></trkpt><trkpt lat="41.677605742858" lon="13.080880201157687"><ele>207.0</ele><time>2026-05-01T08:39:15Z</time></trkpt><trkpt lat="41.67750683523372" lon="13.081083966512674"><ele>208.0</ele><time>2026-05-01T08:39:16Z</time></trkpt><trkpt lat="41.67740882110445" lon="13.08129396734673"><ele>208.0</ele><time>2026-05-01T08:39:17Z</time></trkpt><trkpt lat="41.67731719290275" lon="13.081507113654556"><ele>208.0</ele><time>2026-05-01T08:39:18Z</time></trkpt><trkpt lat="41.67722765299617" lon="13.08171462258982"><ele>208.0</ele><time>2026-05-01T08:39:19Z</time></trkpt><trkpt lat="41.677137298966905" lon="13.081914762076785"><ele>209.0</ele><time>2026-05-01T08:39:20Z</time></trkpt><trkpt lat="41.67704722163251" lon="13.082107954522092"><ele>210.0</ele><time>2026-05-01T08:39:21Z</time></trkpt><trkpt lat="41.67696205206541" lon="13.082299707938079"><ele>211.0</ele><time>2026-05-01T08:39:22Z</time></trkpt><trkpt lat="41.67688237193731" lon="13.082487077071109"><ele>214.0</ele><time>2026-05-01T08:39:23Z</time></trkpt><trkpt lat="41.67680003476677" lon="13.082669385363484"><ele>217.0</ele><time>2026-05-01T08:39:24Z</time></trkpt><trkpt lat="41.67671283854735" lon="13.082846534897362"><ele>220.0</ele><time>2026-05-01T08:39:25Z</time></trkpt><trkpt lat="41.676632232626794" lon="13.083030931928329"><ele>220.0</ele><time>2026-05-01T08:39:26Z</time></trkpt><trkpt lat="41.67655275985274" lon="13.083208975721247"><ele>220.0</ele><time>2026-05-01T08:39:27Z</time></trkpt><trkpt lat="41.6764760784196" lon="13.0833987460425"><ele>220.0</ele><time>2026-05-01T08:39:28Z</time></trkpt><trkpt lat="41.676407545412374" lon="13.083609847152504"><ele>219.33333333333331</ele><time>2026-05-01T08:39:29Z</time></trkpt><trkpt lat="41.676354508700314" lon="13.083806147498793"><ele>218.66666666666669</ele><time>2026-05-01T08:39:30Z</time></trkpt><trkpt lat="41.67631631562457" lon="13.084000324977417"><ele>218.0</ele><time>2026-05-01T08:39:31Z</time></trkpt><trkpt lat="41.67630046179143" lon="13.08420858150929"><ele>219.33333333333334</ele><time>2026-05-01T08:39:32Z</time></trkpt><trkpt lat="41.67631272848138" lon="13.084415615698743"><ele>220.66666666666669</ele><time>2026-05-01T08:39:33Z</time></trkpt><trkpt lat="41.67636204116189" lon="13.084622566743331"><ele>222.0</ele><time>2026-05-01T08:39:34Z</time></trkpt><trkpt lat="41.67642947631307" lon="13.084832373842739"><ele>223.0</ele><time>2026-05-01T08:39:35Z</time></trkpt><trkpt lat="41.676480416063086" lon="13.085055703375655"><ele>224.0</ele><time>2026-05-01T08:39:36Z</time></trkpt><trkpt lat="41.676512624728254" lon="13.085294053437341"><ele>225.0</ele><time>2026-05-01T08:39:37Z</time></trkpt><trkpt lat="41.676528662884174" lon="13.085549928082346"><ele>225.0</ele><time>2026-05-01T08:39:38Z</time></trkpt><trkpt lat="41.67653578359283" lon="13.085815824203808"><ele>225.0</ele><time>2026-05-01T08:39:39Z</time></trkpt><trkpt lat="41.67654002664396" lon="13.086076756929282"><ele>225.0</ele><time>2026-05-01T08:39:40Z</time></trkpt><trkpt lat="41.67653844789356" lon="13.086335542641882"><ele>226.0</ele><time>2026-05-01T08:39:41Z</time></trkpt><trkpt lat="41.67653913337638" lon="13.08659521322593"><ele>227.0</ele><time>2026-05-01T08:39:42Z</time></trkpt><trkpt lat="41.676547376358926" lon="13.086854887437426"><ele>228.0</ele><time>2026-05-01T08:39:43Z</time></trkpt><trkpt lat="41.67655523847848" lon="13.08711644689493"><ele>228.0</ele><time>2026-05-01T08:39:44Z</time></trkpt><trkpt lat="41.676559402850614" lon="13.087378957947191"><ele>228.0</ele><time>2026-05-01T08:39:45Z</time></trkpt><trkpt lat="41.676564569300496" lon="13.087643181933878"><ele>228.0</ele><time>2026-05-01T08:39:46Z</time></trkpt><trkpt lat="41.6765729750963" lon="13.08790792862481"><ele>229.33333333333331</ele><time>2026-05-01T08:39:47Z</time></trkpt><trkpt lat="41.67658138752759" lon="13.08817084289061"><ele>230.66666666666666</ele><time>2026-05-01T08:39:48Z</time></trkpt><trkpt lat="41.67658699316031" lon="13.088432733341412"><ele>232.0</ele><time>2026-05-01T08:39:49Z</time></trkpt><trkpt lat="41.67659082872362" lon="13.088698105594274"><ele>233.66666666666666</ele><time>2026-05-01T08:39:50Z</time></trkpt><trkpt lat="41.676595313785825" lon="13.088953005009312"><ele>235.33333333333331</ele><time>2026-05-01T08:39:51Z</time></trkpt><trkpt lat="41.676602485191374" lon="13.08917781328383"><ele>237.0</ele><time>2026-05-01T08:39:52Z</time></trkpt><trkpt lat="41.6766112184522" lon="13.089377620098862"><ele>238.0</ele><time>2026-05-01T08:39:53Z</time></trkpt><trkpt lat="41.676632683263804" lon="13.08957909016783"><ele>239.0</ele><time>2026-05-01T08:39:54Z</time></trkpt><trkpt lat="41.67668621944994" lon="13.089784564240988"><ele>240.0</ele><time>2026-05-01T08:39:55Z</time></trkpt><trkpt lat="41.676761098063636" lon="13.089949099544716"><ele>241.33333333333334</ele><time>2026-05-01T08:39:56Z</time></trkpt><trkpt lat="41.67682756821216" lon="13.090076262652731"><ele>242.66666666666669</ele><time>2026-05-01T08:39:57Z</time></trkpt><trkpt lat="41.67682960026809" lon="13.09016451115043"><ele>244.0</ele><time>2026-05-01T08:39:58Z</time></trkpt><trkpt lat="41.676807857745146" lon="13.090251040487354"><ele>245.33333333333334</ele><time>2026-05-01T08:40:00Z</time></trkpt><trkpt lat="41.676723150019434" lon="13.090353900594067"><ele>246.66666666666669</ele><time>2026-05-01T08:40:01.999Z</time></trkpt><trkpt lat="41.67664467355471" lon="13.090365438981566"><ele>248.0</ele><time>2026-05-01T08:40:02.999Z</time></trkpt><trkpt lat="41.67656903357685" lon="13.090417725424118"><ele>248.0</ele><time>2026-05-01T08:40:03.999Z</time></trkpt><trkpt lat="41.676483482321714" lon="13.090445940958487"><ele>248.0</ele><time>2026-05-01T08:40:04.999Z</time></trkpt><trkpt lat="41.67639827943032" lon="13.090485432135294"><ele>248.0</ele><time>2026-05-01T08:40:05.999Z</time></trkpt><trkpt lat="41.676302871818" lon="13.09053729464623"><ele>248.0</ele><time>2026-05-01T08:40:06.999Z</time></trkpt><trkpt lat="41.67618645056992" lon="13.090590719624934"><ele>248.0</ele><time>2026-05-01T08:40:07.999Z</time></trkpt><trkpt lat="41.676091505180096" lon="13.090633551487429"><ele>248.0</ele><time>2026-05-01T08:40:08.999Z</time></trkpt><trkpt lat="41.67602590656863" lon="13.090658599240717"><ele>248.0</ele><time>2026-05-01T08:40:09.999Z</time></trkpt><trkpt lat="41.67596063601205" lon="13.090680742962684"><ele>248.0</ele><time>2026-05-01T08:40:11.999Z</time></trkpt><trkpt lat="41.67607074967573" lon="13.09062343334157"><ele>248.0</ele><time>2026-05-01T08:40:22.999Z</time></trkpt><trkpt lat="41.676232181182996" lon="13.090590697175243"><ele>248.0</ele><time>2026-05-01T08:40:23.999Z</time></trkpt><trkpt lat="41.676331621328046" lon="13.09054582391955"><ele>248.00000000000003</ele><time>2026-05-01T08:40:24.999Z</time></trkpt><trkpt lat="41.676424347875205" lon="13.09050357739702"><ele>248.0</ele><time>2026-05-01T08:40:25.999Z</time></trkpt><trkpt lat="41.676506051594515" lon="13.090465041177387"><ele>248.0</ele><time>2026-05-01T08:40:26.999Z</time></trkpt><trkpt lat="41.67657200889164" lon="13.090437945351473"><ele>248.0</ele><time>2026-05-01T08:40:27.999Z</time></trkpt><trkpt lat="41.676630181119215" lon="13.090397343588503"><ele>248.00000000000003</ele><time>2026-05-01T08:40:28.999Z</time></trkpt><trkpt lat="41.67666853125105" lon="13.090499046607471"><ele>248.0</ele><time>2026-05-01T08:40:32.999Z</time></trkpt><trkpt lat="41.6765935918161" lon="13.090607848235988"><ele>248.00000000000003</ele><time>2026-05-01T08:40:34.999Z</time></trkpt><trkpt lat="41.67653920457092" lon="13.090670403153036"><ele>248.0</ele><time>2026-05-01T08:40:35.999Z</time></trkpt><trkpt lat="41.676487844614456" lon="13.090733340731633"><ele>248.0</ele><time>2026-05-01T08:40:36.999Z</time></trkpt><trkpt lat="41.67644340457292" lon="13.090808550180837"><ele>248.0</ele><time>2026-05-01T08:40:37.999Z</time></trkpt><trkpt lat="41.67640817204106" lon="13.090880950202141"><ele>248.00000000000003</ele><time>2026-05-01T08:40:38.999Z</time></trkpt><trkpt lat="41.676340296314144" lon="13.09100780974424"><ele>248.0</ele><time>2026-05-01T08:40:40.999Z</time></trkpt><trkpt lat="41.67630640542171" lon="13.091094295977506"><ele>248.00000000000003</ele><time>2026-05-01T08:40:41.999Z</time></trkpt><trkpt lat="41.67626228602723" lon="13.091177298694781"><ele>248.0</ele><time>2026-05-01T08:40:42.999Z</time></trkpt><trkpt lat="41.67621419471074" lon="13.091260949973435"><ele>248.0</ele><time>2026-05-01T08:40:43.999Z</time></trkpt><trkpt lat="41.67617000240911" lon="13.091346836038761"><ele>248.0</ele><time>2026-05-01T08:40:44.999Z</time></trkpt><trkpt lat="41.67612703924153" lon="13.091431214923023"><ele>248.00000000000003</ele><time>2026-05-01T08:40:45.999Z</time></trkpt><trkpt lat="41.676083804959966" lon="13.091514259121245"><ele>248.0</ele><time>2026-05-01T08:40:46.999Z</time></trkpt><trkpt lat="41.67603946936562" lon="13.091598711451578"><ele>248.50000000000003</ele><time>2026-05-01T08:40:47.999Z</time></trkpt><trkpt lat="41.67599840089864" lon="13.09168965144057"><ele>249.0</ele><time>2026-05-01T08:40:48.999Z</time></trkpt><trkpt lat="41.67595128435732" lon="13.091770773238034"><ele>249.5</ele><time>2026-05-01T08:40:49.999Z</time></trkpt><trkpt lat="41.67590372909941" lon="13.09185884524613"><ele>250.0</ele><time>2026-05-01T08:40:50.999Z</time></trkpt><trkpt lat="41.67585151628709" lon="13.09195036176407"><ele>250.50000000000003</ele><time>2026-05-01T08:40:51.999Z</time></trkpt><trkpt lat="41.675806040741925" lon="13.092036264345783"><ele>251.0</ele><time>2026-05-01T08:40:52.999Z</time></trkpt><trkpt lat="41.67577125394391" lon="13.092123316545596"><ele>251.00000000000003</ele><time>2026-05-01T08:40:53.999Z</time></trkpt><trkpt lat="41.675745940715736" lon="13.092212360732352"><ele>251.0</ele><time>2026-05-01T08:40:54.999Z</time></trkpt><trkpt lat="41.675721552491105" lon="13.092291514892722"><ele>251.0</ele><time>2026-05-01T08:40:55.999Z</time></trkpt><trkpt lat="41.67571803623512" lon="13.092376729667329"><ele>251.0</ele><time>2026-05-01T08:40:56.999Z</time></trkpt><trkpt lat="41.67572803341043" lon="13.092518888380882"><ele>251.00000000000003</ele><time>2026-05-01T08:40:58.999Z</time></trkpt><trkpt lat="41.67573281816804" lon="13.092645256703976"><ele>251.0</ele><time>2026-05-01T08:41:00.999Z</time></trkpt><trkpt lat="41.675737237312816" lon="13.092743576819213"><ele>250.83333333333334</ele><time>2026-05-01T08:41:01.999Z</time></trkpt><trkpt lat="41.67573763542849" lon="13.092857166329429"><ele>250.66666666666669</ele><time>2026-05-01T08:41:02.998Z</time></trkpt><trkpt lat="41.675745599311725" lon="13.092981007478784"><ele>250.5</ele><time>2026-05-01T08:41:03.998Z</time></trkpt><trkpt lat="41.675767447211896" lon="13.093102831090675"><ele>250.33333333333331</ele><time>2026-05-01T08:41:04.998Z</time></trkpt><trkpt lat="41.67578219361022" lon="13.093210730084115"><ele>250.16666666666666</ele><time>2026-05-01T08:41:05.998Z</time></trkpt><trkpt lat="41.675796471100654" lon="13.093299176862724"><ele>250.0</ele><time>2026-05-01T08:41:07Z</time></trkpt><trkpt lat="41.67579225911809" lon="13.093418286440187"><ele>249.99999999999997</ele><time>2026-05-01T08:41:08Z</time></trkpt><trkpt lat="41.675765766393376" lon="13.093508910805225"><ele>250.0</ele><time>2026-05-01T08:41:09Z</time></trkpt><trkpt lat="41.67572285161521" lon="13.093590230623208"><ele>250.0</ele><time>2026-05-01T08:41:10Z</time></trkpt><trkpt lat="41.675668715011454" lon="13.093691027980894"><ele>250.0</ele><time>2026-05-01T08:41:11Z</time></trkpt><trkpt lat="41.67561553277019" lon="13.09378978598189"><ele>249.99999999999997</ele><time>2026-05-01T08:41:12Z</time></trkpt><trkpt lat="41.675558222973564" lon="13.093885138087389"><ele>250.0</ele><time>2026-05-01T08:41:13Z</time></trkpt><trkpt lat="41.67549787585207" lon="13.093967903884312"><ele>250.0</ele><time>2026-05-01T08:41:14Z</time></trkpt><trkpt lat="41.675424103987496" lon="13.094062699839528"><ele>250.0</ele><time>2026-05-01T08:41:15Z</time></trkpt><trkpt lat="41.67535160121897" lon="13.094161157089486"><ele>250.0</ele><time>2026-05-01T08:41:16Z</time></trkpt><trkpt lat="41.67527438270893" lon="13.094247740307823"><ele>250.0</ele><time>2026-05-01T08:41:17Z</time></trkpt><trkpt lat="41.67519928340446" lon="13.094328864550347"><ele>250.0</ele><time>2026-05-01T08:41:18Z</time></trkpt><trkpt lat="41.675131221755734" lon="13.094416765054474"><ele>252.2</ele><time>2026-05-01T08:41:19Z</time></trkpt><trkpt lat="41.67506256149987" lon="13.094484898382566"><ele>254.4</ele><time>2026-05-01T08:41:20Z</time></trkpt><trkpt lat="41.674986570099485" lon="13.094533413381022"><ele>256.6</ele><time>2026-05-01T08:41:21Z</time></trkpt><trkpt lat="41.674896795260125" lon="13.094552882638885"><ele>258.8</ele><time>2026-05-01T08:41:22Z</time></trkpt><trkpt lat="41.67479445418026" lon="13.094554409710797"><ele>261.0</ele><time>2026-05-01T08:41:23Z</time></trkpt><trkpt lat="41.67469363812721" lon="13.094559807574623"><ele>261.0</ele><time>2026-05-01T08:41:24Z</time></trkpt><trkpt lat="41.67459132536105" lon="13.094574145501177"><ele>261.0</ele><time>2026-05-01T08:41:25Z</time></trkpt><trkpt lat="41.67450239571483" lon="13.094590118198065"><ele>261.0</ele><time>2026-05-01T08:41:26Z</time></trkpt><trkpt lat="41.6744347249421" lon="13.09461787500164"><ele>261.0</ele><time>2026-05-01T08:41:27Z</time></trkpt><trkpt lat="41.67436790317261" lon="13.094674893245916"><ele>261.0</ele><time>2026-05-01T08:41:28Z</time></trkpt><trkpt lat="41.67430643810049" lon="13.094773759634956"><ele>261.0</ele><time>2026-05-01T08:41:29Z</time></trkpt><trkpt lat="41.67425176165151" lon="13.09488277611577"><ele>263.2</ele><time>2026-05-01T08:41:30Z</time></trkpt><trkpt lat="41.67419997271061" lon="13.094992029003064"><ele>265.40000000000003</ele><time>2026-05-01T08:41:31Z</time></trkpt><trkpt lat="41.67414755226554" lon="13.095093747323792"><ele>267.6</ele><time>2026-05-01T08:41:32Z</time></trkpt><trkpt lat="41.674098059001466" lon="13.095207979599676"><ele>269.8</ele><time>2026-05-01T08:41:34Z</time></trkpt><trkpt lat="41.67414866153099" lon="13.095328841775606"><ele>272.0</ele><time>2026-05-01T08:41:39Z</time></trkpt><trkpt lat="41.6742282057671" lon="13.095351510978993"><ele>272.0</ele><time>2026-05-01T08:41:40Z</time></trkpt><trkpt lat="41.67432545029394" lon="13.095364836593307"><ele>272.0</ele><time>2026-05-01T08:41:41Z</time></trkpt><trkpt lat="41.674432073783024" lon="13.095395238264095"><ele>272.0</ele><time>2026-05-01T08:41:42Z</time></trkpt><trkpt lat="41.67455571792723" lon="13.095430039905757"><ele>272.0</ele><time>2026-05-01T08:41:43Z</time></trkpt><trkpt lat="41.67469353553336" lon="13.095448000649803"><ele>270.0</ele><time>2026-05-01T08:41:44Z</time></trkpt><trkpt lat="41.67482399920376" lon="13.09541430705726"><ele>268.0</ele><time>2026-05-01T08:41:45Z</time></trkpt><trkpt lat="41.674943763345006" lon="13.095378901132332"><ele>266.0</ele><time>2026-05-01T08:41:46Z</time></trkpt><trkpt lat="41.67505762889805" lon="13.09534025812057"><ele>264.0</ele><time>2026-05-01T08:41:47Z</time></trkpt><trkpt lat="41.675154122499315" lon="13.095316203137234"><ele>264.0</ele><time>2026-05-01T08:41:48Z</time></trkpt><trkpt lat="41.67523771746159" lon="13.095313076707573"><ele>264.0</ele><time>2026-05-01T08:41:49Z</time></trkpt><trkpt lat="41.67531674468168" lon="13.09534586546623"><ele>264.0</ele><time>2026-05-01T08:41:50Z</time></trkpt><trkpt lat="41.67538507945134" lon="13.095406351275201"><ele>264.0</ele><time>2026-05-01T08:41:51Z</time></trkpt><trkpt lat="41.675447897394974" lon="13.095500139190124"><ele>264.0</ele><time>2026-05-01T08:41:52Z</time></trkpt><trkpt lat="41.67551465889486" lon="13.095617891645645"><ele>262.4</ele><time>2026-05-01T08:41:53Z</time></trkpt><trkpt lat="41.675578193297" lon="13.095722149854748"><ele>260.79999999999995</ele><time>2026-05-01T08:41:54Z</time></trkpt><trkpt lat="41.67564695060264" lon="13.095830515923442"><ele>259.20000000000005</ele><time>2026-05-01T08:41:55Z</time></trkpt><trkpt lat="41.67571850132071" lon="13.095944041952455"><ele>257.6</ele><time>2026-05-01T08:41:56Z</time></trkpt><trkpt lat="41.67579627587196" lon="13.096051326809805"><ele>256.0</ele><time>2026-05-01T08:41:57Z</time></trkpt><trkpt lat="41.67587876989251" lon="13.09615132085778"><ele>256.0</ele><time>2026-05-01T08:41:58Z</time></trkpt><trkpt lat="41.675971360716595" lon="13.09626124822565"><ele>256.0</ele><time>2026-05-01T08:41:59Z</time></trkpt><trkpt lat="41.6760524644179" lon="13.09640188698928"><ele>256.0</ele><time>2026-05-01T08:42:00Z</time></trkpt><trkpt lat="41.67615113668077" lon="13.096526164474351"><ele>256.0</ele><time>2026-05-01T08:42:01Z</time></trkpt><trkpt lat="41.67626153994767" lon="13.096648968974781"><ele>254.25</ele><time>2026-05-01T08:42:02Z</time></trkpt><trkpt lat="41.676361897989445" lon="13.096787411934294"><ele>252.5</ele><time>2026-05-01T08:42:03Z</time></trkpt><trkpt lat="41.67646054358751" lon="13.09691515484808"><ele>250.75</ele><time>2026-05-01T08:42:04Z</time></trkpt><trkpt lat="41.676559062554524" lon="13.09703370573482"><ele>249.0</ele><time>2026-05-01T08:42:05Z</time></trkpt><trkpt lat="41.676663767652705" lon="13.097148479140635"><ele>249.0</ele><time>2026-05-01T08:42:06Z</time></trkpt><trkpt lat="41.67677734183769" lon="13.097258726793035"><ele>249.0</ele><time>2026-05-01T08:42:07Z</time></trkpt><trkpt lat="41.67690629208498" lon="13.097371169684433"><ele>249.0</ele><time>2026-05-01T08:42:07.999Z</time></trkpt><trkpt lat="41.677028178455416" lon="13.097507944002482"><ele>248.25</ele><time>2026-05-01T08:42:08.999Z</time></trkpt><trkpt lat="41.6771570830849" lon="13.097625922004275"><ele>247.5</ele><time>2026-05-01T08:42:09.999Z</time></trkpt><trkpt lat="41.67727961412987" lon="13.097736194135244"><ele>246.75</ele><time>2026-05-01T08:42:10.999Z</time></trkpt><trkpt lat="41.67739147425378" lon="13.097836862860749"><ele>246.0</ele><time>2026-05-01T08:42:11.999Z</time></trkpt><trkpt lat="41.67749270125174" lon="13.097927962455586"><ele>246.0</ele><time>2026-05-01T08:42:12.999Z</time></trkpt><trkpt lat="41.67758541044311" lon="13.098009504276463"><ele>246.00000000000003</ele><time>2026-05-01T08:42:13.999Z</time></trkpt><trkpt lat="41.67768047390464" lon="13.098082633679578"><ele>246.00000000000003</ele><time>2026-05-01T08:42:14.999Z</time></trkpt><trkpt lat="41.67778356475442" lon="13.098136000787285"><ele>246.0</ele><time>2026-05-01T08:42:15.999Z</time></trkpt><trkpt lat="41.67788759937086" lon="13.098204924462763"><ele>246.0</ele><time>2026-05-01T08:42:16.999Z</time></trkpt><trkpt lat="41.678007784262654" lon="13.098277607390036"><ele>246.75</ele><time>2026-05-01T08:42:17.999Z</time></trkpt><trkpt lat="41.67812894335336" lon="13.098333243383436"><ele>247.5</ele><time>2026-05-01T08:42:18.999Z</time></trkpt><trkpt lat="41.67824307067946" lon="13.098373613980462"><ele>248.25</ele><time>2026-05-01T08:42:19.999Z</time></trkpt><trkpt lat="41.678356271156034" lon="13.098410013098063"><ele>249.0</ele><time>2026-05-01T08:42:20.999Z</time></trkpt><trkpt lat="41.678476145332965" lon="13.09845479717395"><ele>249.0</ele><time>2026-05-01T08:42:21.999Z</time></trkpt><trkpt lat="41.67859192875824" lon="13.098522027594576"><ele>249.0</ele><time>2026-05-01T08:42:22.999Z</time></trkpt><trkpt lat="41.678684476879695" lon="13.098639062855513"><ele>249.0</ele><time>2026-05-01T08:42:23.999Z</time></trkpt><trkpt lat="41.678778723924474" lon="13.098761350111527"><ele>249.0</ele><time>2026-05-01T08:42:24.999Z</time></trkpt><trkpt lat="41.678861930760036" lon="13.098907587759838"><ele>247.25</ele><time>2026-05-01T08:42:25.999Z</time></trkpt><trkpt lat="41.67896026805261" lon="13.099051361842562"><ele>245.5</ele><time>2026-05-01T08:42:26.999Z</time></trkpt><trkpt lat="41.679036150511024" lon="13.09919542279869"><ele>243.75</ele><time>2026-05-01T08:42:27.999Z</time></trkpt><trkpt lat="41.67912951374382" lon="13.099322814698784"><ele>242.0</ele><time>2026-05-01T08:42:28.999Z</time></trkpt><trkpt lat="41.679242274361414" lon="13.099432198924461"><ele>242.0</ele><time>2026-05-01T08:42:29.999Z</time></trkpt><trkpt lat="41.67935066640512" lon="13.099543921349316"><ele>242.0</ele><time>2026-05-01T08:42:30.999Z</time></trkpt><trkpt lat="41.67946437662063" lon="13.099648055734919"><ele>242.0</ele><time>2026-05-01T08:42:31.999Z</time></trkpt><trkpt lat="41.679580316751725" lon="13.099736885439256"><ele>242.0</ele><time>2026-05-01T08:42:32.999Z</time></trkpt><trkpt lat="41.67969258951478" lon="13.099809958249898"><ele>241.25</ele><time>2026-05-01T08:42:33.999Z</time></trkpt><trkpt lat="41.67979781636541" lon="13.09987617255514"><ele>240.5</ele><time>2026-05-01T08:42:34.999Z</time></trkpt><trkpt lat="41.67989463129832" lon="13.099945868425003"><ele>239.75</ele><time>2026-05-01T08:42:35.999Z</time></trkpt><trkpt lat="41.67997579952193" lon="13.100047396785802"><ele>239.0</ele><time>2026-05-01T08:42:36.999Z</time></trkpt><trkpt lat="41.6800262413965" lon="13.100208299028065"><ele>239.0</ele><time>2026-05-01T08:42:37.999Z</time></trkpt><trkpt lat="41.68010358523192" lon="13.100366999530046"><ele>239.0</ele><time>2026-05-01T08:42:38.999Z</time></trkpt><trkpt lat="41.680168493746336" lon="13.100537053924914"><ele>239.0</ele><time>2026-05-01T08:42:39.999Z</time></trkpt><trkpt lat="41.68022743888687" lon="13.1006838328788"><ele>239.0</ele><time>2026-05-01T08:42:40.999Z</time></trkpt><trkpt lat="41.680285981957844" lon="13.10082741363624"><ele>237.25</ele><time>2026-05-01T08:42:41.999Z</time></trkpt><trkpt lat="41.68035036357781" lon="13.100963845548815"><ele>235.5</ele><time>2026-05-01T08:42:42.999Z</time></trkpt><trkpt lat="41.68042620577473" lon="13.101080489874004"><ele>233.75</ele><time>2026-05-01T08:42:43.999Z</time></trkpt><trkpt lat="41.680504324211995" lon="13.101206174412177"><ele>232.0</ele><time>2026-05-01T08:42:44.999Z</time></trkpt><trkpt lat="41.680584481325845" lon="13.101333597671172"><ele>232.0</ele><time>2026-05-01T08:42:45.999Z</time></trkpt><trkpt lat="41.68065727855398" lon="13.101456326291313"><ele>232.0</ele><time>2026-05-01T08:42:46.999Z</time></trkpt><trkpt lat="41.680729706944625" lon="13.101577011585077"><ele>232.0</ele><time>2026-05-01T08:42:47.999Z</time></trkpt><trkpt lat="41.680803137425805" lon="13.10169530914397"><ele>232.0</ele><time>2026-05-01T08:42:48.999Z</time></trkpt><trkpt lat="41.680872100365555" lon="13.101809510747943"><ele>232.75</ele><time>2026-05-01T08:42:49.999Z</time></trkpt><trkpt lat="41.68094549819385" lon="13.10192898041237"><ele>233.5</ele><time>2026-05-01T08:42:50.999Z</time></trkpt><trkpt lat="41.681015084701194" lon="13.102056582637983"><ele>234.25</ele><time>2026-05-01T08:42:51.999Z</time></trkpt><trkpt lat="41.68107158030804" lon="13.102189813800297"><ele>235.0</ele><time>2026-05-01T08:42:52.999Z</time></trkpt><trkpt lat="41.68107864604394" lon="13.102335588470043"><ele>233.75</ele><time>2026-05-01T08:42:53.999Z</time></trkpt><trkpt lat="41.68105903783006" lon="13.10246511337303"><ele>232.5</ele><time>2026-05-01T08:42:54.999Z</time></trkpt><trkpt lat="41.68100851261554" lon="13.102591914427245"><ele>231.25</ele><time>2026-05-01T08:42:55.999Z</time></trkpt><trkpt lat="41.68094458204348" lon="13.10273736936795"><ele>230.0</ele><time>2026-05-01T08:42:56.999Z</time></trkpt><trkpt lat="41.68088023861373" lon="13.102888554405999"><ele>230.0</ele><time>2026-05-01T08:42:57.999Z</time></trkpt><trkpt lat="41.68080487673206" lon="13.103062637954784"><ele>230.0</ele><time>2026-05-01T08:42:58.999Z</time></trkpt><trkpt lat="41.680719766494455" lon="13.103254485440264"><ele>230.0</ele><time>2026-05-01T08:42:59.999Z</time></trkpt><trkpt lat="41.68063051829534" lon="13.103448340002737"><ele>228.66666666666669</ele><time>2026-05-01T08:43:00.999Z</time></trkpt><trkpt lat="41.680542012320856" lon="13.103633505872557"><ele>227.33333333333331</ele><time>2026-05-01T08:43:01.999Z</time></trkpt><trkpt lat="41.680455369310565" lon="13.103815402735199"><ele>226.0</ele><time>2026-05-01T08:43:02.999Z</time></trkpt><trkpt lat="41.68037397396928" lon="13.103992082047137"><ele>226.75</ele><time>2026-05-01T08:43:03.999Z</time></trkpt><trkpt lat="41.680299215961675" lon="13.10415435409331"><ele>227.5</ele><time>2026-05-01T08:43:04.999Z</time></trkpt><trkpt lat="41.68022870573093" lon="13.104301176302961"><ele>228.25</ele><time>2026-05-01T08:43:05.999Z</time></trkpt><trkpt lat="41.68014792067242" lon="13.104450479733519"><ele>229.0</ele><time>2026-05-01T08:43:06.999Z</time></trkpt><trkpt lat="41.68005946270493" lon="13.104593141726033"><ele>233.0</ele><time>2026-05-01T08:43:07.999Z</time></trkpt><trkpt lat="41.67995754320943" lon="13.104730137241015"><ele>237.0</ele><time>2026-05-01T08:43:08.999Z</time></trkpt><trkpt lat="41.67984417461496" lon="13.104859109447851"><ele>241.0</ele><time>2026-05-01T08:43:09.999Z</time></trkpt><trkpt lat="41.679723388855095" lon="13.104992033406381"><ele>241.0</ele><time>2026-05-01T08:43:10.998Z</time></trkpt><trkpt lat="41.67959996355866" lon="13.105124023508019"><ele>241.0</ele><time>2026-05-01T08:43:11.998Z</time></trkpt><trkpt lat="41.67947810396017" lon="13.105256454368034"><ele>241.0</ele><time>2026-05-01T08:43:13Z</time></trkpt><trkpt lat="41.6793615037002" lon="13.10539552746373"><ele>243.33333333333331</ele><time>2026-05-01T08:43:14Z</time></trkpt><trkpt lat="41.67925057209259" lon="13.105540381688678"><ele>245.66666666666669</ele><time>2026-05-01T08:43:15Z</time></trkpt><trkpt lat="41.6791405964529" lon="13.105678372164077"><ele>248.0</ele><time>2026-05-01T08:43:16Z</time></trkpt><trkpt lat="41.67902782661102" lon="13.10580729902446"><ele>248.0</ele><time>2026-05-01T08:43:17Z</time></trkpt><trkpt lat="41.678913700736175" lon="13.10593516088178"><ele>248.0</ele><time>2026-05-01T08:43:18Z</time></trkpt><trkpt lat="41.67880608443044" lon="13.106061684108711"><ele>248.0</ele><time>2026-05-01T08:43:19Z</time></trkpt><trkpt lat="41.67870055326881" lon="13.106192797895321"><ele>248.0</ele><time>2026-05-01T08:43:20Z</time></trkpt><trkpt lat="41.67859509345492" lon="13.106335856134999"><ele>250.0</ele><time>2026-05-01T08:43:21Z</time></trkpt><trkpt lat="41.678490337884085" lon="13.106489478165795"><ele>252.0</ele><time>2026-05-01T08:43:22Z</time></trkpt><trkpt lat="41.6783903577161" lon="13.10665426636684"><ele>254.0</ele><time>2026-05-01T08:43:23Z</time></trkpt><trkpt lat="41.67829681753515" lon="13.106826819292177"><ele>254.0</ele><time>2026-05-01T08:43:24Z</time></trkpt><trkpt lat="41.678206684561125" lon="13.106996884547591"><ele>254.0</ele><time>2026-05-01T08:43:25Z</time></trkpt><trkpt lat="41.678122666036614" lon="13.107172974346167"><ele>254.0</ele><time>2026-05-01T08:43:26Z</time></trkpt><trkpt lat="41.678040331471024" lon="13.107339875800356"><ele>252.5</ele><time>2026-05-01T08:43:27Z</time></trkpt><trkpt lat="41.67795540116036" lon="13.107501611346402"><ele>251.0</ele><time>2026-05-01T08:43:28Z</time></trkpt><trkpt lat="41.677863117782806" lon="13.107649147464612"><ele>249.5</ele><time>2026-05-01T08:43:29Z</time></trkpt><trkpt lat="41.67775492312433" lon="13.107773910045752"><ele>248.0</ele><time>2026-05-01T08:43:30Z</time></trkpt><trkpt lat="41.67763927555906" lon="13.107894394281498"><ele>251.0</ele><time>2026-05-01T08:43:31Z</time></trkpt><trkpt lat="41.677519985747196" lon="13.108012961870298"><ele>254.0</ele><time>2026-05-01T08:43:32Z</time></trkpt><trkpt lat="41.67741355348498" lon="13.108132602450748"><ele>257.0</ele><time>2026-05-01T08:43:33Z</time></trkpt><trkpt lat="41.67732275135083" lon="13.108267711661048"><ele>260.0</ele><time>2026-05-01T08:43:34Z</time></trkpt><trkpt lat="41.6772229078459" lon="13.108384063683408"><ele>260.0</ele><time>2026-05-01T08:43:35Z</time></trkpt><trkpt lat="41.67711569293413" lon="13.108486179282421"><ele>260.0</ele><time>2026-05-01T08:43:36Z</time></trkpt><trkpt lat="41.67701593599505" lon="13.108606150366855"><ele>260.0</ele><time>2026-05-01T08:43:37Z</time></trkpt><trkpt lat="41.67691556139942" lon="13.108721476080108"><ele>260.0</ele><time>2026-05-01T08:43:38Z</time></trkpt><trkpt lat="41.67681012570812" lon="13.108842579961179"><ele>265.0</ele><time>2026-05-01T08:43:39Z</time></trkpt><trkpt lat="41.67670015642379" lon="13.108973999984046"><ele>270.0</ele><time>2026-05-01T08:43:40Z</time></trkpt><trkpt lat="41.67659521516248" lon="13.109099698901343"><ele>275.0</ele><time>2026-05-01T08:43:41Z</time></trkpt><trkpt lat="41.67648949721514" lon="13.109218419545643"><ele>280.0</ele><time>2026-05-01T08:43:42Z</time></trkpt><trkpt lat="41.676384187113314" lon="13.109333398425482"><ele>280.0</ele><time>2026-05-01T08:43:43Z</time></trkpt><trkpt lat="41.676274254147934" lon="13.109452896503976"><ele>280.0</ele><time>2026-05-01T08:43:44Z</time></trkpt><trkpt lat="41.6761610195054" lon="13.109575983527444"><ele>280.0</ele><time>2026-05-01T08:43:45Z</time></trkpt><trkpt lat="41.676044714788425" lon="13.109707881122622"><ele>280.0</ele><time>2026-05-01T08:43:46Z</time></trkpt><trkpt lat="41.67593129270084" lon="13.1098470326084"><ele>280.25</ele><time>2026-05-01T08:43:47Z</time></trkpt><trkpt lat="41.67583263727026" lon="13.109997047144269"><ele>280.5</ele><time>2026-05-01T08:43:48Z</time></trkpt><trkpt lat="41.675738774834315" lon="13.110145446930435"><ele>280.75</ele><time>2026-05-01T08:43:49Z</time></trkpt><trkpt lat="41.675639166269356" lon="13.11028029801653"><ele>281.0</ele><time>2026-05-01T08:43:50Z</time></trkpt><trkpt lat="41.675530477335194" lon="13.110410780893151"><ele>281.0</ele><time>2026-05-01T08:43:51Z</time></trkpt><trkpt lat="41.67541393353264" lon="13.110532103343202"><ele>281.0</ele><time>2026-05-01T08:43:52Z</time></trkpt><trkpt lat="41.67528923756572" lon="13.110643694558888"><ele>281.0</ele><time>2026-05-01T08:43:53Z</time></trkpt><trkpt lat="41.67516128746999" lon="13.110764058656247"><ele>283.6666666666667</ele><time>2026-05-01T08:43:54Z</time></trkpt><trkpt lat="41.675041059855104" lon="13.110906725233267"><ele>286.3333333333333</ele><time>2026-05-01T08:43:55Z</time></trkpt><trkpt lat="41.674941471141544" lon="13.111061236219927"><ele>289.0</ele><time>2026-05-01T08:43:56Z</time></trkpt><trkpt lat="41.67484755516568" lon="13.111218189347886"><ele>289.0</ele><time>2026-05-01T08:43:57Z</time></trkpt><trkpt lat="41.67475800323527" lon="13.111382131981879"><ele>289.0</ele><time>2026-05-01T08:43:58Z</time></trkpt><trkpt lat="41.67467603051611" lon="13.111551417841296"><ele>289.0</ele><time>2026-05-01T08:43:59Z</time></trkpt><trkpt lat="41.674603893726136" lon="13.111702729783088"><ele>289.0</ele><time>2026-05-01T08:44:00Z</time></trkpt><trkpt lat="41.67453660397167" lon="13.11184860016958"><ele>286.5</ele><time>2026-05-01T08:44:01Z</time></trkpt><trkpt lat="41.674487377792374" lon="13.111999593380904"><ele>284.0</ele><time>2026-05-01T08:44:02Z</time></trkpt><trkpt lat="41.67443781318212" lon="13.1121487836822"><ele>281.5</ele><time>2026-05-01T08:44:03Z</time></trkpt><trkpt lat="41.67437729122153" lon="13.112300414256572"><ele>279.0</ele><time>2026-05-01T08:44:04Z</time></trkpt><trkpt lat="41.67431587211362" lon="13.112443303644628"><ele>284.0</ele><time>2026-05-01T08:44:05Z</time></trkpt><trkpt lat="41.67424554889446" lon="13.112592237962748"><ele>289.0</ele><time>2026-05-01T08:44:06Z</time></trkpt><trkpt lat="41.67416686646719" lon="13.112746902773202"><ele>294.0</ele><time>2026-05-01T08:44:07Z</time></trkpt><trkpt lat="41.674083486548575" lon="13.112906659168493"><ele>299.0</ele><time>2026-05-01T08:44:08Z</time></trkpt><trkpt lat="41.67400917925835" lon="13.113060316566907"><ele>299.0</ele><time>2026-05-01T08:44:09Z</time></trkpt><trkpt lat="41.67395779290992" lon="13.113213792695948"><ele>299.0</ele><time>2026-05-01T08:44:10Z</time></trkpt><trkpt lat="41.67393718983043" lon="13.113392258108915"><ele>299.0</ele><time>2026-05-01T08:44:11Z</time></trkpt><trkpt lat="41.67389721286485" lon="13.113570492663808"><ele>299.0</ele><time>2026-05-01T08:44:12Z</time></trkpt><trkpt lat="41.67386870580087" lon="13.113758555212124"><ele>296.5</ele><time>2026-05-01T08:44:13Z</time></trkpt><trkpt lat="41.67383761970418" lon="13.113945429558989"><ele>294.0</ele><time>2026-05-01T08:44:13.999Z</time></trkpt><trkpt lat="41.67380638218006" lon="13.1141334675909"><ele>291.5</ele><time>2026-05-01T08:44:14.999Z</time></trkpt><trkpt lat="41.67377449041258" lon="13.114325444045052"><ele>289.0</ele><time>2026-05-01T08:44:15.999Z</time></trkpt><trkpt lat="41.673742020531996" lon="13.114517792078228"><ele>288.25</ele><time>2026-05-01T08:44:16.999Z</time></trkpt><trkpt lat="41.67370826816327" lon="13.114710619780332"><ele>287.5</ele><time>2026-05-01T08:44:17.999Z</time></trkpt><trkpt lat="41.673679320864714" lon="13.114905504603541"><ele>286.75</ele><time>2026-05-01T08:44:18.999Z</time></trkpt><trkpt lat="41.67365712553907" lon="13.115100798105479"><ele>286.0</ele><time>2026-05-01T08:44:19.999Z</time></trkpt><trkpt lat="41.673634074853446" lon="13.115287309675406"><ele>286.0</ele><time>2026-05-01T08:44:20.999Z</time></trkpt><trkpt lat="41.67360971866221" lon="13.115468473039213"><ele>286.0</ele><time>2026-05-01T08:44:21.999Z</time></trkpt><trkpt lat="41.673587724466095" lon="13.115641656239523"><ele>286.0</ele><time>2026-05-01T08:44:22.999Z</time></trkpt><trkpt lat="41.673572989759364" lon="13.11577505783043"><ele>286.0</ele><time>2026-05-01T08:44:23.999Z</time></trkpt><trkpt lat="41.67356312724514" lon="13.115860582505114"><ele>286.0</ele><time>2026-05-01T08:44:24.999Z</time></trkpt><trkpt lat="41.673543505155116" lon="13.115977192762434"><ele>287.5</ele><time>2026-05-01T08:44:26.999Z</time></trkpt><trkpt lat="41.673514849176215" lon="13.11607678357833"><ele>289.0</ele><time>2026-05-01T08:44:31.999Z</time></trkpt><trkpt lat="41.673733199996484" lon="13.116209731720593"><ele>290.5</ele><time>2026-05-01T08:44:36.999Z</time></trkpt><trkpt lat="41.67385507235926" lon="13.116203023858773"><ele>292.0</ele><time>2026-05-01T08:44:38.999Z</time></trkpt><trkpt lat="41.67392012363851" lon="13.116197481459684"><ele>292.0</ele><time>2026-05-01T08:44:39.999Z</time></trkpt><trkpt lat="41.67398709850893" lon="13.116191827944242"><ele>292.0</ele><time>2026-05-01T08:44:40.999Z</time></trkpt><trkpt lat="41.67405241937701" lon="13.116187035486579"><ele>292.0</ele><time>2026-05-01T08:44:41.999Z</time></trkpt><trkpt lat="41.67414572986354" lon="13.116193241998904"><ele>292.0</ele><time>2026-05-01T08:44:43.999Z</time></trkpt><trkpt lat="41.67421153934043" lon="13.116298621598135"><ele>292.0</ele><time>2026-05-01T08:44:46.999Z</time></trkpt><trkpt lat="41.67421657761157" lon="13.116384918933425"><ele>292.0</ele><time>2026-05-01T08:44:47.999Z</time></trkpt><trkpt lat="41.67423580187933" lon="13.11654789405835"><ele>292.2857142857143</ele><time>2026-05-01T08:44:49.999Z</time></trkpt><trkpt lat="41.674244968596355" lon="13.116636734479792"><ele>292.57142857142856</ele><time>2026-05-01T08:44:50.999Z</time></trkpt><trkpt lat="41.674247772264806" lon="13.116723803148878"><ele>292.8571428571429</ele><time>2026-05-01T08:44:51.999Z</time></trkpt><trkpt lat="41.67423791077444" lon="13.11681810260201"><ele>293.1428571428571</ele><time>2026-05-01T08:44:52.999Z</time></trkpt><trkpt lat="41.67421434972451" lon="13.116902481940697"><ele>293.42857142857144</ele><time>2026-05-01T08:44:53.999Z</time></trkpt><trkpt lat="41.67418525859252" lon="13.116985864513337"><ele>293.7142857142857</ele><time>2026-05-01T08:44:54.999Z</time></trkpt><trkpt lat="41.67414690403701" lon="13.117061385307215"><ele>294.0</ele><time>2026-05-01T08:44:55.999Z</time></trkpt><trkpt lat="41.674075229195694" lon="13.117182934106605"><ele>294.0</ele><time>2026-05-01T08:44:57.999Z</time></trkpt><trkpt lat="41.674001586143795" lon="13.117307113871611"><ele>294.0</ele><time>2026-05-01T08:44:59.999Z</time></trkpt><trkpt lat="41.67394577392428" lon="13.11745329736831"><ele>294.0</ele><time>2026-05-01T08:45:01.999Z</time></trkpt><trkpt lat="41.67392759822957" lon="13.117537064727125"><ele>294.0</ele><time>2026-05-01T08:45:02.999Z</time></trkpt><trkpt lat="41.67391119136392" lon="13.117619896027943"><ele>294.0</ele><time>2026-05-01T08:45:03.999Z</time></trkpt><trkpt lat="41.67388280738827" lon="13.117775125968144"><ele>292.5</ele><time>2026-05-01T08:45:05.999Z</time></trkpt><trkpt lat="41.67385228190451" lon="13.117853434008387"><ele>291.0</ele><time>2026-05-01T08:45:06.999Z</time></trkpt><trkpt lat="41.67380843269813" lon="13.117925342839857"><ele>289.5</ele><time>2026-05-01T08:45:07.999Z</time></trkpt><trkpt lat="41.67374267613327" lon="13.117962655363678"><ele>288.0</ele><time>2026-05-01T08:45:08.999Z</time></trkpt><trkpt lat="41.67367731991712" lon="13.118074481731965"><ele>286.5</ele><time>2026-05-01T08:45:10.999Z</time></trkpt><trkpt lat="41.67363826640812" lon="13.11817789598592"><ele>285.0</ele><time>2026-05-01T08:45:12.999Z</time></trkpt><trkpt lat="41.673627180043056" lon="13.118288514381383"><ele>283.0</ele><time>2026-05-01T08:45:14.999Z</time></trkpt><trkpt lat="41.67371709240772" lon="13.118400273906415"><ele>281.0</ele><time>2026-05-01T08:45:16.998Z</time></trkpt><trkpt lat="41.673742037212754" lon="13.118484533845576"><ele>279.0</ele><time>2026-05-01T08:45:17.998Z</time></trkpt><trkpt lat="41.6738066446549" lon="13.11862686918646"><ele>277.0</ele><time>2026-05-01T08:45:20Z</time></trkpt><trkpt lat="41.673868330685806" lon="13.11877208900209"><ele>275.0</ele><time>2026-05-01T08:45:22Z</time></trkpt><trkpt lat="41.67389719518615" lon="13.118848207922516"><ele>275.0</ele><time>2026-05-01T08:45:23Z</time></trkpt><trkpt lat="41.67394337785009" lon="13.118989258473388"><ele>275.0</ele><time>2026-05-01T08:45:25Z</time></trkpt><trkpt lat="41.67397189224617" lon="13.119119464048422"><ele>275.0</ele><time>2026-05-01T08:45:27Z</time></trkpt><trkpt lat="41.67393323557928" lon="13.11926025616583"><ele>275.0</ele><time>2026-05-01T08:45:29Z</time></trkpt><trkpt lat="41.673913992948016" lon="13.119359076156064"><ele>275.0</ele><time>2026-05-01T08:45:30Z</time></trkpt><trkpt lat="41.673907044092275" lon="13.119510148305721"><ele>274.0</ele><time>2026-05-01T08:45:32Z</time></trkpt><trkpt lat="41.673934706592675" lon="13.119672531815146"><ele>273.0</ele><time>2026-05-01T08:45:34Z</time></trkpt><trkpt lat="41.67392539037938" lon="13.11981266280676"><ele>272.0</ele><time>2026-05-01T08:45:36Z</time></trkpt><trkpt lat="41.673923868647925" lon="13.119937049739958"><ele>271.0</ele><time>2026-05-01T08:45:38Z</time></trkpt><trkpt lat="41.67388063761789" lon="13.120055717754934"><ele>270.0</ele><time>2026-05-01T08:45:40Z</time></trkpt><trkpt lat="41.67386765367925" lon="13.120184201960642"><ele>270.0</ele><time>2026-05-01T08:45:42Z</time></trkpt><trkpt lat="41.67384371903364" lon="13.120274713491083"><ele>270.0</ele><time>2026-05-01T08:45:44Z</time></trkpt><trkpt lat="41.673825713737756" lon="13.120398609478215"><ele>270.0</ele><time>2026-05-01T08:45:46Z</time></trkpt><trkpt lat="41.67383661844929" lon="13.120513533169465"><ele>270.0</ele><time>2026-05-01T08:45:48Z</time></trkpt><trkpt lat="41.67387543566438" lon="13.120630453469724"><ele>270.0</ele><time>2026-05-01T08:45:50Z</time></trkpt><trkpt lat="41.673892496185076" lon="13.120747763544497"><ele>270.0</ele><time>2026-05-01T08:45:52Z</time></trkpt><trkpt lat="41.67393656511281" lon="13.120894205459434"><ele>270.6</ele><time>2026-05-01T08:45:54Z</time></trkpt><trkpt lat="41.67398630025387" lon="13.121028246758296"><ele>271.2</ele><time>2026-05-01T08:45:56Z</time></trkpt><trkpt lat="41.674019674434454" lon="13.121155212146506"><ele>271.8</ele><time>2026-05-01T08:45:58Z</time></trkpt><trkpt lat="41.6740528499362" lon="13.121289342700518"><ele>272.4</ele><time>2026-05-01T08:46:00Z</time></trkpt><trkpt lat="41.67409535670272" lon="13.121422763521155"><ele>273.0</ele><time>2026-05-01T08:46:02Z</time></trkpt><trkpt lat="41.67413810560349" lon="13.121571730646753"><ele>274.2</ele><time>2026-05-01T08:46:04Z</time></trkpt><trkpt lat="41.67413234185329" lon="13.121736427167635"><ele>275.4</ele><time>2026-05-01T08:46:06Z</time></trkpt><trkpt lat="41.6741494623516" lon="13.121891950500434"><ele>276.59999999999997</ele><time>2026-05-01T08:46:08Z</time></trkpt><trkpt lat="41.67418227747646" lon="13.122017489409435"><ele>277.8</ele><time>2026-05-01T08:46:10Z</time></trkpt><trkpt lat="41.67421292922283" lon="13.122131140439684"><ele>279.0</ele><time>2026-05-01T08:46:13Z</time></trkpt><trkpt lat="41.6742320447976" lon="13.122226756662366"><ele>279.0</ele><time>2026-05-01T08:46:15Z</time></trkpt><trkpt lat="41.674251404517896" lon="13.122345118094334"><ele>279.0</ele><time>2026-05-01T08:46:17Z</time></trkpt><trkpt lat="41.67426167170793" lon="13.12244703684329"><ele>279.0</ele><time>2026-05-01T08:46:19Z</time></trkpt><trkpt lat="41.6742700076552" lon="13.122578584298621"><ele>279.0</ele><time>2026-05-01T08:46:21Z</time></trkpt><trkpt lat="41.67427579132216" lon="13.122699871309004"><ele>279.0</ele><time>2026-05-01T08:46:22.999Z</time></trkpt><trkpt lat="41.67428231843976" lon="13.122847275467816"><ele>280.0</ele><time>2026-05-01T08:46:24.999Z</time></trkpt><trkpt lat="41.67428583291268" lon="13.123000859481644"><ele>281.0</ele><time>2026-05-01T08:46:26.999Z</time></trkpt><trkpt lat="41.67426928111921" lon="13.123141949028964"><ele>282.0</ele><time>2026-05-01T08:46:28.999Z</time></trkpt><trkpt lat="41.67423551820849" lon="13.123247151636672"><ele>283.0</ele><time>2026-05-01T08:46:44.999Z</time></trkpt><trkpt lat="41.67420374909084" lon="13.123331099061355"><ele>284.0</ele><time>2026-05-01T08:46:46.999Z</time></trkpt><trkpt lat="41.674161996565665" lon="13.123398600698424"><ele>285.0</ele><time>2026-05-01T08:46:48.999Z</time></trkpt><trkpt lat="41.67410717500624" lon="13.123499845440236"><ele>285.8</ele><time>2026-05-01T08:46:50.999Z</time></trkpt><trkpt lat="41.67406005681705" lon="13.123632666716578"><ele>286.6</ele><time>2026-05-01T08:46:52.999Z</time></trkpt><trkpt lat="41.674012120608445" lon="13.123750925886197"><ele>287.4</ele><time>2026-05-01T08:46:54.999Z</time></trkpt><trkpt lat="41.67395337138403" lon="13.123884806798722"><ele>288.2</ele><time>2026-05-01T08:46:56.999Z</time></trkpt><trkpt lat="41.67392243112824" lon="13.123962199286368"><ele>289.0</ele><time>2026-05-01T08:46:57.999Z</time></trkpt><trkpt lat="41.673892946591984" lon="13.12403725808646"><ele>287.75</ele><time>2026-05-01T08:46:58.999Z</time></trkpt><trkpt lat="41.673848009257476" lon="13.124177170076543"><ele>286.5</ele><time>2026-05-01T08:47:00.999Z</time></trkpt><trkpt lat="41.673834168539464" lon="13.124320917620754"><ele>285.25</ele><time>2026-05-01T08:47:02.999Z</time></trkpt><trkpt lat="41.67389168659294" lon="13.124457635793739"><ele>284.0</ele><time>2026-05-01T08:47:04.999Z</time></trkpt><trkpt lat="41.673923140064936" lon="13.1246351413514"><ele>284.0</ele><time>2026-05-01T08:47:06.999Z</time></trkpt><trkpt lat="41.673975329904266" lon="13.124783094248128"><ele>284.0</ele><time>2026-05-01T08:47:08.999Z</time></trkpt><trkpt lat="41.674027954388684" lon="13.124924300475051"><ele>284.0</ele><time>2026-05-01T08:47:10.999Z</time></trkpt><trkpt lat="41.67407198676325" lon="13.125033897445924"><ele>284.0</ele><time>2026-05-01T08:47:12.999Z</time></trkpt><trkpt lat="41.67411138924846" lon="13.12515918477105"><ele>284.0</ele><time>2026-05-01T08:47:14.999Z</time></trkpt><trkpt lat="41.67412248732256" lon="13.125299843800743"><ele>284.0</ele><time>2026-05-01T08:47:16.999Z</time></trkpt><trkpt lat="41.6741166462237" lon="13.125464971292365"><ele>284.0</ele><time>2026-05-01T08:47:18.999Z</time></trkpt><trkpt lat="41.674111564218" lon="13.125551653459137"><ele>284.0</ele><time>2026-05-01T08:47:19.999Z</time></trkpt><trkpt lat="41.67409701280951" lon="13.125653349606997"><ele>284.0</ele><time>2026-05-01T08:47:20.999Z</time></trkpt><trkpt lat="41.67408094935574" lon="13.125765973485397"><ele>284.0</ele><time>2026-05-01T08:47:21.999Z</time></trkpt><trkpt lat="41.67406282745197" lon="13.12589012545833"><ele>284.0</ele><time>2026-05-01T08:47:22.999Z</time></trkpt><trkpt lat="41.67404440165411" lon="13.126016359522337"><ele>284.1666666666667</ele><time>2026-05-01T08:47:23.999Z</time></trkpt><trkpt lat="41.67402580225919" lon="13.12614378288398"><ele>284.33333333333337</ele><time>2026-05-01T08:47:25Z</time></trkpt><trkpt lat="41.67401007120937" lon="13.126248996287197"><ele>284.5</ele><time>2026-05-01T08:47:26Z</time></trkpt><trkpt lat="41.67399541776192" lon="13.126346797882796"><ele>284.6666666666667</ele><time>2026-05-01T08:47:27Z</time></trkpt><trkpt lat="41.67397875079647" lon="13.126458038431249"><ele>284.8333333333333</ele><time>2026-05-01T08:47:28Z</time></trkpt><trkpt lat="41.67396229160536" lon="13.126567021868992"><ele>285.0</ele><time>2026-05-01T08:47:29Z</time></trkpt><trkpt lat="41.673944366466124" lon="13.12667380100033"><ele>285.6</ele><time>2026-05-01T08:47:30Z</time></trkpt><trkpt lat="41.67392690732035" lon="13.126777804254681"><ele>286.2</ele><time>2026-05-01T08:47:31Z</time></trkpt><trkpt lat="41.67391024489067" lon="13.126877060729836"><ele>286.8</ele><time>2026-05-01T08:47:32Z</time></trkpt><trkpt lat="41.673898820832775" lon="13.126969785578083"><ele>287.4</ele><time>2026-05-01T08:47:33Z</time></trkpt><trkpt lat="41.67390823553344" lon="13.127108632959082"><ele>288.0</ele><time>2026-05-01T08:47:35Z</time></trkpt><trkpt lat="41.67400024274319" lon="13.127220757614957"><ele>288.0</ele><time>2026-05-01T08:47:37Z</time></trkpt><trkpt lat="41.67405258169129" lon="13.12735830505357"><ele>288.0</ele><time>2026-05-01T08:47:39Z</time></trkpt><trkpt lat="41.67407000297387" lon="13.127536915518773"><ele>288.0</ele><time>2026-05-01T08:47:41Z</time></trkpt><trkpt lat="41.67408843160131" lon="13.127640666138944"><ele>288.0</ele><time>2026-05-01T08:47:42Z</time></trkpt><trkpt lat="41.674111950567074" lon="13.12773643172463"><ele>288.0</ele><time>2026-05-01T08:47:43Z</time></trkpt><trkpt lat="41.674114765892426" lon="13.1278289217414"><ele>287.6</ele><time>2026-05-01T08:47:44Z</time></trkpt><trkpt lat="41.67414333849591" lon="13.127975912847338"><ele>287.20000000000005</ele><time>2026-05-01T08:47:46Z</time></trkpt><trkpt lat="41.67415556213076" lon="13.12812865285472"><ele>286.8</ele><time>2026-05-01T08:47:48Z</time></trkpt><trkpt lat="41.67414219200676" lon="13.128248490039251"><ele>286.40000000000003</ele><time>2026-05-01T08:47:50Z</time></trkpt><trkpt lat="41.67412598975451" lon="13.12833303878438"><ele>286.0</ele><time>2026-05-01T08:48:06Z</time></trkpt><trkpt lat="41.67431034923278" lon="13.128404398407405"><ele>286.0</ele><time>2026-05-01T08:48:08Z</time></trkpt><trkpt lat="41.67438653399793" lon="13.128414302451805"><ele>286.0</ele><time>2026-05-01T08:48:09Z</time></trkpt><trkpt lat="41.674505155155366" lon="13.128426355602494"><ele>286.0</ele><time>2026-05-01T08:48:10Z</time></trkpt><trkpt lat="41.674630417510095" lon="13.12842351711861"><ele>286.0</ele><time>2026-05-01T08:48:11Z</time></trkpt><trkpt lat="41.67477654098869" lon="13.128409715702123"><ele>285.0</ele><time>2026-05-01T08:48:12Z</time></trkpt><trkpt lat="41.67492718132811" lon="13.12837781610784"><ele>284.0</ele><time>2026-05-01T08:48:13Z</time></trkpt><trkpt lat="41.67506813627778" lon="13.12833894061491"><ele>283.0</ele><time>2026-05-01T08:48:14Z</time></trkpt><trkpt lat="41.675201786355935" lon="13.128301706865072"><ele>282.0</ele><time>2026-05-01T08:48:15Z</time></trkpt><trkpt lat="41.67532674969386" lon="13.128273110054383"><ele>282.0</ele><time>2026-05-01T08:48:16Z</time></trkpt><trkpt lat="41.675456081007226" lon="13.128240681879603"><ele>282.0</ele><time>2026-05-01T08:48:17Z</time></trkpt><trkpt lat="41.67558595015835" lon="13.128211896943766"><ele>282.0</ele><time>2026-05-01T08:48:18Z</time></trkpt><trkpt lat="41.675711832958804" lon="13.128185465944247"><ele>282.0</ele><time>2026-05-01T08:48:19Z</time></trkpt><trkpt lat="41.67582966511456" lon="13.128175791564892"><ele>278.5</ele><time>2026-05-01T08:48:20Z</time></trkpt><trkpt lat="41.67595506249919" lon="13.128174461682615"><ele>275.0</ele><time>2026-05-01T08:48:21Z</time></trkpt><trkpt lat="41.676061931526526" lon="13.128210312229884"><ele>271.5</ele><time>2026-05-01T08:48:22Z</time></trkpt><trkpt lat="41.67619393575805" lon="13.128259614446103"><ele>268.0</ele><time>2026-05-01T08:48:23Z</time></trkpt><trkpt lat="41.67630657625248" lon="13.128350651900899"><ele>268.0</ele><time>2026-05-01T08:48:24Z</time></trkpt><trkpt lat="41.67641965685967" lon="13.128474216767277"><ele>268.0</ele><time>2026-05-01T08:48:25Z</time></trkpt><trkpt lat="41.67654304463676" lon="13.128609389947798"><ele>268.0</ele><time>2026-05-01T08:48:26Z</time></trkpt><trkpt lat="41.6766662843261" lon="13.128734698278956"><ele>268.0</ele><time>2026-05-01T08:48:27Z</time></trkpt><trkpt lat="41.6767956245078" lon="13.12887356702643"><ele>268.0</ele><time>2026-05-01T08:48:28Z</time></trkpt><trkpt lat="41.67692399474849" lon="13.129010975079716"><ele>268.0</ele><time>2026-05-01T08:48:29Z</time></trkpt><trkpt lat="41.67704907828001" lon="13.12914745684081"><ele>266.25</ele><time>2026-05-01T08:48:30Z</time></trkpt><trkpt lat="41.677169108965586" lon="13.129274737222833"><ele>264.5</ele><time>2026-05-01T08:48:31Z</time></trkpt><trkpt lat="41.67728300194139" lon="13.129384496787225"><ele>262.75</ele><time>2026-05-01T08:48:32Z</time></trkpt><trkpt lat="41.67739516882038" lon="13.129479290492313"><ele>261.0</ele><time>2026-05-01T08:48:33Z</time></trkpt><trkpt lat="41.67750343470761" lon="13.12957107552615"><ele>261.0</ele><time>2026-05-01T08:48:33.999Z</time></trkpt><trkpt lat="41.67760345834072" lon="13.129667128800785"><ele>261.0</ele><time>2026-05-01T08:48:34.999Z</time></trkpt><trkpt lat="41.67769857336447" lon="13.129767698293374"><ele>261.0</ele><time>2026-05-01T08:48:35.999Z</time></trkpt><trkpt lat="41.6777836281496" lon="13.129872235505855"><ele>261.0</ele><time>2026-05-01T08:48:36.999Z</time></trkpt><trkpt lat="41.677859434888866" lon="13.129981737399289"><ele>261.6</ele><time>2026-05-01T08:48:37.999Z</time></trkpt><trkpt lat="41.677913033019564" lon="13.130112149501842"><ele>262.20000000000005</ele><time>2026-05-01T08:48:38.999Z</time></trkpt><trkpt lat="41.677982434850335" lon="13.130217680384524"><ele>262.79999999999995</ele><time>2026-05-01T08:48:39.999Z</time></trkpt><trkpt lat="41.678039706216566" lon="13.130327355346147"><ele>263.4</ele><time>2026-05-01T08:48:40.999Z</time></trkpt><trkpt lat="41.67810095497538" lon="13.130442795703615"><ele>264.0</ele><time>2026-05-01T08:48:41.999Z</time></trkpt><trkpt lat="41.678164807592026" lon="13.130554077996516"><ele>264.0</ele><time>2026-05-01T08:48:42.999Z</time></trkpt><trkpt lat="41.678237106423275" lon="13.130661765758939"><ele>264.0</ele><time>2026-05-01T08:48:43.999Z</time></trkpt><trkpt lat="41.67831485858978" lon="13.130782192668768"><ele>264.0</ele><time>2026-05-01T08:48:44.999Z</time></trkpt><trkpt lat="41.67839754949268" lon="13.13091346158571"><ele>264.0</ele><time>2026-05-01T08:48:45.999Z</time></trkpt><trkpt lat="41.6784766662301" lon="13.13104355925575"><ele>262.5</ele><time>2026-05-01T08:48:46.999Z</time></trkpt><trkpt lat="41.67855156929062" lon="13.1311670427326"><ele>261.0</ele><time>2026-05-01T08:48:47.999Z</time></trkpt><trkpt lat="41.6786227613901" lon="13.131280559681604"><ele>259.5</ele><time>2026-05-01T08:48:48.999Z</time></trkpt><trkpt lat="41.67869979512796" lon="13.131396627093025"><ele>258.0</ele><time>2026-05-01T08:48:49.999Z</time></trkpt><trkpt lat="41.67877938391573" lon="13.131506047081588"><ele>256.4</ele><time>2026-05-01T08:48:50.999Z</time></trkpt><trkpt lat="41.67886897814952" lon="13.13160098802948"><ele>254.8</ele><time>2026-05-01T08:48:51.999Z</time></trkpt><trkpt lat="41.678970017508014" lon="13.131685103333904"><ele>253.2</ele><time>2026-05-01T08:48:52.999Z</time></trkpt><trkpt lat="41.67906567734309" lon="13.13176124173224"><ele>251.6</ele><time>2026-05-01T08:48:53.999Z</time></trkpt><trkpt lat="41.67915213303551" lon="13.131836465790904"><ele>250.0</ele><time>2026-05-01T08:48:54.999Z</time></trkpt><trkpt lat="41.67923016559433" lon="13.131912637693748"><ele>250.0</ele><time>2026-05-01T08:48:55.999Z</time></trkpt><trkpt lat="41.679309649429484" lon="13.131983901743226"><ele>250.0</ele><time>2026-05-01T08:48:56.999Z</time></trkpt><trkpt lat="41.67938927097813" lon="13.13206355732614"><ele>250.0</ele><time>2026-05-01T08:48:57.999Z</time></trkpt><trkpt lat="41.6794786271316" lon="13.132152357859502"><ele>250.0</ele><time>2026-05-01T08:48:58.999Z</time></trkpt><trkpt lat="41.67956877285882" lon="13.132248082738707"><ele>250.0</ele><time>2026-05-01T08:48:59.999Z</time></trkpt><trkpt lat="41.679657446232774" lon="13.132337598985734"><ele>247.5</ele><time>2026-05-01T08:49:00.999Z</time></trkpt><trkpt lat="41.67974923611452" lon="13.132420590613078"><ele>245.0</ele><time>2026-05-01T08:49:01.999Z</time></trkpt><trkpt lat="41.67984451011691" lon="13.132496079093045"><ele>242.5</ele><time>2026-05-01T08:49:02.999Z</time></trkpt><trkpt lat="41.679951696677456" lon="13.132564341851118"><ele>240.0</ele><time>2026-05-01T08:49:03.999Z</time></trkpt><trkpt lat="41.68006542318492" lon="13.132622122959733"><ele>240.0</ele><time>2026-05-01T08:49:04.999Z</time></trkpt><trkpt lat="41.68017958435551" lon="13.132674213981314"><ele>240.0</ele><time>2026-05-01T08:49:05.999Z</time></trkpt><trkpt lat="41.68029644517068" lon="13.132728789572125"><ele>240.0</ele><time>2026-05-01T08:49:06.999Z</time></trkpt><trkpt lat="41.680414311625675" lon="13.13278517323611"><ele>240.0</ele><time>2026-05-01T08:49:07.999Z</time></trkpt><trkpt lat="41.6805363318269" lon="13.132842118620271"><ele>237.5</ele><time>2026-05-01T08:49:08.999Z</time></trkpt><trkpt lat="41.68066514014685" lon="13.13289642687579"><ele>235.0</ele><time>2026-05-01T08:49:09.999Z</time></trkpt><trkpt lat="41.680794996809375" lon="13.132945634332165"><ele>232.5</ele><time>2026-05-01T08:49:10.999Z</time></trkpt><trkpt lat="41.680930884217375" lon="13.132989522227815"><ele>230.0</ele><time>2026-05-01T08:49:11.999Z</time></trkpt><trkpt lat="41.681064976841554" lon="13.133016689628661"><ele>226.25</ele><time>2026-05-01T08:49:12.999Z</time></trkpt><trkpt lat="41.681198273333685" lon="13.133029704502137"><ele>222.5</ele><time>2026-05-01T08:49:13.999Z</time></trkpt><trkpt lat="41.68133970989805" lon="13.133053837324464"><ele>218.75</ele><time>2026-05-01T08:49:14.999Z</time></trkpt><trkpt lat="41.68147990589202" lon="13.13308032627761"><ele>215.0</ele><time>2026-05-01T08:49:15.999Z</time></trkpt><trkpt lat="41.6816211480485" lon="13.133123881213319"><ele>215.0</ele><time>2026-05-01T08:49:16.999Z</time></trkpt><trkpt lat="41.68176043073296" lon="13.133173032838172"><ele>215.0</ele><time>2026-05-01T08:49:17.999Z</time></trkpt><trkpt lat="41.681896112295156" lon="13.133216743112554"><ele>215.0</ele><time>2026-05-01T08:49:18.999Z</time></trkpt><trkpt lat="41.6820298813327" lon="13.133267149824519"><ele>215.0</ele><time>2026-05-01T08:49:19.999Z</time></trkpt><trkpt lat="41.68216634931353" lon="13.133315495029217"><ele>215.25</ele><time>2026-05-01T08:49:20.999Z</time></trkpt><trkpt lat="41.6823036387243" lon="13.133371607361392"><ele>215.5</ele><time>2026-05-01T08:49:21.999Z</time></trkpt><trkpt lat="41.682443206987266" lon="13.13343165922022"><ele>215.75</ele><time>2026-05-01T08:49:22.999Z</time></trkpt><trkpt lat="41.68258620116795" lon="13.13350425274671"><ele>216.0</ele><time>2026-05-01T08:49:23.999Z</time></trkpt><trkpt lat="41.68273310626466" lon="13.133590524718274"><ele>213.33333333333331</ele><time>2026-05-01T08:49:24.999Z</time></trkpt><trkpt lat="41.68288169203525" lon="13.133682849822813"><ele>210.66666666666666</ele><time>2026-05-01T08:49:25.999Z</time></trkpt><trkpt lat="41.683032588834855" lon="13.133770221291742"><ele>208.0</ele><time>2026-05-01T08:49:26.999Z</time></trkpt><trkpt lat="41.68318906174016" lon="13.133850565924263"><ele>208.0</ele><time>2026-05-01T08:49:27.999Z</time></trkpt><trkpt lat="41.68333952986429" lon="13.133918034750701"><ele>208.0</ele><time>2026-05-01T08:49:28.999Z</time></trkpt><trkpt lat="41.683475113597254" lon="13.133965723118841"><ele>208.0</ele><time>2026-05-01T08:49:29.999Z</time></trkpt><trkpt lat="41.683586533112944" lon="13.133998230879403"><ele>208.0</ele><time>2026-05-01T08:49:31Z</time></trkpt><trkpt lat="41.68369272521041" lon="13.134026622772446"><ele>208.5</ele><time>2026-05-01T08:49:32Z</time></trkpt><trkpt lat="41.68379339084292" lon="13.134048174367406"><ele>209.0</ele><time>2026-05-01T08:49:33Z</time></trkpt><trkpt lat="41.68389961891657" lon="13.134085411982499"><ele>209.5</ele><time>2026-05-01T08:49:34Z</time></trkpt><trkpt lat="41.684016230078726" lon="13.134149175247815"><ele>210.0</ele><time>2026-05-01T08:49:35Z</time></trkpt><trkpt lat="41.68412790994703" lon="13.13422896778055"><ele>209.0</ele><time>2026-05-01T08:49:36Z</time></trkpt><trkpt lat="41.68424037973184" lon="13.134314066073387"><ele>208.0</ele><time>2026-05-01T08:49:37Z</time></trkpt><trkpt lat="41.68435423669959" lon="13.134398716050788"><ele>207.0</ele><time>2026-05-01T08:49:38Z</time></trkpt><trkpt lat="41.68446188811499" lon="13.134471448723593"><ele>206.0</ele><time>2026-05-01T08:49:39Z</time></trkpt><trkpt lat="41.684559058966066" lon="13.134558747875472"><ele>206.0</ele><time>2026-05-01T08:49:40Z</time></trkpt><trkpt lat="41.6846677168092" lon="13.134607482546558"><ele>206.0</ele><time>2026-05-01T08:49:41Z</time></trkpt><trkpt lat="41.684771242480885" lon="13.134676894416275"><ele>206.0</ele><time>2026-05-01T08:49:42Z</time></trkpt><trkpt lat="41.68487199935192" lon="13.134737634275501"><ele>206.0</ele><time>2026-05-01T08:49:43Z</time></trkpt><trkpt lat="41.684974334168594" lon="13.134777845613657"><ele>206.0</ele><time>2026-05-01T08:49:44Z</time></trkpt><trkpt lat="41.68507279817535" lon="13.134796735853453"><ele>206.0</ele><time>2026-05-01T08:49:45Z</time></trkpt><trkpt lat="41.68516805702894" lon="13.134780611848901"><ele>206.0</ele><time>2026-05-01T08:49:46Z</time></trkpt><trkpt lat="41.685271551897046" lon="13.134740387288007"><ele>206.0</ele><time>2026-05-01T08:49:47Z</time></trkpt><trkpt lat="41.68538801326032" lon="13.13467007544383"><ele>206.0</ele><time>2026-05-01T08:49:48Z</time></trkpt><trkpt lat="41.685499495591074" lon="13.134585055737803"><ele>204.25</ele><time>2026-05-01T08:49:49Z</time></trkpt><trkpt lat="41.68560621563558" lon="13.134512550210479"><ele>202.5</ele><time>2026-05-01T08:49:50Z</time></trkpt><trkpt lat="41.68571754952137" lon="13.134458602445026"><ele>200.75</ele><time>2026-05-01T08:49:51Z</time></trkpt><trkpt lat="41.68583248847633" lon="13.134425765886615"><ele>199.0</ele><time>2026-05-01T08:49:52Z</time></trkpt><trkpt lat="41.685942834402255" lon="13.134392285780391"><ele>199.0</ele><time>2026-05-01T08:49:53Z</time></trkpt><trkpt lat="41.68605034297409" lon="13.134356985581316"><ele>199.0</ele><time>2026-05-01T08:49:54Z</time></trkpt><trkpt lat="41.68615780583605" lon="13.134318147468269"><ele>199.0</ele><time>2026-05-01T08:49:55Z</time></trkpt><trkpt lat="41.686262416525615" lon="13.13427871825418"><ele>199.0</ele><time>2026-05-01T08:49:56Z</time></trkpt><trkpt lat="41.68636609776827" lon="13.13423674374568"><ele>199.0</ele><time>2026-05-01T08:49:57Z</time></trkpt><trkpt lat="41.686471253142535" lon="13.13419639120726"><ele>197.2</ele><time>2026-05-01T08:49:58Z</time></trkpt><trkpt lat="41.686572578954504" lon="13.134171371966675"><ele>195.39999999999998</ele><time>2026-05-01T08:49:59Z</time></trkpt><trkpt lat="41.686676336852734" lon="13.13416909982363"><ele>193.6</ele><time>2026-05-01T08:50:00Z</time></trkpt><trkpt lat="41.68678372322795" lon="13.134202848789375"><ele>191.8</ele><time>2026-05-01T08:50:01Z</time></trkpt><trkpt lat="41.686900503423736" lon="13.134253723711454"><ele>190.0</ele><time>2026-05-01T08:50:02Z</time></trkpt><trkpt lat="41.68702981448548" lon="13.134298261289803"><ele>188.0</ele><time>2026-05-01T08:50:03Z</time></trkpt><trkpt lat="41.68717253896978" lon="13.134319899713244"><ele>186.0</ele><time>2026-05-01T08:50:04Z</time></trkpt><trkpt lat="41.68730613213635" lon="13.13431843713356"><ele>184.0</ele><time>2026-05-01T08:50:05Z</time></trkpt><trkpt lat="41.68742883526244" lon="13.134311088089529"><ele>182.0</ele><time>2026-05-01T08:50:06Z</time></trkpt><trkpt lat="41.68754346753219" lon="13.134306086035116"><ele>182.0</ele><time>2026-05-01T08:50:07Z</time></trkpt><trkpt lat="41.68764192060076" lon="13.134307291155555"><ele>182.0</ele><time>2026-05-01T08:50:08Z</time></trkpt><trkpt lat="41.687730555543396" lon="13.134301468388104"><ele>182.0</ele><time>2026-05-01T08:50:09Z</time></trkpt><trkpt lat="41.68780499040279" lon="13.134281612557109"><ele>182.0</ele><time>2026-05-01T08:50:10Z</time></trkpt><trkpt lat="41.68786826043253" lon="13.134257884240814"><ele>182.0</ele><time>2026-05-01T08:50:11Z</time></trkpt><trkpt lat="41.68796673888361" lon="13.13424989595118"><ele>182.0</ele><time>2026-05-01T08:50:13Z</time></trkpt><trkpt lat="41.68799207763719" lon="13.134329988672047"><ele>182.2</ele><time>2026-05-01T08:50:16Z</time></trkpt><trkpt lat="41.68800409058905" lon="13.13451729693759"><ele>182.39999999999998</ele><time>2026-05-01T08:50:18Z</time></trkpt><trkpt lat="41.68800239991868" lon="13.134614653125038"><ele>182.60000000000002</ele><time>2026-05-01T08:50:19Z</time></trkpt><trkpt lat="41.68801583058779" lon="13.134738255731465"><ele>182.8</ele><time>2026-05-01T08:50:20Z</time></trkpt><trkpt lat="41.68804017513407" lon="13.134871977433827"><ele>183.0</ele><time>2026-05-01T08:50:21Z</time></trkpt><trkpt lat="41.688067147541496" lon="13.135014496342547"><ele>181.75</ele><time>2026-05-01T08:50:22Z</time></trkpt><trkpt lat="41.68809014436662" lon="13.135174678992312"><ele>180.5</ele><time>2026-05-01T08:50:23Z</time></trkpt><trkpt lat="41.68810847777042" lon="13.135335565362103"><ele>179.25</ele><time>2026-05-01T08:50:24Z</time></trkpt><trkpt lat="41.68811905193587" lon="13.135500286688563"><ele>178.0</ele><time>2026-05-01T08:50:25Z</time></trkpt><trkpt lat="41.68812388007422" lon="13.135659322244445"><ele>176.0</ele><time>2026-05-01T08:50:26Z</time></trkpt><trkpt lat="41.68812335310926" lon="13.135816041189969"><ele>174.0</ele><time>2026-05-01T08:50:27Z</time></trkpt><trkpt lat="41.68811260665401" lon="13.135973942469498"><ele>172.0</ele><time>2026-05-01T08:50:28Z</time></trkpt><trkpt lat="41.68808569757513" lon="13.136136482922108"><ele>170.0</ele><time>2026-05-01T08:50:29Z</time></trkpt><trkpt lat="41.688044642037134" lon="13.136298396643012"><ele>170.0</ele><time>2026-05-01T08:50:30Z</time></trkpt><trkpt lat="41.68797510309308" lon="13.136454089460695"><ele>170.0</ele><time>2026-05-01T08:50:31Z</time></trkpt><trkpt lat="41.68792144761068" lon="13.13660647281665"><ele>170.0</ele><time>2026-05-01T08:50:32Z</time></trkpt><trkpt lat="41.68787312554567" lon="13.13674370921146"><ele>170.0</ele><time>2026-05-01T08:50:33Z</time></trkpt><trkpt lat="41.68782922406972" lon="13.13686839113507"><ele>169.6</ele><time>2026-05-01T08:50:34Z</time></trkpt><trkpt lat="41.68778855968911" lon="13.136983879444065"><ele>169.2</ele><time>2026-05-01T08:50:35Z</time></trkpt><trkpt lat="41.68774390840711" lon="13.137106013233053"><ele>168.8</ele><time>2026-05-01T08:50:36Z</time></trkpt><trkpt lat="41.68769667732293" lon="13.137232506087964"><ele>168.4</ele><time>2026-05-01T08:50:36.999Z</time></trkpt><trkpt lat="41.6876472192672" lon="13.137362852449215"><ele>168.0</ele><time>2026-05-01T08:50:37.999Z</time></trkpt><trkpt lat="41.68759408563072" lon="13.137499102859039"><ele>169.0</ele><time>2026-05-01T08:50:38.999Z</time></trkpt><trkpt lat="41.68753821852013" lon="13.137641590791933"><ele>170.0</ele><time>2026-05-01T08:50:39.999Z</time></trkpt><trkpt lat="41.687479891680006" lon="13.137786395828662"><ele>171.0</ele><time>2026-05-01T08:50:40.999Z</time></trkpt><trkpt lat="41.68742050827335" lon="13.137930049135987"><ele>172.0</ele><time>2026-05-01T08:50:41.999Z</time></trkpt><trkpt lat="41.68735734174716" lon="13.138078013808391"><ele>171.5</ele><time>2026-05-01T08:50:42.999Z</time></trkpt><trkpt lat="41.687295234676256" lon="13.138222635111278"><ele>171.0</ele><time>2026-05-01T08:50:43.999Z</time></trkpt><trkpt lat="41.68723216123349" lon="13.138369887567528"><ele>170.5</ele><time>2026-05-01T08:50:44.999Z</time></trkpt><trkpt lat="41.68717093206281" lon="13.138519760746316"><ele>170.0</ele><time>2026-05-01T08:50:45.999Z</time></trkpt><trkpt lat="41.68710965826879" lon="13.138669743031102"><ele>170.0</ele><time>2026-05-01T08:50:46.999Z</time></trkpt><trkpt lat="41.68706581163501" lon="13.138835593092"><ele>170.0</ele><time>2026-05-01T08:50:47.999Z</time></trkpt><trkpt lat="41.68701369018903" lon="13.1389847642561"><ele>170.0</ele><time>2026-05-01T08:50:48.999Z</time></trkpt><trkpt lat="41.68697226113124" lon="13.139134382707"><ele>170.0</ele><time>2026-05-01T08:50:49.999Z</time></trkpt><trkpt lat="41.686938352622775" lon="13.139284702926245"><ele>169.5</ele><time>2026-05-01T08:50:50.999Z</time></trkpt><trkpt lat="41.686907112455884" lon="13.139436603143254"><ele>169.0</ele><time>2026-05-01T08:50:51.999Z</time></trkpt><trkpt lat="41.686864843756304" lon="13.13958023280313"><ele>168.5</ele><time>2026-05-01T08:50:52.999Z</time></trkpt><trkpt lat="41.68683666027718" lon="13.139721222600782"><ele>168.0</ele><time>2026-05-01T08:50:53.999Z</time></trkpt><trkpt lat="41.68681785236551" lon="13.13986513759447"><ele>167.75</ele><time>2026-05-01T08:50:54.999Z</time></trkpt><trkpt lat="41.6867762305636" lon="13.140001291448725"><ele>167.5</ele><time>2026-05-01T08:50:55.999Z</time></trkpt><trkpt lat="41.68671187432044" lon="13.140124969816716"><ele>167.25</ele><time>2026-05-01T08:50:56.999Z</time></trkpt><trkpt lat="41.68663880834967" lon="13.14024130161129"><ele>167.0</ele><time>2026-05-01T08:50:57.999Z</time></trkpt><trkpt lat="41.68655079466571" lon="13.1403436994964"><ele>167.0</ele><time>2026-05-01T08:50:58.999Z</time></trkpt><trkpt lat="41.686456124555875" lon="13.140437874257183"><ele>167.0</ele><time>2026-05-01T08:50:59.999Z</time></trkpt><trkpt lat="41.68637579958677" lon="13.140534575495174"><ele>167.0</ele><time>2026-05-01T08:51:00.999Z</time></trkpt><trkpt lat="41.686305557164566" lon="13.14062133606454"><ele>167.0</ele><time>2026-05-01T08:51:01.999Z</time></trkpt><trkpt lat="41.68625567134064" lon="13.14071978032132"><ele>167.0</ele><time>2026-05-01T08:51:02.999Z</time></trkpt><trkpt lat="41.68623141902021" lon="13.140840137865213"><ele>167.0</ele><time>2026-05-01T08:51:03.999Z</time></trkpt><trkpt lat="41.68622619858909" lon="13.140983772624162"><ele>167.0</ele><time>2026-05-01T08:51:04.999Z</time></trkpt><trkpt lat="41.686227247437444" lon="13.14114084882335"><ele>167.0</ele><time>2026-05-01T08:51:05.999Z</time></trkpt><trkpt lat="41.68622300102068" lon="13.141304888466074"><ele>167.0</ele><time>2026-05-01T08:51:06.999Z</time></trkpt><trkpt lat="41.68621710895915" lon="13.141468187009236"><ele>167.0</ele><time>2026-05-01T08:51:07.999Z</time></trkpt><trkpt lat="41.686210102038295" lon="13.141625916693672"><ele>167.0</ele><time>2026-05-01T08:51:08.999Z</time></trkpt><trkpt lat="41.68620748267345" lon="13.141782145377361"><ele>167.0</ele><time>2026-05-01T08:51:09.999Z</time></trkpt><trkpt lat="41.68620926659393" lon="13.141939576989529"><ele>167.0</ele><time>2026-05-01T08:51:10.999Z</time></trkpt><trkpt lat="41.68622386826532" lon="13.14209542059602"><ele>167.0</ele><time>2026-05-01T08:51:11.999Z</time></trkpt><trkpt lat="41.68626203992343" lon="13.142245299799455"><ele>167.0</ele><time>2026-05-01T08:51:12.999Z</time></trkpt><trkpt lat="41.68632251733889" lon="13.142385604839697"><ele>167.0</ele><time>2026-05-01T08:51:13.999Z</time></trkpt><trkpt lat="41.68639786496403" lon="13.142513742437417"><ele>167.0</ele><time>2026-05-01T08:51:14.999Z</time></trkpt><trkpt lat="41.68648167156734" lon="13.142623581393016"><ele>167.6</ele><time>2026-05-01T08:51:15.999Z</time></trkpt><trkpt lat="41.68655129002726" lon="13.142716817612333"><ele>168.2</ele><time>2026-05-01T08:51:16.999Z</time></trkpt><trkpt lat="41.686608576700415" lon="13.14279546701594"><ele>168.8</ele><time>2026-05-01T08:51:17.999Z</time></trkpt><trkpt lat="41.686670922988064" lon="13.142887161185016"><ele>169.4</ele><time>2026-05-01T08:51:19.999Z</time></trkpt><trkpt lat="41.68675613110087" lon="13.143004154767937"><ele>170.0</ele><time>2026-05-01T08:51:23.999Z</time></trkpt><trkpt lat="41.686860845538234" lon="13.142995625575125"><ele>170.0</ele><time>2026-05-01T08:51:24.999Z</time></trkpt><trkpt lat="41.686939351190844" lon="13.143022370649375"><ele>170.0</ele><time>2026-05-01T08:51:25.999Z</time></trkpt><trkpt lat="41.687024948664465" lon="13.143051680403154"><ele>170.0</ele><time>2026-05-01T08:51:26.999Z</time></trkpt><trkpt lat="41.68711782252002" lon="13.143087584614186"><ele>170.0</ele><time>2026-05-01T08:51:27.999Z</time></trkpt><trkpt lat="41.68721736578976" lon="13.143133074391502"><ele>170.0</ele><time>2026-05-01T08:51:28.999Z</time></trkpt><trkpt lat="41.68732267906932" lon="13.143177719782747"><ele>170.0</ele><time>2026-05-01T08:51:29.999Z</time></trkpt><trkpt lat="41.68742960979215" lon="13.143218631759273"><ele>170.0</ele><time>2026-05-01T08:51:30.999Z</time></trkpt><trkpt lat="41.68753797067637" lon="13.143260060212997"><ele>170.0</ele><time>2026-05-01T08:51:31.999Z</time></trkpt><trkpt lat="41.68764450320705" lon="13.14330250076939"><ele>170.0</ele><time>2026-05-01T08:51:32.999Z</time></trkpt><trkpt lat="41.68775043724021" lon="13.143344697096984"><ele>170.0</ele><time>2026-05-01T08:51:33.999Z</time></trkpt><trkpt lat="41.687852233658745" lon="13.143384702244283"><ele>169.66666666666666</ele><time>2026-05-01T08:51:34.999Z</time></trkpt><trkpt lat="41.68793903393924" lon="13.143418636449733"><ele>169.33333333333331</ele><time>2026-05-01T08:51:35.999Z</time></trkpt><trkpt lat="41.68801619734375" lon="13.143449643590085"><ele>169.0</ele><time>2026-05-01T08:51:37Z</time></trkpt><trkpt lat="41.688082942714935" lon="13.14349178328398"><ele>168.66666666666666</ele><time>2026-05-01T08:51:38Z</time></trkpt><trkpt lat="41.688127836118156" lon="13.14355117819544"><ele>168.33333333333334</ele><time>2026-05-01T08:51:39Z</time></trkpt><trkpt lat="41.68817408090534" lon="13.143629969590442"><ele>168.0</ele><time>2026-05-01T08:51:40Z</time></trkpt><trkpt lat="41.688240039095305" lon="13.143703843548659"><ele>168.0</ele><time>2026-05-01T08:51:41Z</time></trkpt><trkpt lat="41.688332297946" lon="13.14376513758554"><ele>168.0</ele><time>2026-05-01T08:51:42Z</time></trkpt><trkpt lat="41.688420668770014" lon="13.143836502462564"><ele>168.0</ele><time>2026-05-01T08:51:43Z</time></trkpt><trkpt lat="41.688500780768955" lon="13.143928037850166"><ele>168.0</ele><time>2026-05-01T08:51:44Z</time></trkpt><trkpt lat="41.68858927530748" lon="13.144019977413098"><ele>168.0</ele><time>2026-05-01T08:51:45Z</time></trkpt><trkpt lat="41.68869846615234" lon="13.144075645920374"><ele>167.0</ele><time>2026-05-01T08:51:46Z</time></trkpt><trkpt lat="41.68882204956993" lon="13.144110544823643"><ele>166.0</ele><time>2026-05-01T08:51:47Z</time></trkpt><trkpt lat="41.68895297986927" lon="13.144125243186968"><ele>165.0</ele><time>2026-05-01T08:51:48Z</time></trkpt><trkpt lat="41.68908636598769" lon="13.144123124601041"><ele>164.0</ele><time>2026-05-01T08:51:49Z</time></trkpt><trkpt lat="41.689221446755944" lon="13.144115847045319"><ele>164.0</ele><time>2026-05-01T08:51:50Z</time></trkpt><trkpt lat="41.68936247776022" lon="13.144116059783522"><ele>164.0</ele><time>2026-05-01T08:51:51Z</time></trkpt><trkpt lat="41.68950699915059" lon="13.144121145625151"><ele>164.0</ele><time>2026-05-01T08:51:52Z</time></trkpt><trkpt lat="41.689656405501154" lon="13.144126142710693"><ele>164.0</ele><time>2026-05-01T08:51:53Z</time></trkpt><trkpt lat="41.689805887003274" lon="13.144129499119254"><ele>164.0</ele><time>2026-05-01T08:51:54Z</time></trkpt><trkpt lat="41.68995240413598" lon="13.144135484777326"><ele>164.0</ele><time>2026-05-01T08:51:55Z</time></trkpt><trkpt lat="41.69009592549673" lon="13.14414294175098"><ele>164.0</ele><time>2026-05-01T08:51:56Z</time></trkpt><trkpt lat="41.690236032074466" lon="13.144151194146504"><ele>164.0</ele><time>2026-05-01T08:51:57Z</time></trkpt><trkpt lat="41.69039205496262" lon="13.14416138205235"><ele>167.0</ele><time>2026-05-01T08:51:58Z</time></trkpt><trkpt lat="41.69056333722423" lon="13.144165416070223"><ele>170.0</ele><time>2026-05-01T08:51:59Z</time></trkpt><trkpt lat="41.69075715776822" lon="13.144174703908002"><ele>173.0</ele><time>2026-05-01T08:52:00Z</time></trkpt><trkpt lat="41.69095777629851" lon="13.144185181080474"><ele>176.0</ele><time>2026-05-01T08:52:01Z</time></trkpt><trkpt lat="41.69116038004618" lon="13.144196370703888"><ele>179.0</ele><time>2026-05-01T08:52:02Z</time></trkpt><trkpt lat="41.69135739095264" lon="13.14420844628551"><ele>182.0</ele><time>2026-05-01T08:52:03Z</time></trkpt><trkpt lat="41.691524264319085" lon="13.14421747764798"><ele>182.0</ele><time>2026-05-01T08:52:04Z</time></trkpt><trkpt lat="41.69165598758449" lon="13.144224974433492"><ele>182.0</ele><time>2026-05-01T08:52:05Z</time></trkpt><trkpt lat="41.69175785626469" lon="13.144227804239335"><ele>182.0</ele><time>2026-05-01T08:52:06Z</time></trkpt><trkpt lat="41.691834932617965" lon="13.144235328992448"><ele>182.0</ele><time>2026-05-01T08:52:07Z</time></trkpt><trkpt lat="41.691897671606576" lon="13.144272576976594"><ele>182.0</ele><time>2026-05-01T08:52:08Z</time></trkpt><trkpt lat="41.69193563788624" lon="13.144437796266653"><ele>182.0</ele><time>2026-05-01T08:52:10Z</time></trkpt><trkpt lat="41.691915094722546" lon="13.144559138755685"><ele>182.0</ele><time>2026-05-01T08:52:11Z</time></trkpt><trkpt lat="41.691884721788" lon="13.144707205278593"><ele>182.0</ele><time>2026-05-01T08:52:12Z</time></trkpt><trkpt lat="41.69185813253397" lon="13.144856321863964"><ele>182.0</ele><time>2026-05-01T08:52:13Z</time></trkpt><trkpt lat="41.69183472901372" lon="13.145007040480998"><ele>182.0</ele><time>2026-05-01T08:52:14Z</time></trkpt><trkpt lat="41.69180799959438" lon="13.145174459644576"><ele>182.0</ele><time>2026-05-01T08:52:15Z</time></trkpt><trkpt lat="41.69176614364372" lon="13.14534906171937"><ele>182.0</ele><time>2026-05-01T08:52:16Z</time></trkpt><trkpt lat="41.69173690205396" lon="13.145524840296035"><ele>182.0</ele><time>2026-05-01T08:52:17Z</time></trkpt><trkpt lat="41.691707943191105" lon="13.145698919329934"><ele>182.0</ele><time>2026-05-01T08:52:18Z</time></trkpt><trkpt lat="41.69167896701136" lon="13.14587310271395"><ele>182.0</ele><time>2026-05-01T08:52:19Z</time></trkpt><trkpt lat="41.69164909911364" lon="13.146051435063166"><ele>182.0</ele><time>2026-05-01T08:52:20Z</time></trkpt><trkpt lat="41.69161311481868" lon="13.14623503691113"><ele>182.0</ele><time>2026-05-01T08:52:21Z</time></trkpt><trkpt lat="41.69157130385666" lon="13.146423108945886"><ele>182.0</ele><time>2026-05-01T08:52:22Z</time></trkpt><trkpt lat="41.691542860385454" lon="13.146604804057612"><ele>181.75</ele><time>2026-05-01T08:52:23Z</time></trkpt><trkpt lat="41.691490582559105" lon="13.146775812481163"><ele>181.5</ele><time>2026-05-01T08:52:24Z</time></trkpt><trkpt lat="41.691435859444" lon="13.146936547796216"><ele>181.25</ele><time>2026-05-01T08:52:25Z</time></trkpt><trkpt lat="41.69135232926283" lon="13.147081729179217"><ele>181.0</ele><time>2026-05-01T08:52:26Z</time></trkpt><trkpt lat="41.691279493113" lon="13.14723422424898"><ele>181.25</ele><time>2026-05-01T08:52:27Z</time></trkpt><trkpt lat="41.691210155467886" lon="13.147393935872454"><ele>181.5</ele><time>2026-05-01T08:52:28Z</time></trkpt><trkpt lat="41.69111903449635" lon="13.147535294387017"><ele>181.75</ele><time>2026-05-01T08:52:29Z</time></trkpt><trkpt lat="41.69102587667646" lon="13.147679363203027"><ele>182.0</ele><time>2026-05-01T08:52:30Z</time></trkpt><trkpt lat="41.69092928824334" lon="13.147822119070307"><ele>182.0</ele><time>2026-05-01T08:52:31Z</time></trkpt><trkpt lat="41.69082570128861" lon="13.147959703615355"><ele>182.0</ele><time>2026-05-01T08:52:32Z</time></trkpt><trkpt lat="41.69072403774561" lon="13.148085876472795"><ele>182.0</ele><time>2026-05-01T08:52:33Z</time></trkpt><trkpt lat="41.690617686382325" lon="13.148206510022167"><ele>182.0</ele><time>2026-05-01T08:52:34Z</time></trkpt><trkpt lat="41.69051128678786" lon="13.148318347810056"><ele>182.0</ele><time>2026-05-01T08:52:35Z</time></trkpt><trkpt lat="41.690405589067005" lon="13.14842962918437"><ele>182.0</ele><time>2026-05-01T08:52:36Z</time></trkpt><trkpt lat="41.6903001741182" lon="13.148541823832607"><ele>182.0</ele><time>2026-05-01T08:52:37Z</time></trkpt><trkpt lat="41.69019503630006" lon="13.14865597339537"><ele>182.0</ele><time>2026-05-01T08:52:38Z</time></trkpt><trkpt lat="41.690090552195464" lon="13.148774181450719"><ele>181.0</ele><time>2026-05-01T08:52:38.999Z</time></trkpt><trkpt lat="41.68998785278241" lon="13.148899473526235"><ele>180.0</ele><time>2026-05-01T08:52:39.999Z</time></trkpt><trkpt lat="41.689871793740025" lon="13.149012685110383"><ele>179.0</ele><time>2026-05-01T08:52:40.999Z</time></trkpt><trkpt lat="41.68977201765731" lon="13.149152920727486"><ele>178.0</ele><time>2026-05-01T08:52:41.999Z</time></trkpt><trkpt lat="41.68968219079726" lon="13.14931070845781"><ele>178.0</ele><time>2026-05-01T08:52:42.999Z</time></trkpt><trkpt lat="41.68961618554499" lon="13.149487827094845"><ele>178.0</ele><time>2026-05-01T08:52:43.999Z</time></trkpt><trkpt lat="41.68954487775225" lon="13.14966345015496"><ele>178.0</ele><time>2026-05-01T08:52:44.999Z</time></trkpt><trkpt lat="41.68948116401998" lon="13.149846486988586"><ele>178.0</ele><time>2026-05-01T08:52:45.999Z</time></trkpt><trkpt lat="41.689409872823994" lon="13.150027095413988"><ele>176.33333333333334</ele><time>2026-05-01T08:52:46.999Z</time></trkpt><trkpt lat="41.68935998896713" lon="13.150222098692362"><ele>174.66666666666666</ele><time>2026-05-01T08:52:47.999Z</time></trkpt><trkpt lat="41.68931471585082" lon="13.150420101338504"><ele>173.0</ele><time>2026-05-01T08:52:48.999Z</time></trkpt><trkpt lat="41.68927443148921" lon="13.15061755029289"><ele>173.66666666666666</ele><time>2026-05-01T08:52:49.999Z</time></trkpt><trkpt lat="41.689240167929746" lon="13.150819461596468"><ele>174.33333333333334</ele><time>2026-05-01T08:52:50.999Z</time></trkpt><trkpt lat="41.68920812740601" lon="13.151017082611096"><ele>175.0</ele><time>2026-05-01T08:52:51.999Z</time></trkpt><trkpt lat="41.68917863119729" lon="13.151215230090155"><ele>175.0</ele><time>2026-05-01T08:52:52.999Z</time></trkpt><trkpt lat="41.68915152145346" lon="13.151408802827964"><ele>175.0</ele><time>2026-05-01T08:52:53.999Z</time></trkpt><trkpt lat="41.689147012286384" lon="13.151596084951766"><ele>175.0</ele><time>2026-05-01T08:52:54.999Z</time></trkpt><trkpt lat="41.6891452128447" lon="13.15179221815698"><ele>175.0</ele><time>2026-05-01T08:52:55.999Z</time></trkpt><trkpt lat="41.68915280620914" lon="13.151995336914936"><ele>175.66666666666669</ele><time>2026-05-01T08:52:56.999Z</time></trkpt><trkpt lat="41.689209612510915" lon="13.152202696949562"><ele>176.33333333333334</ele><time>2026-05-01T08:52:57.999Z</time></trkpt><trkpt lat="41.6892845732564" lon="13.152394994479272"><ele>177.0</ele><time>2026-05-01T08:52:58.999Z</time></trkpt><trkpt lat="41.689328866347964" lon="13.152598562309633"><ele>177.0</ele><time>2026-05-01T08:52:59.999Z</time></trkpt><trkpt lat="41.689353976991384" lon="13.152791136941723"><ele>177.0</ele><time>2026-05-01T08:53:00.999Z</time></trkpt><trkpt lat="41.68934124931398" lon="13.152978998583748"><ele>177.0</ele><time>2026-05-01T08:53:01.999Z</time></trkpt><trkpt lat="41.68929026948116" lon="13.153165613680995"><ele>177.0</ele><time>2026-05-01T08:53:02.999Z</time></trkpt><trkpt lat="41.68921688370549" lon="13.153352205406318"><ele>177.33333333333334</ele><time>2026-05-01T08:53:03.999Z</time></trkpt><trkpt lat="41.68912696950427" lon="13.153529507793989"><ele>177.66666666666669</ele><time>2026-05-01T08:53:04.999Z</time></trkpt><trkpt lat="41.689006100715886" lon="13.153676156378253"><ele>178.0</ele><time>2026-05-01T08:53:05.999Z</time></trkpt><trkpt lat="41.68890441470926" lon="13.15385438817559"><ele>178.0</ele><time>2026-05-01T08:53:06.999Z</time></trkpt><trkpt lat="41.688775534089544" lon="13.153999980313763"><ele>178.0</ele><time>2026-05-01T08:53:07.999Z</time></trkpt><trkpt lat="41.6886347616596" lon="13.15413996918972"><ele>178.0</ele><time>2026-05-01T08:53:08.999Z</time></trkpt><trkpt lat="41.68848454003185" lon="13.154266657126843"><ele>176.33333333333334</ele><time>2026-05-01T08:53:09.999Z</time></trkpt><trkpt lat="41.688320229100924" lon="13.154366278039191"><ele>174.66666666666666</ele><time>2026-05-01T08:53:10.999Z</time></trkpt><trkpt lat="41.68816086626621" lon="13.154480856512002"><ele>173.0</ele><time>2026-05-01T08:53:11.999Z</time></trkpt><trkpt lat="41.68800167124683" lon="13.154594707904469"><ele>173.0</ele><time>2026-05-01T08:53:12.999Z</time></trkpt><trkpt lat="41.68785911607844" lon="13.154715349336115"><ele>173.0</ele><time>2026-05-01T08:53:13.999Z</time></trkpt><trkpt lat="41.68772056557821" lon="13.154810408914397"><ele>173.0</ele><time>2026-05-01T08:53:14.999Z</time></trkpt><trkpt lat="41.687578078106895" lon="13.154886028985958"><ele>175.33333333333331</ele><time>2026-05-01T08:53:15.999Z</time></trkpt><trkpt lat="41.68743581578121" lon="13.154993510282326"><ele>177.66666666666666</ele><time>2026-05-01T08:53:16.999Z</time></trkpt><trkpt lat="41.68729470965615" lon="13.155117862831663"><ele>180.0</ele><time>2026-05-01T08:53:17.999Z</time></trkpt><trkpt lat="41.687173037545506" lon="13.155281270490082"><ele>180.0</ele><time>2026-05-01T08:53:18.999Z</time></trkpt><trkpt lat="41.68704969002105" lon="13.155446931600482"><ele>180.0</ele><time>2026-05-01T08:53:19.999Z</time></trkpt><trkpt lat="41.686934436912026" lon="13.155625306881177"><ele>180.0</ele><time>2026-05-01T08:53:20.999Z</time></trkpt><trkpt lat="41.68680258870505" lon="13.155759860757398"><ele>179.33333333333334</ele><time>2026-05-01T08:53:21.999Z</time></trkpt><trkpt lat="41.68670180373478" lon="13.155925105809072"><ele>178.66666666666669</ele><time>2026-05-01T08:53:22.999Z</time></trkpt><trkpt lat="41.68661536377604" lon="13.156099087703991"><ele>178.0</ele><time>2026-05-01T08:53:23.999Z</time></trkpt><trkpt lat="41.68653411108422" lon="13.156281581536108"><ele>178.0</ele><time>2026-05-01T08:53:24.999Z</time></trkpt><trkpt lat="41.68645025402791" lon="13.156466694406694"><ele>178.0</ele><time>2026-05-01T08:53:25.999Z</time></trkpt><trkpt lat="41.686370789087434" lon="13.156652604953331"><ele>178.0</ele><time>2026-05-01T08:53:26.999Z</time></trkpt><trkpt lat="41.68629506188786" lon="13.15684721267462"><ele>178.33333333333334</ele><time>2026-05-01T08:53:27.999Z</time></trkpt><trkpt lat="41.68622120124201" lon="13.157046992814495"><ele>178.66666666666666</ele><time>2026-05-01T08:53:28.999Z</time></trkpt><trkpt lat="41.68613041039476" lon="13.157236607894179"><ele>179.0</ele><time>2026-05-01T08:53:29.999Z</time></trkpt><trkpt lat="41.686045052648794" lon="13.157431011491857"><ele>179.0</ele><time>2026-05-01T08:53:30.999Z</time></trkpt><trkpt lat="41.68595021064295" lon="13.157615048787997"><ele>179.0</ele><time>2026-05-01T08:53:31.999Z</time></trkpt><trkpt lat="41.68584668513189" lon="13.15778851486145"><ele>179.0</ele><time>2026-05-01T08:53:32.999Z</time></trkpt><trkpt lat="41.6857319097864" lon="13.157951023705143"><ele>179.0</ele><time>2026-05-01T08:53:33.999Z</time></trkpt><trkpt lat="41.68560603739938" lon="13.158096927312371"><ele>179.0</ele><time>2026-05-01T08:53:34.999Z</time></trkpt><trkpt lat="41.68547065860285" lon="13.158223514790087"><ele>179.0</ele><time>2026-05-01T08:53:35.999Z</time></trkpt><trkpt lat="41.68532664446264" lon="13.158325452680604"><ele>178.66666666666666</ele><time>2026-05-01T08:53:36.999Z</time></trkpt><trkpt lat="41.68517450195433" lon="13.158413279644401"><ele>178.33333333333334</ele><time>2026-05-01T08:53:37.999Z</time></trkpt><trkpt lat="41.685021165585425" lon="13.158502654505156"><ele>178.0</ele><time>2026-05-01T08:53:38.999Z</time></trkpt><trkpt lat="41.68484897814274" lon="13.158521790955517"><ele>178.0</ele><time>2026-05-01T08:53:39.999Z</time></trkpt><trkpt lat="41.684677569133676" lon="13.15854581327194"><ele>178.0</ele><time>2026-05-01T08:53:40.999Z</time></trkpt><trkpt lat="41.68450947316011" lon="13.158549896746113"><ele>178.0</ele><time>2026-05-01T08:53:41.999Z</time></trkpt><trkpt lat="41.68434102777656" lon="13.15856661018665"><ele>177.66666666666669</ele><time>2026-05-01T08:53:43Z</time></trkpt><trkpt lat="41.684183743341535" lon="13.158554238083683"><ele>177.33333333333334</ele><time>2026-05-01T08:53:44Z</time></trkpt><trkpt lat="41.684029021041795" lon="13.158551434340655"><ele>177.0</ele><time>2026-05-01T08:53:45Z</time></trkpt><trkpt lat="41.68387058262249" lon="13.158570355326997"><ele>177.0</ele><time>2026-05-01T08:53:46Z</time></trkpt><trkpt lat="41.68371091532622" lon="13.158608322068131"><ele>177.0</ele><time>2026-05-01T08:53:47Z</time></trkpt><trkpt lat="41.683554210479876" lon="13.15866875905677"><ele>177.0</ele><time>2026-05-01T08:53:48Z</time></trkpt><trkpt lat="41.683400636658064" lon="13.158749475020112"><ele>178.66666666666666</ele><time>2026-05-01T08:53:49Z</time></trkpt><trkpt lat="41.68324971058465" lon="13.158858076887482"><ele>180.33333333333331</ele><time>2026-05-01T08:53:50Z</time></trkpt><trkpt lat="41.68310695576255" lon="13.15897786752111"><ele>182.0</ele><time>2026-05-01T08:53:51Z</time></trkpt><trkpt lat="41.68298066542687" lon="13.159095280375688"><ele>182.0</ele><time>2026-05-01T08:53:52Z</time></trkpt><trkpt lat="41.68287328684226" lon="13.159209747727292"><ele>182.0</ele><time>2026-05-01T08:53:53Z</time></trkpt><trkpt lat="41.68279173424657" lon="13.159311246923597"><ele>182.0</ele><time>2026-05-01T08:53:54Z</time></trkpt><trkpt lat="41.68271929487834" lon="13.159407956278264"><ele>182.0</ele><time>2026-05-01T08:53:55Z</time></trkpt><trkpt lat="41.68265045300039" lon="13.159516940450871"><ele>181.0</ele><time>2026-05-01T08:53:56Z</time></trkpt><trkpt lat="41.68257021853803" lon="13.159637898618138"><ele>180.0</ele><time>2026-05-01T08:53:57Z</time></trkpt><trkpt lat="41.68248971764802" lon="13.159757303504309"><ele>179.0</ele><time>2026-05-01T08:53:58Z</time></trkpt><trkpt lat="41.68240821530382" lon="13.159852560386751"><ele>178.0</ele><time>2026-05-01T08:53:59Z</time></trkpt><trkpt lat="41.6823445772869" lon="13.159954660809687"><ele>177.0</ele><time>2026-05-01T08:54:00Z</time></trkpt><trkpt lat="41.6822895710903" lon="13.16005613153408"><ele>177.0</ele><time>2026-05-01T08:54:01Z</time></trkpt><trkpt lat="41.682250185712775" lon="13.160169403218106"><ele>177.0</ele><time>2026-05-01T08:54:02Z</time></trkpt><trkpt lat="41.68219422024663" lon="13.160273689347996"><ele>177.0</ele><time>2026-05-01T08:54:03Z</time></trkpt><trkpt lat="41.682131620602604" lon="13.160373531677752"><ele>177.0</ele><time>2026-05-01T08:54:04Z</time></trkpt><trkpt lat="41.68206576597123" lon="13.16046923792918"><ele>177.0</ele><time>2026-05-01T08:54:05Z</time></trkpt><trkpt lat="41.68200062917522" lon="13.160556866134153"><ele>175.83333333333334</ele><time>2026-05-01T08:54:06Z</time></trkpt><trkpt lat="41.68192432072345" lon="13.160619915058124"><ele>174.66666666666666</ele><time>2026-05-01T08:54:07Z</time></trkpt><trkpt lat="41.68186114745015" lon="13.160695296239032"><ele>173.5</ele><time>2026-05-01T08:54:08Z</time></trkpt><trkpt lat="41.68179726749316" lon="13.160774894624584"><ele>172.33333333333331</ele><time>2026-05-01T08:54:09Z</time></trkpt><trkpt lat="41.68174500134883" lon="13.160872290792529"><ele>171.16666666666666</ele><time>2026-05-01T08:54:10Z</time></trkpt><trkpt lat="41.6816835098769" lon="13.160960576712029"><ele>170.0</ele><time>2026-05-01T08:54:11Z</time></trkpt><trkpt lat="41.68162188639357" lon="13.16105535040956"><ele>170.0</ele><time>2026-05-01T08:54:12Z</time></trkpt><trkpt lat="41.681554487624574" lon="13.161160555921064"><ele>170.0</ele><time>2026-05-01T08:54:13Z</time></trkpt><trkpt lat="41.68148077825452" lon="13.161274503605224"><ele>170.0</ele><time>2026-05-01T08:54:14Z</time></trkpt><trkpt lat="41.681404915847374" lon="13.161390143950715"><ele>170.0</ele><time>2026-05-01T08:54:15Z</time></trkpt><trkpt lat="41.68132777517451" lon="13.16151052709117"><ele>168.75</ele><time>2026-05-01T08:54:16Z</time></trkpt><trkpt lat="41.6812371724118" lon="13.161622211574862"><ele>167.5</ele><time>2026-05-01T08:54:17Z</time></trkpt><trkpt lat="41.68115595673626" lon="13.16174880882678"><ele>166.25</ele><time>2026-05-01T08:54:18Z</time></trkpt><trkpt lat="41.681072342585544" lon="13.16188034072154"><ele>165.0</ele><time>2026-05-01T08:54:19Z</time></trkpt><trkpt lat="41.68098968705377" lon="13.162013164852244"><ele>165.0</ele><time>2026-05-01T08:54:20Z</time></trkpt><trkpt lat="41.68091752897482" lon="13.16215999243913"><ele>165.0</ele><time>2026-05-01T08:54:21Z</time></trkpt><trkpt lat="41.6808332904208" lon="13.162295294577348"><ele>165.0</ele><time>2026-05-01T08:54:22Z</time></trkpt><trkpt lat="41.680751190803214" lon="13.16243689685419"><ele>165.0</ele><time>2026-05-01T08:54:23Z</time></trkpt><trkpt lat="41.68066944172518" lon="13.162583838334102"><ele>167.25</ele><time>2026-05-01T08:54:24Z</time></trkpt><trkpt lat="41.6805880486378" lon="13.162732768904409"><ele>169.5</ele><time>2026-05-01T08:54:25Z</time></trkpt><trkpt lat="41.680507293531434" lon="13.162878492460088"><ele>171.75</ele><time>2026-05-01T08:54:26Z</time></trkpt><trkpt lat="41.680430005806485" lon="13.163014282376277"><ele>174.0</ele><time>2026-05-01T08:54:27Z</time></trkpt><trkpt lat="41.680359383903195" lon="13.1631407819753"><ele>172.79999999999998</ele><time>2026-05-01T08:54:28Z</time></trkpt><trkpt lat="41.68029146791133" lon="13.163265108458903"><ele>171.6</ele><time>2026-05-01T08:54:29Z</time></trkpt><trkpt lat="41.68022110521244" lon="13.163379532011442"><ele>170.4</ele><time>2026-05-01T08:54:30Z</time></trkpt><trkpt lat="41.68013930780208" lon="13.163477528591725"><ele>169.2</ele><time>2026-05-01T08:54:31Z</time></trkpt><trkpt lat="41.680050827809154" lon="13.163561170587826"><ele>168.0</ele><time>2026-05-01T08:54:32Z</time></trkpt><trkpt lat="41.67995918817768" lon="13.163638189424583"><ele>168.0</ele><time>2026-05-01T08:54:33Z</time></trkpt><trkpt lat="41.67985921737433" lon="13.163699312927871"><ele>168.0</ele><time>2026-05-01T08:54:34Z</time></trkpt><trkpt lat="41.67979174484986" lon="13.163812146940078"><ele>168.0</ele><time>2026-05-01T08:54:35Z</time></trkpt><trkpt lat="41.67971566518745" lon="13.163913808485507"><ele>168.0</ele><time>2026-05-01T08:54:36Z</time></trkpt><trkpt lat="41.67964277385933" lon="13.164023126769235"><ele>168.0</ele><time>2026-05-01T08:54:37Z</time></trkpt><trkpt lat="41.67957145123904" lon="13.164134687909845"><ele>167.25</ele><time>2026-05-01T08:54:38Z</time></trkpt><trkpt lat="41.67949857969651" lon="13.164248311392885"><ele>166.5</ele><time>2026-05-01T08:54:39Z</time></trkpt><trkpt lat="41.67942670805572" lon="13.164365406920567"><ele>165.75</ele><time>2026-05-01T08:54:40Z</time></trkpt><trkpt lat="41.6793569380389" lon="13.164483999101797"><ele>165.0</ele><time>2026-05-01T08:54:41Z</time></trkpt><trkpt lat="41.67929242005219" lon="13.1646071722796"><ele>165.0</ele><time>2026-05-01T08:54:42Z</time></trkpt><trkpt lat="41.679237339785416" lon="13.16474554629466"><ele>165.0</ele><time>2026-05-01T08:54:42.999Z</time></trkpt><trkpt lat="41.679184911290896" lon="13.164892428424123"><ele>165.0</ele><time>2026-05-01T08:54:43.999Z</time></trkpt><trkpt lat="41.67913193681862" lon="13.165047560117234"><ele>165.0</ele><time>2026-05-01T08:54:44.999Z</time></trkpt><trkpt lat="41.679076912829295" lon="13.165203836373633"><ele>166.25</ele><time>2026-05-01T08:54:45.999Z</time></trkpt><trkpt lat="41.67902167419829" lon="13.165357522791291"><ele>167.5</ele><time>2026-05-01T08:54:46.999Z</time></trkpt><trkpt lat="41.678966138106695" lon="13.165508102539151"><ele>168.75</ele><time>2026-05-01T08:54:47.999Z</time></trkpt><trkpt lat="41.6789089450158" lon="13.165663516398523"><ele>170.0</ele><time>2026-05-01T08:54:48.999Z</time></trkpt><trkpt lat="41.67885189216404" lon="13.165827407493538"><ele>172.25</ele><time>2026-05-01T08:54:49.999Z</time></trkpt><trkpt lat="41.67880162033327" lon="13.16599256940575"><ele>174.5</ele><time>2026-05-01T08:54:50.999Z</time></trkpt><trkpt lat="41.67875980955232" lon="13.166158234010481"><ele>176.75</ele><time>2026-05-01T08:54:51.999Z</time></trkpt><trkpt lat="41.67871351975506" lon="13.166319614580146"><ele>179.0</ele><time>2026-05-01T08:54:52.999Z</time></trkpt><trkpt lat="41.67864145279406" lon="13.166468946170049"><ele>177.25</ele><time>2026-05-01T08:54:53.999Z</time></trkpt><trkpt lat="41.67857463837635" lon="13.166630875636258"><ele>175.5</ele><time>2026-05-01T08:54:54.999Z</time></trkpt><trkpt lat="41.67852081600655" lon="13.166799795172036"><ele>173.75</ele><time>2026-05-01T08:54:55.999Z</time></trkpt><trkpt lat="41.6784578142388" lon="13.166961428717839"><ele>172.0</ele><time>2026-05-01T08:54:56.999Z</time></trkpt><trkpt lat="41.67839541895887" lon="13.16712748950868"><ele>172.0</ele><time>2026-05-01T08:54:57.999Z</time></trkpt><trkpt lat="41.67833800862643" lon="13.167293062078897"><ele>172.0</ele><time>2026-05-01T08:54:58.999Z</time></trkpt><trkpt lat="41.678285202293054" lon="13.167452536834906"><ele>172.0</ele><time>2026-05-01T08:54:59.999Z</time></trkpt><trkpt lat="41.678232601284236" lon="13.1676073025774"><ele>172.0</ele><time>2026-05-01T08:55:00.999Z</time></trkpt><trkpt lat="41.678181083122816" lon="13.16775979013694"><ele>172.75</ele><time>2026-05-01T08:55:01.999Z</time></trkpt><trkpt lat="41.67812809979607" lon="13.167913385527601"><ele>173.5</ele><time>2026-05-01T08:55:02.999Z</time></trkpt><trkpt lat="41.67806671633354" lon="13.168073694566724"><ele>174.25</ele><time>2026-05-01T08:55:03.999Z</time></trkpt><trkpt lat="41.67799424092686" lon="13.168229420479616"><ele>175.0</ele><time>2026-05-01T08:55:04.999Z</time></trkpt><trkpt lat="41.67789979188462" lon="13.168361214873856"><ele>176.75</ele><time>2026-05-01T08:55:05.999Z</time></trkpt><trkpt lat="41.677826973288866" lon="13.168508849153591"><ele>178.5</ele><time>2026-05-01T08:55:06.999Z</time></trkpt><trkpt lat="41.67774566973009" lon="13.16864336701164"><ele>180.25</ele><time>2026-05-01T08:55:07.999Z</time></trkpt><trkpt lat="41.67766683273386" lon="13.168777111654697"><ele>182.0</ele><time>2026-05-01T08:55:08.999Z</time></trkpt><trkpt lat="41.67757601231577" lon="13.168897986193638"><ele>179.75</ele><time>2026-05-01T08:55:09.999Z</time></trkpt><trkpt lat="41.677516630262915" lon="13.169050597186535"><ele>177.5</ele><time>2026-05-01T08:55:10.999Z</time></trkpt><trkpt lat="41.67744752820844" lon="13.169194087006199"><ele>175.25</ele><time>2026-05-01T08:55:11.999Z</time></trkpt><trkpt lat="41.677380001246256" lon="13.169339575478936"><ele>173.0</ele><time>2026-05-01T08:55:12.999Z</time></trkpt><trkpt lat="41.67730668263861" lon="13.169482272221108"><ele>173.0</ele><time>2026-05-01T08:55:13.999Z</time></trkpt><trkpt lat="41.677227888361415" lon="13.169624192477496"><ele>173.0</ele><time>2026-05-01T08:55:14.999Z</time></trkpt><trkpt lat="41.67714724064532" lon="13.1697721590905"><ele>173.0</ele><time>2026-05-01T08:55:15.999Z</time></trkpt><trkpt lat="41.67707143483752" lon="13.169935701840474"><ele>173.0</ele><time>2026-05-01T08:55:16.999Z</time></trkpt><trkpt lat="41.67700518405136" lon="13.170108818885751"><ele>171.5</ele><time>2026-05-01T08:55:17.999Z</time></trkpt><trkpt lat="41.6769465044046" lon="13.170291134810281"><ele>170.0</ele><time>2026-05-01T08:55:18.999Z</time></trkpt><trkpt lat="41.676890485180095" lon="13.17047072175225"><ele>168.5</ele><time>2026-05-01T08:55:19.999Z</time></trkpt><trkpt lat="41.6768371680252" lon="13.17065016982373"><ele>167.0</ele><time>2026-05-01T08:55:20.999Z</time></trkpt><trkpt lat="41.676792702320746" lon="13.170819424415582"><ele>167.0</ele><time>2026-05-01T08:55:21.999Z</time></trkpt><trkpt lat="41.676749691414656" lon="13.170979532519736"><ele>167.0</ele><time>2026-05-01T08:55:22.999Z</time></trkpt><trkpt lat="41.6766951242998" lon="13.171142649249255"><ele>167.0</ele><time>2026-05-01T08:55:23.999Z</time></trkpt><trkpt lat="41.67663857613085" lon="13.171315930958738"><ele>167.0</ele><time>2026-05-01T08:55:24.999Z</time></trkpt><trkpt lat="41.67655086909853" lon="13.17146818226841"><ele>169.25</ele><time>2026-05-01T08:55:25.999Z</time></trkpt><trkpt lat="41.67647074690633" lon="13.171631802045184"><ele>171.5</ele><time>2026-05-01T08:55:26.999Z</time></trkpt><trkpt lat="41.67638954785265" lon="13.171791895411317"><ele>173.75</ele><time>2026-05-01T08:55:27.999Z</time></trkpt><trkpt lat="41.67630717481517" lon="13.171950302645818"><ele>176.0</ele><time>2026-05-01T08:55:28.999Z</time></trkpt><trkpt lat="41.67623530340368" lon="13.172119028809083"><ele>176.0</ele><time>2026-05-01T08:55:29.999Z</time></trkpt><trkpt lat="41.67614556700214" lon="13.172270000437639"><ele>176.0</ele><time>2026-05-01T08:55:30.999Z</time></trkpt><trkpt lat="41.67605500618002" lon="13.172422088988318"><ele>176.0</ele><time>2026-05-01T08:55:31.999Z</time></trkpt><trkpt lat="41.67596061634487" lon="13.172567386082385"><ele>176.0</ele><time>2026-05-01T08:55:32.999Z</time></trkpt><trkpt lat="41.67586125514751" lon="13.17270731070489"><ele>173.0</ele><time>2026-05-01T08:55:33.999Z</time></trkpt><trkpt lat="41.675759928358865" lon="13.172846026208344"><ele>170.0</ele><time>2026-05-01T08:55:34.999Z</time></trkpt><trkpt lat="41.67565129700744" lon="13.172996587859384"><ele>167.0</ele><time>2026-05-01T08:55:35.999Z</time></trkpt><trkpt lat="41.675535043188766" lon="13.173154662221583"><ele>165.5</ele><time>2026-05-01T08:55:36.999Z</time></trkpt><trkpt lat="41.67543504220767" lon="13.173295519745972"><ele>164.0</ele><time>2026-05-01T08:55:37.999Z</time></trkpt><trkpt lat="41.67535265711632" lon="13.1734229624255"><ele>162.5</ele><time>2026-05-01T08:55:38.999Z</time></trkpt><trkpt lat="41.67527656483218" lon="13.173547779370905"><ele>161.0</ele><time>2026-05-01T08:55:39.999Z</time></trkpt><trkpt lat="41.67520608667091" lon="13.173666545128414"><ele>161.0</ele><time>2026-05-01T08:55:40.999Z</time></trkpt><trkpt lat="41.6751412652904" lon="13.173775890258316"><ele>161.0</ele><time>2026-05-01T08:55:41.999Z</time></trkpt><trkpt lat="41.67507438388899" lon="13.17388691769239"><ele>161.0</ele><time>2026-05-01T08:55:42.999Z</time></trkpt><trkpt lat="41.674995312091745" lon="13.174025492802944"><ele>161.0</ele><time>2026-05-01T08:55:43.999Z</time></trkpt><trkpt lat="41.67491023972978" lon="13.174185259091852"><ele>165.66666666666666</ele><time>2026-05-01T08:55:44.999Z</time></trkpt><trkpt lat="41.67482640911603" lon="13.174350900539599"><ele>170.33333333333334</ele><time>2026-05-01T08:55:45.999Z</time></trkpt><trkpt lat="41.67473925568087" lon="13.17452122510113"><ele>175.0</ele><time>2026-05-01T08:55:46.999Z</time></trkpt><trkpt lat="41.67465111805079" lon="13.174696474044111"><ele>171.66666666666669</ele><time>2026-05-01T08:55:47.998Z</time></trkpt><trkpt lat="41.674560543661826" lon="13.174873075320786"><ele>168.33333333333334</ele><time>2026-05-01T08:55:49Z</time></trkpt><trkpt lat="41.67447244604121" lon="13.17505013249695"><ele>165.0</ele><time>2026-05-01T08:55:50Z</time></trkpt><trkpt lat="41.67438621217107" lon="13.175236609205422"><ele>165.0</ele><time>2026-05-01T08:55:51Z</time></trkpt><trkpt lat="41.6743010089606" lon="13.17543891321331"><ele>165.0</ele><time>2026-05-01T08:55:52Z</time></trkpt><trkpt lat="41.67421891321995" lon="13.175649759657198"><ele>165.0</ele><time>2026-05-01T08:55:53Z</time></trkpt><trkpt lat="41.67413640631701" lon="13.175870089108658"><ele>168.0</ele><time>2026-05-01T08:55:54Z</time></trkpt><trkpt lat="41.674059862759236" lon="13.17609557019654"><ele>171.0</ele><time>2026-05-01T08:55:55Z</time></trkpt><trkpt lat="41.6739948372738" lon="13.176303575223342"><ele>174.0</ele><time>2026-05-01T08:55:56Z</time></trkpt><trkpt lat="41.67394356555111" lon="13.176509967542103"><ele>176.33333333333334</ele><time>2026-05-01T08:55:57Z</time></trkpt><trkpt lat="41.67390279968472" lon="13.176719243020548"><ele>178.66666666666669</ele><time>2026-05-01T08:55:58Z</time></trkpt><trkpt lat="41.67387922755742" lon="13.176946266837437"><ele>181.0</ele><time>2026-05-01T08:55:59Z</time></trkpt><trkpt lat="41.673881108951015" lon="13.177181937110365"><ele>181.66666666666669</ele><time>2026-05-01T08:56:00Z</time></trkpt><trkpt lat="41.6739002715917" lon="13.17742817848333"><ele>182.33333333333334</ele><time>2026-05-01T08:56:01Z</time></trkpt><trkpt lat="41.67391336439605" lon="13.17767377348662"><ele>183.0</ele><time>2026-05-01T08:56:02Z</time></trkpt><trkpt lat="41.673919193916646" lon="13.177924229640531"><ele>183.33333333333334</ele><time>2026-05-01T08:56:03Z</time></trkpt><trkpt lat="41.673911356508" lon="13.178188545854427"><ele>183.66666666666669</ele><time>2026-05-01T08:56:04Z</time></trkpt><trkpt lat="41.6738976837379" lon="13.178457133059187"><ele>184.0</ele><time>2026-05-01T08:56:05Z</time></trkpt><trkpt lat="41.673878411705424" lon="13.178725236053582"><ele>184.0</ele><time>2026-05-01T08:56:06Z</time></trkpt><trkpt lat="41.6738517960964" lon="13.178998922851283"><ele>184.0</ele><time>2026-05-01T08:56:07Z</time></trkpt><trkpt lat="41.67382303449811" lon="13.179274128666925"><ele>184.0</ele><time>2026-05-01T08:56:08Z</time></trkpt><trkpt lat="41.67378952557764" lon="13.179548283782417"><ele>185.0</ele><time>2026-05-01T08:56:09Z</time></trkpt><trkpt lat="41.673757143716514" lon="13.179819264043903"><ele>186.0</ele><time>2026-05-01T08:56:10Z</time></trkpt><trkpt lat="41.67372593298561" lon="13.180085817972227"><ele>187.0</ele><time>2026-05-01T08:56:11Z</time></trkpt><trkpt lat="41.6736916469383" lon="13.180349873860365"><ele>189.33333333333334</ele><time>2026-05-01T08:56:12Z</time></trkpt><trkpt lat="41.67366086824013" lon="13.180608980481852"><ele>191.66666666666669</ele><time>2026-05-01T08:56:13Z</time></trkpt><trkpt lat="41.67362748917962" lon="13.180860997174252"><ele>194.0</ele><time>2026-05-01T08:56:14Z</time></trkpt><trkpt lat="41.67359576325241" lon="13.181121116773257"><ele>183.66666666666669</ele><time>2026-05-01T08:56:15Z</time></trkpt><trkpt lat="41.673560798389744" lon="13.181384821254278"><ele>173.33333333333334</ele><time>2026-05-01T08:56:16Z</time></trkpt><trkpt lat="41.67351877006116" lon="13.181648150529519"><ele>163.0</ele><time>2026-05-01T08:56:17Z</time></trkpt><trkpt lat="41.673461603985544" lon="13.181909020400708"><ele>163.0</ele><time>2026-05-01T08:56:18Z</time></trkpt><trkpt lat="41.67338715137975" lon="13.182172265112312"><ele>163.0</ele><time>2026-05-01T08:56:19Z</time></trkpt><trkpt lat="41.673277562563946" lon="13.18247636215045"><ele>164.5</ele><time>2026-05-01T08:56:20Z</time></trkpt><trkpt lat="41.67312393086819" lon="13.182751939585087"><ele>166.0</ele><time>2026-05-01T08:56:21Z</time></trkpt><trkpt lat="41.67296669350266" lon="13.183018293655255"><ele>166.0</ele><time>2026-05-01T08:56:22Z</time></trkpt><trkpt lat="41.672861998332124" lon="13.18318119863505"><ele>166.0</ele><time>2026-05-01T08:56:23Z</time></trkpt><trkpt lat="41.672722064324816" lon="13.183388474458885"><ele>166.0</ele><time>2026-05-01T08:56:24Z</time></trkpt><trkpt lat="41.67257475719922" lon="13.183595757632297"><ele>167.0</ele><time>2026-05-01T08:56:25Z</time></trkpt><trkpt lat="41.672420537532936" lon="13.183810977497338"><ele>168.0</ele><time>2026-05-01T08:56:26Z</time></trkpt><trkpt lat="41.67225902741632" lon="13.184036371234289"><ele>168.0</ele><time>2026-05-01T08:56:27Z</time></trkpt><trkpt lat="41.67208900080891" lon="13.184273358883033"><ele>168.0</ele><time>2026-05-01T08:56:28Z</time></trkpt><trkpt lat="41.67191049226551" lon="13.184522046277344"><ele>165.0</ele><time>2026-05-01T08:56:29Z</time></trkpt><trkpt lat="41.67172664911125" lon="13.184778165619523"><ele>162.0</ele><time>2026-05-01T08:56:30Z</time></trkpt><trkpt lat="41.67155490712282" lon="13.185055559220634"><ele>162.0</ele><time>2026-05-01T08:56:31Z</time></trkpt><trkpt lat="41.671378911754765" lon="13.185303844269589"><ele>162.0</ele><time>2026-05-01T08:56:32Z</time></trkpt><trkpt lat="41.671201841046894" lon="13.185553237405284"><ele>161.0</ele><time>2026-05-01T08:56:33Z</time></trkpt><trkpt lat="41.67102275799111" lon="13.185802089003625"><ele>160.0</ele><time>2026-05-01T08:56:34Z</time></trkpt><trkpt lat="41.67084146640685" lon="13.186018027613605"><ele>160.0</ele><time>2026-05-01T08:56:35Z</time></trkpt><trkpt lat="41.6706887128797" lon="13.186233542046452"><ele>160.0</ele><time>2026-05-01T08:56:36Z</time></trkpt><trkpt lat="41.670539736253396" lon="13.186443727877483"><ele>160.0</ele><time>2026-05-01T08:56:37Z</time></trkpt><trkpt lat="41.67038871304988" lon="13.186657037395225"><ele>160.5</ele><time>2026-05-01T08:56:38Z</time></trkpt><trkpt lat="41.670244141094116" lon="13.18689297204756"><ele>161.0</ele><time>2026-05-01T08:56:39Z</time></trkpt><trkpt lat="41.670081085106126" lon="13.187121200729603"><ele>162.0</ele><time>2026-05-01T08:56:40Z</time></trkpt><trkpt lat="41.66991457026519" lon="13.187355668355055"><ele>163.0</ele><time>2026-05-01T08:56:41Z</time></trkpt><trkpt lat="41.669747862654745" lon="13.187596067491652"><ele>163.0</ele><time>2026-05-01T08:56:42Z</time></trkpt><trkpt lat="41.66958174379661" lon="13.18784036837909"><ele>163.0</ele><time>2026-05-01T08:56:43Z</time></trkpt><trkpt lat="41.669415455328554" lon="13.188085987489979"><ele>163.0</ele><time>2026-05-01T08:56:44Z</time></trkpt><trkpt lat="41.66924963801189" lon="13.188332580490032"><ele>163.0</ele><time>2026-05-01T08:56:45Z</time></trkpt><trkpt lat="41.66908897684271" lon="13.18857953328007"><ele>163.0</ele><time>2026-05-01T08:56:46Z</time></trkpt><trkpt lat="41.66891401534078" lon="13.18883511553093"><ele>163.0</ele><time>2026-05-01T08:56:46.999Z</time></trkpt><trkpt lat="41.66874534472927" lon="13.18908868690345"><ele>162.0</ele><time>2026-05-01T08:56:47.999Z</time></trkpt><trkpt lat="41.66858408851115" lon="13.189335155725876"><ele>161.0</ele><time>2026-05-01T08:56:48.999Z</time></trkpt><trkpt lat="41.66843436296547" lon="13.189568480250134"><ele>161.0</ele><time>2026-05-01T08:56:49.999Z</time></trkpt><trkpt lat="41.66828692653129" lon="13.189798237187045"><ele>161.0</ele><time>2026-05-01T08:56:50.999Z</time></trkpt><trkpt lat="41.66814161021091" lon="13.190032563757851"><ele>161.5</ele><time>2026-05-01T08:56:51.999Z</time></trkpt><trkpt lat="41.66800104556619" lon="13.190270492457813"><ele>162.0</ele><time>2026-05-01T08:56:52.999Z</time></trkpt><trkpt lat="41.66786772273993" lon="13.190516467624569"><ele>162.0</ele><time>2026-05-01T08:56:53.999Z</time></trkpt><trkpt lat="41.667749743192445" lon="13.190773394252446"><ele>162.0</ele><time>2026-05-01T08:56:54.999Z</time></trkpt><trkpt lat="41.66765526808051" lon="13.191043095132088"><ele>162.0</ele><time>2026-05-01T08:56:55.999Z</time></trkpt><trkpt lat="41.66757826023087" lon="13.191324825330542"><ele>161.0</ele><time>2026-05-01T08:56:56.999Z</time></trkpt><trkpt lat="41.66751385691965" lon="13.191618609163262"><ele>160.0</ele><time>2026-05-01T08:56:57.999Z</time></trkpt><trkpt lat="41.66747030074259" lon="13.191923823913191"><ele>160.0</ele><time>2026-05-01T08:56:58.999Z</time></trkpt><trkpt lat="41.66744295034471" lon="13.19223384817205"><ele>160.0</ele><time>2026-05-01T08:56:59.999Z</time></trkpt><trkpt lat="41.66742355682154" lon="13.192534381918396"><ele>160.0</ele><time>2026-05-01T08:57:00.999Z</time></trkpt><trkpt lat="41.66738771199598" lon="13.192825154579362"><ele>160.0</ele><time>2026-05-01T08:57:01.999Z</time></trkpt><trkpt lat="41.66738921485753" lon="13.193108378689505"><ele>160.0</ele><time>2026-05-01T08:57:02.999Z</time></trkpt><trkpt lat="41.66739603997834" lon="13.193377997061626"><ele>160.66666666666669</ele><time>2026-05-01T08:57:03.999Z</time></trkpt><trkpt lat="41.66736537059624" lon="13.19364097071875"><ele>161.33333333333334</ele><time>2026-05-01T08:57:04.999Z</time></trkpt><trkpt lat="41.667307151137805" lon="13.193877814660881"><ele>162.0</ele><time>2026-05-01T08:57:05.999Z</time></trkpt><trkpt lat="41.667269015434606" lon="13.194106695133165"><ele>163.33333333333334</ele><time>2026-05-01T08:57:06.999Z</time></trkpt><trkpt lat="41.667258089765085" lon="13.194332423798704"><ele>164.66666666666669</ele><time>2026-05-01T08:57:07.999Z</time></trkpt><trkpt lat="41.6672911459954" lon="13.19455239505069"><ele>166.0</ele><time>2026-05-01T08:57:08.999Z</time></trkpt><trkpt lat="41.667339499684076" lon="13.194789334504017"><ele>166.33333333333334</ele><time>2026-05-01T08:57:09.999Z</time></trkpt><trkpt lat="41.66737981771703" lon="13.195049853578515"><ele>166.66666666666666</ele><time>2026-05-01T08:57:10.999Z</time></trkpt><trkpt lat="41.66743324026731" lon="13.19531695035658"><ele>167.0</ele><time>2026-05-01T08:57:11.999Z</time></trkpt><trkpt lat="41.667490329789686" lon="13.195586944850117"><ele>166.33333333333331</ele><time>2026-05-01T08:57:12.999Z</time></trkpt><trkpt lat="41.66761084775848" lon="13.195836543110264"><ele>165.66666666666666</ele><time>2026-05-01T08:57:13.999Z</time></trkpt><trkpt lat="41.66767062903612" lon="13.196111222458311"><ele>165.0</ele><time>2026-05-01T08:57:14.999Z</time></trkpt><trkpt lat="41.66772697905418" lon="13.196386896315294"><ele>173.0</ele><time>2026-05-01T08:57:15.999Z</time></trkpt><trkpt lat="41.667784775904735" lon="13.196645310790563"><ele>181.0</ele><time>2026-05-01T08:57:16.999Z</time></trkpt><trkpt lat="41.66783429883538" lon="13.196884649096633"><ele>189.0</ele><time>2026-05-01T08:57:17.999Z</time></trkpt><trkpt lat="41.6678811602798" lon="13.197114564913772"><ele>185.66666666666666</ele><time>2026-05-01T08:57:18.999Z</time></trkpt><trkpt lat="41.66791401861794" lon="13.19734939312809"><ele>182.33333333333331</ele><time>2026-05-01T08:57:19.999Z</time></trkpt><trkpt lat="41.66791392268968" lon="13.197610044187721"><ele>179.0</ele><time>2026-05-01T08:57:20.999Z</time></trkpt><trkpt lat="41.66788217728553" lon="13.197887535024197"><ele>179.0</ele><time>2026-05-01T08:57:21.999Z</time></trkpt><trkpt lat="41.66782027841167" lon="13.198162616264447"><ele>179.0</ele><time>2026-05-01T08:57:22.999Z</time></trkpt><trkpt lat="41.667737521874365" lon="13.198431416652333"><ele>179.0</ele><time>2026-05-01T08:57:23.999Z</time></trkpt><trkpt lat="41.667647742704915" lon="13.198692947602838"><ele>178.33333333333331</ele><time>2026-05-01T08:57:24.999Z</time></trkpt><trkpt lat="41.6675658856387" lon="13.19895053024065"><ele>177.66666666666666</ele><time>2026-05-01T08:57:25.999Z</time></trkpt><trkpt lat="41.6674861329742" lon="13.199205423948843"><ele>177.0</ele><time>2026-05-01T08:57:26.999Z</time></trkpt><trkpt lat="41.667391503437344" lon="13.199467454870415"><ele>177.0</ele><time>2026-05-01T08:57:27.999Z</time></trkpt><trkpt lat="41.66728383644216" lon="13.199734433059428"><ele>177.0</ele><time>2026-05-01T08:57:28.999Z</time></trkpt><trkpt lat="41.66717460712128" lon="13.199970165643068"><ele>177.0</ele><time>2026-05-01T08:57:29.999Z</time></trkpt><trkpt lat="41.667074430819234" lon="13.200166275667224"><ele>175.75</ele><time>2026-05-01T08:57:30.999Z</time></trkpt><trkpt lat="41.666983208954775" lon="13.20032065607391"><ele>174.5</ele><time>2026-05-01T08:57:31.999Z</time></trkpt><trkpt lat="41.66690519768187" lon="13.200448113899037"><ele>173.25</ele><time>2026-05-01T08:57:32.999Z</time></trkpt><trkpt lat="41.666847873247036" lon="13.20057561146767"><ele>172.0</ele><time>2026-05-01T08:57:33.999Z</time></trkpt><trkpt lat="41.66681382467423" lon="13.200710269096183"><ele>172.0</ele><time>2026-05-01T08:57:34.999Z</time></trkpt><trkpt lat="41.66680458011109" lon="13.200811743525898"><ele>172.0</ele><time>2026-05-01T08:57:35.999Z</time></trkpt><trkpt lat="41.666873224312354" lon="13.20099115476826"><ele>172.0</ele><time>2026-05-01T08:57:37.999Z</time></trkpt><trkpt lat="41.66693558898705" lon="13.201121412823673"><ele>172.0</ele><time>2026-05-01T08:57:38.999Z</time></trkpt><trkpt lat="41.66700195588497" lon="13.201269780129524"><ele>178.25</ele><time>2026-05-01T08:57:39.999Z</time></trkpt><trkpt lat="41.6670738121208" lon="13.201419930858487"><ele>184.5</ele><time>2026-05-01T08:57:40.999Z</time></trkpt><trkpt lat="41.667158527673784" lon="13.201560917984443"><ele>190.75</ele><time>2026-05-01T08:57:41.999Z</time></trkpt><trkpt lat="41.66724082883097" lon="13.201686454263365"><ele>197.0</ele><time>2026-05-01T08:57:42.999Z</time></trkpt><trkpt lat="41.6673018354027" lon="13.201835389951448"><ele>197.0</ele><time>2026-05-01T08:57:43.999Z</time></trkpt><trkpt lat="41.667334412876954" lon="13.202014922976506"><ele>197.0</ele><time>2026-05-01T08:57:44.999Z</time></trkpt><trkpt lat="41.66733347751207" lon="13.202210903887869"><ele>197.0</ele><time>2026-05-01T08:57:45.999Z</time></trkpt><trkpt lat="41.66730282089941" lon="13.202419491782925"><ele>197.0</ele><time>2026-05-01T08:57:46.999Z</time></trkpt><trkpt lat="41.6672581333353" lon="13.2026401247599"><ele>196.0</ele><time>2026-05-01T08:57:47.999Z</time></trkpt><trkpt lat="41.6672214113607" lon="13.202859089688804"><ele>195.0</ele><time>2026-05-01T08:57:48.999Z</time></trkpt><trkpt lat="41.66719509007423" lon="13.203067815514643"><ele>194.0</ele><time>2026-05-01T08:57:49.999Z</time></trkpt><trkpt lat="41.66716692857249" lon="13.20326282215361"><ele>195.75</ele><time>2026-05-01T08:57:50.999Z</time></trkpt><trkpt lat="41.667121722563465" lon="13.203442656817018"><ele>197.5</ele><time>2026-05-01T08:57:51.998Z</time></trkpt><trkpt lat="41.66704484317802" lon="13.20361551966271"><ele>199.25</ele><time>2026-05-01T08:57:52.998Z</time></trkpt><trkpt lat="41.666935003004944" lon="13.203753508760485"><ele>201.0</ele><time>2026-05-01T08:57:53.998Z</time></trkpt><trkpt lat="41.66680496270562" lon="13.203860852767201"><ele>199.0</ele><time>2026-05-01T08:57:55Z</time></trkpt><trkpt lat="41.66669224104474" lon="13.203948641900316"><ele>197.0</ele><time>2026-05-01T08:57:56Z</time></trkpt><trkpt lat="41.666612783328276" lon="13.20403223731239"><ele>195.0</ele><time>2026-05-01T08:57:57Z</time></trkpt><trkpt lat="41.6665670993471" lon="13.204126303815789"><ele>193.0</ele><time>2026-05-01T08:57:58Z</time></trkpt><trkpt lat="41.666562516665245" lon="13.204236392704052"><ele>191.0</ele><time>2026-05-01T08:57:59Z</time></trkpt><trkpt lat="41.666610764237014" lon="13.204324509722689"><ele>191.0</ele><time>2026-05-01T08:58:00Z</time></trkpt><trkpt lat="41.6666899305604" lon="13.204376294991345"><ele>191.0</ele><time>2026-05-01T08:58:01Z</time></trkpt><trkpt lat="41.66678084949491" lon="13.204364419700001"><ele>191.0</ele><time>2026-05-01T08:58:02Z</time></trkpt><trkpt lat="41.6668584116218" lon="13.204280345128886"><ele>191.0</ele><time>2026-05-01T08:58:03Z</time></trkpt><trkpt lat="41.66691624166434" lon="13.204141094496583"><ele>191.0</ele><time>2026-05-01T08:58:04Z</time></trkpt><trkpt lat="41.66697996761499" lon="13.20397998616667"><ele>194.33333333333331</ele><time>2026-05-01T08:58:05Z</time></trkpt><trkpt lat="41.667060343844085" lon="13.203814647163114"><ele>197.66666666666666</ele><time>2026-05-01T08:58:06Z</time></trkpt><trkpt lat="41.66717228369611" lon="13.20366694004615"><ele>201.0</ele><time>2026-05-01T08:58:07Z</time></trkpt><trkpt lat="41.66729769138607" lon="13.203514096110526"><ele>201.0</ele><time>2026-05-01T08:58:08Z</time></trkpt><trkpt lat="41.66741732977221" lon="13.20334489154871"><ele>201.0</ele><time>2026-05-01T08:58:09Z</time></trkpt><trkpt lat="41.6675207894436" lon="13.20314466749368"><ele>201.0</ele><time>2026-05-01T08:58:10Z</time></trkpt><trkpt lat="41.667606664818" lon="13.2029154714577"><ele>199.66666666666669</ele><time>2026-05-01T08:58:11Z</time></trkpt><trkpt lat="41.667671664532115" lon="13.202683772987163"><ele>198.33333333333334</ele><time>2026-05-01T08:58:12Z</time></trkpt><trkpt lat="41.6677166412579" lon="13.202481082281247"><ele>197.0</ele><time>2026-05-01T08:58:13Z</time></trkpt><trkpt lat="41.667770328650306" lon="13.202299299738222"><ele>197.0</ele><time>2026-05-01T08:58:14Z</time></trkpt><trkpt lat="41.66780536010655" lon="13.202092288893565"><ele>197.0</ele><time>2026-05-01T08:58:15Z</time></trkpt><trkpt lat="41.66780296613363" lon="13.20187937293639"><ele>197.0</ele><time>2026-05-01T08:58:16Z</time></trkpt><trkpt lat="41.66775357583574" lon="13.201665016937621"><ele>197.75</ele><time>2026-05-01T08:58:17Z</time></trkpt><trkpt lat="41.667692397562604" lon="13.201462307603752"><ele>198.5</ele><time>2026-05-01T08:58:18Z</time></trkpt><trkpt lat="41.6676418473039" lon="13.201281897026108"><ele>199.25</ele><time>2026-05-01T08:58:19Z</time></trkpt><trkpt lat="41.66760433690899" lon="13.201118541561428"><ele>200.0</ele><time>2026-05-01T08:58:20Z</time></trkpt><trkpt lat="41.66759184125866" lon="13.200940946638434"><ele>200.0</ele><time>2026-05-01T08:58:21Z</time></trkpt><trkpt lat="41.667625097761736" lon="13.200756715973494"><ele>200.0</ele><time>2026-05-01T08:58:22Z</time></trkpt><trkpt lat="41.66768322825046" lon="13.200590295841296"><ele>200.0</ele><time>2026-05-01T08:58:23Z</time></trkpt><trkpt lat="41.66770310987457" lon="13.200436604764006"><ele>200.0</ele><time>2026-05-01T08:58:24Z</time></trkpt><trkpt lat="41.667704528577005" lon="13.200293977310706"><ele>200.6</ele><time>2026-05-01T08:58:25Z</time></trkpt><trkpt lat="41.66772093898821" lon="13.200161201467733"><ele>201.2</ele><time>2026-05-01T08:58:26Z</time></trkpt><trkpt lat="41.66783154446248" lon="13.20007190430969"><ele>201.8</ele><time>2026-05-01T08:58:28Z</time></trkpt><trkpt lat="41.667919536365275" lon="13.200104229506174"><ele>202.4</ele><time>2026-05-01T08:58:29Z</time></trkpt><trkpt lat="41.66797212029418" lon="13.20019854687519"><ele>203.0</ele><time>2026-05-01T08:58:30Z</time></trkpt><trkpt lat="41.66794571412721" lon="13.200334389175676"><ele>203.0</ele><time>2026-05-01T08:58:31Z</time></trkpt><trkpt lat="41.66790251017802" lon="13.200444082606804"><ele>203.0</ele><time>2026-05-01T08:58:32Z</time></trkpt><trkpt lat="41.667822259236914" lon="13.200534226895455"><ele>203.0</ele><time>2026-05-01T08:58:33Z</time></trkpt><trkpt lat="41.66775456075334" lon="13.200662636206438"><ele>203.0</ele><time>2026-05-01T08:58:34Z</time></trkpt><trkpt lat="41.667717983321985" lon="13.2008186732345"><ele>203.0</ele><time>2026-05-01T08:58:35Z</time></trkpt><trkpt lat="41.66770102328745" lon="13.200979535219151"><ele>202.0</ele><time>2026-05-01T08:58:36Z</time></trkpt><trkpt lat="41.66771986962026" lon="13.201130700312877"><ele>201.0</ele><time>2026-05-01T08:58:37Z</time></trkpt><trkpt lat="41.66785264372019" lon="13.201362837492756"><ele>200.0</ele><time>2026-05-01T08:58:39Z</time></trkpt><trkpt lat="41.667952826431964" lon="13.201472008894912"><ele>204.75</ele><time>2026-05-01T08:58:40Z</time></trkpt><trkpt lat="41.668053285363854" lon="13.201587704575411"><ele>209.5</ele><time>2026-05-01T08:58:41Z</time></trkpt><trkpt lat="41.668137453595094" lon="13.201729138566883"><ele>214.25</ele><time>2026-05-01T08:58:42Z</time></trkpt><trkpt lat="41.66822143258015" lon="13.201889076352161"><ele>219.0</ele><time>2026-05-01T08:58:43Z</time></trkpt><trkpt lat="41.66829768832148" lon="13.202080285354429"><ele>219.0</ele><time>2026-05-01T08:58:44Z</time></trkpt><trkpt lat="41.66837381953109" lon="13.202282441219452"><ele>219.0</ele><time>2026-05-01T08:58:45Z</time></trkpt><trkpt lat="41.668445879273996" lon="13.202492452978014"><ele>219.0</ele><time>2026-05-01T08:58:46Z</time></trkpt><trkpt lat="41.668526858433886" lon="13.202698488550725"><ele>220.33333333333331</ele><time>2026-05-01T08:58:47Z</time></trkpt><trkpt lat="41.66862657370477" lon="13.202880981687496"><ele>221.66666666666666</ele><time>2026-05-01T08:58:48Z</time></trkpt><trkpt lat="41.668730633650895" lon="13.203052939414519"><ele>223.0</ele><time>2026-05-01T08:58:49Z</time></trkpt><trkpt lat="41.66886508790774" lon="13.203196661902897"><ele>223.0</ele><time>2026-05-01T08:58:50Z</time></trkpt><trkpt lat="41.66901848836892" lon="13.203328192552972"><ele>223.0</ele><time>2026-05-01T08:58:51Z</time></trkpt><trkpt lat="41.66918138005611" lon="13.203450588897395"><ele>223.0</ele><time>2026-05-01T08:58:52Z</time></trkpt><trkpt lat="41.66933654820729" lon="13.203571699444772"><ele>223.75</ele><time>2026-05-01T08:58:53Z</time></trkpt><trkpt lat="41.66947779328941" lon="13.203680967575835"><ele>224.5</ele><time>2026-05-01T08:58:54Z</time></trkpt><trkpt lat="41.669600439225775" lon="13.203785815810042"><ele>225.25</ele><time>2026-05-01T08:58:54.999Z</time></trkpt><trkpt lat="41.669708211443094" lon="13.203867052131168"><ele>226.0</ele><time>2026-05-01T08:58:55.999Z</time></trkpt><trkpt lat="41.66981221871335" lon="13.203924650558774"><ele>226.0</ele><time>2026-05-01T08:58:56.999Z</time></trkpt><trkpt lat="41.66994076831711" lon="13.20396523100473"><ele>226.0</ele><time>2026-05-01T08:58:57.999Z</time></trkpt><trkpt lat="41.67007941304738" lon="13.203992174268507"><ele>226.0</ele><time>2026-05-01T08:58:58.999Z</time></trkpt><trkpt lat="41.67019416263655" lon="13.204006279174955"><ele>226.0</ele><time>2026-05-01T08:58:59.999Z</time></trkpt><trkpt lat="41.67028460015036" lon="13.204020842046964"><ele>225.20000000000002</ele><time>2026-05-01T08:59:00.999Z</time></trkpt><trkpt lat="41.67034936158371" lon="13.20403565780305"><ele>224.40000000000003</ele><time>2026-05-01T08:59:01.999Z</time></trkpt><trkpt lat="41.67045421047107" lon="13.204046242152483"><ele>223.6</ele><time>2026-05-01T08:59:03.999Z</time></trkpt><trkpt lat="41.670452730702415" lon="13.204264094215867"><ele>222.8</ele><time>2026-05-01T08:59:04.999Z</time></trkpt><trkpt lat="41.67049026320354" lon="13.204364543542587"><ele>222.0</ele><time>2026-05-01T08:59:05.999Z</time></trkpt><trkpt lat="41.670543123112246" lon="13.204459725906416"><ele>222.0</ele><time>2026-05-01T08:59:06.999Z</time></trkpt><trkpt lat="41.67060352659901" lon="13.204577198948629"><ele>222.0</ele><time>2026-05-01T08:59:07.999Z</time></trkpt><trkpt lat="41.670667135677874" lon="13.204695839623314"><ele>222.0</ele><time>2026-05-01T08:59:08.999Z</time></trkpt><trkpt lat="41.670738525765415" lon="13.20481420562686"><ele>222.0</ele><time>2026-05-01T08:59:09.999Z</time></trkpt><trkpt lat="41.670809937749596" lon="13.204945559539649"><ele>221.8</ele><time>2026-05-01T08:59:10.999Z</time></trkpt><trkpt lat="41.67087725175729" lon="13.205068693523534"><ele>221.6</ele><time>2026-05-01T08:59:11.999Z</time></trkpt><trkpt lat="41.670942272455754" lon="13.20517380966378"><ele>221.40000000000003</ele><time>2026-05-01T08:59:12.999Z</time></trkpt><trkpt lat="41.67100334443696" lon="13.205280869449734"><ele>221.20000000000002</ele><time>2026-05-01T08:59:13.999Z</time></trkpt><trkpt lat="41.67107004463786" lon="13.205396690669563"><ele>221.0</ele><time>2026-05-01T08:59:14.999Z</time></trkpt><trkpt lat="41.67114277486745" lon="13.205512519461804"><ele>221.0</ele><time>2026-05-01T08:59:15.999Z</time></trkpt><trkpt lat="41.67121491861201" lon="13.205627513960039"><ele>221.0</ele><time>2026-05-01T08:59:16.999Z</time></trkpt><trkpt lat="41.67127337144506" lon="13.20574866025279"><ele>221.0</ele><time>2026-05-01T08:59:17.999Z</time></trkpt><trkpt lat="41.671324671375984" lon="13.205876279764015"><ele>221.0</ele><time>2026-05-01T08:59:18.999Z</time></trkpt><trkpt lat="41.67134396567691" lon="13.20603700732671"><ele>221.0</ele><time>2026-05-01T08:59:19.999Z</time></trkpt><trkpt lat="41.67137323531914" lon="13.20619697290853"><ele>221.00000000000003</ele><time>2026-05-01T08:59:20.999Z</time></trkpt><trkpt lat="41.67141324607864" lon="13.206346876502455"><ele>221.00000000000003</ele><time>2026-05-01T08:59:21.999Z</time></trkpt><trkpt lat="41.67143821162044" lon="13.206481394180761"><ele>221.0</ele><time>2026-05-01T08:59:22.999Z</time></trkpt><trkpt lat="41.67143835033416" lon="13.206609086127758"><ele>221.0</ele><time>2026-05-01T08:59:23.999Z</time></trkpt><trkpt lat="41.67144799526577" lon="13.206722979948044"><ele>220.60000000000002</ele><time>2026-05-01T08:59:24.999Z</time></trkpt><trkpt lat="41.67144320229886" lon="13.206820771919451"><ele>220.20000000000002</ele><time>2026-05-01T08:59:25.999Z</time></trkpt><trkpt lat="41.67142965678053" lon="13.206947599649512"><ele>219.79999999999998</ele><time>2026-05-01T08:59:27.999Z</time></trkpt><trkpt lat="41.67157369614579" lon="13.207091324528333"><ele>219.39999999999998</ele><time>2026-05-01T08:59:29.999Z</time></trkpt><trkpt lat="41.67164445765725" lon="13.207169198855166"><ele>219.0</ele><time>2026-05-01T08:59:30.999Z</time></trkpt><trkpt lat="41.67171237442032" lon="13.207298286780308"><ele>219.25</ele><time>2026-05-01T08:59:31.999Z</time></trkpt><trkpt lat="41.671795735378794" lon="13.207417067184634"><ele>219.5</ele><time>2026-05-01T08:59:32.999Z</time></trkpt><trkpt lat="41.671887291325184" lon="13.207544417504442"><ele>219.75</ele><time>2026-05-01T08:59:33.999Z</time></trkpt><trkpt lat="41.67198079912962" lon="13.207674391562152"><ele>220.0</ele><time>2026-05-01T08:59:34.999Z</time></trkpt><trkpt lat="41.67208353234618" lon="13.207789509879486"><ele>220.0</ele><time>2026-05-01T08:59:35.999Z</time></trkpt><trkpt lat="41.67218251105857" lon="13.207926863538768"><ele>220.0</ele><time>2026-05-01T08:59:36.999Z</time></trkpt><trkpt lat="41.67228109818356" lon="13.208059442378516"><ele>220.0</ele><time>2026-05-01T08:59:37.999Z</time></trkpt><trkpt lat="41.67238375593733" lon="13.208188950010195"><ele>220.0</ele><time>2026-05-01T08:59:38.999Z</time></trkpt><trkpt lat="41.67249026362543" lon="13.208313760518404"><ele>220.0</ele><time>2026-05-01T08:59:39.999Z</time></trkpt><trkpt lat="41.67259602571221" lon="13.208441285014025"><ele>220.0</ele><time>2026-05-01T08:59:40.999Z</time></trkpt><trkpt lat="41.672698955357426" lon="13.208562356263036"><ele>220.0</ele><time>2026-05-01T08:59:41.999Z</time></trkpt><trkpt lat="41.6727938210823" lon="13.208674014556262"><ele>220.0</ele><time>2026-05-01T08:59:42.999Z</time></trkpt><trkpt lat="41.67288372354324" lon="13.208787681567282"><ele>220.0</ele><time>2026-05-01T08:59:43.999Z</time></trkpt><trkpt lat="41.67298021188064" lon="13.208893399927062"><ele>220.0</ele><time>2026-05-01T08:59:44.999Z</time></trkpt><trkpt lat="41.67307127754787" lon="13.20900412505919"><ele>220.0</ele><time>2026-05-01T08:59:45.999Z</time></trkpt><trkpt lat="41.673157582616504" lon="13.209108045914896"><ele>220.0</ele><time>2026-05-01T08:59:46.999Z</time></trkpt><trkpt lat="41.67324198498695" lon="13.209209386936779"><ele>220.2</ele><time>2026-05-01T08:59:47.999Z</time></trkpt><trkpt lat="41.67331457395053" lon="13.209327343838"><ele>220.4</ele><time>2026-05-01T08:59:48.999Z</time></trkpt><trkpt lat="41.673386896855966" lon="13.209436058953303"><ele>220.60000000000002</ele><time>2026-05-01T08:59:49.999Z</time></trkpt><trkpt lat="41.6734441428615" lon="13.209548127355058"><ele>220.8</ele><time>2026-05-01T08:59:50.999Z</time></trkpt><trkpt lat="41.67348352957935" lon="13.209662600455273"><ele>221.0</ele><time>2026-05-01T08:59:51.999Z</time></trkpt><trkpt lat="41.673511767102816" lon="13.209784838231618"><ele>221.25</ele><time>2026-05-01T08:59:52.999Z</time></trkpt><trkpt lat="41.67352022121776" lon="13.209920384379195"><ele>221.5</ele><time>2026-05-01T08:59:53.999Z</time></trkpt><trkpt lat="41.67351118856369" lon="13.210077108701384"><ele>221.75</ele><time>2026-05-01T08:59:54.999Z</time></trkpt><trkpt lat="41.67348887491035" lon="13.21025456741744"><ele>222.0</ele><time>2026-05-01T08:59:55.999Z</time></trkpt><trkpt lat="41.67347610255462" lon="13.210435795264866"><ele>222.0</ele><time>2026-05-01T08:59:56.999Z</time></trkpt><trkpt lat="41.673451276115564" lon="13.2105996587909"><ele>222.0</ele><time>2026-05-01T08:59:57.999Z</time></trkpt><trkpt lat="41.673408103226386" lon="13.210740581577205"><ele>222.0</ele><time>2026-05-01T08:59:58.999Z</time></trkpt><trkpt lat="41.67337977999512" lon="13.210861706374876"><ele>222.0</ele><time>2026-05-01T08:59:59.998Z</time></trkpt><trkpt lat="41.673353732166206" lon="13.210944353231552"><ele>222.0</ele><time>2026-05-01T09:00:01Z</time></trkpt><trkpt lat="41.673344842756144" lon="13.211031717341896"><ele>221.8</ele><time>2026-05-01T09:00:04Z</time></trkpt><trkpt lat="41.67335194254953" lon="13.211176072506928"><ele>221.6</ele><time>2026-05-01T09:00:06Z</time></trkpt><trkpt lat="41.67339271246592" lon="13.211286419792726"><ele>221.40000000000003</ele><time>2026-05-01T09:00:07Z</time></trkpt><trkpt lat="41.67341979771312" lon="13.211405993954433"><ele>221.20000000000002</ele><time>2026-05-01T09:00:08Z</time></trkpt><trkpt lat="41.67345860181351" lon="13.211542998805538"><ele>221.0</ele><time>2026-05-01T09:00:09Z</time></trkpt><trkpt lat="41.67349204616666" lon="13.21169142981394"><ele>221.0</ele><time>2026-05-01T09:00:10Z</time></trkpt><trkpt lat="41.67352897215581" lon="13.211846811948172"><ele>221.00000000000003</ele><time>2026-05-01T09:00:11Z</time></trkpt><trkpt lat="41.6735853630423" lon="13.211965819537333"><ele>221.00000000000003</ele><time>2026-05-01T09:00:12Z</time></trkpt><trkpt lat="41.673645387415135" lon="13.212087376831482"><ele>221.0</ele><time>2026-05-01T09:00:13Z</time></trkpt><trkpt lat="41.67372776730474" lon="13.21218423424808"><ele>221.0</ele><time>2026-05-01T09:00:14Z</time></trkpt><trkpt lat="41.673827981123345" lon="13.212256240936618"><ele>220.25</ele><time>2026-05-01T09:00:15Z</time></trkpt><trkpt lat="41.67394165879734" lon="13.212283830729154"><ele>219.5</ele><time>2026-05-01T09:00:16Z</time></trkpt><trkpt lat="41.6740611101901" lon="13.212282399586991"><ele>218.75</ele><time>2026-05-01T09:00:17Z</time></trkpt><trkpt lat="41.67418154533481" lon="13.212294663381739"><ele>218.0</ele><time>2026-05-01T09:00:18Z</time></trkpt><trkpt lat="41.674308664474054" lon="13.212329375383366"><ele>218.5</ele><time>2026-05-01T09:00:19Z</time></trkpt><trkpt lat="41.6744409829678" lon="13.21238619432913"><ele>219.0</ele><time>2026-05-01T09:00:20Z</time></trkpt><trkpt lat="41.67457147815328" lon="13.212437867533135"><ele>219.5</ele><time>2026-05-01T09:00:21Z</time></trkpt><trkpt lat="41.674688958883706" lon="13.21249579424704"><ele>220.0</ele><time>2026-05-01T09:00:22Z</time></trkpt><trkpt lat="41.67479293453053" lon="13.212556635725067"><ele>220.0</ele><time>2026-05-01T09:00:23Z</time></trkpt><trkpt lat="41.67489604629166" lon="13.212641995795643"><ele>220.0</ele><time>2026-05-01T09:00:24Z</time></trkpt><trkpt lat="41.67499190570439" lon="13.21276244286306"><ele>220.0</ele><time>2026-05-01T09:00:25Z</time></trkpt><trkpt lat="41.67510344492939" lon="13.212885796939316"><ele>220.0</ele><time>2026-05-01T09:00:26Z</time></trkpt><trkpt lat="41.67522150045772" lon="13.213019424616157"><ele>220.5</ele><time>2026-05-01T09:00:27Z</time></trkpt><trkpt lat="41.67534701257208" lon="13.21312916884281"><ele>221.0</ele><time>2026-05-01T09:00:28Z</time></trkpt><trkpt lat="41.67544925344409" lon="13.21326255539955"><ele>221.5</ele><time>2026-05-01T09:00:29Z</time></trkpt><trkpt lat="41.67556140907095" lon="13.213380199540248"><ele>222.0</ele><time>2026-05-01T09:00:30Z</time></trkpt><trkpt lat="41.675683984508915" lon="13.213489955522682"><ele>222.0</ele><time>2026-05-01T09:00:31Z</time></trkpt><trkpt lat="41.67579207901704" lon="13.213629797647068"><ele>222.0</ele><time>2026-05-01T09:00:32Z</time></trkpt><trkpt lat="41.67589293459652" lon="13.213782194175696"><ele>222.0</ele><time>2026-05-01T09:00:33Z</time></trkpt><trkpt lat="41.67598287775205" lon="13.213948792755208"><ele>221.66666666666669</ele><time>2026-05-01T09:00:34Z</time></trkpt><trkpt lat="41.676066968571824" lon="13.214122610899656"><ele>221.33333333333334</ele><time>2026-05-01T09:00:35Z</time></trkpt><trkpt lat="41.67615872755582" lon="13.21429520635563"><ele>221.0</ele><time>2026-05-01T09:00:36Z</time></trkpt><trkpt lat="41.676259215344864" lon="13.214458254686537"><ele>221.0</ele><time>2026-05-01T09:00:37Z</time></trkpt><trkpt lat="41.676356669881756" lon="13.21463717307751"><ele>221.0</ele><time>2026-05-01T09:00:38Z</time></trkpt><trkpt lat="41.67647618261591" lon="13.21478867782505"><ele>221.0</ele><time>2026-05-01T09:00:39Z</time></trkpt><trkpt lat="41.67659554189042" lon="13.214939118968536"><ele>220.33333333333334</ele><time>2026-05-01T09:00:40Z</time></trkpt><trkpt lat="41.676712950447985" lon="13.21508475411876"><ele>219.66666666666669</ele><time>2026-05-01T09:00:41Z</time></trkpt><trkpt lat="41.67682533052723" lon="13.215219248191694"><ele>219.0</ele><time>2026-05-01T09:00:42Z</time></trkpt><trkpt lat="41.676929901126435" lon="13.215361472560181"><ele>219.33333333333331</ele><time>2026-05-01T09:00:43Z</time></trkpt><trkpt lat="41.677026153135515" lon="13.21551540324895"><ele>219.66666666666666</ele><time>2026-05-01T09:00:44Z</time></trkpt><trkpt lat="41.67711501221065" lon="13.215684701585737"><ele>220.0</ele><time>2026-05-01T09:00:45Z</time></trkpt><trkpt lat="41.67717961330699" lon="13.21586898835362"><ele>220.0</ele><time>2026-05-01T09:00:46Z</time></trkpt><trkpt lat="41.677230501222596" lon="13.216049825118711"><ele>220.0</ele><time>2026-05-01T09:00:47Z</time></trkpt><trkpt lat="41.6772958944093" lon="13.216208090653776"><ele>220.0</ele><time>2026-05-01T09:00:48Z</time></trkpt><trkpt lat="41.677355898205924" lon="13.2163645142412"><ele>220.0</ele><time>2026-05-01T09:00:49Z</time></trkpt><trkpt lat="41.67743657619681" lon="13.216496046030215"><ele>220.0</ele><time>2026-05-01T09:00:50Z</time></trkpt><trkpt lat="41.677548096575286" lon="13.216601333486926"><ele>220.0</ele><time>2026-05-01T09:00:51Z</time></trkpt><trkpt lat="41.677683081117955" lon="13.216676796700654"><ele>220.0</ele><time>2026-05-01T09:00:52Z</time></trkpt><trkpt lat="41.67783076055817" lon="13.216736333893877"><ele>220.0</ele><time>2026-05-01T09:00:53Z</time></trkpt><trkpt lat="41.67797177896108" lon="13.216829421343299"><ele>221.0</ele><time>2026-05-01T09:00:54Z</time></trkpt><trkpt lat="41.67811229592613" lon="13.216920565382114"><ele>222.0</ele><time>2026-05-01T09:00:55Z</time></trkpt><trkpt lat="41.678251821108034" lon="13.217026307154017"><ele>223.0</ele><time>2026-05-01T09:00:56Z</time></trkpt><trkpt lat="41.67839497028928" lon="13.217130681769637"><ele>223.0</ele><time>2026-05-01T09:00:57Z</time></trkpt><trkpt lat="41.6785363020183" lon="13.217224676498198"><ele>223.0</ele><time>2026-05-01T09:00:57.999Z</time></trkpt><trkpt lat="41.67869112907362" lon="13.217279726394064"><ele>223.0</ele><time>2026-05-01T09:00:58.999Z</time></trkpt><trkpt lat="41.678842085248725" lon="13.217329179693925"><ele>223.0</ele><time>2026-05-01T09:00:59.999Z</time></trkpt><trkpt lat="41.67898501250203" lon="13.217386831855945"><ele>223.0</ele><time>2026-05-01T09:01:00.999Z</time></trkpt><trkpt lat="41.67913557568005" lon="13.217441549882434"><ele>223.0</ele><time>2026-05-01T09:01:01.999Z</time></trkpt><trkpt lat="41.67928799081678" lon="13.2175249172902"><ele>224.0</ele><time>2026-05-01T09:01:02.999Z</time></trkpt><trkpt lat="41.67944660970284" lon="13.217623003493182"><ele>225.0</ele><time>2026-05-01T09:01:03.999Z</time></trkpt><trkpt lat="41.679605939701766" lon="13.217729170748605"><ele>226.0</ele><time>2026-05-01T09:01:04.999Z</time></trkpt><trkpt lat="41.6797640682746" lon="13.217836097465325"><ele>226.0</ele><time>2026-05-01T09:01:05.999Z</time></trkpt><trkpt lat="41.67991821172232" lon="13.217942398453133"><ele>226.0</ele><time>2026-05-01T09:01:06.999Z</time></trkpt><trkpt lat="41.6800676531873" lon="13.218048791869823"><ele>226.0</ele><time>2026-05-01T09:01:07.999Z</time></trkpt><trkpt lat="41.6802111743443" lon="13.218163004358223"><ele>225.66666666666666</ele><time>2026-05-01T09:01:08.999Z</time></trkpt><trkpt lat="41.68034651504827" lon="13.218296252833223"><ele>225.33333333333331</ele><time>2026-05-01T09:01:09.999Z</time></trkpt><trkpt lat="41.68047536093716" lon="13.218438553453373"><ele>225.0</ele><time>2026-05-01T09:01:10.999Z</time></trkpt><trkpt lat="41.6805970740012" lon="13.218562650501127"><ele>225.0</ele><time>2026-05-01T09:01:11.999Z</time></trkpt><trkpt lat="41.68072226987771" lon="13.21865315844402"><ele>225.0</ele><time>2026-05-01T09:01:12.999Z</time></trkpt><trkpt lat="41.68082578665088" lon="13.2187474998779"><ele>225.0</ele><time>2026-05-01T09:01:13.999Z</time></trkpt><trkpt lat="41.68093405133699" lon="13.218811296299506"><ele>225.0</ele><time>2026-05-01T09:01:14.999Z</time></trkpt><trkpt lat="41.68105780335121" lon="13.218828900232063"><ele>226.5</ele><time>2026-05-01T09:01:15.999Z</time></trkpt><trkpt lat="41.681192961155624" lon="13.218807842382471"><ele>228.0</ele><time>2026-05-01T09:01:16.999Z</time></trkpt><trkpt lat="41.68133040837072" lon="13.218780182484988"><ele>229.5</ele><time>2026-05-01T09:01:17.999Z</time></trkpt><trkpt lat="41.68146935807113" lon="13.218762751676218"><ele>231.0</ele><time>2026-05-01T09:01:18.999Z</time></trkpt><trkpt lat="41.681606865991256" lon="13.218770821154422"><ele>231.0</ele><time>2026-05-01T09:01:19.999Z</time></trkpt><trkpt lat="41.681739128649944" lon="13.218831865210005"><ele>231.0</ele><time>2026-05-01T09:01:20.999Z</time></trkpt><trkpt lat="41.68187338665733" lon="13.218897107847067"><ele>231.0</ele><time>2026-05-01T09:01:21.999Z</time></trkpt><trkpt lat="41.68199867152362" lon="13.21893150475669"><ele>231.0</ele><time>2026-05-01T09:01:22.999Z</time></trkpt><trkpt lat="41.682107466536046" lon="13.219001761479925"><ele>230.0</ele><time>2026-05-01T09:01:23.999Z</time></trkpt><trkpt lat="41.68222647703225" lon="13.219056491056563"><ele>229.0</ele><time>2026-05-01T09:01:24.999Z</time></trkpt><trkpt lat="41.68235577117104" lon="13.219114324269809"><ele>228.0</ele><time>2026-05-01T09:01:25.999Z</time></trkpt><trkpt lat="41.682461568876604" lon="13.21924543296341"><ele>227.0</ele><time>2026-05-01T09:01:26.999Z</time></trkpt><trkpt lat="41.6825654992724" lon="13.219372723579664"><ele>227.0</ele><time>2026-05-01T09:01:27.999Z</time></trkpt><trkpt lat="41.68265411609984" lon="13.219503036504802"><ele>227.0</ele><time>2026-05-01T09:01:28.999Z</time></trkpt><trkpt lat="41.6827330139266" lon="13.219643829531288"><ele>227.0</ele><time>2026-05-01T09:01:29.999Z</time></trkpt><trkpt lat="41.682804174665236" lon="13.21979954897106"><ele>227.0</ele><time>2026-05-01T09:01:30.999Z</time></trkpt><trkpt lat="41.68289571285726" lon="13.219942995900075"><ele>226.0</ele><time>2026-05-01T09:01:31.999Z</time></trkpt><trkpt lat="41.682980022627056" lon="13.220098670387216"><ele>225.0</ele><time>2026-05-01T09:01:32.999Z</time></trkpt><trkpt lat="41.68307490107891" lon="13.220247890566009"><ele>224.0</ele><time>2026-05-01T09:01:33.999Z</time></trkpt><trkpt lat="41.683176004355424" lon="13.2203874133463"><ele>223.0</ele><time>2026-05-01T09:01:34.999Z</time></trkpt><trkpt lat="41.68327724875522" lon="13.220507940970698"><ele>223.0</ele><time>2026-05-01T09:01:35.999Z</time></trkpt><trkpt lat="41.68338393826232" lon="13.220606922699876"><ele>223.0</ele><time>2026-05-01T09:01:36.999Z</time></trkpt><trkpt lat="41.683507422945176" lon="13.220689122313408"><ele>223.0</ele><time>2026-05-01T09:01:37.999Z</time></trkpt><trkpt lat="41.68364605504419" lon="13.220746005147735"><ele>223.0</ele><time>2026-05-01T09:01:38.999Z</time></trkpt><trkpt lat="41.6837911312379" lon="13.22079033281294"><ele>223.75</ele><time>2026-05-01T09:01:39.999Z</time></trkpt><trkpt lat="41.683934102478744" lon="13.22082748949035"><ele>224.5</ele><time>2026-05-01T09:01:40.999Z</time></trkpt><trkpt lat="41.684080449537674" lon="13.220859576650511"><ele>225.25</ele><time>2026-05-01T09:01:41.999Z</time></trkpt><trkpt lat="41.68422456635168" lon="13.220876851436346"><ele>226.0</ele><time>2026-05-01T09:01:42.999Z</time></trkpt><trkpt lat="41.68436093426499" lon="13.2208883713591"><ele>227.25</ele><time>2026-05-01T09:01:43.999Z</time></trkpt><trkpt lat="41.68447789710539" lon="13.220929571631748"><ele>228.5</ele><time>2026-05-01T09:01:44.999Z</time></trkpt><trkpt lat="41.68458854171279" lon="13.220987394205068"><ele>229.75</ele><time>2026-05-01T09:01:45.999Z</time></trkpt><trkpt lat="41.68468622266504" lon="13.221075494591872"><ele>231.0</ele><time>2026-05-01T09:01:46.999Z</time></trkpt><trkpt lat="41.684789584187584" lon="13.22117424722435"><ele>231.0</ele><time>2026-05-01T09:01:47.999Z</time></trkpt><trkpt lat="41.68489859408813" lon="13.221262463655847"><ele>231.0</ele><time>2026-05-01T09:01:48.999Z</time></trkpt><trkpt lat="41.6850002051729" lon="13.221353172867893"><ele>231.0</ele><time>2026-05-01T09:01:49.999Z</time></trkpt><trkpt lat="41.685105617637234" lon="13.2214020860046"><ele>231.0</ele><time>2026-05-01T09:01:50.999Z</time></trkpt><trkpt lat="41.685204344067756" lon="13.221421166591497"><ele>232.60000000000002</ele><time>2026-05-01T09:01:51.999Z</time></trkpt><trkpt lat="41.68529706823325" lon="13.221415138906512"><ele>234.20000000000002</ele><time>2026-05-01T09:01:52.999Z</time></trkpt><trkpt lat="41.68539964567882" lon="13.221389219236855"><ele>235.79999999999998</ele><time>2026-05-01T09:01:53.999Z</time></trkpt><trkpt lat="41.68551294650175" lon="13.22136374840206"><ele>237.39999999999998</ele><time>2026-05-01T09:01:54.999Z</time></trkpt><trkpt lat="41.68563884073224" lon="13.22135802821362"><ele>239.0</ele><time>2026-05-01T09:01:55.999Z</time></trkpt><trkpt lat="41.68577434927931" lon="13.22136782297165"><ele>239.0</ele><time>2026-05-01T09:01:56.999Z</time></trkpt><trkpt lat="41.685910121376374" lon="13.221387995067841"><ele>239.0</ele><time>2026-05-01T09:01:57.999Z</time></trkpt><trkpt lat="41.686042747486944" lon="13.221417823496491"><ele>239.0</ele><time>2026-05-01T09:01:58.999Z</time></trkpt><trkpt lat="41.686175904362194" lon="13.221459250697169"><ele>239.0</ele><time>2026-05-01T09:01:59.999Z</time></trkpt><trkpt lat="41.6863093508212" lon="13.221520258796938"><ele>241.5</ele><time>2026-05-01T09:02:00.999Z</time></trkpt><trkpt lat="41.6864319819807" lon="13.22160669083213"><ele>244.0</ele><time>2026-05-01T09:02:01.999Z</time></trkpt><trkpt lat="41.68655354703363" lon="13.221679887096565"><ele>246.5</ele><time>2026-05-01T09:02:02.998Z</time></trkpt><trkpt lat="41.686684016504536" lon="13.221744499396628"><ele>249.0</ele><time>2026-05-01T09:02:03.998Z</time></trkpt><trkpt lat="41.68679969577335" lon="13.221836239111662"><ele>249.0</ele><time>2026-05-01T09:02:04.998Z</time></trkpt><trkpt lat="41.68690408635394" lon="13.22192081976896"><ele>249.0</ele><time>2026-05-01T09:02:06Z</time></trkpt><trkpt lat="41.687014083643994" lon="13.222013037874154"><ele>249.0</ele><time>2026-05-01T09:02:07Z</time></trkpt><trkpt lat="41.687128275793945" lon="13.222097514313962"><ele>249.0</ele><time>2026-05-01T09:02:08Z</time></trkpt><trkpt lat="41.68725940130637" lon="13.222183115555588"><ele>249.5</ele><time>2026-05-01T09:02:09Z</time></trkpt><trkpt lat="41.687392841506686" lon="13.22226640737927"><ele>250.0</ele><time>2026-05-01T09:02:10Z</time></trkpt><trkpt lat="41.687506839605476" lon="13.222342733990276"><ele>250.5</ele><time>2026-05-01T09:02:11Z</time></trkpt><trkpt lat="41.68760922292918" lon="13.222398855827166"><ele>251.0</ele><time>2026-05-01T09:02:12Z</time></trkpt><trkpt lat="41.687698663117686" lon="13.222446300273251"><ele>253.0</ele><time>2026-05-01T09:02:13Z</time></trkpt><trkpt lat="41.68777677235875" lon="13.222487574231131"><ele>255.00000000000003</ele><time>2026-05-01T09:02:14Z</time></trkpt><trkpt lat="41.687844283837" lon="13.222515088916678"><ele>257.0</ele><time>2026-05-01T09:02:15Z</time></trkpt><trkpt lat="41.68794031015964" lon="13.222531290030638"><ele>259.0</ele><time>2026-05-01T09:02:17Z</time></trkpt><trkpt lat="41.688037772633" lon="13.222534328444906"><ele>261.0</ele><time>2026-05-01T09:02:19Z</time></trkpt><trkpt lat="41.688151320076216" lon="13.222521397042085"><ele>261.0</ele><time>2026-05-01T09:02:21Z</time></trkpt><trkpt lat="41.688230532694845" lon="13.222512866312243"><ele>261.0</ele><time>2026-05-01T09:02:22Z</time></trkpt><trkpt lat="41.68831230753925" lon="13.222503789745547"><ele>261.0</ele><time>2026-05-01T09:02:23Z</time></trkpt><trkpt lat="41.688402795469244" lon="13.222503090447654"><ele>261.0</ele><time>2026-05-01T09:02:24Z</time></trkpt><trkpt lat="41.688507240133916" lon="13.222523088246176"><ele>261.0</ele><time>2026-05-01T09:02:25Z</time></trkpt><trkpt lat="41.68861563050664" lon="13.22256930269085"><ele>262.75</ele><time>2026-05-01T09:02:26Z</time></trkpt><trkpt lat="41.688729506831514" lon="13.222627724218592"><ele>264.5</ele><time>2026-05-01T09:02:27Z</time></trkpt><trkpt lat="41.688847442778275" lon="13.222704616511127"><ele>266.25</ele><time>2026-05-01T09:02:28Z</time></trkpt><trkpt lat="41.68896174052547" lon="13.22280120142667"><ele>268.0</ele><time>2026-05-01T09:02:29Z</time></trkpt><trkpt lat="41.68906700442994" lon="13.222903742928372"><ele>268.0</ele><time>2026-05-01T09:02:30Z</time></trkpt><trkpt lat="41.6891656870816" lon="13.223012214474936"><ele>268.0</ele><time>2026-05-01T09:02:31Z</time></trkpt><trkpt lat="41.6892360680242" lon="13.223156138267692"><ele>268.0</ele><time>2026-05-01T09:02:32Z</time></trkpt><trkpt lat="41.68929207572725" lon="13.223308466728726"><ele>268.0</ele><time>2026-05-01T09:02:33Z</time></trkpt><trkpt lat="41.689340591216485" lon="13.22346630236524"><ele>267.75</ele><time>2026-05-01T09:02:34Z</time></trkpt><trkpt lat="41.68939162966427" lon="13.223628449575703"><ele>267.5</ele><time>2026-05-01T09:02:35Z</time></trkpt><trkpt lat="41.689422609695896" lon="13.223800696761899"><ele>267.25</ele><time>2026-05-01T09:02:36Z</time></trkpt><trkpt lat="41.689457686368556" lon="13.223962122697102"><ele>267.0</ele><time>2026-05-01T09:02:37Z</time></trkpt><trkpt lat="41.68947958196217" lon="13.224118286500769"><ele>270.0</ele><time>2026-05-01T09:02:38Z</time></trkpt><trkpt lat="41.68954787890012" lon="13.224249125991564"><ele>273.0</ele><time>2026-05-01T09:02:39Z</time></trkpt><trkpt lat="41.6896183706806" lon="13.224399385822245"><ele>276.0</ele><time>2026-05-01T09:02:40Z</time></trkpt><trkpt lat="41.68970752403857" lon="13.22455431471963"><ele>279.0</ele><time>2026-05-01T09:02:41Z</time></trkpt><trkpt lat="41.68980808912739" lon="13.224698480490721"><ele>278.0</ele><time>2026-05-01T09:02:42Z</time></trkpt><trkpt lat="41.68991070516727" lon="13.224832256775391"><ele>277.0</ele><time>2026-05-01T09:02:43Z</time></trkpt><trkpt lat="41.690004421500326" lon="13.224973481501761"><ele>276.0</ele><time>2026-05-01T09:02:44Z</time></trkpt><trkpt lat="41.69009199037077" lon="13.225103864085932"><ele>275.0</ele><time>2026-05-01T09:02:45Z</time></trkpt><trkpt lat="41.69016188417257" lon="13.225212651521941"><ele>275.0</ele><time>2026-05-01T09:02:46Z</time></trkpt><trkpt lat="41.69023757284175" lon="13.225292246668545"><ele>275.0</ele><time>2026-05-01T09:02:47Z</time></trkpt><trkpt lat="41.69031176267556" lon="13.225359432472807"><ele>275.0</ele><time>2026-05-01T09:02:48Z</time></trkpt><trkpt lat="41.69039969717242" lon="13.225440743562375"><ele>275.0</ele><time>2026-05-01T09:02:49Z</time></trkpt><trkpt lat="41.6904098930765" lon="13.225687548063563"><ele>269.25</ele><time>2026-05-01T09:02:50Z</time></trkpt><trkpt lat="41.69048286321808" lon="13.225859045865974"><ele>263.5</ele><time>2026-05-01T09:02:51Z</time></trkpt><trkpt lat="41.69053917348541" lon="13.226026928580474"><ele>257.75</ele><time>2026-05-01T09:02:52Z</time></trkpt><trkpt lat="41.69058488528048" lon="13.22619662831842"><ele>252.0</ele><time>2026-05-01T09:02:53Z</time></trkpt><trkpt lat="41.690621540106164" lon="13.22638583939413"><ele>251.5</ele><time>2026-05-01T09:02:54Z</time></trkpt><trkpt lat="41.69065157283063" lon="13.226584097522487"><ele>251.0</ele><time>2026-05-01T09:02:55Z</time></trkpt><trkpt lat="41.690694247341796" lon="13.226765533382393"><ele>250.5</ele><time>2026-05-01T09:02:56Z</time></trkpt><trkpt lat="41.69071766073136" lon="13.226939317481545"><ele>250.0</ele><time>2026-05-01T09:02:57Z</time></trkpt><trkpt lat="41.69072318719786" lon="13.22709560792139"><ele>250.0</ele><time>2026-05-01T09:02:58Z</time></trkpt><trkpt lat="41.690753232890906" lon="13.22722046275095"><ele>250.0</ele><time>2026-05-01T09:02:59Z</time></trkpt><trkpt lat="41.690799581140396" lon="13.22733121613365"><ele>250.0</ele><time>2026-05-01T09:03:00Z</time></trkpt><trkpt lat="41.69088185349518" lon="13.227435694739064"><ele>250.0</ele><time>2026-05-01T09:03:01Z</time></trkpt><trkpt lat="41.69099711659916" lon="13.227488115335053"><ele>250.0</ele><time>2026-05-01T09:03:02Z</time></trkpt><trkpt lat="41.69112265639287" lon="13.227535859610459"><ele>249.0</ele><time>2026-05-01T09:03:03Z</time></trkpt><trkpt lat="41.69124472049942" lon="13.227616244520654"><ele>248.0</ele><time>2026-05-01T09:03:03.999Z</time></trkpt><trkpt lat="41.691379900820316" lon="13.227684238247488"><ele>247.0</ele><time>2026-05-01T09:03:04.999Z</time></trkpt><trkpt lat="41.69151330013829" lon="13.227751336169144"><ele>246.0</ele><time>2026-05-01T09:03:05.999Z</time></trkpt><trkpt lat="41.69163568909765" lon="13.227815188232894"><ele>246.0</ele><time>2026-05-01T09:03:06.999Z</time></trkpt><trkpt lat="41.69175324954648" lon="13.227860354617807"><ele>246.0</ele><time>2026-05-01T09:03:07.999Z</time></trkpt><trkpt lat="41.691850668254865" lon="13.227984699293431"><ele>246.0</ele><time>2026-05-01T09:03:08.999Z</time></trkpt><trkpt lat="41.691950419753724" lon="13.228119033254536"><ele>246.0</ele><time>2026-05-01T09:03:09.999Z</time></trkpt><trkpt lat="41.69204632589208" lon="13.228254032313153"><ele>245.5</ele><time>2026-05-01T09:03:10.999Z</time></trkpt><trkpt lat="41.69212514319051" lon="13.228374778276857"><ele>245.0</ele><time>2026-05-01T09:03:11.999Z</time></trkpt><trkpt lat="41.69219447185544" lon="13.228505223365527"><ele>244.5</ele><time>2026-05-01T09:03:12.999Z</time></trkpt><trkpt lat="41.692192673844545" lon="13.228677966417141"><ele>244.0</ele><time>2026-05-01T09:03:13.999Z</time></trkpt><trkpt lat="41.69216078543059" lon="13.228835678925286"><ele>243.5</ele><time>2026-05-01T09:03:14.999Z</time></trkpt><trkpt lat="41.69209810958947" lon="13.22899121769515"><ele>243.0</ele><time>2026-05-01T09:03:15.999Z</time></trkpt><trkpt lat="41.69203235467091" lon="13.22916606769804"><ele>242.5</ele><time>2026-05-01T09:03:16.999Z</time></trkpt><trkpt lat="41.691957278830046" lon="13.229319656298157"><ele>242.0</ele><time>2026-05-01T09:03:17.999Z</time></trkpt><trkpt lat="41.6918899231052" lon="13.229463911381446"><ele>242.5</ele><time>2026-05-01T09:03:18.999Z</time></trkpt><trkpt lat="41.691827486548874" lon="13.229594904661147"><ele>243.0</ele><time>2026-05-01T09:03:19.999Z</time></trkpt><trkpt lat="41.6917981199281" lon="13.229752745141797"><ele>243.5</ele><time>2026-05-01T09:03:20.999Z</time></trkpt><trkpt lat="41.69183063044081" lon="13.22994105320073"><ele>244.0</ele><time>2026-05-01T09:03:21.999Z</time></trkpt><trkpt lat="41.69188546020711" lon="13.230112348434108"><ele>243.0</ele><time>2026-05-01T09:03:22.999Z</time></trkpt><trkpt lat="41.69198244267703" lon="13.230269160440583"><ele>242.0</ele><time>2026-05-01T09:03:23.999Z</time></trkpt><trkpt lat="41.692090982838316" lon="13.230413020949571"><ele>241.0</ele><time>2026-05-01T09:03:24.999Z</time></trkpt><trkpt lat="41.69221123098862" lon="13.230532695019383"><ele>241.0</ele><time>2026-05-01T09:03:25.999Z</time></trkpt><trkpt lat="41.69232981828644" lon="13.230669247712802"><ele>241.0</ele><time>2026-05-01T09:03:26.999Z</time></trkpt><trkpt lat="41.69243249072495" lon="13.230822630336855"><ele>241.0</ele><time>2026-05-01T09:03:27.999Z</time></trkpt><trkpt lat="41.692535047627885" lon="13.230945886698954"><ele>241.0</ele><time>2026-05-01T09:03:28.999Z</time></trkpt><trkpt lat="41.69263138622691" lon="13.231061669567428"><ele>241.0</ele><time>2026-05-01T09:03:29.999Z</time></trkpt><trkpt lat="41.692730452938" lon="13.231175233884787"><ele>241.0</ele><time>2026-05-01T09:03:30.999Z</time></trkpt><trkpt lat="41.69277929173075" lon="13.23134296141526"><ele>241.0</ele><time>2026-05-01T09:03:31.999Z</time></trkpt><trkpt lat="41.69281806483103" lon="13.231509723016188"><ele>241.0</ele><time>2026-05-01T09:03:32.999Z</time></trkpt><trkpt lat="41.69285889791188" lon="13.23171341792238"><ele>241.0</ele><time>2026-05-01T09:03:33.999Z</time></trkpt><trkpt lat="41.692907896343115" lon="13.23190842229666"><ele>241.0</ele><time>2026-05-01T09:03:34.999Z</time></trkpt><trkpt lat="41.69298703038831" lon="13.232095423610499"><ele>241.0</ele><time>2026-05-01T09:03:35.999Z</time></trkpt><trkpt lat="41.6931000956526" lon="13.232254827517249"><ele>241.66666666666666</ele><time>2026-05-01T09:03:36.999Z</time></trkpt><trkpt lat="41.69320628760678" lon="13.232420162096481"><ele>242.33333333333331</ele><time>2026-05-01T09:03:37.999Z</time></trkpt><trkpt lat="41.693315808737125" lon="13.232584241802606"><ele>243.0</ele><time>2026-05-01T09:03:38.999Z</time></trkpt><trkpt lat="41.69342349700051" lon="13.23275817514563"><ele>243.0</ele><time>2026-05-01T09:03:39.999Z</time></trkpt><trkpt lat="41.69353026606188" lon="13.232939609007206"><ele>243.0</ele><time>2026-05-01T09:03:40.999Z</time></trkpt><trkpt lat="41.69364198418534" lon="13.233117042524798"><ele>243.0</ele><time>2026-05-01T09:03:41.999Z</time></trkpt><trkpt lat="41.693744896330514" lon="13.233283876738772"><ele>242.75</ele><time>2026-05-01T09:03:42.999Z</time></trkpt><trkpt lat="41.69383783495188" lon="13.233437121853575"><ele>242.5</ele><time>2026-05-01T09:03:43.999Z</time></trkpt><trkpt lat="41.693905825118335" lon="13.233606327299576"><ele>242.25</ele><time>2026-05-01T09:03:44.999Z</time></trkpt><trkpt lat="41.693954775367054" lon="13.233785956733076"><ele>242.0</ele><time>2026-05-01T09:03:45.999Z</time></trkpt><trkpt lat="41.693994557638234" lon="13.233996844526818"><ele>243.33333333333334</ele><time>2026-05-01T09:03:46.999Z</time></trkpt><trkpt lat="41.694039028346545" lon="13.234220697072967"><ele>244.66666666666669</ele><time>2026-05-01T09:03:47.999Z</time></trkpt><trkpt lat="41.69408045338436" lon="13.234429213692477"><ele>246.0</ele><time>2026-05-01T09:03:48.999Z</time></trkpt><trkpt lat="41.69411871668163" lon="13.234616707413847"><ele>246.0</ele><time>2026-05-01T09:03:49.999Z</time></trkpt><trkpt lat="41.694157653788" lon="13.234802225425122"><ele>246.0</ele><time>2026-05-01T09:03:50.999Z</time></trkpt><trkpt lat="41.694195363990374" lon="13.234981897966367"><ele>246.0</ele><time>2026-05-01T09:03:51.999Z</time></trkpt><trkpt lat="41.69423298703637" lon="13.235158022991511"><ele>246.0</ele><time>2026-05-01T09:03:52.999Z</time></trkpt><trkpt lat="41.69428383661651" lon="13.23531891710741"><ele>245.8</ele><time>2026-05-01T09:03:53.999Z</time></trkpt><trkpt lat="41.69432059320102" lon="13.235479944581053"><ele>245.60000000000002</ele><time>2026-05-01T09:03:54.999Z</time></trkpt><trkpt lat="41.69435422197878" lon="13.235613896508536"><ele>245.4</ele><time>2026-05-01T09:03:55.999Z</time></trkpt><trkpt lat="41.694388762280134" lon="13.23571419329477"><ele>245.2</ele><time>2026-05-01T09:03:56.999Z</time></trkpt><trkpt lat="41.6944168591458" lon="13.23579680091882"><ele>245.0</ele><time>2026-05-01T09:03:57.999Z</time></trkpt><trkpt lat="41.6944455247196" lon="13.235889363163395"><ele>245.0</ele><time>2026-05-01T09:03:58.999Z</time></trkpt><trkpt lat="41.69448771267646" lon="13.236016736895454"><ele>245.0</ele><time>2026-05-01T09:03:59.999Z</time></trkpt><trkpt lat="41.69452810821039" lon="13.236168174664861"><ele>245.0</ele><time>2026-05-01T09:04:00.999Z</time></trkpt><trkpt lat="41.694553555355064" lon="13.236339890207502"><ele>245.0</ele><time>2026-05-01T09:04:01.999Z</time></trkpt><trkpt lat="41.694557589479544" lon="13.23653586747476"><ele>245.25</ele><time>2026-05-01T09:04:02.999Z</time></trkpt><trkpt lat="41.694577032462256" lon="13.236731806533797"><ele>245.5</ele><time>2026-05-01T09:04:03.999Z</time></trkpt><trkpt lat="41.694615965449024" lon="13.236929715279924"><ele>245.75</ele><time>2026-05-01T09:04:04.999Z</time></trkpt><trkpt lat="41.694637998801" lon="13.237126539917167"><ele>246.0</ele><time>2026-05-01T09:04:05.999Z</time></trkpt><trkpt lat="41.69466292916275" lon="13.237307217909395"><ele>246.25</ele><time>2026-05-01T09:04:06.999Z</time></trkpt><trkpt lat="41.694699614955596" lon="13.237477182476487"><ele>246.5</ele><time>2026-05-01T09:04:07.998Z</time></trkpt><trkpt lat="41.69475046835623" lon="13.237627809680191"><ele>246.75</ele><time>2026-05-01T09:04:08.998Z</time></trkpt><trkpt lat="41.69480487223364" lon="13.237773385683594"><ele>247.0</ele><time>2026-05-01T09:04:09.998Z</time></trkpt><trkpt lat="41.694851696359294" lon="13.23792931219469"><ele>247.0</ele><time>2026-05-01T09:04:10.998Z</time></trkpt><trkpt lat="41.6948614605981" lon="13.238095909000615"><ele>247.0</ele><time>2026-05-01T09:04:12Z</time></trkpt><trkpt lat="41.69486023894705" lon="13.23825435493334"><ele>247.0</ele><time>2026-05-01T09:04:13Z</time></trkpt><trkpt lat="41.6948369702908" lon="13.238415342467594"><ele>247.0</ele><time>2026-05-01T09:04:14Z</time></trkpt><trkpt lat="41.69481712849669" lon="13.238576661954445"><ele>247.0</ele><time>2026-05-01T09:04:15Z</time></trkpt><trkpt lat="41.69476910707305" lon="13.238712067793688"><ele>247.0</ele><time>2026-05-01T09:04:16Z</time></trkpt><trkpt lat="41.69471026507123" lon="13.238807924730173"><ele>247.0</ele><time>2026-05-01T09:04:17Z</time></trkpt><trkpt lat="41.69468093392685" lon="13.23891113103284"><ele>247.0</ele><time>2026-05-01T09:04:18Z</time></trkpt><trkpt lat="41.694699559686086" lon="13.239043388487614"><ele>247.0</ele><time>2026-05-01T09:04:19Z</time></trkpt><trkpt lat="41.694698626704614" lon="13.2391845238944"><ele>247.25</ele><time>2026-05-01T09:04:20Z</time></trkpt><trkpt lat="41.694687044077334" lon="13.239353911989586"><ele>247.5</ele><time>2026-05-01T09:04:21Z</time></trkpt><trkpt lat="41.694687044077874" lon="13.239548226163821"><ele>247.75</ele><time>2026-05-01T09:04:22Z</time></trkpt><trkpt lat="41.69468704407901" lon="13.239747073132504"><ele>248.0</ele><time>2026-05-01T09:04:23Z</time></trkpt><trkpt lat="41.694695167209204" lon="13.239929625535632"><ele>248.25</ele><time>2026-05-01T09:04:24Z</time></trkpt><trkpt lat="41.69470006027388" lon="13.240104587420626"><ele>248.5</ele><time>2026-05-01T09:04:25Z</time></trkpt><trkpt lat="41.69470015233638" lon="13.240256631330805"><ele>248.75</ele><time>2026-05-01T09:04:26Z</time></trkpt><trkpt lat="41.694699747715845" lon="13.240401309504925"><ele>249.0</ele><time>2026-05-01T09:04:27Z</time></trkpt><trkpt lat="41.69470639780443" lon="13.240548140173276"><ele>249.39999999999998</ele><time>2026-05-01T09:04:28Z</time></trkpt><trkpt lat="41.694725803492986" lon="13.240683222834903"><ele>249.79999999999998</ele><time>2026-05-01T09:04:29Z</time></trkpt><trkpt lat="41.6947631549659" lon="13.240802045971112"><ele>250.20000000000002</ele><time>2026-05-01T09:04:30Z</time></trkpt><trkpt lat="41.694814198614736" lon="13.240916437431604"><ele>250.60000000000002</ele><time>2026-05-01T09:04:31Z</time></trkpt><trkpt lat="41.694858681505" lon="13.241020499844504"><ele>251.0</ele><time>2026-05-01T09:04:32Z</time></trkpt><trkpt lat="41.69488909434816" lon="13.24112251154079"><ele>251.00000000000003</ele><time>2026-05-01T09:04:33Z</time></trkpt><trkpt lat="41.69490774776908" lon="13.241227244089977"><ele>251.0</ele><time>2026-05-01T09:04:34Z</time></trkpt><trkpt lat="41.69491983737636" lon="13.241334636826771"><ele>251.0</ele><time>2026-05-01T09:04:35Z</time></trkpt><trkpt lat="41.694924721872574" lon="13.24143683711756"><ele>251.0</ele><time>2026-05-01T09:04:36Z</time></trkpt><trkpt lat="41.69493474754007" lon="13.241537274277343"><ele>251.00000000000003</ele><time>2026-05-01T09:04:37Z</time></trkpt><trkpt lat="41.6949579896146" lon="13.241634320010533"><ele>251.0</ele><time>2026-05-01T09:04:38Z</time></trkpt><trkpt lat="41.69498646229933" lon="13.241715145973824"><ele>250.83333333333334</ele><time>2026-05-01T09:04:39Z</time></trkpt><trkpt lat="41.69503668631583" lon="13.241853608254997"><ele>250.66666666666669</ele><time>2026-05-01T09:04:41Z</time></trkpt><trkpt lat="41.69507755664118" lon="13.241960148755902"><ele>250.5</ele><time>2026-05-01T09:04:43Z</time></trkpt><trkpt lat="41.69510293270236" lon="13.242052660740969"><ele>250.33333333333331</ele><time>2026-05-01T09:04:45Z</time></trkpt><trkpt lat="41.69515898303511" lon="13.242112702387546"><ele>250.16666666666666</ele><time>2026-05-01T09:04:47Z</time></trkpt><trkpt lat="41.695196853448834" lon="13.242191678362612"><ele>250.0</ele><time>2026-05-01T09:04:51Z</time></trkpt><trkpt lat="41.695321012351904" lon="13.242043843175518"><ele>250.0</ele><time>2026-05-01T09:04:52Z</time></trkpt><trkpt lat="41.69538343358062" lon="13.241942368300707"><ele>250.0</ele><time>2026-05-01T09:04:53Z</time></trkpt><trkpt lat="41.695454937847344" lon="13.241843490564225"><ele>250.0</ele><time>2026-05-01T09:04:54Z</time></trkpt><trkpt lat="41.69552447137008" lon="13.241781613797794"><ele>250.0</ele><time>2026-05-01T09:04:55Z</time></trkpt><trkpt lat="41.695594615316296" lon="13.241758546576156"><ele>250.0</ele><time>2026-05-01T09:04:56Z</time></trkpt><trkpt lat="41.69572981216826" lon="13.241903524822224"><ele>250.0</ele><time>2026-05-01T09:04:58Z</time></trkpt><trkpt lat="41.69584776152155" lon="13.241991175828776"><ele>250.0</ele><time>2026-05-01T09:04:59Z</time></trkpt><trkpt lat="41.6959452121619" lon="13.242095801059962"><ele>250.0</ele><time>2026-05-01T09:05:00Z</time></trkpt><trkpt lat="41.69607799784588" lon="13.24218034202832"><ele>250.0</ele><time>2026-05-01T09:05:01Z</time></trkpt><trkpt lat="41.69617968605656" lon="13.242231929708753"><ele>250.6</ele><time>2026-05-01T09:05:02Z</time></trkpt><trkpt lat="41.6962510222551" lon="13.242266977654213"><ele>251.2</ele><time>2026-05-01T09:05:03Z</time></trkpt><trkpt lat="41.6962798369776" lon="13.242420398034232"><ele>251.8</ele><time>2026-05-01T09:05:06Z</time></trkpt><trkpt lat="41.69633258923626" lon="13.242538030432032"><ele>252.4</ele><time>2026-05-01T09:05:07Z</time></trkpt><trkpt lat="41.69639878768501" lon="13.24266096601109"><ele>253.0</ele><time>2026-05-01T09:05:08Z</time></trkpt><trkpt lat="41.69648234557236" lon="13.242770469402032"><ele>253.0</ele><time>2026-05-01T09:05:08.999Z</time></trkpt><trkpt lat="41.696553934901566" lon="13.242889724321033"><ele>253.0</ele><time>2026-05-01T09:05:09.999Z</time></trkpt><trkpt lat="41.69657686068538" lon="13.243042037915295"><ele>253.0</ele><time>2026-05-01T09:05:10.999Z</time></trkpt><trkpt lat="41.69662922953737" lon="13.243228550062133"><ele>253.0</ele><time>2026-05-01T09:05:11.999Z</time></trkpt><trkpt lat="41.696699785581" lon="13.243433528412822"><ele>253.60000000000002</ele><time>2026-05-01T09:05:12.999Z</time></trkpt><trkpt lat="41.696761526410015" lon="13.243605246771285"><ele>254.20000000000002</ele><time>2026-05-01T09:05:13.999Z</time></trkpt><trkpt lat="41.69682541067143" lon="13.243736659511761"><ele>254.8</ele><time>2026-05-01T09:05:14.999Z</time></trkpt><trkpt lat="41.69686358574312" lon="13.243854666826692"><ele>255.4</ele><time>2026-05-01T09:05:15.999Z</time></trkpt><trkpt lat="41.69686610063651" lon="13.243966279059698"><ele>256.0</ele><time>2026-05-01T09:05:16.999Z</time></trkpt><trkpt lat="41.696843430652095" lon="13.244046527716474"><ele>256.6</ele><time>2026-05-01T09:05:17.999Z</time></trkpt><trkpt lat="41.69680249887392" lon="13.244144072786328"><ele>257.20000000000005</ele><time>2026-05-01T09:05:18.999Z</time></trkpt><trkpt lat="41.696803236706295" lon="13.244293088702594"><ele>257.79999999999995</ele><time>2026-05-01T09:05:20.999Z</time></trkpt><trkpt lat="41.69689920936296" lon="13.244357031594674"><ele>258.4</ele><time>2026-05-01T09:05:21.999Z</time></trkpt><trkpt lat="41.69696292731744" lon="13.244469099930193"><ele>259.0</ele><time>2026-05-01T09:05:22.999Z</time></trkpt><trkpt lat="41.69703661158486" lon="13.244612434564669"><ele>259.25</ele><time>2026-05-01T09:05:23.999Z</time></trkpt><trkpt lat="41.69712476199475" lon="13.244772409465991"><ele>259.5</ele><time>2026-05-01T09:05:24.999Z</time></trkpt><trkpt lat="41.69718873190634" lon="13.244903650800945"><ele>259.75</ele><time>2026-05-01T09:05:25.999Z</time></trkpt><trkpt lat="41.697234682523636" lon="13.245015703704814"><ele>260.0</ele><time>2026-05-01T09:05:26.999Z</time></trkpt><trkpt lat="41.69728244620489" lon="13.24515161962606"><ele>262.5</ele><time>2026-05-01T09:05:27.999Z</time></trkpt><trkpt lat="41.6973391519677" lon="13.245313257309045"><ele>265.0</ele><time>2026-05-01T09:05:28.999Z</time></trkpt><trkpt lat="41.69740012507651" lon="13.2454781015498"><ele>267.5</ele><time>2026-05-01T09:05:29.999Z</time></trkpt><trkpt lat="41.697459103079154" lon="13.24564296875842"><ele>270.0</ele><time>2026-05-01T09:05:30.999Z</time></trkpt><trkpt lat="41.69751889135147" lon="13.245784116485723"><ele>271.6</ele><time>2026-05-01T09:05:31.999Z</time></trkpt><trkpt lat="41.6975634932181" lon="13.245893841427863"><ele>273.2</ele><time>2026-05-01T09:05:32.999Z</time></trkpt><trkpt lat="41.6975968269207" lon="13.245992410590192"><ele>274.8</ele><time>2026-05-01T09:05:33.999Z</time></trkpt><trkpt lat="41.697615687322134" lon="13.246115112717064"><ele>276.4</ele><time>2026-05-01T09:05:35.999Z</time></trkpt><trkpt lat="41.697633120872126" lon="13.24621640576542"><ele>278.0</ele><time>2026-05-01T09:06:07.999Z</time></trkpt><trkpt lat="41.697672260336546" lon="13.246353557511453"><ele>278.0</ele><time>2026-05-01T09:06:09.999Z</time></trkpt><trkpt lat="41.69771103238141" lon="13.246460548383562"><ele>278.0</ele><time>2026-05-01T09:06:10.999Z</time></trkpt><trkpt lat="41.697756027872956" lon="13.24657014403532"><ele>278.0</ele><time>2026-05-01T09:06:11.999Z</time></trkpt><trkpt lat="41.697807674401204" lon="13.246685536755033"><ele>278.0</ele><time>2026-05-01T09:06:12.999Z</time></trkpt><trkpt lat="41.69786393730661" lon="13.24680323788271"><ele>278.0</ele><time>2026-05-01T09:06:13.998Z</time></trkpt><trkpt lat="41.69792022236965" lon="13.24690395372127"><ele>279.2</ele><time>2026-05-01T09:06:14.998Z</time></trkpt><trkpt lat="41.697976176708906" lon="13.24697573711068"><ele>280.4</ele><time>2026-05-01T09:06:15.998Z</time></trkpt><trkpt lat="41.698049949468285" lon="13.247055276611395"><ele>281.59999999999997</ele><time>2026-05-01T09:06:16.998Z</time></trkpt><trkpt lat="41.69813163134693" lon="13.247130792780046"><ele>282.8</ele><time>2026-05-01T09:06:18Z</time></trkpt><trkpt lat="41.69821011132818" lon="13.247225243444758"><ele>284.0</ele><time>2026-05-01T09:06:19Z</time></trkpt><trkpt lat="41.69828992577102" lon="13.24730817917377"><ele>285.59999999999997</ele><time>2026-05-01T09:06:20Z</time></trkpt><trkpt lat="41.69836485015909" lon="13.247388382925552"><ele>287.2</ele><time>2026-05-01T09:06:21Z</time></trkpt><trkpt lat="41.69842844090445" lon="13.247473432290745"><ele>288.79999999999995</ele><time>2026-05-01T09:06:22Z</time></trkpt><trkpt lat="41.698491688130396" lon="13.247572621647885"><ele>290.4</ele><time>2026-05-01T09:06:23Z</time></trkpt><trkpt lat="41.69856416709804" lon="13.247683656779904"><ele>292.0</ele><time>2026-05-01T09:06:24Z</time></trkpt><trkpt lat="41.698643678441805" lon="13.247788865351861"><ele>292.0</ele><time>2026-05-01T09:06:25Z</time></trkpt><trkpt lat="41.698720476459826" lon="13.247879090426744"><ele>292.0</ele><time>2026-05-01T09:06:26Z</time></trkpt><trkpt lat="41.69880930393399" lon="13.24798290418419"><ele>292.0</ele><time>2026-05-01T09:06:27Z</time></trkpt><trkpt lat="41.69890502547458" lon="13.248095542761025"><ele>292.0</ele><time>2026-05-01T09:06:28Z</time></trkpt><trkpt lat="41.6990050059634" lon="13.248204694588576"><ele>293.8</ele><time>2026-05-01T09:06:29Z</time></trkpt><trkpt lat="41.69909285684083" lon="13.248292484716133"><ele>295.6</ele><time>2026-05-01T09:06:30Z</time></trkpt><trkpt lat="41.699168506629185" lon="13.248368836612046"><ele>297.40000000000003</ele><time>2026-05-01T09:06:31Z</time></trkpt><trkpt lat="41.69922065873843" lon="13.24843880760935"><ele>299.2</ele><time>2026-05-01T09:06:32Z</time></trkpt><trkpt lat="41.69925082498243" lon="13.248601286095777"><ele>301.0</ele><time>2026-05-01T09:06:34Z</time></trkpt><trkpt lat="41.69926083996827" lon="13.248720647763255"><ele>301.0</ele><time>2026-05-01T09:06:35Z</time></trkpt><trkpt lat="41.699278348550266" lon="13.248843535009252"><ele>301.0</ele><time>2026-05-01T09:06:36Z</time></trkpt><trkpt lat="41.699302596420665" lon="13.24893896941644"><ele>301.0</ele><time>2026-05-01T09:06:37Z</time></trkpt><trkpt lat="41.69932113466934" lon="13.249021152408497"><ele>301.0</ele><time>2026-05-01T09:06:48Z</time></trkpt><trkpt lat="41.69935247383351" lon="13.249104026902504"><ele>301.0</ele><time>2026-05-01T09:06:49Z</time></trkpt><trkpt lat="41.69938699277332" lon="13.249190553840897"><ele>301.0</ele><time>2026-05-01T09:06:50Z</time></trkpt><trkpt lat="41.69943242326945" lon="13.24927850591494"><ele>304.0</ele><time>2026-05-01T09:06:51Z</time></trkpt><trkpt lat="41.69948936372156" lon="13.249346041711814"><ele>307.0</ele><time>2026-05-01T09:06:52Z</time></trkpt><trkpt lat="41.699538410842315" lon="13.249435015858497"><ele>310.0</ele><time>2026-05-01T09:06:53Z</time></trkpt><trkpt lat="41.69959115399332" lon="13.249506794360187"><ele>313.0</ele><time>2026-05-01T09:06:54Z</time></trkpt><trkpt lat="41.699709117360655" lon="13.249551474786823"><ele>316.0</ele><time>2026-05-01T09:06:56Z</time></trkpt><trkpt lat="41.69977969347656" lon="13.249551894285098"><ele>319.0</ele><time>2026-05-01T09:06:57Z</time></trkpt><trkpt lat="41.6998557268167" lon="13.249562959432305"><ele>319.0</ele><time>2026-05-01T09:06:58Z</time></trkpt><trkpt lat="41.699900662832924" lon="13.249644028946577"><ele>319.0</ele><time>2026-05-01T09:06:59Z</time></trkpt><trkpt lat="41.699970374455056" lon="13.249709199222409"><ele>319.0</ele><time>2026-05-01T09:07:00Z</time></trkpt><trkpt lat="41.700069845651875" lon="13.24973262203617"><ele>319.0</ele><time>2026-05-01T09:07:01Z</time></trkpt><trkpt lat="41.70017683413321" lon="13.249766838274292"><ele>319.0</ele><time>2026-05-01T09:07:02Z</time></trkpt><trkpt lat="41.70025555611576" lon="13.249843749696716"><ele>320.2</ele><time>2026-05-01T09:07:03Z</time></trkpt><trkpt lat="41.700316551755606" lon="13.24990735992177"><ele>321.4</ele><time>2026-05-01T09:07:04Z</time></trkpt><trkpt lat="41.700364169279084" lon="13.24997258327615"><ele>322.6</ele><time>2026-05-01T09:07:05.999Z</time></trkpt><trkpt lat="41.700314917112856" lon="13.250140314340277"><ele>323.8</ele><time>2026-05-01T09:07:08.999Z</time></trkpt><trkpt lat="41.70030877908133" lon="13.250264371669326"><ele>325.0</ele><time>2026-05-01T09:07:09.999Z</time></trkpt><trkpt lat="41.70030982456554" lon="13.25039124983222"><ele>325.0</ele><time>2026-05-01T09:07:10.999Z</time></trkpt><trkpt lat="41.7003373341345" lon="13.250520437323582"><ele>325.0</ele><time>2026-05-01T09:07:11.999Z</time></trkpt><trkpt lat="41.700379902944476" lon="13.250654699003947"><ele>325.0</ele><time>2026-05-01T09:07:12.999Z</time></trkpt><trkpt lat="41.700414226041815" lon="13.250788581260354"><ele>325.0</ele><time>2026-05-01T09:07:13.999Z</time></trkpt><trkpt lat="41.70043364113909" lon="13.250931733838174"><ele>325.0</ele><time>2026-05-01T09:07:14.999Z</time></trkpt><trkpt lat="41.7004299107392" lon="13.251077727737712"><ele>326.2</ele><time>2026-05-01T09:07:15.999Z</time></trkpt><trkpt lat="41.70040226095609" lon="13.251207101669637"><ele>327.4</ele><time>2026-05-01T09:07:16.999Z</time></trkpt><trkpt lat="41.700342348071736" lon="13.251308455617597"><ele>328.6</ele><time>2026-05-01T09:07:17.999Z</time></trkpt><trkpt lat="41.7002676647084" lon="13.251400196205008"><ele>329.8</ele><time>2026-05-01T09:07:18.999Z</time></trkpt><trkpt lat="41.70020437878666" lon="13.251463882353379"><ele>331.0</ele><time>2026-05-01T09:07:19.999Z</time></trkpt><trkpt lat="41.70011479328336" lon="13.251575943065182"><ele>332.5</ele><time>2026-05-01T09:07:21.999Z</time></trkpt><trkpt lat="41.70005119843025" lon="13.251633275059474"><ele>334.0</ele><time>2026-05-01T09:07:22.999Z</time></trkpt><trkpt lat="41.700008872228324" lon="13.251728271749883"><ele>335.5</ele><time>2026-05-01T09:07:23.999Z</time></trkpt><trkpt lat="41.699989288174194" lon="13.251836911454888"><ele>337.0</ele><time>2026-05-01T09:07:24.999Z</time></trkpt><trkpt lat="41.70000879703614" lon="13.251966193556441"><ele>338.5</ele><time>2026-05-01T09:07:25.999Z</time></trkpt><trkpt lat="41.700030649546456" lon="13.252089070365866"><ele>340.0</ele><time>2026-05-01T09:07:26.999Z</time></trkpt><trkpt lat="41.700051521901855" lon="13.252194058540946"><ele>340.0</ele><time>2026-05-01T09:07:27.999Z</time></trkpt><trkpt lat="41.7000839597711" lon="13.252288217348895"><ele>340.0</ele><time>2026-05-01T09:07:28.999Z</time></trkpt><trkpt lat="41.700082750088036" lon="13.252383364117255"><ele>340.0</ele><time>2026-05-01T09:07:29.999Z</time></trkpt><trkpt lat="41.70010282367632" lon="13.252526413454571"><ele>340.0</ele><time>2026-05-01T09:07:31.999Z</time></trkpt><trkpt lat="41.70012495423554" lon="13.252646889381323"><ele>340.0</ele><time>2026-05-01T09:07:33.999Z</time></trkpt><trkpt lat="41.70017308098287" lon="13.25280092774238"><ele>340.3333333333333</ele><time>2026-05-01T09:07:35.999Z</time></trkpt><trkpt lat="41.700202242213216" lon="13.252886575680467"><ele>340.66666666666663</ele><time>2026-05-01T09:07:36.999Z</time></trkpt><trkpt lat="41.700246262797585" lon="13.25296815538363"><ele>341.0</ele><time>2026-05-01T09:07:37.999Z</time></trkpt><trkpt lat="41.700255399344194" lon="13.253062159431748"><ele>341.3333333333333</ele><time>2026-05-01T09:07:38.999Z</time></trkpt><trkpt lat="41.70027634310934" lon="13.25315720643042"><ele>341.6666666666667</ele><time>2026-05-01T09:07:39.999Z</time></trkpt><trkpt lat="41.7002847023724" lon="13.25324584877307"><ele>342.0</ele><time>2026-05-01T09:07:40.999Z</time></trkpt><trkpt lat="41.700285045514995" lon="13.253400849612849"><ele>342.3333333333333</ele><time>2026-05-01T09:07:42.999Z</time></trkpt><trkpt lat="41.70027728856572" lon="13.253485681488023"><ele>342.6666666666667</ele><time>2026-05-01T09:07:43.999Z</time></trkpt><trkpt lat="41.70026690894776" lon="13.253595476253663"><ele>343.0</ele><time>2026-05-01T09:07:44.999Z</time></trkpt><trkpt lat="41.700236209825235" lon="13.253701007131596"><ele>343.33333333333337</ele><time>2026-05-01T09:07:45.999Z</time></trkpt><trkpt lat="41.700202220765945" lon="13.253811582147614"><ele>343.6666666666667</ele><time>2026-05-01T09:07:46.999Z</time></trkpt><trkpt lat="41.70016790123539" lon="13.253934642156505"><ele>344.0</ele><time>2026-05-01T09:07:47.999Z</time></trkpt><trkpt lat="41.70014240924322" lon="13.25407052542846"><ele>346.4</ele><time>2026-05-01T09:07:48.999Z</time></trkpt><trkpt lat="41.70009236850525" lon="13.254184505300634"><ele>348.79999999999995</ele><time>2026-05-01T09:07:49.999Z</time></trkpt><trkpt lat="41.70004044675285" lon="13.25428769459473"><ele>351.20000000000005</ele><time>2026-05-01T09:07:50.999Z</time></trkpt><trkpt lat="41.69998743632084" lon="13.254388796067404"><ele>353.6</ele><time>2026-05-01T09:07:51.999Z</time></trkpt><trkpt lat="41.6999398963954" lon="13.254489736822118"><ele>356.0</ele><time>2026-05-01T09:07:52.999Z</time></trkpt><trkpt lat="41.6998972887067" lon="13.254575404611042"><ele>356.0</ele><time>2026-05-01T09:07:53.999Z</time></trkpt><trkpt lat="41.69985210836766" lon="13.254662332850407"><ele>356.0</ele><time>2026-05-01T09:07:54.999Z</time></trkpt><trkpt lat="41.69980802490886" lon="13.254756272192058"><ele>356.0</ele><time>2026-05-01T09:07:55.999Z</time></trkpt><trkpt lat="41.69974180226761" lon="13.254883804985745"><ele>356.0</ele><time>2026-05-01T09:07:57.999Z</time></trkpt><trkpt lat="41.69970067801892" lon="13.255008943817336"><ele>356.0</ele><time>2026-05-01T09:07:59.999Z</time></trkpt><trkpt lat="41.6996787363452" lon="13.25512164633832"><ele>357.83333333333337</ele><time>2026-05-01T09:08:01.999Z</time></trkpt><trkpt lat="41.699666502786975" lon="13.255208131388263"><ele>359.6666666666667</ele><time>2026-05-01T09:08:05.999Z</time></trkpt><trkpt lat="41.699649631693106" lon="13.25532938489962"><ele>361.5</ele><time>2026-05-01T09:08:07.999Z</time></trkpt><trkpt lat="41.69963311809453" lon="13.255448069120119"><ele>363.3333333333333</ele><time>2026-05-01T09:08:09.998Z</time></trkpt><trkpt lat="41.69961598624656" lon="13.25557119687981"><ele>365.16666666666663</ele><time>2026-05-01T09:08:11.998Z</time></trkpt><trkpt lat="41.69960182535371" lon="13.255672972833404"><ele>367.0</ele><time>2026-05-01T09:08:14.998Z</time></trkpt><trkpt lat="41.69959220066304" lon="13.255758661724265"><ele>365.6</ele><time>2026-05-01T09:08:21.998Z</time></trkpt><trkpt lat="41.69957809517346" lon="13.25587141281292"><ele>364.20000000000005</ele><time>2026-05-01T09:08:27Z</time></trkpt><trkpt lat="41.69955452197022" lon="13.255968088503417"><ele>362.8</ele><time>2026-05-01T09:08:29Z</time></trkpt><trkpt lat="41.699524307497256" lon="13.256065039220411"><ele>361.4</ele><time>2026-05-01T09:08:31Z</time></trkpt><trkpt lat="41.69944460894588" lon="13.256141306284544"><ele>360.0</ele><time>2026-05-01T09:08:33Z</time></trkpt><trkpt lat="41.699331358957295" lon="13.25615397037469"><ele>360.0</ele><time>2026-05-01T09:08:35Z</time></trkpt><trkpt lat="41.69923703282939" lon="13.256214284381741"><ele>360.0</ele><time>2026-05-01T09:08:37Z</time></trkpt><trkpt lat="41.69914629726876" lon="13.256246597765365"><ele>360.0</ele><time>2026-05-01T09:08:39Z</time></trkpt><trkpt lat="41.69907038837856" lon="13.256279946549093"><ele>360.0</ele><time>2026-05-01T09:08:41Z</time></trkpt><trkpt lat="41.698994061420464" lon="13.256325608514336"><ele>360.0</ele><time>2026-05-01T09:08:44Z</time></trkpt><trkpt lat="41.69892454544695" lon="13.256356580772486"><ele>360.0</ele><time>2026-05-01T09:08:52Z</time></trkpt><trkpt lat="41.698843078819934" lon="13.256426075935252"><ele>361.75</ele><time>2026-05-01T09:08:54Z</time></trkpt><trkpt lat="41.69879664994067" lon="13.25649448624058"><ele>363.5</ele><time>2026-05-01T09:08:56Z</time></trkpt><trkpt lat="41.698750464508294" lon="13.256553104272898"><ele>365.25</ele><time>2026-05-01T09:09:00Z</time></trkpt><trkpt lat="41.69870569606755" lon="13.256618544294284"><ele>367.0</ele><time>2026-05-01T09:09:30.999Z</time></trkpt><trkpt lat="41.69901874417972" lon="13.256726124415605"><ele>367.0</ele><time>2026-05-01T09:09:37.999Z</time></trkpt><trkpt lat="41.699113740527864" lon="13.256748639569553"><ele>367.0</ele><time>2026-05-01T09:09:39.999Z</time></trkpt><trkpt lat="41.69918630864987" lon="13.256750844918447"><ele>367.0</ele><time>2026-05-01T09:09:41.999Z</time></trkpt><trkpt lat="41.699294371059665" lon="13.25674539428895"><ele>367.0</ele><time>2026-05-01T09:09:43.999Z</time></trkpt><trkpt lat="41.69938780368748" lon="13.256729808504923"><ele>367.0</ele><time>2026-05-01T09:09:45.999Z</time></trkpt><trkpt lat="41.69947943668301" lon="13.256715826998295"><ele>367.8</ele><time>2026-05-01T09:09:47.999Z</time></trkpt><trkpt lat="41.69957593700804" lon="13.256723806347278"><ele>368.6</ele><time>2026-05-01T09:09:49.999Z</time></trkpt><trkpt lat="41.699680830884006" lon="13.256761167393726"><ele>369.40000000000003</ele><time>2026-05-01T09:09:51.999Z</time></trkpt><trkpt lat="41.69978941577054" lon="13.256814800261296"><ele>370.20000000000005</ele><time>2026-05-01T09:09:53.999Z</time></trkpt><trkpt lat="41.69988500652283" lon="13.25686038405136"><ele>371.0</ele><time>2026-05-01T09:09:55.999Z</time></trkpt><trkpt lat="41.69996177266076" lon="13.256896275632158"><ele>371.0</ele><time>2026-05-01T09:09:57.999Z</time></trkpt><trkpt lat="41.70004769682385" lon="13.256964857845869"><ele>371.0</ele><time>2026-05-01T09:09:59.999Z</time></trkpt><trkpt lat="41.70013788839033" lon="13.25701209761085"><ele>371.0</ele><time>2026-05-01T09:10:01.999Z</time></trkpt><trkpt lat="41.70022928664239" lon="13.25704365052667"><ele>371.0</ele><time>2026-05-01T09:10:03.999Z</time></trkpt><trkpt lat="41.70032100706453" lon="13.257102367490274"><ele>371.0</ele><time>2026-05-01T09:10:05.999Z</time></trkpt><trkpt lat="41.70041706993734" lon="13.257157544563018"><ele>369.83333333333337</ele><time>2026-05-01T09:10:07.999Z</time></trkpt><trkpt lat="41.700509599942485" lon="13.257206276407967"><ele>368.6666666666667</ele><time>2026-05-01T09:10:09.999Z</time></trkpt><trkpt lat="41.70060425308685" lon="13.257280367138062"><ele>367.5</ele><time>2026-05-01T09:10:11.999Z</time></trkpt><trkpt lat="41.700666574388976" lon="13.257340975640512"><ele>366.3333333333333</ele><time>2026-05-01T09:10:13.999Z</time></trkpt><trkpt lat="41.700727233022945" lon="13.25736695773441"><ele>365.16666666666663</ele><time>2026-05-01T09:10:51Z</time></trkpt><trkpt lat="41.70080560420869" lon="13.25741830049274"><ele>364.0</ele><time>2026-05-01T09:10:52.999Z</time></trkpt><trkpt lat="41.70088116784341" lon="13.257459033460032"><ele>364.0</ele><time>2026-05-01T09:10:53.999Z</time></trkpt><trkpt lat="41.70096814346502" lon="13.257480752604922"><ele>364.0</ele><time>2026-05-01T09:10:54.999Z</time></trkpt><trkpt lat="41.70106126509213" lon="13.257494899367138"><ele>364.0</ele><time>2026-05-01T09:10:55.999Z</time></trkpt><trkpt lat="41.70117016762692" lon="13.257505786919626"><ele>364.0</ele><time>2026-05-01T09:10:56.999Z</time></trkpt><trkpt lat="41.70128345964171" lon="13.257520513764042"><ele>364.0</ele><time>2026-05-01T09:10:57.999Z</time></trkpt><trkpt lat="41.7014051190833" lon="13.257554154445216"><ele>366.0</ele><time>2026-05-01T09:10:58.999Z</time></trkpt><trkpt lat="41.70153127766411" lon="13.25760199684871"><ele>368.0</ele><time>2026-05-01T09:10:59.999Z</time></trkpt><trkpt lat="41.70165855878833" lon="13.257680035867338"><ele>370.0</ele><time>2026-05-01T09:11:00.999Z</time></trkpt><trkpt lat="41.70179037552289" lon="13.257727383564491"><ele>372.0</ele><time>2026-05-01T09:11:01.999Z</time></trkpt><trkpt lat="41.70191613883097" lon="13.257801420953859"><ele>373.5</ele><time>2026-05-01T09:11:02.999Z</time></trkpt><trkpt lat="41.70204195254606" lon="13.257886551205216"><ele>375.0</ele><time>2026-05-01T09:11:03.999Z</time></trkpt><trkpt lat="41.70214205329153" lon="13.258013292078392"><ele>376.5</ele><time>2026-05-01T09:11:04.999Z</time></trkpt><trkpt lat="41.70223666012426" lon="13.25812791077824"><ele>378.0</ele><time>2026-05-01T09:11:05.999Z</time></trkpt><trkpt lat="41.70232844787885" lon="13.258237020730258"><ele>378.0</ele><time>2026-05-01T09:11:06.999Z</time></trkpt><trkpt lat="41.702395086929656" lon="13.258351085088194"><ele>378.0</ele><time>2026-05-01T09:11:07.999Z</time></trkpt><trkpt lat="41.70246410721922" lon="13.258465413097955"><ele>378.0</ele><time>2026-05-01T09:11:08.999Z</time></trkpt><trkpt lat="41.7025261388786" lon="13.258592076657035"><ele>378.0</ele><time>2026-05-01T09:11:09.999Z</time></trkpt><trkpt lat="41.702545905773135" lon="13.258735213132296"><ele>378.0</ele><time>2026-05-01T09:11:10.999Z</time></trkpt><trkpt lat="41.70258146379631" lon="13.258861060111672"><ele>377.0</ele><time>2026-05-01T09:11:11.999Z</time></trkpt><trkpt lat="41.702587771920385" lon="13.258986271757099"><ele>376.0</ele><time>2026-05-01T09:11:12.999Z</time></trkpt><trkpt lat="41.70258701458951" lon="13.259102472017464"><ele>375.0</ele><time>2026-05-01T09:11:13.999Z</time></trkpt><trkpt lat="41.70257943146562" lon="13.259205770455333"><ele>374.0</ele><time>2026-05-01T09:11:14.999Z</time></trkpt><trkpt lat="41.70257210975554" lon="13.259310842110002"><ele>373.0</ele><time>2026-05-01T09:11:15.999Z</time></trkpt><trkpt lat="41.70256848040996" lon="13.259420239942273"><ele>372.0</ele><time>2026-05-01T09:11:16.999Z</time></trkpt><trkpt lat="41.70254661067357" lon="13.259515332884437"><ele>372.0</ele><time>2026-05-01T09:11:17.999Z</time></trkpt><trkpt lat="41.702543258813414" lon="13.259687764939656"><ele>372.0</ele><time>2026-05-01T09:11:19.999Z</time></trkpt><trkpt lat="41.70249831252938" lon="13.259841109488589"><ele>372.0</ele><time>2026-05-01T09:11:21.999Z</time></trkpt><trkpt lat="41.702473491967254" lon="13.259922216086599"><ele>372.0</ele><time>2026-05-01T09:11:22.999Z</time></trkpt><trkpt lat="41.70244869331851" lon="13.26000651687276"><ele>372.0</ele><time>2026-05-01T09:11:23.999Z</time></trkpt><trkpt lat="41.70242234329577" lon="13.26010440867656"><ele>372.3333333333333</ele><time>2026-05-01T09:11:24.999Z</time></trkpt><trkpt lat="41.702412085431334" lon="13.260216546829918"><ele>372.6666666666667</ele><time>2026-05-01T09:11:25.999Z</time></trkpt><trkpt lat="41.70236920644892" lon="13.260318622880757"><ele>373.0</ele><time>2026-05-01T09:11:26.999Z</time></trkpt><trkpt lat="41.702341566192246" lon="13.260429132510327"><ele>373.33333333333337</ele><time>2026-05-01T09:11:27.999Z</time></trkpt><trkpt lat="41.702316738707395" lon="13.260526517838768"><ele>373.6666666666667</ele><time>2026-05-01T09:11:28.999Z</time></trkpt><trkpt lat="41.702305393712535" lon="13.26063125552203"><ele>374.0</ele><time>2026-05-01T09:11:29.999Z</time></trkpt><trkpt lat="41.70227737085423" lon="13.260727081785891"><ele>374.83333333333337</ele><time>2026-05-01T09:11:30.999Z</time></trkpt><trkpt lat="41.702250994349086" lon="13.260827347380083"><ele>375.6666666666667</ele><time>2026-05-01T09:11:31.999Z</time></trkpt><trkpt lat="41.70220752777723" lon="13.26091413218777"><ele>376.5</ele><time>2026-05-01T09:11:32.999Z</time></trkpt><trkpt lat="41.702178823200875" lon="13.261008835221949"><ele>377.3333333333333</ele><time>2026-05-01T09:11:33.999Z</time></trkpt><trkpt lat="41.70215131176252" lon="13.261099982968622"><ele>378.16666666666663</ele><time>2026-05-01T09:11:34.999Z</time></trkpt><trkpt lat="41.7021370809138" lon="13.261187495906501"><ele>379.0</ele><time>2026-05-01T09:11:35.999Z</time></trkpt><trkpt lat="41.70210646610335" lon="13.261325218731155"><ele>378.8333333333333</ele><time>2026-05-01T09:11:37.999Z</time></trkpt><trkpt lat="41.7020653453843" lon="13.26145645435224"><ele>378.66666666666663</ele><time>2026-05-01T09:11:39.999Z</time></trkpt><trkpt lat="41.70213270698076" lon="13.261564270618525"><ele>378.5</ele><time>2026-05-01T09:11:40.999Z</time></trkpt><trkpt lat="41.70218336810126" lon="13.26162987315334"><ele>378.3333333333333</ele><time>2026-05-01T09:11:41.999Z</time></trkpt><trkpt lat="41.70223360139685" lon="13.261686089252896"><ele>378.1666666666667</ele><time>2026-05-01T09:11:42.999Z</time></trkpt><trkpt lat="41.702287370227516" lon="13.261742595219705"><ele>378.0</ele><time>2026-05-01T09:11:43.999Z</time></trkpt><trkpt lat="41.70234559921284" lon="13.261793246273028"><ele>378.0</ele><time>2026-05-01T09:11:44.999Z</time></trkpt><trkpt lat="41.70240269178784" lon="13.261837107915856"><ele>378.0</ele><time>2026-05-01T09:11:45.998Z</time></trkpt><trkpt lat="41.702468076513135" lon="13.261883777483083"><ele>378.0</ele><time>2026-05-01T09:11:46.998Z</time></trkpt><trkpt lat="41.7025393826723" lon="13.261929100725418"><ele>378.0</ele><time>2026-05-01T09:11:47.998Z</time></trkpt><trkpt lat="41.70261508259983" lon="13.261977228180058"><ele>378.0</ele><time>2026-05-01T09:11:48.998Z</time></trkpt><trkpt lat="41.702692113373644" lon="13.262032217890287"><ele>378.0</ele><time>2026-05-01T09:11:49.998Z</time></trkpt><trkpt lat="41.70277282095049" lon="13.262083755817232"><ele>377.59999999999997</ele><time>2026-05-01T09:11:50.998Z</time></trkpt><trkpt lat="41.70285678762727" lon="13.262137246490424"><ele>377.2</ele><time>2026-05-01T09:11:51.998Z</time></trkpt><trkpt lat="41.70294346775785" lon="13.26219072562254"><ele>376.8</ele><time>2026-05-01T09:11:52.998Z</time></trkpt><trkpt lat="41.70303192518935" lon="13.26224326859422"><ele>376.4</ele><time>2026-05-01T09:11:53.998Z</time></trkpt><trkpt lat="41.703120880303885" lon="13.262300770962106"><ele>376.0</ele><time>2026-05-01T09:11:54.998Z</time></trkpt><trkpt lat="41.703211886953625" lon="13.262374581256076"><ele>376.0</ele><time>2026-05-01T09:11:55.998Z</time></trkpt><trkpt lat="41.70329917704327" lon="13.2624597673137"><ele>376.0</ele><time>2026-05-01T09:11:56.998Z</time></trkpt><trkpt lat="41.70338205493575" lon="13.262550280719312"><ele>376.0</ele><time>2026-05-01T09:11:57.998Z</time></trkpt><trkpt lat="41.703443847933734" lon="13.262664059142628"><ele>376.0</ele><time>2026-05-01T09:11:58.998Z</time></trkpt><trkpt lat="41.70351080349079" lon="13.26275601280019"><ele>376.0</ele><time>2026-05-01T09:11:59.998Z</time></trkpt><trkpt lat="41.70357489436745" lon="13.262842929916918"><ele>375.8333333333333</ele><time>2026-05-01T09:12:00.998Z</time></trkpt><trkpt lat="41.703635152883386" lon="13.262923631519618"><ele>375.66666666666663</ele><time>2026-05-01T09:12:01.998Z</time></trkpt><trkpt lat="41.703704234957996" lon="13.262983186305961"><ele>375.5</ele><time>2026-05-01T09:12:02.998Z</time></trkpt><trkpt lat="41.703758550757485" lon="13.263061575437199"><ele>375.3333333333333</ele><time>2026-05-01T09:12:03.998Z</time></trkpt><trkpt lat="41.703794993825724" lon="13.263157585468884"><ele>375.1666666666667</ele><time>2026-05-01T09:12:04.998Z</time></trkpt><trkpt lat="41.70381810409286" lon="13.2632435407674"><ele>375.0</ele><time>2026-05-01T09:12:05.998Z</time></trkpt><trkpt lat="41.70383339681305" lon="13.263337133282711"><ele>375.0</ele><time>2026-05-01T09:12:06.998Z</time></trkpt><trkpt lat="41.703842342597135" lon="13.263440271551813"><ele>375.0</ele><time>2026-05-01T09:12:07.998Z</time></trkpt><trkpt lat="41.70383849023135" lon="13.263538214763201"><ele>375.0</ele><time>2026-05-01T09:12:08.998Z</time></trkpt><trkpt lat="41.703843353110955" lon="13.263698113882928"><ele>375.0</ele><time>2026-05-01T09:12:10.998Z</time></trkpt><trkpt lat="41.70386352321428" lon="13.263803963733634"><ele>375.0</ele><time>2026-05-01T09:12:12.998Z</time></trkpt><trkpt lat="41.70390295320317" lon="13.263899705584938"><ele>375.0</ele><time>2026-05-01T09:12:23.998Z</time></trkpt><trkpt lat="41.70398291659689" lon="13.264041151939328"><ele>373.6666666666667</ele><time>2026-05-01T09:12:25.998Z</time></trkpt><trkpt lat="41.704024709451716" lon="13.264112818429973"><ele>372.3333333333333</ele><time>2026-05-01T09:12:26.998Z</time></trkpt><trkpt lat="41.70406914634889" lon="13.26418901889984"><ele>371.0</ele><time>2026-05-01T09:12:27.998Z</time></trkpt><trkpt lat="41.70412655345892" lon="13.264255111457059"><ele>369.66666666666663</ele><time>2026-05-01T09:12:28.998Z</time></trkpt><trkpt lat="41.70416693915169" lon="13.264349785825551"><ele>368.3333333333333</ele><time>2026-05-01T09:12:29.998Z</time></trkpt><trkpt lat="41.70421187810568" lon="13.26444843630534"><ele>367.0</ele><time>2026-05-01T09:12:30.998Z</time></trkpt><trkpt lat="41.70425488769402" lon="13.264555819500648"><ele>367.0</ele><time>2026-05-01T09:12:31.998Z</time></trkpt><trkpt lat="41.70427866983684" lon="13.264678332435581"><ele>367.0</ele><time>2026-05-01T09:12:32.998Z</time></trkpt><trkpt lat="41.70431427188844" lon="13.264797764177978"><ele>367.0</ele><time>2026-05-01T09:12:33.998Z</time></trkpt><trkpt lat="41.70437373825" lon="13.26505669290616"><ele>367.0</ele><time>2026-05-01T09:12:35.999Z</time></trkpt><trkpt lat="41.704389064958846" lon="13.265177285438607"><ele>366.0</ele><time>2026-05-01T09:12:36.999Z</time></trkpt><trkpt lat="41.704387812358384" lon="13.26528486124464"><ele>365.0</ele><time>2026-05-01T09:12:37.999Z</time></trkpt><trkpt lat="41.704378174325484" lon="13.265387844281307"><ele>364.0</ele><time>2026-05-01T09:12:38.999Z</time></trkpt><trkpt lat="41.70437865126263" lon="13.265489966915482"><ele>363.0</ele><time>2026-05-01T09:12:39.999Z</time></trkpt><trkpt lat="41.704362655425484" lon="13.265585374981283"><ele>362.0</ele><time>2026-05-01T09:12:40.999Z</time></trkpt><trkpt lat="41.70434920297583" lon="13.26568054080923"><ele>361.0</ele><time>2026-05-01T09:12:41.999Z</time></trkpt><trkpt lat="41.70433900779282" lon="13.265778985785337"><ele>360.8333333333333</ele><time>2026-05-01T09:12:42.999Z</time></trkpt><trkpt lat="41.70431193472892" lon="13.265878734367083"><ele>360.66666666666663</ele><time>2026-05-01T09:12:43.999Z</time></trkpt><trkpt lat="41.70430379970447" lon="13.26598186823411"><ele>360.5</ele><time>2026-05-01T09:12:44.999Z</time></trkpt><trkpt lat="41.70429110709475" lon="13.266076026958483"><ele>360.3333333333333</ele><time>2026-05-01T09:12:45.999Z</time></trkpt><trkpt lat="41.7042875035063" lon="13.266180651008293"><ele>360.1666666666667</ele><time>2026-05-01T09:12:46.999Z</time></trkpt><trkpt lat="41.704250540706774" lon="13.266279097751056"><ele>360.0</ele><time>2026-05-01T09:12:47.999Z</time></trkpt><trkpt lat="41.70421768459366" lon="13.26639466696341"><ele>359.4</ele><time>2026-05-01T09:12:48.999Z</time></trkpt><trkpt lat="41.70418726218733" lon="13.266529344945125"><ele>358.8</ele><time>2026-05-01T09:12:49.999Z</time></trkpt><trkpt lat="41.704137519764124" lon="13.266644030436455"><ele>358.20000000000005</ele><time>2026-05-01T09:12:50.999Z</time></trkpt><trkpt lat="41.704093534705166" lon="13.266755409808512"><ele>357.6</ele><time>2026-05-01T09:12:51.999Z</time></trkpt><trkpt lat="41.70405800785544" lon="13.266865541646498"><ele>357.0</ele><time>2026-05-01T09:12:52.999Z</time></trkpt><trkpt lat="41.70403949748725" lon="13.266968517655163"><ele>357.0</ele><time>2026-05-01T09:12:53.999Z</time></trkpt><trkpt lat="41.70404843870279" lon="13.267064581881288"><ele>357.0</ele><time>2026-05-01T09:12:54.999Z</time></trkpt><trkpt lat="41.7040834118543" lon="13.267150319287811"><ele>357.0</ele><time>2026-05-01T09:12:55.999Z</time></trkpt><trkpt lat="41.704133750299754" lon="13.267226777022751"><ele>357.0</ele><time>2026-05-01T09:12:56.999Z</time></trkpt><trkpt lat="41.704188688084734" lon="13.267298180158635"><ele>357.0</ele><time>2026-05-01T09:12:57.999Z</time></trkpt><trkpt lat="41.70423754541835" lon="13.2673585154117"><ele>357.0</ele><time>2026-05-01T09:12:58.999Z</time></trkpt><trkpt lat="41.70431571872769" lon="13.267421800946856"><ele>359.3333333333333</ele><time>2026-05-01T09:13:00.999Z</time></trkpt><trkpt lat="41.704432113932626" lon="13.267470261842266"><ele>361.6666666666667</ele><time>2026-05-01T09:13:02.999Z</time></trkpt><trkpt lat="41.70449785639002" lon="13.267477910675696"><ele>364.0</ele><time>2026-05-01T09:13:03.999Z</time></trkpt><trkpt lat="41.7045690830917" lon="13.26747462148209"><ele>366.33333333333337</ele><time>2026-05-01T09:13:04.999Z</time></trkpt><trkpt lat="41.70464114544797" lon="13.267465738861816"><ele>368.6666666666667</ele><time>2026-05-01T09:13:05.999Z</time></trkpt><trkpt lat="41.704712038361265" lon="13.267455625067567"><ele>371.0</ele><time>2026-05-01T09:13:06.999Z</time></trkpt><trkpt lat="41.70478494831325" lon="13.267448336384648"><ele>371.0</ele><time>2026-05-01T09:13:07.999Z</time></trkpt><trkpt lat="41.704855814739005" lon="13.26743980492979"><ele>371.0</ele><time>2026-05-01T09:13:08.999Z</time></trkpt><trkpt lat="41.70492866665533" lon="13.267428117809695"><ele>371.0</ele><time>2026-05-01T09:13:09.999Z</time></trkpt><trkpt lat="41.70500278201029" lon="13.267413024092585"><ele>371.0</ele><time>2026-05-01T09:13:10.999Z</time></trkpt><trkpt lat="41.70507841900745" lon="13.26740094888123"><ele>371.0</ele><time>2026-05-01T09:13:11.999Z</time></trkpt><trkpt lat="41.705154422853745" lon="13.26740212655432"><ele>371.0</ele><time>2026-05-01T09:13:12.999Z</time></trkpt><trkpt lat="41.7052229563922" lon="13.267422654521173"><ele>371.0</ele><time>2026-05-01T09:13:13.999Z</time></trkpt><trkpt lat="41.70529236310353" lon="13.267462404103508"><ele>371.2857142857143</ele><time>2026-05-01T09:13:14.999Z</time></trkpt><trkpt lat="41.70535830737041" lon="13.267514315543252"><ele>371.57142857142856</ele><time>2026-05-01T09:13:15.999Z</time></trkpt><trkpt lat="41.70541601341883" lon="13.267583074478145"><ele>371.8571428571429</ele><time>2026-05-01T09:13:16.999Z</time></trkpt><trkpt lat="41.70546679009535" lon="13.267665553669595"><ele>372.1428571428571</ele><time>2026-05-01T09:13:17.999Z</time></trkpt><trkpt lat="41.70551021932645" lon="13.267744841560878"><ele>372.42857142857144</ele><time>2026-05-01T09:13:18.999Z</time></trkpt><trkpt lat="41.70555491723393" lon="13.267822489083164"><ele>372.7142857142857</ele><time>2026-05-01T09:13:19.999Z</time></trkpt><trkpt lat="41.705584914175205" lon="13.267904184431872"><ele>373.0</ele><time>2026-05-01T09:13:20.999Z</time></trkpt><trkpt lat="41.70559686558421" lon="13.268001321569676"><ele>373.0</ele><time>2026-05-01T09:13:21.999Z</time></trkpt><trkpt lat="41.705566222365526" lon="13.2681070053788"><ele>373.0</ele><time>2026-05-01T09:13:22.999Z</time></trkpt><trkpt lat="41.705559603398235" lon="13.268227207251629"><ele>373.0</ele><time>2026-05-01T09:13:23.999Z</time></trkpt><trkpt lat="41.70553121949111" lon="13.26833712246734"><ele>373.0</ele><time>2026-05-01T09:13:24.999Z</time></trkpt><trkpt lat="41.705506709476005" lon="13.268422919278153"><ele>373.0</ele><time>2026-05-01T09:13:25.999Z</time></trkpt><trkpt lat="41.7054997855128" lon="13.26853047879089"><ele>373.0</ele><time>2026-05-01T09:13:27.999Z</time></trkpt><trkpt lat="41.705528989978696" lon="13.268696003815391"><ele>376.25</ele><time>2026-05-01T09:13:53.999Z</time></trkpt><trkpt lat="41.70551629702787" lon="13.2688229263879"><ele>379.5</ele><time>2026-05-01T09:13:54.999Z</time></trkpt><trkpt lat="41.70553753772331" lon="13.268961018741871"><ele>382.75</ele><time>2026-05-01T09:13:55.999Z</time></trkpt><trkpt lat="41.705541145670615" lon="13.26913077756948"><ele>386.0</ele><time>2026-05-01T09:13:56.999Z</time></trkpt><trkpt lat="41.705548721672315" lon="13.269309927807164"><ele>388.3333333333333</ele><time>2026-05-01T09:13:57.999Z</time></trkpt><trkpt lat="41.705562360878226" lon="13.269503121725995"><ele>390.66666666666663</ele><time>2026-05-01T09:13:58.999Z</time></trkpt><trkpt lat="41.7055664918785" lon="13.269717693918533"><ele>393.0</ele><time>2026-05-01T09:13:59.999Z</time></trkpt><trkpt lat="41.70559642903275" lon="13.269935858795819"><ele>394.33333333333337</ele><time>2026-05-01T09:14:00.999Z</time></trkpt><trkpt lat="41.70564170738283" lon="13.270146728475167"><ele>395.6666666666667</ele><time>2026-05-01T09:14:01.999Z</time></trkpt><trkpt lat="41.705638434482694" lon="13.270368427117374"><ele>397.0</ele><time>2026-05-01T09:14:02.999Z</time></trkpt><trkpt lat="41.705615306291236" lon="13.270590518282061"><ele>397.33333333333337</ele><time>2026-05-01T09:14:03.999Z</time></trkpt><trkpt lat="41.70563545788653" lon="13.270810312251536"><ele>397.66666666666663</ele><time>2026-05-01T09:14:04.999Z</time></trkpt><trkpt lat="41.70566752166027" lon="13.271034466874184"><ele>398.0</ele><time>2026-05-01T09:14:05.999Z</time></trkpt><trkpt lat="41.70569184059201" lon="13.271249335107553"><ele>399.0</ele><time>2026-05-01T09:14:06.999Z</time></trkpt><trkpt lat="41.70570887808201" lon="13.27145111971063"><ele>400.0</ele><time>2026-05-01T09:14:07.999Z</time></trkpt><trkpt lat="41.70568275415114" lon="13.271640435465853"><ele>401.0</ele><time>2026-05-01T09:14:08.999Z</time></trkpt><trkpt lat="41.705649383058905" lon="13.271822311518761"><ele>402.0</ele><time>2026-05-01T09:14:09.999Z</time></trkpt><trkpt lat="41.7056450439775" lon="13.271980957819633"><ele>402.0</ele><time>2026-05-01T09:14:10.999Z</time></trkpt><trkpt lat="41.70561506947" lon="13.27215293238063"><ele>402.0</ele><time>2026-05-01T09:14:11.999Z</time></trkpt><trkpt lat="41.70578592388084" lon="13.272265079685377"><ele>402.0</ele><time>2026-05-01T09:14:12.999Z</time></trkpt><trkpt lat="41.70588980679135" lon="13.272405157470667"><ele>402.0</ele><time>2026-05-01T09:14:13.999Z</time></trkpt><trkpt lat="41.70599454493827" lon="13.272553914639955"><ele>402.0</ele><time>2026-05-01T09:14:14.999Z</time></trkpt><trkpt lat="41.706077513164274" lon="13.272719941102727"><ele>402.0</ele><time>2026-05-01T09:14:15.999Z</time></trkpt><trkpt lat="41.70608850030171" lon="13.272927660451865"><ele>402.33333333333337</ele><time>2026-05-01T09:14:16.999Z</time></trkpt><trkpt lat="41.706081949075674" lon="13.27314431563429"><ele>402.6666666666667</ele><time>2026-05-01T09:14:17.999Z</time></trkpt><trkpt lat="41.70607001718291" lon="13.273381661729179"><ele>403.0</ele><time>2026-05-01T09:14:18.999Z</time></trkpt><trkpt lat="41.70605712817562" lon="13.273620684500177"><ele>403.0</ele><time>2026-05-01T09:14:19.999Z</time></trkpt><trkpt lat="41.706057442467866" lon="13.273861031236908"><ele>403.0</ele><time>2026-05-01T09:14:20.998Z</time></trkpt><trkpt lat="41.70604391200403" lon="13.27408260032707"><ele>403.0</ele><time>2026-05-01T09:14:21.998Z</time></trkpt><trkpt lat="41.70603109137296" lon="13.274271389826131"><ele>403.75</ele><time>2026-05-01T09:14:22.998Z</time></trkpt><trkpt lat="41.70602883701368" lon="13.274439306169308"><ele>404.5</ele><time>2026-05-01T09:14:23.998Z</time></trkpt><trkpt lat="41.70605223749316" lon="13.274611166773168"><ele>405.25</ele><time>2026-05-01T09:14:24.998Z</time></trkpt><trkpt lat="41.706111525679724" lon="13.274770385252861"><ele>406.0</ele><time>2026-05-01T09:14:25.998Z</time></trkpt><trkpt lat="41.706221319645465" lon="13.274904322293636"><ele>414.0</ele><time>2026-05-01T09:14:26.998Z</time></trkpt><trkpt lat="41.706367171561304" lon="13.275027806744536"><ele>422.0</ele><time>2026-05-01T09:14:27.998Z</time></trkpt><trkpt lat="41.706532285703375" lon="13.275168408259429"><ele>430.0</ele><time>2026-05-01T09:14:28.998Z</time></trkpt><trkpt lat="41.70670714911439" lon="13.275343541414435"><ele>434.0</ele><time>2026-05-01T09:14:29.998Z</time></trkpt><trkpt lat="41.70691157178587" lon="13.275492758974673"><ele>438.0</ele><time>2026-05-01T09:14:30.998Z</time></trkpt><trkpt lat="41.70710259179032" lon="13.275674277543427"><ele>438.0</ele><time>2026-05-01T09:14:31.998Z</time></trkpt><trkpt lat="41.707301562195894" lon="13.275874977185412"><ele>438.0</ele><time>2026-05-01T09:14:32.998Z</time></trkpt><trkpt lat="41.707512048101165" lon="13.276092177823664"><ele>438.0</ele><time>2026-05-01T09:14:33.998Z</time></trkpt><trkpt lat="41.70771681400286" lon="13.276313267398843"><ele>438.0</ele><time>2026-05-01T09:14:34.998Z</time></trkpt><trkpt lat="41.70790996649712" lon="13.276571495327607"><ele>445.5</ele><time>2026-05-01T09:14:35.998Z</time></trkpt><trkpt lat="41.708105998892385" lon="13.27680403096313"><ele>453.0</ele><time>2026-05-01T09:14:36.998Z</time></trkpt><trkpt lat="41.70829492568689" lon="13.276999083781249"><ele>453.0</ele><time>2026-05-01T09:14:37.998Z</time></trkpt><trkpt lat="41.708468582153216" lon="13.277213071612582"><ele>453.0</ele><time>2026-05-01T09:14:38.998Z</time></trkpt><trkpt lat="41.70863474007139" lon="13.277449313805585"><ele>460.5</ele><time>2026-05-01T09:14:39.998Z</time></trkpt><trkpt lat="41.708769576780206" lon="13.277720153931588"><ele>468.0</ele><time>2026-05-01T09:14:40.998Z</time></trkpt><trkpt lat="41.708911352656344" lon="13.27798300799108"><ele>460.5</ele><time>2026-05-01T09:14:41.999Z</time></trkpt><trkpt lat="41.70907647378942" lon="13.278225811689055"><ele>453.0</ele><time>2026-05-01T09:14:42.999Z</time></trkpt><trkpt lat="41.70923953787854" lon="13.278472219534406"><ele>459.5</ele><time>2026-05-01T09:14:43.999Z</time></trkpt><trkpt lat="41.709411239612045" lon="13.27871415885168"><ele>466.0</ele><time>2026-05-01T09:14:44.999Z</time></trkpt><trkpt lat="41.70957731451198" lon="13.278947422286407"><ele>466.0</ele><time>2026-05-01T09:14:45.999Z</time></trkpt><trkpt lat="41.70973094332405" lon="13.2791616897186"><ele>466.0</ele><time>2026-05-01T09:14:46.999Z</time></trkpt><trkpt lat="41.709875450410806" lon="13.279360375254537"><ele>466.0</ele><time>2026-05-01T09:14:47.999Z</time></trkpt><trkpt lat="41.71000272857212" lon="13.279566982544175"><ele>466.0</ele><time>2026-05-01T09:14:48.999Z</time></trkpt><trkpt lat="41.71015001223996" lon="13.279744182804787"><ele>466.0</ele><time>2026-05-01T09:14:49.999Z</time></trkpt><trkpt lat="41.7102695275474" lon="13.279928161702609"><ele>466.0</ele><time>2026-05-01T09:14:50.999Z</time></trkpt><trkpt lat="41.71039205820179" lon="13.280104828651359"><ele>468.33333333333337</ele><time>2026-05-01T09:14:51.999Z</time></trkpt><trkpt lat="41.71053609458902" lon="13.28027271087104"><ele>470.66666666666663</ele><time>2026-05-01T09:14:52.999Z</time></trkpt><trkpt lat="41.710704812437214" lon="13.280433949395492"><ele>473.0</ele><time>2026-05-01T09:14:53.999Z</time></trkpt><trkpt lat="41.71087510872678" lon="13.280588676874022"><ele>473.66666666666663</ele><time>2026-05-01T09:14:54.999Z</time></trkpt><trkpt lat="41.71103716863102" lon="13.28073983307369"><ele>474.33333333333337</ele><time>2026-05-01T09:14:55.999Z</time></trkpt><trkpt lat="41.71119026826664" lon="13.280881530854037"><ele>475.0</ele><time>2026-05-01T09:14:56.999Z</time></trkpt><trkpt lat="41.7113320300796" lon="13.281007383938126"><ele>475.0</ele><time>2026-05-01T09:14:57.999Z</time></trkpt><trkpt lat="41.71146198819147" lon="13.281117580428038"><ele>475.0</ele><time>2026-05-01T09:14:58.999Z</time></trkpt><trkpt lat="41.711585852015716" lon="13.28121863253267"><ele>475.0</ele><time>2026-05-01T09:14:59.999Z</time></trkpt><trkpt lat="41.71171086717502" lon="13.281315825223798"><ele>475.0</ele><time>2026-05-01T09:15:00.999Z</time></trkpt><trkpt lat="41.71184003061852" lon="13.281446739230296"><ele>474.33333333333337</ele><time>2026-05-01T09:15:01.999Z</time></trkpt><trkpt lat="41.71201044514963" lon="13.281533602664757"><ele>473.66666666666663</ele><time>2026-05-01T09:15:02.999Z</time></trkpt><trkpt lat="41.712164883799225" lon="13.281642560684535"><ele>473.0</ele><time>2026-05-01T09:15:03.999Z</time></trkpt><trkpt lat="41.712311146928" lon="13.281744178384667"><ele>473.0</ele><time>2026-05-01T09:15:04.999Z</time></trkpt><trkpt lat="41.71245598392104" lon="13.281845085657318"><ele>473.0</ele><time>2026-05-01T09:15:05.999Z</time></trkpt><trkpt lat="41.712613928227476" lon="13.281959399993843"><ele>473.0</ele><time>2026-05-01T09:15:06.999Z</time></trkpt><trkpt lat="41.712770995716745" lon="13.282092751586283"><ele>470.3333333333333</ele><time>2026-05-01T09:15:07.999Z</time></trkpt><trkpt lat="41.712917646942955" lon="13.282233583313092"><ele>467.66666666666663</ele><time>2026-05-01T09:15:08.999Z</time></trkpt><trkpt lat="41.713054211905664" lon="13.28237066670807"><ele>465.0</ele><time>2026-05-01T09:15:09.999Z</time></trkpt><trkpt lat="41.71318285579928" lon="13.282511326779133"><ele>465.0</ele><time>2026-05-01T09:15:10.999Z</time></trkpt><trkpt lat="41.71330306515687" lon="13.282654136085013"><ele>465.0</ele><time>2026-05-01T09:15:11.999Z</time></trkpt><trkpt lat="41.71341948147949" lon="13.282796071531893"><ele>465.0</ele><time>2026-05-01T09:15:12.999Z</time></trkpt><trkpt lat="41.71353486570704" lon="13.282944863996656"><ele>464.66666666666663</ele><time>2026-05-01T09:15:13.999Z</time></trkpt><trkpt lat="41.713662860275136" lon="13.28311209473861"><ele>464.3333333333333</ele><time>2026-05-01T09:15:14.999Z</time></trkpt><trkpt lat="41.71380261051162" lon="13.28329342185785"><ele>464.0</ele><time>2026-05-01T09:15:15.999Z</time></trkpt><trkpt lat="41.713933720803304" lon="13.283468935713236"><ele>464.0</ele><time>2026-05-01T09:15:16.999Z</time></trkpt><trkpt lat="41.714064711530604" lon="13.283643859780149"><ele>464.0</ele><time>2026-05-01T09:15:17.999Z</time></trkpt><trkpt lat="41.7142016352309" lon="13.283830258044718"><ele>464.0</ele><time>2026-05-01T09:15:18.999Z</time></trkpt><trkpt lat="41.714335827851045" lon="13.284027123780994"><ele>463.66666666666663</ele><time>2026-05-01T09:15:19.999Z</time></trkpt><trkpt lat="41.714465021939645" lon="13.284250874022144"><ele>463.33333333333337</ele><time>2026-05-01T09:15:20.999Z</time></trkpt><trkpt lat="41.714577225738324" lon="13.284489064397189"><ele>463.0</ele><time>2026-05-01T09:15:21.999Z</time></trkpt><trkpt lat="41.71467677001476" lon="13.284721744071039"><ele>461.0</ele><time>2026-05-01T09:15:22.999Z</time></trkpt><trkpt lat="41.71477403235777" lon="13.284932684295764"><ele>459.0</ele><time>2026-05-01T09:15:23.999Z</time></trkpt><trkpt lat="41.71488163396343" lon="13.285123547627203"><ele>457.0</ele><time>2026-05-01T09:15:24.999Z</time></trkpt><trkpt lat="41.714995906810884" lon="13.285308488939059"><ele>457.0</ele><time>2026-05-01T09:15:25.999Z</time></trkpt><trkpt lat="41.715111704503975" lon="13.285491425584182"><ele>457.0</ele><time>2026-05-01T09:15:26.999Z</time></trkpt><trkpt lat="41.7152180618622" lon="13.285672336347766"><ele>457.0</ele><time>2026-05-01T09:15:27.999Z</time></trkpt><trkpt lat="41.71530792280729" lon="13.285860349514302"><ele>458.33333333333337</ele><time>2026-05-01T09:15:28.999Z</time></trkpt><trkpt lat="41.71537812005497" lon="13.286052978825817"><ele>459.66666666666663</ele><time>2026-05-01T09:15:29.999Z</time></trkpt><trkpt lat="41.715438308612285" lon="13.286237167018959"><ele>461.0</ele><time>2026-05-01T09:15:30.999Z</time></trkpt><trkpt lat="41.715517326249625" lon="13.286397744246495"><ele>457.66666666666663</ele><time>2026-05-01T09:15:31.999Z</time></trkpt><trkpt lat="41.71562572713518" lon="13.286518997358412"><ele>454.33333333333337</ele><time>2026-05-01T09:15:32.999Z</time></trkpt><trkpt lat="41.71576201111714" lon="13.286593788634628"><ele>451.0</ele><time>2026-05-01T09:15:33.999Z</time></trkpt><trkpt lat="41.715924159275964" lon="13.28663191864012"><ele>452.75</ele><time>2026-05-01T09:15:34.999Z</time></trkpt><trkpt lat="41.71608890872585" lon="13.286650769167878"><ele>454.5</ele><time>2026-05-01T09:15:35.999Z</time></trkpt><trkpt lat="41.71622961536671" lon="13.286679009255668"><ele>456.25</ele><time>2026-05-01T09:15:36.999Z</time></trkpt><trkpt lat="41.71634416471938" lon="13.28670901820652"><ele>458.0</ele><time>2026-05-01T09:15:37.999Z</time></trkpt><trkpt lat="41.71644766515909" lon="13.286739667777587"><ele>458.0</ele><time>2026-05-01T09:15:38.999Z</time></trkpt><trkpt lat="41.71655355112972" lon="13.286771406046451"><ele>457.99999999999994</ele><time>2026-05-01T09:15:39.999Z</time></trkpt><trkpt lat="41.71665194222041" lon="13.286801389082871"><ele>457.99999999999994</ele><time>2026-05-01T09:15:40.999Z</time></trkpt><trkpt lat="41.716757290261825" lon="13.286827082062432"><ele>458.0</ele><time>2026-05-01T09:15:41.999Z</time></trkpt><trkpt lat="41.71686973097928" lon="13.286837017423501"><ele>458.0</ele><time>2026-05-01T09:15:42.999Z</time></trkpt><trkpt lat="41.71698076373929" lon="13.28681735569768"><ele>458.66666666666663</ele><time>2026-05-01T09:15:43.999Z</time></trkpt><trkpt lat="41.71707447126438" lon="13.286777174369522"><ele>459.3333333333333</ele><time>2026-05-01T09:15:44.999Z</time></trkpt><trkpt lat="41.71715447021006" lon="13.286732884522575"><ele>460.0</ele><time>2026-05-01T09:15:45.999Z</time></trkpt><trkpt lat="41.71722816303681" lon="13.286696903705865"><ele>460.66666666666663</ele><time>2026-05-01T09:15:46.999Z</time></trkpt><trkpt lat="41.71729554149553" lon="13.286664823535679"><ele>461.3333333333333</ele><time>2026-05-01T09:15:47.999Z</time></trkpt><trkpt lat="41.7173569876388" lon="13.286636826364534"><ele>462.0</ele><time>2026-05-01T09:15:48.999Z</time></trkpt><trkpt lat="41.71742239077594" lon="13.286609212021231"><ele>462.0</ele><time>2026-05-01T09:15:49.999Z</time></trkpt><trkpt lat="41.71750309464088" lon="13.286572362701405"><ele>462.00000000000006</ele><time>2026-05-01T09:15:50.999Z</time></trkpt><trkpt lat="41.71759229187448" lon="13.28653504208997"><ele>462.00000000000006</ele><time>2026-05-01T09:15:51.999Z</time></trkpt><trkpt lat="41.71769612394444" lon="13.286495403470315"><ele>462.0</ele><time>2026-05-01T09:15:52.999Z</time></trkpt><trkpt lat="41.717803817974996" lon="13.286455802209888"><ele>462.0</ele><time>2026-05-01T09:15:53.999Z</time></trkpt><trkpt lat="41.71790106339244" lon="13.28642737510853"><ele>464.8333333333333</ele><time>2026-05-01T09:15:54.999Z</time></trkpt><trkpt lat="41.71798427303068" lon="13.286398061392665"><ele>467.66666666666663</ele><time>2026-05-01T09:15:55.999Z</time></trkpt><trkpt lat="41.718056892797925" lon="13.286367778327419"><ele>470.5</ele><time>2026-05-01T09:15:56.999Z</time></trkpt><trkpt lat="41.718123921014794" lon="13.286342855950195"><ele>473.3333333333333</ele><time>2026-05-01T09:15:57.999Z</time></trkpt><trkpt lat="41.71818959684436" lon="13.286327345459261"><ele>476.16666666666663</ele><time>2026-05-01T09:15:58.999Z</time></trkpt><trkpt lat="41.718265185229036" lon="13.286309262667203"><ele>479.0</ele><time>2026-05-01T09:15:59.999Z</time></trkpt><trkpt lat="41.71834462650533" lon="13.286289888777683"><ele>478.99999999999994</ele><time>2026-05-01T09:16:00.999Z</time></trkpt><trkpt lat="41.71842964866563" lon="13.286281127420017"><ele>479.0</ele><time>2026-05-01T09:16:01.999Z</time></trkpt><trkpt lat="41.71851623439892" lon="13.286274935141533"><ele>479.0</ele><time>2026-05-01T09:16:02.999Z</time></trkpt><trkpt lat="41.71860376312218" lon="13.286284077203229"><ele>479.0</ele><time>2026-05-01T09:16:03.999Z</time></trkpt><trkpt lat="41.71869996692656" lon="13.286301818952426"><ele>478.99999999999994</ele><time>2026-05-01T09:16:04.999Z</time></trkpt><trkpt lat="41.71878948518813" lon="13.286329647648577"><ele>479.0</ele><time>2026-05-01T09:16:05.999Z</time></trkpt><trkpt lat="41.71887009358036" lon="13.286368937758835"><ele>478.8333333333333</ele><time>2026-05-01T09:16:06.999Z</time></trkpt><trkpt lat="41.71894822039159" lon="13.286415950525907"><ele>478.66666666666663</ele><time>2026-05-01T09:16:07.999Z</time></trkpt><trkpt lat="41.71902222369196" lon="13.286467913492835"><ele>478.5</ele><time>2026-05-01T09:16:08.999Z</time></trkpt><trkpt lat="41.719090719931394" lon="13.286526380824009"><ele>478.33333333333337</ele><time>2026-05-01T09:16:09.999Z</time></trkpt><trkpt lat="41.719152599005376" lon="13.286592919173188"><ele>478.1666666666667</ele><time>2026-05-01T09:16:10.999Z</time></trkpt><trkpt lat="41.719210181831905" lon="13.286665997246365"><ele>478.0</ele><time>2026-05-01T09:16:11.999Z</time></trkpt><trkpt lat="41.71926502615867" lon="13.286735599100998"><ele>479.00000000000006</ele><time>2026-05-01T09:16:12.999Z</time></trkpt><trkpt lat="41.71932013607871" lon="13.286803064842948"><ele>480.0</ele><time>2026-05-01T09:16:13.999Z</time></trkpt><trkpt lat="41.71936677904887" lon="13.286868750813063"><ele>481.0</ele><time>2026-05-01T09:16:14.999Z</time></trkpt><trkpt lat="41.71942647686919" lon="13.286925579187336"><ele>482.0</ele><time>2026-05-01T09:16:15.999Z</time></trkpt><trkpt lat="41.7194988211863" lon="13.286979396740788"><ele>483.00000000000006</ele><time>2026-05-01T09:16:16.999Z</time></trkpt><trkpt lat="41.719561996941685" lon="13.287021785673636"><ele>484.0</ele><time>2026-05-01T09:16:17.999Z</time></trkpt><trkpt lat="41.719789083963924" lon="13.287152748763635"><ele>484.0</ele><time>2026-05-01T09:16:18.999Z</time></trkpt><trkpt lat="41.71991439939554" lon="13.287212425727581"><ele>484.0</ele><time>2026-05-01T09:16:19.999Z</time></trkpt><trkpt lat="41.72002415972428" lon="13.287254964068588"><ele>484.0</ele><time>2026-05-01T09:16:20.999Z</time></trkpt><trkpt lat="41.72013374179499" lon="13.287300221242464"><ele>484.0</ele><time>2026-05-01T09:16:21.999Z</time></trkpt><trkpt lat="41.720250225779886" lon="13.28733848328659"><ele>483.79999999999995</ele><time>2026-05-01T09:16:22.999Z</time></trkpt><trkpt lat="41.72037183715671" lon="13.287376083383089"><ele>483.59999999999997</ele><time>2026-05-01T09:16:23.999Z</time></trkpt><trkpt lat="41.72047750005317" lon="13.287416490140648"><ele>483.4</ele><time>2026-05-01T09:16:24.999Z</time></trkpt><trkpt lat="41.72055739002645" lon="13.28748704846303"><ele>483.2</ele><time>2026-05-01T09:16:25.999Z</time></trkpt><trkpt lat="41.72060995704028" lon="13.28756561457099"><ele>483.0</ele><time>2026-05-01T09:16:26.999Z</time></trkpt><trkpt lat="41.7206475236053" lon="13.287671894304134"><ele>483.0</ele><time>2026-05-01T09:16:27.999Z</time></trkpt><trkpt lat="41.72059720939763" lon="13.287806984073452"><ele>482.99999999999994</ele><time>2026-05-01T09:16:28.998Z</time></trkpt><trkpt lat="41.72050565787485" lon="13.287861220281192"><ele>482.99999999999994</ele><time>2026-05-01T09:16:29.998Z</time></trkpt><trkpt lat="41.72041735668443" lon="13.287882701758388"><ele>483.0</ele><time>2026-05-01T09:16:30.998Z</time></trkpt><trkpt lat="41.72029056603106" lon="13.287952383625605"><ele>483.0</ele><time>2026-05-01T09:16:31.998Z</time></trkpt><trkpt lat="41.720148112614446" lon="13.28803165102773"><ele>482.75</ele><time>2026-05-01T09:16:32.998Z</time></trkpt><trkpt lat="41.72001660099448" lon="13.288107237688278"><ele>482.5</ele><time>2026-05-01T09:16:33.998Z</time></trkpt><trkpt lat="41.71989246333467" lon="13.288179257119426"><ele>482.25</ele><time>2026-05-01T09:16:34.998Z</time></trkpt><trkpt lat="41.719786403738354" lon="13.28824078848652"><ele>482.0</ele><time>2026-05-01T09:16:35.998Z</time></trkpt><trkpt lat="41.71969186419572" lon="13.28832549289915"><ele>482.0</ele><time>2026-05-01T09:16:36.998Z</time></trkpt><trkpt lat="41.719604167414246" lon="13.288396124267749"><ele>482.00000000000006</ele><time>2026-05-01T09:16:37.998Z</time></trkpt><trkpt lat="41.71954209884009" lon="13.288482316947125"><ele>482.00000000000006</ele><time>2026-05-01T09:16:38.998Z</time></trkpt><trkpt lat="41.719511365500615" lon="13.288610046252815"><ele>482.0</ele><time>2026-05-01T09:16:39.998Z</time></trkpt><trkpt lat="41.719514397898735" lon="13.288767328939274"><ele>482.0</ele><time>2026-05-01T09:16:40.998Z</time></trkpt><trkpt lat="41.7195356220507" lon="13.288932520043177"><ele>484.0</ele><time>2026-05-01T09:16:41.998Z</time></trkpt><trkpt lat="41.71957016068598" lon="13.289100885783832"><ele>486.0</ele><time>2026-05-01T09:16:42.998Z</time></trkpt><trkpt lat="41.71963955635301" lon="13.289266259114541"><ele>488.0</ele><time>2026-05-01T09:16:43.998Z</time></trkpt><trkpt lat="41.719729618222104" lon="13.289407402539192"><ele>490.0</ele><time>2026-05-01T09:16:44.998Z</time></trkpt><trkpt lat="41.719817183503" lon="13.28952585567291"><ele>490.0</ele><time>2026-05-01T09:16:45.998Z</time></trkpt><trkpt lat="41.71989741033265" lon="13.289602757819651"><ele>490.0</ele><time>2026-05-01T09:16:46.998Z</time></trkpt><trkpt lat="41.7199764147278" lon="13.289608285074207"><ele>490.0</ele><time>2026-05-01T09:16:48Z</time></trkpt><trkpt lat="41.7200564149163" lon="13.289547171589833"><ele>490.0</ele><time>2026-05-01T09:16:49Z</time></trkpt><trkpt lat="41.72012848862095" lon="13.289434208803304"><ele>490.0</ele><time>2026-05-01T09:16:50Z</time></trkpt><trkpt lat="41.7201840031656" lon="13.289284981684684"><ele>494.25</ele><time>2026-05-01T09:16:51Z</time></trkpt><trkpt lat="41.72025812368211" lon="13.28916057185844"><ele>498.5</ele><time>2026-05-01T09:16:52Z</time></trkpt><trkpt lat="41.72038067677617" lon="13.28909855870312"><ele>502.75</ele><time>2026-05-01T09:16:53Z</time></trkpt><trkpt lat="41.720511818620366" lon="13.289011831617053"><ele>507.0</ele><time>2026-05-01T09:16:54Z</time></trkpt><trkpt lat="41.72066559843174" lon="13.288936091596941"><ele>504.25</ele><time>2026-05-01T09:16:55Z</time></trkpt><trkpt lat="41.720761787275386" lon="13.288807315290066"><ele>501.5</ele><time>2026-05-01T09:16:56Z</time></trkpt><trkpt lat="41.72082762084181" lon="13.288664079941702"><ele>498.75</ele><time>2026-05-01T09:16:57Z</time></trkpt><trkpt lat="41.72087511169133" lon="13.28853881336227"><ele>496.0</ele><time>2026-05-01T09:16:58Z</time></trkpt><trkpt lat="41.72093343476205" lon="13.288443545417666"><ele>496.0</ele><time>2026-05-01T09:16:59Z</time></trkpt><trkpt lat="41.72100281639201" lon="13.288362887084347"><ele>496.0</ele><time>2026-05-01T09:17:00Z</time></trkpt><trkpt lat="41.72106584831107" lon="13.288331125047337"><ele>496.0</ele><time>2026-05-01T09:17:01Z</time></trkpt><trkpt lat="41.72120214269532" lon="13.28833312877135"><ele>496.0</ele><time>2026-05-01T09:17:03Z</time></trkpt><trkpt lat="41.72127131983021" lon="13.288418010716507"><ele>496.0</ele><time>2026-05-01T09:17:04Z</time></trkpt><trkpt lat="41.72130596087872" lon="13.288529005502598"><ele>499.0</ele><time>2026-05-01T09:17:05Z</time></trkpt><trkpt lat="41.72126013648841" lon="13.288650069217875"><ele>502.0</ele><time>2026-05-01T09:17:06Z</time></trkpt><trkpt lat="41.72119772245511" lon="13.288749482067425"><ele>505.0</ele><time>2026-05-01T09:17:07Z</time></trkpt><trkpt lat="41.72114097269264" lon="13.288898599671734"><ele>508.0</ele><time>2026-05-01T09:17:08Z</time></trkpt><trkpt lat="41.72107698929387" lon="13.289075860959038"><ele>507.75</ele><time>2026-05-01T09:17:09Z</time></trkpt><trkpt lat="41.721014573552324" lon="13.28925565456919"><ele>507.5</ele><time>2026-05-01T09:17:10Z</time></trkpt><trkpt lat="41.720956822280975" lon="13.289429887967067"><ele>507.25</ele><time>2026-05-01T09:17:11Z</time></trkpt><trkpt lat="41.72092243050309" lon="13.289599948884208"><ele>507.0</ele><time>2026-05-01T09:17:12Z</time></trkpt><trkpt lat="41.720858287382505" lon="13.289752835546885"><ele>511.0</ele><time>2026-05-01T09:17:13Z</time></trkpt><trkpt lat="41.720787920582374" lon="13.289940357948119"><ele>515.0</ele><time>2026-05-01T09:17:14Z</time></trkpt><trkpt lat="41.72070215234214" lon="13.290152419563809"><ele>519.0</ele><time>2026-05-01T09:17:15Z</time></trkpt><trkpt lat="41.72060240882227" lon="13.290374255676562"><ele>519.0</ele><time>2026-05-01T09:17:16Z</time></trkpt><trkpt lat="41.72048891029289" lon="13.290576973327155"><ele>519.0</ele><time>2026-05-01T09:17:17Z</time></trkpt><trkpt lat="41.72037568187616" lon="13.290783831861889"><ele>519.0</ele><time>2026-05-01T09:17:18Z</time></trkpt><trkpt lat="41.720267681372654" lon="13.29096572429917"><ele>519.25</ele><time>2026-05-01T09:17:19Z</time></trkpt><trkpt lat="41.72018123941254" lon="13.291135555131367"><ele>519.5</ele><time>2026-05-01T09:17:20Z</time></trkpt><trkpt lat="41.72011204105246" lon="13.291280653591418"><ele>519.75</ele><time>2026-05-01T09:17:21Z</time></trkpt><trkpt lat="41.720066518127446" lon="13.291402428955667"><ele>520.0</ele><time>2026-05-01T09:17:22Z</time></trkpt><trkpt lat="41.72006354103075" lon="13.291538025082092"><ele>520.0</ele><time>2026-05-01T09:17:23Z</time></trkpt><trkpt lat="41.720116328470354" lon="13.291658060885663"><ele>520.0</ele><time>2026-05-01T09:17:24Z</time></trkpt><trkpt lat="41.7202176201909" lon="13.291731386369351"><ele>520.0</ele><time>2026-05-01T09:17:25Z</time></trkpt><trkpt lat="41.72034929092881" lon="13.291769316545214"><ele>520.0</ele><time>2026-05-01T09:17:26Z</time></trkpt><trkpt lat="41.72049393195776" lon="13.291784793247661"><ele>522.25</ele><time>2026-05-01T09:17:27Z</time></trkpt><trkpt lat="41.72063140256438" lon="13.291754030413793"><ele>524.5</ele><time>2026-05-01T09:17:28Z</time></trkpt><trkpt lat="41.72075942567073" lon="13.291660808104373"><ele>526.75</ele><time>2026-05-01T09:17:29Z</time></trkpt><trkpt lat="41.72085968655803" lon="13.291515184602027"><ele>529.0</ele><time>2026-05-01T09:17:30Z</time></trkpt><trkpt lat="41.720943317623394" lon="13.291387844270972"><ele>529.0</ele><time>2026-05-01T09:17:31Z</time></trkpt><trkpt lat="41.721023264878276" lon="13.291305898760898"><ele>529.0</ele><time>2026-05-01T09:17:32Z</time></trkpt><trkpt lat="41.72112650995744" lon="13.291277659438341"><ele>529.0</ele><time>2026-05-01T09:17:33Z</time></trkpt><trkpt lat="41.721236181040496" lon="13.291327533607475"><ele>529.0</ele><time>2026-05-01T09:17:34Z</time></trkpt><trkpt lat="41.721317506807736" lon="13.291469141718947"><ele>536.6666666666667</ele><time>2026-05-01T09:17:34.999Z</time></trkpt><trkpt lat="41.721389569749306" lon="13.291645531975886"><ele>544.3333333333334</ele><time>2026-05-01T09:17:35.999Z</time></trkpt><trkpt lat="41.72147437560771" lon="13.291829717476507"><ele>552.0</ele><time>2026-05-01T09:17:36.999Z</time></trkpt><trkpt lat="41.721544275477925" lon="13.292033965399545"><ele>552.0</ele><time>2026-05-01T09:17:37.999Z</time></trkpt><trkpt lat="41.72164097423653" lon="13.292226288765992"><ele>552.0</ele><time>2026-05-01T09:17:38.999Z</time></trkpt><trkpt lat="41.721691406020234" lon="13.292450592169118"><ele>552.0</ele><time>2026-05-01T09:17:39.999Z</time></trkpt><trkpt lat="41.72174740158296" lon="13.292676670030243"><ele>550.6666666666666</ele><time>2026-05-01T09:17:40.999Z</time></trkpt><trkpt lat="41.721783100754955" lon="13.292909789752525"><ele>549.3333333333333</ele><time>2026-05-01T09:17:41.999Z</time></trkpt><trkpt lat="41.721806935314426" lon="13.29314313098585"><ele>548.0</ele><time>2026-05-01T09:17:42.999Z</time></trkpt><trkpt lat="41.721824496422215" lon="13.293363688604394"><ele>548.0</ele><time>2026-05-01T09:17:43.999Z</time></trkpt><trkpt lat="41.72186246330094" lon="13.293571672797093"><ele>548.0</ele><time>2026-05-01T09:17:44.999Z</time></trkpt><trkpt lat="41.72189371138428" lon="13.293780024492728"><ele>548.0</ele><time>2026-05-01T09:17:45.999Z</time></trkpt><trkpt lat="41.721937182161774" lon="13.293986866465623"><ele>553.6666666666666</ele><time>2026-05-01T09:17:46.999Z</time></trkpt><trkpt lat="41.72198322192847" lon="13.294171804911086"><ele>559.3333333333334</ele><time>2026-05-01T09:17:47.999Z</time></trkpt><trkpt lat="41.72204763183742" lon="13.294358516682042"><ele>565.0</ele><time>2026-05-01T09:17:48.999Z</time></trkpt><trkpt lat="41.72229145468608" lon="13.294683090981245"><ele>565.5</ele><time>2026-05-01T09:17:50.999Z</time></trkpt><trkpt lat="41.722430692263465" lon="13.29479656151173"><ele>566.0</ele><time>2026-05-01T09:17:51.999Z</time></trkpt><trkpt lat="41.722545637843936" lon="13.294904104544345"><ele>566.5</ele><time>2026-05-01T09:17:52.999Z</time></trkpt><trkpt lat="41.72264588847285" lon="13.295001081159219"><ele>567.0</ele><time>2026-05-01T09:17:53.999Z</time></trkpt><trkpt lat="41.72273975455376" lon="13.29509229538744"><ele>567.0</ele><time>2026-05-01T09:17:54.999Z</time></trkpt><trkpt lat="41.72279768290325" lon="13.29516199732106"><ele>567.0</ele><time>2026-05-01T09:17:55.999Z</time></trkpt><trkpt lat="41.722840541567685" lon="13.295254525183363"><ele>567.0</ele><time>2026-05-01T09:17:57.999Z</time></trkpt><trkpt lat="41.722872598378856" lon="13.295358148930935"><ele>567.0</ele><time>2026-05-01T09:18:07.999Z</time></trkpt><trkpt lat="41.72289663275239" lon="13.29547731059514"><ele>567.0</ele><time>2026-05-01T09:18:08.999Z</time></trkpt><trkpt lat="41.72287684861525" lon="13.295625350332772"><ele>567.0</ele><time>2026-05-01T09:18:09.999Z</time></trkpt><trkpt lat="41.722864016773116" lon="13.295803923636786"><ele>567.5</ele><time>2026-05-01T09:18:10.999Z</time></trkpt><trkpt lat="41.72286585688306" lon="13.29599569438634"><ele>568.0</ele><time>2026-05-01T09:18:11.999Z</time></trkpt><trkpt lat="41.72285002030277" lon="13.29619676032923"><ele>568.5</ele><time>2026-05-01T09:18:12.999Z</time></trkpt><trkpt lat="41.72283622435107" lon="13.296380939183328"><ele>569.0</ele><time>2026-05-01T09:18:13.999Z</time></trkpt><trkpt lat="41.72282992063892" lon="13.296561146535426"><ele>569.0</ele><time>2026-05-01T09:18:14.999Z</time></trkpt><trkpt lat="41.72284792094411" lon="13.2967441085225"><ele>569.0</ele><time>2026-05-01T09:18:15.999Z</time></trkpt><trkpt lat="41.72291512706223" lon="13.296928321259228"><ele>569.0</ele><time>2026-05-01T09:18:16.999Z</time></trkpt><trkpt lat="41.723011213142286" lon="13.297106147601776"><ele>569.6666666666666</ele><time>2026-05-01T09:18:17.999Z</time></trkpt><trkpt lat="41.72310681838569" lon="13.297289636222317"><ele>570.3333333333334</ele><time>2026-05-01T09:18:18.999Z</time></trkpt><trkpt lat="41.723186504621545" lon="13.29748647290472"><ele>571.0</ele><time>2026-05-01T09:18:19.999Z</time></trkpt><trkpt lat="41.723254006345165" lon="13.29768749451851"><ele>571.0</ele><time>2026-05-01T09:18:20.999Z</time></trkpt><trkpt lat="41.72332482998916" lon="13.297888797773075"><ele>571.0</ele><time>2026-05-01T09:18:21.999Z</time></trkpt><trkpt lat="41.723393329603525" lon="13.298113453954098"><ele>571.0</ele><time>2026-05-01T09:18:22.999Z</time></trkpt><trkpt lat="41.72350583909769" lon="13.298319300127554"><ele>569.6666666666667</ele><time>2026-05-01T09:18:23.999Z</time></trkpt><trkpt lat="41.72360367952035" lon="13.298528514194732"><ele>568.3333333333334</ele><time>2026-05-01T09:18:24.999Z</time></trkpt><trkpt lat="41.72371537787456" lon="13.298731449196227"><ele>567.0</ele><time>2026-05-01T09:18:25.999Z</time></trkpt><trkpt lat="41.723848676615056" lon="13.29892062549122"><ele>567.0</ele><time>2026-05-01T09:18:26.999Z</time></trkpt><trkpt lat="41.72399821461974" lon="13.299094936930787"><ele>567.0</ele><time>2026-05-01T09:18:27.999Z</time></trkpt><trkpt lat="41.72414839875208" lon="13.299258963183854"><ele>567.0</ele><time>2026-05-01T09:18:28.999Z</time></trkpt><trkpt lat="41.7242888725555" lon="13.299415047160826"><ele>567.3333333333334</ele><time>2026-05-01T09:18:29.999Z</time></trkpt><trkpt lat="41.72442708222358" lon="13.299575778853649"><ele>567.6666666666667</ele><time>2026-05-01T09:18:30.999Z</time></trkpt><trkpt lat="41.72455764575433" lon="13.29975399997815"><ele>568.0</ele><time>2026-05-01T09:18:31.999Z</time></trkpt><trkpt lat="41.72472407300684" lon="13.299891426410143"><ele>568.0</ele><time>2026-05-01T09:18:32.999Z</time></trkpt><trkpt lat="41.724903783860064" lon="13.300025152609631"><ele>568.0</ele><time>2026-05-01T09:18:33.999Z</time></trkpt><trkpt lat="41.72508106652461" lon="13.300147630034173"><ele>568.0</ele><time>2026-05-01T09:18:34.999Z</time></trkpt><trkpt lat="41.72524737704408" lon="13.30026564551967"><ele>567.6666666666667</ele><time>2026-05-01T09:18:35.999Z</time></trkpt><trkpt lat="41.725399421172256" lon="13.300380914426812"><ele>567.3333333333334</ele><time>2026-05-01T09:18:36.999Z</time></trkpt><trkpt lat="41.72554775248281" lon="13.300500173215921"><ele>567.0</ele><time>2026-05-01T09:18:37.999Z</time></trkpt><trkpt lat="41.72568575105857" lon="13.300612287080124"><ele>567.0</ele><time>2026-05-01T09:18:38.999Z</time></trkpt><trkpt lat="41.72580584277703" lon="13.300716361664364"><ele>567.0</ele><time>2026-05-01T09:18:39.999Z</time></trkpt><trkpt lat="41.72588611286821" lon="13.30084503272213"><ele>567.0</ele><time>2026-05-01T09:18:40.999Z</time></trkpt><trkpt lat="41.725943769157034" lon="13.300968319520667"><ele>567.0</ele><time>2026-05-01T09:18:41.999Z</time></trkpt><trkpt lat="41.725952882288134" lon="13.301108603792686"><ele>567.0</ele><time>2026-05-01T09:18:42.999Z</time></trkpt><trkpt lat="41.72593767545175" lon="13.301267468401411"><ele>567.0</ele><time>2026-05-01T09:18:43.999Z</time></trkpt><trkpt lat="41.725817341346165" lon="13.301383330754975"><ele>567.0</ele><time>2026-05-01T09:18:44.999Z</time></trkpt><trkpt lat="41.72570080063256" lon="13.301498408855519"><ele>567.0</ele><time>2026-05-01T09:18:45.999Z</time></trkpt><trkpt lat="41.725564362800675" lon="13.301625376928103"><ele>566.6666666666666</ele><time>2026-05-01T09:18:46.999Z</time></trkpt><trkpt lat="41.72543591969643" lon="13.30176719046071"><ele>566.3333333333333</ele><time>2026-05-01T09:18:47.999Z</time></trkpt><trkpt lat="41.725306952167784" lon="13.301886902347857"><ele>566.0</ele><time>2026-05-01T09:18:48.999Z</time></trkpt><trkpt lat="41.72519933430733" lon="13.301997460619365"><ele>567.25</ele><time>2026-05-01T09:18:49.999Z</time></trkpt><trkpt lat="41.725106173699984" lon="13.302131953028017"><ele>568.5</ele><time>2026-05-01T09:18:50.999Z</time></trkpt><trkpt lat="41.725028499300564" lon="13.30229950354018"><ele>569.75</ele><time>2026-05-01T09:18:51.999Z</time></trkpt><trkpt lat="41.72497363305432" lon="13.302483320367744"><ele>571.0</ele><time>2026-05-01T09:18:53Z</time></trkpt><trkpt lat="41.72496908352522" lon="13.30267815385336"><ele>571.0</ele><time>2026-05-01T09:18:54Z</time></trkpt><trkpt lat="41.72500749711781" lon="13.30290279844607"><ele>571.0</ele><time>2026-05-01T09:18:55Z</time></trkpt><trkpt lat="41.725074266269985" lon="13.303142802709283"><ele>571.0</ele><time>2026-05-01T09:18:56Z</time></trkpt><trkpt lat="41.72513401395859" lon="13.303366090858308"><ele>570.0</ele><time>2026-05-01T09:18:57Z</time></trkpt><trkpt lat="41.72518484078961" lon="13.303570288796273"><ele>569.0</ele><time>2026-05-01T09:18:58Z</time></trkpt><trkpt lat="41.72522687587448" lon="13.30376262376363"><ele>568.0</ele><time>2026-05-01T09:18:59Z</time></trkpt><trkpt lat="41.72527733203827" lon="13.303972170092063"><ele>564.5</ele><time>2026-05-01T09:19:00Z</time></trkpt><trkpt lat="41.7253118403118" lon="13.30419109191465"><ele>561.0</ele><time>2026-05-01T09:19:01Z</time></trkpt><trkpt lat="41.725361965228885" lon="13.30438989870756"><ele>557.5</ele><time>2026-05-01T09:19:02Z</time></trkpt><trkpt lat="41.72539834321388" lon="13.304551241320693"><ele>554.0</ele><time>2026-05-01T09:19:03Z</time></trkpt><trkpt lat="41.7254134002786" lon="13.304689637601507"><ele>553.5</ele><time>2026-05-01T09:19:04Z</time></trkpt><trkpt lat="41.725382066963846" lon="13.304825046492299"><ele>553.0</ele><time>2026-05-01T09:19:05Z</time></trkpt><trkpt lat="41.7253099109826" lon="13.30494291263503"><ele>552.5</ele><time>2026-05-01T09:19:06Z</time></trkpt><trkpt lat="41.7252006502182" lon="13.305025332374004"><ele>552.0</ele><time>2026-05-01T09:19:07Z</time></trkpt><trkpt lat="41.72507289720718" lon="13.305078583111163"><ele>553.3333333333334</ele><time>2026-05-01T09:19:08Z</time></trkpt><trkpt lat="41.724926723277186" lon="13.305104879545029"><ele>554.6666666666667</ele><time>2026-05-01T09:19:09Z</time></trkpt><trkpt lat="41.72477429301954" lon="13.305061935298275"><ele>556.0</ele><time>2026-05-01T09:19:10Z</time></trkpt><trkpt lat="41.72460698451279" lon="13.305031309519844"><ele>556.0</ele><time>2026-05-01T09:19:11Z</time></trkpt><trkpt lat="41.72443588449136" lon="13.304983540676787"><ele>556.0</ele><time>2026-05-01T09:19:12Z</time></trkpt><trkpt lat="41.72425985053413" lon="13.304959136497713"><ele>556.0</ele><time>2026-05-01T09:19:13Z</time></trkpt><trkpt lat="41.72409578601724" lon="13.304957665108295"><ele>555.25</ele><time>2026-05-01T09:19:14Z</time></trkpt><trkpt lat="41.72393975435715" lon="13.30496354154796"><ele>554.5</ele><time>2026-05-01T09:19:15Z</time></trkpt><trkpt lat="41.72379700482572" lon="13.30498550716662"><ele>553.75</ele><time>2026-05-01T09:19:16Z</time></trkpt><trkpt lat="41.7236681215683" lon="13.305048121405186"><ele>553.0</ele><time>2026-05-01T09:19:17Z</time></trkpt><trkpt lat="41.72356461569271" lon="13.30513242034495"><ele>554.4</ele><time>2026-05-01T09:19:18Z</time></trkpt><trkpt lat="41.72349990872087" lon="13.305221377278334"><ele>555.8</ele><time>2026-05-01T09:19:19Z</time></trkpt><trkpt lat="41.72342794071446" lon="13.305290207701836"><ele>557.2</ele><time>2026-05-01T09:19:20Z</time></trkpt><trkpt lat="41.723342513892376" lon="13.305344563358872"><ele>558.6</ele><time>2026-05-01T09:19:21Z</time></trkpt><trkpt lat="41.72328432515935" lon="13.305421957634572"><ele>560.0</ele><time>2026-05-01T09:19:22Z</time></trkpt><trkpt lat="41.723265699575876" lon="13.305556771755647"><ele>560.5</ele><time>2026-05-01T09:19:23Z</time></trkpt><trkpt lat="41.72329698584769" lon="13.305722852163814"><ele>561.0</ele><time>2026-05-01T09:19:24Z</time></trkpt><trkpt lat="41.72334593816907" lon="13.305904356698143"><ele>561.5</ele><time>2026-05-01T09:19:25Z</time></trkpt><trkpt lat="41.72338889113787" lon="13.306088843224131"><ele>562.0</ele><time>2026-05-01T09:19:26Z</time></trkpt><trkpt lat="41.723410489821475" lon="13.306275709730652"><ele>561.75</ele><time>2026-05-01T09:19:27Z</time></trkpt><trkpt lat="41.723432262178505" lon="13.306440303860635"><ele>561.5</ele><time>2026-05-01T09:19:28Z</time></trkpt><trkpt lat="41.72343371023795" lon="13.306617623777424"><ele>561.25</ele><time>2026-05-01T09:19:29Z</time></trkpt><trkpt lat="41.72340525199593" lon="13.30679008746947"><ele>561.0</ele><time>2026-05-01T09:19:30Z</time></trkpt><trkpt lat="41.72332203525259" lon="13.306917871349187"><ele>561.0</ele><time>2026-05-01T09:19:31Z</time></trkpt><trkpt lat="41.72322094502662" lon="13.30702498915774"><ele>561.0</ele><time>2026-05-01T09:19:32Z</time></trkpt><trkpt lat="41.72309511280221" lon="13.307110110855554"><ele>561.0</ele><time>2026-05-01T09:19:33Z</time></trkpt><trkpt lat="41.72294096801191" lon="13.307171688447049"><ele>561.0</ele><time>2026-05-01T09:19:34Z</time></trkpt><trkpt lat="41.72276661872563" lon="13.30721136937362"><ele>561.3333333333334</ele><time>2026-05-01T09:19:35Z</time></trkpt><trkpt lat="41.722572263411756" lon="13.307242968780796"><ele>561.6666666666667</ele><time>2026-05-01T09:19:36Z</time></trkpt><trkpt lat="41.72235884787645" lon="13.30727594346668"><ele>562.0</ele><time>2026-05-01T09:19:37Z</time></trkpt><trkpt lat="41.72213593941445" lon="13.307314460479912"><ele>562.0</ele><time>2026-05-01T09:19:38Z</time></trkpt><trkpt lat="41.721902174868006" lon="13.307359495504304"><ele>562.0</ele><time>2026-05-01T09:19:39Z</time></trkpt><trkpt lat="41.72165134892038" lon="13.307431689484892"><ele>564.0</ele><time>2026-05-01T09:19:40Z</time></trkpt><trkpt lat="41.72139303135613" lon="13.307471150664956"><ele>566.0</ele><time>2026-05-01T09:19:41Z</time></trkpt><trkpt lat="41.720969689672984" lon="13.30760037758105"><ele>568.3333333333333</ele><time>2026-05-01T09:19:43Z</time></trkpt><trkpt lat="41.7207856904216" lon="13.307650656169946"><ele>570.6666666666666</ele><time>2026-05-01T09:19:44Z</time></trkpt><trkpt lat="41.720603800464104" lon="13.307702525148922"><ele>573.0</ele><time>2026-05-01T09:19:45Z</time></trkpt><trkpt lat="41.72042188131386" lon="13.307773353151338"><ele>573.0</ele><time>2026-05-01T09:19:46Z</time></trkpt><trkpt lat="41.720241912339375" lon="13.307889399392685"><ele>573.0</ele><time>2026-05-01T09:19:47Z</time></trkpt><trkpt lat="41.72007422726233" lon="13.308013911322346"><ele>573.0</ele><time>2026-05-01T09:19:48Z</time></trkpt><trkpt lat="41.7199176260392" lon="13.308083425033152"><ele>573.0</ele><time>2026-05-01T09:19:49Z</time></trkpt><trkpt lat="41.71979305536914" lon="13.308133776085533"><ele>573.0</ele><time>2026-05-01T09:19:50Z</time></trkpt><trkpt lat="41.71970904851148" lon="13.3081479656544"><ele>573.0</ele><time>2026-05-01T09:19:51Z</time></trkpt><trkpt lat="41.71964367762243" lon="13.308150853383339"><ele>573.0</ele><time>2026-05-01T09:19:51.999Z</time></trkpt><trkpt lat="41.7195646217807" lon="13.308067358451185"><ele>573.0</ele><time>2026-05-01T09:19:52.999Z</time></trkpt><trkpt lat="41.71945845547432" lon="13.307995058240396"><ele>576.0</ele><time>2026-05-01T09:19:53.999Z</time></trkpt><trkpt lat="41.719394566064246" lon="13.307854772261011"><ele>579.0</ele><time>2026-05-01T09:19:54.999Z</time></trkpt><trkpt lat="41.71935431612528" lon="13.307706764292343"><ele>582.0</ele><time>2026-05-01T09:19:55.999Z</time></trkpt><trkpt lat="41.71935391831692" lon="13.307550115085169"><ele>585.0</ele><time>2026-05-01T09:19:56.999Z</time></trkpt><trkpt lat="41.71937822339955" lon="13.307390955738672"><ele>583.75</ele><time>2026-05-01T09:19:57.999Z</time></trkpt><trkpt lat="41.71945903595002" lon="13.307263676874053"><ele>582.5</ele><time>2026-05-01T09:19:58.999Z</time></trkpt><trkpt lat="41.71957659945651" lon="13.307216585874405"><ele>581.25</ele><time>2026-05-01T09:19:59.999Z</time></trkpt><trkpt lat="41.71969741239437" lon="13.307203824001073"><ele>580.0</ele><time>2026-05-01T09:20:00.999Z</time></trkpt><trkpt lat="41.719821453896515" lon="13.307180434055487"><ele>579.8</ele><time>2026-05-01T09:20:01.999Z</time></trkpt><trkpt lat="41.71991715157891" lon="13.30716710207344"><ele>579.6</ele><time>2026-05-01T09:20:02.999Z</time></trkpt><trkpt lat="41.71997933675663" lon="13.307128088323722"><ele>579.4</ele><time>2026-05-01T09:20:04.999Z</time></trkpt><trkpt lat="41.71991019851453" lon="13.307152342270488"><ele>579.2</ele><time>2026-05-01T09:20:27.999Z</time></trkpt><trkpt lat="41.719837716928986" lon="13.307181810736404"><ele>579.0</ele><time>2026-05-01T09:20:29.999Z</time></trkpt><trkpt lat="41.71977277695445" lon="13.3069974165405"><ele>579.0</ele><time>2026-05-01T09:27:13.999Z</time></trkpt><trkpt lat="41.7197154238166" lon="13.306925024974502"><ele>579.0</ele><time>2026-05-01T09:27:27Z</time></trkpt><trkpt lat="41.71962736499876" lon="13.306847292590357"><ele>579.0</ele><time>2026-05-01T09:27:29Z</time></trkpt><trkpt lat="41.71957308982446" lon="13.306804235025167"><ele>579.0</ele><time>2026-05-01T09:27:30Z</time></trkpt><trkpt lat="41.71948775812579" lon="13.306674615981946"><ele>579.0</ele><time>2026-05-01T09:27:32Z</time></trkpt><trkpt lat="41.719426159694905" lon="13.306634545699989"><ele>579.0</ele><time>2026-05-01T09:27:33Z</time></trkpt><trkpt lat="41.71936734417847" lon="13.306594932201813"><ele>578.3333333333334</ele><time>2026-05-01T09:27:34Z</time></trkpt><trkpt lat="41.71928825202486" lon="13.306533099677472"><ele>577.6666666666666</ele><time>2026-05-01T09:27:36Z</time></trkpt><trkpt lat="41.7192149050197" lon="13.306463545012102"><ele>577.0</ele><time>2026-05-01T09:27:50Z</time></trkpt><trkpt lat="41.7191555939955" lon="13.306406824476282"><ele>576.3333333333333</ele><time>2026-05-01T09:27:51.999Z</time></trkpt><trkpt lat="41.71908233906476" lon="13.30633992266827"><ele>575.6666666666666</ele><time>2026-05-01T09:27:53.999Z</time></trkpt><trkpt lat="41.71899946394193" lon="13.306276740797593"><ele>575.0</ele><time>2026-05-01T09:27:55.999Z</time></trkpt><trkpt lat="41.71890027082587" lon="13.306237390466071"><ele>572.8</ele><time>2026-05-01T09:27:57.999Z</time></trkpt><trkpt lat="41.71880179888848" lon="13.306222770036648"><ele>570.6</ele><time>2026-05-01T09:27:59.999Z</time></trkpt><trkpt lat="41.718695865404705" lon="13.306249981701125"><ele>568.4</ele><time>2026-05-01T09:28:01.999Z</time></trkpt><trkpt lat="41.71858849335113" lon="13.306312821015855"><ele>566.2</ele><time>2026-05-01T09:28:03.999Z</time></trkpt><trkpt lat="41.7184968765522" lon="13.306374432614028"><ele>564.0</ele><time>2026-05-01T09:28:05.999Z</time></trkpt><trkpt lat="41.71842699545752" lon="13.306431262276563"><ele>563.1666666666666</ele><time>2026-05-01T09:28:07.999Z</time></trkpt><trkpt lat="41.71836372199642" lon="13.306490257047882"><ele>562.3333333333334</ele><time>2026-05-01T09:28:09.999Z</time></trkpt><trkpt lat="41.71830086697428" lon="13.306555599955443"><ele>561.5</ele><time>2026-05-01T09:28:11.999Z</time></trkpt><trkpt lat="41.71824032586289" lon="13.306634137358252"><ele>560.6666666666667</ele><time>2026-05-01T09:28:13.999Z</time></trkpt><trkpt lat="41.718199853053136" lon="13.306710108865373"><ele>559.8333333333334</ele><time>2026-05-01T09:28:15.999Z</time></trkpt><trkpt lat="41.71815416777259" lon="13.306797139122017"><ele>559.0</ele><time>2026-05-01T09:28:23.999Z</time></trkpt><trkpt lat="41.71811587755137" lon="13.306866679791847"><ele>559.0</ele><time>2026-05-01T09:28:26.999Z</time></trkpt><trkpt lat="41.71815569048714" lon="13.306794373692606"><ele>559.0</ele><time>2026-05-01T09:28:40.999Z</time></trkpt><trkpt lat="41.71821049266888" lon="13.306689262283744"><ele>559.0</ele><time>2026-05-01T09:29:08.998Z</time></trkpt><trkpt lat="41.71826322449521" lon="13.306592728577703"><ele>559.0</ele><time>2026-05-01T09:29:09.998Z</time></trkpt><trkpt lat="41.718348964167696" lon="13.306537244673207"><ele>559.0</ele><time>2026-05-01T09:29:10.998Z</time></trkpt><trkpt lat="41.718415434731625" lon="13.306477633776256"><ele>559.0</ele><time>2026-05-01T09:29:11.998Z</time></trkpt><trkpt lat="41.71848866949756" lon="13.306415609651097"><ele>560.0</ele><time>2026-05-01T09:29:12.998Z</time></trkpt><trkpt lat="41.718569094822655" lon="13.306353625590258"><ele>561.0</ele><time>2026-05-01T09:29:13.998Z</time></trkpt><trkpt lat="41.718651394393035" lon="13.306301618179512"><ele>562.0</ele><time>2026-05-01T09:29:14.998Z</time></trkpt><trkpt lat="41.71872841708284" lon="13.306287475067498"><ele>563.0</ele><time>2026-05-01T09:29:15.998Z</time></trkpt><trkpt lat="41.718845271368714" lon="13.306252506696577"><ele>564.0</ele><time>2026-05-01T09:29:17.998Z</time></trkpt><trkpt lat="41.718915684458715" lon="13.30627231774842"><ele>564.0</ele><time>2026-05-01T09:29:18.998Z</time></trkpt><trkpt lat="41.71899166286913" lon="13.30630748157828"><ele>564.0</ele><time>2026-05-01T09:29:19.998Z</time></trkpt><trkpt lat="41.71907022447487" lon="13.306364447897531"><ele>564.0</ele><time>2026-05-01T09:29:20.998Z</time></trkpt><trkpt lat="41.71915169652355" lon="13.306436535691414"><ele>564.0</ele><time>2026-05-01T09:29:21.998Z</time></trkpt><trkpt lat="41.71922985871102" lon="13.306515746428953"><ele>564.0</ele><time>2026-05-01T09:29:23Z</time></trkpt><trkpt lat="41.71930209577694" lon="13.306584186122597"><ele>565.8333333333334</ele><time>2026-05-01T09:29:24Z</time></trkpt><trkpt lat="41.7193782735827" lon="13.306644201582124"><ele>567.6666666666666</ele><time>2026-05-01T09:29:25Z</time></trkpt><trkpt lat="41.71945290000187" lon="13.306696116650775"><ele>569.5</ele><time>2026-05-01T09:29:26Z</time></trkpt><trkpt lat="41.719521585682706" lon="13.306737175152119"><ele>571.3333333333333</ele><time>2026-05-01T09:29:27Z</time></trkpt><trkpt lat="41.719583590083964" lon="13.306806564319519"><ele>573.1666666666666</ele><time>2026-05-01T09:29:28Z</time></trkpt><trkpt lat="41.71965274222803" lon="13.306868056169078"><ele>575.0</ele><time>2026-05-01T09:29:29Z</time></trkpt><trkpt lat="41.719727790485365" lon="13.306933008853417"><ele>575.8</ele><time>2026-05-01T09:29:30Z</time></trkpt><trkpt lat="41.71980121611217" lon="13.306995286091773"><ele>576.6</ele><time>2026-05-01T09:29:31Z</time></trkpt><trkpt lat="41.71986122285998" lon="13.307046181852431"><ele>577.4</ele><time>2026-05-01T09:29:32Z</time></trkpt><trkpt lat="41.71992796354674" lon="13.307084935512576"><ele>578.2</ele><time>2026-05-01T09:29:34Z</time></trkpt><trkpt lat="41.719994796910576" lon="13.307159475622912"><ele>579.0</ele><time>2026-05-01T09:29:39Z</time></trkpt><trkpt lat="41.7200998076136" lon="13.30695910651116"><ele>579.0</ele><time>2026-05-01T09:29:40Z</time></trkpt><trkpt lat="41.72014305924895" lon="13.306842273331982"><ele>579.0</ele><time>2026-05-01T09:29:41Z</time></trkpt><trkpt lat="41.720167971618736" lon="13.306720401805006"><ele>579.0</ele><time>2026-05-01T09:29:42Z</time></trkpt><trkpt lat="41.72016137355122" lon="13.306595342331038"><ele>579.0</ele><time>2026-05-01T09:29:43Z</time></trkpt><trkpt lat="41.72013884606797" lon="13.306462942098511"><ele>579.0</ele><time>2026-05-01T09:29:44Z</time></trkpt><trkpt lat="41.7201018262892" lon="13.306322590605994"><ele>580.5</ele><time>2026-05-01T09:29:45Z</time></trkpt><trkpt lat="41.72005257180808" lon="13.30617895518367"><ele>582.0</ele><time>2026-05-01T09:29:46Z</time></trkpt><trkpt lat="41.71998573043459" lon="13.306034277589184"><ele>583.5</ele><time>2026-05-01T09:29:47Z</time></trkpt><trkpt lat="41.71989337572517" lon="13.305893945681238"><ele>585.0</ele><time>2026-05-01T09:29:48Z</time></trkpt><trkpt lat="41.71978003156077" lon="13.305758037838888"><ele>585.0</ele><time>2026-05-01T09:29:49Z</time></trkpt><trkpt lat="41.71966326750525" lon="13.305638920991335"><ele>585.0</ele><time>2026-05-01T09:29:50Z</time></trkpt><trkpt lat="41.719561163966084" lon="13.305518098521846"><ele>585.0</ele><time>2026-05-01T09:29:51Z</time></trkpt><trkpt lat="41.71946493473623" lon="13.305397923022769"><ele>585.0</ele><time>2026-05-01T09:29:52Z</time></trkpt><trkpt lat="41.71939703575566" lon="13.305247975617855"><ele>579.75</ele><time>2026-05-01T09:29:53Z</time></trkpt><trkpt lat="41.719336046237586" lon="13.305094744134122"><ele>574.5</ele><time>2026-05-01T09:29:54Z</time></trkpt><trkpt lat="41.719279189067215" lon="13.304930071710064"><ele>569.25</ele><time>2026-05-01T09:29:55Z</time></trkpt><trkpt lat="41.71925150555541" lon="13.304740790928427"><ele>564.0</ele><time>2026-05-01T09:29:56Z</time></trkpt><trkpt lat="41.71923965163606" lon="13.304561206565046"><ele>563.75</ele><time>2026-05-01T09:29:57Z</time></trkpt><trkpt lat="41.71923964909186" lon="13.304386953166723"><ele>563.5</ele><time>2026-05-01T09:29:58Z</time></trkpt><trkpt lat="41.71926016811833" lon="13.30420757514779"><ele>563.25</ele><time>2026-05-01T09:29:59Z</time></trkpt><trkpt lat="41.719287165257896" lon="13.304017014017115"><ele>563.0</ele><time>2026-05-01T09:30:00Z</time></trkpt><trkpt lat="41.71932490110505" lon="13.303815556719615"><ele>560.6666666666666</ele><time>2026-05-01T09:30:01Z</time></trkpt><trkpt lat="41.71937058947996" lon="13.303606951508659"><ele>558.3333333333334</ele><time>2026-05-01T09:30:02Z</time></trkpt><trkpt lat="41.719418614520265" lon="13.303394001772405"><ele>556.0</ele><time>2026-05-01T09:30:03Z</time></trkpt><trkpt lat="41.71946876181867" lon="13.303182420429604"><ele>561.0</ele><time>2026-05-01T09:30:03.999Z</time></trkpt><trkpt lat="41.71951512465588" lon="13.302977921638755"><ele>566.0</ele><time>2026-05-01T09:30:04.999Z</time></trkpt><trkpt lat="41.71956201481775" lon="13.302775710580754"><ele>571.0</ele><time>2026-05-01T09:30:05.999Z</time></trkpt><trkpt lat="41.71961684171506" lon="13.30256605004837"><ele>571.0</ele><time>2026-05-01T09:30:06.999Z</time></trkpt><trkpt lat="41.71969398692837" lon="13.302380463448799"><ele>571.0</ele><time>2026-05-01T09:30:07.999Z</time></trkpt><trkpt lat="41.71975655449808" lon="13.302194627336519"><ele>571.0</ele><time>2026-05-01T09:30:08.999Z</time></trkpt><trkpt lat="41.719802062904996" lon="13.302003932446773"><ele>567.6666666666667</ele><time>2026-05-01T09:30:09.999Z</time></trkpt><trkpt lat="41.71985593464925" lon="13.301821888894295"><ele>564.3333333333334</ele><time>2026-05-01T09:30:10.999Z</time></trkpt><trkpt lat="41.719901836785425" lon="13.301627999436912"><ele>561.0</ele><time>2026-05-01T09:30:11.999Z</time></trkpt><trkpt lat="41.7199395083687" lon="13.301429239484566"><ele>559.0</ele><time>2026-05-01T09:30:12.999Z</time></trkpt><trkpt lat="41.719969588213324" lon="13.301229714949715"><ele>557.0</ele><time>2026-05-01T09:30:13.999Z</time></trkpt><trkpt lat="41.71999319674566" lon="13.301033962563142"><ele>555.0</ele><time>2026-05-01T09:30:14.999Z</time></trkpt><trkpt lat="41.72000107979347" lon="13.30083346587239"><ele>555.0</ele><time>2026-05-01T09:30:15.999Z</time></trkpt><trkpt lat="41.71999478567807" lon="13.30062487102266"><ele>555.0</ele><time>2026-05-01T09:30:16.999Z</time></trkpt><trkpt lat="41.719989255465485" lon="13.300410095540974"><ele>555.0</ele><time>2026-05-01T09:30:17.999Z</time></trkpt><trkpt lat="41.719986493387616" lon="13.30020258192462"><ele>553.0</ele><time>2026-05-01T09:30:18.999Z</time></trkpt><trkpt lat="41.719987787839266" lon="13.299999483848211"><ele>551.0</ele><time>2026-05-01T09:30:19.999Z</time></trkpt><trkpt lat="41.71999054150751" lon="13.29979131369743"><ele>549.0</ele><time>2026-05-01T09:30:20.999Z</time></trkpt><trkpt lat="41.71999444344102" lon="13.299583919822114"><ele>547.5</ele><time>2026-05-01T09:30:21.999Z</time></trkpt><trkpt lat="41.72000171457802" lon="13.299380029642874"><ele>546.0</ele><time>2026-05-01T09:30:22.999Z</time></trkpt><trkpt lat="41.720017548454415" lon="13.299194197086038"><ele>544.5</ele><time>2026-05-01T09:30:23.999Z</time></trkpt><trkpt lat="41.72003724615056" lon="13.299036411075292"><ele>543.0</ele><time>2026-05-01T09:30:24.999Z</time></trkpt><trkpt lat="41.720048907236695" lon="13.298921672545923"><ele>541.6666666666666</ele><time>2026-05-01T09:30:25.999Z</time></trkpt><trkpt lat="41.720042906363986" lon="13.29882386539533"><ele>540.3333333333334</ele><time>2026-05-01T09:30:26.999Z</time></trkpt><trkpt lat="41.72000046897595" lon="13.298726174857817"><ele>539.0</ele><time>2026-05-01T09:30:27.999Z</time></trkpt><trkpt lat="41.71992686911337" lon="13.298659666132908"><ele>537.6666666666667</ele><time>2026-05-01T09:30:28.999Z</time></trkpt><trkpt lat="41.7198343470848" lon="13.2986396826276"><ele>536.3333333333334</ele><time>2026-05-01T09:30:29.999Z</time></trkpt><trkpt lat="41.719744097907885" lon="13.298678017464074"><ele>535.0</ele><time>2026-05-01T09:30:30.999Z</time></trkpt><trkpt lat="41.719672937991135" lon="13.298776656367783"><ele>535.0</ele><time>2026-05-01T09:30:31.999Z</time></trkpt><trkpt lat="41.71963782008584" lon="13.298915620968929"><ele>535.0</ele><time>2026-05-01T09:30:32.999Z</time></trkpt><trkpt lat="41.71962658703379" lon="13.299061120379"><ele>535.0</ele><time>2026-05-01T09:30:33.999Z</time></trkpt><trkpt lat="41.719591846458734" lon="13.29917865140756"><ele>535.0</ele><time>2026-05-01T09:30:34.999Z</time></trkpt><trkpt lat="41.71956294180975" lon="13.299296067255192"><ele>535.0</ele><time>2026-05-01T09:30:35.999Z</time></trkpt><trkpt lat="41.71954430502239" lon="13.299414065586285"><ele>534.0</ele><time>2026-05-01T09:30:36.999Z</time></trkpt><trkpt lat="41.71951038444819" lon="13.299525083495952"><ele>533.0</ele><time>2026-05-01T09:30:37.999Z</time></trkpt><trkpt lat="41.71947547567283" lon="13.299638204668147"><ele>532.0</ele><time>2026-05-01T09:30:38.999Z</time></trkpt><trkpt lat="41.719441764992034" lon="13.299747681144694"><ele>531.0</ele><time>2026-05-01T09:30:39.999Z</time></trkpt><trkpt lat="41.71940660594467" lon="13.299853685427223"><ele>530.0</ele><time>2026-05-01T09:30:40.999Z</time></trkpt><trkpt lat="41.719368947413" lon="13.299953161508645"><ele>529.0</ele><time>2026-05-01T09:30:41.999Z</time></trkpt><trkpt lat="41.71932608067952" lon="13.30005232146798"><ele>529.0</ele><time>2026-05-01T09:30:42.999Z</time></trkpt><trkpt lat="41.719267897105894" lon="13.300182064568975"><ele>529.0</ele><time>2026-05-01T09:30:43.999Z</time></trkpt><trkpt lat="41.7191989976039" lon="13.300347158411562"><ele>529.0</ele><time>2026-05-01T09:30:44.999Z</time></trkpt><trkpt lat="41.71912303679371" lon="13.300528904659915"><ele>529.0</ele><time>2026-05-01T09:30:45.999Z</time></trkpt><trkpt lat="41.71904039953129" lon="13.300723086672232"><ele>530.3333333333334</ele><time>2026-05-01T09:30:46.999Z</time></trkpt><trkpt lat="41.71895828241608" lon="13.30091180207362"><ele>531.6666666666666</ele><time>2026-05-01T09:30:47.999Z</time></trkpt><trkpt lat="41.71887725247284" lon="13.301086483356615"><ele>533.0</ele><time>2026-05-01T09:30:48.999Z</time></trkpt><trkpt lat="41.71881362116361" lon="13.301263215713599"><ele>533.0</ele><time>2026-05-01T09:30:49.999Z</time></trkpt><trkpt lat="41.71872367676361" lon="13.301413185349363"><ele>533.0</ele><time>2026-05-01T09:30:50.999Z</time></trkpt><trkpt lat="41.71863135114884" lon="13.301563441690238"><ele>533.0</ele><time>2026-05-01T09:30:51.999Z</time></trkpt><trkpt lat="41.718509906614344" lon="13.301707319821597"><ele>527.3333333333333</ele><time>2026-05-01T09:30:52.999Z</time></trkpt><trkpt lat="41.71838688544725" lon="13.301841903124261"><ele>521.6666666666666</ele><time>2026-05-01T09:30:53.999Z</time></trkpt><trkpt lat="41.71827038333065" lon="13.301967714202291"><ele>516.0</ele><time>2026-05-01T09:30:54.999Z</time></trkpt><trkpt lat="41.71817186593964" lon="13.30210433990066"><ele>516.0</ele><time>2026-05-01T09:30:55.999Z</time></trkpt><trkpt lat="41.71807248001491" lon="13.30221997039778"><ele>516.0</ele><time>2026-05-01T09:30:56.999Z</time></trkpt><trkpt lat="41.71796920614151" lon="13.302330752395516"><ele>516.0</ele><time>2026-05-01T09:30:57.999Z</time></trkpt><trkpt lat="41.71786830585246" lon="13.302433833259203"><ele>516.0</ele><time>2026-05-01T09:30:58.999Z</time></trkpt><trkpt lat="41.71777260834135" lon="13.30253890065688"><ele>513.0</ele><time>2026-05-01T09:30:59.999Z</time></trkpt><trkpt lat="41.71769173078973" lon="13.302662428762932"><ele>510.0</ele><time>2026-05-01T09:31:00.999Z</time></trkpt><trkpt lat="41.71763499499129" lon="13.302813627795906"><ele>507.0</ele><time>2026-05-01T09:31:01.999Z</time></trkpt><trkpt lat="41.71760238383839" lon="13.302998066056247"><ele>504.0</ele><time>2026-05-01T09:31:02.999Z</time></trkpt><trkpt lat="41.717573639564186" lon="13.303180808665683"><ele>504.0</ele><time>2026-05-01T09:31:03.999Z</time></trkpt><trkpt lat="41.71755153862942" lon="13.303357003575396"><ele>504.0</ele><time>2026-05-01T09:31:04.999Z</time></trkpt><trkpt lat="41.71752294883433" lon="13.30351965685213"><ele>504.0</ele><time>2026-05-01T09:31:05.999Z</time></trkpt><trkpt lat="41.71746999665798" lon="13.303671740332847"><ele>504.0</ele><time>2026-05-01T09:31:06.999Z</time></trkpt><trkpt lat="41.71739648068869" lon="13.303814527892524"><ele>505.25</ele><time>2026-05-01T09:31:07.999Z</time></trkpt><trkpt lat="41.71731086301078" lon="13.303937317630744"><ele>506.5</ele><time>2026-05-01T09:31:08.999Z</time></trkpt><trkpt lat="41.71720841490129" lon="13.304038002076197"><ele>507.75</ele><time>2026-05-01T09:31:09.999Z</time></trkpt><trkpt lat="41.71712248853608" lon="13.304144621827175"><ele>509.0</ele><time>2026-05-01T09:31:10.999Z</time></trkpt><trkpt lat="41.71702834886423" lon="13.304245240367045"><ele>509.0</ele><time>2026-05-01T09:31:11.999Z</time></trkpt><trkpt lat="41.71692999727829" lon="13.30433482602071"><ele>509.0</ele><time>2026-05-01T09:31:12.999Z</time></trkpt><trkpt lat="41.71683344244041" lon="13.304414315939841"><ele>509.0</ele><time>2026-05-01T09:31:13.999Z</time></trkpt><trkpt lat="41.71674718601066" lon="13.304499601697085"><ele>509.0</ele><time>2026-05-01T09:31:14.999Z</time></trkpt><trkpt lat="41.716655287717174" lon="13.304559876629238"><ele>509.0</ele><time>2026-05-01T09:31:15.999Z</time></trkpt><trkpt lat="41.71656802212938" lon="13.304620161186278"><ele>508.16666666666663</ele><time>2026-05-01T09:31:16.999Z</time></trkpt><trkpt lat="41.71648464437654" lon="13.304677030156844"><ele>507.3333333333333</ele><time>2026-05-01T09:31:17.998Z</time></trkpt><trkpt lat="41.71641356450748" lon="13.304726753653949"><ele>506.5</ele><time>2026-05-01T09:31:18.998Z</time></trkpt><trkpt lat="41.71635006488343" lon="13.304766994316642"><ele>505.66666666666663</ele><time>2026-05-01T09:31:19.998Z</time></trkpt><trkpt lat="41.71624817572479" lon="13.30481344976713"><ele>504.8333333333333</ele><time>2026-05-01T09:31:21.998Z</time></trkpt><trkpt lat="41.716185093779096" lon="13.304835977435623"><ele>504.0</ele><time>2026-05-01T09:31:22.998Z</time></trkpt><trkpt lat="41.716107285086885" lon="13.304855717830048"><ele>501.6</ele><time>2026-05-01T09:31:23.998Z</time></trkpt><trkpt lat="41.716020477278384" lon="13.304871067431826"><ele>499.2</ele><time>2026-05-01T09:31:24.998Z</time></trkpt><trkpt lat="41.7159174882938" lon="13.304882373943073"><ele>496.80000000000007</ele><time>2026-05-01T09:31:25.998Z</time></trkpt><trkpt lat="41.71581213001732" lon="13.304884955662885"><ele>494.40000000000003</ele><time>2026-05-01T09:31:26.998Z</time></trkpt><trkpt lat="41.71569916625628" lon="13.304881701355548"><ele>492.0</ele><time>2026-05-01T09:31:27.998Z</time></trkpt><trkpt lat="41.715571334784634" lon="13.30487616367513"><ele>492.0</ele><time>2026-05-01T09:31:29Z</time></trkpt><trkpt lat="41.71543060212211" lon="13.304875851270248"><ele>492.0</ele><time>2026-05-01T09:31:30Z</time></trkpt><trkpt lat="41.71527978376502" lon="13.304872679269485"><ele>492.0</ele><time>2026-05-01T09:31:31Z</time></trkpt><trkpt lat="41.715127488916096" lon="13.30484777107513"><ele>492.0</ele><time>2026-05-01T09:31:32Z</time></trkpt><trkpt lat="41.71498099616893" lon="13.304845420941373"><ele>489.5</ele><time>2026-05-01T09:31:33Z</time></trkpt><trkpt lat="41.714834750928645" lon="13.304844969920183"><ele>487.0</ele><time>2026-05-01T09:31:34Z</time></trkpt><trkpt lat="41.714692464900494" lon="13.304865434555643"><ele>484.5</ele><time>2026-05-01T09:31:35Z</time></trkpt><trkpt lat="41.714548178189446" lon="13.304860394180192"><ele>482.0</ele><time>2026-05-01T09:31:36Z</time></trkpt><trkpt lat="41.7144067921677" lon="13.304826611223996"><ele>480.75</ele><time>2026-05-01T09:31:37Z</time></trkpt><trkpt lat="41.71426643527575" lon="13.304800285683509"><ele>479.5</ele><time>2026-05-01T09:31:38Z</time></trkpt><trkpt lat="41.71412724722855" lon="13.304765761741425"><ele>478.25</ele><time>2026-05-01T09:31:39Z</time></trkpt><trkpt lat="41.71398529870135" lon="13.30474445958787"><ele>477.0</ele><time>2026-05-01T09:31:40Z</time></trkpt><trkpt lat="41.713858228413166" lon="13.304700011373015"><ele>477.0</ele><time>2026-05-01T09:31:41Z</time></trkpt><trkpt lat="41.71373423405127" lon="13.304653002491955"><ele>477.0</ele><time>2026-05-01T09:31:42Z</time></trkpt><trkpt lat="41.713612414301494" lon="13.304572250888544"><ele>477.0</ele><time>2026-05-01T09:31:43Z</time></trkpt><trkpt lat="41.71349097476413" lon="13.304492920863686"><ele>477.0</ele><time>2026-05-01T09:31:44Z</time></trkpt><trkpt lat="41.713363546811735" lon="13.304419844625432"><ele>476.0</ele><time>2026-05-01T09:31:45Z</time></trkpt><trkpt lat="41.71326214459418" lon="13.304308721974435"><ele>475.0</ele><time>2026-05-01T09:31:46Z</time></trkpt><trkpt lat="41.71315615993423" lon="13.304221088916766"><ele>474.0</ele><time>2026-05-01T09:31:47Z</time></trkpt><trkpt lat="41.71305512527617" lon="13.304145207201652"><ele>473.0</ele><time>2026-05-01T09:31:48Z</time></trkpt><trkpt lat="41.71295086337954" lon="13.304109938516616"><ele>473.0</ele><time>2026-05-01T09:31:49Z</time></trkpt><trkpt lat="41.712838598422195" lon="13.304080359440642"><ele>473.0</ele><time>2026-05-01T09:31:50Z</time></trkpt><trkpt lat="41.712713379249905" lon="13.30408335593829"><ele>473.0</ele><time>2026-05-01T09:31:51Z</time></trkpt><trkpt lat="41.71259062433779" lon="13.304108434781615"><ele>473.0</ele><time>2026-05-01T09:31:52Z</time></trkpt><trkpt lat="41.712474251239875" lon="13.30411893316426"><ele>471.75</ele><time>2026-05-01T09:31:53Z</time></trkpt><trkpt lat="41.712367426639986" lon="13.304162461367378"><ele>470.5</ele><time>2026-05-01T09:31:54Z</time></trkpt><trkpt lat="41.712253940613955" lon="13.304151649636104"><ele>469.25</ele><time>2026-05-01T09:31:55Z</time></trkpt><trkpt lat="41.71213473184907" lon="13.304101727735395"><ele>468.0</ele><time>2026-05-01T09:31:56Z</time></trkpt><trkpt lat="41.71201288006347" lon="13.304033785946269"><ele>464.25</ele><time>2026-05-01T09:31:57Z</time></trkpt><trkpt lat="41.711906157754605" lon="13.303905666246635"><ele>460.5</ele><time>2026-05-01T09:31:58Z</time></trkpt><trkpt lat="41.71178019191143" lon="13.303804586371196"><ele>456.75</ele><time>2026-05-01T09:31:59Z</time></trkpt><trkpt lat="41.711652149778615" lon="13.303723539889944"><ele>453.0</ele><time>2026-05-01T09:32:00Z</time></trkpt><trkpt lat="41.71154076884296" lon="13.303637580004287"><ele>453.0</ele><time>2026-05-01T09:32:01Z</time></trkpt><trkpt lat="41.71144504419199" lon="13.30357755733764"><ele>453.0</ele><time>2026-05-01T09:32:01.999Z</time></trkpt><trkpt lat="41.711364102302795" lon="13.303554973425218"><ele>453.0</ele><time>2026-05-01T09:32:02.999Z</time></trkpt><trkpt lat="41.711283658305724" lon="13.303571858039255"><ele>453.0</ele><time>2026-05-01T09:32:03.999Z</time></trkpt><trkpt lat="41.71122366926569" lon="13.303627065769422"><ele>453.0</ele><time>2026-05-01T09:32:04.999Z</time></trkpt><trkpt lat="41.711189466742816" lon="13.303704856533706"><ele>453.0</ele><time>2026-05-01T09:32:05.999Z</time></trkpt><trkpt lat="41.7111738266965" lon="13.3037961745847"><ele>453.0</ele><time>2026-05-01T09:32:06.999Z</time></trkpt><trkpt lat="41.711179890970534" lon="13.303902963308747"><ele>452.99999999999994</ele><time>2026-05-01T09:32:07.999Z</time></trkpt><trkpt lat="41.71120283042289" lon="13.304023508500775"><ele>452.99999999999994</ele><time>2026-05-01T09:32:08.999Z</time></trkpt><trkpt lat="41.711227966997605" lon="13.304156915412058"><ele>453.0</ele><time>2026-05-01T09:32:09.999Z</time></trkpt><trkpt lat="41.71124281196741" lon="13.30429928969182"><ele>453.0</ele><time>2026-05-01T09:32:10.999Z</time></trkpt><trkpt lat="41.71126227307534" lon="13.304444534765464"><ele>452.79999999999995</ele><time>2026-05-01T09:32:11.999Z</time></trkpt><trkpt lat="41.7112798597707" lon="13.304591707158526"><ele>452.59999999999997</ele><time>2026-05-01T09:32:12.999Z</time></trkpt><trkpt lat="41.711284993955175" lon="13.304743491290182"><ele>452.40000000000003</ele><time>2026-05-01T09:32:13.999Z</time></trkpt><trkpt lat="41.71128955909093" lon="13.304885180242394"><ele>452.20000000000005</ele><time>2026-05-01T09:32:14.999Z</time></trkpt><trkpt lat="41.711297213591614" lon="13.305011552660552"><ele>452.0</ele><time>2026-05-01T09:32:15.999Z</time></trkpt><trkpt lat="41.71129905738595" lon="13.305126191147474"><ele>452.0</ele><time>2026-05-01T09:32:16.999Z</time></trkpt><trkpt lat="41.711291993022606" lon="13.30524049042622"><ele>452.00000000000006</ele><time>2026-05-01T09:32:17.999Z</time></trkpt><trkpt lat="41.71123118168213" lon="13.30535160427797"><ele>452.00000000000006</ele><time>2026-05-01T09:32:18.999Z</time></trkpt><trkpt lat="41.71119573571893" lon="13.305491201610756"><ele>452.0</ele><time>2026-05-01T09:32:19.999Z</time></trkpt><trkpt lat="41.711163218778" lon="13.30562813446326"><ele>452.0</ele><time>2026-05-01T09:32:20.999Z</time></trkpt><trkpt lat="41.7111331711344" lon="13.30575934465019"><ele>450.66666666666663</ele><time>2026-05-01T09:32:21.999Z</time></trkpt><trkpt lat="41.71110230887488" lon="13.30587483257098"><ele>449.3333333333333</ele><time>2026-05-01T09:32:22.999Z</time></trkpt><trkpt lat="41.71107108855093" lon="13.305983810903014"><ele>448.0</ele><time>2026-05-01T09:32:23.999Z</time></trkpt><trkpt lat="41.71103697693255" lon="13.306095262902518"><ele>446.66666666666663</ele><time>2026-05-01T09:32:24.999Z</time></trkpt><trkpt lat="41.71100176830501" lon="13.306202613094788"><ele>445.3333333333333</ele><time>2026-05-01T09:32:25.999Z</time></trkpt><trkpt lat="41.71096392409298" lon="13.306309351760616"><ele>444.0</ele><time>2026-05-01T09:32:26.999Z</time></trkpt><trkpt lat="41.710926936576854" lon="13.306411352528405"><ele>443.1666666666667</ele><time>2026-05-01T09:32:27.999Z</time></trkpt><trkpt lat="41.710888997951194" lon="13.30651448666506"><ele>442.33333333333337</ele><time>2026-05-01T09:32:28.999Z</time></trkpt><trkpt lat="41.710850485709244" lon="13.306618971175013"><ele>441.5</ele><time>2026-05-01T09:32:29.999Z</time></trkpt><trkpt lat="41.71081401320237" lon="13.306719757389107"><ele>440.6666666666667</ele><time>2026-05-01T09:32:30.999Z</time></trkpt><trkpt lat="41.71078075881295" lon="13.306824160183643"><ele>439.83333333333337</ele><time>2026-05-01T09:32:31.999Z</time></trkpt><trkpt lat="41.710749048952955" lon="13.30692371102235"><ele>439.0</ele><time>2026-05-01T09:32:32.999Z</time></trkpt><trkpt lat="41.71072129220671" lon="13.307020977764783"><ele>439.00000000000006</ele><time>2026-05-01T09:32:33.999Z</time></trkpt><trkpt lat="41.710692591853004" lon="13.307124820990042"><ele>439.0</ele><time>2026-05-01T09:32:34.999Z</time></trkpt><trkpt lat="41.71066714434206" lon="13.307234683750831"><ele>439.0</ele><time>2026-05-01T09:32:35.999Z</time></trkpt><trkpt lat="41.71064464526427" lon="13.30734207357789"><ele>439.0</ele><time>2026-05-01T09:32:36.999Z</time></trkpt><trkpt lat="41.71062347332782" lon="13.307442640648022"><ele>439.00000000000006</ele><time>2026-05-01T09:32:37.999Z</time></trkpt><trkpt lat="41.71060073937172" lon="13.30754403920048"><ele>439.0</ele><time>2026-05-01T09:32:38.999Z</time></trkpt><trkpt lat="41.710569982257" lon="13.307634335512299"><ele>438.33333333333337</ele><time>2026-05-01T09:32:39.999Z</time></trkpt><trkpt lat="41.710521867351176" lon="13.307706790237669"><ele>437.6666666666667</ele><time>2026-05-01T09:32:40.999Z</time></trkpt><trkpt lat="41.71046381247894" lon="13.307787312446312"><ele>437.0</ele><time>2026-05-01T09:32:41.999Z</time></trkpt><trkpt lat="41.71039982581685" lon="13.307867869305705"><ele>436.33333333333337</ele><time>2026-05-01T09:32:42.999Z</time></trkpt><trkpt lat="41.71032890000752" lon="13.307953985728993"><ele>435.6666666666667</ele><time>2026-05-01T09:32:43.999Z</time></trkpt><trkpt lat="41.71025205740268" lon="13.308028291457253"><ele>435.0</ele><time>2026-05-01T09:32:44.999Z</time></trkpt><trkpt lat="41.71017536983533" lon="13.308103070233173"><ele>434.8571428571429</ele><time>2026-05-01T09:32:45.999Z</time></trkpt><trkpt lat="41.71011376704896" lon="13.308186536329302"><ele>434.7142857142857</ele><time>2026-05-01T09:32:46.999Z</time></trkpt><trkpt lat="41.710062663384996" lon="13.308259700746964"><ele>434.57142857142856</ele><time>2026-05-01T09:32:47.999Z</time></trkpt><trkpt lat="41.71001267674256" lon="13.308321265098055"><ele>434.42857142857144</ele><time>2026-05-01T09:32:48.999Z</time></trkpt><trkpt lat="41.70995834139672" lon="13.308378649829601"><ele>434.2857142857143</ele><time>2026-05-01T09:32:49.999Z</time></trkpt><trkpt lat="41.70989754707765" lon="13.308417713809671"><ele>434.14285714285717</ele><time>2026-05-01T09:32:50.999Z</time></trkpt><trkpt lat="41.70982707684618" lon="13.308419588962597"><ele>434.0</ele><time>2026-05-01T09:32:51.999Z</time></trkpt><trkpt lat="41.70974875440079" lon="13.308415279246878"><ele>433.99999999999994</ele><time>2026-05-01T09:32:52.999Z</time></trkpt><trkpt lat="41.70966796448801" lon="13.308413385729049"><ele>434.0</ele><time>2026-05-01T09:32:53.999Z</time></trkpt><trkpt lat="41.70959102561753" lon="13.308409454090647"><ele>434.0</ele><time>2026-05-01T09:32:54.999Z</time></trkpt><trkpt lat="41.70950862049667" lon="13.308398233252815"><ele>434.0</ele><time>2026-05-01T09:32:55.999Z</time></trkpt><trkpt lat="41.70943621394034" lon="13.308383975393669"><ele>433.99999999999994</ele><time>2026-05-01T09:32:56.999Z</time></trkpt><trkpt lat="41.709352210975844" lon="13.308373873042022"><ele>434.0</ele><time>2026-05-01T09:32:57.999Z</time></trkpt><trkpt lat="41.7092776738723" lon="13.30838007755497"><ele>431.66666666666663</ele><time>2026-05-01T09:32:58.999Z</time></trkpt><trkpt lat="41.70921700518549" lon="13.308405191448534"><ele>429.3333333333333</ele><time>2026-05-01T09:32:59.999Z</time></trkpt><trkpt lat="41.7091209407309" lon="13.308452214171897"><ele>427.0</ele><time>2026-05-01T09:33:00.999Z</time></trkpt><trkpt lat="41.7090423197014" lon="13.308510501017746"><ele>424.66666666666663</ele><time>2026-05-01T09:33:01.999Z</time></trkpt><trkpt lat="41.708956887616594" lon="13.308556496069691"><ele>422.3333333333333</ele><time>2026-05-01T09:33:02.999Z</time></trkpt><trkpt lat="41.708880248574566" lon="13.308622405051144"><ele>420.0</ele><time>2026-05-01T09:33:03.999Z</time></trkpt><trkpt lat="41.708805996795604" lon="13.308692834672215"><ele>420.0</ele><time>2026-05-01T09:33:04.999Z</time></trkpt><trkpt lat="41.708733680754044" lon="13.308760843099218"><ele>420.0</ele><time>2026-05-01T09:33:05.999Z</time></trkpt><trkpt lat="41.7086600252755" lon="13.308829694109038"><ele>420.0</ele><time>2026-05-01T09:33:06.999Z</time></trkpt><trkpt lat="41.70859104787047" lon="13.308894172210724"><ele>420.0</ele><time>2026-05-01T09:33:07.999Z</time></trkpt><trkpt lat="41.70852716940979" lon="13.308956635392795"><ele>420.0</ele><time>2026-05-01T09:33:08.999Z</time></trkpt><trkpt lat="41.7084726164658" lon="13.309016243454803"><ele>420.0</ele><time>2026-05-01T09:33:09.999Z</time></trkpt><trkpt lat="41.70842420048855" lon="13.309077137423328"><ele>418.75</ele><time>2026-05-01T09:33:10.999Z</time></trkpt><trkpt lat="41.70836324632983" lon="13.309175624793221"><ele>417.5</ele><time>2026-05-01T09:33:12.999Z</time></trkpt><trkpt lat="41.70830421197055" lon="13.309237481878469"><ele>416.25</ele><time>2026-05-01T09:33:16.998Z</time></trkpt><trkpt lat="41.70843003938322" lon="13.3095046026144"><ele>415.0</ele><time>2026-05-01T09:33:19.998Z</time></trkpt><trkpt lat="41.70848969817026" lon="13.309608423650948"><ele>415.0</ele><time>2026-05-01T09:33:20.998Z</time></trkpt><trkpt lat="41.70854306274484" lon="13.30973083431349"><ele>415.0</ele><time>2026-05-01T09:33:21.998Z</time></trkpt><trkpt lat="41.70861070594677" lon="13.309863098032473"><ele>415.0</ele><time>2026-05-01T09:33:22.998Z</time></trkpt><trkpt lat="41.708679395330705" lon="13.309993698401168"><ele>415.0</ele><time>2026-05-01T09:33:23.998Z</time></trkpt><trkpt lat="41.70873857126829" lon="13.310132667487043"><ele>414.2</ele><time>2026-05-01T09:33:24.998Z</time></trkpt><trkpt lat="41.70877400610482" lon="13.310286527594924"><ele>413.4</ele><time>2026-05-01T09:33:25.998Z</time></trkpt><trkpt lat="41.70875494453883" lon="13.310439352038127"><ele>412.6</ele><time>2026-05-01T09:33:26.998Z</time></trkpt><trkpt lat="41.70870131409521" lon="13.310552521043917"><ele>411.8</ele><time>2026-05-01T09:33:27.998Z</time></trkpt><trkpt lat="41.70864573459729" lon="13.310684154422193"><ele>411.0</ele><time>2026-05-01T09:33:28.998Z</time></trkpt><trkpt lat="41.70857324758712" lon="13.310832208686717"><ele>411.0</ele><time>2026-05-01T09:33:29.998Z</time></trkpt><trkpt lat="41.708504953148925" lon="13.310976692997182"><ele>411.0</ele><time>2026-05-01T09:33:30.998Z</time></trkpt><trkpt lat="41.70844480890656" lon="13.311105923802057"><ele>411.0</ele><time>2026-05-01T09:33:31.998Z</time></trkpt><trkpt lat="41.70839407312802" lon="13.311219514252118"><ele>411.0</ele><time>2026-05-01T09:33:32.998Z</time></trkpt><trkpt lat="41.708345720015046" lon="13.311319000899452"><ele>411.0</ele><time>2026-05-01T09:33:33.998Z</time></trkpt><trkpt lat="41.708330942617515" lon="13.311430564399217"><ele>409.0</ele><time>2026-05-01T09:33:35Z</time></trkpt><trkpt lat="41.708319418169744" lon="13.311563573312652"><ele>407.0</ele><time>2026-05-01T09:33:36Z</time></trkpt><trkpt lat="41.7083005174502" lon="13.311704909744309"><ele>405.0</ele><time>2026-05-01T09:33:37Z</time></trkpt><trkpt lat="41.70831373566797" lon="13.311834350260286"><ele>403.0</ele><time>2026-05-01T09:33:38Z</time></trkpt><trkpt lat="41.70830819198854" lon="13.31196885737488"><ele>401.0</ele><time>2026-05-01T09:33:39Z</time></trkpt><trkpt lat="41.708309381257976" lon="13.312122591090858"><ele>397.5</ele><time>2026-05-01T09:33:40Z</time></trkpt><trkpt lat="41.70833119238849" lon="13.312272334508991"><ele>394.0</ele><time>2026-05-01T09:33:41Z</time></trkpt><trkpt lat="41.70838176251118" lon="13.312420327366148"><ele>390.5</ele><time>2026-05-01T09:33:42Z</time></trkpt><trkpt lat="41.70844824678789" lon="13.312564655092293"><ele>387.0</ele><time>2026-05-01T09:33:43Z</time></trkpt><trkpt lat="41.70850747220136" lon="13.312696525408294"><ele>387.0</ele><time>2026-05-01T09:33:44Z</time></trkpt><trkpt lat="41.708528541949434" lon="13.31283033973313"><ele>387.0</ele><time>2026-05-01T09:33:45Z</time></trkpt><trkpt lat="41.70853379008087" lon="13.31296515217458"><ele>387.0</ele><time>2026-05-01T09:33:46Z</time></trkpt><trkpt lat="41.70853651808354" lon="13.313130166873481"><ele>387.0</ele><time>2026-05-01T09:33:47Z</time></trkpt><trkpt lat="41.70854958587847" lon="13.313303696157266"><ele>384.0</ele><time>2026-05-01T09:33:48Z</time></trkpt><trkpt lat="41.70853162195461" lon="13.313471684208706"><ele>381.0</ele><time>2026-05-01T09:33:49Z</time></trkpt><trkpt lat="41.70853024938171" lon="13.313637404202236"><ele>378.0</ele><time>2026-05-01T09:33:50Z</time></trkpt><trkpt lat="41.70853682485234" lon="13.313788243423934"><ele>375.0</ele><time>2026-05-01T09:33:51Z</time></trkpt><trkpt lat="41.70856120710513" lon="13.313930350907402"><ele>373.4</ele><time>2026-05-01T09:33:52Z</time></trkpt><trkpt lat="41.70857406395546" lon="13.3140673249738"><ele>371.8</ele><time>2026-05-01T09:33:53Z</time></trkpt><trkpt lat="41.70858806882573" lon="13.314193154809317"><ele>370.20000000000005</ele><time>2026-05-01T09:33:54Z</time></trkpt><trkpt lat="41.70858089951485" lon="13.314309944769073"><ele>368.6</ele><time>2026-05-01T09:33:55Z</time></trkpt><trkpt lat="41.70856290768326" lon="13.314408830971677"><ele>367.0</ele><time>2026-05-01T09:33:56Z</time></trkpt><trkpt lat="41.70855032745139" lon="13.314543331825988"><ele>367.0</ele><time>2026-05-01T09:33:58Z</time></trkpt><trkpt lat="41.70849768162157" lon="13.31459007117305"><ele>367.0</ele><time>2026-05-01T09:34:01Z</time></trkpt><trkpt lat="41.708389955609" lon="13.314562472800043"><ele>367.0</ele><time>2026-05-01T09:34:03Z</time></trkpt><trkpt lat="41.708312937028715" lon="13.31456626267191"><ele>367.0</ele><time>2026-05-01T09:34:04Z</time></trkpt><trkpt lat="41.70822779737165" lon="13.314571634018193"><ele>367.0</ele><time>2026-05-01T09:34:05Z</time></trkpt><trkpt lat="41.70813934649341" lon="13.314582110618108"><ele>367.0</ele><time>2026-05-01T09:34:06Z</time></trkpt><trkpt lat="41.70804837253985" lon="13.314610100458774"><ele>367.0</ele><time>2026-05-01T09:34:07Z</time></trkpt><trkpt lat="41.70796110020459" lon="13.314648821703754"><ele>367.0</ele><time>2026-05-01T09:34:08Z</time></trkpt><trkpt lat="41.70787769203573" lon="13.314693852469627"><ele>367.0</ele><time>2026-05-01T09:34:09Z</time></trkpt><trkpt lat="41.707799396797085" lon="13.31474441058618"><ele>367.0</ele><time>2026-05-01T09:34:10Z</time></trkpt><trkpt lat="41.7077160987101" lon="13.31482394604489"><ele>367.0</ele><time>2026-05-01T09:34:11Z</time></trkpt><trkpt lat="41.707643238869615" lon="13.31490961280074"><ele>368.6</ele><time>2026-05-01T09:34:12Z</time></trkpt><trkpt lat="41.70757788455891" lon="13.315005892426962"><ele>370.20000000000005</ele><time>2026-05-01T09:34:13Z</time></trkpt><trkpt lat="41.70751394032433" lon="13.315109357527941"><ele>371.8</ele><time>2026-05-01T09:34:14Z</time></trkpt><trkpt lat="41.70746547034858" lon="13.315191863740711"><ele>373.4</ele><time>2026-05-01T09:34:15Z</time></trkpt><trkpt lat="41.70742337350584" lon="13.315314233159196"><ele>375.0</ele><time>2026-05-01T09:34:16.999Z</time></trkpt><trkpt lat="41.70745967581083" lon="13.315404189188138"><ele>375.0</ele><time>2026-05-01T09:34:18.999Z</time></trkpt><trkpt lat="41.70757708221766" lon="13.315499812705442"><ele>375.0</ele><time>2026-05-01T09:34:20.999Z</time></trkpt><trkpt lat="41.70760816284152" lon="13.315591140080032"><ele>375.0</ele><time>2026-05-01T09:34:21.999Z</time></trkpt><trkpt lat="41.70765106021855" lon="13.315677636402862"><ele>375.0</ele><time>2026-05-01T09:34:22.999Z</time></trkpt><trkpt lat="41.70769009796487" lon="13.315782743020275"><ele>375.0</ele><time>2026-05-01T09:34:23.999Z</time></trkpt><trkpt lat="41.707721319435755" lon="13.31590058097544"><ele>369.4</ele><time>2026-05-01T09:34:24.999Z</time></trkpt><trkpt lat="41.70775527469587" lon="13.316027491052298"><ele>363.8</ele><time>2026-05-01T09:34:25.999Z</time></trkpt><trkpt lat="41.707794871632835" lon="13.316156649161305"><ele>358.20000000000005</ele><time>2026-05-01T09:34:26.999Z</time></trkpt><trkpt lat="41.70783816564839" lon="13.316289085825746"><ele>352.6</ele><time>2026-05-01T09:34:27.999Z</time></trkpt><trkpt lat="41.70788609263866" lon="13.31642910360578"><ele>347.0</ele><time>2026-05-01T09:34:28.999Z</time></trkpt><trkpt lat="41.70794306165055" lon="13.316580420809753"><ele>345.75</ele><time>2026-05-01T09:34:29.999Z</time></trkpt><trkpt lat="41.70799872511052" lon="13.31673456791339"><ele>344.5</ele><time>2026-05-01T09:34:30.999Z</time></trkpt><trkpt lat="41.70804527691267" lon="13.316901235205105"><ele>343.25</ele><time>2026-05-01T09:34:31.999Z</time></trkpt><trkpt lat="41.70810019126643" lon="13.317065485398999"><ele>342.0</ele><time>2026-05-01T09:34:32.999Z</time></trkpt><trkpt lat="41.70812243370375" lon="13.317237659182688"><ele>341.75</ele><time>2026-05-01T09:34:33.999Z</time></trkpt><trkpt lat="41.708135989026125" lon="13.317415943570046"><ele>341.5</ele><time>2026-05-01T09:34:34.999Z</time></trkpt><trkpt lat="41.70812503026214" lon="13.31759286049696"><ele>341.25</ele><time>2026-05-01T09:34:35.999Z</time></trkpt><trkpt lat="41.708122746825396" lon="13.317765947634312"><ele>341.0</ele><time>2026-05-01T09:34:36.999Z</time></trkpt><trkpt lat="41.708114648673885" lon="13.317946494605645"><ele>338.25</ele><time>2026-05-01T09:34:37.999Z</time></trkpt><trkpt lat="41.70810528260565" lon="13.318127422804759"><ele>335.5</ele><time>2026-05-01T09:34:38.999Z</time></trkpt><trkpt lat="41.70810874891084" lon="13.318320957418"><ele>332.75</ele><time>2026-05-01T09:34:39.999Z</time></trkpt><trkpt lat="41.708096493521225" lon="13.318516416062627"><ele>330.0</ele><time>2026-05-01T09:34:40.999Z</time></trkpt><trkpt lat="41.70808375154032" lon="13.318695840202935"><ele>330.0</ele><time>2026-05-01T09:34:41.999Z</time></trkpt><trkpt lat="41.70808755322004" lon="13.318860209123036"><ele>330.0</ele><time>2026-05-01T09:34:42.999Z</time></trkpt><trkpt lat="41.708089648189464" lon="13.319005978684652"><ele>330.0</ele><time>2026-05-01T09:34:43.999Z</time></trkpt><trkpt lat="41.708065898257665" lon="13.319124864408469"><ele>330.0</ele><time>2026-05-01T09:34:44.999Z</time></trkpt><trkpt lat="41.70804074368588" lon="13.319214576534018"><ele>330.0</ele><time>2026-05-01T09:34:45.999Z</time></trkpt><trkpt lat="41.70795338105224" lon="13.319325339575036"><ele>330.5</ele><time>2026-05-01T09:34:47.999Z</time></trkpt><trkpt lat="41.707892218284535" lon="13.31937095847422"><ele>331.0</ele><time>2026-05-01T09:34:48.999Z</time></trkpt><trkpt lat="41.70781994179914" lon="13.319443941749741"><ele>331.5</ele><time>2026-05-01T09:34:49.999Z</time></trkpt><trkpt lat="41.70775197293612" lon="13.319544903709854"><ele>332.0</ele><time>2026-05-01T09:34:50.999Z</time></trkpt><trkpt lat="41.70769449370057" lon="13.319660212646273"><ele>332.5</ele><time>2026-05-01T09:34:51.999Z</time></trkpt><trkpt lat="41.70764868408536" lon="13.319754272039763"><ele>333.0</ele><time>2026-05-01T09:34:52.999Z</time></trkpt><trkpt lat="41.70762199349267" lon="13.319850845849647"><ele>333.0</ele><time>2026-05-01T09:34:53.999Z</time></trkpt><trkpt lat="41.707579260465444" lon="13.319940792948424"><ele>333.0</ele><time>2026-05-01T09:34:54.999Z</time></trkpt><trkpt lat="41.707492039614976" lon="13.320000182151398"><ele>333.0</ele><time>2026-05-01T09:34:55.999Z</time></trkpt><trkpt lat="41.7074171161592" lon="13.320097342599357"><ele>333.0</ele><time>2026-05-01T09:34:56.999Z</time></trkpt><trkpt lat="41.707358463579574" lon="13.320189009393006"><ele>333.0</ele><time>2026-05-01T09:34:57.999Z</time></trkpt><trkpt lat="41.70731739539067" lon="13.320258023533345"><ele>333.0</ele><time>2026-05-01T09:34:58.999Z</time></trkpt><trkpt lat="41.707265458015186" lon="13.320347059145632"><ele>333.0</ele><time>2026-05-01T09:35:01.999Z</time></trkpt><trkpt lat="41.70720501027675" lon="13.32045467102444"><ele>333.0</ele><time>2026-05-01T09:35:03.999Z</time></trkpt><trkpt lat="41.70716268136956" lon="13.320534847548133"><ele>333.0</ele><time>2026-05-01T09:35:04.999Z</time></trkpt><trkpt lat="41.707121245804615" lon="13.320627461051243"><ele>333.0</ele><time>2026-05-01T09:35:05.999Z</time></trkpt><trkpt lat="41.707084865550094" lon="13.320731625099889"><ele>333.0</ele><time>2026-05-01T09:35:06.999Z</time></trkpt><trkpt lat="41.7070364397591" lon="13.320834757863867"><ele>333.0</ele><time>2026-05-01T09:35:07.999Z</time></trkpt><trkpt lat="41.70696626069691" lon="13.320938821184672"><ele>333.0</ele><time>2026-05-01T09:35:08.999Z</time></trkpt><trkpt lat="41.706890609628914" lon="13.32103538851717"><ele>333.0</ele><time>2026-05-01T09:35:09.999Z</time></trkpt><trkpt lat="41.706822177775926" lon="13.321132057122542"><ele>333.0</ele><time>2026-05-01T09:35:10.999Z</time></trkpt><trkpt lat="41.70675895217494" lon="13.321236734426723"><ele>333.0</ele><time>2026-05-01T09:35:11.999Z</time></trkpt><trkpt lat="41.706694572134566" lon="13.321336583588858"><ele>333.0</ele><time>2026-05-01T09:35:12.999Z</time></trkpt><trkpt lat="41.706620573841626" lon="13.321430730582613"><ele>329.59999999999997</ele><time>2026-05-01T09:35:13.999Z</time></trkpt><trkpt lat="41.706542310974434" lon="13.32152526722497"><ele>326.2</ele><time>2026-05-01T09:35:14.999Z</time></trkpt><trkpt lat="41.706459558361935" lon="13.321625594589056"><ele>322.8</ele><time>2026-05-01T09:35:15.999Z</time></trkpt><trkpt lat="41.70637322464085" lon="13.32172506794156"><ele>319.4</ele><time>2026-05-01T09:35:16.999Z</time></trkpt><trkpt lat="41.706286665039556" lon="13.321815361436704"><ele>316.0</ele><time>2026-05-01T09:35:17.999Z</time></trkpt><trkpt lat="41.70619668318875" lon="13.321906312010729"><ele>316.0</ele><time>2026-05-01T09:35:18.999Z</time></trkpt><trkpt lat="41.70610432891297" lon="13.322001915505151"><ele>316.0</ele><time>2026-05-01T09:35:19.999Z</time></trkpt><trkpt lat="41.70601416235812" lon="13.322104088429619"><ele>316.0</ele><time>2026-05-01T09:35:20.999Z</time></trkpt><trkpt lat="41.70592524997114" lon="13.322209783201881"><ele>316.0</ele><time>2026-05-01T09:35:21.999Z</time></trkpt><trkpt lat="41.70583942325224" lon="13.322312042311735"><ele>314.0</ele><time>2026-05-01T09:35:22.999Z</time></trkpt><trkpt lat="41.70575955105846" lon="13.32240720696341"><ele>312.0</ele><time>2026-05-01T09:35:23.999Z</time></trkpt><trkpt lat="41.705681203985954" lon="13.322503515879372"><ele>310.0</ele><time>2026-05-01T09:35:24.999Z</time></trkpt><trkpt lat="41.705609133021575" lon="13.322593365676097"><ele>308.0</ele><time>2026-05-01T09:35:25.999Z</time></trkpt><trkpt lat="41.70553885143198" lon="13.322676266819128"><ele>306.0</ele><time>2026-05-01T09:35:26.999Z</time></trkpt><trkpt lat="41.70547117978967" lon="13.322753956608482"><ele>306.0</ele><time>2026-05-01T09:35:27.999Z</time></trkpt><trkpt lat="41.70540841122966" lon="13.322823152926983"><ele>306.0</ele><time>2026-05-01T09:35:28.999Z</time></trkpt><trkpt lat="41.705351078143956" lon="13.32290159583868"><ele>306.0</ele><time>2026-05-01T09:35:29.998Z</time></trkpt><trkpt lat="41.705303467642544" lon="13.322997033348509"><ele>306.0</ele><time>2026-05-01T09:35:30.998Z</time></trkpt><trkpt lat="41.70529712362485" lon="13.323114940775106"><ele>306.0</ele><time>2026-05-01T09:35:31.998Z</time></trkpt><trkpt lat="41.705354751077124" lon="13.323215541613536"><ele>306.0</ele><time>2026-05-01T09:35:32.998Z</time></trkpt><trkpt lat="41.70540145178148" lon="13.323309086094921"><ele>305.6666666666667</ele><time>2026-05-01T09:35:33.998Z</time></trkpt><trkpt lat="41.70543331303264" lon="13.32341476688729"><ele>305.3333333333333</ele><time>2026-05-01T09:35:34.998Z</time></trkpt><trkpt lat="41.70547207717304" lon="13.323514264152049"><ele>305.0</ele><time>2026-05-01T09:35:35.998Z</time></trkpt><trkpt lat="41.70549858531637" lon="13.323610776936105"><ele>304.66666666666663</ele><time>2026-05-01T09:35:36.998Z</time></trkpt><trkpt lat="41.70553294995963" lon="13.323696922740625"><ele>304.3333333333333</ele><time>2026-05-01T09:35:37.998Z</time></trkpt><trkpt lat="41.70554218418923" lon="13.323781934018033"><ele>304.0</ele><time>2026-05-01T09:35:38.998Z</time></trkpt><trkpt lat="41.705575453595856" lon="13.32391251465203"><ele>304.0</ele><time>2026-05-01T09:35:41Z</time></trkpt><trkpt lat="41.70543072501523" lon="13.323976229242835"><ele>304.0</ele><time>2026-05-01T09:40:07Z</time></trkpt><trkpt lat="41.70533601994412" lon="13.323990866888764"><ele>304.0</ele><time>2026-05-01T09:40:08Z</time></trkpt><trkpt lat="41.70523102015536" lon="13.32402194353032"><ele>304.0</ele><time>2026-05-01T09:40:09Z</time></trkpt><trkpt lat="41.70510758859709" lon="13.324024745608646"><ele>303.0</ele><time>2026-05-01T09:40:10Z</time></trkpt><trkpt lat="41.70497730735423" lon="13.324028664006649"><ele>302.0</ele><time>2026-05-01T09:40:11Z</time></trkpt><trkpt lat="41.704834745510844" lon="13.324025815821132"><ele>301.0</ele><time>2026-05-01T09:40:12Z</time></trkpt><trkpt lat="41.704682276541526" lon="13.32401494496104"><ele>300.0</ele><time>2026-05-01T09:40:13Z</time></trkpt><trkpt lat="41.70452963044035" lon="13.323999665722113"><ele>300.3333333333333</ele><time>2026-05-01T09:40:14Z</time></trkpt><trkpt lat="41.70436396244889" lon="13.323986115374268"><ele>300.66666666666663</ele><time>2026-05-01T09:40:15Z</time></trkpt><trkpt lat="41.704201607104466" lon="13.323975000674709"><ele>301.0</ele><time>2026-05-01T09:40:16Z</time></trkpt><trkpt lat="41.70404721567219" lon="13.323963522832114"><ele>301.0</ele><time>2026-05-01T09:40:17Z</time></trkpt><trkpt lat="41.70388412471358" lon="13.323955473389198"><ele>301.0</ele><time>2026-05-01T09:40:18Z</time></trkpt><trkpt lat="41.70373235890451" lon="13.32394730923984"><ele>301.0</ele><time>2026-05-01T09:40:19Z</time></trkpt><trkpt lat="41.703586895664465" lon="13.323934628916295"><ele>300.66666666666663</ele><time>2026-05-01T09:40:20Z</time></trkpt><trkpt lat="41.70344128167978" lon="13.323927929775902"><ele>300.3333333333333</ele><time>2026-05-01T09:40:21Z</time></trkpt><trkpt lat="41.703282066448395" lon="13.323946315968952"><ele>300.0</ele><time>2026-05-01T09:40:22Z</time></trkpt><trkpt lat="41.70312643367623" lon="13.323985798326767"><ele>300.0</ele><time>2026-05-01T09:40:23Z</time></trkpt><trkpt lat="41.702967421262976" lon="13.324036417147159"><ele>300.0</ele><time>2026-05-01T09:40:24Z</time></trkpt><trkpt lat="41.70282583211232" lon="13.324101828366862"><ele>300.0</ele><time>2026-05-01T09:40:25Z</time></trkpt><trkpt lat="41.70269068707558" lon="13.324177663620292"><ele>295.6666666666667</ele><time>2026-05-01T09:40:26Z</time></trkpt><trkpt lat="41.70256480084499" lon="13.32428327200812"><ele>291.33333333333337</ele><time>2026-05-01T09:40:27Z</time></trkpt><trkpt lat="41.70244695342506" lon="13.324423643156988"><ele>287.0</ele><time>2026-05-01T09:40:28Z</time></trkpt><trkpt lat="41.702332186668826" lon="13.324599444440771"><ele>292.33333333333337</ele><time>2026-05-01T09:40:29Z</time></trkpt><trkpt lat="41.702225404605855" lon="13.324788961354404"><ele>297.6666666666667</ele><time>2026-05-01T09:40:30Z</time></trkpt><trkpt lat="41.7021217216529" lon="13.32498723822125"><ele>303.0</ele><time>2026-05-01T09:40:31Z</time></trkpt><trkpt lat="41.70202390885077" lon="13.325170412698983"><ele>303.0</ele><time>2026-05-01T09:40:32Z</time></trkpt><trkpt lat="41.701928362482434" lon="13.325358171996564"><ele>303.0</ele><time>2026-05-01T09:40:33Z</time></trkpt><trkpt lat="41.7018353107679" lon="13.325564922725478"><ele>303.0</ele><time>2026-05-01T09:40:34Z</time></trkpt><trkpt lat="41.70174809329952" lon="13.32580019613068"><ele>298.6666666666667</ele><time>2026-05-01T09:40:35Z</time></trkpt><trkpt lat="41.70166516182371" lon="13.326037915101791"><ele>294.33333333333337</ele><time>2026-05-01T09:40:35.999Z</time></trkpt><trkpt lat="41.70158153556689" lon="13.32627783009236"><ele>290.0</ele><time>2026-05-01T09:40:36.999Z</time></trkpt><trkpt lat="41.70149776800756" lon="13.326516355303585"><ele>290.0</ele><time>2026-05-01T09:40:37.999Z</time></trkpt><trkpt lat="41.70140949867145" lon="13.326765362118767"><ele>290.0</ele><time>2026-05-01T09:40:38.999Z</time></trkpt><trkpt lat="41.70131995913629" lon="13.327024628542741"><ele>290.0</ele><time>2026-05-01T09:40:39.999Z</time></trkpt><trkpt lat="41.701227488250204" lon="13.327291801453354"><ele>289.33333333333337</ele><time>2026-05-01T09:40:40.999Z</time></trkpt><trkpt lat="41.70113354502546" lon="13.32756282829809"><ele>288.6666666666667</ele><time>2026-05-01T09:40:41.999Z</time></trkpt><trkpt lat="41.70103978043644" lon="13.32783027330085"><ele>288.0</ele><time>2026-05-01T09:40:42.999Z</time></trkpt><trkpt lat="41.70094653590732" lon="13.328094810964844"><ele>284.6666666666667</ele><time>2026-05-01T09:40:43.999Z</time></trkpt><trkpt lat="41.700854892629735" lon="13.328355575899332"><ele>281.33333333333337</ele><time>2026-05-01T09:40:44.999Z</time></trkpt><trkpt lat="41.70076283027163" lon="13.328609952058041"><ele>278.0</ele><time>2026-05-01T09:40:45.999Z</time></trkpt><trkpt lat="41.70067121347682" lon="13.328857566898492"><ele>278.33333333333337</ele><time>2026-05-01T09:40:46.999Z</time></trkpt><trkpt lat="41.700578164441325" lon="13.329100586835754"><ele>278.6666666666667</ele><time>2026-05-01T09:40:47.999Z</time></trkpt><trkpt lat="41.70048122247287" lon="13.329335005252203"><ele>279.0</ele><time>2026-05-01T09:40:48.999Z</time></trkpt><trkpt lat="41.70037959626371" lon="13.3295727758071"><ele>278.3333333333333</ele><time>2026-05-01T09:40:49.999Z</time></trkpt><trkpt lat="41.700276444710454" lon="13.32981428000675"><ele>277.66666666666663</ele><time>2026-05-01T09:40:50.999Z</time></trkpt><trkpt lat="41.70017215801176" lon="13.330052811234038"><ele>277.0</ele><time>2026-05-01T09:40:51.999Z</time></trkpt><trkpt lat="41.700071052209154" lon="13.330284885937951"><ele>277.0</ele><time>2026-05-01T09:40:52.999Z</time></trkpt><trkpt lat="41.699968746551306" lon="13.330519101433016"><ele>277.0</ele><time>2026-05-01T09:40:53.999Z</time></trkpt><trkpt lat="41.69986639997754" lon="13.330749186578853"><ele>277.0</ele><time>2026-05-01T09:40:54.999Z</time></trkpt><trkpt lat="41.69976412306358" lon="13.330974764306324"><ele>277.66666666666663</ele><time>2026-05-01T09:40:55.999Z</time></trkpt><trkpt lat="41.699662050507385" lon="13.331201862846"><ele>278.3333333333333</ele><time>2026-05-01T09:40:56.999Z</time></trkpt><trkpt lat="41.69956939712594" lon="13.331418718698279"><ele>279.0</ele><time>2026-05-01T09:40:57.999Z</time></trkpt><trkpt lat="41.69948739978536" lon="13.331626692906784"><ele>278.3333333333333</ele><time>2026-05-01T09:40:58.999Z</time></trkpt><trkpt lat="41.69939079411488" lon="13.331813906621727"><ele>277.66666666666663</ele><time>2026-05-01T09:40:59.999Z</time></trkpt><trkpt lat="41.699322052129396" lon="13.332034496601032"><ele>277.0</ele><time>2026-05-01T09:41:00.999Z</time></trkpt><trkpt lat="41.699245042131565" lon="13.332261699058527"><ele>276.0</ele><time>2026-05-01T09:41:01.999Z</time></trkpt><trkpt lat="41.699187429170635" lon="13.332504590663174"><ele>275.0</ele><time>2026-05-01T09:41:02.999Z</time></trkpt><trkpt lat="41.69914736444007" lon="13.33275769651706"><ele>274.0</ele><time>2026-05-01T09:41:03.999Z</time></trkpt><trkpt lat="41.699132418428384" lon="13.333025275509307"><ele>274.66666666666663</ele><time>2026-05-01T09:41:04.999Z</time></trkpt><trkpt lat="41.699132755938045" lon="13.333300704173256"><ele>275.3333333333333</ele><time>2026-05-01T09:41:05.999Z</time></trkpt><trkpt lat="41.69913918269922" lon="13.333572281019391"><ele>276.0</ele><time>2026-05-01T09:41:06.999Z</time></trkpt><trkpt lat="41.69914367256573" lon="13.33383715960211"><ele>275.6666666666667</ele><time>2026-05-01T09:41:07.999Z</time></trkpt><trkpt lat="41.699141896946564" lon="13.334099485024218"><ele>275.33333333333337</ele><time>2026-05-01T09:41:08.999Z</time></trkpt><trkpt lat="41.69913894512102" lon="13.334356240054952"><ele>275.0</ele><time>2026-05-01T09:41:09.999Z</time></trkpt><trkpt lat="41.69913318736752" lon="13.334614012348194"><ele>275.0</ele><time>2026-05-01T09:41:10.999Z</time></trkpt><trkpt lat="41.69912788756163" lon="13.334876104104183"><ele>275.0</ele><time>2026-05-01T09:41:11.999Z</time></trkpt><trkpt lat="41.699119709341396" lon="13.33513913546422"><ele>275.0</ele><time>2026-05-01T09:41:12.999Z</time></trkpt><trkpt lat="41.69910411584278" lon="13.335400511243133"><ele>276.6666666666667</ele><time>2026-05-01T09:41:13.999Z</time></trkpt><trkpt lat="41.699081103906664" lon="13.335664893184292"><ele>278.3333333333333</ele><time>2026-05-01T09:41:14.999Z</time></trkpt><trkpt lat="41.69905362313519" lon="13.335932113833916"><ele>280.0</ele><time>2026-05-01T09:41:15.999Z</time></trkpt><trkpt lat="41.69902016857284" lon="13.336197184405803"><ele>280.3333333333333</ele><time>2026-05-01T09:41:16.999Z</time></trkpt><trkpt lat="41.6989765243331" lon="13.33645810164801"><ele>280.6666666666667</ele><time>2026-05-01T09:41:17.999Z</time></trkpt><trkpt lat="41.69892204074976" lon="13.336711420747898"><ele>281.0</ele><time>2026-05-01T09:41:18.999Z</time></trkpt><trkpt lat="41.69886321778194" lon="13.336963694396998"><ele>281.0</ele><time>2026-05-01T09:41:19.999Z</time></trkpt><trkpt lat="41.69880596002521" lon="13.337213144260916"><ele>281.0</ele><time>2026-05-01T09:41:20.999Z</time></trkpt><trkpt lat="41.69874939871482" lon="13.337466318339791"><ele>281.0</ele><time>2026-05-01T09:41:21.999Z</time></trkpt><trkpt lat="41.698698195039796" lon="13.337722923756996"><ele>281.6666666666667</ele><time>2026-05-01T09:41:22.999Z</time></trkpt><trkpt lat="41.69864634071652" lon="13.33798679698608"><ele>282.3333333333333</ele><time>2026-05-01T09:41:23.999Z</time></trkpt><trkpt lat="41.69857593065217" lon="13.33824488369658"><ele>283.0</ele><time>2026-05-01T09:41:24.999Z</time></trkpt><trkpt lat="41.698524203449864" lon="13.338507722890762"><ele>278.3333333333333</ele><time>2026-05-01T09:41:25.999Z</time></trkpt><trkpt lat="41.69845148232672" lon="13.338759469462305"><ele>273.6666666666667</ele><time>2026-05-01T09:41:26.999Z</time></trkpt><trkpt lat="41.698377735833795" lon="13.339009717830388"><ele>269.0</ele><time>2026-05-01T09:41:27.999Z</time></trkpt><trkpt lat="41.69830762044843" lon="13.339260522891674"><ele>269.0</ele><time>2026-05-01T09:41:28.999Z</time></trkpt><trkpt lat="41.69823225523195" lon="13.339502092719236"><ele>269.0</ele><time>2026-05-01T09:41:29.999Z</time></trkpt><trkpt lat="41.69815093789164" lon="13.339718528218077"><ele>269.0</ele><time>2026-05-01T09:41:30.999Z</time></trkpt><trkpt lat="41.69807170219983" lon="13.33991325863163"><ele>271.33333333333337</ele><time>2026-05-01T09:41:31.999Z</time></trkpt><trkpt lat="41.69799996346961" lon="13.340095828440791"><ele>273.6666666666667</ele><time>2026-05-01T09:41:32.999Z</time></trkpt><trkpt lat="41.69792667622993" lon="13.340278918654398"><ele>276.0</ele><time>2026-05-01T09:41:33.999Z</time></trkpt><trkpt lat="41.697843375013235" lon="13.340458342032214"><ele>273.3333333333333</ele><time>2026-05-01T09:41:34.999Z</time></trkpt><trkpt lat="41.697742950646244" lon="13.340622159497372"><ele>270.66666666666663</ele><time>2026-05-01T09:41:35.999Z</time></trkpt><trkpt lat="41.69762395792298" lon="13.340763979268461"><ele>268.0</ele><time>2026-05-01T09:41:36.999Z</time></trkpt><trkpt lat="41.69747768036906" lon="13.340867631870607"><ele>268.0</ele><time>2026-05-01T09:41:37.999Z</time></trkpt><trkpt lat="41.69733104653591" lon="13.340970954622941"><ele>268.0</ele><time>2026-05-01T09:41:38.999Z</time></trkpt><trkpt lat="41.69717436693763" lon="13.341068322270921"><ele>268.0</ele><time>2026-05-01T09:41:39.999Z</time></trkpt><trkpt lat="41.69702820531175" lon="13.341187439878478"><ele>267.66666666666663</ele><time>2026-05-01T09:41:40.999Z</time></trkpt><trkpt lat="41.69688896439615" lon="13.341306421465003"><ele>267.3333333333333</ele><time>2026-05-01T09:41:41.999Z</time></trkpt><trkpt lat="41.69677577625634" lon="13.341440637792424"><ele>267.0</ele><time>2026-05-01T09:41:42.999Z</time></trkpt><trkpt lat="41.69667789351157" lon="13.341567684021532"><ele>267.0</ele><time>2026-05-01T09:41:43.998Z</time></trkpt><trkpt lat="41.69660025636422" lon="13.341672047746837"><ele>267.0</ele><time>2026-05-01T09:41:44.998Z</time></trkpt><trkpt lat="41.69653394250022" lon="13.341689180534104"><ele>267.0</ele><time>2026-05-01T09:41:45.998Z</time></trkpt><trkpt lat="41.69645939833982" lon="13.341750696170342"><ele>267.0</ele><time>2026-05-01T09:41:48.998Z</time></trkpt><trkpt lat="41.69652475141786" lon="13.34194042527814"><ele>267.0</ele><time>2026-05-01T09:41:49.998Z</time></trkpt><trkpt lat="41.696559368120674" lon="13.342033255663637"><ele>267.0</ele><time>2026-05-01T09:41:50.998Z</time></trkpt><trkpt lat="41.696613621511766" lon="13.34216280041357"><ele>267.0</ele><time>2026-05-01T09:41:52.998Z</time></trkpt><trkpt lat="41.69664632234004" lon="13.342236180676496"><ele>267.0</ele><time>2026-05-01T09:41:53.998Z</time></trkpt><trkpt lat="41.6966935351808" lon="13.342307234941565"><ele>267.0</ele><time>2026-05-01T09:41:54.998Z</time></trkpt><trkpt lat="41.6967639827514" lon="13.34237678921739"><ele>267.0</ele><time>2026-05-01T09:41:55.998Z</time></trkpt><trkpt lat="41.69684468339776" lon="13.342452243836185"><ele>267.0</ele><time>2026-05-01T09:41:57Z</time></trkpt><trkpt lat="41.69693144840945" lon="13.342539848952217"><ele>268.75</ele><time>2026-05-01T09:41:58Z</time></trkpt><trkpt lat="41.697019536386996" lon="13.342632345491948"><ele>270.5</ele><time>2026-05-01T09:41:59Z</time></trkpt><trkpt lat="41.69711115142093" lon="13.342731000601187"><ele>272.25</ele><time>2026-05-01T09:42:00Z</time></trkpt><trkpt lat="41.69720579674168" lon="13.34282677988799"><ele>274.0</ele><time>2026-05-01T09:42:01Z</time></trkpt><trkpt lat="41.69729666018069" lon="13.342906181264157"><ele>274.0</ele><time>2026-05-01T09:42:02Z</time></trkpt><trkpt lat="41.697382569850596" lon="13.342962809198099"><ele>274.0</ele><time>2026-05-01T09:42:03Z</time></trkpt><trkpt lat="41.69746232252954" lon="13.34299760020668"><ele>274.0</ele><time>2026-05-01T09:42:04Z</time></trkpt><trkpt lat="41.6975314423366" lon="13.34302372970174"><ele>274.0</ele><time>2026-05-01T09:42:05Z</time></trkpt><trkpt lat="41.69758207338477" lon="13.343114436058574"><ele>274.0</ele><time>2026-05-01T09:42:07Z</time></trkpt><trkpt lat="41.6974922392529" lon="13.34321151257535"><ele>274.0</ele><time>2026-05-01T09:42:09Z</time></trkpt><trkpt lat="41.69744028727035" lon="13.34329081388225"><ele>274.0</ele><time>2026-05-01T09:42:10Z</time></trkpt><trkpt lat="41.69738432827357" lon="13.343376231299413"><ele>274.0</ele><time>2026-05-01T09:42:11Z</time></trkpt><trkpt lat="41.6973270916073" lon="13.343463599231004"><ele>274.0</ele><time>2026-05-01T09:42:12Z</time></trkpt><trkpt lat="41.697268613658785" lon="13.343552861936496"><ele>274.0</ele><time>2026-05-01T09:42:13Z</time></trkpt><trkpt lat="41.697212671401864" lon="13.343636217522526"><ele>274.0</ele><time>2026-05-01T09:42:14Z</time></trkpt><trkpt lat="41.697158069513875" lon="13.343715651260734"><ele>274.0</ele><time>2026-05-01T09:42:15Z</time></trkpt><trkpt lat="41.697106919010835" lon="13.343790063967461"><ele>274.0</ele><time>2026-05-01T09:42:16Z</time></trkpt><trkpt lat="41.69705424626178" lon="13.343866691158604"><ele>274.0</ele><time>2026-05-01T09:42:17Z</time></trkpt><trkpt lat="41.697007230324196" lon="13.343935089071783"><ele>274.0</ele><time>2026-05-01T09:42:18Z</time></trkpt><trkpt lat="41.69693895355623" lon="13.344042792150486"><ele>274.0</ele><time>2026-05-01T09:42:20Z</time></trkpt><trkpt lat="41.69689960051056" lon="13.344130966430734"><ele>274.0</ele><time>2026-05-01T09:42:26Z</time></trkpt><trkpt lat="41.69699856479611" lon="13.34423631854797"><ele>273.8</ele><time>2026-05-01T09:42:27Z</time></trkpt><trkpt lat="41.6970598315521" lon="13.344307057035369"><ele>273.59999999999997</ele><time>2026-05-01T09:42:28Z</time></trkpt><trkpt lat="41.69712886271188" lon="13.344383285630462"><ele>273.4</ele><time>2026-05-01T09:42:29Z</time></trkpt><trkpt lat="41.697211016515915" lon="13.344469170878838"><ele>273.2</ele><time>2026-05-01T09:42:30Z</time></trkpt><trkpt lat="41.69729455200128" lon="13.344557608434451"><ele>273.0</ele><time>2026-05-01T09:42:31Z</time></trkpt><trkpt lat="41.697391546304225" lon="13.344653527108749"><ele>273.0</ele><time>2026-05-01T09:42:32Z</time></trkpt><trkpt lat="41.697493672671065" lon="13.344748703933638"><ele>273.0</ele><time>2026-05-01T09:42:33Z</time></trkpt><trkpt lat="41.69758610823284" lon="13.34485927132965"><ele>273.0</ele><time>2026-05-01T09:42:34Z</time></trkpt><trkpt lat="41.6976947981571" lon="13.344948735385673"><ele>273.0</ele><time>2026-05-01T09:42:35Z</time></trkpt><trkpt lat="41.69782346260644" lon="13.345008084190969"><ele>274.25</ele><time>2026-05-01T09:42:35.999Z</time></trkpt><trkpt lat="41.69794722895875" lon="13.345092846076678"><ele>275.5</ele><time>2026-05-01T09:42:36.999Z</time></trkpt><trkpt lat="41.698070206969575" lon="13.34517458918933"><ele>276.75</ele><time>2026-05-01T09:42:37.999Z</time></trkpt><trkpt lat="41.69819080517128" lon="13.345263582965966"><ele>278.0</ele><time>2026-05-01T09:42:38.999Z</time></trkpt><trkpt lat="41.69831071157836" lon="13.345357802875863"><ele>278.0</ele><time>2026-05-01T09:42:39.999Z</time></trkpt><trkpt lat="41.698431419033405" lon="13.345450557075653"><ele>278.0</ele><time>2026-05-01T09:42:40.999Z</time></trkpt><trkpt lat="41.698550249055295" lon="13.345564351956297"><ele>278.0</ele><time>2026-05-01T09:42:41.999Z</time></trkpt><trkpt lat="41.69867874253315" lon="13.345655859609025"><ele>278.0</ele><time>2026-05-01T09:42:42.999Z</time></trkpt><trkpt lat="41.69880870401143" lon="13.345742738622285"><ele>279.25</ele><time>2026-05-01T09:42:43.999Z</time></trkpt><trkpt lat="41.69894612029001" lon="13.345803279098842"><ele>280.5</ele><time>2026-05-01T09:42:44.999Z</time></trkpt><trkpt lat="41.69906724598593" lon="13.345894458560675"><ele>281.75</ele><time>2026-05-01T09:42:45.999Z</time></trkpt><trkpt lat="41.699185557811255" lon="13.345988346186784"><ele>283.0</ele><time>2026-05-01T09:42:46.999Z</time></trkpt><trkpt lat="41.69928952281528" lon="13.346102742032171"><ele>283.0</ele><time>2026-05-01T09:42:47.999Z</time></trkpt><trkpt lat="41.699406490104586" lon="13.34616301873627"><ele>283.0</ele><time>2026-05-01T09:42:48.999Z</time></trkpt><trkpt lat="41.699515303843384" lon="13.346220725232156"><ele>283.0</ele><time>2026-05-01T09:42:49.999Z</time></trkpt><trkpt lat="41.699612866345234" lon="13.34626486670492"><ele>283.0</ele><time>2026-05-01T09:42:50.999Z</time></trkpt><trkpt lat="41.69970559310809" lon="13.346299512594083"><ele>283.0</ele><time>2026-05-01T09:42:51.999Z</time></trkpt><trkpt lat="41.69979433318986" lon="13.34632248850982"><ele>284.0</ele><time>2026-05-01T09:42:52.999Z</time></trkpt><trkpt lat="41.69988161773354" lon="13.346336871681082"><ele>285.0</ele><time>2026-05-01T09:42:53.999Z</time></trkpt><trkpt lat="41.69997193400865" lon="13.346337934721289"><ele>286.0</ele><time>2026-05-01T09:42:54.999Z</time></trkpt><trkpt lat="41.70006297818604" lon="13.34632726641396"><ele>287.0</ele><time>2026-05-01T09:42:55.999Z</time></trkpt><trkpt lat="41.700148190045084" lon="13.346327351280802"><ele>288.0</ele><time>2026-05-01T09:42:56.999Z</time></trkpt><trkpt lat="41.70023632001022" lon="13.34634700361616"><ele>289.0</ele><time>2026-05-01T09:42:57.999Z</time></trkpt><trkpt lat="41.70032467031312" lon="13.346384283293213"><ele>289.66666666666663</ele><time>2026-05-01T09:42:58.999Z</time></trkpt><trkpt lat="41.70040613487073" lon="13.346448502070546"><ele>290.3333333333333</ele><time>2026-05-01T09:42:59.999Z</time></trkpt><trkpt lat="41.70048186407133" lon="13.346510271216703"><ele>291.0</ele><time>2026-05-01T09:43:00.999Z</time></trkpt><trkpt lat="41.700538253389404" lon="13.34656123352555"><ele>291.6666666666667</ele><time>2026-05-01T09:43:01.999Z</time></trkpt><trkpt lat="41.70062938386017" lon="13.346658742575965"><ele>292.33333333333337</ele><time>2026-05-01T09:43:03.999Z</time></trkpt><trkpt lat="41.70068514415398" lon="13.346726341892737"><ele>293.0</ele><time>2026-05-01T09:43:04.999Z</time></trkpt><trkpt lat="41.70074252426776" lon="13.346801171967858"><ele>293.0</ele><time>2026-05-01T09:43:05.999Z</time></trkpt><trkpt lat="41.70080195533815" lon="13.346865288751793"><ele>293.0</ele><time>2026-05-01T09:43:06.999Z</time></trkpt><trkpt lat="41.70085098215995" lon="13.34692971086527"><ele>293.0</ele><time>2026-05-01T09:43:07.999Z</time></trkpt><trkpt lat="41.70089207990614" lon="13.347000566405693"><ele>293.0</ele><time>2026-05-01T09:43:08.999Z</time></trkpt><trkpt lat="41.70097113035474" lon="13.347126736158144"><ele>293.0</ele><time>2026-05-01T09:43:10.999Z</time></trkpt><trkpt lat="41.70101521960056" lon="13.347194872762094"><ele>293.0</ele><time>2026-05-01T09:43:11.999Z</time></trkpt><trkpt lat="41.70105426117783" lon="13.347266795007307"><ele>293.2857142857143</ele><time>2026-05-01T09:43:12.999Z</time></trkpt><trkpt lat="41.70109626933078" lon="13.347341421244817"><ele>293.57142857142856</ele><time>2026-05-01T09:43:13.999Z</time></trkpt><trkpt lat="41.70114352987725" lon="13.34741519308383"><ele>293.8571428571429</ele><time>2026-05-01T09:43:14.999Z</time></trkpt><trkpt lat="41.70119345459509" lon="13.34748253899033"><ele>294.1428571428571</ele><time>2026-05-01T09:43:15.999Z</time></trkpt><trkpt lat="41.70124525178088" lon="13.347555100458154"><ele>294.42857142857144</ele><time>2026-05-01T09:43:16.999Z</time></trkpt><trkpt lat="41.701282903704936" lon="13.347643684986219"><ele>294.7142857142857</ele><time>2026-05-01T09:43:17.999Z</time></trkpt><trkpt lat="41.70132406901986" lon="13.347721277906196"><ele>295.0</ele><time>2026-05-01T09:43:18.999Z</time></trkpt><trkpt lat="41.701366029068986" lon="13.347802181396263"><ele>295.0</ele><time>2026-05-01T09:43:19.999Z</time></trkpt><trkpt lat="41.70141579007005" lon="13.34787948562512"><ele>295.0</ele><time>2026-05-01T09:43:20.999Z</time></trkpt><trkpt lat="41.70146183241576" lon="13.347954095079972"><ele>295.0</ele><time>2026-05-01T09:43:21.999Z</time></trkpt><trkpt lat="41.701502178185365" lon="13.348024390951776"><ele>295.0</ele><time>2026-05-01T09:43:22.999Z</time></trkpt><trkpt lat="41.70158749637785" lon="13.348140385706973"><ele>295.0</ele><time>2026-05-01T09:43:24.999Z</time></trkpt><trkpt lat="41.70163651459343" lon="13.34819373184423"><ele>295.0</ele><time>2026-05-01T09:43:25.999Z</time></trkpt><trkpt lat="41.70169721686955" lon="13.348233433496215"><ele>295.00000000000006</ele><time>2026-05-01T09:43:26.999Z</time></trkpt><trkpt lat="41.701762912407546" lon="13.348258078592517"><ele>295.0</ele><time>2026-05-01T09:43:27.999Z</time></trkpt><trkpt lat="41.701833799452096" lon="13.348277742484996"><ele>295.0</ele><time>2026-05-01T09:43:28.999Z</time></trkpt><trkpt lat="41.70190359111224" lon="13.348310374323027"><ele>295.0</ele><time>2026-05-01T09:43:29.999Z</time></trkpt><trkpt lat="41.7019534505244" lon="13.348384302389587"><ele>295.0</ele><time>2026-05-01T09:43:30.999Z</time></trkpt><trkpt lat="41.70201057149588" lon="13.34844715965567"><ele>295.00000000000006</ele><time>2026-05-01T09:43:31.999Z</time></trkpt><trkpt lat="41.7020782149041" lon="13.348497947971591"><ele>295.0</ele><time>2026-05-01T09:43:32.999Z</time></trkpt><trkpt lat="41.70212444383584" lon="13.348583923186055"><ele>295.0</ele><time>2026-05-01T09:43:33.999Z</time></trkpt><trkpt lat="41.70217980868396" lon="13.34863576912259"><ele>295.0</ele><time>2026-05-01T09:43:34.999Z</time></trkpt><trkpt lat="41.70224625735269" lon="13.348796477448479"><ele>295.0</ele><time>2026-05-01T09:43:36.999Z</time></trkpt><trkpt lat="41.70228279808736" lon="13.348895672088451"><ele>295.0</ele><time>2026-05-01T09:43:37.999Z</time></trkpt><trkpt lat="41.70232159310683" lon="13.34899846894433"><ele>295.0</ele><time>2026-05-01T09:43:38.999Z</time></trkpt><trkpt lat="41.70235751936273" lon="13.349100435420164"><ele>294.16666666666663</ele><time>2026-05-01T09:43:39.999Z</time></trkpt><trkpt lat="41.70239517361948" lon="13.349199249232427"><ele>293.3333333333333</ele><time>2026-05-01T09:43:40.999Z</time></trkpt><trkpt lat="41.702433671903464" lon="13.349295792956243"><ele>292.5</ele><time>2026-05-01T09:43:41.999Z</time></trkpt><trkpt lat="41.70246866542492" lon="13.349389760913754"><ele>291.6666666666667</ele><time>2026-05-01T09:43:42.999Z</time></trkpt><trkpt lat="41.70249703551884" lon="13.349473933057189"><ele>290.83333333333337</ele><time>2026-05-01T09:43:43.999Z</time></trkpt><trkpt lat="41.702546651677224" lon="13.34961347476449"><ele>290.0</ele><time>2026-05-01T09:43:45.998Z</time></trkpt><trkpt lat="41.70256196987951" lon="13.349759784230475"><ele>290.0</ele><time>2026-05-01T09:43:47.998Z</time></trkpt><trkpt lat="41.70257871292007" lon="13.349855197851022"><ele>290.0</ele><time>2026-05-01T09:43:48.998Z</time></trkpt><trkpt lat="41.70258758493354" lon="13.34997293303961"><ele>290.0</ele><time>2026-05-01T09:43:49.998Z</time></trkpt><trkpt lat="41.702606823168196" lon="13.35009439215942"><ele>290.0</ele><time>2026-05-01T09:43:50.998Z</time></trkpt><trkpt lat="41.70260825495046" lon="13.350214941040681"><ele>290.0</ele><time>2026-05-01T09:43:51.998Z</time></trkpt><trkpt lat="41.702621051469386" lon="13.350317960647697"><ele>290.0</ele><time>2026-05-01T09:43:52.998Z</time></trkpt><trkpt lat="41.70262975592461" lon="13.350406477387706"><ele>290.0</ele><time>2026-05-01T09:43:53.998Z</time></trkpt><trkpt lat="41.70262870263883" lon="13.350503081341499"><ele>290.0</ele><time>2026-05-01T09:43:56.998Z</time></trkpt><trkpt lat="41.702529804349055" lon="13.350556600059068"><ele>290.0</ele><time>2026-05-01T09:43:59.998Z</time></trkpt><trkpt lat="41.70246095121654" lon="13.350543225628494"><ele>290.0</ele><time>2026-05-01T09:44:00.998Z</time></trkpt><trkpt lat="41.702388630599984" lon="13.350534983566424"><ele>290.0</ele><time>2026-05-01T09:44:02Z</time></trkpt><trkpt lat="41.70231432534188" lon="13.350531458062527"><ele>290.0</ele><time>2026-05-01T09:44:03Z</time></trkpt><trkpt lat="41.702235866022306" lon="13.350527379680956"><ele>290.0</ele><time>2026-05-01T09:44:04Z</time></trkpt><trkpt lat="41.70216022956335" lon="13.35052287715584"><ele>290.0</ele><time>2026-05-01T09:44:05Z</time></trkpt><trkpt lat="41.702088862429626" lon="13.350513859644375"><ele>290.0</ele><time>2026-05-01T09:44:06Z</time></trkpt><trkpt lat="41.70201137752504" lon="13.350504602109002"><ele>290.0</ele><time>2026-05-01T09:44:07Z</time></trkpt><trkpt lat="41.7019337708374" lon="13.350500514629173"><ele>290.0</ele><time>2026-05-01T09:44:08Z</time></trkpt><trkpt lat="41.70185019925413" lon="13.350506889672822"><ele>290.0</ele><time>2026-05-01T09:44:09Z</time></trkpt><trkpt lat="41.70176731879213" lon="13.350521292247095"><ele>291.0</ele><time>2026-05-01T09:44:10Z</time></trkpt><trkpt lat="41.701679945706104" lon="13.350540720137865"><ele>292.0</ele><time>2026-05-01T09:44:11Z</time></trkpt><trkpt lat="41.70159176154339" lon="13.350528728736114"><ele>293.0</ele><time>2026-05-01T09:44:12Z</time></trkpt><trkpt lat="41.701504056462625" lon="13.350534132253317"><ele>294.0</ele><time>2026-05-01T09:44:13Z</time></trkpt><trkpt lat="41.70141817664394" lon="13.350533615733347"><ele>295.0</ele><time>2026-05-01T09:44:14Z</time></trkpt><trkpt lat="41.701335648513876" lon="13.350553253523954"><ele>296.0</ele><time>2026-05-01T09:44:15Z</time></trkpt><trkpt lat="41.70125178068039" lon="13.350549997635822"><ele>298.40000000000003</ele><time>2026-05-01T09:44:16Z</time></trkpt><trkpt lat="41.70116715018688" lon="13.350555110501137"><ele>300.8</ele><time>2026-05-01T09:44:17Z</time></trkpt><trkpt lat="41.70108176412326" lon="13.350570539753338"><ele>303.20000000000005</ele><time>2026-05-01T09:44:18Z</time></trkpt><trkpt lat="41.701015899414216" lon="13.350585831017936"><ele>305.6</ele><time>2026-05-01T09:44:19Z</time></trkpt><trkpt lat="41.70094263187744" lon="13.350591070331623"><ele>308.0</ele><time>2026-05-01T09:44:21Z</time></trkpt><trkpt lat="41.700903045276156" lon="13.350852413781158"><ele>308.0</ele><time>2026-05-01T09:44:23.999Z</time></trkpt><trkpt lat="41.70090768995415" lon="13.350956410131861"><ele>308.0</ele><time>2026-05-01T09:44:24.999Z</time></trkpt><trkpt lat="41.700913724122145" lon="13.351062841222324"><ele>308.0</ele><time>2026-05-01T09:44:25.999Z</time></trkpt><trkpt lat="41.70090518487708" lon="13.351179222133654"><ele>308.0</ele><time>2026-05-01T09:44:26.999Z</time></trkpt><trkpt lat="41.70091537995978" lon="13.35129713103832"><ele>308.0</ele><time>2026-05-01T09:44:27.999Z</time></trkpt><trkpt lat="41.70093369485821" lon="13.351418624074597"><ele>308.0</ele><time>2026-05-01T09:44:28.999Z</time></trkpt><trkpt lat="41.70095718718303" lon="13.351523512842187"><ele>308.1666666666667</ele><time>2026-05-01T09:44:29.999Z</time></trkpt><trkpt lat="41.70099994367416" lon="13.351623993619217"><ele>308.33333333333337</ele><time>2026-05-01T09:44:30.999Z</time></trkpt><trkpt lat="41.70102957170442" lon="13.351715160118962"><ele>308.5</ele><time>2026-05-01T09:44:31.999Z</time></trkpt><trkpt lat="41.7010524018531" lon="13.351810081714259"><ele>308.6666666666667</ele><time>2026-05-01T09:44:32.999Z</time></trkpt><trkpt lat="41.70107090378863" lon="13.351919965471309"><ele>308.8333333333333</ele><time>2026-05-01T09:44:33.999Z</time></trkpt><trkpt lat="41.70107842643792" lon="13.352036702055349"><ele>309.0</ele><time>2026-05-01T09:44:34.999Z</time></trkpt><trkpt lat="41.701084212988206" lon="13.352164477416757"><ele>308.5</ele><time>2026-05-01T09:44:35.999Z</time></trkpt><trkpt lat="41.70108862527414" lon="13.352282792588499"><ele>308.0</ele><time>2026-05-01T09:44:36.999Z</time></trkpt><trkpt lat="41.701091800428834" lon="13.352394557383624"><ele>307.5</ele><time>2026-05-01T09:44:37.999Z</time></trkpt><trkpt lat="41.70109144425976" lon="13.352501520487614"><ele>307.0</ele><time>2026-05-01T09:44:38.999Z</time></trkpt><trkpt lat="41.70108685146998" lon="13.352590834302967"><ele>306.5</ele><time>2026-05-01T09:44:39.999Z</time></trkpt><trkpt lat="41.70106195709838" lon="13.352697922729737"><ele>306.0</ele><time>2026-05-01T09:44:41.999Z</time></trkpt><trkpt lat="41.700948393621225" lon="13.352716304322279"><ele>306.0</ele><time>2026-05-01T09:44:43.999Z</time></trkpt><trkpt lat="41.7008657708497" lon="13.352703244795975"><ele>306.0</ele><time>2026-05-01T09:44:44.999Z</time></trkpt><trkpt lat="41.70077452618798" lon="13.352685616596316"><ele>306.0</ele><time>2026-05-01T09:44:45.999Z</time></trkpt><trkpt lat="41.70068069713095" lon="13.352667489155394"><ele>306.0</ele><time>2026-05-01T09:44:46.999Z</time></trkpt><trkpt lat="41.70057765121297" lon="13.35266826928894"><ele>306.0</ele><time>2026-05-01T09:44:47.999Z</time></trkpt><trkpt lat="41.700473186473886" lon="13.352638672937365"><ele>306.0</ele><time>2026-05-01T09:44:48.999Z</time></trkpt><trkpt lat="41.70036202223587" lon="13.35259980393585"><ele>306.0</ele><time>2026-05-01T09:44:49.999Z</time></trkpt><trkpt lat="41.700244928313616" lon="13.352590831620022"><ele>306.0</ele><time>2026-05-01T09:44:50.999Z</time></trkpt><trkpt lat="41.70012655262896" lon="13.352545730954795"><ele>306.0</ele><time>2026-05-01T09:44:51.999Z</time></trkpt><trkpt lat="41.70000670726692" lon="13.352519227028578"><ele>304.25</ele><time>2026-05-01T09:44:52.999Z</time></trkpt><trkpt lat="41.69989202596999" lon="13.352494634637084"><ele>302.5</ele><time>2026-05-01T09:44:53.999Z</time></trkpt><trkpt lat="41.699780986895355" lon="13.352474235202687"><ele>300.75</ele><time>2026-05-01T09:44:54.999Z</time></trkpt><trkpt lat="41.69966881520483" lon="13.35247733611819"><ele>299.0</ele><time>2026-05-01T09:44:55.999Z</time></trkpt><trkpt lat="41.69955922393879" lon="13.352466602433395"><ele>299.0</ele><time>2026-05-01T09:44:56.999Z</time></trkpt><trkpt lat="41.6994521900578" lon="13.352440496297817"><ele>299.0</ele><time>2026-05-01T09:44:57.999Z</time></trkpt><trkpt lat="41.69934109809678" lon="13.352435302677476"><ele>299.0</ele><time>2026-05-01T09:44:58.999Z</time></trkpt><trkpt lat="41.69922600930394" lon="13.352430010883332"><ele>299.0</ele><time>2026-05-01T09:44:59.999Z</time></trkpt><trkpt lat="41.699107439787426" lon="13.35242101061829"><ele>297.5</ele><time>2026-05-01T09:45:00.999Z</time></trkpt><trkpt lat="41.69898961193318" lon="13.352410493452753"><ele>296.0</ele><time>2026-05-01T09:45:01.999Z</time></trkpt><trkpt lat="41.69887213067838" lon="13.352400007239101"><ele>294.5</ele><time>2026-05-01T09:45:02.999Z</time></trkpt><trkpt lat="41.69875879845684" lon="13.352386762089756"><ele>293.0</ele><time>2026-05-01T09:45:03.999Z</time></trkpt><trkpt lat="41.698649967931345" lon="13.35235419132475"><ele>290.75</ele><time>2026-05-01T09:45:04.999Z</time></trkpt><trkpt lat="41.69853959080017" lon="13.35231482604857"><ele>288.5</ele><time>2026-05-01T09:45:05.999Z</time></trkpt><trkpt lat="41.69842186552029" lon="13.352295272634503"><ele>286.25</ele><time>2026-05-01T09:45:06.999Z</time></trkpt><trkpt lat="41.69831514679213" lon="13.352246241312743"><ele>284.0</ele><time>2026-05-01T09:45:07.999Z</time></trkpt><trkpt lat="41.698211235731875" lon="13.352220825962544"><ele>284.0</ele><time>2026-05-01T09:45:08.999Z</time></trkpt><trkpt lat="41.69812143335828" lon="13.352207071134442"><ele>284.0</ele><time>2026-05-01T09:45:09.999Z</time></trkpt><trkpt lat="41.69804462776716" lon="13.35222604624791"><ele>284.0</ele><time>2026-05-01T09:45:10.999Z</time></trkpt><trkpt lat="41.69796211827439" lon="13.352273941467693"><ele>284.0</ele><time>2026-05-01T09:45:11.999Z</time></trkpt><trkpt lat="41.69792201657318" lon="13.352419207248184"><ele>284.0</ele><time>2026-05-01T09:45:12.999Z</time></trkpt><trkpt lat="41.69789166930479" lon="13.352563906933067"><ele>284.0</ele><time>2026-05-01T09:45:13.999Z</time></trkpt><trkpt lat="41.69787297361789" lon="13.352698749746638"><ele>284.0</ele><time>2026-05-01T09:45:14.999Z</time></trkpt><trkpt lat="41.697867882261015" lon="13.352835438321012"><ele>284.0</ele><time>2026-05-01T09:45:15.999Z</time></trkpt><trkpt lat="41.69786599725312" lon="13.352971459180605"><ele>284.0</ele><time>2026-05-01T09:45:16.999Z</time></trkpt><trkpt lat="41.697876602230735" lon="13.353103837007778"><ele>284.0</ele><time>2026-05-01T09:45:17.999Z</time></trkpt><trkpt lat="41.69789149773239" lon="13.353233407443508"><ele>283.4</ele><time>2026-05-01T09:45:18.999Z</time></trkpt><trkpt lat="41.697903260640736" lon="13.353365498955434"><ele>282.79999999999995</ele><time>2026-05-01T09:45:19.999Z</time></trkpt><trkpt lat="41.69790979274426" lon="13.353495528430361"><ele>282.20000000000005</ele><time>2026-05-01T09:45:20.999Z</time></trkpt><trkpt lat="41.69790668751546" lon="13.353625608926738"><ele>281.6</ele><time>2026-05-01T09:45:21.999Z</time></trkpt><trkpt lat="41.69788953022351" lon="13.353757255492907"><ele>281.0</ele><time>2026-05-01T09:45:22.999Z</time></trkpt><trkpt lat="41.69783978065256" lon="13.35388209506106"><ele>281.0</ele><time>2026-05-01T09:45:23.999Z</time></trkpt><trkpt lat="41.697794644650344" lon="13.354005956694236"><ele>281.0</ele><time>2026-05-01T09:45:24.999Z</time></trkpt><trkpt lat="41.69774720925483" lon="13.354123647606217"><ele>281.0</ele><time>2026-05-01T09:45:25.999Z</time></trkpt><trkpt lat="41.697707207788746" lon="13.354249728244378"><ele>281.0</ele><time>2026-05-01T09:45:26.999Z</time></trkpt><trkpt lat="41.69765499662761" lon="13.354361112872612"><ele>281.0</ele><time>2026-05-01T09:45:27.999Z</time></trkpt><trkpt lat="41.69760753014142" lon="13.354465334400585"><ele>279.33333333333337</ele><time>2026-05-01T09:45:28.999Z</time></trkpt><trkpt lat="41.69755026178495" lon="13.354544752299308"><ele>277.6666666666667</ele><time>2026-05-01T09:45:29.999Z</time></trkpt><trkpt lat="41.69752490743722" lon="13.354625421107817"><ele>276.0</ele><time>2026-05-01T09:45:30.999Z</time></trkpt><trkpt lat="41.69745828932987" lon="13.354706725026897"><ele>274.3333333333333</ele><time>2026-05-01T09:45:32.998Z</time></trkpt><trkpt lat="41.69739412554696" lon="13.354771805004344"><ele>272.66666666666663</ele><time>2026-05-01T09:45:47.998Z</time></trkpt><trkpt lat="41.69743642152782" lon="13.354911820154149"><ele>271.0</ele><time>2026-05-01T09:45:48.998Z</time></trkpt><trkpt lat="41.69748478999725" lon="13.354995078956094"><ele>271.0</ele><time>2026-05-01T09:45:49.998Z</time></trkpt><trkpt lat="41.69753893201556" lon="13.355089172393097"><ele>271.0</ele><time>2026-05-01T09:45:50.998Z</time></trkpt><trkpt lat="41.69760485490812" lon="13.35519947661882"><ele>271.0</ele><time>2026-05-01T09:45:51.998Z</time></trkpt><trkpt lat="41.69767587665882" lon="13.355312027741883"><ele>271.0</ele><time>2026-05-01T09:45:52.998Z</time></trkpt><trkpt lat="41.69776328510131" lon="13.355431477089914"><ele>271.0</ele><time>2026-05-01T09:45:53.998Z</time></trkpt><trkpt lat="41.69785449081162" lon="13.355547889690149"><ele>271.0</ele><time>2026-05-01T09:45:54.998Z</time></trkpt><trkpt lat="41.69794083564444" lon="13.355653237007441"><ele>271.0</ele><time>2026-05-01T09:45:55.998Z</time></trkpt><trkpt lat="41.698027327794165" lon="13.355751465649792"><ele>271.0</ele><time>2026-05-01T09:45:56.998Z</time></trkpt><trkpt lat="41.69811742334313" lon="13.355847710295437"><ele>271.0</ele><time>2026-05-01T09:45:57.998Z</time></trkpt><trkpt lat="41.698200100283685" lon="13.355950456674119"><ele>271.0</ele><time>2026-05-01T09:45:58.998Z</time></trkpt><trkpt lat="41.69826094736894" lon="13.356072722214417"><ele>271.0</ele><time>2026-05-01T09:45:59.998Z</time></trkpt><trkpt lat="41.69830252070334" lon="13.356224654493884"><ele>271.0</ele><time>2026-05-01T09:46:00.998Z</time></trkpt><trkpt lat="41.698349737232654" lon="13.356388134118955"><ele>271.0</ele><time>2026-05-01T09:46:01.998Z</time></trkpt><trkpt lat="41.69840780083224" lon="13.356550684822638"><ele>271.25</ele><time>2026-05-01T09:46:02.998Z</time></trkpt><trkpt lat="41.6984762657579" lon="13.356709311164941"><ele>271.5</ele><time>2026-05-01T09:46:03.998Z</time></trkpt><trkpt lat="41.698545996637975" lon="13.356867401182969"><ele>271.75</ele><time>2026-05-01T09:46:04.998Z</time></trkpt><trkpt lat="41.69861518211815" lon="13.357027819704976"><ele>272.0</ele><time>2026-05-01T09:46:05.998Z</time></trkpt><trkpt lat="41.6986849428842" lon="13.35719246340355"><ele>272.5</ele><time>2026-05-01T09:46:06.998Z</time></trkpt><trkpt lat="41.69875718999797" lon="13.35735771547899"><ele>273.0</ele><time>2026-05-01T09:46:07.999Z</time></trkpt><trkpt lat="41.69882787688029" lon="13.357524778684036"><ele>273.5</ele><time>2026-05-01T09:46:08.999Z</time></trkpt><trkpt lat="41.698897732515796" lon="13.357699386327562"><ele>274.0</ele><time>2026-05-01T09:46:09.999Z</time></trkpt><trkpt lat="41.69896463056142" lon="13.357875516908468"><ele>274.66666666666663</ele><time>2026-05-01T09:46:10.999Z</time></trkpt><trkpt lat="41.699038845731565" lon="13.358052960209443"><ele>275.3333333333333</ele><time>2026-05-01T09:46:12Z</time></trkpt><trkpt lat="41.699120560695995" lon="13.358227886209674"><ele>276.0</ele><time>2026-05-01T09:46:12.999Z</time></trkpt><trkpt lat="41.69921635557748" lon="13.358395897297797"><ele>276.0</ele><time>2026-05-01T09:46:14Z</time></trkpt><trkpt lat="41.69932454720693" lon="13.358558130418057"><ele>276.0</ele><time>2026-05-01T09:46:15Z</time></trkpt><trkpt lat="41.699436817464985" lon="13.358717282504989"><ele>276.0</ele><time>2026-05-01T09:46:16Z</time></trkpt><trkpt lat="41.699550356336395" lon="13.358885666320653"><ele>277.3333333333333</ele><time>2026-05-01T09:46:17Z</time></trkpt><trkpt lat="41.6996627560059" lon="13.359057148945382"><ele>278.66666666666663</ele><time>2026-05-01T09:46:18Z</time></trkpt><trkpt lat="41.69977263396452" lon="13.3592318141105"><ele>280.0</ele><time>2026-05-01T09:46:19Z</time></trkpt><trkpt lat="41.69988411908024" lon="13.359405924282404"><ele>280.0</ele><time>2026-05-01T09:46:20Z</time></trkpt><trkpt lat="41.69999801328835" lon="13.359579903462116"><ele>280.0</ele><time>2026-05-01T09:46:21Z</time></trkpt><trkpt lat="41.70010750322372" lon="13.359744026595166"><ele>280.0</ele><time>2026-05-01T09:46:22Z</time></trkpt><trkpt lat="41.700213288215245" lon="13.359906003615002"><ele>280.66666666666663</ele><time>2026-05-01T09:46:23Z</time></trkpt><trkpt lat="41.70032120654102" lon="13.360071887658632"><ele>281.3333333333333</ele><time>2026-05-01T09:46:24Z</time></trkpt><trkpt lat="41.7004314491995" lon="13.360233612626185"><ele>282.0</ele><time>2026-05-01T09:46:25Z</time></trkpt><trkpt lat="41.700539768321" lon="13.36039196108981"><ele>282.75</ele><time>2026-05-01T09:46:26Z</time></trkpt><trkpt lat="41.700637033585124" lon="13.360533977596816"><ele>283.5</ele><time>2026-05-01T09:46:27Z</time></trkpt><trkpt lat="41.700715280532194" lon="13.360649919119158"><ele>284.25</ele><time>2026-05-01T09:46:28Z</time></trkpt><trkpt lat="41.700784148978954" lon="13.360750709929807"><ele>285.0</ele><time>2026-05-01T09:46:29Z</time></trkpt><trkpt lat="41.700842871514986" lon="13.360881680462578"><ele>285.0</ele><time>2026-05-01T09:46:30Z</time></trkpt><trkpt lat="41.70092719519644" lon="13.361005197086024"><ele>285.0</ele><time>2026-05-01T09:46:30.999Z</time></trkpt><trkpt lat="41.700997285894594" lon="13.361156588104887"><ele>285.0</ele><time>2026-05-01T09:46:31.999Z</time></trkpt><trkpt lat="41.70106844459638" lon="13.361316795761134"><ele>285.0</ele><time>2026-05-01T09:46:32.999Z</time></trkpt><trkpt lat="41.70113827082664" lon="13.361480852151224"><ele>285.25</ele><time>2026-05-01T09:46:33.999Z</time></trkpt><trkpt lat="41.70120307591067" lon="13.361646158734173"><ele>285.5</ele><time>2026-05-01T09:46:34.999Z</time></trkpt><trkpt lat="41.70126925292828" lon="13.36181001466696"><ele>285.75</ele><time>2026-05-01T09:46:35.999Z</time></trkpt><trkpt lat="41.70133459876648" lon="13.361962393918962"><ele>286.0</ele><time>2026-05-01T09:46:36.999Z</time></trkpt><trkpt lat="41.70139785238558" lon="13.362123022339162"><ele>286.25</ele><time>2026-05-01T09:46:37.999Z</time></trkpt><trkpt lat="41.70146451124052" lon="13.362294705084485"><ele>286.5</ele><time>2026-05-01T09:46:38.999Z</time></trkpt><trkpt lat="41.70153368670339" lon="13.362470893084614"><ele>286.75</ele><time>2026-05-01T09:46:39.999Z</time></trkpt><trkpt lat="41.701608565698955" lon="13.362641831139918"><ele>287.0</ele><time>2026-05-01T09:46:40.999Z</time></trkpt><trkpt lat="41.70168988587449" lon="13.362806349770736"><ele>287.0</ele><time>2026-05-01T09:46:41.999Z</time></trkpt><trkpt lat="41.70178153805366" lon="13.362962353467633"><ele>287.0</ele><time>2026-05-01T09:46:42.999Z</time></trkpt><trkpt lat="41.70187701845164" lon="13.363115458643243"><ele>287.0</ele><time>2026-05-01T09:46:43.999Z</time></trkpt><trkpt lat="41.70197507660974" lon="13.363269666522157"><ele>287.0</ele><time>2026-05-01T09:46:44.999Z</time></trkpt><trkpt lat="41.702073944368635" lon="13.363425486423482"><ele>286.6666666666667</ele><time>2026-05-01T09:46:45.999Z</time></trkpt><trkpt lat="41.70217176848602" lon="13.36358003103837"><ele>286.3333333333333</ele><time>2026-05-01T09:46:46.999Z</time></trkpt><trkpt lat="41.702271809605385" lon="13.363734326457394"><ele>286.0</ele><time>2026-05-01T09:46:47.999Z</time></trkpt><trkpt lat="41.7023699005455" lon="13.36388907400244"><ele>285.5</ele><time>2026-05-01T09:46:48.999Z</time></trkpt><trkpt lat="41.70246364221715" lon="13.364046327359326"><ele>285.0</ele><time>2026-05-01T09:46:49.999Z</time></trkpt><trkpt lat="41.70255065443643" lon="13.364203991739908"><ele>284.5</ele><time>2026-05-01T09:46:50.999Z</time></trkpt><trkpt lat="41.70262250812053" lon="13.364368822510489"><ele>284.0</ele><time>2026-05-01T09:46:51.999Z</time></trkpt><trkpt lat="41.7026850964245" lon="13.36453606911521"><ele>283.75</ele><time>2026-05-01T09:46:52.999Z</time></trkpt><trkpt lat="41.70274342559078" lon="13.364701314472898"><ele>283.5</ele><time>2026-05-01T09:46:53.999Z</time></trkpt><trkpt lat="41.70279741085728" lon="13.364864943880383"><ele>283.25</ele><time>2026-05-01T09:46:54.999Z</time></trkpt><trkpt lat="41.70284843565579" lon="13.365028973150459"><ele>283.0</ele><time>2026-05-01T09:46:55.999Z</time></trkpt><trkpt lat="41.70289730640693" lon="13.365196575394371"><ele>283.0</ele><time>2026-05-01T09:46:56.999Z</time></trkpt><trkpt lat="41.70294047789738" lon="13.365360731251393"><ele>283.0</ele><time>2026-05-01T09:46:57.999Z</time></trkpt><trkpt lat="41.70297437849762" lon="13.365528500125603"><ele>283.0</ele><time>2026-05-01T09:46:58.999Z</time></trkpt><trkpt lat="41.70298288185736" lon="13.365707587375823"><ele>283.0</ele><time>2026-05-01T09:46:59.999Z</time></trkpt><trkpt lat="41.70297499631104" lon="13.365905294826508"><ele>282.66666666666663</ele><time>2026-05-01T09:47:00.999Z</time></trkpt><trkpt lat="41.702957653361665" lon="13.3661152907885"><ele>282.3333333333333</ele><time>2026-05-01T09:47:01.999Z</time></trkpt><trkpt lat="41.70294103933108" lon="13.366330653740269"><ele>282.0</ele><time>2026-05-01T09:47:02.999Z</time></trkpt><trkpt lat="41.70292538235026" lon="13.366549569367246"><ele>282.0</ele><time>2026-05-01T09:47:03.999Z</time></trkpt><trkpt lat="41.70290888781209" lon="13.36677094877582"><ele>282.0</ele><time>2026-05-01T09:47:04.999Z</time></trkpt><trkpt lat="41.702893197671095" lon="13.366996767110127"><ele>282.0</ele><time>2026-05-01T09:47:05.999Z</time></trkpt><trkpt lat="41.702879007017906" lon="13.36722022632667"><ele>281.3333333333333</ele><time>2026-05-01T09:47:06.999Z</time></trkpt><trkpt lat="41.70284331689291" lon="13.3674371695632"><ele>280.66666666666663</ele><time>2026-05-01T09:47:07.999Z</time></trkpt><trkpt lat="41.70282496354332" lon="13.36765284831149"><ele>280.0</ele><time>2026-05-01T09:47:08.999Z</time></trkpt><trkpt lat="41.70280902340289" lon="13.367867221798482"><ele>280.0</ele><time>2026-05-01T09:47:09.999Z</time></trkpt><trkpt lat="41.702810285318314" lon="13.368080793596834"><ele>280.0</ele><time>2026-05-01T09:47:10.999Z</time></trkpt><trkpt lat="41.702799785466745" lon="13.36828974709112"><ele>280.0</ele><time>2026-05-01T09:47:11.999Z</time></trkpt><trkpt lat="41.70279503229448" lon="13.368498648029073"><ele>280.0</ele><time>2026-05-01T09:47:12.999Z</time></trkpt><trkpt lat="41.70279511714602" lon="13.368700632927007"><ele>280.0</ele><time>2026-05-01T09:47:13.999Z</time></trkpt><trkpt lat="41.702797907581875" lon="13.368908727176263"><ele>280.0</ele><time>2026-05-01T09:47:14.999Z</time></trkpt><trkpt lat="41.70278373137537" lon="13.369115970178719"><ele>280.0</ele><time>2026-05-01T09:47:15.999Z</time></trkpt><trkpt lat="41.70280315037823" lon="13.369330775451754"><ele>280.0</ele><time>2026-05-01T09:47:16.999Z</time></trkpt><trkpt lat="41.70280744520218" lon="13.369544115412118"><ele>280.0</ele><time>2026-05-01T09:47:17.999Z</time></trkpt><trkpt lat="41.70281352557011" lon="13.369742885206303"><ele>280.25</ele><time>2026-05-01T09:47:18.999Z</time></trkpt><trkpt lat="41.70282344129649" lon="13.369931511613794"><ele>280.5</ele><time>2026-05-01T09:47:19.999Z</time></trkpt><trkpt lat="41.70284250223665" lon="13.370119492555803"><ele>280.75</ele><time>2026-05-01T09:47:20.999Z</time></trkpt><trkpt lat="41.70287672569108" lon="13.370304937654579"><ele>281.0</ele><time>2026-05-01T09:47:21.999Z</time></trkpt><trkpt lat="41.702925249463966" lon="13.370487417452951"><ele>281.0</ele><time>2026-05-01T09:47:22.999Z</time></trkpt><trkpt lat="41.70298777393154" lon="13.370661398206176"><ele>281.0</ele><time>2026-05-01T09:47:23.999Z</time></trkpt><trkpt lat="41.703049575557905" lon="13.370820330574837"><ele>281.0</ele><time>2026-05-01T09:47:24.999Z</time></trkpt><trkpt lat="41.703111366374735" lon="13.37097284671126"><ele>281.0</ele><time>2026-05-01T09:47:25.999Z</time></trkpt><trkpt lat="41.703167081503345" lon="13.371119204940575"><ele>281.0</ele><time>2026-05-01T09:47:26.999Z</time></trkpt><trkpt lat="41.7031950747039" lon="13.371269703379374"><ele>281.0</ele><time>2026-05-01T09:47:27.999Z</time></trkpt><trkpt lat="41.70325628496372" lon="13.371412308163183"><ele>281.0</ele><time>2026-05-01T09:47:28.999Z</time></trkpt><trkpt lat="41.703299869874634" lon="13.371567819074887"><ele>281.0</ele><time>2026-05-01T09:47:29.999Z</time></trkpt><trkpt lat="41.70335776203244" lon="13.371744759030118"><ele>281.0</ele><time>2026-05-01T09:47:30.999Z</time></trkpt><trkpt lat="41.703417373335085" lon="13.371944456511"><ele>281.0</ele><time>2026-05-01T09:47:31.999Z</time></trkpt><trkpt lat="41.7034682725607" lon="13.372139307241232"><ele>281.0</ele><time>2026-05-01T09:47:32.999Z</time></trkpt><trkpt lat="41.70349996893926" lon="13.372321760585672"><ele>281.5</ele><time>2026-05-01T09:47:33.999Z</time></trkpt><trkpt lat="41.703552916863075" lon="13.372481761965805"><ele>282.0</ele><time>2026-05-01T09:47:34.999Z</time></trkpt><trkpt lat="41.703599928880905" lon="13.37263013453819"><ele>282.5</ele><time>2026-05-01T09:47:35.999Z</time></trkpt><trkpt lat="41.70363815469349" lon="13.372765183881516"><ele>283.0</ele><time>2026-05-01T09:47:36.999Z</time></trkpt><trkpt lat="41.703672061897365" lon="13.372892688167296"><ele>283.16666666666663</ele><time>2026-05-01T09:47:37.999Z</time></trkpt><trkpt lat="41.70370221877091" lon="13.373008525353365"><ele>283.3333333333333</ele><time>2026-05-01T09:47:38.999Z</time></trkpt><trkpt lat="41.70373296199371" lon="13.373128107302373"><ele>283.5</ele><time>2026-05-01T09:47:39.999Z</time></trkpt><trkpt lat="41.70376102343235" lon="13.37324988328914"><ele>283.6666666666667</ele><time>2026-05-01T09:47:40.999Z</time></trkpt><trkpt lat="41.703780934584564" lon="13.373348820979452"><ele>283.83333333333337</ele><time>2026-05-01T09:47:41.999Z</time></trkpt><trkpt lat="41.70379831621114" lon="13.373439726847637"><ele>284.0</ele><time>2026-05-01T09:47:42.999Z</time></trkpt><trkpt lat="41.70381297391732" lon="13.373523024349884"><ele>284.59999999999997</ele><time>2026-05-01T09:47:43.999Z</time></trkpt><trkpt lat="41.70382821670873" lon="13.373618812496174"><ele>285.2</ele><time>2026-05-01T09:47:44.999Z</time></trkpt><trkpt lat="41.703839765988114" lon="13.373729360501523"><ele>285.79999999999995</ele><time>2026-05-01T09:47:45.999Z</time></trkpt><trkpt lat="41.703840758942405" lon="13.373864080078306"><ele>286.4</ele><time>2026-05-01T09:47:46.998Z</time></trkpt><trkpt lat="41.70384208538633" lon="13.374020334792336"><ele>287.0</ele><time>2026-05-01T09:47:47.998Z</time></trkpt><trkpt lat="41.70384345795436" lon="13.374182023469057"><ele>287.75</ele><time>2026-05-01T09:47:48.998Z</time></trkpt><trkpt lat="41.703844866295064" lon="13.374347925675414"><ele>288.5</ele><time>2026-05-01T09:47:49.998Z</time></trkpt><trkpt lat="41.70384635904585" lon="13.374523771726148"><ele>289.25</ele><time>2026-05-01T09:47:50.998Z</time></trkpt><trkpt lat="41.703860652309324" lon="13.374695104307095"><ele>290.0</ele><time>2026-05-01T09:47:51.998Z</time></trkpt><trkpt lat="41.70386089988709" lon="13.374874223019138"><ele>290.0</ele><time>2026-05-01T09:47:52.998Z</time></trkpt><trkpt lat="41.70385979115" lon="13.375069980354596"><ele>290.0</ele><time>2026-05-01T09:47:53.998Z</time></trkpt><trkpt lat="41.70387007185831" lon="13.375289261003322"><ele>290.0</ele><time>2026-05-01T09:47:54.998Z</time></trkpt><trkpt lat="41.70385881687265" lon="13.375545218294347"><ele>291.0</ele><time>2026-05-01T09:47:55.998Z</time></trkpt><trkpt lat="41.70386146620376" lon="13.37583902768414"><ele>292.0</ele><time>2026-05-01T09:47:56.998Z</time></trkpt><trkpt lat="41.70386425152214" lon="13.376164141136506"><ele>293.5</ele><time>2026-05-01T09:47:57.998Z</time></trkpt><trkpt lat="41.70386860953556" lon="13.37651111800089"><ele>295.0</ele><time>2026-05-01T09:47:58.998Z</time></trkpt><trkpt lat="41.703872920481864" lon="13.376854347306983"><ele>296.0</ele><time>2026-05-01T09:47:59.998Z</time></trkpt><trkpt lat="41.7038780314968" lon="13.377195755165758"><ele>297.0</ele><time>2026-05-01T09:48:00.998Z</time></trkpt><trkpt lat="41.70388330580368" lon="13.377541913050745"><ele>297.0</ele><time>2026-05-01T09:48:01.998Z</time></trkpt><trkpt lat="41.70388893838893" lon="13.377911585137307"><ele>297.0</ele><time>2026-05-01T09:48:02.998Z</time></trkpt><trkpt lat="41.70389475725258" lon="13.3782934827897"><ele>298.5</ele><time>2026-05-01T09:48:03.998Z</time></trkpt><trkpt lat="41.7039002849867" lon="13.378656273082388"><ele>300.0</ele><time>2026-05-01T09:48:04.998Z</time></trkpt><trkpt lat="41.70392057347347" lon="13.378973553551004"><ele>302.6666666666667</ele><time>2026-05-01T09:48:05.998Z</time></trkpt><trkpt lat="41.70392010557574" lon="13.37925644565023"><ele>305.33333333333337</ele><time>2026-05-01T09:48:06.998Z</time></trkpt><trkpt lat="41.703925845477364" lon="13.379525131502525"><ele>308.0</ele><time>2026-05-01T09:48:07.998Z</time></trkpt><trkpt lat="41.70392357375151" lon="13.379789671750856"><ele>311.6666666666667</ele><time>2026-05-01T09:48:08.998Z</time></trkpt><trkpt lat="41.70391225144185" lon="13.380055150200466"><ele>315.3333333333333</ele><time>2026-05-01T09:48:09.998Z</time></trkpt><trkpt lat="41.70388519335647" lon="13.380297019527289"><ele>319.0</ele><time>2026-05-01T09:48:10.998Z</time></trkpt><trkpt lat="41.703843797503175" lon="13.380541791566674"><ele>321.3333333333333</ele><time>2026-05-01T09:48:11.998Z</time></trkpt><trkpt lat="41.70378575911207" lon="13.380784570817502"><ele>323.6666666666667</ele><time>2026-05-01T09:48:12.998Z</time></trkpt><trkpt lat="41.70370655688124" lon="13.380998577652768"><ele>326.0</ele><time>2026-05-01T09:48:14Z</time></trkpt><trkpt lat="41.703624986852354" lon="13.381210652702073"><ele>325.33333333333337</ele><time>2026-05-01T09:48:15Z</time></trkpt><trkpt lat="41.703551863506526" lon="13.381436240052357"><ele>324.6666666666667</ele><time>2026-05-01T09:48:16Z</time></trkpt><trkpt lat="41.703469266785966" lon="13.381656444261568"><ele>324.0</ele><time>2026-05-01T09:48:17Z</time></trkpt><trkpt lat="41.703412651561166" lon="13.381888370731104"><ele>324.0</ele><time>2026-05-01T09:48:18Z</time></trkpt><trkpt lat="41.70339269015081" lon="13.382126479059755"><ele>324.0</ele><time>2026-05-01T09:48:19Z</time></trkpt><trkpt lat="41.70342935110554" lon="13.38237742764176"><ele>324.0</ele><time>2026-05-01T09:48:20Z</time></trkpt><trkpt lat="41.703494530676934" lon="13.382628090415142"><ele>329.0</ele><time>2026-05-01T09:48:21Z</time></trkpt><trkpt lat="41.70358271846827" lon="13.382881262764652"><ele>334.0</ele><time>2026-05-01T09:48:22Z</time></trkpt><trkpt lat="41.70366610763943" lon="13.383114018906339"><ele>339.0</ele><time>2026-05-01T09:48:23Z</time></trkpt><trkpt lat="41.70374248652082" lon="13.383331404731374"><ele>341.0</ele><time>2026-05-01T09:48:24Z</time></trkpt><trkpt lat="41.703807038285404" lon="13.383552116841619"><ele>343.0</ele><time>2026-05-01T09:48:25Z</time></trkpt><trkpt lat="41.7038336508499" lon="13.383787864792826"><ele>345.0</ele><time>2026-05-01T09:48:26Z</time></trkpt><trkpt lat="41.703840114336955" lon="13.384024456887712"><ele>347.0</ele><time>2026-05-01T09:48:27Z</time></trkpt><trkpt lat="41.70382538165426" lon="13.384277822126727"><ele>349.0</ele><time>2026-05-01T09:48:28Z</time></trkpt><trkpt lat="41.7037828168163" lon="13.384532723289393"><ele>351.0</ele><time>2026-05-01T09:48:29Z</time></trkpt><trkpt lat="41.70371666647705" lon="13.384780430427911"><ele>352.3333333333333</ele><time>2026-05-01T09:48:30Z</time></trkpt><trkpt lat="41.70365345608762" lon="13.385051514684507"><ele>353.66666666666663</ele><time>2026-05-01T09:48:31Z</time></trkpt><trkpt lat="41.70356432677061" lon="13.385331952655807"><ele>355.0</ele><time>2026-05-01T09:48:32Z</time></trkpt><trkpt lat="41.70346889998645" lon="13.38563369448834"><ele>355.0</ele><time>2026-05-01T09:48:33Z</time></trkpt><trkpt lat="41.70336838474247" lon="13.385943884225453"><ele>355.0</ele><time>2026-05-01T09:48:34Z</time></trkpt><trkpt lat="41.70325844615022" lon="13.386270833579243"><ele>357.0</ele><time>2026-05-01T09:48:35Z</time></trkpt><trkpt lat="41.70314420217001" lon="13.386592884533531"><ele>359.0</ele><time>2026-05-01T09:48:36Z</time></trkpt><trkpt lat="41.70302807183909" lon="13.38691519248526"><ele>361.5</ele><time>2026-05-01T09:48:37Z</time></trkpt><trkpt lat="41.70290721954176" lon="13.387244463957575"><ele>364.0</ele><time>2026-05-01T09:48:38Z</time></trkpt><trkpt lat="41.70278094416378" lon="13.387574843326265"><ele>363.5</ele><time>2026-05-01T09:48:39Z</time></trkpt><trkpt lat="41.70265295003349" lon="13.387902282121383"><ele>363.0</ele><time>2026-05-01T09:48:40Z</time></trkpt><trkpt lat="41.70253288428177" lon="13.388204031394867"><ele>363.0</ele><time>2026-05-01T09:48:41Z</time></trkpt><trkpt lat="41.702419741293326" lon="13.388482306969962"><ele>363.0</ele><time>2026-05-01T09:48:42Z</time></trkpt><trkpt lat="41.702311968725816" lon="13.388755508121099"><ele>367.0</ele><time>2026-05-01T09:48:43Z</time></trkpt><trkpt lat="41.70220880258161" lon="13.389020566923824"><ele>371.0</ele><time>2026-05-01T09:48:44Z</time></trkpt><trkpt lat="41.70209926468687" lon="13.389262881205424"><ele>375.0</ele><time>2026-05-01T09:48:44.999Z</time></trkpt><trkpt lat="41.70195360695516" lon="13.38947971535289"><ele>376.5</ele><time>2026-05-01T09:48:45.999Z</time></trkpt><trkpt lat="41.7017962078658" lon="13.389695486295825"><ele>378.0</ele><time>2026-05-01T09:48:46.999Z</time></trkpt><trkpt lat="41.70161899999161" lon="13.389900085834306"><ele>378.0</ele><time>2026-05-01T09:48:47.999Z</time></trkpt><trkpt lat="41.7014448159424" lon="13.390122294755546"><ele>378.0</ele><time>2026-05-01T09:48:48.999Z</time></trkpt><trkpt lat="41.70126679597978" lon="13.390305371378416"><ele>378.0</ele><time>2026-05-01T09:48:49.999Z</time></trkpt><trkpt lat="41.70110860207738" lon="13.390484275630154"><ele>378.0</ele><time>2026-05-01T09:48:50.999Z</time></trkpt><trkpt lat="41.70096640438044" lon="13.390683241320382"><ele>378.0</ele><time>2026-05-01T09:48:51.999Z</time></trkpt><trkpt lat="41.700836068217285" lon="13.390913239939309"><ele>380.33333333333337</ele><time>2026-05-01T09:48:52.999Z</time></trkpt><trkpt lat="41.700729569064215" lon="13.391170319702166"><ele>382.6666666666667</ele><time>2026-05-01T09:48:53.999Z</time></trkpt><trkpt lat="41.70063692170812" lon="13.391438043866914"><ele>385.0</ele><time>2026-05-01T09:48:54.999Z</time></trkpt><trkpt lat="41.70056810697098" lon="13.391722534821366"><ele>389.33333333333337</ele><time>2026-05-01T09:48:55.999Z</time></trkpt><trkpt lat="41.700522762187134" lon="13.392000714361645"><ele>393.66666666666663</ele><time>2026-05-01T09:48:56.999Z</time></trkpt><trkpt lat="41.70050357740949" lon="13.392283912137364"><ele>398.0</ele><time>2026-05-01T09:48:57.999Z</time></trkpt><trkpt lat="41.700517769160115" lon="13.392574354625374"><ele>401.3333333333333</ele><time>2026-05-01T09:48:58.999Z</time></trkpt><trkpt lat="41.70051417347818" lon="13.39287545387557"><ele>404.66666666666663</ele><time>2026-05-01T09:48:59.999Z</time></trkpt><trkpt lat="41.70052119856812" lon="13.393169846938543"><ele>408.0</ele><time>2026-05-01T09:49:00.999Z</time></trkpt><trkpt lat="41.70053229005341" lon="13.393432319178755"><ele>410.0</ele><time>2026-05-01T09:49:01.999Z</time></trkpt><trkpt lat="41.70068589203409" lon="13.393653211712605"><ele>412.0</ele><time>2026-05-01T09:49:02.999Z</time></trkpt><trkpt lat="41.70072147300004" lon="13.393837579967972"><ele>414.0</ele><time>2026-05-01T09:49:03.999Z</time></trkpt><trkpt lat="41.70074586869514" lon="13.393978235115664"><ele>416.0</ele><time>2026-05-01T09:49:04.999Z</time></trkpt><trkpt lat="41.700736675385656" lon="13.394108748993538"><ele>418.0</ele><time>2026-05-01T09:49:05.999Z</time></trkpt><trkpt lat="41.700664396654865" lon="13.394228616340012"><ele>420.0</ele><time>2026-05-01T09:49:06.999Z</time></trkpt><trkpt lat="41.70055203761877" lon="13.394296370965593"><ele>422.0</ele><time>2026-05-01T09:49:07.999Z</time></trkpt><trkpt lat="41.70042694879524" lon="13.394280845424696"><ele>422.0</ele><time>2026-05-01T09:49:08.999Z</time></trkpt><trkpt lat="41.70031008187893" lon="13.394193626185713"><ele>422.0</ele><time>2026-05-01T09:49:09.999Z</time></trkpt><trkpt lat="41.7002122306612" lon="13.394043500463262"><ele>422.0</ele><time>2026-05-01T09:49:10.999Z</time></trkpt><trkpt lat="41.700109711171294" lon="13.393891686903972"><ele>422.0</ele><time>2026-05-01T09:49:11.999Z</time></trkpt><trkpt lat="41.70000481141107" lon="13.393769444565145"><ele>417.25</ele><time>2026-05-01T09:49:12.999Z</time></trkpt><trkpt lat="41.69989912431899" lon="13.393663536106663"><ele>412.5</ele><time>2026-05-01T09:49:13.999Z</time></trkpt><trkpt lat="41.699775793548824" lon="13.39360105845077"><ele>407.75</ele><time>2026-05-01T09:49:14.999Z</time></trkpt><trkpt lat="41.69963793710294" lon="13.393601860321118"><ele>403.0</ele><time>2026-05-01T09:49:15.999Z</time></trkpt><trkpt lat="41.69950377322354" lon="13.39367862313642"><ele>401.6666666666667</ele><time>2026-05-01T09:49:16.999Z</time></trkpt><trkpt lat="41.699393798420026" lon="13.393820978689492"><ele>400.33333333333337</ele><time>2026-05-01T09:49:17.999Z</time></trkpt><trkpt lat="41.6993270818698" lon="13.394012980926792"><ele>399.0</ele><time>2026-05-01T09:49:18.999Z</time></trkpt><trkpt lat="41.699288700525884" lon="13.39422903207913"><ele>404.0</ele><time>2026-05-01T09:49:19.999Z</time></trkpt><trkpt lat="41.69924395816295" lon="13.394460765124466"><ele>409.0</ele><time>2026-05-01T09:49:20.999Z</time></trkpt><trkpt lat="41.699182400579076" lon="13.39469325092799"><ele>414.0</ele><time>2026-05-01T09:49:21.999Z</time></trkpt><trkpt lat="41.699112300803606" lon="13.394950226733354"><ele>418.0</ele><time>2026-05-01T09:49:22.999Z</time></trkpt><trkpt lat="41.69904390393847" lon="13.395207901562696"><ele>422.0</ele><time>2026-05-01T09:49:23.999Z</time></trkpt><trkpt lat="41.69895505611598" lon="13.39546384344345"><ele>426.0</ele><time>2026-05-01T09:49:24.999Z</time></trkpt><trkpt lat="41.69883294957078" lon="13.39572716356708"><ele>425.5</ele><time>2026-05-01T09:49:25.999Z</time></trkpt><trkpt lat="41.69870212989482" lon="13.395996356749182"><ele>425.0</ele><time>2026-05-01T09:49:26.999Z</time></trkpt><trkpt lat="41.69856625450898" lon="13.396268722166901"><ele>432.0</ele><time>2026-05-01T09:49:27.999Z</time></trkpt><trkpt lat="41.69841813150525" lon="13.396535164832544"><ele>439.0</ele><time>2026-05-01T09:49:28.999Z</time></trkpt><trkpt lat="41.6982687830908" lon="13.396814374093047"><ele>439.0</ele><time>2026-05-01T09:49:29.999Z</time></trkpt><trkpt lat="41.69810990527681" lon="13.397099053974584"><ele>439.0</ele><time>2026-05-01T09:49:30.999Z</time></trkpt><trkpt lat="41.697955178678406" lon="13.397379855475066"><ele>436.5</ele><time>2026-05-01T09:49:31.999Z</time></trkpt><trkpt lat="41.69780826914568" lon="13.397650667436078"><ele>434.0</ele><time>2026-05-01T09:49:32.999Z</time></trkpt><trkpt lat="41.697664445543005" lon="13.397905856334573"><ele>443.0</ele><time>2026-05-01T09:49:33.999Z</time></trkpt><trkpt lat="41.6975177270819" lon="13.398171847865699"><ele>452.0</ele><time>2026-05-01T09:49:34.999Z</time></trkpt><trkpt lat="41.69736442168509" lon="13.398447198686899"><ele>452.0</ele><time>2026-05-01T09:49:35.999Z</time></trkpt><trkpt lat="41.69720993792444" lon="13.398716599570221"><ele>452.0</ele><time>2026-05-01T09:49:36.999Z</time></trkpt><trkpt lat="41.697066287792545" lon="13.398961069004688"><ele>449.0</ele><time>2026-05-01T09:49:37.999Z</time></trkpt><trkpt lat="41.696939124063476" lon="13.399176186850976"><ele>446.0</ele><time>2026-05-01T09:49:38.999Z</time></trkpt><trkpt lat="41.69682337744179" lon="13.39939753556205"><ele>443.0</ele><time>2026-05-01T09:49:39.999Z</time></trkpt><trkpt lat="41.69673149278058" lon="13.399646515133217"><ele>450.0</ele><time>2026-05-01T09:49:40.999Z</time></trkpt><trkpt lat="41.696665921606645" lon="13.399933414136873"><ele>457.0</ele><time>2026-05-01T09:49:41.999Z</time></trkpt><trkpt lat="41.696630093143035" lon="13.400241363855276"><ele>461.33333333333337</ele><time>2026-05-01T09:49:42.999Z</time></trkpt><trkpt lat="41.69658977476157" lon="13.400540555210222"><ele>465.66666666666663</ele><time>2026-05-01T09:49:43.999Z</time></trkpt><trkpt lat="41.69654883456758" lon="13.400792142930325"><ele>470.0</ele><time>2026-05-01T09:49:44.999Z</time></trkpt><trkpt lat="41.69650920212208" lon="13.401004463014566"><ele>470.0</ele><time>2026-05-01T09:49:45.999Z</time></trkpt><trkpt lat="41.69647357482597" lon="13.40118908919116"><ele>470.0</ele><time>2026-05-01T09:49:46.999Z</time></trkpt><trkpt lat="41.6964193307794" lon="13.401359404673206"><ele>470.0</ele><time>2026-05-01T09:49:47.999Z</time></trkpt><trkpt lat="41.696324703496266" lon="13.401514366207657"><ele>470.0</ele><time>2026-05-01T09:49:48.999Z</time></trkpt><trkpt lat="41.69618991398653" lon="13.401609930806055"><ele>471.0</ele><time>2026-05-01T09:49:49.999Z</time></trkpt><trkpt lat="41.696017175003945" lon="13.401626452563974"><ele>472.0</ele><time>2026-05-01T09:49:50.999Z</time></trkpt><trkpt lat="41.695831431474645" lon="13.40162900069082"><ele>473.0</ele><time>2026-05-01T09:49:51.999Z</time></trkpt><trkpt lat="41.69563625951425" lon="13.401660618184309"><ele>473.0</ele><time>2026-05-01T09:49:52.999Z</time></trkpt><trkpt lat="41.695430791680245" lon="13.401707132958537"><ele>473.0</ele><time>2026-05-01T09:49:53.999Z</time></trkpt><trkpt lat="41.695207508408544" lon="13.401775354155145"><ele>473.0</ele><time>2026-05-01T09:49:54.999Z</time></trkpt><trkpt lat="41.69499045469237" lon="13.40185763965367"><ele>471.5</ele><time>2026-05-01T09:49:55.999Z</time></trkpt><trkpt lat="41.694772444525015" lon="13.401957244625583"><ele>470.0</ele><time>2026-05-01T09:49:56.999Z</time></trkpt><trkpt lat="41.694560992467345" lon="13.40206442229976"><ele>467.0</ele><time>2026-05-01T09:49:57.998Z</time></trkpt><trkpt lat="41.69437664741556" lon="13.402163387743975"><ele>464.0</ele><time>2026-05-01T09:49:58.998Z</time></trkpt><trkpt lat="41.69419488672988" lon="13.40226290774493"><ele>461.0</ele><time>2026-05-01T09:49:59.998Z</time></trkpt><trkpt lat="41.693989493280306" lon="13.40236869107612"><ele>467.0</ele><time>2026-05-01T09:50:00.998Z</time></trkpt><trkpt lat="41.69378689034447" lon="13.402464392426404"><ele>473.0</ele><time>2026-05-01T09:50:01.998Z</time></trkpt><trkpt lat="41.693611044889835" lon="13.402543716609474"><ele>479.0</ele><time>2026-05-01T09:50:02.998Z</time></trkpt><trkpt lat="41.69346823906791" lon="13.402613113440816"><ele>479.0</ele><time>2026-05-01T09:50:03.998Z</time></trkpt><trkpt lat="41.69335011486354" lon="13.402672803179582"><ele>479.0</ele><time>2026-05-01T09:50:04.998Z</time></trkpt><trkpt lat="41.693258809561456" lon="13.402743750433055"><ele>479.0</ele><time>2026-05-01T09:50:05.998Z</time></trkpt><trkpt lat="41.6932011688239" lon="13.402866640866984"><ele>479.0</ele><time>2026-05-01T09:50:06.998Z</time></trkpt><trkpt lat="41.69318202581327" lon="13.403029800688701"><ele>482.75</ele><time>2026-05-01T09:50:07.998Z</time></trkpt><trkpt lat="41.69323267937372" lon="13.403196579070762"><ele>486.5</ele><time>2026-05-01T09:50:08.998Z</time></trkpt><trkpt lat="41.69333889619926" lon="13.403314493190503"><ele>490.25</ele><time>2026-05-01T09:50:09.998Z</time></trkpt><trkpt lat="41.69348649855115" lon="13.403355881346638"><ele>494.0</ele><time>2026-05-01T09:50:10.998Z</time></trkpt><trkpt lat="41.69365107227862" lon="13.403350968472916"><ele>494.66666666666663</ele><time>2026-05-01T09:50:11.998Z</time></trkpt><trkpt lat="41.693836748853094" lon="13.403344992839962"><ele>495.33333333333337</ele><time>2026-05-01T09:50:12.998Z</time></trkpt><trkpt lat="41.69403023894006" lon="13.403345072288229"><ele>496.0</ele><time>2026-05-01T09:50:13.998Z</time></trkpt><trkpt lat="41.69423320747981" lon="13.40334911768532"><ele>496.0</ele><time>2026-05-01T09:50:14.998Z</time></trkpt><trkpt lat="41.694439539390785" lon="13.403356116363595"><ele>496.0</ele><time>2026-05-01T09:50:15.998Z</time></trkpt><trkpt lat="41.69465054420325" lon="13.403366671727618"><ele>496.0</ele><time>2026-05-01T09:50:16.998Z</time></trkpt><trkpt lat="41.69487098318914" lon="13.403373256607843"><ele>496.0</ele><time>2026-05-01T09:50:17.998Z</time></trkpt><trkpt lat="41.69507733423566" lon="13.403375451312344"><ele>496.0</ele><time>2026-05-01T09:50:18.998Z</time></trkpt><trkpt lat="41.6952611218515" lon="13.403373589648714"><ele>496.0</ele><time>2026-05-01T09:50:20Z</time></trkpt><trkpt lat="41.69542533766946" lon="13.403372378198778"><ele>497.0</ele><time>2026-05-01T09:50:21Z</time></trkpt><trkpt lat="41.69557759432193" lon="13.403367954324892"><ele>498.0</ele><time>2026-05-01T09:50:22Z</time></trkpt><trkpt lat="41.69571707838456" lon="13.403368771818705"><ele>499.0</ele><time>2026-05-01T09:50:23Z</time></trkpt><trkpt lat="41.69584530372908" lon="13.40337630707997"><ele>500.0</ele><time>2026-05-01T09:50:24Z</time></trkpt><trkpt lat="41.69597092443635" lon="13.403396155291382"><ele>501.0</ele><time>2026-05-01T09:50:25Z</time></trkpt><trkpt lat="41.69611221041027" lon="13.403434350405432"><ele>502.0</ele><time>2026-05-01T09:50:26Z</time></trkpt><trkpt lat="41.69627327363526" lon="13.403498044868092"><ele>503.0</ele><time>2026-05-01T09:50:27Z</time></trkpt><trkpt lat="41.69645954356555" lon="13.403577114967852"><ele>503.0</ele><time>2026-05-01T09:50:28Z</time></trkpt><trkpt lat="41.69665067009697" lon="13.403650196509354"><ele>503.0</ele><time>2026-05-01T09:50:29Z</time></trkpt><trkpt lat="41.696824662235294" lon="13.403702684597329"><ele>503.0</ele><time>2026-05-01T09:50:30Z</time></trkpt><trkpt lat="41.696997998887504" lon="13.403772516914762"><ele>506.3333333333333</ele><time>2026-05-01T09:50:31Z</time></trkpt><trkpt lat="41.69716136231909" lon="13.403872832456464"><ele>509.66666666666663</ele><time>2026-05-01T09:50:32Z</time></trkpt><trkpt lat="41.697296641671485" lon="13.404040669995865"><ele>513.0</ele><time>2026-05-01T09:50:33Z</time></trkpt><trkpt lat="41.69743582345323" lon="13.404222936776145"><ele>513.0</ele><time>2026-05-01T09:50:34Z</time></trkpt><trkpt lat="41.697569895816834" lon="13.404420499601866"><ele>513.0</ele><time>2026-05-01T09:50:35Z</time></trkpt><trkpt lat="41.69772157180891" lon="13.404599622062994"><ele>513.0</ele><time>2026-05-01T09:50:36Z</time></trkpt><trkpt lat="41.69787704965039" lon="13.404775296852407"><ele>513.6666666666666</ele><time>2026-05-01T09:50:37Z</time></trkpt><trkpt lat="41.698043902544235" lon="13.40491770543208"><ele>514.3333333333333</ele><time>2026-05-01T09:50:38Z</time></trkpt><trkpt lat="41.6982015891492" lon="13.405043471193862"><ele>515.0</ele><time>2026-05-01T09:50:39Z</time></trkpt><trkpt lat="41.698366714725516" lon="13.405156262020459"><ele>515.0</ele><time>2026-05-01T09:50:40Z</time></trkpt><trkpt lat="41.69854423608472" lon="13.405240883407018"><ele>515.0</ele><time>2026-05-01T09:50:41Z</time></trkpt><trkpt lat="41.698727034145676" lon="13.405305825789384"><ele>515.0</ele><time>2026-05-01T09:50:42Z</time></trkpt><trkpt lat="41.698922852481296" lon="13.405346602838607"><ele>519.3333333333333</ele><time>2026-05-01T09:50:43Z</time></trkpt><trkpt lat="41.699119371946956" lon="13.405368947269167"><ele>523.6666666666666</ele><time>2026-05-01T09:50:44Z</time></trkpt><trkpt lat="41.69931035884035" lon="13.4053648218572"><ele>528.0</ele><time>2026-05-01T09:50:45Z</time></trkpt><trkpt lat="41.699507628430325" lon="13.405351118106742"><ele>531.3333333333334</ele><time>2026-05-01T09:50:46Z</time></trkpt><trkpt lat="41.69972233934804" lon="13.405333550436392"><ele>534.6666666666667</ele><time>2026-05-01T09:50:47Z</time></trkpt><trkpt lat="41.699923814530344" lon="13.405318731869373"><ele>538.0</ele><time>2026-05-01T09:50:48Z</time></trkpt><trkpt lat="41.70009966433127" lon="13.405317874871184"><ele>540.6666666666667</ele><time>2026-05-01T09:50:49Z</time></trkpt><trkpt lat="41.70026593624799" lon="13.405327767481795"><ele>543.3333333333334</ele><time>2026-05-01T09:50:50Z</time></trkpt><trkpt lat="41.700428612622396" lon="13.405340552997577"><ele>546.0</ele><time>2026-05-01T09:50:51Z</time></trkpt><trkpt lat="41.700570027728745" lon="13.405383535039427"><ele>546.0</ele><time>2026-05-01T09:50:52Z</time></trkpt><trkpt lat="41.70071322354976" lon="13.405406090978161"><ele>546.0</ele><time>2026-05-01T09:50:53Z</time></trkpt><trkpt lat="41.700830717062814" lon="13.405519342135655"><ele>546.0</ele><time>2026-05-01T09:50:54Z</time></trkpt><trkpt lat="41.70094483560772" lon="13.405646256015942"><ele>546.0</ele><time>2026-05-01T09:50:55Z</time></trkpt><trkpt lat="41.70101571931232" lon="13.405839578889449"><ele>548.6666666666666</ele><time>2026-05-01T09:50:56Z</time></trkpt><trkpt lat="41.701049489027575" lon="13.406062059263537"><ele>551.3333333333333</ele><time>2026-05-01T09:50:57Z</time></trkpt><trkpt lat="41.70107463779665" lon="13.406301308310352"><ele>554.0</ele><time>2026-05-01T09:50:57.999Z</time></trkpt><trkpt lat="41.7010888958515" lon="13.40657005372904"><ele>554.0</ele><time>2026-05-01T09:50:58.999Z</time></trkpt><trkpt lat="41.70110505733184" lon="13.40684527726426"><ele>554.0</ele><time>2026-05-01T09:50:59.999Z</time></trkpt><trkpt lat="41.70114550416605" lon="13.407435113898119"><ele>554.3333333333333</ele><time>2026-05-01T09:51:01.999Z</time></trkpt><trkpt lat="41.701167019825036" lon="13.40773577336647"><ele>554.6666666666666</ele><time>2026-05-01T09:51:02.999Z</time></trkpt><trkpt lat="41.7011860170661" lon="13.408026740270161"><ele>555.0</ele><time>2026-05-01T09:51:03.999Z</time></trkpt><trkpt lat="41.70120223966723" lon="13.408294026169315"><ele>555.3333333333334</ele><time>2026-05-01T09:51:04.999Z</time></trkpt><trkpt lat="41.70121886785995" lon="13.408545506783563"><ele>555.6666666666667</ele><time>2026-05-01T09:51:05.999Z</time></trkpt><trkpt lat="41.70123401965058" lon="13.408771379802577"><ele>556.0</ele><time>2026-05-01T09:51:06.999Z</time></trkpt><trkpt lat="41.70124331509656" lon="13.408968404865515"><ele>557.25</ele><time>2026-05-01T09:51:07.999Z</time></trkpt><trkpt lat="41.701231644893525" lon="13.409153736089241"><ele>558.5</ele><time>2026-05-01T09:51:08.999Z</time></trkpt><trkpt lat="41.70124339547505" lon="13.40933350965441"><ele>559.75</ele><time>2026-05-01T09:51:09.999Z</time></trkpt><trkpt lat="41.701218282683286" lon="13.409494806905805"><ele>561.0</ele><time>2026-05-01T09:51:10.999Z</time></trkpt><trkpt lat="41.701173765487454" lon="13.409644392887902"><ele>560.8</ele><time>2026-05-01T09:51:11.999Z</time></trkpt><trkpt lat="41.7010993531782" lon="13.40975621266554"><ele>560.6</ele><time>2026-05-01T09:51:12.999Z</time></trkpt><trkpt lat="41.70103275028493" lon="13.409852394393733"><ele>560.4</ele><time>2026-05-01T09:51:13.999Z</time></trkpt><trkpt lat="41.70094739353126" lon="13.40994132996065"><ele>560.2</ele><time>2026-05-01T09:51:14.999Z</time></trkpt><trkpt lat="41.70084114667553" lon="13.410012484359383"><ele>560.0</ele><time>2026-05-01T09:51:15.999Z</time></trkpt><trkpt lat="41.70071875136143" lon="13.410072964413061"><ele>559.2</ele><time>2026-05-01T09:51:16.999Z</time></trkpt><trkpt lat="41.700600690973324" lon="13.410074172474221"><ele>558.4</ele><time>2026-05-01T09:51:17.999Z</time></trkpt><trkpt lat="41.700509097447025" lon="13.410044336430419"><ele>557.6</ele><time>2026-05-01T09:51:18.999Z</time></trkpt><trkpt lat="41.70044386599976" lon="13.409998770548706"><ele>556.8</ele><time>2026-05-01T09:51:19.999Z</time></trkpt><trkpt lat="41.70034646085784" lon="13.410026941072037"><ele>556.0</ele><time>2026-05-01T09:51:21.999Z</time></trkpt><trkpt lat="41.70032641522463" lon="13.410113293902002"><ele>556.0</ele><time>2026-05-01T09:51:22.999Z</time></trkpt><trkpt lat="41.70039138538497" lon="13.410298486707935"><ele>556.0</ele><time>2026-05-01T09:51:24.999Z</time></trkpt><trkpt lat="41.70054192130756" lon="13.410297865411547"><ele>556.0</ele><time>2026-05-01T09:51:25.999Z</time></trkpt><trkpt lat="41.700658539272005" lon="13.410312126283422"><ele>556.0</ele><time>2026-05-01T09:51:26.999Z</time></trkpt><trkpt lat="41.700788529281894" lon="13.410344742310842"><ele>556.0</ele><time>2026-05-01T09:51:27.999Z</time></trkpt><trkpt lat="41.70092608614112" lon="13.410379109614956"><ele>556.0</ele><time>2026-05-01T09:51:28.999Z</time></trkpt><trkpt lat="41.70107551192049" lon="13.410410651157575"><ele>556.0</ele><time>2026-05-01T09:51:29.999Z</time></trkpt><trkpt lat="41.70123310397368" lon="13.41043631813697"><ele>557.3333333333334</ele><time>2026-05-01T09:51:30.999Z</time></trkpt><trkpt lat="41.70138714697361" lon="13.410442423991201"><ele>558.6666666666666</ele><time>2026-05-01T09:51:31.999Z</time></trkpt><trkpt lat="41.701549148276605" lon="13.41040110161305"><ele>560.0</ele><time>2026-05-01T09:51:32.999Z</time></trkpt><trkpt lat="41.70170306908647" lon="13.410320976889516"><ele>560.0</ele><time>2026-05-01T09:51:33.999Z</time></trkpt><trkpt lat="41.70185381941283" lon="13.410182765437325"><ele>560.0</ele><time>2026-05-01T09:51:34.999Z</time></trkpt><trkpt lat="41.70200630067122" lon="13.410013405898049"><ele>560.0</ele><time>2026-05-01T09:51:35.999Z</time></trkpt><trkpt lat="41.702155932328985" lon="13.409842022120499"><ele>564.3333333333333</ele><time>2026-05-01T09:51:36.999Z</time></trkpt><trkpt lat="41.702291753507815" lon="13.409677228650827"><ele>568.6666666666666</ele><time>2026-05-01T09:51:37.999Z</time></trkpt><trkpt lat="41.702412438368384" lon="13.409526603118945"><ele>573.0</ele><time>2026-05-01T09:51:38.999Z</time></trkpt><trkpt lat="41.70251094270765" lon="13.409382266038842"><ele>573.0</ele><time>2026-05-01T09:51:39.999Z</time></trkpt><trkpt lat="41.70258579557435" lon="13.409225413440506"><ele>573.0</ele><time>2026-05-01T09:51:40.999Z</time></trkpt><trkpt lat="41.702624600639965" lon="13.409028328088548"><ele>573.0</ele><time>2026-05-01T09:51:41.999Z</time></trkpt><trkpt lat="41.702631709422484" lon="13.408841740469551"><ele>573.0</ele><time>2026-05-01T09:51:42.999Z</time></trkpt><trkpt lat="41.70264352342367" lon="13.408710849814282"><ele>572.8333333333334</ele><time>2026-05-01T09:51:43.999Z</time></trkpt><trkpt lat="41.70268580434727" lon="13.408632285603751"><ele>572.6666666666666</ele><time>2026-05-01T09:51:44.999Z</time></trkpt><trkpt lat="41.70276857906949" lon="13.408602634835777"><ele>572.5</ele><time>2026-05-01T09:51:45.999Z</time></trkpt><trkpt lat="41.702852350337736" lon="13.408675962750044"><ele>572.3333333333333</ele><time>2026-05-01T09:51:46.999Z</time></trkpt><trkpt lat="41.70294405005062" lon="13.408680725908779"><ele>572.1666666666666</ele><time>2026-05-01T09:51:47.999Z</time></trkpt><trkpt lat="41.703022784250564" lon="13.408710394377323"><ele>572.0</ele><time>2026-05-01T09:51:48.999Z</time></trkpt><trkpt lat="41.70310707017434" lon="13.408724063652446"><ele>574.8000000000001</ele><time>2026-05-01T09:51:49.999Z</time></trkpt><trkpt lat="41.70319641787665" lon="13.408728422874582"><ele>577.6</ele><time>2026-05-01T09:51:50.999Z</time></trkpt><trkpt lat="41.70328880164679" lon="13.408730870827595"><ele>580.4000000000001</ele><time>2026-05-01T09:51:51.999Z</time></trkpt><trkpt lat="41.703363856254214" lon="13.40873562112054"><ele>583.2</ele><time>2026-05-01T09:51:52.999Z</time></trkpt><trkpt lat="41.70345248991597" lon="13.408742484297083"><ele>586.0</ele><time>2026-05-01T09:51:53.999Z</time></trkpt><trkpt lat="41.70356387022703" lon="13.408745856466279"><ele>590.25</ele><time>2026-05-01T09:51:54.999Z</time></trkpt><trkpt lat="41.70365330964245" lon="13.408744926153727"><ele>594.5</ele><time>2026-05-01T09:51:55.999Z</time></trkpt><trkpt lat="41.703757761886465" lon="13.408774144950398"><ele>598.75</ele><time>2026-05-01T09:51:57.999Z</time></trkpt><trkpt lat="41.703807066344325" lon="13.408972430051831"><ele>603.0</ele><time>2026-05-01T09:51:59.999Z</time></trkpt><trkpt lat="41.70382335616158" lon="13.409123895157762"><ele>605.25</ele><time>2026-05-01T09:52:00.999Z</time></trkpt><trkpt lat="41.70382924503198" lon="13.409305132700714"><ele>607.5</ele><time>2026-05-01T09:52:01.999Z</time></trkpt><trkpt lat="41.70381522771737" lon="13.409484194409824"><ele>609.75</ele><time>2026-05-01T09:52:02.999Z</time></trkpt><trkpt lat="41.703772253382645" lon="13.409658283480134"><ele>612.0</ele><time>2026-05-01T09:52:03.999Z</time></trkpt><trkpt lat="41.703699343992184" lon="13.40983605538048"><ele>607.0</ele><time>2026-05-01T09:52:04.999Z</time></trkpt><trkpt lat="41.703610018799004" lon="13.410022568395979"><ele>602.0</ele><time>2026-05-01T09:52:05.999Z</time></trkpt><trkpt lat="41.70352390269903" lon="13.410253416054736"><ele>597.0</ele><time>2026-05-01T09:52:06.999Z</time></trkpt><trkpt lat="41.70341975798855" lon="13.410483279697583"><ele>604.6666666666666</ele><time>2026-05-01T09:52:07.999Z</time></trkpt><trkpt lat="41.703316506162814" lon="13.410705961999204"><ele>612.3333333333333</ele><time>2026-05-01T09:52:08.999Z</time></trkpt><trkpt lat="41.70320355611109" lon="13.410926573323895"><ele>620.0</ele><time>2026-05-01T09:52:09.999Z</time></trkpt><trkpt lat="41.70307761843464" lon="13.411137436463122"><ele>620.0</ele><time>2026-05-01T09:52:10.998Z</time></trkpt><trkpt lat="41.702920938666956" lon="13.411322538939336"><ele>620.0</ele><time>2026-05-01T09:52:11.998Z</time></trkpt><trkpt lat="41.70278910710897" lon="13.411515852491222"><ele>620.0</ele><time>2026-05-01T09:52:12.998Z</time></trkpt><trkpt lat="41.702640990112144" lon="13.411675660103718"><ele>618.6666666666666</ele><time>2026-05-01T09:52:13.998Z</time></trkpt><trkpt lat="41.70249633590355" lon="13.411794731350298"><ele>617.3333333333334</ele><time>2026-05-01T09:52:14.998Z</time></trkpt><trkpt lat="41.70236060745611" lon="13.41190085685204"><ele>616.0</ele><time>2026-05-01T09:52:15.998Z</time></trkpt><trkpt lat="41.702234894642" lon="13.412032975212128"><ele>617.75</ele><time>2026-05-01T09:52:16.998Z</time></trkpt><trkpt lat="41.70213493296875" lon="13.412173007541007"><ele>619.5</ele><time>2026-05-01T09:52:17.998Z</time></trkpt><trkpt lat="41.702053811995725" lon="13.412319304912739"><ele>621.25</ele><time>2026-05-01T09:52:18.998Z</time></trkpt><trkpt lat="41.701972971966605" lon="13.412491356006441"><ele>623.0</ele><time>2026-05-01T09:52:19.998Z</time></trkpt><trkpt lat="41.70188972390195" lon="13.412644286730947"><ele>623.0</ele><time>2026-05-01T09:52:20.998Z</time></trkpt><trkpt lat="41.701779832881975" lon="13.412756118628254"><ele>623.0</ele><time>2026-05-01T09:52:21.998Z</time></trkpt><trkpt lat="41.70165322896514" lon="13.412830956178793"><ele>623.0</ele><time>2026-05-01T09:52:22.998Z</time></trkpt><trkpt lat="41.701504185890784" lon="13.41287533071608"><ele>623.0</ele><time>2026-05-01T09:52:23.998Z</time></trkpt><trkpt lat="41.7013364794752" lon="13.412911306823142"><ele>623.0</ele><time>2026-05-01T09:52:25Z</time></trkpt><trkpt lat="41.70117508488646" lon="13.412969466485361"><ele>623.0</ele><time>2026-05-01T09:52:26Z</time></trkpt><trkpt lat="41.70103518763377" lon="13.413026277797682"><ele>623.0</ele><time>2026-05-01T09:52:27Z</time></trkpt><trkpt lat="41.700906968224224" lon="13.413128816791696"><ele>628.0</ele><time>2026-05-01T09:52:28Z</time></trkpt><trkpt lat="41.700787803390725" lon="13.413275657959689"><ele>633.0</ele><time>2026-05-01T09:52:29Z</time></trkpt><trkpt lat="41.70065470979545" lon="13.413415321638666"><ele>638.0</ele><time>2026-05-01T09:52:30Z</time></trkpt><trkpt lat="41.700554218423655" lon="13.413577388073051"><ele>638.0</ele><time>2026-05-01T09:52:31Z</time></trkpt><trkpt lat="41.70041736611723" lon="13.413718519537765"><ele>638.0</ele><time>2026-05-01T09:52:32Z</time></trkpt><trkpt lat="41.70026813811903" lon="13.413876015441364"><ele>638.0</ele><time>2026-05-01T09:52:33Z</time></trkpt><trkpt lat="41.700108635632425" lon="13.41402812251763"><ele>644.0</ele><time>2026-05-01T09:52:34Z</time></trkpt><trkpt lat="41.69996885924673" lon="13.414163521230149"><ele>650.0</ele><time>2026-05-01T09:52:35Z</time></trkpt><trkpt lat="41.69985584628756" lon="13.414305271011708"><ele>656.0</ele><time>2026-05-01T09:52:36Z</time></trkpt><trkpt lat="41.69975012889862" lon="13.414423792244877"><ele>656.0</ele><time>2026-05-01T09:52:37Z</time></trkpt><trkpt lat="41.69965058417398" lon="13.414565490401783"><ele>656.0</ele><time>2026-05-01T09:52:38Z</time></trkpt><trkpt lat="41.699545576789" lon="13.41474087336101"><ele>656.0</ele><time>2026-05-01T09:52:39Z</time></trkpt><trkpt lat="41.699447429726696" lon="13.414908640257144"><ele>657.25</ele><time>2026-05-01T09:52:40Z</time></trkpt><trkpt lat="41.69934628289921" lon="13.415033032568777"><ele>658.5</ele><time>2026-05-01T09:52:41Z</time></trkpt><trkpt lat="41.69926317787262" lon="13.415119549898954"><ele>659.75</ele><time>2026-05-01T09:52:42Z</time></trkpt><trkpt lat="41.699153757905435" lon="13.415155179788714"><ele>661.0</ele><time>2026-05-01T09:52:43Z</time></trkpt><trkpt lat="41.69900492144723" lon="13.415221301948899"><ele>661.0</ele><time>2026-05-01T09:52:44Z</time></trkpt><trkpt lat="41.69885309450571" lon="13.41529938864468"><ele>661.0</ele><time>2026-05-01T09:52:45Z</time></trkpt><trkpt lat="41.69873111564255" lon="13.415349935479387"><ele>661.0</ele><time>2026-05-01T09:52:46Z</time></trkpt><trkpt lat="41.698635395704805" lon="13.41540919946818"><ele>661.0</ele><time>2026-05-01T09:52:47Z</time></trkpt><trkpt lat="41.6985482223689" lon="13.415484644566039"><ele>661.6666666666667</ele><time>2026-05-01T09:52:48Z</time></trkpt><trkpt lat="41.698477557534304" lon="13.415551054713275"><ele>662.3333333333334</ele><time>2026-05-01T09:52:49Z</time></trkpt><trkpt lat="41.69841096591631" lon="13.415577267802963"><ele>663.0</ele><time>2026-05-01T09:52:50Z</time></trkpt><trkpt lat="41.6983331604051" lon="13.415628235276884"><ele>663.6666666666666</ele><time>2026-05-01T09:52:52Z</time></trkpt><trkpt lat="41.698269428081765" lon="13.41566582285367"><ele>664.3333333333333</ele><time>2026-05-01T09:53:20.999Z</time></trkpt><trkpt lat="41.69820992649021" lon="13.41569984000705"><ele>665.0</ele><time>2026-05-01T09:53:22.999Z</time></trkpt><trkpt lat="41.69809470219627" lon="13.415758676675882"><ele>665.0</ele><time>2026-05-01T09:53:24.999Z</time></trkpt><trkpt lat="41.698074467061424" lon="13.415942115042013"><ele>665.0</ele><time>2026-05-01T09:53:25.999Z</time></trkpt><trkpt lat="41.69802057194786" lon="13.416028482007462"><ele>665.0</ele><time>2026-05-01T09:53:26.999Z</time></trkpt><trkpt lat="41.69794974524691" lon="13.41610617249689"><ele>665.0</ele><time>2026-05-01T09:53:27.999Z</time></trkpt><trkpt lat="41.69788483707232" lon="13.41620593432548"><ele>665.0</ele><time>2026-05-01T09:53:28.999Z</time></trkpt><trkpt lat="41.697824431016784" lon="13.416303007257177"><ele>664.6</ele><time>2026-05-01T09:53:29.999Z</time></trkpt><trkpt lat="41.697761206361086" lon="13.416407003488407"><ele>664.2</ele><time>2026-05-01T09:53:30.999Z</time></trkpt><trkpt lat="41.697708542004754" lon="13.416529800187885"><ele>663.8</ele><time>2026-05-01T09:53:31.999Z</time></trkpt><trkpt lat="41.69764677236508" lon="13.416633639060166"><ele>663.4</ele><time>2026-05-01T09:53:32.999Z</time></trkpt><trkpt lat="41.69758656025777" lon="13.416736047627886"><ele>663.0</ele><time>2026-05-01T09:53:33.999Z</time></trkpt><trkpt lat="41.69751324003935" lon="13.416824535546429"><ele>663.0</ele><time>2026-05-01T09:53:34.999Z</time></trkpt><trkpt lat="41.697454159969524" lon="13.41692713845622"><ele>663.0</ele><time>2026-05-01T09:53:35.999Z</time></trkpt><trkpt lat="41.69739562106853" lon="13.417028516803695"><ele>663.0</ele><time>2026-05-01T09:53:36.999Z</time></trkpt><trkpt lat="41.697338699089" lon="13.417130805134795"><ele>663.0</ele><time>2026-05-01T09:53:37.999Z</time></trkpt><trkpt lat="41.69728423113324" lon="13.417232448427772"><ele>663.0</ele><time>2026-05-01T09:53:38.999Z</time></trkpt><trkpt lat="41.69724362619699" lon="13.417344899723746"><ele>661.0</ele><time>2026-05-01T09:53:39.999Z</time></trkpt><trkpt lat="41.69718828943659" lon="13.417442335992863"><ele>659.0</ele><time>2026-05-01T09:53:40.999Z</time></trkpt><trkpt lat="41.69713205583799" lon="13.417538599993648"><ele>657.0</ele><time>2026-05-01T09:53:41.999Z</time></trkpt><trkpt lat="41.697077846703436" lon="13.417635274886944"><ele>655.0</ele><time>2026-05-01T09:53:42.999Z</time></trkpt><trkpt lat="41.69702054736191" lon="13.417726911623632"><ele>653.0</ele><time>2026-05-01T09:53:43.999Z</time></trkpt><trkpt lat="41.69695980346979" lon="13.417813611786293"><ele>654.3333333333333</ele><time>2026-05-01T09:53:44.999Z</time></trkpt><trkpt lat="41.696893116129054" lon="13.417888089530264"><ele>655.6666666666666</ele><time>2026-05-01T09:53:45.999Z</time></trkpt><trkpt lat="41.69682326938382" lon="13.417951950082745"><ele>657.0</ele><time>2026-05-01T09:53:46.999Z</time></trkpt><trkpt lat="41.69675381854708" lon="13.418012832933798"><ele>658.3333333333334</ele><time>2026-05-01T09:53:47.999Z</time></trkpt><trkpt lat="41.69668344236045" lon="13.418080780311449"><ele>659.6666666666667</ele><time>2026-05-01T09:53:48.999Z</time></trkpt><trkpt lat="41.69662703361729" lon="13.418127615350132"><ele>661.0</ele><time>2026-05-01T09:53:49.999Z</time></trkpt><trkpt lat="41.696540903286206" lon="13.418226744101354"><ele>658.3333333333334</ele><time>2026-05-01T09:53:51.999Z</time></trkpt><trkpt lat="41.69649461816789" lon="13.418337110103646"><ele>655.6666666666667</ele><time>2026-05-01T09:53:53.999Z</time></trkpt><trkpt lat="41.69655202171869" lon="13.41843038644276"><ele>653.0</ele><time>2026-05-01T09:53:56.999Z</time></trkpt><trkpt lat="41.69660638283687" lon="13.418383045504372"><ele>650.3333333333334</ele><time>2026-05-01T09:56:47Z</time></trkpt><trkpt lat="41.69666945115486" lon="13.418367103838627"><ele>647.6666666666666</ele><time>2026-05-01T09:56:48Z</time></trkpt><trkpt lat="41.696740124629095" lon="13.418346329185523"><ele>645.0</ele><time>2026-05-01T09:56:49Z</time></trkpt><trkpt lat="41.69681341016477" lon="13.418355326977206"><ele>645.0</ele><time>2026-05-01T09:56:50Z</time></trkpt><trkpt lat="41.696877754222605" lon="13.418345438696857"><ele>645.0</ele><time>2026-05-01T09:56:51Z</time></trkpt><trkpt lat="41.696964661288135" lon="13.418331552275776"><ele>645.0</ele><time>2026-05-01T09:56:53Z</time></trkpt><trkpt lat="41.69702366153642" lon="13.418386214467866"><ele>645.0</ele><time>2026-05-01T09:56:56Z</time></trkpt><trkpt lat="41.69698232896463" lon="13.41845565650528"><ele>645.0</ele><time>2026-05-01T09:56:57Z</time></trkpt><trkpt lat="41.69691207693683" lon="13.418488393568849"><ele>645.0</ele><time>2026-05-01T09:56:58Z</time></trkpt><trkpt lat="41.69684361044697" lon="13.418506920598594"><ele>645.0</ele><time>2026-05-01T09:56:59Z</time></trkpt><trkpt lat="41.696765786161485" lon="13.41854340216965"><ele>645.0</ele><time>2026-05-01T09:57:00Z</time></trkpt><trkpt lat="41.69668755016615" lon="13.418579943739976"><ele>645.0</ele><time>2026-05-01T09:57:01Z</time></trkpt><trkpt lat="41.696609218410394" lon="13.4186126062339"><ele>645.0</ele><time>2026-05-01T09:57:02Z</time></trkpt><trkpt lat="41.6965276807792" lon="13.418641877817013"><ele>645.0</ele><time>2026-05-01T09:57:03Z</time></trkpt><trkpt lat="41.696445393202005" lon="13.418710182622236"><ele>645.0</ele><time>2026-05-01T09:57:04Z</time></trkpt><trkpt lat="41.6963743998892" lon="13.418798728888152"><ele>645.0</ele><time>2026-05-01T09:57:05Z</time></trkpt><trkpt lat="41.696264569572456" lon="13.418885033324527"><ele>639.0</ele><time>2026-05-01T09:57:06Z</time></trkpt><trkpt lat="41.696139488520046" lon="13.418977369173799"><ele>633.0</ele><time>2026-05-01T09:57:07Z</time></trkpt><trkpt lat="41.69600469845537" lon="13.419075929006691"><ele>627.0</ele><time>2026-05-01T09:57:08Z</time></trkpt><trkpt lat="41.695865895996064" lon="13.419176501284799"><ele>627.0</ele><time>2026-05-01T09:57:09Z</time></trkpt><trkpt lat="41.695730777059744" lon="13.419256714905911"><ele>627.0</ele><time>2026-05-01T09:57:10Z</time></trkpt><trkpt lat="41.695598869198186" lon="13.419352198960473"><ele>627.0</ele><time>2026-05-01T09:57:11Z</time></trkpt><trkpt lat="41.6954522927851" lon="13.419450807972755"><ele>627.0</ele><time>2026-05-01T09:57:12Z</time></trkpt><trkpt lat="41.695305094484695" lon="13.419534578223203"><ele>627.0</ele><time>2026-05-01T09:57:12.999Z</time></trkpt><trkpt lat="41.695152840104015" lon="13.419615400016683"><ele>627.0</ele><time>2026-05-01T09:57:13.999Z</time></trkpt><trkpt lat="41.695004367788115" lon="13.419694569570792"><ele>623.5</ele><time>2026-05-01T09:57:14.999Z</time></trkpt><trkpt lat="41.69485781407958" lon="13.419774084330305"><ele>620.0</ele><time>2026-05-01T09:57:15.999Z</time></trkpt><trkpt lat="41.6947246682289" lon="13.419848315542687"><ele>616.5</ele><time>2026-05-01T09:57:16.999Z</time></trkpt><trkpt lat="41.69461227005878" lon="13.419907792464278"><ele>613.0</ele><time>2026-05-01T09:57:17.999Z</time></trkpt><trkpt lat="41.694517698233874" lon="13.419954614685937"><ele>613.0</ele><time>2026-05-01T09:57:18.999Z</time></trkpt><trkpt lat="41.69443877319395" lon="13.419987160134037"><ele>613.0</ele><time>2026-05-01T09:57:19.999Z</time></trkpt><trkpt lat="41.69435399859366" lon="13.420001326682746"><ele>613.0</ele><time>2026-05-01T09:57:20.999Z</time></trkpt><trkpt lat="41.69427740661589" lon="13.41997590484285"><ele>613.0</ele><time>2026-05-01T09:57:21.999Z</time></trkpt><trkpt lat="41.69418303578129" lon="13.419979078597677"><ele>613.0</ele><time>2026-05-01T09:57:23.999Z</time></trkpt><trkpt lat="41.694119474060635" lon="13.420001742048358"><ele>613.0</ele><time>2026-05-01T09:57:25.999Z</time></trkpt><trkpt lat="41.694145485172314" lon="13.420102452149528"><ele>613.0</ele><time>2026-05-01T09:57:26.999Z</time></trkpt><trkpt lat="41.69423099877452" lon="13.420151760677282"><ele>613.0</ele><time>2026-05-01T09:57:27.999Z</time></trkpt><trkpt lat="41.69432711008268" lon="13.420155121177087"><ele>613.0</ele><time>2026-05-01T09:57:28.999Z</time></trkpt><trkpt lat="41.6944360569947" lon="13.420178826821157"><ele>613.0</ele><time>2026-05-01T09:57:29.999Z</time></trkpt><trkpt lat="41.694564578801106" lon="13.420206575116872"><ele>613.0</ele><time>2026-05-01T09:57:30.999Z</time></trkpt><trkpt lat="41.69470663241357" lon="13.420234340421485"><ele>613.0</ele><time>2026-05-01T09:57:31.999Z</time></trkpt><trkpt lat="41.69485478884369" lon="13.420262994841291"><ele>613.0</ele><time>2026-05-01T09:57:32.999Z</time></trkpt><trkpt lat="41.69497569145249" lon="13.420286007552555"><ele>613.0</ele><time>2026-05-01T09:57:33.999Z</time></trkpt><trkpt lat="41.69508718614119" lon="13.420295177959686"><ele>613.0</ele><time>2026-05-01T09:57:34.999Z</time></trkpt><trkpt lat="41.69519800897265" lon="13.420316787678"><ele>611.6</ele><time>2026-05-01T09:57:35.999Z</time></trkpt><trkpt lat="41.69531760296773" lon="13.420350238363339"><ele>610.1999999999999</ele><time>2026-05-01T09:57:36.999Z</time></trkpt><trkpt lat="41.695428038557274" lon="13.420359402475558"><ele>608.8</ele><time>2026-05-01T09:57:37.999Z</time></trkpt><trkpt lat="41.695523008897716" lon="13.420327553432482"><ele>607.4</ele><time>2026-05-01T09:57:38.999Z</time></trkpt><trkpt lat="41.695600268477286" lon="13.420338673108343"><ele>606.0</ele><time>2026-05-01T09:57:39.999Z</time></trkpt><trkpt lat="41.69570015306389" lon="13.420324678923325"><ele>602.2</ele><time>2026-05-01T09:57:41.999Z</time></trkpt><trkpt lat="41.69574433283852" lon="13.420483628476669"><ele>598.4000000000001</ele><time>2026-05-01T09:57:43.999Z</time></trkpt><trkpt lat="41.69569747890513" lon="13.420558891615107"><ele>594.6</ele><time>2026-05-01T09:57:44.999Z</time></trkpt><trkpt lat="41.6956206753245" lon="13.420604380222896"><ele>590.8000000000001</ele><time>2026-05-01T09:57:45.999Z</time></trkpt><trkpt lat="41.6955179485747" lon="13.420613653013048"><ele>587.0</ele><time>2026-05-01T09:57:46.999Z</time></trkpt><trkpt lat="41.6953988450935" lon="13.420623802447025"><ele>587.0</ele><time>2026-05-01T09:57:47.999Z</time></trkpt><trkpt lat="41.69527908979301" lon="13.420653181445337"><ele>587.0</ele><time>2026-05-01T09:57:48.999Z</time></trkpt><trkpt lat="41.69517086330555" lon="13.420695940642242"><ele>587.0</ele><time>2026-05-01T09:57:49.999Z</time></trkpt><trkpt lat="41.69507189247609" lon="13.42072728697988"><ele>587.0</ele><time>2026-05-01T09:57:50.999Z</time></trkpt><trkpt lat="41.695005422341595" lon="13.42074618598567"><ele>587.0</ele><time>2026-05-01T09:57:51.999Z</time></trkpt><trkpt lat="41.69493767880791" lon="13.420752893232232"><ele>587.1666666666666</ele><time>2026-05-01T09:58:14.999Z</time></trkpt><trkpt lat="41.694858744835024" lon="13.420783075005172"><ele>587.3333333333333</ele><time>2026-05-01T09:58:16.998Z</time></trkpt><trkpt lat="41.69479349266616" lon="13.420786995234616"><ele>587.5</ele><time>2026-05-01T09:58:17.998Z</time></trkpt><trkpt lat="41.694722736347515" lon="13.420798228983058"><ele>587.6666666666666</ele><time>2026-05-01T09:58:19.998Z</time></trkpt><trkpt lat="41.694608933789475" lon="13.420824236764027"><ele>587.8333333333334</ele><time>2026-05-01T09:58:21.998Z</time></trkpt><trkpt lat="41.69452815057644" lon="13.420839187867777"><ele>588.0</ele><time>2026-05-01T09:58:22.998Z</time></trkpt><trkpt lat="41.694438540437694" lon="13.420858310059236"><ele>587.6</ele><time>2026-05-01T09:58:23.998Z</time></trkpt><trkpt lat="41.69435026156003" lon="13.420863363640388"><ele>587.1999999999999</ele><time>2026-05-01T09:58:24.998Z</time></trkpt><trkpt lat="41.694254910581876" lon="13.420870661953684"><ele>586.8</ele><time>2026-05-01T09:58:25.998Z</time></trkpt><trkpt lat="41.69415185892085" lon="13.420874189800621"><ele>586.4</ele><time>2026-05-01T09:58:26.998Z</time></trkpt><trkpt lat="41.6940496364208" lon="13.420872893914524"><ele>586.0</ele><time>2026-05-01T09:58:27.998Z</time></trkpt><trkpt lat="41.69396636788277" lon="13.420865860309615"><ele>585.9999999999999</ele><time>2026-05-01T09:58:28.998Z</time></trkpt><trkpt lat="41.693901050744984" lon="13.420863571735822"><ele>586.0</ele><time>2026-05-01T09:58:29.998Z</time></trkpt><trkpt lat="41.693838227083035" lon="13.420877295570333"><ele>586.0</ele><time>2026-05-01T09:58:31.998Z</time></trkpt><trkpt lat="41.69375475883505" lon="13.420850641709363"><ele>586.0</ele><time>2026-05-01T09:58:33.998Z</time></trkpt><trkpt lat="41.69368055815524" lon="13.42085520584794"><ele>586.0</ele><time>2026-05-01T09:58:34.998Z</time></trkpt><trkpt lat="41.69361247256344" lon="13.420820728235158"><ele>585.9999999999999</ele><time>2026-05-01T09:58:35.998Z</time></trkpt><trkpt lat="41.69354640264612" lon="13.42074476230348"><ele>586.0</ele><time>2026-05-01T09:58:36.998Z</time></trkpt><trkpt lat="41.693474572185366" lon="13.420630941162553"><ele>586.6666666666667</ele><time>2026-05-01T09:58:37.998Z</time></trkpt><trkpt lat="41.693400644608" lon="13.420520936938866"><ele>587.3333333333334</ele><time>2026-05-01T09:58:38.998Z</time></trkpt><trkpt lat="41.69333374998487" lon="13.420431592530356"><ele>588.0</ele><time>2026-05-01T09:58:39.998Z</time></trkpt><trkpt lat="41.69327545358188" lon="13.420359151522673"><ele>588.6666666666666</ele><time>2026-05-01T09:58:40.998Z</time></trkpt><trkpt lat="41.693226314488676" lon="13.420301067472144"><ele>589.3333333333333</ele><time>2026-05-01T09:58:41.998Z</time></trkpt><trkpt lat="41.69315052625805" lon="13.420255167004928"><ele>590.0</ele><time>2026-05-01T09:58:44Z</time></trkpt><trkpt lat="41.69309460170656" lon="13.420216185302312"><ele>590.0</ele><time>2026-05-01T09:58:46Z</time></trkpt><trkpt lat="41.69305993583653" lon="13.420410924968222"><ele>590.0</ele><time>2026-05-01T09:58:49Z</time></trkpt><trkpt lat="41.693106146247445" lon="13.420491831650676"><ele>590.0</ele><time>2026-05-01T09:58:50Z</time></trkpt><trkpt lat="41.693162124698716" lon="13.420577862984244"><ele>590.0</ele><time>2026-05-01T09:58:51Z</time></trkpt><trkpt lat="41.69322003068489" lon="13.420683322250817"><ele>590.0</ele><time>2026-05-01T09:58:52Z</time></trkpt><trkpt lat="41.693280382421435" lon="13.420772791105287"><ele>589.2</ele><time>2026-05-01T09:58:53Z</time></trkpt><trkpt lat="41.69334131785615" lon="13.420862746307845"><ele>588.4</ele><time>2026-05-01T09:58:54Z</time></trkpt><trkpt lat="41.69341149976644" lon="13.420949658323785"><ele>587.6</ele><time>2026-05-01T09:58:55Z</time></trkpt><trkpt lat="41.69348701752876" lon="13.421021306712662"><ele>586.8</ele><time>2026-05-01T09:58:56Z</time></trkpt><trkpt lat="41.69357821914771" lon="13.421090199126219"><ele>586.0</ele><time>2026-05-01T09:58:57Z</time></trkpt><trkpt lat="41.69369421608605" lon="13.42115634939716"><ele>586.0</ele><time>2026-05-01T09:58:58Z</time></trkpt><trkpt lat="41.69382320946344" lon="13.42122071367357"><ele>586.0</ele><time>2026-05-01T09:58:59Z</time></trkpt><trkpt lat="41.69396068766606" lon="13.421270468008245"><ele>586.0</ele><time>2026-05-01T09:59:00Z</time></trkpt><trkpt lat="41.694086314915694" lon="13.421299672595438"><ele>586.0</ele><time>2026-05-01T09:59:01Z</time></trkpt><trkpt lat="41.69420558905922" lon="13.42131003771015"><ele>586.0</ele><time>2026-05-01T09:59:02Z</time></trkpt><trkpt lat="41.69431811832065" lon="13.421305072693954"><ele>586.0</ele><time>2026-05-01T09:59:03Z</time></trkpt><trkpt lat="41.69440254438585" lon="13.42129221195119"><ele>586.0</ele><time>2026-05-01T09:59:04Z</time></trkpt><trkpt lat="41.69447220262807" lon="13.421293997471553"><ele>586.0</ele><time>2026-05-01T09:59:05Z</time></trkpt><trkpt lat="41.694527820055285" lon="13.421333786258268"><ele>586.0</ele><time>2026-05-01T09:59:06Z</time></trkpt><trkpt lat="41.69455694808687" lon="13.421409946833448"><ele>586.0</ele><time>2026-05-01T09:59:07Z</time></trkpt><trkpt lat="41.694541229591415" lon="13.421500007198036"><ele>581.2</ele><time>2026-05-01T09:59:08Z</time></trkpt><trkpt lat="41.6944657709206" lon="13.421572936264234"><ele>576.4000000000001</ele><time>2026-05-01T09:59:09Z</time></trkpt><trkpt lat="41.694364025777546" lon="13.421554786762686"><ele>571.6</ele><time>2026-05-01T09:59:10Z</time></trkpt><trkpt lat="41.69425095247542" lon="13.421573681171862"><ele>566.8000000000001</ele><time>2026-05-01T09:59:11Z</time></trkpt><trkpt lat="41.69413209480038" lon="13.42158401805606"><ele>562.0</ele><time>2026-05-01T09:59:12Z</time></trkpt><trkpt lat="41.69400907727317" lon="13.421607190473697"><ele>561.5</ele><time>2026-05-01T09:59:13Z</time></trkpt><trkpt lat="41.69389271240361" lon="13.421620268418959"><ele>561.0</ele><time>2026-05-01T09:59:14Z</time></trkpt><trkpt lat="41.69376961292523" lon="13.42163066013709"><ele>560.5</ele><time>2026-05-01T09:59:14.999Z</time></trkpt><trkpt lat="41.69363550079057" lon="13.421635592094752"><ele>560.0</ele><time>2026-05-01T09:59:15.999Z</time></trkpt><trkpt lat="41.69350919001687" lon="13.421626074460553"><ele>560.0</ele><time>2026-05-01T09:59:16.999Z</time></trkpt><trkpt lat="41.69339364398635" lon="13.421602343651825"><ele>560.0</ele><time>2026-05-01T09:59:17.999Z</time></trkpt><trkpt lat="41.69328162601006" lon="13.421566672118615"><ele>560.0</ele><time>2026-05-01T09:59:18.999Z</time></trkpt><trkpt lat="41.69318383773199" lon="13.421534913546477"><ele>560.0</ele><time>2026-05-01T09:59:19.999Z</time></trkpt><trkpt lat="41.69311219139614" lon="13.421511191290111"><ele>560.0</ele><time>2026-05-01T09:59:20.999Z</time></trkpt><trkpt lat="41.693053714823726" lon="13.421463918424147"><ele>560.0</ele><time>2026-05-01T09:59:22.999Z</time></trkpt><trkpt lat="41.69304557414143" lon="13.421659107642862"><ele>560.0</ele><time>2026-05-01T09:59:24.999Z</time></trkpt><trkpt lat="41.69309960200845" lon="13.421720760108279"><ele>560.0</ele><time>2026-05-01T09:59:25.999Z</time></trkpt><trkpt lat="41.69317778186368" lon="13.421771272297569"><ele>560.0</ele><time>2026-05-01T09:59:26.999Z</time></trkpt><trkpt lat="41.693262399038574" lon="13.421827509335152"><ele>560.0</ele><time>2026-05-01T09:59:27.999Z</time></trkpt><trkpt lat="41.69336100358101" lon="13.42189379703478"><ele>560.0</ele><time>2026-05-01T09:59:28.999Z</time></trkpt><trkpt lat="41.693471365807376" lon="13.421960724021924"><ele>560.0</ele><time>2026-05-01T09:59:29.999Z</time></trkpt><trkpt lat="41.69359106282443" lon="13.422018233524142"><ele>560.0</ele><time>2026-05-01T09:59:30.999Z</time></trkpt><trkpt lat="41.693709696950386" lon="13.422050515890687"><ele>560.0</ele><time>2026-05-01T09:59:31.999Z</time></trkpt><trkpt lat="41.693821140230064" lon="13.422064416457857"><ele>560.0</ele><time>2026-05-01T09:59:32.999Z</time></trkpt><trkpt lat="41.69392677417265" lon="13.422065338434223"><ele>560.0</ele><time>2026-05-01T09:59:33.999Z</time></trkpt><trkpt lat="41.69401821524295" lon="13.42207183732437"><ele>560.0</ele><time>2026-05-01T09:59:34.999Z</time></trkpt><trkpt lat="41.69408726108582" lon="13.422087925758138"><ele>560.0</ele><time>2026-05-01T09:59:35.999Z</time></trkpt><trkpt lat="41.694162543096304" lon="13.422101026614756"><ele>560.0</ele><time>2026-05-01T09:59:36.999Z</time></trkpt><trkpt lat="41.69423886409777" lon="13.42210653302076"><ele>560.0</ele><time>2026-05-01T09:59:37.999Z</time></trkpt><trkpt lat="41.69431524396121" lon="13.422118037072678"><ele>560.0</ele><time>2026-05-01T09:59:38.999Z</time></trkpt><trkpt lat="41.694389139340494" lon="13.422132340283394"><ele>560.0</ele><time>2026-05-01T09:59:39.999Z</time></trkpt><trkpt lat="41.694464979897" lon="13.42214903835546"><ele>560.0</ele><time>2026-05-01T09:59:40.999Z</time></trkpt><trkpt lat="41.69454465892618" lon="13.422167191131892"><ele>560.0</ele><time>2026-05-01T09:59:41.999Z</time></trkpt><trkpt lat="41.694610802903945" lon="13.422185288304089"><ele>560.0</ele><time>2026-05-01T09:59:42.999Z</time></trkpt><trkpt lat="41.694705248439384" lon="13.422210088860767"><ele>560.0</ele><time>2026-05-01T09:59:44.999Z</time></trkpt><trkpt lat="41.69474356406451" lon="13.42228777479493"><ele>556.4</ele><time>2026-05-01T09:59:47.999Z</time></trkpt><trkpt lat="41.694632824159115" lon="13.422367259050198"><ele>552.8</ele><time>2026-05-01T09:59:50.999Z</time></trkpt><trkpt lat="41.69454217759274" lon="13.422449106196368"><ele>549.2</ele><time>2026-05-01T09:59:52.999Z</time></trkpt><trkpt lat="41.6944695618568" lon="13.422537584337507"><ele>545.6</ele><time>2026-05-01T09:59:54.999Z</time></trkpt><trkpt lat="41.69444263073276" lon="13.422667111036716"><ele>542.0</ele><time>2026-05-01T09:59:56.999Z</time></trkpt><trkpt lat="41.69452240918638" lon="13.422799833259305"><ele>542.0</ele><time>2026-05-01T09:59:58.999Z</time></trkpt><trkpt lat="41.6945989928045" lon="13.422852295820213"><ele>542.0</ele><time>2026-05-01T09:59:59.999Z</time></trkpt><trkpt lat="41.69467713295342" lon="13.422896100141125"><ele>542.0</ele><time>2026-05-01T10:00:00.999Z</time></trkpt><trkpt lat="41.69475605764241" lon="13.422941098412585"><ele>542.0</ele><time>2026-05-01T10:00:01.999Z</time></trkpt><trkpt lat="41.694830340694224" lon="13.422988768777945"><ele>542.0</ele><time>2026-05-01T10:00:02.999Z</time></trkpt><trkpt lat="41.69491258091151" lon="13.423029913514334"><ele>542.0</ele><time>2026-05-01T10:00:03.999Z</time></trkpt><trkpt lat="41.694990479379236" lon="13.42308350479738"><ele>538.8333333333333</ele><time>2026-05-01T10:00:04.999Z</time></trkpt><trkpt lat="41.69507810797334" lon="13.42310828779333"><ele>535.6666666666666</ele><time>2026-05-01T10:00:05.999Z</time></trkpt><trkpt lat="41.695157179574004" lon="13.423126625530218"><ele>532.5</ele><time>2026-05-01T10:00:06.999Z</time></trkpt><trkpt lat="41.695237331874935" lon="13.423140267354002"><ele>529.3333333333334</ele><time>2026-05-01T10:00:07.999Z</time></trkpt><trkpt lat="41.69531706903963" lon="13.423152388490378"><ele>526.1666666666667</ele><time>2026-05-01T10:00:08.999Z</time></trkpt><trkpt lat="41.69540036401063" lon="13.42316977277567"><ele>523.0</ele><time>2026-05-01T10:00:09.999Z</time></trkpt><trkpt lat="41.69548583030982" lon="13.423202869827453"><ele>522.8</ele><time>2026-05-01T10:00:10.999Z</time></trkpt><trkpt lat="41.69556443541376" lon="13.423249924355503"><ele>522.5999999999999</ele><time>2026-05-01T10:00:11.999Z</time></trkpt><trkpt lat="41.69564700310871" lon="13.42330989034054"><ele>522.4000000000001</ele><time>2026-05-01T10:00:12.999Z</time></trkpt><trkpt lat="41.69573648109286" lon="13.423338146443685"><ele>522.2</ele><time>2026-05-01T10:00:13.999Z</time></trkpt><trkpt lat="41.6958240250709" lon="13.423362128760921"><ele>522.0</ele><time>2026-05-01T10:00:14.999Z</time></trkpt><trkpt lat="41.69591573585149" lon="13.423362920769165"><ele>522.0</ele><time>2026-05-01T10:00:15.999Z</time></trkpt><trkpt lat="41.69600805855599" lon="13.423350295012703"><ele>522.0</ele><time>2026-05-01T10:00:16.999Z</time></trkpt><trkpt lat="41.69609203058251" lon="13.423341139699199"><ele>522.0</ele><time>2026-05-01T10:00:17.999Z</time></trkpt><trkpt lat="41.69617268696993" lon="13.4233389080942"><ele>522.0</ele><time>2026-05-01T10:00:18.999Z</time></trkpt><trkpt lat="41.69625426723716" lon="13.423338242320655"><ele>522.0</ele><time>2026-05-01T10:00:19.998Z</time></trkpt><trkpt lat="41.696342825012515" lon="13.42333508178564"><ele>522.0</ele><time>2026-05-01T10:00:20.998Z</time></trkpt><trkpt lat="41.69643416822499" lon="13.42332216410157"><ele>520.3333333333334</ele><time>2026-05-01T10:00:21.998Z</time></trkpt><trkpt lat="41.69652345438906" lon="13.423288758698265"><ele>518.6666666666666</ele><time>2026-05-01T10:00:22.998Z</time></trkpt><trkpt lat="41.69661183433772" lon="13.423241668965401"><ele>517.0</ele><time>2026-05-01T10:00:23.998Z</time></trkpt><trkpt lat="41.696700584942015" lon="13.42323336465212"><ele>515.3333333333333</ele><time>2026-05-01T10:00:24.998Z</time></trkpt><trkpt lat="41.69678240417444" lon="13.423213206022172"><ele>513.6666666666666</ele><time>2026-05-01T10:00:25.998Z</time></trkpt><trkpt lat="41.69686701782175" lon="13.423209421235285"><ele>512.0</ele><time>2026-05-01T10:00:26.998Z</time></trkpt><trkpt lat="41.696954937430014" lon="13.423224545192987"><ele>510.0</ele><time>2026-05-01T10:00:27.998Z</time></trkpt><trkpt lat="41.69705043919421" lon="13.423222780477367"><ele>508.00000000000006</ele><time>2026-05-01T10:00:28.998Z</time></trkpt><trkpt lat="41.697145164735986" lon="13.423251680998504"><ele>506.00000000000006</ele><time>2026-05-01T10:00:29.998Z</time></trkpt><trkpt lat="41.69723765960195" lon="13.42327573587296"><ele>504.0</ele><time>2026-05-01T10:00:30.998Z</time></trkpt><trkpt lat="41.697335851722784" lon="13.423295503316593"><ele>502.0</ele><time>2026-05-01T10:00:31.998Z</time></trkpt><trkpt lat="41.697435315611244" lon="13.423311444091969"><ele>502.0</ele><time>2026-05-01T10:00:32.998Z</time></trkpt><trkpt lat="41.697538270227824" lon="13.423315074934807"><ele>502.00000000000006</ele><time>2026-05-01T10:00:33.998Z</time></trkpt><trkpt lat="41.697639773874144" lon="13.423323020814975"><ele>502.00000000000006</ele><time>2026-05-01T10:00:34.998Z</time></trkpt><trkpt lat="41.697730165925634" lon="13.423347129230866"><ele>502.0</ele><time>2026-05-01T10:00:35.998Z</time></trkpt><trkpt lat="41.697794313846344" lon="13.423411411065537"><ele>502.0</ele><time>2026-05-01T10:00:36.998Z</time></trkpt><trkpt lat="41.69783967005468" lon="13.423498915151825"><ele>501.40000000000003</ele><time>2026-05-01T10:00:37.998Z</time></trkpt><trkpt lat="41.69786441734558" lon="13.423621365732815"><ele>500.80000000000007</ele><time>2026-05-01T10:00:38.998Z</time></trkpt><trkpt lat="41.69784061024415" lon="13.423768068843689"><ele>500.2</ele><time>2026-05-01T10:00:39.998Z</time></trkpt><trkpt lat="41.69785114050898" lon="13.423933858967454"><ele>499.6</ele><time>2026-05-01T10:00:40.998Z</time></trkpt><trkpt lat="41.6978541852523" lon="13.424086911709821"><ele>499.0</ele><time>2026-05-01T10:00:41.998Z</time></trkpt><trkpt lat="41.697869838181475" lon="13.424235329959881"><ele>499.0</ele><time>2026-05-01T10:00:42.998Z</time></trkpt><trkpt lat="41.69788545968426" lon="13.424388008945698"><ele>499.0</ele><time>2026-05-01T10:00:43.998Z</time></trkpt><trkpt lat="41.69790245311294" lon="13.424528438007892"><ele>499.0</ele><time>2026-05-01T10:00:44.998Z</time></trkpt><trkpt lat="41.69791619115988" lon="13.424657726803582"><ele>499.0</ele><time>2026-05-01T10:00:45.998Z</time></trkpt><trkpt lat="41.69794323300109" lon="13.424781469150446"><ele>499.0</ele><time>2026-05-01T10:00:46.998Z</time></trkpt><trkpt lat="41.69799337466349" lon="13.424912498737978"><ele>496.4</ele><time>2026-05-01T10:00:47.998Z</time></trkpt><trkpt lat="41.69805367247017" lon="13.425038184166976"><ele>493.79999999999995</ele><time>2026-05-01T10:00:49Z</time></trkpt><trkpt lat="41.69809268393491" lon="13.425170113526132"><ele>491.20000000000005</ele><time>2026-05-01T10:00:50Z</time></trkpt><trkpt lat="41.69813816745713" lon="13.425288705369743"><ele>488.6</ele><time>2026-05-01T10:00:51Z</time></trkpt><trkpt lat="41.69820415749734" lon="13.425392918417796"><ele>486.0</ele><time>2026-05-01T10:00:52Z</time></trkpt><trkpt lat="41.69826778155602" lon="13.425492212076481"><ele>483.20000000000005</ele><time>2026-05-01T10:00:53Z</time></trkpt><trkpt lat="41.6983446609329" lon="13.425577600263079"><ele>480.40000000000003</ele><time>2026-05-01T10:00:54Z</time></trkpt><trkpt lat="41.698423055676926" lon="13.425658751309129"><ele>477.6</ele><time>2026-05-01T10:00:55Z</time></trkpt><trkpt lat="41.69850107045414" lon="13.425741895463844"><ele>474.8</ele><time>2026-05-01T10:00:56Z</time></trkpt><trkpt lat="41.6985810903914" lon="13.425823715557991"><ele>472.0</ele><time>2026-05-01T10:00:57Z</time></trkpt><trkpt lat="41.69865343736369" lon="13.425901029976517"><ele>471.6</ele><time>2026-05-01T10:00:58Z</time></trkpt><trkpt lat="41.69872848391402" lon="13.425964282031757"><ele>471.20000000000005</ele><time>2026-05-01T10:00:59Z</time></trkpt><trkpt lat="41.698816165389395" lon="13.426001833940436"><ele>470.8</ele><time>2026-05-01T10:01:00Z</time></trkpt><trkpt lat="41.698912994710795" lon="13.426026812620357"><ele>470.4</ele><time>2026-05-01T10:01:01Z</time></trkpt><trkpt lat="41.69901170826763" lon="13.426075117284126"><ele>470.0</ele><time>2026-05-01T10:01:02Z</time></trkpt><trkpt lat="41.699089225558446" lon="13.426178248513905"><ele>470.0</ele><time>2026-05-01T10:01:03Z</time></trkpt><trkpt lat="41.69918303788605" lon="13.426287325255785"><ele>470.0</ele><time>2026-05-01T10:01:04Z</time></trkpt><trkpt lat="41.699283699929005" lon="13.426384754155263"><ele>470.0</ele><time>2026-05-01T10:01:05Z</time></trkpt><trkpt lat="41.69936279403576" lon="13.426490856238749"><ele>470.0</ele><time>2026-05-01T10:01:06Z</time></trkpt><trkpt lat="41.69942213753064" lon="13.426588026426778"><ele>469.2</ele><time>2026-05-01T10:01:07Z</time></trkpt><trkpt lat="41.69946276681099" lon="13.426672979286476"><ele>468.4</ele><time>2026-05-01T10:01:08Z</time></trkpt><trkpt lat="41.69949776458317" lon="13.4267608772378"><ele>467.6</ele><time>2026-05-01T10:01:10Z</time></trkpt><trkpt lat="41.699598959845815" lon="13.426891842881478"><ele>466.8</ele><time>2026-05-01T10:01:12Z</time></trkpt><trkpt lat="41.699662623898426" lon="13.427011962393573"><ele>466.0</ele><time>2026-05-01T10:01:13Z</time></trkpt><trkpt lat="41.699699057802064" lon="13.427184061061233"><ele>465.0</ele><time>2026-05-01T10:01:14Z</time></trkpt><trkpt lat="41.699750383289235" lon="13.427366377518265"><ele>464.0</ele><time>2026-05-01T10:01:14.999Z</time></trkpt><trkpt lat="41.699823362736794" lon="13.427549529989127"><ele>463.0</ele><time>2026-05-01T10:01:15.999Z</time></trkpt><trkpt lat="41.699883101990594" lon="13.427750705325572"><ele>463.0</ele><time>2026-05-01T10:01:16.999Z</time></trkpt><trkpt lat="41.699930029489984" lon="13.427962381837519"><ele>463.0</ele><time>2026-05-01T10:01:17.999Z</time></trkpt><trkpt lat="41.699960415379074" lon="13.428194455921464"><ele>463.0</ele><time>2026-05-01T10:01:18.999Z</time></trkpt><trkpt lat="41.69998322579982" lon="13.428417840639963"><ele>464.6666666666667</ele><time>2026-05-01T10:01:19.999Z</time></trkpt><trkpt lat="41.70001278986675" lon="13.428624736604505"><ele>466.33333333333337</ele><time>2026-05-01T10:01:20.999Z</time></trkpt><trkpt lat="41.70003751424161" lon="13.428826283969778"><ele>468.0</ele><time>2026-05-01T10:01:21.999Z</time></trkpt><trkpt lat="41.70005246549822" lon="13.429013324702339"><ele>469.4</ele><time>2026-05-01T10:01:22.999Z</time></trkpt><trkpt lat="41.70004605156495" lon="13.429172417367123"><ele>470.79999999999995</ele><time>2026-05-01T10:01:23.999Z</time></trkpt><trkpt lat="41.70008042375826" lon="13.429329007750644"><ele>472.2</ele><time>2026-05-01T10:01:24.999Z</time></trkpt><trkpt lat="41.70008321159757" lon="13.429475707803041"><ele>473.6</ele><time>2026-05-01T10:01:25.999Z</time></trkpt><trkpt lat="41.70011374709369" lon="13.429593030737806"><ele>475.0</ele><time>2026-05-01T10:01:26.999Z</time></trkpt><trkpt lat="41.700119248859814" lon="13.429681122182135"><ele>475.0</ele><time>2026-05-01T10:01:27.999Z</time></trkpt><trkpt lat="41.70012970108666" lon="13.429836070132772"><ele>475.0</ele><time>2026-05-01T10:01:29.999Z</time></trkpt><trkpt lat="41.70006484356799" lon="13.429993578082572"><ele>475.0</ele><time>2026-05-01T10:01:30.999Z</time></trkpt><trkpt lat="41.70006223562266" lon="13.43018510104365"><ele>475.0</ele><time>2026-05-01T10:01:31.999Z</time></trkpt><trkpt lat="41.700053390263484" lon="13.43039986216446"><ele>475.33333333333337</ele><time>2026-05-01T10:01:32.999Z</time></trkpt><trkpt lat="41.70005445069883" lon="13.430618178760396"><ele>475.66666666666663</ele><time>2026-05-01T10:01:33.999Z</time></trkpt><trkpt lat="41.70006160268809" lon="13.430815733040687"><ele>476.0</ele><time>2026-05-01T10:01:34.999Z</time></trkpt><trkpt lat="41.70008350169415" lon="13.431004708086151"><ele>476.0</ele><time>2026-05-01T10:01:35.999Z</time></trkpt><trkpt lat="41.70011926297714" lon="13.431188271683375"><ele>476.0</ele><time>2026-05-01T10:01:36.999Z</time></trkpt><trkpt lat="41.70016834852175" lon="13.43133064239644"><ele>476.0</ele><time>2026-05-01T10:01:37.999Z</time></trkpt><trkpt lat="41.700221977358304" lon="13.431448391923563"><ele>476.0</ele><time>2026-05-01T10:01:38.999Z</time></trkpt><trkpt lat="41.7002885764565" lon="13.431575352066828"><ele>474.75</ele><time>2026-05-01T10:01:39.999Z</time></trkpt><trkpt lat="41.700379540320036" lon="13.431711206320818"><ele>473.5</ele><time>2026-05-01T10:01:40.999Z</time></trkpt><trkpt lat="41.70049566197906" lon="13.431844783452956"><ele>472.25</ele><time>2026-05-01T10:01:41.999Z</time></trkpt><trkpt lat="41.70061028020684" lon="13.431973745275963"><ele>471.0</ele><time>2026-05-01T10:01:42.999Z</time></trkpt><trkpt lat="41.700715316792156" lon="13.432106222171258"><ele>470.25</ele><time>2026-05-01T10:01:43.999Z</time></trkpt><trkpt lat="41.70080189969786" lon="13.432247384813191"><ele>469.5</ele><time>2026-05-01T10:01:44.999Z</time></trkpt><trkpt lat="41.700867862640735" lon="13.43239997271123"><ele>468.75</ele><time>2026-05-01T10:01:45.999Z</time></trkpt><trkpt lat="41.70090311522936" lon="13.432566229528565"><ele>468.0</ele><time>2026-05-01T10:01:46.999Z</time></trkpt><trkpt lat="41.70089435364854" lon="13.432730391238042"><ele>468.0</ele><time>2026-05-01T10:01:47.999Z</time></trkpt><trkpt lat="41.70085158429544" lon="13.43287228516356"><ele>468.0</ele><time>2026-05-01T10:01:48.999Z</time></trkpt><trkpt lat="41.70076577415708" lon="13.43298132511339"><ele>468.0</ele><time>2026-05-01T10:01:49.999Z</time></trkpt><trkpt lat="41.700688309713925" lon="13.433098559523515"><ele>468.0</ele><time>2026-05-01T10:01:50.999Z</time></trkpt><trkpt lat="41.700605080720145" lon="13.433185574858088"><ele>469.0</ele><time>2026-05-01T10:01:51.999Z</time></trkpt><trkpt lat="41.70053662101156" lon="13.43324411651096"><ele>470.0</ele><time>2026-05-01T10:01:52.999Z</time></trkpt><trkpt lat="41.70047951646366" lon="13.433310594550411"><ele>471.0</ele><time>2026-05-01T10:01:54.999Z</time></trkpt><trkpt lat="41.700592019865724" lon="13.433498181811839"><ele>472.0</ele><time>2026-05-01T10:01:55.999Z</time></trkpt><trkpt lat="41.700744573208425" lon="13.433771665155117"><ele>473.0</ele><time>2026-05-01T10:01:57.999Z</time></trkpt><trkpt lat="41.70084735917967" lon="13.433955196557205"><ele>474.0</ele><time>2026-05-01T10:01:58.999Z</time></trkpt><trkpt lat="41.70095568004952" lon="13.43415700237446"><ele>475.0</ele><time>2026-05-01T10:01:59.999Z</time></trkpt><trkpt lat="41.7010661537328" lon="13.434355436170742"><ele>476.0</ele><time>2026-05-01T10:02:00.999Z</time></trkpt><trkpt lat="41.70119183245765" lon="13.434541760385347"><ele>477.0</ele><time>2026-05-01T10:02:01.999Z</time></trkpt><trkpt lat="41.70131751250808" lon="13.434714331215442"><ele>478.0</ele><time>2026-05-01T10:02:02.999Z</time></trkpt><trkpt lat="41.70143524405927" lon="13.43487895436865"><ele>478.0</ele><time>2026-05-01T10:02:03.999Z</time></trkpt><trkpt lat="41.70154877965795" lon="13.435051042698918"><ele>478.0</ele><time>2026-05-01T10:02:04.999Z</time></trkpt><trkpt lat="41.70166800928632" lon="13.43521454381781"><ele>478.0</ele><time>2026-05-01T10:02:05.999Z</time></trkpt><trkpt lat="41.70180386260557" lon="13.435362072720173"><ele>477.0</ele><time>2026-05-01T10:02:06.999Z</time></trkpt><trkpt lat="41.701964947425616" lon="13.435489306754032"><ele>476.0</ele><time>2026-05-01T10:02:07.999Z</time></trkpt><trkpt lat="41.70214336518436" lon="13.435594165422067"><ele>475.0</ele><time>2026-05-01T10:02:08.999Z</time></trkpt><trkpt lat="41.70232119594442" lon="13.435697835139985"><ele>475.0</ele><time>2026-05-01T10:02:09.999Z</time></trkpt><trkpt lat="41.70249397416992" lon="13.43580365609245"><ele>475.0</ele><time>2026-05-01T10:02:10.999Z</time></trkpt><trkpt lat="41.70266349245305" lon="13.435937597745376"><ele>475.0</ele><time>2026-05-01T10:02:11.999Z</time></trkpt><trkpt lat="41.70282843733282" lon="13.436089578074125"><ele>475.33333333333337</ele><time>2026-05-01T10:02:12.999Z</time></trkpt><trkpt lat="41.70298191517466" lon="13.436251616491937"><ele>475.66666666666663</ele><time>2026-05-01T10:02:13.999Z</time></trkpt><trkpt lat="41.703129295175565" lon="13.43639297442383"><ele>476.0</ele><time>2026-05-01T10:02:14.999Z</time></trkpt><trkpt lat="41.70328446994392" lon="13.436526806981057"><ele>476.66666666666663</ele><time>2026-05-01T10:02:15.999Z</time></trkpt><trkpt lat="41.70344872421112" lon="13.43666486503699"><ele>477.33333333333337</ele><time>2026-05-01T10:02:16.999Z</time></trkpt><trkpt lat="41.703615603625614" lon="13.43680070949556"><ele>478.0</ele><time>2026-05-01T10:02:17.999Z</time></trkpt><trkpt lat="41.703773412848236" lon="13.436927017872282"><ele>478.0</ele><time>2026-05-01T10:02:18.999Z</time></trkpt><trkpt lat="41.7039199396795" lon="13.43704855309042"><ele>478.0</ele><time>2026-05-01T10:02:19.999Z</time></trkpt><trkpt lat="41.704059633905494" lon="13.437167403747248"><ele>478.0</ele><time>2026-05-01T10:02:20.999Z</time></trkpt><trkpt lat="41.704194341140116" lon="13.437284649558782"><ele>476.33333333333337</ele><time>2026-05-01T10:02:21.998Z</time></trkpt><trkpt lat="41.7043268669739" lon="13.437396469396523"><ele>474.66666666666663</ele><time>2026-05-01T10:02:22.998Z</time></trkpt><trkpt lat="41.70445724972205" lon="13.437505848432703"><ele>473.0</ele><time>2026-05-01T10:02:23.998Z</time></trkpt><trkpt lat="41.70458758480021" lon="13.437610761421833"><ele>473.0</ele><time>2026-05-01T10:02:24.998Z</time></trkpt><trkpt lat="41.704728394696865" lon="13.43775056469667"><ele>473.0</ele><time>2026-05-01T10:02:25.998Z</time></trkpt><trkpt lat="41.70487170741241" lon="13.437872134444094"><ele>473.0</ele><time>2026-05-01T10:02:26.998Z</time></trkpt><trkpt lat="41.70500488980954" lon="13.437984815671244"><ele>471.66666666666663</ele><time>2026-05-01T10:02:27.998Z</time></trkpt><trkpt lat="41.70515517638257" lon="13.43810867539346"><ele>470.33333333333337</ele><time>2026-05-01T10:02:28.998Z</time></trkpt><trkpt lat="41.70532888799007" lon="13.438247355619637"><ele>469.0</ele><time>2026-05-01T10:02:29.998Z</time></trkpt><trkpt lat="41.7055149784456" lon="13.438382108126316"><ele>467.5</ele><time>2026-05-01T10:02:30.998Z</time></trkpt><trkpt lat="41.70571540171753" lon="13.438508683558137"><ele>466.0</ele><time>2026-05-01T10:02:31.998Z</time></trkpt><trkpt lat="41.70592146695495" lon="13.438645621163658"><ele>468.0</ele><time>2026-05-01T10:02:32.998Z</time></trkpt><trkpt lat="41.7061389733431" lon="13.438786857600139"><ele>470.0</ele><time>2026-05-01T10:02:33.998Z</time></trkpt><trkpt lat="41.70635452270542" lon="13.438923946621989"><ele>465.0</ele><time>2026-05-01T10:02:34.998Z</time></trkpt><trkpt lat="41.70657328238524" lon="13.439065382515546"><ele>460.0</ele><time>2026-05-01T10:02:35.998Z</time></trkpt><trkpt lat="41.70678927034072" lon="13.439203715837406"><ele>464.0</ele><time>2026-05-01T10:02:36.998Z</time></trkpt><trkpt lat="41.70699996145836" lon="13.439338464757801"><ele>468.0</ele><time>2026-05-01T10:02:37.998Z</time></trkpt><trkpt lat="41.70719965216255" lon="13.439475667040679"><ele>468.0</ele><time>2026-05-01T10:02:38.998Z</time></trkpt><trkpt lat="41.707388711074955" lon="13.439618427765748"><ele>468.0</ele><time>2026-05-01T10:02:39.998Z</time></trkpt><trkpt lat="41.70756360864127" lon="13.439762117769533"><ele>468.0</ele><time>2026-05-01T10:02:40.998Z</time></trkpt><trkpt lat="41.70774002692239" lon="13.439906628649029"><ele>465.33333333333337</ele><time>2026-05-01T10:02:41.998Z</time></trkpt><trkpt lat="41.707920507066945" lon="13.44004499997303"><ele>462.6666666666667</ele><time>2026-05-01T10:02:42.998Z</time></trkpt><trkpt lat="41.70809358718132" lon="13.440171983290357"><ele>460.0</ele><time>2026-05-01T10:02:43.998Z</time></trkpt><trkpt lat="41.70825973846768" lon="13.440292800905018"><ele>460.0</ele><time>2026-05-01T10:02:44.998Z</time></trkpt><trkpt lat="41.70841805790676" lon="13.440404250194355"><ele>460.0</ele><time>2026-05-01T10:02:45.998Z</time></trkpt><trkpt lat="41.708562129153435" lon="13.440508436358071"><ele>460.0</ele><time>2026-05-01T10:02:46.998Z</time></trkpt><trkpt lat="41.70869489994873" lon="13.440605443404166"><ele>455.6666666666667</ele><time>2026-05-01T10:02:47.998Z</time></trkpt><trkpt lat="41.70882223812618" lon="13.44071995944679"><ele>451.33333333333337</ele><time>2026-05-01T10:02:48.998Z</time></trkpt><trkpt lat="41.70893140824269" lon="13.44086310166731"><ele>447.0</ele><time>2026-05-01T10:02:49.998Z</time></trkpt><trkpt lat="41.7090179990109" lon="13.441045721716709"><ele>447.0</ele><time>2026-05-01T10:02:50.998Z</time></trkpt><trkpt lat="41.70906630040741" lon="13.441273016995117"><ele>447.0</ele><time>2026-05-01T10:02:51.998Z</time></trkpt><trkpt lat="41.70904761313536" lon="13.441530231480137"><ele>447.0</ele><time>2026-05-01T10:02:52.998Z</time></trkpt><trkpt lat="41.7090159255201" lon="13.441806815744858"><ele>446.0</ele><time>2026-05-01T10:02:54Z</time></trkpt><trkpt lat="41.708977937840665" lon="13.442083299474517"><ele>445.0</ele><time>2026-05-01T10:02:55Z</time></trkpt><trkpt lat="41.70894415845466" lon="13.442342869127055"><ele>444.0</ele><time>2026-05-01T10:02:56Z</time></trkpt><trkpt lat="41.708909030267456" lon="13.442579935354823"><ele>444.0</ele><time>2026-05-01T10:02:57Z</time></trkpt><trkpt lat="41.70887246567619" lon="13.442799833488463"><ele>444.0</ele><time>2026-05-01T10:02:58Z</time></trkpt><trkpt lat="41.70881047932566" lon="13.442994140564673"><ele>444.0</ele><time>2026-05-01T10:02:59Z</time></trkpt><trkpt lat="41.70868252751051" lon="13.443142848124644"><ele>446.33333333333337</ele><time>2026-05-01T10:03:00Z</time></trkpt><trkpt lat="41.708534129281986" lon="13.443283200751228"><ele>448.6666666666667</ele><time>2026-05-01T10:03:01Z</time></trkpt><trkpt lat="41.70838232250425" lon="13.443448381982746"><ele>451.0</ele><time>2026-05-01T10:03:02Z</time></trkpt><trkpt lat="41.708209227839454" lon="13.44358912899152"><ele>451.0</ele><time>2026-05-01T10:03:03Z</time></trkpt><trkpt lat="41.70804876073398" lon="13.443731396344678"><ele>451.0</ele><time>2026-05-01T10:03:04Z</time></trkpt><trkpt lat="41.70789370905953" lon="13.443896261145495"><ele>451.0</ele><time>2026-05-01T10:03:05Z</time></trkpt><trkpt lat="41.70774172757455" lon="13.444095030662034"><ele>452.6666666666667</ele><time>2026-05-01T10:03:06Z</time></trkpt><trkpt lat="41.707616368448086" lon="13.444314613014726"><ele>454.33333333333337</ele><time>2026-05-01T10:03:07Z</time></trkpt><trkpt lat="41.70750948029342" lon="13.444551801062993"><ele>456.0</ele><time>2026-05-01T10:03:08Z</time></trkpt><trkpt lat="41.70741481777763" lon="13.444807796449307"><ele>459.66666666666663</ele><time>2026-05-01T10:03:09Z</time></trkpt><trkpt lat="41.707328057030814" lon="13.445035155443554"><ele>463.3333333333333</ele><time>2026-05-01T10:03:10Z</time></trkpt><trkpt lat="41.707253078124516" lon="13.44523805098286"><ele>467.0</ele><time>2026-05-01T10:03:11Z</time></trkpt><trkpt lat="41.7071821078294" lon="13.445432032338386"><ele>468.25</ele><time>2026-05-01T10:03:12Z</time></trkpt><trkpt lat="41.707130278729046" lon="13.445604549737832"><ele>469.5</ele><time>2026-05-01T10:03:12.999Z</time></trkpt><trkpt lat="41.7070987451998" lon="13.445757831599671"><ele>470.75</ele><time>2026-05-01T10:03:13.999Z</time></trkpt><trkpt lat="41.70709303315776" lon="13.445889555220962"><ele>472.0</ele><time>2026-05-01T10:03:14.999Z</time></trkpt><trkpt lat="41.70709167390556" lon="13.446015196654612"><ele>472.0</ele><time>2026-05-01T10:03:15.999Z</time></trkpt><trkpt lat="41.7071165756738" lon="13.446157445394475"><ele>472.0</ele><time>2026-05-01T10:03:16.999Z</time></trkpt><trkpt lat="41.70718015665318" lon="13.446295092296321"><ele>472.0</ele><time>2026-05-01T10:03:17.999Z</time></trkpt><trkpt lat="41.70728264403283" lon="13.446400054426809"><ele>472.0</ele><time>2026-05-01T10:03:18.999Z</time></trkpt><trkpt lat="41.707396215541294" lon="13.446466972412944"><ele>472.0</ele><time>2026-05-01T10:03:19.999Z</time></trkpt><trkpt lat="41.70750997672267" lon="13.446490117279527"><ele>472.0</ele><time>2026-05-01T10:03:20.999Z</time></trkpt><trkpt lat="41.707623392163946" lon="13.446483146645903"><ele>472.0</ele><time>2026-05-01T10:03:21.999Z</time></trkpt><trkpt lat="41.70773288158142" lon="13.446437283286233"><ele>472.0</ele><time>2026-05-01T10:03:22.999Z</time></trkpt><trkpt lat="41.70784397787223" lon="13.446345147238725"><ele>473.5</ele><time>2026-05-01T10:03:23.999Z</time></trkpt><trkpt lat="41.70795026823919" lon="13.446282816845152"><ele>475.0</ele><time>2026-05-01T10:03:24.999Z</time></trkpt><trkpt lat="41.70805781757617" lon="13.4462046292347"><ele>476.5</ele><time>2026-05-01T10:03:25.999Z</time></trkpt><trkpt lat="41.70817223835425" lon="13.446125468917739"><ele>478.0</ele><time>2026-05-01T10:03:26.999Z</time></trkpt><trkpt lat="41.70828912156526" lon="13.446045576073812"><ele>478.0</ele><time>2026-05-01T10:03:27.999Z</time></trkpt><trkpt lat="41.708397060445954" lon="13.44597110747726"><ele>478.0</ele><time>2026-05-01T10:03:28.999Z</time></trkpt><trkpt lat="41.708514389716754" lon="13.445872146241603"><ele>478.0</ele><time>2026-05-01T10:03:29.999Z</time></trkpt><trkpt lat="41.708633697327656" lon="13.445749196008489"><ele>478.0</ele><time>2026-05-01T10:03:30.999Z</time></trkpt><trkpt lat="41.70873853999445" lon="13.445620394503896"><ele>477.75</ele><time>2026-05-01T10:03:31.999Z</time></trkpt><trkpt lat="41.708841245536355" lon="13.445489830444215"><ele>477.5</ele><time>2026-05-01T10:03:32.999Z</time></trkpt><trkpt lat="41.70893192123385" lon="13.445363516894608"><ele>477.25</ele><time>2026-05-01T10:03:33.999Z</time></trkpt><trkpt lat="41.7090380208286" lon="13.44522902117745"><ele>477.0</ele><time>2026-05-01T10:03:34.999Z</time></trkpt><trkpt lat="41.709149965113355" lon="13.445108491082118"><ele>477.0</ele><time>2026-05-01T10:03:35.999Z</time></trkpt><trkpt lat="41.709278534372814" lon="13.445033577306491"><ele>477.0</ele><time>2026-05-01T10:03:36.999Z</time></trkpt><trkpt lat="41.70941356822276" lon="13.444965752020881"><ele>477.0</ele><time>2026-05-01T10:03:37.999Z</time></trkpt><trkpt lat="41.70955248062668" lon="13.44489592470972"><ele>477.0</ele><time>2026-05-01T10:03:38.999Z</time></trkpt><trkpt lat="41.709702989723404" lon="13.444806247102873"><ele>476.33333333333337</ele><time>2026-05-01T10:03:39.999Z</time></trkpt><trkpt lat="41.709873868108176" lon="13.444731787317883"><ele>475.6666666666667</ele><time>2026-05-01T10:03:40.999Z</time></trkpt><trkpt lat="41.710046548390444" lon="13.444647861671271"><ele>475.0</ele><time>2026-05-01T10:03:41.999Z</time></trkpt><trkpt lat="41.710208777844464" lon="13.444568682413612"><ele>477.0</ele><time>2026-05-01T10:03:42.999Z</time></trkpt><trkpt lat="41.710370211894706" lon="13.444485317258904"><ele>479.0</ele><time>2026-05-01T10:03:43.999Z</time></trkpt><trkpt lat="41.710530758172915" lon="13.444417462943829"><ele>481.0</ele><time>2026-05-01T10:03:44.999Z</time></trkpt><trkpt lat="41.71067977913998" lon="13.444417570903187"><ele>481.0</ele><time>2026-05-01T10:03:45.999Z</time></trkpt><trkpt lat="41.710811626546466" lon="13.444457541432238"><ele>481.0</ele><time>2026-05-01T10:03:46.999Z</time></trkpt><trkpt lat="41.71092365816722" lon="13.444525393414896"><ele>481.0</ele><time>2026-05-01T10:03:47.999Z</time></trkpt><trkpt lat="41.71098729384562" lon="13.444585527223026"><ele>481.0</ele><time>2026-05-01T10:03:48.999Z</time></trkpt><trkpt lat="41.7110450412884" lon="13.44465673302715"><ele>481.0</ele><time>2026-05-01T10:03:49.999Z</time></trkpt><trkpt lat="41.711112770686455" lon="13.444759848717732"><ele>483.6666666666667</ele><time>2026-05-01T10:03:50.999Z</time></trkpt><trkpt lat="41.71119389341937" lon="13.444888610365433"><ele>486.33333333333337</ele><time>2026-05-01T10:03:51.999Z</time></trkpt><trkpt lat="41.711297150888036" lon="13.445054735093462"><ele>489.0</ele><time>2026-05-01T10:03:52.999Z</time></trkpt><trkpt lat="41.71142585395878" lon="13.445255244925992"><ele>489.0</ele><time>2026-05-01T10:03:53.999Z</time></trkpt><trkpt lat="41.711562965459805" lon="13.445445555243465"><ele>489.0</ele><time>2026-05-01T10:03:54.999Z</time></trkpt><trkpt lat="41.711657378950875" lon="13.44562512060668"><ele>489.0</ele><time>2026-05-01T10:03:55.999Z</time></trkpt><trkpt lat="41.711765139821715" lon="13.445784919433567"><ele>490.0</ele><time>2026-05-01T10:03:56.999Z</time></trkpt><trkpt lat="41.711884026083645" lon="13.445930992894578"><ele>491.0</ele><time>2026-05-01T10:03:57.999Z</time></trkpt><trkpt lat="41.712008072472756" lon="13.44606718533755"><ele>492.0</ele><time>2026-05-01T10:03:58.999Z</time></trkpt><trkpt lat="41.71213728073128" lon="13.446173589123637"><ele>492.66666666666663</ele><time>2026-05-01T10:03:59.999Z</time></trkpt><trkpt lat="41.712301183889764" lon="13.446251427954765"><ele>493.3333333333333</ele><time>2026-05-01T10:04:00.999Z</time></trkpt><trkpt lat="41.712504651930075" lon="13.446325349901768"><ele>494.0</ele><time>2026-05-01T10:04:01.999Z</time></trkpt><trkpt lat="41.71272760048885" lon="13.446406686325199"><ele>491.3333333333333</ele><time>2026-05-01T10:04:02.999Z</time></trkpt><trkpt lat="41.71294149628689" lon="13.446491252472459"><ele>488.66666666666663</ele><time>2026-05-01T10:04:03.999Z</time></trkpt><trkpt lat="41.71313776373867" lon="13.446577082363783"><ele>486.0</ele><time>2026-05-01T10:04:04.999Z</time></trkpt><trkpt lat="41.71332268489314" lon="13.446658308430546"><ele>486.0</ele><time>2026-05-01T10:04:05.999Z</time></trkpt><trkpt lat="41.713497178777004" lon="13.446733157659162"><ele>486.0</ele><time>2026-05-01T10:04:06.999Z</time></trkpt><trkpt lat="41.713669495855676" lon="13.446803619165854"><ele>486.0</ele><time>2026-05-01T10:04:07.999Z</time></trkpt><trkpt lat="41.71384124156791" lon="13.44686838114164"><ele>486.0</ele><time>2026-05-01T10:04:08.999Z</time></trkpt><trkpt lat="41.71401711119945" lon="13.446911395861408"><ele>486.0</ele><time>2026-05-01T10:04:09.999Z</time></trkpt><trkpt lat="41.714195783870984" lon="13.446935535113328"><ele>486.0</ele><time>2026-05-01T10:04:10.999Z</time></trkpt><trkpt lat="41.71437716858085" lon="13.44695097352175"><ele>486.0</ele><time>2026-05-01T10:04:11.999Z</time></trkpt><trkpt lat="41.71455282292293" lon="13.446990175772688"><ele>486.0</ele><time>2026-05-01T10:04:12.999Z</time></trkpt><trkpt lat="41.71473812618634" lon="13.447068190149155"><ele>486.0</ele><time>2026-05-01T10:04:13.999Z</time></trkpt><trkpt lat="41.71491380906022" lon="13.447171743620968"><ele>486.66666666666663</ele><time>2026-05-01T10:04:14.999Z</time></trkpt><trkpt lat="41.71507190434512" lon="13.447294579205554"><ele>487.3333333333333</ele><time>2026-05-01T10:04:15.999Z</time></trkpt><trkpt lat="41.71521310060772" lon="13.447445124171763"><ele>488.0</ele><time>2026-05-01T10:04:16.999Z</time></trkpt><trkpt lat="41.7153253712711" lon="13.447634425541853"><ele>488.0</ele><time>2026-05-01T10:04:17.999Z</time></trkpt><trkpt lat="41.71544055662386" lon="13.447807223381234"><ele>488.0</ele><time>2026-05-01T10:04:18.999Z</time></trkpt><trkpt lat="41.7155248567809" lon="13.447997036155476"><ele>488.0</ele><time>2026-05-01T10:04:19.999Z</time></trkpt><trkpt lat="41.715611915911566" lon="13.448162669870355"><ele>488.0</ele><time>2026-05-01T10:04:20.999Z</time></trkpt><trkpt lat="41.71572683055304" lon="13.44831229769195"><ele>488.0</ele><time>2026-05-01T10:04:21.998Z</time></trkpt><trkpt lat="41.71585573366301" lon="13.448446787390262"><ele>488.0</ele><time>2026-05-01T10:04:22.998Z</time></trkpt><trkpt lat="41.71598592743699" lon="13.448573334956093"><ele>488.0</ele><time>2026-05-01T10:04:23.998Z</time></trkpt><trkpt lat="41.71610799318373" lon="13.44869391534262"><ele>488.0</ele><time>2026-05-01T10:04:24.998Z</time></trkpt><trkpt lat="41.71622278660968" lon="13.44880310300406"><ele>488.0</ele><time>2026-05-01T10:04:25.998Z</time></trkpt><trkpt lat="41.71632907340765" lon="13.448905723641127"><ele>488.0</ele><time>2026-05-01T10:04:26.998Z</time></trkpt><trkpt lat="41.71643270848188" lon="13.448997935882709"><ele>488.0</ele><time>2026-05-01T10:04:27.998Z</time></trkpt><trkpt lat="41.71653499620683" lon="13.449073335655092"><ele>488.0</ele><time>2026-05-01T10:04:28.998Z</time></trkpt><trkpt lat="41.716642039642565" lon="13.449153039734155"><ele>488.0</ele><time>2026-05-01T10:04:29.998Z</time></trkpt><trkpt lat="41.7167847608811" lon="13.449236641846468"><ele>488.0</ele><time>2026-05-01T10:04:30.998Z</time></trkpt><trkpt lat="41.71693586553508" lon="13.449314160477194"><ele>489.0</ele><time>2026-05-01T10:04:31.998Z</time></trkpt><trkpt lat="41.717084139403546" lon="13.44940362216118"><ele>490.0</ele><time>2026-05-01T10:04:32.998Z</time></trkpt><trkpt lat="41.71722550988733" lon="13.44947211203046"><ele>491.0</ele><time>2026-05-01T10:04:33.998Z</time></trkpt><trkpt lat="41.71735857645338" lon="13.449547017905058"><ele>491.0</ele><time>2026-05-01T10:04:34.998Z</time></trkpt><trkpt lat="41.717479298027285" lon="13.449614519556976"><ele>491.0</ele><time>2026-05-01T10:04:35.998Z</time></trkpt><trkpt lat="41.71759426714811" lon="13.449675002696535"><ele>491.0</ele><time>2026-05-01T10:04:36.998Z</time></trkpt><trkpt lat="41.71769833581735" lon="13.449722525448399"><ele>491.0</ele><time>2026-05-01T10:04:37.998Z</time></trkpt><trkpt lat="41.71781002444" lon="13.44975359074237"><ele>489.8</ele><time>2026-05-01T10:04:38.998Z</time></trkpt><trkpt lat="41.717911313924446" lon="13.449760858401675"><ele>488.6</ele><time>2026-05-01T10:04:39.998Z</time></trkpt><trkpt lat="41.718006551787454" lon="13.449761070172787"><ele>487.4</ele><time>2026-05-01T10:04:40.998Z</time></trkpt><trkpt lat="41.71810453459864" lon="13.449774888519478"><ele>486.2</ele><time>2026-05-01T10:04:41.998Z</time></trkpt><trkpt lat="41.718204635866826" lon="13.449788610201947"><ele>485.0</ele><time>2026-05-01T10:04:42.998Z</time></trkpt><trkpt lat="41.7183029572317" lon="13.449801879638"><ele>485.0</ele><time>2026-05-01T10:04:43.998Z</time></trkpt><trkpt lat="41.718409085654116" lon="13.449817001616333"><ele>485.0</ele><time>2026-05-01T10:04:44.998Z</time></trkpt><trkpt lat="41.71850607757355" lon="13.449826163150789"><ele>485.0</ele><time>2026-05-01T10:04:45.998Z</time></trkpt><trkpt lat="41.718601974613115" lon="13.449841667710178"><ele>485.0</ele><time>2026-05-01T10:04:46.998Z</time></trkpt><trkpt lat="41.71868731546472" lon="13.44987985717439"><ele>485.0</ele><time>2026-05-01T10:04:47.998Z</time></trkpt><trkpt lat="41.7187402610397" lon="13.449990513755047"><ele>485.2</ele><time>2026-05-01T10:04:48.998Z</time></trkpt><trkpt lat="41.71878467048101" lon="13.45010765621512"><ele>485.4</ele><time>2026-05-01T10:04:49.998Z</time></trkpt><trkpt lat="41.718830782834644" lon="13.450224714251705"><ele>485.6</ele><time>2026-05-01T10:04:50.998Z</time></trkpt><trkpt lat="41.718822463291566" lon="13.450371113457328"><ele>485.8</ele><time>2026-05-01T10:04:51.998Z</time></trkpt><trkpt lat="41.71884566807463" lon="13.450481697515302"><ele>486.0</ele><time>2026-05-01T10:04:52.998Z</time></trkpt><trkpt lat="41.71889873481764" lon="13.450566498889067"><ele>486.0</ele><time>2026-05-01T10:04:53.998Z</time></trkpt><trkpt lat="41.71893242295518" lon="13.450659087353964"><ele>486.0</ele><time>2026-05-01T10:04:54.998Z</time></trkpt><trkpt lat="41.718975519957446" lon="13.450764991391143"><ele>486.0</ele><time>2026-05-01T10:04:55.998Z</time></trkpt><trkpt lat="41.71901919163111" lon="13.45088325373072"><ele>486.0</ele><time>2026-05-01T10:04:56.998Z</time></trkpt><trkpt lat="41.71904974678398" lon="13.451001201453469"><ele>486.0</ele><time>2026-05-01T10:04:57.998Z</time></trkpt><trkpt lat="41.719092198189415" lon="13.451130142740414"><ele>486.0</ele><time>2026-05-01T10:04:58.998Z</time></trkpt><trkpt lat="41.719157514331165" lon="13.451266521435599"><ele>486.0</ele><time>2026-05-01T10:05:00Z</time></trkpt><trkpt lat="41.71920523665854" lon="13.451414489082653"><ele>486.0</ele><time>2026-05-01T10:05:01Z</time></trkpt><trkpt lat="41.719251025227265" lon="13.451562386606838"><ele>486.0</ele><time>2026-05-01T10:05:02Z</time></trkpt><trkpt lat="41.71928187469045" lon="13.45172449335107"><ele>485.0</ele><time>2026-05-01T10:05:03Z</time></trkpt><trkpt lat="41.71928604844322" lon="13.451885837172107"><ele>484.0</ele><time>2026-05-01T10:05:04Z</time></trkpt><trkpt lat="41.71925646018522" lon="13.452047108241935"><ele>483.0</ele><time>2026-05-01T10:05:05Z</time></trkpt><trkpt lat="41.719221382639326" lon="13.452212874417567"><ele>482.0</ele><time>2026-05-01T10:05:06Z</time></trkpt><trkpt lat="41.71917611594052" lon="13.452362658306738"><ele>482.0</ele><time>2026-05-01T10:05:07Z</time></trkpt><trkpt lat="41.7191716734102" lon="13.452516609161991"><ele>482.0</ele><time>2026-05-01T10:05:08Z</time></trkpt><trkpt lat="41.71917423195624" lon="13.452667914588359"><ele>482.0</ele><time>2026-05-01T10:05:09Z</time></trkpt><trkpt lat="41.71921396199305" lon="13.452831803990506"><ele>482.0</ele><time>2026-05-01T10:05:10Z</time></trkpt><trkpt lat="41.719281363217256" lon="13.453000295414276"><ele>482.5</ele><time>2026-05-01T10:05:11Z</time></trkpt><trkpt lat="41.71936239899648" lon="13.453161023750493"><ele>483.0</ele><time>2026-05-01T10:05:12Z</time></trkpt><trkpt lat="41.71944722008894" lon="13.453305665204553"><ele>483.5</ele><time>2026-05-01T10:05:13Z</time></trkpt><trkpt lat="41.71952401013026" lon="13.453433621453875"><ele>484.0</ele><time>2026-05-01T10:05:14Z</time></trkpt><trkpt lat="41.71958817481572" lon="13.453582889118744"><ele>486.0</ele><time>2026-05-01T10:05:15Z</time></trkpt><trkpt lat="41.719667889144986" lon="13.453723623158243"><ele>488.0</ele><time>2026-05-01T10:05:16Z</time></trkpt><trkpt lat="41.71976144797389" lon="13.453885219149882"><ele>490.0</ele><time>2026-05-01T10:05:16.999Z</time></trkpt><trkpt lat="41.71988001606509" lon="13.454088190067905"><ele>490.0</ele><time>2026-05-01T10:05:17.999Z</time></trkpt><trkpt lat="41.72001337544989" lon="13.454287955910011"><ele>490.0</ele><time>2026-05-01T10:05:18.999Z</time></trkpt><trkpt lat="41.72012226438654" lon="13.454488993958284"><ele>490.0</ele><time>2026-05-01T10:05:19.999Z</time></trkpt><trkpt lat="41.7201993229032" lon="13.45468882010848"><ele>492.33333333333337</ele><time>2026-05-01T10:05:20.999Z</time></trkpt><trkpt lat="41.72027894166512" lon="13.454918005327041"><ele>494.66666666666663</ele><time>2026-05-01T10:05:21.999Z</time></trkpt><trkpt lat="41.72035052912574" lon="13.455161262230527"><ele>497.0</ele><time>2026-05-01T10:05:22.999Z</time></trkpt><trkpt lat="41.72039452035245" lon="13.455394594646942"><ele>496.3333333333333</ele><time>2026-05-01T10:05:23.999Z</time></trkpt><trkpt lat="41.720410359526355" lon="13.455648676521022"><ele>495.66666666666663</ele><time>2026-05-01T10:05:24.999Z</time></trkpt><trkpt lat="41.720392172729944" lon="13.455930512422817"><ele>495.0</ele><time>2026-05-01T10:05:25.999Z</time></trkpt><trkpt lat="41.720364381162824" lon="13.456240948921142"><ele>495.33333333333337</ele><time>2026-05-01T10:05:26.999Z</time></trkpt><trkpt lat="41.720346905101344" lon="13.456513256440276"><ele>495.6666666666667</ele><time>2026-05-01T10:05:27.999Z</time></trkpt><trkpt lat="41.720323760315985" lon="13.456746057776991"><ele>496.0</ele><time>2026-05-01T10:05:28.999Z</time></trkpt><trkpt lat="41.72031760298198" lon="13.456978272477757"><ele>497.33333333333337</ele><time>2026-05-01T10:05:29.999Z</time></trkpt><trkpt lat="41.72034794145727" lon="13.457239827814051"><ele>498.66666666666663</ele><time>2026-05-01T10:05:30.999Z</time></trkpt><trkpt lat="41.72040864066153" lon="13.457533673633902"><ele>500.0</ele><time>2026-05-01T10:05:31.999Z</time></trkpt><trkpt lat="41.72047121632645" lon="13.457784078318612"><ele>500.0</ele><time>2026-05-01T10:05:32.999Z</time></trkpt><trkpt lat="41.720515763243846" lon="13.458008033163773"><ele>500.0</ele><time>2026-05-01T10:05:33.999Z</time></trkpt><trkpt lat="41.720516514996746" lon="13.458227434365378"><ele>500.0</ele><time>2026-05-01T10:05:34.999Z</time></trkpt><trkpt lat="41.720525938538096" lon="13.458427978124424"><ele>500.0</ele><time>2026-05-01T10:05:35.999Z</time></trkpt><trkpt lat="41.72046363691138" lon="13.458595234380637"><ele>500.0</ele><time>2026-05-01T10:05:36.999Z</time></trkpt><trkpt lat="41.72036576302801" lon="13.45873561665719"><ele>500.0</ele><time>2026-05-01T10:05:37.999Z</time></trkpt><trkpt lat="41.720226828069826" lon="13.458891385177978"><ele>498.66666666666663</ele><time>2026-05-01T10:05:38.999Z</time></trkpt><trkpt lat="41.72007301751216" lon="13.459083129496609"><ele>497.33333333333337</ele><time>2026-05-01T10:05:39.999Z</time></trkpt><trkpt lat="41.71989217411136" lon="13.45927686705973"><ele>496.0</ele><time>2026-05-01T10:05:40.999Z</time></trkpt><trkpt lat="41.719713585792164" lon="13.459462898140513"><ele>496.0</ele><time>2026-05-01T10:05:41.999Z</time></trkpt><trkpt lat="41.719546363294654" lon="13.459602590445504"><ele>496.0</ele><time>2026-05-01T10:05:42.999Z</time></trkpt><trkpt lat="41.719406007939575" lon="13.459753117101988"><ele>496.0</ele><time>2026-05-01T10:05:43.999Z</time></trkpt><trkpt lat="41.71926879533347" lon="13.459869602364472"><ele>496.0</ele><time>2026-05-01T10:05:44.999Z</time></trkpt><trkpt lat="41.719147289862285" lon="13.459983103065287"><ele>496.0</ele><time>2026-05-01T10:05:45.999Z</time></trkpt><trkpt lat="41.71904874348844" lon="13.460128139667935"><ele>496.0</ele><time>2026-05-01T10:05:46.999Z</time></trkpt><trkpt lat="41.71897580546989" lon="13.46031513358691"><ele>497.0</ele><time>2026-05-01T10:05:47.999Z</time></trkpt><trkpt lat="41.71891832283058" lon="13.460555427726035"><ele>498.0</ele><time>2026-05-01T10:05:48.999Z</time></trkpt><trkpt lat="41.71885621446498" lon="13.460825787274784"><ele>499.0</ele><time>2026-05-01T10:05:49.999Z</time></trkpt><trkpt lat="41.718769237528576" lon="13.46108968101355"><ele>500.33333333333337</ele><time>2026-05-01T10:05:50.999Z</time></trkpt><trkpt lat="41.718703584735486" lon="13.46133050358568"><ele>501.66666666666663</ele><time>2026-05-01T10:05:51.999Z</time></trkpt><trkpt lat="41.718653795920616" lon="13.461512452032123"><ele>503.0</ele><time>2026-05-01T10:05:52.999Z</time></trkpt><trkpt lat="41.71861198861799" lon="13.461661259755443"><ele>503.0</ele><time>2026-05-01T10:05:53.999Z</time></trkpt><trkpt lat="41.718573425622964" lon="13.461798520277519"><ele>503.0</ele><time>2026-05-01T10:05:54.999Z</time></trkpt><trkpt lat="41.71852674979188" lon="13.461968052708928"><ele>503.0</ele><time>2026-05-01T10:05:55.999Z</time></trkpt><trkpt lat="41.7184737394869" lon="13.462172837783513"><ele>503.0</ele><time>2026-05-01T10:05:56.999Z</time></trkpt><trkpt lat="41.718417080146864" lon="13.462390264008823"><ele>503.0</ele><time>2026-05-01T10:05:57.999Z</time></trkpt><trkpt lat="41.71835443944439" lon="13.462622172453747"><ele>503.0</ele><time>2026-05-01T10:05:58.999Z</time></trkpt><trkpt lat="41.71828479506099" lon="13.462873060005226"><ele>503.0</ele><time>2026-05-01T10:05:59.999Z</time></trkpt><trkpt lat="41.71822764365119" lon="13.46313639555116"><ele>504.3333333333333</ele><time>2026-05-01T10:06:00.999Z</time></trkpt><trkpt lat="41.71815133679405" lon="13.463400790865835"><ele>505.66666666666663</ele><time>2026-05-01T10:06:01.999Z</time></trkpt><trkpt lat="41.718077936399354" lon="13.46367230177318"><ele>507.0</ele><time>2026-05-01T10:06:02.999Z</time></trkpt><trkpt lat="41.718007403589056" lon="13.463922176134972"><ele>508.66666666666663</ele><time>2026-05-01T10:06:03.999Z</time></trkpt><trkpt lat="41.717922844605226" lon="13.464129436173474"><ele>510.3333333333333</ele><time>2026-05-01T10:06:04.999Z</time></trkpt><trkpt lat="41.71784996165812" lon="13.464328477951115"><ele>512.0</ele><time>2026-05-01T10:06:05.999Z</time></trkpt><trkpt lat="41.71777872785123" lon="13.464509366924405"><ele>511.66666666666663</ele><time>2026-05-01T10:06:06.999Z</time></trkpt><trkpt lat="41.717716120810444" lon="13.464708580444"><ele>511.33333333333337</ele><time>2026-05-01T10:06:07.999Z</time></trkpt><trkpt lat="41.71767017276524" lon="13.464958578557646"><ele>511.0</ele><time>2026-05-01T10:06:08.999Z</time></trkpt><trkpt lat="41.71762164726422" lon="13.465233888133783"><ele>512.5</ele><time>2026-05-01T10:06:09.999Z</time></trkpt><trkpt lat="41.71755694741274" lon="13.465525721785161"><ele>514.0</ele><time>2026-05-01T10:06:10.999Z</time></trkpt><trkpt lat="41.71743997682948" lon="13.465822124150534"><ele>514.0</ele><time>2026-05-01T10:06:11.999Z</time></trkpt><trkpt lat="41.717326691532975" lon="13.466149270067163"><ele>514.0</ele><time>2026-05-01T10:06:12.999Z</time></trkpt><trkpt lat="41.717209844479015" lon="13.466490684640556"><ele>516.0</ele><time>2026-05-01T10:06:13.999Z</time></trkpt><trkpt lat="41.717102390404555" lon="13.466817755677058"><ele>518.0</ele><time>2026-05-01T10:06:14.999Z</time></trkpt><trkpt lat="41.71699942014994" lon="13.467126985745411"><ele>520.0</ele><time>2026-05-01T10:06:15.999Z</time></trkpt><trkpt lat="41.7168946152857" lon="13.46743857159585"><ele>522.0</ele><time>2026-05-01T10:06:16.999Z</time></trkpt><trkpt lat="41.71678723814636" lon="13.467757804818568"><ele>525.5</ele><time>2026-05-01T10:06:17.999Z</time></trkpt><trkpt lat="41.71670150114027" lon="13.468063106993855"><ele>529.0</ele><time>2026-05-01T10:06:18.999Z</time></trkpt><trkpt lat="41.71660761251926" lon="13.468332113824644"><ele>529.0</ele><time>2026-05-01T10:06:19.999Z</time></trkpt><trkpt lat="41.71652340159562" lon="13.468600694817589"><ele>529.0</ele><time>2026-05-01T10:06:20.999Z</time></trkpt><trkpt lat="41.71645383303265" lon="13.468873576231813"><ele>529.0</ele><time>2026-05-01T10:06:21.999Z</time></trkpt><trkpt lat="41.71639689936756" lon="13.469172897132701"><ele>531.5</ele><time>2026-05-01T10:06:22.999Z</time></trkpt><trkpt lat="41.716342401328006" lon="13.469477077483933"><ele>534.0</ele><time>2026-05-01T10:06:23.999Z</time></trkpt><trkpt lat="41.71628770303938" lon="13.469758555315915"><ele>535.3333333333334</ele><time>2026-05-01T10:06:24.999Z</time></trkpt><trkpt lat="41.71623065882221" lon="13.470029518746404"><ele>536.6666666666667</ele><time>2026-05-01T10:06:25.999Z</time></trkpt><trkpt lat="41.716172572377936" lon="13.470307335705183"><ele>538.0</ele><time>2026-05-01T10:06:26.999Z</time></trkpt><trkpt lat="41.7161061739738" lon="13.470596258195089"><ele>537.0</ele><time>2026-05-01T10:06:27.998Z</time></trkpt><trkpt lat="41.716030335805904" lon="13.470897825505885"><ele>536.0</ele><time>2026-05-01T10:06:28.998Z</time></trkpt><trkpt lat="41.71594599310042" lon="13.47120573350683"><ele>537.5</ele><time>2026-05-01T10:06:29.998Z</time></trkpt><trkpt lat="41.71585170028788" lon="13.471528471884147"><ele>539.0</ele><time>2026-05-01T10:06:30.998Z</time></trkpt><trkpt lat="41.715755969428926" lon="13.471850981882028"><ele>541.0</ele><time>2026-05-01T10:06:31.998Z</time></trkpt><trkpt lat="41.71566471316982" lon="13.472164313562079"><ele>543.0</ele><time>2026-05-01T10:06:32.998Z</time></trkpt><trkpt lat="41.7155788070678" lon="13.472465931515789"><ele>543.0</ele><time>2026-05-01T10:06:33.998Z</time></trkpt><trkpt lat="41.71549888644362" lon="13.472747871856303"><ele>543.0</ele><time>2026-05-01T10:06:34.998Z</time></trkpt><trkpt lat="41.71542337322328" lon="13.473000741685002"><ele>543.0</ele><time>2026-05-01T10:06:35.998Z</time></trkpt><trkpt lat="41.71535155921652" lon="13.473232255602495"><ele>543.25</ele><time>2026-05-01T10:06:36.998Z</time></trkpt><trkpt lat="41.71528853311378" lon="13.473446189375133"><ele>543.5</ele><time>2026-05-01T10:06:37.998Z</time></trkpt><trkpt lat="41.71524114484177" lon="13.473602418604504"><ele>543.75</ele><time>2026-05-01T10:06:38.998Z</time></trkpt><trkpt lat="41.715205334125415" lon="13.473717391928954"><ele>544.0</ele><time>2026-05-01T10:06:39.998Z</time></trkpt><trkpt lat="41.71517499314718" lon="13.473811548429588"><ele>545.2</ele><time>2026-05-01T10:06:40.998Z</time></trkpt><trkpt lat="41.71514806116829" lon="13.473906003110299"><ele>546.4</ele><time>2026-05-01T10:06:41.998Z</time></trkpt><trkpt lat="41.71511618699251" lon="13.473994897862484"><ele>547.6</ele><time>2026-05-01T10:06:42.998Z</time></trkpt><trkpt lat="41.715064323588706" lon="13.474096539725323"><ele>548.8</ele><time>2026-05-01T10:06:43.998Z</time></trkpt><trkpt lat="41.714986984942335" lon="13.474215013818483"><ele>550.0</ele><time>2026-05-01T10:06:44.998Z</time></trkpt><trkpt lat="41.71488302855097" lon="13.474325632993418"><ele>550.0</ele><time>2026-05-01T10:06:45.998Z</time></trkpt><trkpt lat="41.714764583794214" lon="13.474432706977142"><ele>550.0</ele><time>2026-05-01T10:06:46.998Z</time></trkpt><trkpt lat="41.71462691839748" lon="13.474544766467371"><ele>550.0</ele><time>2026-05-01T10:06:47.998Z</time></trkpt><trkpt lat="41.71447406600819" lon="13.474653395585063"><ele>552.0</ele><time>2026-05-01T10:06:48.998Z</time></trkpt><trkpt lat="41.71431359422457" lon="13.4747718939947"><ele>554.0</ele><time>2026-05-01T10:06:49.998Z</time></trkpt><trkpt lat="41.71416295546812" lon="13.474885835427056"><ele>556.0</ele><time>2026-05-01T10:06:50.998Z</time></trkpt><trkpt lat="41.71402789520604" lon="13.47498650871907"><ele>556.0</ele><time>2026-05-01T10:06:51.998Z</time></trkpt><trkpt lat="41.71388813406876" lon="13.475096308315948"><ele>556.0</ele><time>2026-05-01T10:06:52.998Z</time></trkpt><trkpt lat="41.71374038533722" lon="13.47522367906236"><ele>556.0</ele><time>2026-05-01T10:06:53.998Z</time></trkpt><trkpt lat="41.71359547191612" lon="13.475376261526149"><ele>557.3333333333334</ele><time>2026-05-01T10:06:54.998Z</time></trkpt><trkpt lat="41.71345134947658" lon="13.475558947624531"><ele>558.6666666666666</ele><time>2026-05-01T10:06:55.998Z</time></trkpt><trkpt lat="41.7133149130492" lon="13.475741329817463"><ele>560.0</ele><time>2026-05-01T10:06:56.998Z</time></trkpt><trkpt lat="41.71320103952442" lon="13.475899997325904"><ele>560.0</ele><time>2026-05-01T10:06:57.998Z</time></trkpt><trkpt lat="41.7131022826064" lon="13.476030753869598"><ele>560.0</ele><time>2026-05-01T10:06:58.998Z</time></trkpt><trkpt lat="41.71302394180959" lon="13.476155025949296"><ele>560.0</ele><time>2026-05-01T10:06:59.998Z</time></trkpt><trkpt lat="41.71296283851212" lon="13.476318611889731"><ele>560.0</ele><time>2026-05-01T10:07:00.998Z</time></trkpt><trkpt lat="41.712938837333056" lon="13.476508838190956"><ele>561.3333333333333</ele><time>2026-05-01T10:07:01.998Z</time></trkpt><trkpt lat="41.71296623693638" lon="13.476703775183402"><ele>562.6666666666666</ele><time>2026-05-01T10:07:02.998Z</time></trkpt><trkpt lat="41.71303642275893" lon="13.476893836645512"><ele>564.0</ele><time>2026-05-01T10:07:03.998Z</time></trkpt><trkpt lat="41.71313534674807" lon="13.477082454297118"><ele>564.6666666666666</ele><time>2026-05-01T10:07:04.998Z</time></trkpt><trkpt lat="41.71323283400495" lon="13.477276838476216"><ele>565.3333333333333</ele><time>2026-05-01T10:07:06Z</time></trkpt><trkpt lat="41.71330617940923" lon="13.47750482400976"><ele>566.0</ele><time>2026-05-01T10:07:07Z</time></trkpt><trkpt lat="41.713386633256675" lon="13.47776506800131"><ele>567.5</ele><time>2026-05-01T10:07:08Z</time></trkpt><trkpt lat="41.71346282909036" lon="13.47807275641162"><ele>569.0</ele><time>2026-05-01T10:07:09Z</time></trkpt><trkpt lat="41.71353405498644" lon="13.478377434850712"><ele>572.6666666666666</ele><time>2026-05-01T10:07:10Z</time></trkpt><trkpt lat="41.71359900992447" lon="13.478649739200637"><ele>576.3333333333334</ele><time>2026-05-01T10:07:11Z</time></trkpt><trkpt lat="41.71365851942874" lon="13.478860577820576"><ele>580.0</ele><time>2026-05-01T10:07:12Z</time></trkpt><trkpt lat="41.71369703927404" lon="13.479032597540323"><ele>581.6666666666667</ele><time>2026-05-01T10:07:13Z</time></trkpt><trkpt lat="41.71369566588165" lon="13.47921239479081"><ele>583.3333333333334</ele><time>2026-05-01T10:07:14Z</time></trkpt><trkpt lat="41.71366391706743" lon="13.47941281899591"><ele>585.0</ele><time>2026-05-01T10:07:15Z</time></trkpt><trkpt lat="41.713620583344394" lon="13.479654579917819"><ele>586.3333333333334</ele><time>2026-05-01T10:07:16Z</time></trkpt><trkpt lat="41.71359707902446" lon="13.479904984952869"><ele>587.6666666666667</ele><time>2026-05-01T10:07:17Z</time></trkpt><trkpt lat="41.71358361598182" lon="13.480136140735683"><ele>589.0</ele><time>2026-05-01T10:07:18Z</time></trkpt><trkpt lat="41.713605688142565" lon="13.480385076593038"><ele>590.0</ele><time>2026-05-01T10:07:19Z</time></trkpt><trkpt lat="41.71363774129935" lon="13.480595300482175"><ele>591.0</ele><time>2026-05-01T10:07:20Z</time></trkpt><trkpt lat="41.71365704507651" lon="13.480755609146026"><ele>592.0</ele><time>2026-05-01T10:07:21Z</time></trkpt><trkpt lat="41.713674016962635" lon="13.480880805195484"><ele>593.0</ele><time>2026-05-01T10:07:22Z</time></trkpt><trkpt lat="41.713691433880314" lon="13.480993163941667"><ele>593.0</ele><time>2026-05-01T10:07:23Z</time></trkpt><trkpt lat="41.713704951381295" lon="13.481095015563678"><ele>593.0</ele><time>2026-05-01T10:07:24Z</time></trkpt><trkpt lat="41.71371823318651" lon="13.481184952457804"><ele>593.0</ele><time>2026-05-01T10:07:25Z</time></trkpt><trkpt lat="41.713735231064476" lon="13.481278966635607"><ele>593.0</ele><time>2026-05-01T10:07:26Z</time></trkpt><trkpt lat="41.713769076141936" lon="13.481412395948134"><ele>593.0</ele><time>2026-05-01T10:07:27Z</time></trkpt><trkpt lat="41.71381993489082" lon="13.481597773153089"><ele>593.25</ele><time>2026-05-01T10:07:28Z</time></trkpt><trkpt lat="41.71387577526682" lon="13.481779809319278"><ele>593.5</ele><time>2026-05-01T10:07:29Z</time></trkpt><trkpt lat="41.71392926192502" lon="13.48191557517944"><ele>593.75</ele><time>2026-05-01T10:07:30Z</time></trkpt><trkpt lat="41.713974266145854" lon="13.48203237051625"><ele>594.0</ele><time>2026-05-01T10:07:31Z</time></trkpt><trkpt lat="41.71401603520451" lon="13.482167368093881"><ele>593.25</ele><time>2026-05-01T10:07:31.999Z</time></trkpt><trkpt lat="41.71406939848767" lon="13.48231828417022"><ele>592.5</ele><time>2026-05-01T10:07:32.999Z</time></trkpt><trkpt lat="41.71413690806626" lon="13.48250131949422"><ele>591.75</ele><time>2026-05-01T10:07:33.999Z</time></trkpt><trkpt lat="41.714204927406584" lon="13.48268438695305"><ele>591.0</ele><time>2026-05-01T10:07:34.999Z</time></trkpt><trkpt lat="41.71427604857582" lon="13.482879223183085"><ele>591.3333333333334</ele><time>2026-05-01T10:07:35.999Z</time></trkpt><trkpt lat="41.71434543409853" lon="13.483091085857405"><ele>591.6666666666667</ele><time>2026-05-01T10:07:36.999Z</time></trkpt><trkpt lat="41.71437553282957" lon="13.483333332239223"><ele>592.0</ele><time>2026-05-01T10:07:37.999Z</time></trkpt><trkpt lat="41.714392043866745" lon="13.48359132566496"><ele>605.5</ele><time>2026-05-01T10:07:38.999Z</time></trkpt><trkpt lat="41.714412856847844" lon="13.48388659570682"><ele>619.0</ele><time>2026-05-01T10:07:39.999Z</time></trkpt><trkpt lat="41.71441952773006" lon="13.484201931129897"><ele>619.0</ele><time>2026-05-01T10:07:40.999Z</time></trkpt><trkpt lat="41.71443442631993" lon="13.484508539585441"><ele>619.0</ele><time>2026-05-01T10:07:41.999Z</time></trkpt><trkpt lat="41.71445718563056" lon="13.484824973375982"><ele>619.3333333333334</ele><time>2026-05-01T10:07:42.999Z</time></trkpt><trkpt lat="41.714484200581566" lon="13.4851263763076"><ele>619.6666666666666</ele><time>2026-05-01T10:07:43.999Z</time></trkpt><trkpt lat="41.71451133493541" lon="13.485389003278117"><ele>620.0</ele><time>2026-05-01T10:07:44.999Z</time></trkpt><trkpt lat="41.714534443538426" lon="13.485630987830413"><ele>620.25</ele><time>2026-05-01T10:07:45.999Z</time></trkpt><trkpt lat="41.71455632954153" lon="13.48584187155647"><ele>620.5</ele><time>2026-05-01T10:07:46.999Z</time></trkpt><trkpt lat="41.71457400775824" lon="13.486037722200189"><ele>620.75</ele><time>2026-05-01T10:07:47.999Z</time></trkpt><trkpt lat="41.71458911467521" lon="13.486207740518854"><ele>621.0</ele><time>2026-05-01T10:07:48.999Z</time></trkpt><trkpt lat="41.714602901846746" lon="13.486356739979154"><ele>620.5</ele><time>2026-05-01T10:07:49.999Z</time></trkpt><trkpt lat="41.71459836837552" lon="13.486499596020202"><ele>620.0</ele><time>2026-05-01T10:07:50.999Z</time></trkpt><trkpt lat="41.71454710407413" lon="13.486630756806315"><ele>619.5</ele><time>2026-05-01T10:07:51.999Z</time></trkpt><trkpt lat="41.71444415981705" lon="13.486714585181112"><ele>619.0</ele><time>2026-05-01T10:07:52.999Z</time></trkpt><trkpt lat="41.71432810532641" lon="13.48673546481917"><ele>619.0</ele><time>2026-05-01T10:07:53.999Z</time></trkpt><trkpt lat="41.71418506224614" lon="13.486765099486103"><ele>619.0</ele><time>2026-05-01T10:07:54.999Z</time></trkpt><trkpt lat="41.71402038444422" lon="13.486818245414947"><ele>619.0</ele><time>2026-05-01T10:07:55.999Z</time></trkpt><trkpt lat="41.713862204759444" lon="13.486875020654882"><ele>619.0</ele><time>2026-05-01T10:07:56.999Z</time></trkpt><trkpt lat="41.71372418909643" lon="13.48694088278472"><ele>619.0</ele><time>2026-05-01T10:07:57.999Z</time></trkpt><trkpt lat="41.7135874363348" lon="13.487018559584465"><ele>619.0</ele><time>2026-05-01T10:07:58.999Z</time></trkpt><trkpt lat="41.71345809457744" lon="13.487131393306607"><ele>619.0</ele><time>2026-05-01T10:07:59.999Z</time></trkpt><trkpt lat="41.713337851485704" lon="13.487293967696422"><ele>620.6666666666667</ele><time>2026-05-01T10:08:00.999Z</time></trkpt><trkpt lat="41.713244385322966" lon="13.487481969428975"><ele>622.3333333333334</ele><time>2026-05-01T10:08:01.999Z</time></trkpt><trkpt lat="41.71318156159208" lon="13.487688130023182"><ele>624.0</ele><time>2026-05-01T10:08:02.999Z</time></trkpt><trkpt lat="41.71314767355645" lon="13.487915342634249"><ele>626.6666666666666</ele><time>2026-05-01T10:08:03.999Z</time></trkpt><trkpt lat="41.71315601255612" lon="13.488155601866962"><ele>629.3333333333333</ele><time>2026-05-01T10:08:04.999Z</time></trkpt><trkpt lat="41.71315498871951" lon="13.488360169217154"><ele>632.0</ele><time>2026-05-01T10:08:05.999Z</time></trkpt><trkpt lat="41.7130884355362" lon="13.488514180245911"><ele>632.0</ele><time>2026-05-01T10:08:06.999Z</time></trkpt><trkpt lat="41.71298151922341" lon="13.488606616969598"><ele>632.0</ele><time>2026-05-01T10:08:07.999Z</time></trkpt><trkpt lat="41.712842534741156" lon="13.488684000542815"><ele>632.0</ele><time>2026-05-01T10:08:08.999Z</time></trkpt><trkpt lat="41.7126822044761" lon="13.488781219682995"><ele>632.0</ele><time>2026-05-01T10:08:09.999Z</time></trkpt><trkpt lat="41.71250257322188" lon="13.488884298326736"><ele>632.0</ele><time>2026-05-01T10:08:10.999Z</time></trkpt><trkpt lat="41.71232673114769" lon="13.489017942388733"><ele>632.0</ele><time>2026-05-01T10:08:11.999Z</time></trkpt><trkpt lat="41.71215282084519" lon="13.489188858063962"><ele>632.0</ele><time>2026-05-01T10:08:12.999Z</time></trkpt><trkpt lat="41.711978780150936" lon="13.48937289363521"><ele>632.0</ele><time>2026-05-01T10:08:13.999Z</time></trkpt><trkpt lat="41.71179772115437" lon="13.489550484180493"><ele>632.0</ele><time>2026-05-01T10:08:14.999Z</time></trkpt><trkpt lat="41.71163682008893" lon="13.48971008594202"><ele>633.3333333333333</ele><time>2026-05-01T10:08:15.999Z</time></trkpt><trkpt lat="41.71149269664457" lon="13.489860515257485"><ele>634.6666666666666</ele><time>2026-05-01T10:08:16.999Z</time></trkpt><trkpt lat="41.711360459193116" lon="13.490012278294264"><ele>636.0</ele><time>2026-05-01T10:08:17.999Z</time></trkpt><trkpt lat="41.71122195705357" lon="13.490209132177128"><ele>637.5</ele><time>2026-05-01T10:08:18.999Z</time></trkpt><trkpt lat="41.71107019722119" lon="13.490439047147147"><ele>639.0</ele><time>2026-05-01T10:08:19.999Z</time></trkpt><trkpt lat="41.71092910638438" lon="13.490673599643756"><ele>639.0</ele><time>2026-05-01T10:08:20.999Z</time></trkpt><trkpt lat="41.71080166995184" lon="13.490887105318333"><ele>639.0</ele><time>2026-05-01T10:08:21.999Z</time></trkpt><trkpt lat="41.710686961225804" lon="13.491069431646833"><ele>639.0</ele><time>2026-05-01T10:08:22.999Z</time></trkpt><trkpt lat="41.710588545163105" lon="13.491226731585856"><ele>640.5</ele><time>2026-05-01T10:08:23.999Z</time></trkpt><trkpt lat="41.71051064350062" lon="13.491357114548778"><ele>642.0</ele><time>2026-05-01T10:08:24.999Z</time></trkpt><trkpt lat="41.71045135539003" lon="13.491491940024844"><ele>643.5</ele><time>2026-05-01T10:08:25.999Z</time></trkpt><trkpt lat="41.71043604357653" lon="13.49165007790625"><ele>645.0</ele><time>2026-05-01T10:08:26.999Z</time></trkpt><trkpt lat="41.710463012758225" lon="13.491826335716306"><ele>645.0</ele><time>2026-05-01T10:08:27.999Z</time></trkpt><trkpt lat="41.710535061793635" lon="13.49198290434732"><ele>645.0</ele><time>2026-05-01T10:08:28.999Z</time></trkpt><trkpt lat="41.71064800292669" lon="13.492120821658096"><ele>645.0</ele><time>2026-05-01T10:08:29.999Z</time></trkpt><trkpt lat="41.71076060616391" lon="13.492258903843142"><ele>645.0</ele><time>2026-05-01T10:08:30.999Z</time></trkpt><trkpt lat="41.71082426248216" lon="13.492421345874606"><ele>644.75</ele><time>2026-05-01T10:08:31.999Z</time></trkpt><trkpt lat="41.71086177815533" lon="13.492585510966592"><ele>644.5</ele><time>2026-05-01T10:08:32.999Z</time></trkpt><trkpt lat="41.71084763732711" lon="13.492757757411121"><ele>644.25</ele><time>2026-05-01T10:08:33.999Z</time></trkpt><trkpt lat="41.71077365407584" lon="13.492883881255038"><ele>644.0</ele><time>2026-05-01T10:08:34.999Z</time></trkpt><trkpt lat="41.710657938496844" lon="13.492986366373191"><ele>646.25</ele><time>2026-05-01T10:08:35.999Z</time></trkpt><trkpt lat="41.710565105442036" lon="13.493119984837964"><ele>648.5</ele><time>2026-05-01T10:08:36.999Z</time></trkpt><trkpt lat="41.71049087102398" lon="13.493264384137992"><ele>650.75</ele><time>2026-05-01T10:08:37.999Z</time></trkpt><trkpt lat="41.71047701630149" lon="13.49343959988862"><ele>653.0</ele><time>2026-05-01T10:08:38.999Z</time></trkpt><trkpt lat="41.710526639422895" lon="13.493610127083551"><ele>652.6666666666666</ele><time>2026-05-01T10:08:39.999Z</time></trkpt><trkpt lat="41.71062738677016" lon="13.493766240353368"><ele>652.3333333333334</ele><time>2026-05-01T10:08:40.999Z</time></trkpt><trkpt lat="41.71073806519564" lon="13.493932742158233"><ele>652.0</ele><time>2026-05-01T10:08:41.999Z</time></trkpt><trkpt lat="41.71083080536948" lon="13.494119675666957"><ele>652.0</ele><time>2026-05-01T10:08:42.998Z</time></trkpt><trkpt lat="41.71088815331525" lon="13.494348181526327"><ele>652.0</ele><time>2026-05-01T10:08:43.998Z</time></trkpt><trkpt lat="41.71093887980176" lon="13.494605204139027"><ele>652.0</ele><time>2026-05-01T10:08:44.998Z</time></trkpt><trkpt lat="41.710999982188866" lon="13.494862522378677"><ele>650.0</ele><time>2026-05-01T10:08:45.998Z</time></trkpt><trkpt lat="41.71104219277137" lon="13.495095731722715"><ele>648.0</ele><time>2026-05-01T10:08:46.998Z</time></trkpt><trkpt lat="41.71108734787199" lon="13.495287520482"><ele>646.0</ele><time>2026-05-01T10:08:47.998Z</time></trkpt><trkpt lat="41.7111403072121" lon="13.495438273736564"><ele>649.75</ele><time>2026-05-01T10:08:48.998Z</time></trkpt><trkpt lat="41.71122636195772" lon="13.49557202712455"><ele>653.5</ele><time>2026-05-01T10:08:49.998Z</time></trkpt><trkpt lat="41.71134888893805" lon="13.495683278545902"><ele>657.25</ele><time>2026-05-01T10:08:50.998Z</time></trkpt><trkpt lat="41.71150434487395" lon="13.49574314409524"><ele>661.0</ele><time>2026-05-01T10:08:51.998Z</time></trkpt><trkpt lat="41.71165456384159" lon="13.495761047243375"><ele>661.0</ele><time>2026-05-01T10:08:52.998Z</time></trkpt><trkpt lat="41.71177334774695" lon="13.495768529931421"><ele>661.0</ele><time>2026-05-01T10:08:53.998Z</time></trkpt><trkpt lat="41.71185942238731" lon="13.495839411497464"><ele>661.0</ele><time>2026-05-01T10:08:54.998Z</time></trkpt><trkpt lat="41.7119153923992" lon="13.495959587158849"><ele>661.0</ele><time>2026-05-01T10:08:55.998Z</time></trkpt><trkpt lat="41.71192089624789" lon="13.496123907371247"><ele>661.0</ele><time>2026-05-01T10:08:56.998Z</time></trkpt><trkpt lat="41.71185877846366" lon="13.496275831206026"><ele>660.6666666666667</ele><time>2026-05-01T10:08:57.998Z</time></trkpt><trkpt lat="41.711821787177605" lon="13.49645929330771"><ele>660.3333333333334</ele><time>2026-05-01T10:08:58.998Z</time></trkpt><trkpt lat="41.71178644433821" lon="13.49665967206963"><ele>660.0</ele><time>2026-05-01T10:08:59.998Z</time></trkpt><trkpt lat="41.71176951908458" lon="13.496879389755604"><ele>660.0</ele><time>2026-05-01T10:09:00.998Z</time></trkpt><trkpt lat="41.711759892478426" lon="13.497051125118269"><ele>660.0</ele><time>2026-05-01T10:09:01.998Z</time></trkpt><trkpt lat="41.71176087752855" lon="13.497193462476828"><ele>660.0</ele><time>2026-05-01T10:09:02.998Z</time></trkpt><trkpt lat="41.71179357989959" lon="13.497338308851715"><ele>660.0</ele><time>2026-05-01T10:09:03.998Z</time></trkpt><trkpt lat="41.71187831707165" lon="13.49747173084253"><ele>666.6666666666666</ele><time>2026-05-01T10:09:04.998Z</time></trkpt><trkpt lat="41.712012703050156" lon="13.497565641268126"><ele>673.3333333333333</ele><time>2026-05-01T10:09:05.998Z</time></trkpt><trkpt lat="41.712174634165514" lon="13.497642108139429"><ele>680.0</ele><time>2026-05-01T10:09:06.998Z</time></trkpt><trkpt lat="41.71231632968905" lon="13.497692152840104"><ele>680.0</ele><time>2026-05-01T10:09:07.998Z</time></trkpt><trkpt lat="41.712445774005936" lon="13.497726042020282"><ele>680.0</ele><time>2026-05-01T10:09:08.998Z</time></trkpt><trkpt lat="41.71255120897261" lon="13.497843571902155"><ele>680.0</ele><time>2026-05-01T10:09:09.998Z</time></trkpt><trkpt lat="41.71264036971767" lon="13.498016996806475"><ele>680.0</ele><time>2026-05-01T10:09:10.998Z</time></trkpt><trkpt lat="41.712719317467275" lon="13.498234765858806"><ele>681.6666666666666</ele><time>2026-05-01T10:09:12Z</time></trkpt><trkpt lat="41.71281582831216" lon="13.498457512822176"><ele>683.3333333333334</ele><time>2026-05-01T10:09:13Z</time></trkpt><trkpt lat="41.71292590696216" lon="13.498686895316263"><ele>685.0</ele><time>2026-05-01T10:09:14Z</time></trkpt><trkpt lat="41.71308461408296" lon="13.498916367893187"><ele>685.0</ele><time>2026-05-01T10:09:15Z</time></trkpt><trkpt lat="41.713251690206334" lon="13.499162773750013"><ele>685.0</ele><time>2026-05-01T10:09:16Z</time></trkpt><trkpt lat="41.71342205715869" lon="13.499428100834768"><ele>682.0</ele><time>2026-05-01T10:09:17Z</time></trkpt><trkpt lat="41.713569055249486" lon="13.499654559953587"><ele>679.0</ele><time>2026-05-01T10:09:18Z</time></trkpt><trkpt lat="41.713689788971855" lon="13.499842920352735"><ele>676.0</ele><time>2026-05-01T10:09:19Z</time></trkpt><trkpt lat="41.71380910024867" lon="13.499994153402689"><ele>680.0</ele><time>2026-05-01T10:09:20Z</time></trkpt><trkpt lat="41.713935528244065" lon="13.500105108453237"><ele>684.0</ele><time>2026-05-01T10:09:21Z</time></trkpt><trkpt lat="41.7140508874915" lon="13.500195839413367"><ele>688.0</ele><time>2026-05-01T10:09:22Z</time></trkpt><trkpt lat="41.71413671417722" lon="13.500358821491433"><ele>692.0</ele><time>2026-05-01T10:09:23Z</time></trkpt><trkpt lat="41.71418103488741" lon="13.50056192644712"><ele>692.0</ele><time>2026-05-01T10:09:24Z</time></trkpt><trkpt lat="41.71420050202509" lon="13.500781490812646"><ele>692.0</ele><time>2026-05-01T10:09:25Z</time></trkpt><trkpt lat="41.714237438199966" lon="13.501012015559493"><ele>692.0</ele><time>2026-05-01T10:09:26Z</time></trkpt><trkpt lat="41.71425413054646" lon="13.501210991308815"><ele>692.0</ele><time>2026-05-01T10:09:27Z</time></trkpt><trkpt lat="41.714289103770824" lon="13.501384621730274"><ele>692.0</ele><time>2026-05-01T10:09:28Z</time></trkpt><trkpt lat="41.71432233932327" lon="13.501535264041518"><ele>692.0</ele><time>2026-05-01T10:09:29Z</time></trkpt><trkpt lat="41.71434832248134" lon="13.501688431767409"><ele>692.0</ele><time>2026-05-01T10:09:30Z</time></trkpt><trkpt lat="41.71437634056033" lon="13.501842315625384"><ele>695.25</ele><time>2026-05-01T10:09:31Z</time></trkpt><trkpt lat="41.71440876518659" lon="13.501999126365243"><ele>698.5</ele><time>2026-05-01T10:09:32Z</time></trkpt><trkpt lat="41.71444529331808" lon="13.502163886093703"><ele>701.75</ele><time>2026-05-01T10:09:33Z</time></trkpt><trkpt lat="41.71448064813598" lon="13.502323180812162"><ele>705.0</ele><time>2026-05-01T10:09:34Z</time></trkpt><trkpt lat="41.714521586788074" lon="13.50247706581864"><ele>705.0</ele><time>2026-05-01T10:09:35Z</time></trkpt><trkpt lat="41.714575669552914" lon="13.50261691142649"><ele>705.0</ele><time>2026-05-01T10:09:36Z</time></trkpt><trkpt lat="41.7146471443825" lon="13.502745354209976"><ele>705.0</ele><time>2026-05-01T10:09:37Z</time></trkpt><trkpt lat="41.71474417288244" lon="13.50284635878957"><ele>705.0</ele><time>2026-05-01T10:09:38Z</time></trkpt><trkpt lat="41.714861431243314" lon="13.502914942047484"><ele>703.5</ele><time>2026-05-01T10:09:39Z</time></trkpt><trkpt lat="41.71498269867031" lon="13.502972816349121"><ele>702.0</ele><time>2026-05-01T10:09:40Z</time></trkpt><trkpt lat="41.715099279219885" lon="13.503062677145499"><ele>700.5</ele><time>2026-05-01T10:09:41Z</time></trkpt><trkpt lat="41.71520543071926" lon="13.503197667195751"><ele>699.0</ele><time>2026-05-01T10:09:41.999Z</time></trkpt><trkpt lat="41.71528682261027" lon="13.503344851082504"><ele>698.25</ele><time>2026-05-01T10:09:42.999Z</time></trkpt><trkpt lat="41.715370674377304" lon="13.503481666029948"><ele>697.5</ele><time>2026-05-01T10:09:43.999Z</time></trkpt><trkpt lat="41.715472384609384" lon="13.503590625320916"><ele>696.75</ele><time>2026-05-01T10:09:44.999Z</time></trkpt><trkpt lat="41.71559664748608" lon="13.503648709785375"><ele>696.0</ele><time>2026-05-01T10:09:45.999Z</time></trkpt><trkpt lat="41.715744899131685" lon="13.503655357360527"><ele>696.0</ele><time>2026-05-01T10:09:46.999Z</time></trkpt><trkpt lat="41.715915750212766" lon="13.503605741548572"><ele>696.0</ele><time>2026-05-01T10:09:47.999Z</time></trkpt><trkpt lat="41.716096833470175" lon="13.503524719716415"><ele>696.0</ele><time>2026-05-01T10:09:48.999Z</time></trkpt><trkpt lat="41.716300726660435" lon="13.503456625912545"><ele>693.6666666666666</ele><time>2026-05-01T10:09:49.999Z</time></trkpt><trkpt lat="41.716485201034615" lon="13.503403511468038"><ele>691.3333333333333</ele><time>2026-05-01T10:09:50.999Z</time></trkpt><trkpt lat="41.71666085266592" lon="13.503365776117226"><ele>689.0</ele><time>2026-05-01T10:09:51.999Z</time></trkpt><trkpt lat="41.71681800333292" lon="13.503341223136077"><ele>686.75</ele><time>2026-05-01T10:09:52.999Z</time></trkpt><trkpt lat="41.71695261072927" lon="13.503321326331871"><ele>684.5</ele><time>2026-05-01T10:09:53.999Z</time></trkpt><trkpt lat="41.717066751623655" lon="13.503296360902038"><ele>682.25</ele><time>2026-05-01T10:09:54.999Z</time></trkpt><trkpt lat="41.71717621886542" lon="13.503220381298105"><ele>680.0</ele><time>2026-05-01T10:09:55.999Z</time></trkpt><trkpt lat="41.71727595104694" lon="13.503086208658331"><ele>683.6666666666666</ele><time>2026-05-01T10:09:56.999Z</time></trkpt><trkpt lat="41.717349500697175" lon="13.502892500522648"><ele>687.3333333333334</ele><time>2026-05-01T10:09:57.999Z</time></trkpt><trkpt lat="41.71741533251321" lon="13.502695416374111"><ele>691.0</ele><time>2026-05-01T10:09:58.999Z</time></trkpt><trkpt lat="41.717526834949865" lon="13.502543399094117"><ele>691.0</ele><time>2026-05-01T10:09:59.999Z</time></trkpt><trkpt lat="41.717622794693256" lon="13.502386620412675"><ele>691.0</ele><time>2026-05-01T10:10:00.999Z</time></trkpt><trkpt lat="41.71770586456597" lon="13.502289824004457"><ele>691.0</ele><time>2026-05-01T10:10:01.999Z</time></trkpt><trkpt lat="41.71777692052129" lon="13.502216739829363"><ele>691.0</ele><time>2026-05-01T10:10:02.999Z</time></trkpt><trkpt lat="41.7178668895154" lon="13.50219036589289"><ele>691.0</ele><time>2026-05-01T10:10:03.999Z</time></trkpt><trkpt lat="41.71796295945338" lon="13.502205237211744"><ele>691.5999999999999</ele><time>2026-05-01T10:10:04.999Z</time></trkpt><trkpt lat="41.7180257241385" lon="13.502267353812034"><ele>692.2</ele><time>2026-05-01T10:10:05.999Z</time></trkpt><trkpt lat="41.718048600250306" lon="13.502370366332274"><ele>692.8</ele><time>2026-05-01T10:10:06.999Z</time></trkpt><trkpt lat="41.71804331143495" lon="13.502516013324449"><ele>693.4000000000001</ele><time>2026-05-01T10:10:07.999Z</time></trkpt><trkpt lat="41.718014916419264" lon="13.502695668665988"><ele>694.0</ele><time>2026-05-01T10:10:08.999Z</time></trkpt><trkpt lat="41.71797814962854" lon="13.50290063881697"><ele>691.6666666666667</ele><time>2026-05-01T10:10:09.999Z</time></trkpt><trkpt lat="41.71795287433117" lon="13.503122522735104"><ele>689.3333333333334</ele><time>2026-05-01T10:10:10.999Z</time></trkpt><trkpt lat="41.71794979892123" lon="13.503369901782323"><ele>687.0</ele><time>2026-05-01T10:10:11.999Z</time></trkpt><trkpt lat="41.717966597615934" lon="13.503635627488539"><ele>683.3333333333334</ele><time>2026-05-01T10:10:12.999Z</time></trkpt><trkpt lat="41.7180020459551" lon="13.503917358023807"><ele>679.6666666666667</ele><time>2026-05-01T10:10:13.999Z</time></trkpt><trkpt lat="41.71803633149757" lon="13.50420784462131"><ele>676.0</ele><time>2026-05-01T10:10:14.999Z</time></trkpt><trkpt lat="41.71806110461043" lon="13.504482288044429"><ele>672.6666666666667</ele><time>2026-05-01T10:10:15.999Z</time></trkpt><trkpt lat="41.71806776874702" lon="13.504749118367318"><ele>669.3333333333334</ele><time>2026-05-01T10:10:16.999Z</time></trkpt><trkpt lat="41.71809017931458" lon="13.505008970497737"><ele>666.0</ele><time>2026-05-01T10:10:17.999Z</time></trkpt><trkpt lat="41.7181126000933" lon="13.505265288510474"><ele>664.3333333333334</ele><time>2026-05-01T10:10:18.999Z</time></trkpt><trkpt lat="41.71814644757841" lon="13.505510563550406"><ele>662.6666666666667</ele><time>2026-05-01T10:10:19.999Z</time></trkpt><trkpt lat="41.71816286553872" lon="13.505744792666299"><ele>661.0</ele><time>2026-05-01T10:10:20.999Z</time></trkpt><trkpt lat="41.718181415077915" lon="13.505958778110951"><ele>661.0</ele><time>2026-05-01T10:10:21.999Z</time></trkpt><trkpt lat="41.71821285827811" lon="13.506161320104466"><ele>661.0</ele><time>2026-05-01T10:10:22.999Z</time></trkpt><trkpt lat="41.71826689513004" lon="13.506357887987965"><ele>661.0</ele><time>2026-05-01T10:10:23.999Z</time></trkpt><trkpt lat="41.71836428399004" lon="13.506549052621532"><ele>662.0</ele><time>2026-05-01T10:10:24.999Z</time></trkpt><trkpt lat="41.71849001008976" lon="13.506741389717831"><ele>663.0</ele><time>2026-05-01T10:10:25.999Z</time></trkpt><trkpt lat="41.7186231384561" lon="13.506943868371112"><ele>664.0</ele><time>2026-05-01T10:10:26.999Z</time></trkpt><trkpt lat="41.71874737208048" lon="13.507179514964006"><ele>661.0</ele><time>2026-05-01T10:10:27.999Z</time></trkpt><trkpt lat="41.71887040550738" lon="13.50742879352919"><ele>658.0</ele><time>2026-05-01T10:10:28.999Z</time></trkpt><trkpt lat="41.718992804651904" lon="13.507674326751685"><ele>655.0</ele><time>2026-05-01T10:10:29.999Z</time></trkpt><trkpt lat="41.71911096783042" lon="13.50791224231559"><ele>654.6666666666667</ele><time>2026-05-01T10:10:30.999Z</time></trkpt><trkpt lat="41.71923359685852" lon="13.508152921919795"><ele>654.3333333333334</ele><time>2026-05-01T10:10:31.999Z</time></trkpt><trkpt lat="41.719355254339625" lon="13.508389421729195"><ele>654.0</ele><time>2026-05-01T10:10:32.999Z</time></trkpt><trkpt lat="41.719470108322724" lon="13.508610219069062"><ele>650.6666666666666</ele><time>2026-05-01T10:10:33.999Z</time></trkpt><trkpt lat="41.71958063760439" lon="13.508827384618911"><ele>647.3333333333333</ele><time>2026-05-01T10:10:34.999Z</time></trkpt><trkpt lat="41.71968749304455" lon="13.509039445947664"><ele>644.0</ele><time>2026-05-01T10:10:35.999Z</time></trkpt><trkpt lat="41.71978764719008" lon="13.509243971131713"><ele>644.0</ele><time>2026-05-01T10:10:36.999Z</time></trkpt><trkpt lat="41.719879144233545" lon="13.509434547087956"><ele>644.0</ele><time>2026-05-01T10:10:37.999Z</time></trkpt><trkpt lat="41.71996147905527" lon="13.50962026315695"><ele>644.0</ele><time>2026-05-01T10:10:38.999Z</time></trkpt><trkpt lat="41.72000790561327" lon="13.509839383437784"><ele>641.3333333333333</ele><time>2026-05-01T10:10:39.999Z</time></trkpt><trkpt lat="41.720039275625226" lon="13.510084481184451"><ele>638.6666666666666</ele><time>2026-05-01T10:10:40.999Z</time></trkpt><trkpt lat="41.72006881890436" lon="13.510339134519699"><ele>636.0</ele><time>2026-05-01T10:10:41.999Z</time></trkpt><trkpt lat="41.72010910404855" lon="13.510575872974917"><ele>634.6666666666666</ele><time>2026-05-01T10:10:42.999Z</time></trkpt><trkpt lat="41.720099405256406" lon="13.510826205964085"><ele>633.3333333333333</ele><time>2026-05-01T10:10:43.999Z</time></trkpt><trkpt lat="41.720076193237574" lon="13.51110819725376"><ele>632.0</ele><time>2026-05-01T10:10:44.999Z</time></trkpt><trkpt lat="41.72004433888851" lon="13.511416497415901"><ele>632.0</ele><time>2026-05-01T10:10:45.999Z</time></trkpt><trkpt lat="41.72002535939733" lon="13.511721523466989"><ele>632.0</ele><time>2026-05-01T10:10:46.999Z</time></trkpt><trkpt lat="41.71999094439091" lon="13.51199865117637"><ele>632.0</ele><time>2026-05-01T10:10:47.998Z</time></trkpt><trkpt lat="41.71996047312311" lon="13.512269517829498"><ele>631.3333333333333</ele><time>2026-05-01T10:10:48.998Z</time></trkpt><trkpt lat="41.719933500339685" lon="13.512547833690283"><ele>630.6666666666666</ele><time>2026-05-01T10:10:49.998Z</time></trkpt><trkpt lat="41.71992118857718" lon="13.512833088604324"><ele>630.0</ele><time>2026-05-01T10:10:50.998Z</time></trkpt><trkpt lat="41.71992489730856" lon="13.51310048440864"><ele>630.0</ele><time>2026-05-01T10:10:51.998Z</time></trkpt><trkpt lat="41.719946932803886" lon="13.513355034055838"><ele>630.0</ele><time>2026-05-01T10:10:52.998Z</time></trkpt><trkpt lat="41.71999620437647" lon="13.513577607683034"><ele>630.0</ele><time>2026-05-01T10:10:53.998Z</time></trkpt><trkpt lat="41.720060178725205" lon="13.513778287663182"><ele>629.6666666666666</ele><time>2026-05-01T10:10:54.998Z</time></trkpt><trkpt lat="41.72013200810438" lon="13.513982254457682"><ele>629.3333333333333</ele><time>2026-05-01T10:10:55.998Z</time></trkpt><trkpt lat="41.7201594125468" lon="13.514216926305505"><ele>629.0</ele><time>2026-05-01T10:10:56.998Z</time></trkpt><trkpt lat="41.72015483958599" lon="13.514473935488654"><ele>630.0</ele><time>2026-05-01T10:10:57.998Z</time></trkpt><trkpt lat="41.72011081057909" lon="13.514743781445361"><ele>631.0</ele><time>2026-05-01T10:10:58.998Z</time></trkpt><trkpt lat="41.72002964378014" lon="13.515002739843773"><ele>632.0</ele><time>2026-05-01T10:10:59.998Z</time></trkpt><trkpt lat="41.719945498731256" lon="13.51523353718319"><ele>634.3333333333333</ele><time>2026-05-01T10:11:00.998Z</time></trkpt><trkpt lat="41.719888832626296" lon="13.515448542184924"><ele>636.6666666666666</ele><time>2026-05-01T10:11:01.998Z</time></trkpt><trkpt lat="41.71984674302363" lon="13.515666272144859"><ele>639.0</ele><time>2026-05-01T10:11:02.998Z</time></trkpt><trkpt lat="41.71984552928894" lon="13.515882408958566"><ele>639.0</ele><time>2026-05-01T10:11:03.998Z</time></trkpt><trkpt lat="41.71986784475226" lon="13.516096337396787"><ele>639.0</ele><time>2026-05-01T10:11:04.998Z</time></trkpt><trkpt lat="41.71990834288511" lon="13.51628444874415"><ele>639.0</ele><time>2026-05-01T10:11:05.998Z</time></trkpt><trkpt lat="41.71992030558751" lon="13.516444504803399"><ele>639.0</ele><time>2026-05-01T10:11:06.998Z</time></trkpt><trkpt lat="41.7199244451846" lon="13.516596222153527"><ele>640.75</ele><time>2026-05-01T10:11:07.998Z</time></trkpt><trkpt lat="41.71986885474143" lon="13.516731998873093"><ele>642.5</ele><time>2026-05-01T10:11:08.998Z</time></trkpt><trkpt lat="41.71978281682115" lon="13.51684624321243"><ele>644.25</ele><time>2026-05-01T10:11:09.998Z</time></trkpt><trkpt lat="41.71965395345183" lon="13.516989672516598"><ele>646.0</ele><time>2026-05-01T10:11:10.998Z</time></trkpt><trkpt lat="41.719491022532445" lon="13.517099084529415"><ele>646.6666666666667</ele><time>2026-05-01T10:11:11.998Z</time></trkpt><trkpt lat="41.71935694724128" lon="13.517233693309603"><ele>647.3333333333334</ele><time>2026-05-01T10:11:12.998Z</time></trkpt><trkpt lat="41.719226945785906" lon="13.517409673239497"><ele>648.0</ele><time>2026-05-01T10:11:13.998Z</time></trkpt><trkpt lat="41.71909802967541" lon="13.517630187490049"><ele>648.0</ele><time>2026-05-01T10:11:14.998Z</time></trkpt><trkpt lat="41.718989357214305" lon="13.517823107635229"><ele>648.0</ele><time>2026-05-01T10:11:15.998Z</time></trkpt><trkpt lat="41.718898320271464" lon="13.518009486807063"><ele>648.0</ele><time>2026-05-01T10:11:16.998Z</time></trkpt><trkpt lat="41.718824476527054" lon="13.518215716266289"><ele>651.0</ele><time>2026-05-01T10:11:18Z</time></trkpt><trkpt lat="41.718767367759874" lon="13.51845416850741"><ele>654.0</ele><time>2026-05-01T10:11:19Z</time></trkpt><trkpt lat="41.718721094625536" lon="13.51871634636183"><ele>657.0</ele><time>2026-05-01T10:11:20Z</time></trkpt><trkpt lat="41.71868660083861" lon="13.518959973933901"><ele>657.3333333333334</ele><time>2026-05-01T10:11:21Z</time></trkpt><trkpt lat="41.71867071178321" lon="13.519181049940759"><ele>657.6666666666667</ele><time>2026-05-01T10:11:22Z</time></trkpt><trkpt lat="41.71867759937487" lon="13.519421345513793"><ele>658.0</ele><time>2026-05-01T10:11:23Z</time></trkpt><trkpt lat="41.71871351541991" lon="13.51966079810656"><ele>658.0</ele><time>2026-05-01T10:11:24Z</time></trkpt><trkpt lat="41.718736127636234" lon="13.519869927014684"><ele>658.0</ele><time>2026-05-01T10:11:25Z</time></trkpt><trkpt lat="41.71875391289108" lon="13.520061449685665"><ele>658.0</ele><time>2026-05-01T10:11:26Z</time></trkpt><trkpt lat="41.71877699975676" lon="13.520232689587186"><ele>658.0</ele><time>2026-05-01T10:11:27Z</time></trkpt><trkpt lat="41.71879948763662" lon="13.520374704438519"><ele>656.75</ele><time>2026-05-01T10:11:28Z</time></trkpt><trkpt lat="41.71885240283543" lon="13.520489684346208"><ele>655.5</ele><time>2026-05-01T10:11:29Z</time></trkpt><trkpt lat="41.7189439330051" lon="13.520591290516101"><ele>654.25</ele><time>2026-05-01T10:11:30Z</time></trkpt><trkpt lat="41.719056300248845" lon="13.520668393447375"><ele>653.0</ele><time>2026-05-01T10:11:31Z</time></trkpt><trkpt lat="41.71916335577174" lon="13.520718889065252"><ele>653.0</ele><time>2026-05-01T10:11:32Z</time></trkpt><trkpt lat="41.71924321149379" lon="13.52082556047457"><ele>653.0</ele><time>2026-05-01T10:11:33Z</time></trkpt><trkpt lat="41.719297782531164" lon="13.520994221964374"><ele>653.0</ele><time>2026-05-01T10:11:34Z</time></trkpt><trkpt lat="41.719340970724424" lon="13.521211043455816"><ele>653.0</ele><time>2026-05-01T10:11:35Z</time></trkpt><trkpt lat="41.71937659636546" lon="13.521467303739161"><ele>655.3333333333333</ele><time>2026-05-01T10:11:36Z</time></trkpt><trkpt lat="41.71940424362521" lon="13.521702183834996"><ele>657.6666666666666</ele><time>2026-05-01T10:11:37Z</time></trkpt><trkpt lat="41.71943284361621" lon="13.521910172015943"><ele>660.0</ele><time>2026-05-01T10:11:38Z</time></trkpt><trkpt lat="41.719404222548725" lon="13.522089028917556"><ele>653.0</ele><time>2026-05-01T10:11:39Z</time></trkpt><trkpt lat="41.71934885541065" lon="13.522268022968321"><ele>646.0</ele><time>2026-05-01T10:11:40Z</time></trkpt><trkpt lat="41.719321825012436" lon="13.52251256598023"><ele>639.0</ele><time>2026-05-01T10:11:41Z</time></trkpt><trkpt lat="41.719171493677294" lon="13.522718308658991"><ele>641.0</ele><time>2026-05-01T10:11:42Z</time></trkpt><trkpt lat="41.7191047273786" lon="13.522987147178394"><ele>643.0</ele><time>2026-05-01T10:11:43Z</time></trkpt><trkpt lat="41.71905122425331" lon="13.52326835528772"><ele>645.0</ele><time>2026-05-01T10:11:44Z</time></trkpt><trkpt lat="41.718990500692776" lon="13.52352315375446"><ele>645.3333333333334</ele><time>2026-05-01T10:11:45Z</time></trkpt><trkpt lat="41.718924152197594" lon="13.52375969944819"><ele>645.6666666666667</ele><time>2026-05-01T10:11:46Z</time></trkpt><trkpt lat="41.718843935841655" lon="13.52397537365829"><ele>646.0</ele><time>2026-05-01T10:11:46.999Z</time></trkpt><trkpt lat="41.718765194111526" lon="13.524195236995887"><ele>646.0</ele><time>2026-05-01T10:11:47.999Z</time></trkpt><trkpt lat="41.71871137294999" lon="13.524444302975652"><ele>646.0</ele><time>2026-05-01T10:11:48.999Z</time></trkpt><trkpt lat="41.71868341303138" lon="13.524735972603814"><ele>646.0</ele><time>2026-05-01T10:11:49.999Z</time></trkpt><trkpt lat="41.718662841290985" lon="13.525011766966523"><ele>646.6666666666667</ele><time>2026-05-01T10:11:50.999Z</time></trkpt><trkpt lat="41.71863878110547" lon="13.525264026979173"><ele>647.3333333333334</ele><time>2026-05-01T10:11:51.999Z</time></trkpt><trkpt lat="41.71861858601939" lon="13.525488007535314"><ele>648.0</ele><time>2026-05-01T10:11:52.999Z</time></trkpt><trkpt lat="41.71859346967281" lon="13.525696350842653"><ele>641.3333333333334</ele><time>2026-05-01T10:11:53.999Z</time></trkpt><trkpt lat="41.71850473339664" lon="13.525888860438736"><ele>634.6666666666667</ele><time>2026-05-01T10:11:54.999Z</time></trkpt><trkpt lat="41.718380976707834" lon="13.526087763523748"><ele>628.0</ele><time>2026-05-01T10:11:55.999Z</time></trkpt><trkpt lat="41.718242918449086" lon="13.526308189107743"><ele>628.0</ele><time>2026-05-01T10:11:56.999Z</time></trkpt><trkpt lat="41.71811431192377" lon="13.526541710327383"><ele>628.0</ele><time>2026-05-01T10:11:57.999Z</time></trkpt><trkpt lat="41.71795861189358" lon="13.526717002900167"><ele>628.0</ele><time>2026-05-01T10:11:58.999Z</time></trkpt><trkpt lat="41.717812883774705" lon="13.52687855268183"><ele>623.3333333333334</ele><time>2026-05-01T10:11:59.999Z</time></trkpt><trkpt lat="41.717686122986606" lon="13.527046367951593"><ele>618.6666666666666</ele><time>2026-05-01T10:12:00.999Z</time></trkpt><trkpt lat="41.717554631974615" lon="13.527175394575547"><ele>614.0</ele><time>2026-05-01T10:12:01.999Z</time></trkpt><trkpt lat="41.717446350659905" lon="13.527295239540251"><ele>614.0</ele><time>2026-05-01T10:12:02.999Z</time></trkpt><trkpt lat="41.71736725482504" lon="13.527405531004325"><ele>614.0</ele><time>2026-05-01T10:12:03.999Z</time></trkpt><trkpt lat="41.71730941438817" lon="13.527537208125793"><ele>614.0</ele><time>2026-05-01T10:12:04.999Z</time></trkpt><trkpt lat="41.717287965920576" lon="13.527695791564387"><ele>614.0</ele><time>2026-05-01T10:12:05.999Z</time></trkpt><trkpt lat="41.71730142791636" lon="13.52787685160692"><ele>613.3333333333333</ele><time>2026-05-01T10:12:06.999Z</time></trkpt><trkpt lat="41.71735451897533" lon="13.528059660013064"><ele>612.6666666666666</ele><time>2026-05-01T10:12:07.999Z</time></trkpt><trkpt lat="41.7174247164405" lon="13.528251266962048"><ele>612.0</ele><time>2026-05-01T10:12:08.999Z</time></trkpt><trkpt lat="41.71747607914136" lon="13.528444956433725"><ele>612.0</ele><time>2026-05-01T10:12:09.999Z</time></trkpt><trkpt lat="41.71754869035406" lon="13.528611456962912"><ele>612.0</ele><time>2026-05-01T10:12:10.999Z</time></trkpt><trkpt lat="41.71760585618783" lon="13.528794127382676"><ele>612.0</ele><time>2026-05-01T10:12:11.999Z</time></trkpt><trkpt lat="41.71766413806303" lon="13.528983984330491"><ele>612.0</ele><time>2026-05-01T10:12:12.999Z</time></trkpt><trkpt lat="41.71771021536575" lon="13.529195507610526"><ele>609.0</ele><time>2026-05-01T10:12:13.999Z</time></trkpt><trkpt lat="41.71770510077864" lon="13.529451710744787"><ele>606.0</ele><time>2026-05-01T10:12:14.999Z</time></trkpt><trkpt lat="41.717736501314654" lon="13.529732044349819"><ele>603.0</ele><time>2026-05-01T10:12:15.999Z</time></trkpt><trkpt lat="41.717761035148314" lon="13.530028625213236"><ele>609.0</ele><time>2026-05-01T10:12:16.999Z</time></trkpt><trkpt lat="41.71779822608684" lon="13.53030887635419"><ele>615.0</ele><time>2026-05-01T10:12:17.999Z</time></trkpt><trkpt lat="41.71782362706937" lon="13.530575269674296"><ele>621.0</ele><time>2026-05-01T10:12:18.999Z</time></trkpt><trkpt lat="41.71783739844015" lon="13.530829334692822"><ele>621.0</ele><time>2026-05-01T10:12:19.999Z</time></trkpt><trkpt lat="41.71782552144795" lon="13.531085996368715"><ele>621.0</ele><time>2026-05-01T10:12:20.999Z</time></trkpt><trkpt lat="41.71781652177972" lon="13.531332876964074"><ele>621.0</ele><time>2026-05-01T10:12:21.999Z</time></trkpt><trkpt lat="41.71778800714175" lon="13.531548106861788"><ele>621.25</ele><time>2026-05-01T10:12:22.999Z</time></trkpt><trkpt lat="41.71774513987818" lon="13.531725356753991"><ele>621.5</ele><time>2026-05-01T10:12:23.999Z</time></trkpt><trkpt lat="41.717665386181004" lon="13.531857915016444"><ele>621.75</ele><time>2026-05-01T10:12:24.999Z</time></trkpt><trkpt lat="41.71755131842931" lon="13.531965687936607"><ele>622.0</ele><time>2026-05-01T10:12:25.999Z</time></trkpt><trkpt lat="41.71742506976557" lon="13.532065803197288"><ele>611.3333333333334</ele><time>2026-05-01T10:12:26.999Z</time></trkpt><trkpt lat="41.71732969739161" lon="13.532186571971572"><ele>600.6666666666666</ele><time>2026-05-01T10:12:27.999Z</time></trkpt><trkpt lat="41.717279358402074" lon="13.532387453265464"><ele>590.0</ele><time>2026-05-01T10:12:28.999Z</time></trkpt><trkpt lat="41.71723605195059" lon="13.532619523297058"><ele>590.0</ele><time>2026-05-01T10:12:29.999Z</time></trkpt><trkpt lat="41.71720217976924" lon="13.532850243278236"><ele>590.0</ele><time>2026-05-01T10:12:30.999Z</time></trkpt><trkpt lat="41.71717887010718" lon="13.533057502597735"><ele>590.0</ele><time>2026-05-01T10:12:31.999Z</time></trkpt><trkpt lat="41.717166017952785" lon="13.533233574190339"><ele>588.5</ele><time>2026-05-01T10:12:32.999Z</time></trkpt><trkpt lat="41.71717176107698" lon="13.533396980920134"><ele>587.0</ele><time>2026-05-01T10:12:33.999Z</time></trkpt><trkpt lat="41.717220429263925" lon="13.533545190134529"><ele>585.5</ele><time>2026-05-01T10:12:34.999Z</time></trkpt><trkpt lat="41.71732820910033" lon="13.533675565263934"><ele>584.0</ele><time>2026-05-01T10:12:35.999Z</time></trkpt><trkpt lat="41.7174692137974" lon="13.53376484833818"><ele>589.0</ele><time>2026-05-01T10:12:36.999Z</time></trkpt><trkpt lat="41.71757641917567" lon="13.53387271196646"><ele>594.0</ele><time>2026-05-01T10:12:37.999Z</time></trkpt><trkpt lat="41.71765332406357" lon="13.534000126252986"><ele>599.0</ele><time>2026-05-01T10:12:38.999Z</time></trkpt><trkpt lat="41.717713043125556" lon="13.534184011733831"><ele>604.0</ele><time>2026-05-01T10:12:39.999Z</time></trkpt><trkpt lat="41.717756562633944" lon="13.534424349099856"><ele>601.0</ele><time>2026-05-01T10:12:40.999Z</time></trkpt><trkpt lat="41.717794670992376" lon="13.534690212009377"><ele>598.0</ele><time>2026-05-01T10:12:41.999Z</time></trkpt><trkpt lat="41.717843984207626" lon="13.534929344479945"><ele>595.0</ele><time>2026-05-01T10:12:42.999Z</time></trkpt><trkpt lat="41.71786947450193" lon="13.535157256448151"><ele>590.6666666666667</ele><time>2026-05-01T10:12:43.999Z</time></trkpt><trkpt lat="41.717871197099605" lon="13.535398307345595"><ele>586.3333333333334</ele><time>2026-05-01T10:12:44.999Z</time></trkpt><trkpt lat="41.71783583104188" lon="13.53565915728745"><ele>582.0</ele><time>2026-05-01T10:12:45.999Z</time></trkpt><trkpt lat="41.71778212587344" lon="13.535907431489353"><ele>573.0</ele><time>2026-05-01T10:12:46.999Z</time></trkpt><trkpt lat="41.71773414298527" lon="13.536125855717083"><ele>564.0</ele><time>2026-05-01T10:12:47.999Z</time></trkpt><trkpt lat="41.71770315283316" lon="13.536325393931511"><ele>555.0</ele><time>2026-05-01T10:12:48.999Z</time></trkpt><trkpt lat="41.71768741720604" lon="13.536521776189256"><ele>555.0</ele><time>2026-05-01T10:12:49.999Z</time></trkpt><trkpt lat="41.71767857831929" lon="13.5367265908428"><ele>555.0</ele><time>2026-05-01T10:12:50.998Z</time></trkpt><trkpt lat="41.71766579762085" lon="13.536938876674842"><ele>555.0</ele><time>2026-05-01T10:12:51.998Z</time></trkpt><trkpt lat="41.71766126734348" lon="13.537157908053583"><ele>553.0</ele><time>2026-05-01T10:12:52.998Z</time></trkpt><trkpt lat="41.717636751573195" lon="13.537383976639275"><ele>551.0</ele><time>2026-05-01T10:12:53.998Z</time></trkpt><trkpt lat="41.71767197126467" lon="13.537605637707003"><ele>549.0</ele><time>2026-05-01T10:12:54.998Z</time></trkpt><trkpt lat="41.71769029882938" lon="13.537810451152303"><ele>548.5</ele><time>2026-05-01T10:12:55.998Z</time></trkpt><trkpt lat="41.717704575166664" lon="13.537995741807892"><ele>548.0</ele><time>2026-05-01T10:12:56.998Z</time></trkpt><trkpt lat="41.71770678021605" lon="13.538178498675986"><ele>547.5</ele><time>2026-05-01T10:12:57.998Z</time></trkpt><trkpt lat="41.717660642246976" lon="13.538369065461561"><ele>547.0</ele><time>2026-05-01T10:12:58.998Z</time></trkpt><trkpt lat="41.717630601751644" lon="13.538560731997938"><ele>547.3333333333334</ele><time>2026-05-01T10:12:59.998Z</time></trkpt><trkpt lat="41.717586500581746" lon="13.538746401282165"><ele>547.6666666666666</ele><time>2026-05-01T10:13:00.998Z</time></trkpt><trkpt lat="41.71753287371011" lon="13.538954154366325"><ele>548.0</ele><time>2026-05-01T10:13:01.998Z</time></trkpt><trkpt lat="41.71744745643245" lon="13.539134095957506"><ele>548.0</ele><time>2026-05-01T10:13:02.998Z</time></trkpt><trkpt lat="41.717367776028354" lon="13.539321711568407"><ele>548.0</ele><time>2026-05-01T10:13:03.998Z</time></trkpt><trkpt lat="41.71729469564313" lon="13.539525809551069"><ele>548.0</ele><time>2026-05-01T10:13:04.998Z</time></trkpt><trkpt lat="41.71723971245467" lon="13.539762900114141"><ele>547.0</ele><time>2026-05-01T10:13:05.998Z</time></trkpt><trkpt lat="41.71718823619716" lon="13.539991165091267"><ele>546.0</ele><time>2026-05-01T10:13:06.998Z</time></trkpt><trkpt lat="41.717201175910844" lon="13.540226169586852"><ele>545.0</ele><time>2026-05-01T10:13:07.998Z</time></trkpt><trkpt lat="41.71721333470281" lon="13.540447297501823"><ele>544.5</ele><time>2026-05-01T10:13:08.998Z</time></trkpt><trkpt lat="41.717242489288914" lon="13.540619231777507"><ele>544.0</ele><time>2026-05-01T10:13:09.998Z</time></trkpt><trkpt lat="41.717253354884036" lon="13.540775731151504"><ele>543.5</ele><time>2026-05-01T10:13:10.998Z</time></trkpt><trkpt lat="41.717186982853526" lon="13.540933148660649"><ele>543.0</ele><time>2026-05-01T10:13:11.998Z</time></trkpt><trkpt lat="41.71707503328516" lon="13.54105869580424"><ele>543.0</ele><time>2026-05-01T10:13:12.998Z</time></trkpt><trkpt lat="41.71697302375357" lon="13.54115688419405"><ele>543.0</ele><time>2026-05-01T10:13:13.998Z</time></trkpt><trkpt lat="41.716890067834676" lon="13.541304913189872"><ele>543.0</ele><time>2026-05-01T10:13:14.998Z</time></trkpt><trkpt lat="41.71682595015441" lon="13.541464432847365"><ele>543.0</ele><time>2026-05-01T10:13:15.998Z</time></trkpt><trkpt lat="41.71680335956468" lon="13.541619672479369"><ele>540.0</ele><time>2026-05-01T10:13:16.998Z</time></trkpt><trkpt lat="41.71677816889315" lon="13.541728797191501"><ele>537.0</ele><time>2026-05-01T10:13:17.998Z</time></trkpt><trkpt lat="41.71668211275706" lon="13.541774761596713"><ele>534.0</ele><time>2026-05-01T10:13:18.998Z</time></trkpt><trkpt lat="41.716561018985786" lon="13.541768884117404"><ele>531.0</ele><time>2026-05-01T10:13:19.998Z</time></trkpt><trkpt lat="41.71646149938899" lon="13.541711591489236"><ele>528.0</ele><time>2026-05-01T10:13:20.998Z</time></trkpt><trkpt lat="41.71642071850965" lon="13.541617488090838"><ele>528.0</ele><time>2026-05-01T10:13:21.998Z</time></trkpt><trkpt lat="41.716419499834736" lon="13.541529578870815"><ele>528.0</ele><time>2026-05-01T10:13:23Z</time></trkpt><trkpt lat="41.71649067654893" lon="13.541365079171637"><ele>528.0</ele><time>2026-05-01T10:13:25Z</time></trkpt><trkpt lat="41.716560961767826" lon="13.541264892277718"><ele>528.0</ele><time>2026-05-01T10:13:26Z</time></trkpt><trkpt lat="41.71665330044995" lon="13.541159239707879"><ele>528.0</ele><time>2026-05-01T10:13:27Z</time></trkpt><trkpt lat="41.716738837566496" lon="13.541064204101389"><ele>527.1666666666666</ele><time>2026-05-01T10:13:28Z</time></trkpt><trkpt lat="41.7168042496441" lon="13.540986051174253"><ele>526.3333333333334</ele><time>2026-05-01T10:13:29Z</time></trkpt><trkpt lat="41.71684057880582" lon="13.54089119135597"><ele>525.5</ele><time>2026-05-01T10:13:30Z</time></trkpt><trkpt lat="41.71687050319292" lon="13.540814937132755"><ele>524.6666666666667</ele><time>2026-05-01T10:13:31Z</time></trkpt><trkpt lat="41.71688371484005" lon="13.540666201590822"><ele>523.8333333333334</ele><time>2026-05-01T10:13:33Z</time></trkpt><trkpt lat="41.716862062071485" lon="13.540564412365281"><ele>523.0</ele><time>2026-05-01T10:13:35Z</time></trkpt><trkpt lat="41.71674451686416" lon="13.540489771163143"><ele>523.0</ele><time>2026-05-01T10:13:48Z</time></trkpt><trkpt lat="41.716661446179536" lon="13.540475647841806"><ele>523.0</ele><time>2026-05-01T10:13:48.999Z</time></trkpt><trkpt lat="41.71658184458602" lon="13.540490243945037"><ele>523.0</ele><time>2026-05-01T10:13:49.999Z</time></trkpt><trkpt lat="41.716501844804434" lon="13.540595323253955"><ele>523.0</ele><time>2026-05-01T10:13:50.999Z</time></trkpt><trkpt lat="41.71644947699385" lon="13.540756885005548"><ele>523.0</ele><time>2026-05-01T10:13:51.999Z</time></trkpt><trkpt lat="41.716401626690505" lon="13.540909240215116"><ele>523.0</ele><time>2026-05-01T10:13:52.999Z</time></trkpt><trkpt lat="41.71630307702036" lon="13.541024513834733"><ele>523.0</ele><time>2026-05-01T10:13:53.999Z</time></trkpt><trkpt lat="41.71616316613693" lon="13.5411431335824"><ele>523.0</ele><time>2026-05-01T10:13:54.999Z</time></trkpt><trkpt lat="41.71601987261476" lon="13.541259876086407"><ele>519.3333333333334</ele><time>2026-05-01T10:13:55.999Z</time></trkpt><trkpt lat="41.71587868828958" lon="13.541351945266955"><ele>515.6666666666666</ele><time>2026-05-01T10:13:56.999Z</time></trkpt><trkpt lat="41.71570793493504" lon="13.541421560990504"><ele>512.0</ele><time>2026-05-01T10:13:57.999Z</time></trkpt><trkpt lat="41.71554124868241" lon="13.541469944087597"><ele>512.0</ele><time>2026-05-01T10:13:58.999Z</time></trkpt><trkpt lat="41.715417309006085" lon="13.541522261742662"><ele>512.0</ele><time>2026-05-01T10:13:59.999Z</time></trkpt><trkpt lat="41.71530285630715" lon="13.54151669209169"><ele>512.0</ele><time>2026-05-01T10:14:00.999Z</time></trkpt><trkpt lat="41.71517253100761" lon="13.541453046918527"><ele>512.0</ele><time>2026-05-01T10:14:01.999Z</time></trkpt><trkpt lat="41.7150668149321" lon="13.541348322619857"><ele>512.0</ele><time>2026-05-01T10:14:02.999Z</time></trkpt><trkpt lat="41.71496595337809" lon="13.541280744064037"><ele>512.0</ele><time>2026-05-01T10:14:03.999Z</time></trkpt><trkpt lat="41.71484509194111" lon="13.541283951756053"><ele>512.0</ele><time>2026-05-01T10:14:04.999Z</time></trkpt><trkpt lat="41.7146959919843" lon="13.541354431039208"><ele>512.0</ele><time>2026-05-01T10:14:05.999Z</time></trkpt><trkpt lat="41.714522638927576" lon="13.54141154227008"><ele>510.0</ele><time>2026-05-01T10:14:06.999Z</time></trkpt><trkpt lat="41.71435369207562" lon="13.54147158756139"><ele>508.0</ele><time>2026-05-01T10:14:07.999Z</time></trkpt><trkpt lat="41.714203042320136" lon="13.541545848969802"><ele>506.0</ele><time>2026-05-01T10:14:08.999Z</time></trkpt><trkpt lat="41.7140774402562" lon="13.541605841538395"><ele>506.0</ele><time>2026-05-01T10:14:09.999Z</time></trkpt><trkpt lat="41.71394759566071" lon="13.541708704848245"><ele>506.0</ele><time>2026-05-01T10:14:10.999Z</time></trkpt><trkpt lat="41.713816856006" lon="13.54186916476625"><ele>506.0</ele><time>2026-05-01T10:14:11.999Z</time></trkpt><trkpt lat="41.713682834565255" lon="13.542012379598187"><ele>504.0</ele><time>2026-05-01T10:14:12.999Z</time></trkpt><trkpt lat="41.71356962697353" lon="13.542068371724797"><ele>502.0</ele><time>2026-05-01T10:14:13.999Z</time></trkpt><trkpt lat="41.71345408355994" lon="13.542146537359308"><ele>500.0</ele><time>2026-05-01T10:14:14.999Z</time></trkpt><trkpt lat="41.71336897924679" lon="13.542227629584096"><ele>498.0</ele><time>2026-05-01T10:14:15.999Z</time></trkpt><trkpt lat="41.7133036504572" lon="13.54231898642695"><ele>496.0</ele><time>2026-05-01T10:14:16.999Z</time></trkpt><trkpt lat="41.71327827837093" lon="13.542454002619568"><ele>496.0</ele><time>2026-05-01T10:14:17.999Z</time></trkpt><trkpt lat="41.71331119953601" lon="13.542592036370488"><ele>496.0</ele><time>2026-05-01T10:14:18.999Z</time></trkpt><trkpt lat="41.71339917406642" lon="13.542704809454737"><ele>496.0</ele><time>2026-05-01T10:14:19.999Z</time></trkpt><trkpt lat="41.71352688980887" lon="13.542767674608577"><ele>496.0</ele><time>2026-05-01T10:14:20.999Z</time></trkpt><trkpt lat="41.71367773998775" lon="13.542772205741509"><ele>496.6666666666667</ele><time>2026-05-01T10:14:21.999Z</time></trkpt><trkpt lat="41.71384690741077" lon="13.54275142833979"><ele>497.33333333333337</ele><time>2026-05-01T10:14:22.999Z</time></trkpt><trkpt lat="41.71402401428002" lon="13.542743287925063"><ele>498.0</ele><time>2026-05-01T10:14:23.999Z</time></trkpt><trkpt lat="41.71421238788061" lon="13.542757005648657"><ele>498.0</ele><time>2026-05-01T10:14:24.999Z</time></trkpt><trkpt lat="41.71439211819331" lon="13.542785901393188"><ele>498.0</ele><time>2026-05-01T10:14:25.999Z</time></trkpt><trkpt lat="41.714547543326276" lon="13.54281743125653"><ele>498.0</ele><time>2026-05-01T10:14:26.999Z</time></trkpt><trkpt lat="41.71467780185746" lon="13.5428548232276"><ele>497.59999999999997</ele><time>2026-05-01T10:14:27.999Z</time></trkpt><trkpt lat="41.71478771121182" lon="13.542900767122799"><ele>497.19999999999993</ele><time>2026-05-01T10:14:28.999Z</time></trkpt><trkpt lat="41.71487816432717" lon="13.54297577034091"><ele>496.8</ele><time>2026-05-01T10:14:29.999Z</time></trkpt><trkpt lat="41.714930380432904" lon="13.543062966148716"><ele>496.4</ele><time>2026-05-01T10:14:30.999Z</time></trkpt><trkpt lat="41.714947901871746" lon="13.543169247770223"><ele>496.0</ele><time>2026-05-01T10:14:31.999Z</time></trkpt><trkpt lat="41.7149743390647" lon="13.543315183576754"><ele>496.0</ele><time>2026-05-01T10:14:32.999Z</time></trkpt><trkpt lat="41.71487170439277" lon="13.54349176332653"><ele>496.0</ele><time>2026-05-01T10:14:33.999Z</time></trkpt><trkpt lat="41.71480908917651" lon="13.54368516511169"><ele>496.0</ele><time>2026-05-01T10:14:34.999Z</time></trkpt><trkpt lat="41.71474373670318" lon="13.543869568139849"><ele>496.75</ele><time>2026-05-01T10:14:35.999Z</time></trkpt><trkpt lat="41.71467672814124" lon="13.544029184038381"><ele>497.5</ele><time>2026-05-01T10:14:36.999Z</time></trkpt><trkpt lat="41.71457545737756" lon="13.544167373786268"><ele>498.25</ele><time>2026-05-01T10:14:37.999Z</time></trkpt><trkpt lat="41.7144567948462" lon="13.544327057360636"><ele>499.0</ele><time>2026-05-01T10:14:38.999Z</time></trkpt><trkpt lat="41.714329438732335" lon="13.544503472421827"><ele>496.0</ele><time>2026-05-01T10:14:39.999Z</time></trkpt><trkpt lat="41.71421731586957" lon="13.544693760983224"><ele>493.0</ele><time>2026-05-01T10:14:40.999Z</time></trkpt><trkpt lat="41.71409372262356" lon="13.544854119838467"><ele>490.0</ele><time>2026-05-01T10:14:41.999Z</time></trkpt><trkpt lat="41.713939791448624" lon="13.544976095512553"><ele>490.0</ele><time>2026-05-01T10:14:42.999Z</time></trkpt><trkpt lat="41.71380564185005" lon="13.545117686748428"><ele>490.0</ele><time>2026-05-01T10:14:43.999Z</time></trkpt><trkpt lat="41.71366939573991" lon="13.545236180983336"><ele>490.0</ele><time>2026-05-01T10:14:44.999Z</time></trkpt><trkpt lat="41.71354856406541" lon="13.545348886297692"><ele>485.5</ele><time>2026-05-01T10:14:45.999Z</time></trkpt><trkpt lat="41.7134418182617" lon="13.545457795028177"><ele>481.0</ele><time>2026-05-01T10:14:46.999Z</time></trkpt><trkpt lat="41.71335839843876" lon="13.545581644714932"><ele>476.5</ele><time>2026-05-01T10:14:47.999Z</time></trkpt><trkpt lat="41.71331829643859" lon="13.54575718425121"><ele>472.0</ele><time>2026-05-01T10:14:48.999Z</time></trkpt><trkpt lat="41.71330648291312" lon="13.54597966718995"><ele>472.6666666666667</ele><time>2026-05-01T10:14:49.999Z</time></trkpt><trkpt lat="41.71329033757776" lon="13.546220742077008"><ele>473.33333333333337</ele><time>2026-05-01T10:14:50.998Z</time></trkpt><trkpt lat="41.71324605432632" lon="13.546459656687041"><ele>474.0</ele><time>2026-05-01T10:14:51.998Z</time></trkpt><trkpt lat="41.71315147253775" lon="13.546701636192731"><ele>474.0</ele><time>2026-05-01T10:14:52.998Z</time></trkpt><trkpt lat="41.71307281816562" lon="13.546974509529552"><ele>474.0</ele><time>2026-05-01T10:14:53.998Z</time></trkpt><trkpt lat="41.71298621571698" lon="13.547217462906332"><ele>474.0</ele><time>2026-05-01T10:14:54.998Z</time></trkpt><trkpt lat="41.71290614212877" lon="13.54744430009027"><ele>475.66666666666663</ele><time>2026-05-01T10:14:55.998Z</time></trkpt><trkpt lat="41.71283071737405" lon="13.547664107587346"><ele>477.3333333333333</ele><time>2026-05-01T10:14:56.998Z</time></trkpt><trkpt lat="41.71275495363374" lon="13.547865896354176"><ele>479.0</ele><time>2026-05-01T10:14:57.998Z</time></trkpt><trkpt lat="41.71268977054043" lon="13.548035931085002"><ele>474.25</ele><time>2026-05-01T10:14:58.998Z</time></trkpt><trkpt lat="41.71264007612887" lon="13.548173199102282"><ele>469.5</ele><time>2026-05-01T10:14:59.998Z</time></trkpt><trkpt lat="41.71258443476353" lon="13.548283389313884"><ele>464.75</ele><time>2026-05-01T10:15:00.998Z</time></trkpt><trkpt lat="41.71246514378171" lon="13.548344876171335"><ele>460.0</ele><time>2026-05-01T10:15:01.998Z</time></trkpt><trkpt lat="41.71233028099427" lon="13.54839503874338"><ele>460.0</ele><time>2026-05-01T10:15:02.998Z</time></trkpt><trkpt lat="41.712203539058976" lon="13.548461870007097"><ele>460.0</ele><time>2026-05-01T10:15:03.998Z</time></trkpt><trkpt lat="41.71208744317713" lon="13.54849108740975"><ele>460.0</ele><time>2026-05-01T10:15:04.998Z</time></trkpt><trkpt lat="41.711989600914784" lon="13.548539696219489"><ele>460.0</ele><time>2026-05-01T10:15:05.998Z</time></trkpt><trkpt lat="41.711913939393746" lon="13.548641032554364"><ele>459.25</ele><time>2026-05-01T10:15:06.998Z</time></trkpt><trkpt lat="41.71188605842581" lon="13.548811176627293"><ele>458.5</ele><time>2026-05-01T10:15:07.998Z</time></trkpt><trkpt lat="41.711911530635426" lon="13.548996783281106"><ele>457.75</ele><time>2026-05-01T10:15:08.998Z</time></trkpt><trkpt lat="41.71198281628995" lon="13.549164823243158"><ele>457.0</ele><time>2026-05-01T10:15:09.998Z</time></trkpt><trkpt lat="41.712039058708584" lon="13.549300476538745"><ele>457.0</ele><time>2026-05-01T10:15:10.998Z</time></trkpt><trkpt lat="41.71207640595662" lon="13.549420298312246"><ele>457.00000000000006</ele><time>2026-05-01T10:15:11.998Z</time></trkpt><trkpt lat="41.71205630851344" lon="13.549524822791112"><ele>457.00000000000006</ele><time>2026-05-01T10:15:12.998Z</time></trkpt><trkpt lat="41.71201437428786" lon="13.549632349855047"><ele>457.0</ele><time>2026-05-01T10:15:13.998Z</time></trkpt><trkpt lat="41.71191505338263" lon="13.549678052115963"><ele>457.0</ele><time>2026-05-01T10:15:14.998Z</time></trkpt><trkpt lat="41.71179905907632" lon="13.549657656105525"><ele>455.25</ele><time>2026-05-01T10:15:15.998Z</time></trkpt><trkpt lat="41.71168381005041" lon="13.549575896642635"><ele>453.5</ele><time>2026-05-01T10:15:16.998Z</time></trkpt><trkpt lat="41.711551369502125" lon="13.54951509855244"><ele>451.75</ele><time>2026-05-01T10:15:17.998Z</time></trkpt><trkpt lat="41.71144069490847" lon="13.549440643958055"><ele>450.0</ele><time>2026-05-01T10:15:18.998Z</time></trkpt><trkpt lat="41.71133359044321" lon="13.549372627420274"><ele>450.0</ele><time>2026-05-01T10:15:19.998Z</time></trkpt><trkpt lat="41.71123660292406" lon="13.549301953913679"><ele>450.0</ele><time>2026-05-01T10:15:20.998Z</time></trkpt><trkpt lat="41.711158891426486" lon="13.549208885209213"><ele>450.0</ele><time>2026-05-01T10:15:21.998Z</time></trkpt><trkpt lat="41.71111319030101" lon="13.549088999756975"><ele>450.0</ele><time>2026-05-01T10:15:22.998Z</time></trkpt><trkpt lat="41.71111224821503" lon="13.548952047421981"><ele>450.0</ele><time>2026-05-01T10:15:23.998Z</time></trkpt><trkpt lat="41.7110859770191" lon="13.548830763607201"><ele>450.00000000000006</ele><time>2026-05-01T10:15:24.998Z</time></trkpt><trkpt lat="41.71107552285257" lon="13.548725455475655"><ele>450.0</ele><time>2026-05-01T10:15:25.998Z</time></trkpt><trkpt lat="41.71104540234276" lon="13.548639176818257"><ele>450.00000000000006</ele><time>2026-05-01T10:15:26.998Z</time></trkpt><trkpt lat="41.71098965573447" lon="13.548573184091003"><ele>450.00000000000006</ele><time>2026-05-01T10:15:28Z</time></trkpt><trkpt lat="41.71092472302096" lon="13.54852755222089"><ele>450.0</ele><time>2026-05-01T10:15:29Z</time></trkpt><trkpt lat="41.71086000558184" lon="13.548509354680293"><ele>450.00000000000006</ele><time>2026-05-01T10:15:30Z</time></trkpt><trkpt lat="41.71079777829455" lon="13.548524992505042"><ele>450.00000000000006</ele><time>2026-05-01T10:15:31Z</time></trkpt><trkpt lat="41.71073646871905" lon="13.548567484262039"><ele>448.0</ele><time>2026-05-01T10:15:32Z</time></trkpt><trkpt lat="41.710683158108765" lon="13.54863852335047"><ele>446.0</ele><time>2026-05-01T10:15:33Z</time></trkpt><trkpt lat="41.710651045797476" lon="13.548723295951769"><ele>444.0</ele><time>2026-05-01T10:15:34Z</time></trkpt><trkpt lat="41.71063677656231" lon="13.548822752754278"><ele>442.0</ele><time>2026-05-01T10:15:35Z</time></trkpt><trkpt lat="41.71064226271966" lon="13.548936021636246"><ele>440.0</ele><time>2026-05-01T10:15:36Z</time></trkpt><trkpt lat="41.71067798536678" lon="13.5490598568503"><ele>438.0</ele><time>2026-05-01T10:15:37Z</time></trkpt><trkpt lat="41.71069945414818" lon="13.549215163963488"><ele>438.0</ele><time>2026-05-01T10:15:38Z</time></trkpt><trkpt lat="41.710730534437644" lon="13.54938757275022"><ele>438.0</ele><time>2026-05-01T10:15:39Z</time></trkpt><trkpt lat="41.71075782342345" lon="13.549565288038519"><ele>438.0</ele><time>2026-05-01T10:15:40Z</time></trkpt><trkpt lat="41.710793356553005" lon="13.549743931982391"><ele>438.0</ele><time>2026-05-01T10:15:41Z</time></trkpt><trkpt lat="41.710830597910196" lon="13.549909003479751"><ele>436.25</ele><time>2026-05-01T10:15:42Z</time></trkpt><trkpt lat="41.71089510839069" lon="13.550051510906089"><ele>434.5</ele><time>2026-05-01T10:15:43Z</time></trkpt><trkpt lat="41.71098570297346" lon="13.550162054088183"><ele>432.75</ele><time>2026-05-01T10:15:44Z</time></trkpt><trkpt lat="41.7110647752631" lon="13.550260849078443"><ele>431.0</ele><time>2026-05-01T10:15:45Z</time></trkpt><trkpt lat="41.711107682423695" lon="13.550384465848602"><ele>430.8</ele><time>2026-05-01T10:15:46Z</time></trkpt><trkpt lat="41.711107537665875" lon="13.550544860839246"><ele>430.6</ele><time>2026-05-01T10:15:47Z</time></trkpt><trkpt lat="41.71108721508934" lon="13.55070209408332"><ele>430.4</ele><time>2026-05-01T10:15:47.999Z</time></trkpt><trkpt lat="41.71110319861833" lon="13.550834331785435"><ele>430.2</ele><time>2026-05-01T10:15:48.999Z</time></trkpt><trkpt lat="41.71118189806853" lon="13.550926610462724"><ele>430.0</ele><time>2026-05-01T10:15:49.999Z</time></trkpt><trkpt lat="41.71129916638161" lon="13.550974505613375"><ele>430.0</ele><time>2026-05-01T10:15:50.999Z</time></trkpt><trkpt lat="41.711437934205954" lon="13.551006816228771"><ele>430.0</ele><time>2026-05-01T10:15:51.999Z</time></trkpt><trkpt lat="41.71155759610589" lon="13.551061401955304"><ele>430.0</ele><time>2026-05-01T10:15:52.999Z</time></trkpt><trkpt lat="41.71165938766798" lon="13.55111614242173"><ele>430.0</ele><time>2026-05-01T10:15:53.999Z</time></trkpt><trkpt lat="41.7117506451905" lon="13.551160892152728"><ele>430.0</ele><time>2026-05-01T10:15:54.999Z</time></trkpt><trkpt lat="41.71184457608017" lon="13.551192063305482"><ele>430.0</ele><time>2026-05-01T10:15:55.999Z</time></trkpt><trkpt lat="41.71193865335014" lon="13.551233656832697"><ele>430.0</ele><time>2026-05-01T10:15:56.999Z</time></trkpt><trkpt lat="41.71200919825618" lon="13.551341610650669"><ele>430.0</ele><time>2026-05-01T10:15:57.999Z</time></trkpt><trkpt lat="41.712044434752094" lon="13.551483575979624"><ele>430.0</ele><time>2026-05-01T10:15:58.999Z</time></trkpt><trkpt lat="41.71202069293468" lon="13.551631519623395"><ele>430.5</ele><time>2026-05-01T10:15:59.999Z</time></trkpt><trkpt lat="41.711961679365075" lon="13.551769886614421"><ele>431.0</ele><time>2026-05-01T10:16:00.999Z</time></trkpt><trkpt lat="41.71186554041162" lon="13.551870689918164"><ele>431.5</ele><time>2026-05-01T10:16:01.999Z</time></trkpt><trkpt lat="41.71176241109402" lon="13.551973283193794"><ele>432.0</ele><time>2026-05-01T10:16:02.999Z</time></trkpt><trkpt lat="41.71165847762082" lon="13.552089777438256"><ele>429.25</ele><time>2026-05-01T10:16:03.999Z</time></trkpt><trkpt lat="41.71154314480135" lon="13.55219057030743"><ele>426.5</ele><time>2026-05-01T10:16:04.999Z</time></trkpt><trkpt lat="41.71141653048783" lon="13.552291354490364"><ele>423.75</ele><time>2026-05-01T10:16:05.999Z</time></trkpt><trkpt lat="41.71129004617974" lon="13.552384522317576"><ele>421.0</ele><time>2026-05-01T10:16:06.999Z</time></trkpt><trkpt lat="41.71116457999153" lon="13.552458997863834"><ele>418.0</ele><time>2026-05-01T10:16:07.999Z</time></trkpt><trkpt lat="41.711032178926786" lon="13.552516628894699"><ele>415.0</ele><time>2026-05-01T10:16:08.999Z</time></trkpt><trkpt lat="41.71089669380754" lon="13.552574813512262"><ele>412.0</ele><time>2026-05-01T10:16:09.999Z</time></trkpt><trkpt lat="41.710769240891175" lon="13.552650786424046"><ele>409.0</ele><time>2026-05-01T10:16:10.999Z</time></trkpt><trkpt lat="41.71065610931436" lon="13.552752096788193"><ele>409.0</ele><time>2026-05-01T10:16:11.999Z</time></trkpt><trkpt lat="41.710568785375955" lon="13.5528556490451"><ele>409.0</ele><time>2026-05-01T10:16:12.999Z</time></trkpt><trkpt lat="41.71051328846804" lon="13.552975035880648"><ele>409.0</ele><time>2026-05-01T10:16:13.999Z</time></trkpt><trkpt lat="41.7104955243164" lon="13.553141733141821"><ele>409.0</ele><time>2026-05-01T10:16:14.999Z</time></trkpt><trkpt lat="41.7105173136651" lon="13.55332906549014"><ele>409.0</ele><time>2026-05-01T10:16:15.999Z</time></trkpt><trkpt lat="41.71056674534257" lon="13.55351472365337"><ele>409.0</ele><time>2026-05-01T10:16:16.999Z</time></trkpt><trkpt lat="41.710624495354665" lon="13.553698430440834"><ele>409.0</ele><time>2026-05-01T10:16:17.999Z</time></trkpt><trkpt lat="41.710686182108596" lon="13.55387374741707"><ele>409.0</ele><time>2026-05-01T10:16:18.999Z</time></trkpt><trkpt lat="41.710751708923475" lon="13.554030838106632"><ele>408.25</ele><time>2026-05-01T10:16:19.999Z</time></trkpt><trkpt lat="41.71082212568117" lon="13.554174158924683"><ele>407.5</ele><time>2026-05-01T10:16:20.999Z</time></trkpt><trkpt lat="41.710906834521595" lon="13.55430907693976"><ele>406.75</ele><time>2026-05-01T10:16:21.999Z</time></trkpt><trkpt lat="41.71102512457047" lon="13.554414853408751"><ele>406.0</ele><time>2026-05-01T10:16:22.999Z</time></trkpt><trkpt lat="41.711164954081255" lon="13.554502527122443"><ele>403.75</ele><time>2026-05-01T10:16:23.999Z</time></trkpt><trkpt lat="41.711295787011245" lon="13.554584815543167"><ele>401.5</ele><time>2026-05-01T10:16:24.999Z</time></trkpt><trkpt lat="41.711410493741894" lon="13.554666068119635"><ele>399.25</ele><time>2026-05-01T10:16:25.999Z</time></trkpt><trkpt lat="41.71150913446529" lon="13.55474274560505"><ele>397.0</ele><time>2026-05-01T10:16:26.999Z</time></trkpt><trkpt lat="41.71158551869546" lon="13.554821528639122"><ele>397.0</ele><time>2026-05-01T10:16:27.999Z</time></trkpt><trkpt lat="41.71161732766612" lon="13.554952277369827"><ele>397.0</ele><time>2026-05-01T10:16:28.999Z</time></trkpt><trkpt lat="41.71163347090437" lon="13.555106498332199"><ele>397.0</ele><time>2026-05-01T10:16:29.999Z</time></trkpt><trkpt lat="41.71160379272582" lon="13.555269314783576"><ele>397.0</ele><time>2026-05-01T10:16:30.999Z</time></trkpt><trkpt lat="41.71158777968254" lon="13.555422743020596"><ele>395.75</ele><time>2026-05-01T10:16:31.999Z</time></trkpt><trkpt lat="41.71157840684923" lon="13.555566520732812"><ele>394.5</ele><time>2026-05-01T10:16:32.999Z</time></trkpt><trkpt lat="41.711616322170066" lon="13.555725713801385"><ele>393.25</ele><time>2026-05-01T10:16:33.999Z</time></trkpt><trkpt lat="41.71164268187306" lon="13.555879375926954"><ele>392.0</ele><time>2026-05-01T10:16:34.999Z</time></trkpt><trkpt lat="41.71166372328939" lon="13.556014018499337"><ele>392.0</ele><time>2026-05-01T10:16:35.999Z</time></trkpt><trkpt lat="41.711640484387075" lon="13.556133812523635"><ele>392.0</ele><time>2026-05-01T10:16:36.999Z</time></trkpt><trkpt lat="41.71157039701224" lon="13.556227754295318"><ele>392.0</ele><time>2026-05-01T10:16:37.999Z</time></trkpt><trkpt lat="41.711481427087314" lon="13.55628319010446"><ele>392.0</ele><time>2026-05-01T10:16:38.999Z</time></trkpt><trkpt lat="41.7113736275014" lon="13.556199706841248"><ele>392.0</ele><time>2026-05-01T10:16:39.999Z</time></trkpt><trkpt lat="41.71126873203965" lon="13.556132960256397"><ele>392.0</ele><time>2026-05-01T10:16:40.999Z</time></trkpt><trkpt lat="41.71120156269353" lon="13.556035494758524"><ele>392.0</ele><time>2026-05-01T10:16:41.999Z</time></trkpt><trkpt lat="41.71116634224192" lon="13.555910639404749"><ele>392.0</ele><time>2026-05-01T10:16:42.999Z</time></trkpt><trkpt lat="41.711187670314665" lon="13.555762284463764"><ele>392.0</ele><time>2026-05-01T10:16:43.999Z</time></trkpt><trkpt lat="41.711222607926054" lon="13.555604328552095"><ele>392.0</ele><time>2026-05-01T10:16:44.999Z</time></trkpt><trkpt lat="41.7112435675232" lon="13.555455902350822"><ele>393.25</ele><time>2026-05-01T10:16:45.999Z</time></trkpt><trkpt lat="41.71124054613781" lon="13.555314179355268"><ele>394.5</ele><time>2026-05-01T10:16:46.999Z</time></trkpt><trkpt lat="41.711186361862666" lon="13.555175690386282"><ele>395.75</ele><time>2026-05-01T10:16:47.999Z</time></trkpt><trkpt lat="41.7111023936455" lon="13.55507872753554"><ele>397.0</ele><time>2026-05-01T10:16:48.999Z</time></trkpt><trkpt lat="41.71098310999447" lon="13.555043669672052"><ele>394.25</ele><time>2026-05-01T10:16:49.999Z</time></trkpt><trkpt lat="41.71084954269717" lon="13.555063903694736"><ele>391.5</ele><time>2026-05-01T10:16:50.999Z</time></trkpt><trkpt lat="41.71072682765013" lon="13.555161077009302"><ele>388.75</ele><time>2026-05-01T10:16:51.998Z</time></trkpt><trkpt lat="41.710629752538196" lon="13.555298952408489"><ele>386.0</ele><time>2026-05-01T10:16:52.998Z</time></trkpt><trkpt lat="41.71054392450049" lon="13.555448602840137"><ele>384.25</ele><time>2026-05-01T10:16:53.998Z</time></trkpt><trkpt lat="41.710453680387175" lon="13.555590441552857"><ele>382.5</ele><time>2026-05-01T10:16:54.998Z</time></trkpt><trkpt lat="41.710364395136025" lon="13.55572649795122"><ele>380.75</ele><time>2026-05-01T10:16:55.998Z</time></trkpt><trkpt lat="41.71026117526243" lon="13.555797804862744"><ele>379.0</ele><time>2026-05-01T10:16:56.998Z</time></trkpt><trkpt lat="41.71016539785653" lon="13.55583593318238"><ele>377.0</ele><time>2026-05-01T10:16:57.998Z</time></trkpt><trkpt lat="41.710044242483974" lon="13.555827839231325"><ele>375.0</ele><time>2026-05-01T10:16:58.998Z</time></trkpt><trkpt lat="41.70990274310083" lon="13.55577763896186"><ele>373.0</ele><time>2026-05-01T10:16:59.998Z</time></trkpt><trkpt lat="41.70976163453512" lon="13.555722579554283"><ele>371.0</ele><time>2026-05-01T10:17:00.998Z</time></trkpt><trkpt lat="41.70963522104409" lon="13.555661049548467"><ele>371.0</ele><time>2026-05-01T10:17:01.998Z</time></trkpt><trkpt lat="41.70953164843925" lon="13.555557953872865"><ele>371.0</ele><time>2026-05-01T10:17:02.998Z</time></trkpt><trkpt lat="41.70945215516284" lon="13.55541573672747"><ele>371.0</ele><time>2026-05-01T10:17:03.998Z</time></trkpt><trkpt lat="41.70934013218302" lon="13.555267091798656"><ele>371.0</ele><time>2026-05-01T10:17:04.998Z</time></trkpt><trkpt lat="41.70920608633713" lon="13.555140177842985"><ele>369.6666666666667</ele><time>2026-05-01T10:17:05.998Z</time></trkpt><trkpt lat="41.709039621300846" lon="13.555020894992815"><ele>368.3333333333333</ele><time>2026-05-01T10:17:06.998Z</time></trkpt><trkpt lat="41.7089044882166" lon="13.554859511824578"><ele>367.0</ele><time>2026-05-01T10:17:07.998Z</time></trkpt><trkpt lat="41.70877694400881" lon="13.55470091706334"><ele>367.0</ele><time>2026-05-01T10:17:08.998Z</time></trkpt><trkpt lat="41.70864843789775" lon="13.554571194950146"><ele>367.0</ele><time>2026-05-01T10:17:09.998Z</time></trkpt><trkpt lat="41.70852365943834" lon="13.554456143072048"><ele>367.0</ele><time>2026-05-01T10:17:10.998Z</time></trkpt><trkpt lat="41.70836978567248" lon="13.554379851904596"><ele>367.3333333333333</ele><time>2026-05-01T10:17:11.998Z</time></trkpt><trkpt lat="41.708188350762704" lon="13.554340645479183"><ele>367.6666666666667</ele><time>2026-05-01T10:17:12.998Z</time></trkpt><trkpt lat="41.70801854444264" lon="13.554316571924987"><ele>368.0</ele><time>2026-05-01T10:17:13.998Z</time></trkpt><trkpt lat="41.70786147069777" lon="13.554294639688305"><ele>366.0</ele><time>2026-05-01T10:17:14.998Z</time></trkpt><trkpt lat="41.70770194279339" lon="13.55429210457505"><ele>364.0</ele><time>2026-05-01T10:17:15.998Z</time></trkpt><trkpt lat="41.707549300075854" lon="13.554322615796496"><ele>362.0</ele><time>2026-05-01T10:17:16.998Z</time></trkpt><trkpt lat="41.70741534718844" lon="13.554354696525401"><ele>362.0</ele><time>2026-05-01T10:17:17.998Z</time></trkpt><trkpt lat="41.7072973451633" lon="13.55439127053399"><ele>362.0</ele><time>2026-05-01T10:17:18.998Z</time></trkpt><trkpt lat="41.70719287937388" lon="13.554455981129356"><ele>362.0</ele><time>2026-05-01T10:17:19.998Z</time></trkpt><trkpt lat="41.7071137586294" lon="13.55456827532652"><ele>362.0</ele><time>2026-05-01T10:17:20.998Z</time></trkpt><trkpt lat="41.70705858615693" lon="13.554714601400828"><ele>359.0</ele><time>2026-05-01T10:17:21.998Z</time></trkpt><trkpt lat="41.70702717128326" lon="13.554865319177932"><ele>356.0</ele><time>2026-05-01T10:17:22.998Z</time></trkpt><trkpt lat="41.707004081762776" lon="13.555012741340734"><ele>353.0</ele><time>2026-05-01T10:17:23.998Z</time></trkpt><trkpt lat="41.70708710640035" lon="13.555174681223294"><ele>350.0</ele><time>2026-05-01T10:17:24.998Z</time></trkpt><trkpt lat="41.70719315706141" lon="13.555302272117355"><ele>348.33333333333337</ele><time>2026-05-01T10:17:25.998Z</time></trkpt><trkpt lat="41.70733465038049" lon="13.555395406493465"><ele>346.6666666666667</ele><time>2026-05-01T10:17:26.998Z</time></trkpt><trkpt lat="41.707465201368855" lon="13.555500578142615"><ele>345.0</ele><time>2026-05-01T10:17:27.998Z</time></trkpt><trkpt lat="41.70758383727677" lon="13.555641296806256"><ele>345.0</ele><time>2026-05-01T10:17:28.998Z</time></trkpt><trkpt lat="41.70766430444952" lon="13.555806506202584"><ele>345.0</ele><time>2026-05-01T10:17:29.998Z</time></trkpt><trkpt lat="41.707755890914015" lon="13.555931895018137"><ele>345.0</ele><time>2026-05-01T10:17:30.998Z</time></trkpt><trkpt lat="41.70783294065292" lon="13.556055124798528"><ele>345.0</ele><time>2026-05-01T10:17:31.998Z</time></trkpt><trkpt lat="41.70792831216394" lon="13.556173899783934"><ele>345.3333333333333</ele><time>2026-05-01T10:17:32.999Z</time></trkpt><trkpt lat="41.70804246265794" lon="13.556298919988878"><ele>345.66666666666663</ele><time>2026-05-01T10:17:33.999Z</time></trkpt><trkpt lat="41.70815953994955" lon="13.556436740908136"><ele>346.0</ele><time>2026-05-01T10:17:34.999Z</time></trkpt><trkpt lat="41.708282297360356" lon="13.556578779051012"><ele>346.0</ele><time>2026-05-01T10:17:35.999Z</time></trkpt><trkpt lat="41.708413551905046" lon="13.55671695108481"><ele>346.0</ele><time>2026-05-01T10:17:36.999Z</time></trkpt><trkpt lat="41.70854772806328" lon="13.556853011387398"><ele>346.0</ele><time>2026-05-01T10:17:37.999Z</time></trkpt><trkpt lat="41.70867979021261" lon="13.556982180332923"><ele>344.3333333333333</ele><time>2026-05-01T10:17:38.999Z</time></trkpt><trkpt lat="41.70880597244296" lon="13.55710596968676"><ele>342.6666666666667</ele><time>2026-05-01T10:17:39.999Z</time></trkpt><trkpt lat="41.708929438461674" lon="13.55722595781273"><ele>341.0</ele><time>2026-05-01T10:17:40.999Z</time></trkpt><trkpt lat="41.709045065231706" lon="13.557341484810845"><ele>341.0</ele><time>2026-05-01T10:17:41.999Z</time></trkpt><trkpt lat="41.709156035720746" lon="13.557466733131879"><ele>341.0</ele><time>2026-05-01T10:17:42.999Z</time></trkpt><trkpt lat="41.70923977527501" lon="13.557627597871765"><ele>341.0</ele><time>2026-05-01T10:17:43.999Z</time></trkpt><trkpt lat="41.70931054835108" lon="13.55781114102755"><ele>341.0</ele><time>2026-05-01T10:17:44.999Z</time></trkpt><trkpt lat="41.70936071772166" lon="13.558026919993955"><ele>342.0</ele><time>2026-05-01T10:17:45.999Z</time></trkpt><trkpt lat="41.70941803498514" lon="13.558249546230737"><ele>343.0</ele><time>2026-05-01T10:17:46.999Z</time></trkpt><trkpt lat="41.70945588712801" lon="13.558483781544364"><ele>344.0</ele><time>2026-05-01T10:17:47.999Z</time></trkpt><trkpt lat="41.709504133710965" lon="13.55871257221008"><ele>340.6666666666667</ele><time>2026-05-01T10:17:48.999Z</time></trkpt><trkpt lat="41.70956050920148" lon="13.558922817342584"><ele>337.3333333333333</ele><time>2026-05-01T10:17:49.999Z</time></trkpt><trkpt lat="41.70963051835887" lon="13.559129536780707"><ele>334.0</ele><time>2026-05-01T10:17:50.999Z</time></trkpt><trkpt lat="41.70969707568093" lon="13.559328373036658"><ele>330.66666666666663</ele><time>2026-05-01T10:17:51.999Z</time></trkpt><trkpt lat="41.709790781999374" lon="13.559565617588115"><ele>327.3333333333333</ele><time>2026-05-01T10:17:52.999Z</time></trkpt><trkpt lat="41.70987948932203" lon="13.559793166628209"><ele>324.0</ele><time>2026-05-01T10:17:53.999Z</time></trkpt><trkpt lat="41.709970937403035" lon="13.560028501367668"><ele>324.0</ele><time>2026-05-01T10:17:54.999Z</time></trkpt><trkpt lat="41.710066097711966" lon="13.560262252198687"><ele>324.0</ele><time>2026-05-01T10:17:55.999Z</time></trkpt><trkpt lat="41.71016747718036" lon="13.560493865171738"><ele>324.0</ele><time>2026-05-01T10:17:56.999Z</time></trkpt><trkpt lat="41.71025199283265" lon="13.560721995803746"><ele>324.3333333333333</ele><time>2026-05-01T10:17:57.999Z</time></trkpt><trkpt lat="41.71035009285805" lon="13.56093924085324"><ele>324.66666666666663</ele><time>2026-05-01T10:17:58.999Z</time></trkpt><trkpt lat="41.710447701573884" lon="13.561159929272298"><ele>325.0</ele><time>2026-05-01T10:17:59.999Z</time></trkpt><trkpt lat="41.710535984655536" lon="13.561385710367693"><ele>322.0</ele><time>2026-05-01T10:18:00.999Z</time></trkpt><trkpt lat="41.710628937482255" lon="13.561619915711788"><ele>319.0</ele><time>2026-05-01T10:18:01.999Z</time></trkpt><trkpt lat="41.71069559159914" lon="13.561859361893687"><ele>316.0</ele><time>2026-05-01T10:18:02.999Z</time></trkpt><trkpt lat="41.710758037425414" lon="13.562084106632968"><ele>314.3333333333333</ele><time>2026-05-01T10:18:03.999Z</time></trkpt><trkpt lat="41.710822498623884" lon="13.562308510259292"><ele>312.6666666666667</ele><time>2026-05-01T10:18:04.999Z</time></trkpt><trkpt lat="41.71088895609363" lon="13.56252597998297"><ele>311.0</ele><time>2026-05-01T10:18:05.999Z</time></trkpt><trkpt lat="41.71095683446404" lon="13.562736042548266"><ele>309.0</ele><time>2026-05-01T10:18:06.999Z</time></trkpt><trkpt lat="41.7110347206271" lon="13.562941208566242"><ele>307.0</ele><time>2026-05-01T10:18:07.999Z</time></trkpt><trkpt lat="41.71113224273095" lon="13.563139790243444"><ele>305.0</ele><time>2026-05-01T10:18:08.999Z</time></trkpt><trkpt lat="41.71125662568133" lon="13.563331240166269"><ele>305.0</ele><time>2026-05-01T10:18:09.999Z</time></trkpt><trkpt lat="41.71139108978794" lon="13.56350016333392"><ele>305.0</ele><time>2026-05-01T10:18:10.999Z</time></trkpt><trkpt lat="41.711525219954936" lon="13.563639193096494"><ele>305.0</ele><time>2026-05-01T10:18:11.999Z</time></trkpt><trkpt lat="41.71164100811497" lon="13.56375782351161"><ele>303.25</ele><time>2026-05-01T10:18:12.999Z</time></trkpt><trkpt lat="41.711717375326636" lon="13.563895477562767"><ele>301.5</ele><time>2026-05-01T10:18:13.999Z</time></trkpt><trkpt lat="41.71177236591778" lon="13.564036328746337"><ele>299.75</ele><time>2026-05-01T10:18:14.999Z</time></trkpt><trkpt lat="41.71179127680146" lon="13.564195444060937"><ele>298.0</ele><time>2026-05-01T10:18:15.999Z</time></trkpt><trkpt lat="41.71177070896554" lon="13.564365224410837"><ele>296.0</ele><time>2026-05-01T10:18:16.999Z</time></trkpt><trkpt lat="41.71170354450053" lon="13.564534907007122"><ele>294.0</ele><time>2026-05-01T10:18:17.999Z</time></trkpt><trkpt lat="41.71161365380798" lon="13.5647081518132"><ele>292.0</ele><time>2026-05-01T10:18:18.999Z</time></trkpt><trkpt lat="41.71154311507547" lon="13.564887349011915"><ele>292.0</ele><time>2026-05-01T10:18:19.999Z</time></trkpt><trkpt lat="41.71147580531333" lon="13.565068853949786"><ele>292.0</ele><time>2026-05-01T10:18:20.999Z</time></trkpt><trkpt lat="41.7114318641881" lon="13.56526647407267"><ele>292.0</ele><time>2026-05-01T10:18:21.999Z</time></trkpt><trkpt lat="41.71141098502425" lon="13.565472867591449"><ele>290.66666666666663</ele><time>2026-05-01T10:18:22.999Z</time></trkpt><trkpt lat="41.71141853313434" lon="13.565687294095284"><ele>289.3333333333333</ele><time>2026-05-01T10:18:23.999Z</time></trkpt><trkpt lat="41.71146000461328" lon="13.5658996242027"><ele>288.0</ele><time>2026-05-01T10:18:24.999Z</time></trkpt><trkpt lat="41.71153001747342" lon="13.566113899656875"><ele>286.6666666666667</ele><time>2026-05-01T10:18:25.999Z</time></trkpt><trkpt lat="41.711619358860744" lon="13.566333834130077"><ele>285.33333333333337</ele><time>2026-05-01T10:18:26.999Z</time></trkpt><trkpt lat="41.711706789286005" lon="13.56654542594206"><ele>284.0</ele><time>2026-05-01T10:18:27.999Z</time></trkpt><trkpt lat="41.71178487813333" lon="13.566749132079032"><ele>284.0</ele><time>2026-05-01T10:18:28.999Z</time></trkpt><trkpt lat="41.71185366278598" lon="13.566952855138888"><ele>284.0</ele><time>2026-05-01T10:18:29.999Z</time></trkpt><trkpt lat="41.711928133182155" lon="13.567140903003308"><ele>284.0</ele><time>2026-05-01T10:18:30.999Z</time></trkpt><trkpt lat="41.7120078704231" lon="13.567321697666534"><ele>284.0</ele><time>2026-05-01T10:18:31.999Z</time></trkpt><trkpt lat="41.71210381065755" lon="13.567488283794065"><ele>284.0</ele><time>2026-05-01T10:18:32.999Z</time></trkpt><trkpt lat="41.71223311483767" lon="13.56764571828317"><ele>284.0</ele><time>2026-05-01T10:18:33.999Z</time></trkpt><trkpt lat="41.71237341134073" lon="13.567797818012696"><ele>284.0</ele><time>2026-05-01T10:18:34.999Z</time></trkpt><trkpt lat="41.7125242223469" lon="13.567947685194454"><ele>284.0</ele><time>2026-05-01T10:18:35.999Z</time></trkpt><trkpt lat="41.71267318149643" lon="13.568093543275278"><ele>284.0</ele><time>2026-05-01T10:18:36.999Z</time></trkpt><trkpt lat="41.7128198978001" lon="13.568238655075788"><ele>284.0</ele><time>2026-05-01T10:18:37.999Z</time></trkpt><trkpt lat="41.712963987201455" lon="13.568379614651997"><ele>284.0</ele><time>2026-05-01T10:18:38.999Z</time></trkpt><trkpt lat="41.71311349671541" lon="13.568523162618398"><ele>284.0</ele><time>2026-05-01T10:18:39.999Z</time></trkpt><trkpt lat="41.713254388263984" lon="13.568660830183154"><ele>282.33333333333337</ele><time>2026-05-01T10:18:40.999Z</time></trkpt><trkpt lat="41.713387172754196" lon="13.568795559648397"><ele>280.6666666666667</ele><time>2026-05-01T10:18:41.999Z</time></trkpt><trkpt lat="41.71351020921946" lon="13.568928478324914"><ele>279.0</ele><time>2026-05-01T10:18:42.999Z</time></trkpt><trkpt lat="41.71362742911452" lon="13.569077443780788"><ele>279.0</ele><time>2026-05-01T10:18:43.999Z</time></trkpt><trkpt lat="41.71373958769267" lon="13.569251530129405"><ele>279.0</ele><time>2026-05-01T10:18:44.999Z</time></trkpt><trkpt lat="41.71381172121253" lon="13.569467889827816"><ele>279.0</ele><time>2026-05-01T10:18:45.999Z</time></trkpt><trkpt lat="41.713879602511014" lon="13.569702553486538"><ele>277.3333333333333</ele><time>2026-05-01T10:18:46.999Z</time></trkpt><trkpt lat="41.71394737977986" lon="13.569934390936835"><ele>275.66666666666663</ele><time>2026-05-01T10:18:47.999Z</time></trkpt><trkpt lat="41.71401997975651" lon="13.570143222456442"><ele>274.0</ele><time>2026-05-01T10:18:48.999Z</time></trkpt><trkpt lat="41.714076618239424" lon="13.570347999171911"><ele>273.75</ele><time>2026-05-01T10:18:49.999Z</time></trkpt><trkpt lat="41.71413295731999" lon="13.570536532932293"><ele>273.5</ele><time>2026-05-01T10:18:50.999Z</time></trkpt><trkpt lat="41.71417747392455" lon="13.570697372908553"><ele>273.25</ele><time>2026-05-01T10:18:51.999Z</time></trkpt><trkpt lat="41.71421012902803" lon="13.570830918823964"><ele>273.0</ele><time>2026-05-01T10:18:52.998Z</time></trkpt><trkpt lat="41.71423258087784" lon="13.570942445231346"><ele>273.0</ele><time>2026-05-01T10:18:53.998Z</time></trkpt><trkpt lat="41.7142320129432" lon="13.571050922129071"><ele>273.0</ele><time>2026-05-01T10:18:54.998Z</time></trkpt><trkpt lat="41.71421560339199" lon="13.571140594330933"><ele>273.0</ele><time>2026-05-01T10:18:55.998Z</time></trkpt><trkpt lat="41.71421357222895" lon="13.571236565900893"><ele>273.0</ele><time>2026-05-01T10:18:57.998Z</time></trkpt><trkpt lat="41.71425062213427" lon="13.57133600307228"><ele>273.0</ele><time>2026-05-01T10:18:58.998Z</time></trkpt><trkpt lat="41.714314842812755" lon="13.571451913525726"><ele>273.0</ele><time>2026-05-01T10:18:59.998Z</time></trkpt><trkpt lat="41.71439540096539" lon="13.571585026687911"><ele>273.6666666666667</ele><time>2026-05-01T10:19:00.998Z</time></trkpt><trkpt lat="41.71446963203535" lon="13.571753106821681"><ele>274.33333333333337</ele><time>2026-05-01T10:19:01.998Z</time></trkpt><trkpt lat="41.714532366014105" lon="13.571948060396025"><ele>275.0</ele><time>2026-05-01T10:19:02.998Z</time></trkpt><trkpt lat="41.71459719861977" lon="13.57215214550442"><ele>275.0</ele><time>2026-05-01T10:19:03.998Z</time></trkpt><trkpt lat="41.71466516557263" lon="13.572368764116323"><ele>275.0</ele><time>2026-05-01T10:19:04.998Z</time></trkpt><trkpt lat="41.71473400096234" lon="13.572590497273854"><ele>275.0</ele><time>2026-05-01T10:19:05.999Z</time></trkpt><trkpt lat="41.71479273426122" lon="13.572784537231707"><ele>275.0</ele><time>2026-05-01T10:19:06.999Z</time></trkpt><trkpt lat="41.71484030878002" lon="13.572942839118934"><ele>275.0</ele><time>2026-05-01T10:19:07.999Z</time></trkpt><trkpt lat="41.71488049522991" lon="13.5730782706156"><ele>275.0</ele><time>2026-05-01T10:19:08.999Z</time></trkpt><trkpt lat="41.71491506089585" lon="13.573220257772633"><ele>275.0</ele><time>2026-05-01T10:19:09.999Z</time></trkpt><trkpt lat="41.714956303068554" lon="13.573377610622169"><ele>275.0</ele><time>2026-05-01T10:19:10.999Z</time></trkpt><trkpt lat="41.715007123955274" lon="13.573541147831527"><ele>275.0</ele><time>2026-05-01T10:19:11.999Z</time></trkpt><trkpt lat="41.71503741760631" lon="13.573713632178356"><ele>275.0</ele><time>2026-05-01T10:19:12.999Z</time></trkpt><trkpt lat="41.71509313868252" lon="13.573918797847378"><ele>275.0</ele><time>2026-05-01T10:19:13.999Z</time></trkpt><trkpt lat="41.71515709750497" lon="13.574146484198288"><ele>275.0</ele><time>2026-05-01T10:19:14.999Z</time></trkpt><trkpt lat="41.71522696433438" lon="13.574375373464674"><ele>275.0</ele><time>2026-05-01T10:19:15.999Z</time></trkpt><trkpt lat="41.715309699092806" lon="13.57460449462781"><ele>275.0</ele><time>2026-05-01T10:19:16.999Z</time></trkpt><trkpt lat="41.7153683337343" lon="13.574855849330802"><ele>275.33333333333337</ele><time>2026-05-01T10:19:17.999Z</time></trkpt><trkpt lat="41.71542509804493" lon="13.575101156061546"><ele>275.6666666666667</ele><time>2026-05-01T10:19:18.999Z</time></trkpt><trkpt lat="41.715481053917244" lon="13.575333581683696"><ele>276.0</ele><time>2026-05-01T10:19:19.999Z</time></trkpt><trkpt lat="41.715534705972416" lon="13.575554964460604"><ele>276.0</ele><time>2026-05-01T10:19:20.999Z</time></trkpt><trkpt lat="41.7155959464263" lon="13.575776089332669"><ele>276.0</ele><time>2026-05-01T10:19:21.999Z</time></trkpt><trkpt lat="41.71566637290097" lon="13.576010286363106"><ele>276.0</ele><time>2026-05-01T10:19:22.999Z</time></trkpt><trkpt lat="41.7157386894189" lon="13.576257670415067"><ele>276.0</ele><time>2026-05-01T10:19:23.999Z</time></trkpt><trkpt lat="41.715812683250235" lon="13.576509357693814"><ele>276.0</ele><time>2026-05-01T10:19:24.999Z</time></trkpt><trkpt lat="41.71587929829349" lon="13.576742123027687"><ele>276.0</ele><time>2026-05-01T10:19:25.999Z</time></trkpt><trkpt lat="41.715940540423865" lon="13.576958271884749"><ele>276.0</ele><time>2026-05-01T10:19:26.999Z</time></trkpt><trkpt lat="41.71599675882308" lon="13.577160041481191"><ele>276.0</ele><time>2026-05-01T10:19:27.999Z</time></trkpt><trkpt lat="41.7160556410385" lon="13.577363553797362"><ele>276.0</ele><time>2026-05-01T10:19:28.999Z</time></trkpt><trkpt lat="41.71612073433813" lon="13.577576007529546"><ele>276.0</ele><time>2026-05-01T10:19:29.999Z</time></trkpt><trkpt lat="41.716185117886376" lon="13.57779492769477"><ele>276.0</ele><time>2026-05-01T10:19:30.999Z</time></trkpt><trkpt lat="41.71624936008659" lon="13.578016154132436"><ele>276.0</ele><time>2026-05-01T10:19:31.999Z</time></trkpt><trkpt lat="41.71631713125655" lon="13.578248119450157"><ele>276.0</ele><time>2026-05-01T10:19:32.999Z</time></trkpt><trkpt lat="41.71638615127012" lon="13.578490882731959"><ele>276.0</ele><time>2026-05-01T10:19:33.999Z</time></trkpt><trkpt lat="41.71645758589266" lon="13.578729379440949"><ele>276.0</ele><time>2026-05-01T10:19:34.999Z</time></trkpt><trkpt lat="41.71652768878758" lon="13.578970460148685"><ele>276.0</ele><time>2026-05-01T10:19:35.999Z</time></trkpt><trkpt lat="41.7165942640161" lon="13.579203544621317"><ele>276.0</ele><time>2026-05-01T10:19:36.999Z</time></trkpt><trkpt lat="41.71664641210564" lon="13.57944474392456"><ele>276.0</ele><time>2026-05-01T10:19:37.999Z</time></trkpt><trkpt lat="41.71671340014753" lon="13.57968420991181"><ele>276.0</ele><time>2026-05-01T10:19:39Z</time></trkpt><trkpt lat="41.71678116202479" lon="13.57992065307763"><ele>276.0</ele><time>2026-05-01T10:19:40Z</time></trkpt><trkpt lat="41.71685913515634" lon="13.580153559470059"><ele>276.0</ele><time>2026-05-01T10:19:41Z</time></trkpt><trkpt lat="41.71692584126014" lon="13.58038997187804"><ele>276.0</ele><time>2026-05-01T10:19:42Z</time></trkpt><trkpt lat="41.7170007611795" lon="13.580626513321173"><ele>276.0</ele><time>2026-05-01T10:19:43Z</time></trkpt><trkpt lat="41.71707678013465" lon="13.58086209603728"><ele>276.0</ele><time>2026-05-01T10:19:44Z</time></trkpt><trkpt lat="41.71713083646269" lon="13.581108376811136"><ele>276.3333333333333</ele><time>2026-05-01T10:19:45Z</time></trkpt><trkpt lat="41.71721150026279" lon="13.581342020629506"><ele>276.66666666666663</ele><time>2026-05-01T10:19:46Z</time></trkpt><trkpt lat="41.717274078810675" lon="13.581584378090902"><ele>277.0</ele><time>2026-05-01T10:19:47Z</time></trkpt><trkpt lat="41.717335690190325" lon="13.581825101465137"><ele>276.3333333333333</ele><time>2026-05-01T10:19:48Z</time></trkpt><trkpt lat="41.71738973007094" lon="13.582050423769054"><ele>275.6666666666667</ele><time>2026-05-01T10:19:49Z</time></trkpt><trkpt lat="41.71744101422227" lon="13.582263580743868"><ele>275.0</ele><time>2026-05-01T10:19:50Z</time></trkpt><trkpt lat="41.71749055298516" lon="13.582459963269132"><ele>275.0</ele><time>2026-05-01T10:19:51Z</time></trkpt><trkpt lat="41.71751559702603" lon="13.582632535317352"><ele>275.0</ele><time>2026-05-01T10:19:52Z</time></trkpt><trkpt lat="41.71755223123437" lon="13.582787588400437"><ele>275.0</ele><time>2026-05-01T10:19:53Z</time></trkpt><trkpt lat="41.71760499320792" lon="13.582944331451541"><ele>275.0</ele><time>2026-05-01T10:19:54Z</time></trkpt><trkpt lat="41.71764303720265" lon="13.583114011818923"><ele>275.0</ele><time>2026-05-01T10:19:55Z</time></trkpt><trkpt lat="41.71769518513511" lon="13.583301278444415"><ele>275.0</ele><time>2026-05-01T10:19:56Z</time></trkpt><trkpt lat="41.717761515124124" lon="13.583514195382762"><ele>275.0</ele><time>2026-05-01T10:19:57Z</time></trkpt><trkpt lat="41.717832234569606" lon="13.583709984756434"><ele>276.33333333333337</ele><time>2026-05-01T10:19:58Z</time></trkpt><trkpt lat="41.717898283553474" lon="13.583877316065768"><ele>277.6666666666667</ele><time>2026-05-01T10:19:59Z</time></trkpt><trkpt lat="41.71795161566234" lon="13.58405334234306"><ele>279.0</ele><time>2026-05-01T10:20:00Z</time></trkpt><trkpt lat="41.71802843620152" lon="13.584251583778412"><ele>279.0</ele><time>2026-05-01T10:20:01Z</time></trkpt><trkpt lat="41.71811095434402" lon="13.584465039323895"><ele>279.0</ele><time>2026-05-01T10:20:02Z</time></trkpt><trkpt lat="41.718193925098845" lon="13.584679665757015"><ele>279.0</ele><time>2026-05-01T10:20:03Z</time></trkpt><trkpt lat="41.71827011274272" lon="13.584874453094232"><ele>278.75</ele><time>2026-05-01T10:20:04Z</time></trkpt><trkpt lat="41.718352676571214" lon="13.585037185133492"><ele>278.5</ele><time>2026-05-01T10:20:05Z</time></trkpt><trkpt lat="41.71841458147738" lon="13.58519817662576"><ele>278.25</ele><time>2026-05-01T10:20:06Z</time></trkpt><trkpt lat="41.71847687640485" lon="13.585361564640321"><ele>278.0</ele><time>2026-05-01T10:20:07Z</time></trkpt><trkpt lat="41.71854757124239" lon="13.585543446988645"><ele>277.6666666666667</ele><time>2026-05-01T10:20:08Z</time></trkpt><trkpt lat="41.71862850848771" lon="13.58573580981847"><ele>277.3333333333333</ele><time>2026-05-01T10:20:09Z</time></trkpt><trkpt lat="41.718700941982476" lon="13.585960047569781"><ele>277.0</ele><time>2026-05-01T10:20:10Z</time></trkpt><trkpt lat="41.718803973891944" lon="13.586173304360308"><ele>277.3333333333333</ele><time>2026-05-01T10:20:11Z</time></trkpt><trkpt lat="41.718895535273965" lon="13.586401401054184"><ele>277.6666666666667</ele><time>2026-05-01T10:20:12Z</time></trkpt><trkpt lat="41.71898895118414" lon="13.586619454653711"><ele>278.0</ele><time>2026-05-01T10:20:13Z</time></trkpt><trkpt lat="41.71906343816612" lon="13.58684040063149"><ele>278.0</ele><time>2026-05-01T10:20:14Z</time></trkpt><trkpt lat="41.71916228471674" lon="13.58703509245787"><ele>278.0</ele><time>2026-05-01T10:20:15Z</time></trkpt><trkpt lat="41.71924275523653" lon="13.587243607798003"><ele>278.0</ele><time>2026-05-01T10:20:16Z</time></trkpt><trkpt lat="41.71932181469969" lon="13.587449743774522"><ele>278.0</ele><time>2026-05-01T10:20:17Z</time></trkpt><trkpt lat="41.71939447477548" lon="13.587664876109635"><ele>278.0</ele><time>2026-05-01T10:20:18Z</time></trkpt><trkpt lat="41.71946104734305" lon="13.587888503545216"><ele>278.0</ele><time>2026-05-01T10:20:19Z</time></trkpt><trkpt lat="41.71951713417931" lon="13.588123335513615"><ele>278.0</ele><time>2026-05-01T10:20:20Z</time></trkpt><trkpt lat="41.719569743845575" lon="13.588361921866229"><ele>278.0</ele><time>2026-05-01T10:20:21Z</time></trkpt><trkpt lat="41.71962347302009" lon="13.588605532685428"><ele>278.0</ele><time>2026-05-01T10:20:22Z</time></trkpt><trkpt lat="41.71967509141979" lon="13.588852609848944"><ele>278.0</ele><time>2026-05-01T10:20:23Z</time></trkpt><trkpt lat="41.71972000112581" lon="13.589105419287014"><ele>278.0</ele><time>2026-05-01T10:20:24Z</time></trkpt><trkpt lat="41.71977482441046" lon="13.589358999935497"><ele>278.0</ele><time>2026-05-01T10:20:25Z</time></trkpt><trkpt lat="41.71983985989442" lon="13.589618593163774"><ele>278.0</ele><time>2026-05-01T10:20:26Z</time></trkpt><trkpt lat="41.71989687893189" lon="13.5898679332612"><ele>278.0</ele><time>2026-05-01T10:20:27Z</time></trkpt><trkpt lat="41.71995052819587" lon="13.590123028220098"><ele>278.0</ele><time>2026-05-01T10:20:28Z</time></trkpt><trkpt lat="41.720006601261524" lon="13.590381163380417"><ele>277.6666666666667</ele><time>2026-05-01T10:20:29Z</time></trkpt><trkpt lat="41.72006626634395" lon="13.590629677656509"><ele>277.3333333333333</ele><time>2026-05-01T10:20:30Z</time></trkpt><trkpt lat="41.72013743492856" lon="13.590879085589266"><ele>277.0</ele><time>2026-05-01T10:20:31Z</time></trkpt><trkpt lat="41.720218697054925" lon="13.591123241297277"><ele>277.3333333333333</ele><time>2026-05-01T10:20:32Z</time></trkpt><trkpt lat="41.720308804449665" lon="13.591370052539338"><ele>277.6666666666667</ele><time>2026-05-01T10:20:33Z</time></trkpt><trkpt lat="41.72039550136529" lon="13.59161959168827"><ele>278.0</ele><time>2026-05-01T10:20:34Z</time></trkpt><trkpt lat="41.720488617353546" lon="13.591883763876917"><ele>278.0</ele><time>2026-05-01T10:20:35Z</time></trkpt><trkpt lat="41.720579379791836" lon="13.592152038928562"><ele>278.0</ele><time>2026-05-01T10:20:36Z</time></trkpt><trkpt lat="41.7206695943705" lon="13.59243192493285"><ele>278.0</ele><time>2026-05-01T10:20:37Z</time></trkpt><trkpt lat="41.72075239121567" lon="13.5927015812105"><ele>278.0</ele><time>2026-05-01T10:20:38Z</time></trkpt><trkpt lat="41.720828774321014" lon="13.592961461756055"><ele>278.0</ele><time>2026-05-01T10:20:39Z</time></trkpt><trkpt lat="41.720903697474704" lon="13.593233244201016"><ele>278.0</ele><time>2026-05-01T10:20:40Z</time></trkpt><trkpt lat="41.72096789565308" lon="13.593485456094246"><ele>278.33333333333337</ele><time>2026-05-01T10:20:41Z</time></trkpt><trkpt lat="41.72102551262763" lon="13.593715778922567"><ele>278.6666666666667</ele><time>2026-05-01T10:20:42Z</time></trkpt><trkpt lat="41.72108449166739" lon="13.593949369609911"><ele>279.0</ele><time>2026-05-01T10:20:43Z</time></trkpt><trkpt lat="41.721143221273756" lon="13.594191451532538"><ele>279.0</ele><time>2026-05-01T10:20:44Z</time></trkpt><trkpt lat="41.72120401390525" lon="13.594428462002137"><ele>279.0</ele><time>2026-05-01T10:20:45Z</time></trkpt><trkpt lat="41.72126048747842" lon="13.594667048675412"><ele>279.0</ele><time>2026-05-01T10:20:46Z</time></trkpt><trkpt lat="41.72131961338725" lon="13.594910306713741"><ele>279.6666666666667</ele><time>2026-05-01T10:20:47Z</time></trkpt><trkpt lat="41.721382552639064" lon="13.595155068095611"><ele>280.33333333333337</ele><time>2026-05-01T10:20:48Z</time></trkpt><trkpt lat="41.721454767694134" lon="13.595426369613143"><ele>281.0</ele><time>2026-05-01T10:20:49Z</time></trkpt><trkpt lat="41.721527071284406" lon="13.595688150995489"><ele>281.0</ele><time>2026-05-01T10:20:49.999Z</time></trkpt><trkpt lat="41.721590470614565" lon="13.595970372872703"><ele>281.0</ele><time>2026-05-01T10:20:50.999Z</time></trkpt><trkpt lat="41.72167697803453" lon="13.596271978943092"><ele>280.0</ele><time>2026-05-01T10:20:51.999Z</time></trkpt><trkpt lat="41.721761238863465" lon="13.596573301535127"><ele>279.0</ele><time>2026-05-01T10:20:52.999Z</time></trkpt><trkpt lat="41.721840874349176" lon="13.596861477341639"><ele>279.3333333333333</ele><time>2026-05-01T10:20:53.999Z</time></trkpt><trkpt lat="41.72192819032709" lon="13.59713319833905"><ele>279.66666666666663</ele><time>2026-05-01T10:20:54.999Z</time></trkpt><trkpt lat="41.722008853008624" lon="13.597417913024234"><ele>280.0</ele><time>2026-05-01T10:20:55.999Z</time></trkpt><trkpt lat="41.72208872449779" lon="13.5976993206543"><ele>280.66666666666663</ele><time>2026-05-01T10:20:56.999Z</time></trkpt><trkpt lat="41.72216715387518" lon="13.597974514939635"><ele>281.3333333333333</ele><time>2026-05-01T10:20:57.999Z</time></trkpt><trkpt lat="41.72224104167619" lon="13.598246775478373"><ele>282.0</ele><time>2026-05-01T10:20:58.999Z</time></trkpt><trkpt lat="41.722307178187215" lon="13.598501657200053"><ele>281.6666666666667</ele><time>2026-05-01T10:20:59.999Z</time></trkpt><trkpt lat="41.72236909167308" lon="13.59873774362386"><ele>281.33333333333337</ele><time>2026-05-01T10:21:00.999Z</time></trkpt><trkpt lat="41.722429645056" lon="13.598957764005128"><ele>281.0</ele><time>2026-05-01T10:21:01.999Z</time></trkpt><trkpt lat="41.722470477572045" lon="13.599171653492466"><ele>281.0</ele><time>2026-05-01T10:21:02.999Z</time></trkpt><trkpt lat="41.72253937544942" lon="13.599363093296276"><ele>281.0</ele><time>2026-05-01T10:21:03.999Z</time></trkpt><trkpt lat="41.722594412495276" lon="13.599573859688073"><ele>281.0</ele><time>2026-05-01T10:21:04.999Z</time></trkpt><trkpt lat="41.72263996739109" lon="13.599793093517475"><ele>281.0</ele><time>2026-05-01T10:21:05.999Z</time></trkpt><trkpt lat="41.72269214207537" lon="13.59998213583563"><ele>281.0</ele><time>2026-05-01T10:21:06.999Z</time></trkpt><trkpt lat="41.722741742196554" lon="13.600160398792838"><ele>281.0</ele><time>2026-05-01T10:21:07.999Z</time></trkpt><trkpt lat="41.7227937571175" lon="13.600344345478824"><ele>281.0</ele><time>2026-05-01T10:21:08.999Z</time></trkpt><trkpt lat="41.72285459106581" lon="13.600557516065289"><ele>280.6666666666667</ele><time>2026-05-01T10:21:09.999Z</time></trkpt><trkpt lat="41.72292483485474" lon="13.600803244229017"><ele>280.3333333333333</ele><time>2026-05-01T10:21:10.999Z</time></trkpt><trkpt lat="41.72301272391208" lon="13.601062312201591"><ele>280.0</ele><time>2026-05-01T10:21:11.999Z</time></trkpt><trkpt lat="41.72308527089733" lon="13.601308496202378"><ele>280.0</ele><time>2026-05-01T10:21:12.999Z</time></trkpt><trkpt lat="41.72315658819006" lon="13.601552006787358"><ele>280.0</ele><time>2026-05-01T10:21:13.999Z</time></trkpt><trkpt lat="41.72322801576569" lon="13.601800249940773"><ele>280.0</ele><time>2026-05-01T10:21:14.999Z</time></trkpt><trkpt lat="41.723294427866406" lon="13.602035632876817"><ele>280.3333333333333</ele><time>2026-05-01T10:21:15.999Z</time></trkpt><trkpt lat="41.72335614890234" lon="13.602243298171334"><ele>280.6666666666667</ele><time>2026-05-01T10:21:16.999Z</time></trkpt><trkpt lat="41.72341462773317" lon="13.602444000897728"><ele>281.0</ele><time>2026-05-01T10:21:17.999Z</time></trkpt><trkpt lat="41.72346899016633" lon="13.602630306219364"><ele>281.0</ele><time>2026-05-01T10:21:18.999Z</time></trkpt><trkpt lat="41.72352273552296" lon="13.602806859258125"><ele>281.0</ele><time>2026-05-01T10:21:19.999Z</time></trkpt><trkpt lat="41.7235724839639" lon="13.602973828120115"><ele>281.0</ele><time>2026-05-01T10:21:20.999Z</time></trkpt><trkpt lat="41.72361839086423" lon="13.603130294362773"><ele>281.0</ele><time>2026-05-01T10:21:21.999Z</time></trkpt><trkpt lat="41.72365962454042" lon="13.60327783577337"><ele>280.75</ele><time>2026-05-01T10:21:22.999Z</time></trkpt><trkpt lat="41.72370794327644" lon="13.603436899240844"><ele>280.5</ele><time>2026-05-01T10:21:23.999Z</time></trkpt><trkpt lat="41.72376093047969" lon="13.603610231209633"><ele>280.25</ele><time>2026-05-01T10:21:24.999Z</time></trkpt><trkpt lat="41.723820087760686" lon="13.603795351449113"><ele>280.0</ele><time>2026-05-01T10:21:25.999Z</time></trkpt><trkpt lat="41.723879969988104" lon="13.603985386495351"><ele>280.0</ele><time>2026-05-01T10:21:26.999Z</time></trkpt><trkpt lat="41.723937678899546" lon="13.604181858502644"><ele>280.0</ele><time>2026-05-01T10:21:27.999Z</time></trkpt><trkpt lat="41.72398961058871" lon="13.604373309366776"><ele>280.0</ele><time>2026-05-01T10:21:28.999Z</time></trkpt><trkpt lat="41.72402800862215" lon="13.60455489154056"><ele>280.25</ele><time>2026-05-01T10:21:29.999Z</time></trkpt><trkpt lat="41.72406143097508" lon="13.604732206266352"><ele>280.5</ele><time>2026-05-01T10:21:30.999Z</time></trkpt><trkpt lat="41.724090574038186" lon="13.604897449689362"><ele>280.75</ele><time>2026-05-01T10:21:31.999Z</time></trkpt><trkpt lat="41.72410656288829" lon="13.605055018016577"><ele>281.0</ele><time>2026-05-01T10:21:32.999Z</time></trkpt><trkpt lat="41.72411314563695" lon="13.605196327842684"><ele>281.25</ele><time>2026-05-01T10:21:33.999Z</time></trkpt><trkpt lat="41.72410315705597" lon="13.605329666575456"><ele>281.5</ele><time>2026-05-01T10:21:34.999Z</time></trkpt><trkpt lat="41.72406865734339" lon="13.605478946915852"><ele>281.75</ele><time>2026-05-01T10:21:35.999Z</time></trkpt><trkpt lat="41.72397961887913" lon="13.605602539183383"><ele>282.0</ele><time>2026-05-01T10:21:36.999Z</time></trkpt><trkpt lat="41.72389865501221" lon="13.605742813839639"><ele>282.0</ele><time>2026-05-01T10:21:37.999Z</time></trkpt><trkpt lat="41.7238215052051" lon="13.60588550744836"><ele>282.0</ele><time>2026-05-01T10:21:38.999Z</time></trkpt><trkpt lat="41.72374230468925" lon="13.6060127807263"><ele>282.0</ele><time>2026-05-01T10:21:39.999Z</time></trkpt><trkpt lat="41.72366221328453" lon="13.606149585986918"><ele>282.0</ele><time>2026-05-01T10:21:40.999Z</time></trkpt><trkpt lat="41.7235869837297" lon="13.606271994358682"><ele>282.0</ele><time>2026-05-01T10:21:41.999Z</time></trkpt><trkpt lat="41.723519591160915" lon="13.606385113946693"><ele>282.0</ele><time>2026-05-01T10:21:42.999Z</time></trkpt><trkpt lat="41.72345528214344" lon="13.60651127120342"><ele>282.0</ele><time>2026-05-01T10:21:44Z</time></trkpt><trkpt lat="41.723369012584286" lon="13.60663409645179"><ele>282.0</ele><time>2026-05-01T10:21:45Z</time></trkpt><trkpt lat="41.723283602673895" lon="13.606781708819021"><ele>282.0</ele><time>2026-05-01T10:21:46Z</time></trkpt><trkpt lat="41.72319355983852" lon="13.606938230210387"><ele>282.0</ele><time>2026-05-01T10:21:47Z</time></trkpt><trkpt lat="41.72310172647742" lon="13.607097522511008"><ele>282.0</ele><time>2026-05-01T10:21:48Z</time></trkpt><trkpt lat="41.723010195297356" lon="13.607255691843335"><ele>282.0</ele><time>2026-05-01T10:21:49Z</time></trkpt><trkpt lat="41.72291410850026" lon="13.607421596334467"><ele>282.0</ele><time>2026-05-01T10:21:50Z</time></trkpt><trkpt lat="41.722813557726575" lon="13.607597965676437"><ele>282.0</ele><time>2026-05-01T10:21:51Z</time></trkpt><trkpt lat="41.722722078030195" lon="13.607785949282565"><ele>282.0</ele><time>2026-05-01T10:21:52Z</time></trkpt><trkpt lat="41.72262398882217" lon="13.607949285373595"><ele>282.0</ele><time>2026-05-01T10:21:53Z</time></trkpt><trkpt lat="41.72253917069393" lon="13.608098786797616"><ele>282.0</ele><time>2026-05-01T10:21:54Z</time></trkpt><trkpt lat="41.722468672142966" lon="13.608238632510457"><ele>282.0</ele><time>2026-05-01T10:21:55Z</time></trkpt><trkpt lat="41.72239357307241" lon="13.608346665098937"><ele>282.0</ele><time>2026-05-01T10:21:56Z</time></trkpt><trkpt lat="41.72232741522933" lon="13.608469186275157"><ele>282.0</ele><time>2026-05-01T10:21:57Z</time></trkpt><trkpt lat="41.722255584724515" lon="13.60860459161253"><ele>282.0</ele><time>2026-05-01T10:21:58Z</time></trkpt><trkpt lat="41.72218006990386" lon="13.60874761209018"><ele>282.0</ele><time>2026-05-01T10:21:59Z</time></trkpt><trkpt lat="41.722111842077766" lon="13.608877542763395"><ele>282.0</ele><time>2026-05-01T10:22:00Z</time></trkpt><trkpt lat="41.72205869458117" lon="13.608980373232269"><ele>282.3333333333333</ele><time>2026-05-01T10:22:01Z</time></trkpt><trkpt lat="41.722012607189384" lon="13.609070107741235"><ele>282.6666666666667</ele><time>2026-05-01T10:22:02Z</time></trkpt><trkpt lat="41.72197575659001" lon="13.60914205306579"><ele>283.0</ele><time>2026-05-01T10:22:03Z</time></trkpt><trkpt lat="41.72191475077443" lon="13.609261157725152"><ele>283.33333333333337</ele><time>2026-05-01T10:22:05Z</time></trkpt><trkpt lat="41.72185184066551" lon="13.609381725124573"><ele>283.6666666666667</ele><time>2026-05-01T10:22:07Z</time></trkpt><trkpt lat="41.721824547957375" lon="13.609462019704093"><ele>284.0</ele><time>2026-05-01T10:22:08Z</time></trkpt><trkpt lat="41.72173311060751" lon="13.609554071512829"><ele>285.5</ele><time>2026-05-01T10:22:10Z</time></trkpt><trkpt lat="41.72165786136371" lon="13.609623948201488"><ele>287.0</ele><time>2026-05-01T10:22:12Z</time></trkpt><trkpt lat="41.72155905329004" lon="13.60966053501522"><ele>288.5</ele><time>2026-05-01T10:22:14Z</time></trkpt><trkpt lat="41.72149353187724" lon="13.609692144399757"><ele>290.0</ele><time>2026-05-01T10:22:15Z</time></trkpt><trkpt lat="41.72142824237452" lon="13.609728527991685"><ele>291.5</ele><time>2026-05-01T10:22:16Z</time></trkpt><trkpt lat="41.721371942847924" lon="13.609769501634268"><ele>293.0</ele><time>2026-05-01T10:22:17Z</time></trkpt><trkpt lat="41.72124762585788" lon="13.609802342476717"><ele>292.99999999999994</ele><time>2026-05-01T10:22:19Z</time></trkpt><trkpt lat="41.72118416994126" lon="13.609836230647675"><ele>293.0</ele><time>2026-05-01T10:22:20Z</time></trkpt><trkpt lat="41.721118402512005" lon="13.609860326954664"><ele>293.0</ele><time>2026-05-01T10:22:21Z</time></trkpt><trkpt lat="41.721051834837986" lon="13.609887946137043"><ele>293.0</ele><time>2026-05-01T10:22:22Z</time></trkpt><trkpt lat="41.72098569595955" lon="13.609920358013587"><ele>293.0</ele><time>2026-05-01T10:22:23Z</time></trkpt><trkpt lat="41.72091802279919" lon="13.609963314983718"><ele>292.99999999999994</ele><time>2026-05-01T10:22:24Z</time></trkpt><trkpt lat="41.72084792795806" lon="13.609993596189714"><ele>293.0</ele><time>2026-05-01T10:22:25Z</time></trkpt><trkpt lat="41.720788713018514" lon="13.610038137738702"><ele>293.6666666666667</ele><time>2026-05-01T10:22:26Z</time></trkpt><trkpt lat="41.72067281094773" lon="13.61009838962802"><ele>294.33333333333337</ele><time>2026-05-01T10:22:28Z</time></trkpt><trkpt lat="41.7206164988268" lon="13.610146656804096"><ele>295.0</ele><time>2026-05-01T10:22:29Z</time></trkpt><trkpt lat="41.720540895373254" lon="13.610219548936168"><ele>295.6666666666667</ele><time>2026-05-01T10:22:31Z</time></trkpt><trkpt lat="41.72048124195748" lon="13.610267215131419"><ele>296.3333333333333</ele><time>2026-05-01T10:22:33Z</time></trkpt><trkpt lat="41.72042991298773" lon="13.610324132958157"><ele>297.0</ele><time>2026-05-01T10:22:35Z</time></trkpt><trkpt lat="41.7203497278382" lon="13.610396835303654"><ele>297.0</ele><time>2026-05-01T10:22:37Z</time></trkpt><trkpt lat="41.72026224362162" lon="13.61045337235243"><ele>297.0</ele><time>2026-05-01T10:22:39Z</time></trkpt><trkpt lat="41.72017413468478" lon="13.610534000012088"><ele>297.0</ele><time>2026-05-01T10:22:41Z</time></trkpt><trkpt lat="41.720093644103635" lon="13.610652674795038"><ele>297.0</ele><time>2026-05-01T10:22:43Z</time></trkpt><trkpt lat="41.720039338808924" lon="13.610704943720767"><ele>297.0</ele><time>2026-05-01T10:22:44Z</time></trkpt><trkpt lat="41.71996893658719" lon="13.610826172424035"><ele>295.0</ele><time>2026-05-01T10:22:46Z</time></trkpt><trkpt lat="41.71990780202378" lon="13.610942917259782"><ele>293.0</ele><time>2026-05-01T10:22:48Z</time></trkpt><trkpt lat="41.71983818163394" lon="13.611077360862403"><ele>291.0</ele><time>2026-05-01T10:22:50Z</time></trkpt><trkpt lat="41.719791597971366" lon="13.61116787653448"><ele>289.0</ele><time>2026-05-01T10:22:51Z</time></trkpt><trkpt lat="41.71973856611732" lon="13.611270979656856"><ele>287.0</ele><time>2026-05-01T10:22:52Z</time></trkpt><trkpt lat="41.71967850660624" lon="13.611378678641351"><ele>286.83333333333337</ele><time>2026-05-01T10:22:53Z</time></trkpt><trkpt lat="41.71962275630131" lon="13.611476660831206"><ele>286.6666666666667</ele><time>2026-05-01T10:22:54Z</time></trkpt><trkpt lat="41.71956759219611" lon="13.611572254677444"><ele>286.5</ele><time>2026-05-01T10:22:55Z</time></trkpt><trkpt lat="41.71952175123861" lon="13.611649432821203"><ele>286.3333333333333</ele><time>2026-05-01T10:22:56Z</time></trkpt><trkpt lat="41.719479262673005" lon="13.611720138990243"><ele>286.16666666666663</ele><time>2026-05-01T10:22:57Z</time></trkpt><trkpt lat="41.71940625748536" lon="13.61184162853705"><ele>286.0</ele><time>2026-05-01T10:22:58.999Z</time></trkpt><trkpt lat="41.71934357627862" lon="13.611942400384999"><ele>285.6</ele><time>2026-05-01T10:23:00.999Z</time></trkpt><trkpt lat="41.71925807530326" lon="13.61207820787263"><ele>285.20000000000005</ele><time>2026-05-01T10:23:02.999Z</time></trkpt><trkpt lat="41.719213828339726" lon="13.612150078083365"><ele>284.79999999999995</ele><time>2026-05-01T10:23:03.999Z</time></trkpt><trkpt lat="41.71914929814261" lon="13.612289421973246"><ele>284.4</ele><time>2026-05-01T10:23:05.999Z</time></trkpt><trkpt lat="41.71907589482833" lon="13.612371982608492"><ele>284.0</ele><time>2026-05-01T10:23:07.999Z</time></trkpt><trkpt lat="41.71903551094392" lon="13.612438006924998"><ele>284.0</ele><time>2026-05-01T10:23:08.999Z</time></trkpt><trkpt lat="41.71895927365488" lon="13.612584056002856"><ele>284.0</ele><time>2026-05-01T10:23:10.999Z</time></trkpt><trkpt lat="41.71890451963732" lon="13.612725234670071"><ele>284.0</ele><time>2026-05-01T10:23:12.999Z</time></trkpt><trkpt lat="41.71886493396132" lon="13.612839116895158"><ele>284.0</ele><time>2026-05-01T10:23:14.999Z</time></trkpt><trkpt lat="41.71883399511635" lon="13.612923098318083"><ele>284.0</ele><time>2026-05-01T10:23:17.999Z</time></trkpt><trkpt lat="41.718805739576894" lon="13.61300629429178"><ele>284.1666666666667</ele><time>2026-05-01T10:23:25.999Z</time></trkpt><trkpt lat="41.7187812231436" lon="13.613091645653208"><ele>284.33333333333337</ele><time>2026-05-01T10:23:27.999Z</time></trkpt><trkpt lat="41.71880580724458" lon="13.613223286526843"><ele>284.5</ele><time>2026-05-01T10:23:29.999Z</time></trkpt><trkpt lat="41.718812373889826" lon="13.613337833398067"><ele>284.6666666666667</ele><time>2026-05-01T10:23:31.999Z</time></trkpt><trkpt lat="41.718843615186394" lon="13.613454739486187"><ele>284.8333333333333</ele><time>2026-05-01T10:23:33.999Z</time></trkpt><trkpt lat="41.71887916705691" lon="13.613551380364518"><ele>285.0</ele><time>2026-05-01T10:23:35.999Z</time></trkpt><trkpt lat="41.718935002677966" lon="13.613648746602903"><ele>284.6</ele><time>2026-05-01T10:23:37.999Z</time></trkpt><trkpt lat="41.719006747305414" lon="13.613742198664216"><ele>284.2</ele><time>2026-05-01T10:23:39.999Z</time></trkpt><trkpt lat="41.719078431751505" lon="13.613835459711606"><ele>283.8</ele><time>2026-05-01T10:23:41.999Z</time></trkpt><trkpt lat="41.71916256594549" lon="13.613927129984551"><ele>283.4</ele><time>2026-05-01T10:23:43.999Z</time></trkpt><trkpt lat="41.719248526262575" lon="13.614031268474841"><ele>283.0</ele><time>2026-05-01T10:23:45.999Z</time></trkpt><trkpt lat="41.71929837775117" lon="13.614088202454592"><ele>283.0</ele><time>2026-05-01T10:23:46.999Z</time></trkpt><trkpt lat="41.71935037614387" lon="13.614149731834367"><ele>283.0</ele><time>2026-05-01T10:23:47.999Z</time></trkpt><trkpt lat="41.719399112512924" lon="13.614210856091338"><ele>283.0</ele><time>2026-05-01T10:23:48.999Z</time></trkpt><trkpt lat="41.7194532975145" lon="13.614270787060809"><ele>283.0</ele><time>2026-05-01T10:23:50Z</time></trkpt><trkpt lat="41.71951420121796" lon="13.614333300517163"><ele>283.0</ele><time>2026-05-01T10:23:51Z</time></trkpt><trkpt lat="41.7195711406532" lon="13.61440005217601"><ele>283.0</ele><time>2026-05-01T10:23:52Z</time></trkpt><trkpt lat="41.71962821953991" lon="13.614465314465727"><ele>283.0</ele><time>2026-05-01T10:23:53Z</time></trkpt><trkpt lat="41.71968989265873" lon="13.614530609833954"><ele>283.5</ele><time>2026-05-01T10:23:54Z</time></trkpt><trkpt lat="41.719747710224595" lon="13.614603799305236"><ele>284.0</ele><time>2026-05-01T10:23:55Z</time></trkpt><trkpt lat="41.71981108139142" lon="13.614676444385497"><ele>284.5</ele><time>2026-05-01T10:23:56Z</time></trkpt><trkpt lat="41.719875920988414" lon="13.614751844805891"><ele>285.0</ele><time>2026-05-01T10:23:57Z</time></trkpt><trkpt lat="41.71993581915429" lon="13.61481459754189"><ele>285.5</ele><time>2026-05-01T10:23:58Z</time></trkpt><trkpt lat="41.72000046518405" lon="13.614901311839517"><ele>286.0</ele><time>2026-05-01T10:23:59Z</time></trkpt><trkpt lat="41.72005248761031" lon="13.615012238884132"><ele>286.0</ele><time>2026-05-01T10:24:00Z</time></trkpt><trkpt lat="41.720136540500306" lon="13.615090438727012"><ele>286.0</ele><time>2026-05-01T10:24:01Z</time></trkpt><trkpt lat="41.72020084892814" lon="13.615173346859375"><ele>286.0</ele><time>2026-05-01T10:24:02Z</time></trkpt><trkpt lat="41.72026050957303" lon="13.615264877718637"><ele>286.0</ele><time>2026-05-01T10:24:03Z</time></trkpt><trkpt lat="41.72032187254501" lon="13.615348567212502"><ele>286.0</ele><time>2026-05-01T10:24:04Z</time></trkpt><trkpt lat="41.72037408839123" lon="13.615422322037789"><ele>286.0</ele><time>2026-05-01T10:24:05Z</time></trkpt><trkpt lat="41.72043204381712" lon="13.615494699294167"><ele>286.3333333333333</ele><time>2026-05-01T10:24:06Z</time></trkpt><trkpt lat="41.720485615550686" lon="13.615573713025412"><ele>286.66666666666663</ele><time>2026-05-01T10:24:07Z</time></trkpt><trkpt lat="41.72053626572519" lon="13.61564528118575"><ele>287.0</ele><time>2026-05-01T10:24:08Z</time></trkpt><trkpt lat="41.72058195431691" lon="13.615736305104386"><ele>287.3333333333333</ele><time>2026-05-01T10:24:09Z</time></trkpt><trkpt lat="41.72063834871279" lon="13.615818650029624"><ele>287.6666666666667</ele><time>2026-05-01T10:24:10Z</time></trkpt><trkpt lat="41.72069478672375" lon="13.615901926099635"><ele>288.0</ele><time>2026-05-01T10:24:11Z</time></trkpt><trkpt lat="41.720755676281044" lon="13.615983953354384"><ele>288.00000000000006</ele><time>2026-05-01T10:24:12Z</time></trkpt><trkpt lat="41.72081731819845" lon="13.616072601060957"><ele>288.0</ele><time>2026-05-01T10:24:13Z</time></trkpt><trkpt lat="41.72087662770749" lon="13.616149133568607"><ele>288.0</ele><time>2026-05-01T10:24:14Z</time></trkpt><trkpt lat="41.72092203124829" lon="13.616215199236445"><ele>288.0</ele><time>2026-05-01T10:24:15Z</time></trkpt><trkpt lat="41.72096763556811" lon="13.616274772822502"><ele>288.0</ele><time>2026-05-01T10:24:16Z</time></trkpt><trkpt lat="41.721013387779344" lon="13.616341690250216"><ele>288.00000000000006</ele><time>2026-05-01T10:24:17Z</time></trkpt><trkpt lat="41.7210579305703" lon="13.616405892836475"><ele>288.0</ele><time>2026-05-01T10:24:18Z</time></trkpt><trkpt lat="41.721103044490654" lon="13.6164706244741"><ele>288.25</ele><time>2026-05-01T10:24:19Z</time></trkpt><trkpt lat="41.72116523626101" lon="13.61655424622884"><ele>288.5</ele><time>2026-05-01T10:24:21Z</time></trkpt><trkpt lat="41.7212299065093" lon="13.616633280660725"><ele>288.75</ele><time>2026-05-01T10:24:23Z</time></trkpt><trkpt lat="41.7212609452868" lon="13.616717024895403"><ele>289.0</ele><time>2026-05-01T10:24:25Z</time></trkpt><trkpt lat="41.72142102797298" lon="13.616460298114555"><ele>289.0</ele><time>2026-05-01T10:24:27Z</time></trkpt><trkpt lat="41.72149351877319" lon="13.616398921180467"><ele>289.0</ele><time>2026-05-01T10:24:28Z</time></trkpt><trkpt lat="41.721561072422595" lon="13.616345650808466"><ele>289.0</ele><time>2026-05-01T10:24:29Z</time></trkpt><trkpt lat="41.72162325650301" lon="13.616281362730579"><ele>289.0</ele><time>2026-05-01T10:24:30Z</time></trkpt><trkpt lat="41.721685804394575" lon="13.616222358764865"><ele>289.0</ele><time>2026-05-01T10:24:31Z</time></trkpt><trkpt lat="41.721741533411155" lon="13.616172025615546"><ele>289.0</ele><time>2026-05-01T10:24:32Z</time></trkpt><trkpt lat="41.72183875037041" lon="13.616085509884662"><ele>288.59999999999997</ele><time>2026-05-01T10:24:34Z</time></trkpt><trkpt lat="41.72192348814088" lon="13.615991493093402"><ele>288.2</ele><time>2026-05-01T10:24:36Z</time></trkpt><trkpt lat="41.722001040227944" lon="13.615934277063955"><ele>287.79999999999995</ele><time>2026-05-01T10:24:38Z</time></trkpt><trkpt lat="41.72209388443544" lon="13.615856558582493"><ele>287.4</ele><time>2026-05-01T10:24:40Z</time></trkpt><trkpt lat="41.72218865304859" lon="13.615768786884193"><ele>287.0</ele><time>2026-05-01T10:24:42Z</time></trkpt><trkpt lat="41.72226268328618" lon="13.615695246058099"><ele>287.0</ele><time>2026-05-01T10:24:44Z</time></trkpt><trkpt lat="41.72237630076338" lon="13.61577179892373"><ele>287.0</ele><time>2026-05-01T10:24:45Z</time></trkpt><trkpt lat="41.72243660753598" lon="13.61581612064637"><ele>287.0</ele><time>2026-05-01T10:24:46Z</time></trkpt><trkpt lat="41.72250002651229" lon="13.615854679780853"><ele>287.0</ele><time>2026-05-01T10:24:47Z</time></trkpt><trkpt lat="41.72255698685893" lon="13.615897598228557"><ele>287.0</ele><time>2026-05-01T10:24:48Z</time></trkpt><trkpt lat="41.72264531347244" lon="13.615969212059955"><ele>287.0</ele><time>2026-05-01T10:24:50Z</time></trkpt><trkpt lat="41.72273194562799" lon="13.616043836996704"><ele>287.4</ele><time>2026-05-01T10:24:52Z</time></trkpt><trkpt lat="41.72282378051274" lon="13.616113969883639"><ele>287.79999999999995</ele><time>2026-05-01T10:24:54Z</time></trkpt><trkpt lat="41.722942330493304" lon="13.616171772417152"><ele>288.2</ele><time>2026-05-01T10:24:56Z</time></trkpt><trkpt lat="41.7230217505584" lon="13.616212283883835"><ele>288.59999999999997</ele><time>2026-05-01T10:24:57Z</time></trkpt><trkpt lat="41.723083636407026" lon="13.616254077772327"><ele>289.0</ele><time>2026-05-01T10:24:58Z</time></trkpt><trkpt lat="41.72315306489316" lon="13.616291940107784"><ele>289.0</ele><time>2026-05-01T10:24:59Z</time></trkpt><trkpt lat="41.72322473433056" lon="13.61632263378549"><ele>289.0</ele><time>2026-05-01T10:25:00Z</time></trkpt><trkpt lat="41.72329318942079" lon="13.616359889516799"><ele>289.0</ele><time>2026-05-01T10:25:01Z</time></trkpt><trkpt lat="41.72336595125079" lon="13.616393928892597"><ele>289.0</ele><time>2026-05-01T10:25:02Z</time></trkpt><trkpt lat="41.72343616471492" lon="13.616433793168827"><ele>289.0</ele><time>2026-05-01T10:25:03Z</time></trkpt><trkpt lat="41.723506636065316" lon="13.616475953275149"><ele>289.0</ele><time>2026-05-01T10:25:04Z</time></trkpt><trkpt lat="41.72358263703825" lon="13.616504817093324"><ele>289.59999999999997</ele><time>2026-05-01T10:25:04.999Z</time></trkpt><trkpt lat="41.72365076590118" lon="13.616543995895842"><ele>290.2</ele><time>2026-05-01T10:25:05.999Z</time></trkpt><trkpt lat="41.723717892763055" lon="13.616578108286042"><ele>290.79999999999995</ele><time>2026-05-01T10:25:06.999Z</time></trkpt><trkpt lat="41.723813428014914" lon="13.616627583234875"><ele>291.4</ele><time>2026-05-01T10:25:08.999Z</time></trkpt><trkpt lat="41.7239283377329" lon="13.61654036837565"><ele>292.0</ele><time>2026-05-01T10:25:12.999Z</time></trkpt><trkpt lat="41.72397756819823" lon="13.616449393898167"><ele>292.0</ele><time>2026-05-01T10:25:14.999Z</time></trkpt><trkpt lat="41.72408509899153" lon="13.616472859635628"><ele>292.0</ele><time>2026-05-01T10:25:17.999Z</time></trkpt><trkpt lat="41.724135378437836" lon="13.616539786618125"><ele>292.0</ele><time>2026-05-01T10:25:18.999Z</time></trkpt><trkpt lat="41.72419043695273" lon="13.616608200007445"><ele>292.0</ele><time>2026-05-01T10:25:19.999Z</time></trkpt><trkpt lat="41.724248744289056" lon="13.616667435074973"><ele>292.0</ele><time>2026-05-01T10:25:20.999Z</time></trkpt><trkpt lat="41.72430900068685" lon="13.616721493930681"><ele>292.0</ele><time>2026-05-01T10:25:21.999Z</time></trkpt><trkpt lat="41.72437169522315" lon="13.61677631600039"><ele>291.8333333333333</ele><time>2026-05-01T10:25:22.999Z</time></trkpt><trkpt lat="41.724438221761254" lon="13.616832964841871"><ele>291.66666666666663</ele><time>2026-05-01T10:25:23.999Z</time></trkpt><trkpt lat="41.72450685461069" lon="13.61689213743641"><ele>291.5</ele><time>2026-05-01T10:25:24.999Z</time></trkpt><trkpt lat="41.72457882542929" lon="13.616947828056553"><ele>291.3333333333333</ele><time>2026-05-01T10:25:25.999Z</time></trkpt><trkpt lat="41.72465293958213" lon="13.617000295559132"><ele>291.1666666666667</ele><time>2026-05-01T10:25:26.999Z</time></trkpt><trkpt lat="41.72472581179111" lon="13.617052159092836"><ele>291.0</ele><time>2026-05-01T10:25:27.999Z</time></trkpt><trkpt lat="41.7247895734615" lon="13.61712787143601"><ele>291.0</ele><time>2026-05-01T10:25:28.999Z</time></trkpt><trkpt lat="41.72485900182377" lon="13.617175519658137"><ele>291.0</ele><time>2026-05-01T10:25:29.999Z</time></trkpt><trkpt lat="41.72492799679631" lon="13.617222523935855"><ele>291.0</ele><time>2026-05-01T10:25:30.999Z</time></trkpt><trkpt lat="41.72499825858643" lon="13.617267628898237"><ele>291.0</ele><time>2026-05-01T10:25:31.999Z</time></trkpt><trkpt lat="41.7250725706934" lon="13.61731533397643"><ele>291.0</ele><time>2026-05-01T10:25:32.999Z</time></trkpt><trkpt lat="41.72514593990133" lon="13.61736243355758"><ele>291.0</ele><time>2026-05-01T10:25:33.999Z</time></trkpt><trkpt lat="41.725219733680035" lon="13.617403115276119"><ele>291.3333333333333</ele><time>2026-05-01T10:25:34.999Z</time></trkpt><trkpt lat="41.725299494197515" lon="13.617425608740003"><ele>291.6666666666667</ele><time>2026-05-01T10:25:35.999Z</time></trkpt><trkpt lat="41.72536889450781" lon="13.617487132363689"><ele>292.0</ele><time>2026-05-01T10:25:36.999Z</time></trkpt><trkpt lat="41.72544652665995" lon="13.617530753162018"><ele>292.33333333333337</ele><time>2026-05-01T10:25:37.999Z</time></trkpt><trkpt lat="41.72552533504645" lon="13.617574164780011"><ele>292.6666666666667</ele><time>2026-05-01T10:25:38.999Z</time></trkpt><trkpt lat="41.72561235823096" lon="13.617595282835477"><ele>293.0</ele><time>2026-05-01T10:25:39.999Z</time></trkpt><trkpt lat="41.72569533418786" lon="13.617637885155231"><ele>293.0</ele><time>2026-05-01T10:25:40.999Z</time></trkpt><trkpt lat="41.725781093929754" lon="13.617677812420014"><ele>293.0</ele><time>2026-05-01T10:25:41.999Z</time></trkpt><trkpt lat="41.72586890551777" lon="13.617715568072102"><ele>293.0</ele><time>2026-05-01T10:25:42.999Z</time></trkpt><trkpt lat="41.72595176667223" lon="13.617756951854206"><ele>293.0</ele><time>2026-05-01T10:25:43.999Z</time></trkpt><trkpt lat="41.726026244037236" lon="13.617794193589148"><ele>293.0</ele><time>2026-05-01T10:25:44.999Z</time></trkpt><trkpt lat="41.72609999802188" lon="13.617823327435339"><ele>293.0</ele><time>2026-05-01T10:25:45.999Z</time></trkpt><trkpt lat="41.72616890638352" lon="13.617879943431666"><ele>292.5</ele><time>2026-05-01T10:25:46.999Z</time></trkpt><trkpt lat="41.72624795805619" lon="13.61789681239089"><ele>292.0</ele><time>2026-05-01T10:25:47.999Z</time></trkpt><trkpt lat="41.72632413079111" lon="13.617957557244063"><ele>291.5</ele><time>2026-05-01T10:25:48.999Z</time></trkpt><trkpt lat="41.7264096395965" lon="13.618000313150015"><ele>291.0</ele><time>2026-05-01T10:25:49.999Z</time></trkpt><trkpt lat="41.72649785386315" lon="13.618042589522634"><ele>290.5</ele><time>2026-05-01T10:25:50.999Z</time></trkpt><trkpt lat="41.72658176128039" lon="13.618084772118515"><ele>290.0</ele><time>2026-05-01T10:25:51.999Z</time></trkpt><trkpt lat="41.72666921937579" lon="13.618128459058624"><ele>290.0</ele><time>2026-05-01T10:25:52.999Z</time></trkpt><trkpt lat="41.7267565706883" lon="13.618172092621554"><ele>290.0</ele><time>2026-05-01T10:25:53.999Z</time></trkpt><trkpt lat="41.726850007048775" lon="13.618194097154857"><ele>290.0</ele><time>2026-05-01T10:25:54.999Z</time></trkpt><trkpt lat="41.72693083589441" lon="13.618245636692654"><ele>290.0</ele><time>2026-05-01T10:25:56Z</time></trkpt><trkpt lat="41.727013655949875" lon="13.618285192968754"><ele>290.0</ele><time>2026-05-01T10:25:57Z</time></trkpt><trkpt lat="41.7270965220326" lon="13.618311676221234"><ele>290.1666666666667</ele><time>2026-05-01T10:25:58Z</time></trkpt><trkpt lat="41.72718257886239" lon="13.618321091614181"><ele>290.33333333333337</ele><time>2026-05-01T10:25:59Z</time></trkpt><trkpt lat="41.727267542039456" lon="13.618312826136895"><ele>290.5</ele><time>2026-05-01T10:26:00Z</time></trkpt><trkpt lat="41.727352312648" lon="13.61829161940856"><ele>290.6666666666667</ele><time>2026-05-01T10:26:01Z</time></trkpt><trkpt lat="41.72743554545257" lon="13.618270624023944"><ele>290.8333333333333</ele><time>2026-05-01T10:26:02Z</time></trkpt><trkpt lat="41.72750648904221" lon="13.618260869856911"><ele>291.0</ele><time>2026-05-01T10:26:03Z</time></trkpt><trkpt lat="41.727572114489185" lon="13.618278176503177"><ele>291.0</ele><time>2026-05-01T10:26:04Z</time></trkpt><trkpt lat="41.72768536934785" lon="13.6184434586686"><ele>291.0</ele><time>2026-05-01T10:26:06Z</time></trkpt><trkpt lat="41.72771930736214" lon="13.61856941844116"><ele>291.0</ele><time>2026-05-01T10:26:07Z</time></trkpt><trkpt lat="41.7277579227528" lon="13.618715924516241"><ele>291.0</ele><time>2026-05-01T10:26:08Z</time></trkpt><trkpt lat="41.727798838211655" lon="13.618869623040318"><ele>290.25</ele><time>2026-05-01T10:26:09Z</time></trkpt><trkpt lat="41.727850696308806" lon="13.619030416028366"><ele>289.5</ele><time>2026-05-01T10:26:10Z</time></trkpt><trkpt lat="41.727905258216474" lon="13.619201018611708"><ele>288.75</ele><time>2026-05-01T10:26:11Z</time></trkpt><trkpt lat="41.727957931344136" lon="13.619377281800837"><ele>288.0</ele><time>2026-05-01T10:26:12Z</time></trkpt><trkpt lat="41.72800908420291" lon="13.619558777511092"><ele>287.5</ele><time>2026-05-01T10:26:13Z</time></trkpt><trkpt lat="41.72806142144018" lon="13.619737059941063"><ele>287.0</ele><time>2026-05-01T10:26:14Z</time></trkpt><trkpt lat="41.72811613339305" lon="13.619917989428956"><ele>286.5</ele><time>2026-05-01T10:26:15Z</time></trkpt><trkpt lat="41.72817117050733" lon="13.620103718048407"><ele>286.0</ele><time>2026-05-01T10:26:16Z</time></trkpt><trkpt lat="41.72822226403348" lon="13.620276346925454"><ele>286.25</ele><time>2026-05-01T10:26:17Z</time></trkpt><trkpt lat="41.72827191542378" lon="13.62044094136216"><ele>286.5</ele><time>2026-05-01T10:26:18Z</time></trkpt><trkpt lat="41.7283160383214" lon="13.620598077655373"><ele>286.75</ele><time>2026-05-01T10:26:19Z</time></trkpt><trkpt lat="41.72836041638696" lon="13.62075974079578"><ele>287.0</ele><time>2026-05-01T10:26:20Z</time></trkpt><trkpt lat="41.72839984515464" lon="13.62092121352552"><ele>287.0</ele><time>2026-05-01T10:26:21Z</time></trkpt><trkpt lat="41.728436923362295" lon="13.621070120571172"><ele>287.0</ele><time>2026-05-01T10:26:22Z</time></trkpt><trkpt lat="41.72847260580301" lon="13.621201009415143"><ele>287.0</ele><time>2026-05-01T10:26:23Z</time></trkpt><trkpt lat="41.72850380047186" lon="13.621304001648019"><ele>287.0</ele><time>2026-05-01T10:26:24Z</time></trkpt><trkpt lat="41.72854191581294" lon="13.621421917323007"><ele>287.0</ele><time>2026-05-01T10:26:26Z</time></trkpt><trkpt lat="41.728633989094774" lon="13.621413955317928"><ele>287.2</ele><time>2026-05-01T10:26:29Z</time></trkpt><trkpt lat="41.72875517561457" lon="13.621363135240598"><ele>287.4</ele><time>2026-05-01T10:26:31Z</time></trkpt><trkpt lat="41.72883331371101" lon="13.621369023153935"><ele>287.6</ele><time>2026-05-01T10:26:32Z</time></trkpt><trkpt lat="41.72892003641687" lon="13.621346599186808"><ele>287.8</ele><time>2026-05-01T10:26:33Z</time></trkpt><trkpt lat="41.728994320433785" lon="13.621364530251839"><ele>288.0</ele><time>2026-05-01T10:26:34Z</time></trkpt><trkpt lat="41.72909762745189" lon="13.621395568078006"><ele>288.0</ele><time>2026-05-01T10:26:36Z</time></trkpt><trkpt lat="41.72918537137892" lon="13.621412320202223"><ele>288.0</ele><time>2026-05-01T10:26:38Z</time></trkpt><trkpt lat="41.72919512571462" lon="13.621318798914155"><ele>288.0</ele><time>2026-05-01T10:26:44Z</time></trkpt><trkpt lat="41.72906564575855" lon="13.621348946533981"><ele>288.0</ele><time>2026-05-01T10:26:46Z</time></trkpt><trkpt lat="41.72898605060505" lon="13.621353733812105"><ele>288.0</ele><time>2026-05-01T10:26:47Z</time></trkpt><trkpt lat="41.72890423275753" lon="13.621348242092951"><ele>288.0</ele><time>2026-05-01T10:26:48Z</time></trkpt><trkpt lat="41.72881917829345" lon="13.621342273104379"><ele>288.0</ele><time>2026-05-01T10:26:49Z</time></trkpt><trkpt lat="41.72873161674884" lon="13.621338364368183"><ele>288.0</ele><time>2026-05-01T10:26:50Z</time></trkpt><trkpt lat="41.7286591018562" lon="13.621347160269687"><ele>288.0</ele><time>2026-05-01T10:26:51Z</time></trkpt><trkpt lat="41.72857285076782" lon="13.621380135310595"><ele>288.0</ele><time>2026-05-01T10:26:53Z</time></trkpt><trkpt lat="41.728418567553646" lon="13.62119375724474"><ele>288.0</ele><time>2026-05-01T10:26:55Z</time></trkpt><trkpt lat="41.72855487939619" lon="13.62154346846639"><ele>288.0</ele><time>2026-05-01T10:26:57Z</time></trkpt><trkpt lat="41.72859355790614" lon="13.621655996109624"><ele>288.0</ele><time>2026-05-01T10:26:58Z</time></trkpt><trkpt lat="41.72862823471911" lon="13.62175935518253"><ele>288.0</ele><time>2026-05-01T10:26:58.999Z</time></trkpt><trkpt lat="41.72865589941758" lon="13.621876325350662"><ele>288.0</ele><time>2026-05-01T10:26:59.999Z</time></trkpt><trkpt lat="41.72868173617746" lon="13.622006832809902"><ele>288.0</ele><time>2026-05-01T10:27:00.999Z</time></trkpt><trkpt lat="41.72868825378526" lon="13.622149731054229"><ele>288.0</ele><time>2026-05-01T10:27:01.999Z</time></trkpt><trkpt lat="41.7286906684116" lon="13.622294414763875"><ele>288.0</ele><time>2026-05-01T10:27:02.999Z</time></trkpt><trkpt lat="41.72870289477955" lon="13.62243931695885"><ele>288.0</ele><time>2026-05-01T10:27:03.999Z</time></trkpt><trkpt lat="41.728729317229515" lon="13.6225825865369"><ele>288.0</ele><time>2026-05-01T10:27:04.999Z</time></trkpt><trkpt lat="41.72877110720368" lon="13.622721184477346"><ele>288.0</ele><time>2026-05-01T10:27:05.999Z</time></trkpt><trkpt lat="41.728828169616996" lon="13.622853142040697"><ele>288.0</ele><time>2026-05-01T10:27:06.999Z</time></trkpt><trkpt lat="41.72889326948941" lon="13.622982323055778"><ele>288.25</ele><time>2026-05-01T10:27:07.999Z</time></trkpt><trkpt lat="41.72895784132028" lon="13.623110641236178"><ele>288.5</ele><time>2026-05-01T10:27:08.999Z</time></trkpt><trkpt lat="41.72902646313725" lon="13.62324068866298"><ele>288.75</ele><time>2026-05-01T10:27:09.999Z</time></trkpt><trkpt lat="41.72908654045018" lon="13.623389327178677"><ele>289.0</ele><time>2026-05-01T10:27:10.999Z</time></trkpt><trkpt lat="41.72916677089041" lon="13.62354226658549"><ele>289.25</ele><time>2026-05-01T10:27:11.999Z</time></trkpt><trkpt lat="41.729250925612256" lon="13.623687126870463"><ele>289.5</ele><time>2026-05-01T10:27:12.999Z</time></trkpt><trkpt lat="41.729331787089855" lon="13.623820343983596"><ele>289.75</ele><time>2026-05-01T10:27:13.999Z</time></trkpt><trkpt lat="41.72941738601745" lon="13.623932374865305"><ele>290.0</ele><time>2026-05-01T10:27:14.999Z</time></trkpt><trkpt lat="41.72947955219992" lon="13.624049709668027"><ele>290.0</ele><time>2026-05-01T10:27:15.999Z</time></trkpt><trkpt lat="41.72952732296939" lon="13.62415244536167"><ele>290.0</ele><time>2026-05-01T10:27:16.999Z</time></trkpt><trkpt lat="41.729558195411926" lon="13.62426546267089"><ele>290.0</ele><time>2026-05-01T10:27:18.999Z</time></trkpt><trkpt lat="41.72961495425439" lon="13.624323602293323"><ele>290.0</ele><time>2026-05-01T10:27:21.999Z</time></trkpt><trkpt lat="41.729658541159175" lon="13.624388199052214"><ele>290.0</ele><time>2026-05-01T10:27:22.999Z</time></trkpt><trkpt lat="41.72979453484769" lon="13.624330946745195"><ele>290.0</ele><time>2026-05-01T10:27:23.999Z</time></trkpt><trkpt lat="41.729997947646886" lon="13.624317558115367"><ele>290.0</ele><time>2026-05-01T10:27:25.999Z</time></trkpt><trkpt lat="41.73011158361862" lon="13.624310645877856"><ele>290.0</ele><time>2026-05-01T10:27:26.999Z</time></trkpt><trkpt lat="41.73023295477591" lon="13.624302791722727"><ele>290.0</ele><time>2026-05-01T10:27:27.999Z</time></trkpt><trkpt lat="41.73036677289979" lon="13.624297224583861"><ele>289.5</ele><time>2026-05-01T10:27:28.999Z</time></trkpt><trkpt lat="41.73050893393294" lon="13.624290044541937"><ele>289.0</ele><time>2026-05-01T10:27:29.999Z</time></trkpt><trkpt lat="41.73065112107401" lon="13.624276327698738"><ele>288.5</ele><time>2026-05-01T10:27:30.999Z</time></trkpt><trkpt lat="41.73079725212039" lon="13.624260913726754"><ele>288.0</ele><time>2026-05-01T10:27:31.999Z</time></trkpt><trkpt lat="41.73094353768688" lon="13.624242700937392"><ele>289.3333333333333</ele><time>2026-05-01T10:27:32.999Z</time></trkpt><trkpt lat="41.73109443472027" lon="13.624216586645215"><ele>290.66666666666663</ele><time>2026-05-01T10:27:33.999Z</time></trkpt><trkpt lat="41.731246842779" lon="13.624184471754981"><ele>292.0</ele><time>2026-05-01T10:27:34.999Z</time></trkpt><trkpt lat="41.731404211384614" lon="13.624144148149682"><ele>292.0</ele><time>2026-05-01T10:27:35.999Z</time></trkpt><trkpt lat="41.73156266190218" lon="13.624091545267193"><ele>292.0</ele><time>2026-05-01T10:27:36.999Z</time></trkpt><trkpt lat="41.73172258798582" lon="13.624028969868702"><ele>292.0</ele><time>2026-05-01T10:27:37.999Z</time></trkpt><trkpt lat="41.731884910615356" lon="13.623960872256639"><ele>292.3333333333333</ele><time>2026-05-01T10:27:38.999Z</time></trkpt><trkpt lat="41.732047017736846" lon="13.623892438667335"><ele>292.6666666666667</ele><time>2026-05-01T10:27:39.999Z</time></trkpt><trkpt lat="41.732211097304486" lon="13.623826866086093"><ele>293.0</ele><time>2026-05-01T10:27:40.999Z</time></trkpt><trkpt lat="41.7323708642923" lon="13.62375565782217"><ele>293.0</ele><time>2026-05-01T10:27:41.999Z</time></trkpt><trkpt lat="41.732531998098644" lon="13.62368020384998"><ele>293.0</ele><time>2026-05-01T10:27:42.999Z</time></trkpt><trkpt lat="41.732694971451615" lon="13.623594746838863"><ele>293.0</ele><time>2026-05-01T10:27:43.999Z</time></trkpt><trkpt lat="41.73285094471579" lon="13.623505929161022"><ele>293.6666666666667</ele><time>2026-05-01T10:27:44.999Z</time></trkpt><trkpt lat="41.73298753073484" lon="13.62341436604741"><ele>294.3333333333333</ele><time>2026-05-01T10:27:45.999Z</time></trkpt><trkpt lat="41.733116194001035" lon="13.623309732715096"><ele>295.0</ele><time>2026-05-01T10:27:46.999Z</time></trkpt><trkpt lat="41.733245644051884" lon="13.623194402048918"><ele>295.0</ele><time>2026-05-01T10:27:47.999Z</time></trkpt><trkpt lat="41.73336468681621" lon="13.623076273238139"><ele>295.0</ele><time>2026-05-01T10:27:48.999Z</time></trkpt><trkpt lat="41.733469569179235" lon="13.622959942881572"><ele>295.0</ele><time>2026-05-01T10:27:49.999Z</time></trkpt><trkpt lat="41.73356353154223" lon="13.622839700077389"><ele>295.0</ele><time>2026-05-01T10:27:50.999Z</time></trkpt><trkpt lat="41.733649190443046" lon="13.622707844779297"><ele>297.0</ele><time>2026-05-01T10:27:51.999Z</time></trkpt><trkpt lat="41.733725953738784" lon="13.622568542202476"><ele>299.0</ele><time>2026-05-01T10:27:52.999Z</time></trkpt><trkpt lat="41.7337925141078" lon="13.622431083194801"><ele>301.0</ele><time>2026-05-01T10:27:53.999Z</time></trkpt><trkpt lat="41.7338640266765" lon="13.622301853684268"><ele>303.0</ele><time>2026-05-01T10:27:54.999Z</time></trkpt><trkpt lat="41.73395098833966" lon="13.62217402055163"><ele>303.0</ele><time>2026-05-01T10:27:55.999Z</time></trkpt><trkpt lat="41.734039752302444" lon="13.622070323727037"><ele>303.0</ele><time>2026-05-01T10:27:56.999Z</time></trkpt><trkpt lat="41.73412152045015" lon="13.621981378771823"><ele>303.0</ele><time>2026-05-01T10:27:57.999Z</time></trkpt><trkpt lat="41.734197753588745" lon="13.62190625025708"><ele>303.0</ele><time>2026-05-01T10:27:58.999Z</time></trkpt><trkpt lat="41.73426883491461" lon="13.621829594416166"><ele>303.0</ele><time>2026-05-01T10:27:59.999Z</time></trkpt><trkpt lat="41.73434660224507" lon="13.621741285847877"><ele>303.0</ele><time>2026-05-01T10:28:00.999Z</time></trkpt><trkpt lat="41.734419928991684" lon="13.621639980276198"><ele>303.0</ele><time>2026-05-01T10:28:02Z</time></trkpt><trkpt lat="41.73449917322206" lon="13.621530385755117"><ele>303.0</ele><time>2026-05-01T10:28:03Z</time></trkpt><trkpt lat="41.73458119854349" lon="13.621417409393105"><ele>303.0</ele><time>2026-05-01T10:28:04Z</time></trkpt><trkpt lat="41.734663529012" lon="13.621296471129488"><ele>303.0</ele><time>2026-05-01T10:28:05Z</time></trkpt><trkpt lat="41.73473836645699" lon="13.621174530939642"><ele>303.0</ele><time>2026-05-01T10:28:06Z</time></trkpt><trkpt lat="41.734808518134564" lon="13.621055272986892"><ele>303.0</ele><time>2026-05-01T10:28:07Z</time></trkpt><trkpt lat="41.7348798569114" lon="13.62093865452796"><ele>303.0</ele><time>2026-05-01T10:28:08Z</time></trkpt><trkpt lat="41.73495546934764" lon="13.620814488255887"><ele>302.5</ele><time>2026-05-01T10:28:09Z</time></trkpt><trkpt lat="41.7350291503185" lon="13.620672459831171"><ele>302.0</ele><time>2026-05-01T10:28:10Z</time></trkpt><trkpt lat="41.73510408427504" lon="13.620524570444118"><ele>301.5</ele><time>2026-05-01T10:28:11Z</time></trkpt><trkpt lat="41.735181374003275" lon="13.620372492532692"><ele>301.0</ele><time>2026-05-01T10:28:12Z</time></trkpt><trkpt lat="41.73526220635566" lon="13.620219067188938"><ele>301.0</ele><time>2026-05-01T10:28:13Z</time></trkpt><trkpt lat="41.73534644746311" lon="13.62006576346199"><ele>301.0</ele><time>2026-05-01T10:28:14Z</time></trkpt><trkpt lat="41.735438510155504" lon="13.619914537826286"><ele>301.0</ele><time>2026-05-01T10:28:15Z</time></trkpt><trkpt lat="41.73553906926402" lon="13.619781961293324"><ele>301.0</ele><time>2026-05-01T10:28:16Z</time></trkpt><trkpt lat="41.735649301317764" lon="13.61967598863852"><ele>301.0</ele><time>2026-05-01T10:28:17Z</time></trkpt><trkpt lat="41.73576347951844" lon="13.61958531365936"><ele>301.0</ele><time>2026-05-01T10:28:18Z</time></trkpt><trkpt lat="41.73587583645435" lon="13.61950328161323"><ele>301.0</ele><time>2026-05-01T10:28:19Z</time></trkpt><trkpt lat="41.73598774717956" lon="13.619420345001219"><ele>301.0</ele><time>2026-05-01T10:28:20Z</time></trkpt><trkpt lat="41.736099172937564" lon="13.6193406534864"><ele>299.25</ele><time>2026-05-01T10:28:21Z</time></trkpt><trkpt lat="41.73621450729563" lon="13.619272416998124"><ele>297.5</ele><time>2026-05-01T10:28:22Z</time></trkpt><trkpt lat="41.73633179611293" lon="13.619218872200765"><ele>295.75</ele><time>2026-05-01T10:28:23Z</time></trkpt><trkpt lat="41.73645051269891" lon="13.61919367649061"><ele>294.0</ele><time>2026-05-01T10:28:24Z</time></trkpt><trkpt lat="41.73656883417039" lon="13.619193263474617"><ele>294.0</ele><time>2026-05-01T10:28:25Z</time></trkpt><trkpt lat="41.73669353206948" lon="13.619215988837677"><ele>294.0</ele><time>2026-05-01T10:28:26Z</time></trkpt><trkpt lat="41.73681409231302" lon="13.619284391202914"><ele>294.0</ele><time>2026-05-01T10:28:27Z</time></trkpt><trkpt lat="41.73693891878626" lon="13.619336161898678"><ele>294.0</ele><time>2026-05-01T10:28:28Z</time></trkpt><trkpt lat="41.737060601902186" lon="13.619396177927658"><ele>294.0</ele><time>2026-05-01T10:28:29Z</time></trkpt><trkpt lat="41.73718767939479" lon="13.619449914187825"><ele>294.0</ele><time>2026-05-01T10:28:30Z</time></trkpt><trkpt lat="41.73731780656432" lon="13.619492601793478"><ele>294.0</ele><time>2026-05-01T10:28:31Z</time></trkpt><trkpt lat="41.7374505780631" lon="13.619525259651658"><ele>294.0</ele><time>2026-05-01T10:28:32Z</time></trkpt><trkpt lat="41.73758872802864" lon="13.619530836162621"><ele>294.0</ele><time>2026-05-01T10:28:33Z</time></trkpt><trkpt lat="41.73772728996341" lon="13.619516594267111"><ele>294.0</ele><time>2026-05-01T10:28:34Z</time></trkpt><trkpt lat="41.737867021661366" lon="13.619495723905262"><ele>294.0</ele><time>2026-05-01T10:28:35Z</time></trkpt><trkpt lat="41.73799562548043" lon="13.619474749439355"><ele>294.0</ele><time>2026-05-01T10:28:36Z</time></trkpt><trkpt lat="41.73811401993446" lon="13.619453216669214"><ele>294.0</ele><time>2026-05-01T10:28:37Z</time></trkpt><trkpt lat="41.738239164857504" lon="13.619437610962251"><ele>294.0</ele><time>2026-05-01T10:28:38Z</time></trkpt><trkpt lat="41.7383664619232" lon="13.619420129736435"><ele>294.0</ele><time>2026-05-01T10:28:39Z</time></trkpt><trkpt lat="41.738499735606354" lon="13.619417836221626"><ele>294.0</ele><time>2026-05-01T10:28:40Z</time></trkpt><trkpt lat="41.73863666793595" lon="13.619433330405581"><ele>293.75</ele><time>2026-05-01T10:28:41Z</time></trkpt><trkpt lat="41.738776665237616" lon="13.619455413156402"><ele>293.5</ele><time>2026-05-01T10:28:42Z</time></trkpt><trkpt lat="41.738916770608455" lon="13.619475946412523"><ele>293.25</ele><time>2026-05-01T10:28:43Z</time></trkpt><trkpt lat="41.73903895858449" lon="13.6194945429038"><ele>293.0</ele><time>2026-05-01T10:28:44Z</time></trkpt><trkpt lat="41.73914736261187" lon="13.619527016070087"><ele>295.6</ele><time>2026-05-01T10:28:45Z</time></trkpt><trkpt lat="41.73924210924716" lon="13.619577222322611"><ele>298.20000000000005</ele><time>2026-05-01T10:28:46Z</time></trkpt><trkpt lat="41.73933442403461" lon="13.619638297649374"><ele>300.8</ele><time>2026-05-01T10:28:47Z</time></trkpt><trkpt lat="41.73941362652357" lon="13.619731516091944"><ele>303.40000000000003</ele><time>2026-05-01T10:28:48Z</time></trkpt><trkpt lat="41.73950774985787" lon="13.619779719749538"><ele>306.0</ele><time>2026-05-01T10:28:49Z</time></trkpt><trkpt lat="41.739597591812434" lon="13.619836747393569"><ele>306.0</ele><time>2026-05-01T10:28:50Z</time></trkpt><trkpt lat="41.73969890208434" lon="13.619875921429736"><ele>306.0</ele><time>2026-05-01T10:28:51Z</time></trkpt><trkpt lat="41.73980946551147" lon="13.619887745643874"><ele>306.0</ele><time>2026-05-01T10:28:52Z</time></trkpt><trkpt lat="41.73992716464829" lon="13.619884074264606"><ele>306.0</ele><time>2026-05-01T10:28:53Z</time></trkpt><trkpt lat="41.74004874101054" lon="13.619877508886502"><ele>306.0</ele><time>2026-05-01T10:28:54Z</time></trkpt><trkpt lat="41.74017923544149" lon="13.619860320776658"><ele>306.0</ele><time>2026-05-01T10:28:55Z</time></trkpt><trkpt lat="41.740311987040634" lon="13.619832903804104"><ele>306.0</ele><time>2026-05-01T10:28:56Z</time></trkpt><trkpt lat="41.74043211945455" lon="13.619802288756807"><ele>306.0</ele><time>2026-05-01T10:28:57Z</time></trkpt><trkpt lat="41.740541294959016" lon="13.619766354001959"><ele>306.0</ele><time>2026-05-01T10:28:58Z</time></trkpt><trkpt lat="41.74064275314103" lon="13.61973431442213"><ele>306.0</ele><time>2026-05-01T10:28:59Z</time></trkpt><trkpt lat="41.74073750199188" lon="13.61970534338104"><ele>306.0</ele><time>2026-05-01T10:29:00Z</time></trkpt><trkpt lat="41.740822286429925" lon="13.619676127005679"><ele>306.0</ele><time>2026-05-01T10:29:01Z</time></trkpt><trkpt lat="41.74091343410325" lon="13.619638664208914"><ele>306.0</ele><time>2026-05-01T10:29:02Z</time></trkpt><trkpt lat="41.74101472709261" lon="13.619633159157956"><ele>306.5</ele><time>2026-05-01T10:29:03Z</time></trkpt><trkpt lat="41.7411430606465" lon="13.619602187966226"><ele>307.0</ele><time>2026-05-01T10:29:04Z</time></trkpt><trkpt lat="41.74127200861001" lon="13.61957841833044"><ele>307.5</ele><time>2026-05-01T10:29:05Z</time></trkpt><trkpt lat="41.74140692361034" lon="13.619572932805346"><ele>308.0</ele><time>2026-05-01T10:29:06Z</time></trkpt><trkpt lat="41.74154879811287" lon="13.619575389190102"><ele>308.0</ele><time>2026-05-01T10:29:07Z</time></trkpt><trkpt lat="41.7416955866453" lon="13.6195829071357"><ele>308.0</ele><time>2026-05-01T10:29:07.999Z</time></trkpt><trkpt lat="41.74184974090148" lon="13.6195945299107"><ele>308.0</ele><time>2026-05-01T10:29:08.999Z</time></trkpt><trkpt lat="41.742008826996496" lon="13.619605453732325"><ele>309.33333333333337</ele><time>2026-05-01T10:29:09.999Z</time></trkpt><trkpt lat="41.74217320624522" lon="13.619586771663183"><ele>310.6666666666667</ele><time>2026-05-01T10:29:10.999Z</time></trkpt><trkpt lat="41.74233482909717" lon="13.619574586304928"><ele>312.0</ele><time>2026-05-01T10:29:11.999Z</time></trkpt><trkpt lat="41.74249375063094" lon="13.619519063046518"><ele>309.3333333333333</ele><time>2026-05-01T10:29:12.999Z</time></trkpt><trkpt lat="41.742650693273085" lon="13.619431703903546"><ele>306.66666666666663</ele><time>2026-05-01T10:29:13.999Z</time></trkpt><trkpt lat="41.742807225961656" lon="13.619315945938917"><ele>304.0</ele><time>2026-05-01T10:29:14.999Z</time></trkpt><trkpt lat="41.74296086718153" lon="13.619196695761069"><ele>304.0</ele><time>2026-05-01T10:29:15.999Z</time></trkpt><trkpt lat="41.74310851033097" lon="13.619078987578252"><ele>304.0</ele><time>2026-05-01T10:29:16.999Z</time></trkpt><trkpt lat="41.74325610727758" lon="13.61897376551478"><ele>304.0</ele><time>2026-05-01T10:29:17.999Z</time></trkpt><trkpt lat="41.74341284428239" lon="13.618888429503535"><ele>303.0</ele><time>2026-05-01T10:29:18.999Z</time></trkpt><trkpt lat="41.74357957601201" lon="13.618873922190941"><ele>302.0</ele><time>2026-05-01T10:29:19.999Z</time></trkpt><trkpt lat="41.74372732009268" lon="13.618892577896675"><ele>301.0</ele><time>2026-05-01T10:29:20.999Z</time></trkpt><trkpt lat="41.74384576317666" lon="13.61896101793619"><ele>300.0</ele><time>2026-05-01T10:29:21.999Z</time></trkpt><trkpt lat="41.7439638741333" lon="13.619065201685261"><ele>300.0</ele><time>2026-05-01T10:29:22.999Z</time></trkpt><trkpt lat="41.744085968837624" lon="13.619199287277308"><ele>300.0</ele><time>2026-05-01T10:29:23.999Z</time></trkpt><trkpt lat="41.744201322001345" lon="13.619322316664787"><ele>300.0</ele><time>2026-05-01T10:29:24.999Z</time></trkpt><trkpt lat="41.74433315936642" lon="13.619406121240354"><ele>300.3333333333333</ele><time>2026-05-01T10:29:25.999Z</time></trkpt><trkpt lat="41.744473541446965" lon="13.619445271856577"><ele>300.66666666666663</ele><time>2026-05-01T10:29:26.999Z</time></trkpt><trkpt lat="41.74462576598811" lon="13.619412242840621"><ele>301.0</ele><time>2026-05-01T10:29:27.999Z</time></trkpt><trkpt lat="41.74477756161495" lon="13.619331087927016"><ele>301.0</ele><time>2026-05-01T10:29:28.999Z</time></trkpt><trkpt lat="41.744933172141145" lon="13.619254145382541"><ele>301.0</ele><time>2026-05-01T10:29:29.999Z</time></trkpt><trkpt lat="41.74508758759038" lon="13.619174824870996"><ele>301.0</ele><time>2026-05-01T10:29:30.999Z</time></trkpt><trkpt lat="41.74523342214675" lon="13.619092315384522"><ele>303.3333333333333</ele><time>2026-05-01T10:29:31.999Z</time></trkpt><trkpt lat="41.745379192176415" lon="13.61900591932517"><ele>305.6666666666667</ele><time>2026-05-01T10:29:32.999Z</time></trkpt><trkpt lat="41.745520313054406" lon="13.618916213418101"><ele>308.0</ele><time>2026-05-01T10:29:33.999Z</time></trkpt><trkpt lat="41.74565789479136" lon="13.618822918369684"><ele>308.0</ele><time>2026-05-01T10:29:34.999Z</time></trkpt><trkpt lat="41.745791057330585" lon="13.618712116951954"><ele>308.0</ele><time>2026-05-01T10:29:35.999Z</time></trkpt><trkpt lat="41.74592979731599" lon="13.618604389071418"><ele>308.0</ele><time>2026-05-01T10:29:36.999Z</time></trkpt><trkpt lat="41.74606563631636" lon="13.618495330605286"><ele>306.0</ele><time>2026-05-01T10:29:37.999Z</time></trkpt><trkpt lat="41.746193788707416" lon="13.618392646654753"><ele>304.0</ele><time>2026-05-01T10:29:38.999Z</time></trkpt><trkpt lat="41.74631734230874" lon="13.618301641176432"><ele>302.0</ele><time>2026-05-01T10:29:39.999Z</time></trkpt><trkpt lat="41.7464427432457" lon="13.618232235044642"><ele>300.0</ele><time>2026-05-01T10:29:40.999Z</time></trkpt><trkpt lat="41.74657908373506" lon="13.618189505003476"><ele>300.0</ele><time>2026-05-01T10:29:41.999Z</time></trkpt><trkpt lat="41.74672095389973" lon="13.618202468555708"><ele>300.0</ele><time>2026-05-01T10:29:42.999Z</time></trkpt><trkpt lat="41.746850400522895" lon="13.618288945521352"><ele>300.0</ele><time>2026-05-01T10:29:43.999Z</time></trkpt><trkpt lat="41.74697032242786" lon="13.6183924747489"><ele>300.0</ele><time>2026-05-01T10:29:44.999Z</time></trkpt><trkpt lat="41.74706356454662" lon="13.618525828821559"><ele>299.75</ele><time>2026-05-01T10:29:45.999Z</time></trkpt><trkpt lat="41.74714531927363" lon="13.618679642038494"><ele>299.5</ele><time>2026-05-01T10:29:46.999Z</time></trkpt><trkpt lat="41.74722824921287" lon="13.618842064322253"><ele>299.25</ele><time>2026-05-01T10:29:47.999Z</time></trkpt><trkpt lat="41.74731153400427" lon="13.619011947844367"><ele>299.0</ele><time>2026-05-01T10:29:48.999Z</time></trkpt><trkpt lat="41.74741377073329" lon="13.619172258012588"><ele>299.0</ele><time>2026-05-01T10:29:49.999Z</time></trkpt><trkpt lat="41.74750242136369" lon="13.619344207677857"><ele>299.0</ele><time>2026-05-01T10:29:50.999Z</time></trkpt><trkpt lat="41.74757144515048" lon="13.619509018415673"><ele>299.0</ele><time>2026-05-01T10:29:51.999Z</time></trkpt><trkpt lat="41.74764979397057" lon="13.619648527256867"><ele>299.0</ele><time>2026-05-01T10:29:52.999Z</time></trkpt><trkpt lat="41.74773129665459" lon="13.619775406461178"><ele>298.5</ele><time>2026-05-01T10:29:53.999Z</time></trkpt><trkpt lat="41.74781442192579" lon="13.619889777589886"><ele>298.0</ele><time>2026-05-01T10:29:54.999Z</time></trkpt><trkpt lat="41.74792002283326" lon="13.619998002237288"><ele>297.5</ele><time>2026-05-01T10:29:55.999Z</time></trkpt><trkpt lat="41.74802937232288" lon="13.620120431517476"><ele>297.0</ele><time>2026-05-01T10:29:56.999Z</time></trkpt><trkpt lat="41.74814654973751" lon="13.620236192770031"><ele>296.3333333333333</ele><time>2026-05-01T10:29:57.999Z</time></trkpt><trkpt lat="41.74827554090116" lon="13.620347559360352"><ele>295.66666666666663</ele><time>2026-05-01T10:29:58.999Z</time></trkpt><trkpt lat="41.74841333121285" lon="13.620460634902619"><ele>295.0</ele><time>2026-05-01T10:29:59.999Z</time></trkpt><trkpt lat="41.748552339582055" lon="13.620570172173826"><ele>295.0</ele><time>2026-05-01T10:30:00.999Z</time></trkpt><trkpt lat="41.74869377297156" lon="13.620685086514147"><ele>295.0</ele><time>2026-05-01T10:30:01.999Z</time></trkpt><trkpt lat="41.74883603429906" lon="13.62079954274979"><ele>295.0</ele><time>2026-05-01T10:30:02.999Z</time></trkpt><trkpt lat="41.74897487796233" lon="13.620912741178923"><ele>295.0</ele><time>2026-05-01T10:30:03.999Z</time></trkpt><trkpt lat="41.749107818286355" lon="13.62101809210663"><ele>295.0</ele><time>2026-05-01T10:30:04.999Z</time></trkpt><trkpt lat="41.749240145163384" lon="13.621107808985311"><ele>295.0</ele><time>2026-05-01T10:30:05.999Z</time></trkpt><trkpt lat="41.74938723470325" lon="13.621165210273348"><ele>295.3333333333333</ele><time>2026-05-01T10:30:06.999Z</time></trkpt><trkpt lat="41.74954651481905" lon="13.621174941312843"><ele>295.6666666666667</ele><time>2026-05-01T10:30:08Z</time></trkpt><trkpt lat="41.749711566349696" lon="13.621135956386318"><ele>296.0</ele><time>2026-05-01T10:30:09Z</time></trkpt><trkpt lat="41.74987964499966" lon="13.621062498802331"><ele>296.0</ele><time>2026-05-01T10:30:10Z</time></trkpt><trkpt lat="41.75006402523746" lon="13.620976511879928"><ele>296.0</ele><time>2026-05-01T10:30:11Z</time></trkpt><trkpt lat="41.750270182827634" lon="13.620881403443924"><ele>296.0</ele><time>2026-05-01T10:30:12Z</time></trkpt><trkpt lat="41.7504900212369" lon="13.620781795206371"><ele>298.6666666666667</ele><time>2026-05-01T10:30:13Z</time></trkpt><trkpt lat="41.750707583035" lon="13.620674343618292"><ele>301.3333333333333</ele><time>2026-05-01T10:30:14Z</time></trkpt><trkpt lat="41.750907365291425" lon="13.620576670333085"><ele>304.0</ele><time>2026-05-01T10:30:15Z</time></trkpt><trkpt lat="41.75109812293787" lon="13.620480492775489"><ele>302.3333333333333</ele><time>2026-05-01T10:30:16Z</time></trkpt><trkpt lat="41.75128001775888" lon="13.620383405295293"><ele>300.6666666666667</ele><time>2026-05-01T10:30:17Z</time></trkpt><trkpt lat="41.751474875513715" lon="13.6202620960657"><ele>299.0</ele><time>2026-05-01T10:30:18Z</time></trkpt><trkpt lat="41.75167687282095" lon="13.620095072154342"><ele>305.5</ele><time>2026-05-01T10:30:19Z</time></trkpt><trkpt lat="41.75188519170634" lon="13.619883371734614"><ele>312.0</ele><time>2026-05-01T10:30:20Z</time></trkpt><trkpt lat="41.75210247265974" lon="13.61964889118131"><ele>306.5</ele><time>2026-05-01T10:30:21Z</time></trkpt><trkpt lat="41.75231727731657" lon="13.619428446457633"><ele>301.0</ele><time>2026-05-01T10:30:22Z</time></trkpt><trkpt lat="41.75250877904083" lon="13.619233073393934"><ele>301.0</ele><time>2026-05-01T10:30:23Z</time></trkpt><trkpt lat="41.75268063335543" lon="13.619064010457759"><ele>301.0</ele><time>2026-05-01T10:30:24Z</time></trkpt><trkpt lat="41.75284662291745" lon="13.618906940244552"><ele>301.0</ele><time>2026-05-01T10:30:25Z</time></trkpt><trkpt lat="41.75299960315735" lon="13.618761318802854"><ele>300.66666666666663</ele><time>2026-05-01T10:30:26Z</time></trkpt><trkpt lat="41.75314759969603" lon="13.618618344474342"><ele>300.3333333333333</ele><time>2026-05-01T10:30:27Z</time></trkpt><trkpt lat="41.753298371484526" lon="13.618466345024599"><ele>300.0</ele><time>2026-05-01T10:30:28Z</time></trkpt><trkpt lat="41.75345760883782" lon="13.61829746019814"><ele>302.3333333333333</ele><time>2026-05-01T10:30:29Z</time></trkpt><trkpt lat="41.753611998721134" lon="13.618120438916792"><ele>304.66666666666663</ele><time>2026-05-01T10:30:30Z</time></trkpt><trkpt lat="41.75374540446639" lon="13.617913352259126"><ele>307.0</ele><time>2026-05-01T10:30:31Z</time></trkpt><trkpt lat="41.75385170490918" lon="13.617654165092"><ele>307.0</ele><time>2026-05-01T10:30:32Z</time></trkpt><trkpt lat="41.75393560025339" lon="13.61734403001503"><ele>307.0</ele><time>2026-05-01T10:30:33Z</time></trkpt><trkpt lat="41.75401758098666" lon="13.617018401190524"><ele>305.0</ele><time>2026-05-01T10:30:34Z</time></trkpt><trkpt lat="41.75409967794651" lon="13.616709358022012"><ele>303.0</ele><time>2026-05-01T10:30:35Z</time></trkpt><trkpt lat="41.75416120507979" lon="13.61643479399038"><ele>303.0</ele><time>2026-05-01T10:30:36Z</time></trkpt><trkpt lat="41.754221127801046" lon="13.616195176988262"><ele>303.0</ele><time>2026-05-01T10:30:37Z</time></trkpt><trkpt lat="41.754277286385474" lon="13.615991105005476"><ele>303.0</ele><time>2026-05-01T10:30:38Z</time></trkpt><trkpt lat="41.75432959701511" lon="13.615807471922626"><ele>303.25</ele><time>2026-05-01T10:30:39Z</time></trkpt><trkpt lat="41.75438640421717" lon="13.615641328427776"><ele>303.5</ele><time>2026-05-01T10:30:40Z</time></trkpt><trkpt lat="41.75444875315855" lon="13.615496014837445"><ele>303.75</ele><time>2026-05-01T10:30:41Z</time></trkpt><trkpt lat="41.754513881654994" lon="13.615370536704077"><ele>304.0</ele><time>2026-05-01T10:30:42Z</time></trkpt><trkpt lat="41.754572936026975" lon="13.61526199054472"><ele>303.5</ele><time>2026-05-01T10:30:43Z</time></trkpt><trkpt lat="41.75462895654932" lon="13.615161437814246"><ele>303.0</ele><time>2026-05-01T10:30:44Z</time></trkpt><trkpt lat="41.754679715566866" lon="13.615069752503185"><ele>302.5</ele><time>2026-05-01T10:30:45Z</time></trkpt><trkpt lat="41.75473086897789" lon="13.614989689435866"><ele>302.0</ele><time>2026-05-01T10:30:46Z</time></trkpt><trkpt lat="41.754781103059635" lon="13.614904759598936"><ele>301.5</ele><time>2026-05-01T10:30:47Z</time></trkpt><trkpt lat="41.75482962932098" lon="13.614820926903606"><ele>301.0</ele><time>2026-05-01T10:30:48Z</time></trkpt><trkpt lat="41.7549080937791" lon="13.614792669920766"><ele>301.0</ele><time>2026-05-01T10:30:50Z</time></trkpt><trkpt lat="41.75494990985214" lon="13.614873230174357"><ele>301.0</ele><time>2026-05-01T10:30:52Z</time></trkpt><trkpt lat="41.754919766913986" lon="13.61495622596534"><ele>301.0</ele><time>2026-05-01T10:30:53Z</time></trkpt><trkpt lat="41.75492113966799" lon="13.61506732711479"><ele>301.0</ele><time>2026-05-01T10:30:54Z</time></trkpt><trkpt lat="41.75493792318121" lon="13.615187309260444"><ele>301.0</ele><time>2026-05-01T10:30:55Z</time></trkpt><trkpt lat="41.75494222112554" lon="13.615323954907208"><ele>301.0</ele><time>2026-05-01T10:30:56Z</time></trkpt><trkpt lat="41.75497062346745" lon="13.615466786582186"><ele>301.75</ele><time>2026-05-01T10:30:57Z</time></trkpt><trkpt lat="41.755032120683154" lon="13.615605714203118"><ele>302.5</ele><time>2026-05-01T10:30:58Z</time></trkpt><trkpt lat="41.755120944177655" lon="13.615729539634795"><ele>303.25</ele><time>2026-05-01T10:30:59Z</time></trkpt><trkpt lat="41.75524194384754" lon="13.615833082087667"><ele>304.0</ele><time>2026-05-01T10:31:00Z</time></trkpt><trkpt lat="41.75538929160959" lon="13.615923909509181"><ele>305.66666666666663</ele><time>2026-05-01T10:31:01Z</time></trkpt><trkpt lat="41.75553461132332" lon="13.616012756961352"><ele>307.3333333333333</ele><time>2026-05-01T10:31:02Z</time></trkpt><trkpt lat="41.755682258663334" lon="13.616095854669615"><ele>309.0</ele><time>2026-05-01T10:31:03Z</time></trkpt><trkpt lat="41.75583583445995" lon="13.616163441392262"><ele>310.5</ele><time>2026-05-01T10:31:04Z</time></trkpt><trkpt lat="41.75598538660501" lon="13.616218049400574"><ele>312.0</ele><time>2026-05-01T10:31:05Z</time></trkpt><trkpt lat="41.75611760943018" lon="13.616264724274009"><ele>313.5</ele><time>2026-05-01T10:31:06Z</time></trkpt><trkpt lat="41.756211725553655" lon="13.616355203880678"><ele>315.0</ele><time>2026-05-01T10:31:07Z</time></trkpt><trkpt lat="41.756281988619584" lon="13.61642233633759"><ele>315.0</ele><time>2026-05-01T10:31:08Z</time></trkpt><trkpt lat="41.75629385960769" lon="13.61650889407981"><ele>315.0</ele><time>2026-05-01T10:31:09Z</time></trkpt><trkpt lat="41.756271120790856" lon="13.616591045603814"><ele>315.0</ele><time>2026-05-01T10:31:10Z</time></trkpt><trkpt lat="41.756197878047246" lon="13.616656499078271"><ele>315.0</ele><time>2026-05-01T10:31:11Z</time></trkpt><trkpt lat="41.75614004257125" lon="13.61677932405391"><ele>315.0</ele><time>2026-05-01T10:31:12Z</time></trkpt><trkpt lat="41.7560652394883" lon="13.616895137046399"><ele>315.0</ele><time>2026-05-01T10:31:13Z</time></trkpt><trkpt lat="41.75598093220263" lon="13.616973292349192"><ele>318.6</ele><time>2026-05-01T10:31:14Z</time></trkpt><trkpt lat="41.75589408351844" lon="13.616990222070697"><ele>322.2</ele><time>2026-05-01T10:31:15Z</time></trkpt><trkpt lat="41.755781204114435" lon="13.617007658180269"><ele>325.79999999999995</ele><time>2026-05-01T10:31:16Z</time></trkpt><trkpt lat="41.75568148224682" lon="13.617016520525892"><ele>329.4</ele><time>2026-05-01T10:31:17Z</time></trkpt><trkpt lat="41.75559896431482" lon="13.61701790444045"><ele>333.0</ele><time>2026-05-01T10:31:18Z</time></trkpt><trkpt lat="41.75552861405304" lon="13.61701175668423"><ele>333.0</ele><time>2026-05-01T10:31:19Z</time></trkpt><trkpt lat="41.75542207221349" lon="13.61702549447443"><ele>333.0</ele><time>2026-05-01T10:31:21Z</time></trkpt><trkpt lat="41.7553321987232" lon="13.617122044099798"><ele>333.0</ele><time>2026-05-01T10:31:24.999Z</time></trkpt><trkpt lat="41.755254189275945" lon="13.617192306709361"><ele>333.0</ele><time>2026-05-01T10:31:26.999Z</time></trkpt><trkpt lat="41.75543014206958" lon="13.617607872711433"><ele>322.0</ele><time>2026-05-01T10:31:38.999Z</time></trkpt><trkpt lat="41.75611234384222" lon="13.616904511665718"><ele>322.0</ele><time>2026-05-01T10:31:47.999Z</time></trkpt><trkpt lat="41.75617833308941" lon="13.616802168657998"><ele>322.0</ele><time>2026-05-01T10:31:48.999Z</time></trkpt><trkpt lat="41.7562204898536" lon="13.61668669189807"><ele>322.0</ele><time>2026-05-01T10:31:49.999Z</time></trkpt><trkpt lat="41.7562585903854" lon="13.616588158694963"><ele>322.0</ele><time>2026-05-01T10:31:50.999Z</time></trkpt><trkpt lat="41.75628241945593" lon="13.616504284088878"><ele>322.0</ele><time>2026-05-01T10:31:51.999Z</time></trkpt><trkpt lat="41.75623972203584" lon="13.616350352289532"><ele>322.0</ele><time>2026-05-01T10:31:53.999Z</time></trkpt><trkpt lat="41.75617110797283" lon="13.616286395205552"><ele>322.0</ele><time>2026-05-01T10:31:54.999Z</time></trkpt><trkpt lat="41.75608380056742" lon="13.616236099374888"><ele>322.0</ele><time>2026-05-01T10:31:55.999Z</time></trkpt><trkpt lat="41.75598354985751" lon="13.616193977236069"><ele>322.0</ele><time>2026-05-01T10:31:56.999Z</time></trkpt><trkpt lat="41.75588137393339" lon="13.61616587395121"><ele>322.0</ele><time>2026-05-01T10:31:57.999Z</time></trkpt><trkpt lat="41.75578954391056" lon="13.616144407913792"><ele>319.40000000000003</ele><time>2026-05-01T10:31:58.999Z</time></trkpt><trkpt lat="41.755727923417794" lon="13.616073367162816"><ele>316.8</ele><time>2026-05-01T10:31:59.999Z</time></trkpt><trkpt lat="41.75565839974811" lon="13.61602789483034"><ele>314.2</ele><time>2026-05-01T10:32:01.999Z</time></trkpt><trkpt lat="41.75576047930344" lon="13.61582974703788"><ele>311.6</ele><time>2026-05-01T10:32:07.999Z</time></trkpt><trkpt lat="41.75582422986642" lon="13.61576388612532"><ele>309.0</ele><time>2026-05-01T10:32:08.999Z</time></trkpt><trkpt lat="41.755897062178796" lon="13.615691398923431"><ele>309.0</ele><time>2026-05-01T10:32:09.999Z</time></trkpt><trkpt lat="41.75599994038398" lon="13.615654977620716"><ele>309.0</ele><time>2026-05-01T10:32:10.999Z</time></trkpt><trkpt lat="41.75611001747717" lon="13.61558948747573"><ele>309.0</ele><time>2026-05-01T10:32:11.999Z</time></trkpt><trkpt lat="41.75622364310685" lon="13.615555820285342"><ele>309.0</ele><time>2026-05-01T10:32:12.999Z</time></trkpt><trkpt lat="41.756336629520526" lon="13.615508968189099"><ele>310.75</ele><time>2026-05-01T10:32:14Z</time></trkpt><trkpt lat="41.75644956188662" lon="13.615452830567772"><ele>312.5</ele><time>2026-05-01T10:32:15Z</time></trkpt><trkpt lat="41.75656364449946" lon="13.61539634798161"><ele>314.25</ele><time>2026-05-01T10:32:16Z</time></trkpt><trkpt lat="41.75668363007884" lon="13.615344598898774"><ele>316.0</ele><time>2026-05-01T10:32:17Z</time></trkpt><trkpt lat="41.75681406303814" lon="13.615315989571927"><ele>319.75</ele><time>2026-05-01T10:32:18Z</time></trkpt><trkpt lat="41.756958091879504" lon="13.615298710876088"><ele>323.5</ele><time>2026-05-01T10:32:19Z</time></trkpt><trkpt lat="41.75710947964265" lon="13.615284538582648"><ele>327.25</ele><time>2026-05-01T10:32:20Z</time></trkpt><trkpt lat="41.75725949783988" lon="13.615267033528458"><ele>331.0</ele><time>2026-05-01T10:32:21Z</time></trkpt><trkpt lat="41.75741249603222" lon="13.615240772102027"><ele>331.0</ele><time>2026-05-01T10:32:22Z</time></trkpt><trkpt lat="41.757568569527564" lon="13.61521599393891"><ele>331.0</ele><time>2026-05-01T10:32:23Z</time></trkpt><trkpt lat="41.75772870603599" lon="13.615191069917799"><ele>331.0</ele><time>2026-05-01T10:32:24Z</time></trkpt><trkpt lat="41.757877102963235" lon="13.615166544224849"><ele>333.25</ele><time>2026-05-01T10:32:25Z</time></trkpt><trkpt lat="41.75801543943369" lon="13.61513964177792"><ele>335.5</ele><time>2026-05-01T10:32:26Z</time></trkpt><trkpt lat="41.75813972072462" lon="13.615116139439342"><ele>337.75</ele><time>2026-05-01T10:32:27Z</time></trkpt><trkpt lat="41.75826081615581" lon="13.615099816457874"><ele>340.0</ele><time>2026-05-01T10:32:28Z</time></trkpt><trkpt lat="41.75839615387078" lon="13.615080437804458"><ele>340.0</ele><time>2026-05-01T10:32:29Z</time></trkpt><trkpt lat="41.75853247640179" lon="13.615065575684529"><ele>340.0</ele><time>2026-05-01T10:32:30Z</time></trkpt><trkpt lat="41.75867201715079" lon="13.615062179466873"><ele>340.0</ele><time>2026-05-01T10:32:31Z</time></trkpt><trkpt lat="41.75881781560305" lon="13.615071453992678"><ele>340.0</ele><time>2026-05-01T10:32:32Z</time></trkpt><trkpt lat="41.75896417701117" lon="13.61509259422809"><ele>340.0</ele><time>2026-05-01T10:32:33Z</time></trkpt><trkpt lat="41.75910801684877" lon="13.615125382555872"><ele>340.0</ele><time>2026-05-01T10:32:34Z</time></trkpt><trkpt lat="41.759250917039765" lon="13.615175234482074"><ele>340.0</ele><time>2026-05-01T10:32:35Z</time></trkpt><trkpt lat="41.7593891034723" lon="13.615248233813102"><ele>340.0</ele><time>2026-05-01T10:32:36Z</time></trkpt><trkpt lat="41.75952103264318" lon="13.615335130571287"><ele>341.0</ele><time>2026-05-01T10:32:37Z</time></trkpt><trkpt lat="41.75965133853782" lon="13.615415694842422"><ele>342.0</ele><time>2026-05-01T10:32:38Z</time></trkpt><trkpt lat="41.75977821544645" lon="13.615488217527478"><ele>343.0</ele><time>2026-05-01T10:32:39Z</time></trkpt><trkpt lat="41.75989598883517" lon="13.615549458513147"><ele>344.0</ele><time>2026-05-01T10:32:40Z</time></trkpt><trkpt lat="41.760019805386065" lon="13.615586563108494"><ele>344.0</ele><time>2026-05-01T10:32:41Z</time></trkpt><trkpt lat="41.760155396127914" lon="13.615583718214836"><ele>344.0</ele><time>2026-05-01T10:32:42Z</time></trkpt><trkpt lat="41.760285569784436" lon="13.615548382645533"><ele>344.0</ele><time>2026-05-01T10:32:43Z</time></trkpt><trkpt lat="41.760418578525524" lon="13.615477887000742"><ele>344.0</ele><time>2026-05-01T10:32:44Z</time></trkpt><trkpt lat="41.760560699302154" lon="13.615414090916953"><ele>343.33333333333337</ele><time>2026-05-01T10:32:45Z</time></trkpt><trkpt lat="41.760707967117824" lon="13.615337237953156"><ele>342.6666666666667</ele><time>2026-05-01T10:32:46Z</time></trkpt><trkpt lat="41.76086234226195" lon="13.615268177218601"><ele>342.0</ele><time>2026-05-01T10:32:47Z</time></trkpt><trkpt lat="41.76101641909218" lon="13.615222565048542"><ele>342.6666666666667</ele><time>2026-05-01T10:32:48Z</time></trkpt><trkpt lat="41.761172437305035" lon="13.615198628157147"><ele>343.33333333333337</ele><time>2026-05-01T10:32:49Z</time></trkpt><trkpt lat="41.76133098022349" lon="13.61519421862525"><ele>344.0</ele><time>2026-05-01T10:32:50Z</time></trkpt><trkpt lat="41.76150155193961" lon="13.615213739922625"><ele>344.0</ele><time>2026-05-01T10:32:51Z</time></trkpt><trkpt lat="41.76167646220542" lon="13.615263828534687"><ele>344.0</ele><time>2026-05-01T10:32:52Z</time></trkpt><trkpt lat="41.761859314867806" lon="13.615334589403323"><ele>344.0</ele><time>2026-05-01T10:32:53Z</time></trkpt><trkpt lat="41.762040161799966" lon="13.61542144189983"><ele>346.6666666666667</ele><time>2026-05-01T10:32:54Z</time></trkpt><trkpt lat="41.76222065152468" lon="13.615520035491043"><ele>349.3333333333333</ele><time>2026-05-01T10:32:55Z</time></trkpt><trkpt lat="41.76239323196942" lon="13.61564877225376"><ele>352.0</ele><time>2026-05-01T10:32:56Z</time></trkpt><trkpt lat="41.762582997276034" lon="13.615750821176643"><ele>354.66666666666663</ele><time>2026-05-01T10:32:57Z</time></trkpt><trkpt lat="41.76279536966989" lon="13.61582021005385"><ele>357.3333333333333</ele><time>2026-05-01T10:32:58Z</time></trkpt><trkpt lat="41.763012502108026" lon="13.615898380339232"><ele>360.0</ele><time>2026-05-01T10:32:59Z</time></trkpt><trkpt lat="41.76337421612141" lon="13.616028885322448"><ele>362.6666666666667</ele><time>2026-05-01T10:33:01Z</time></trkpt><trkpt lat="41.76353120420567" lon="13.616084809708232"><ele>365.33333333333337</ele><time>2026-05-01T10:33:02Z</time></trkpt><trkpt lat="41.76369965383791" lon="13.616127896062245"><ele>368.0</ele><time>2026-05-01T10:33:03Z</time></trkpt><trkpt lat="41.763883910318064" lon="13.616137434765085"><ele>368.0</ele><time>2026-05-01T10:33:04Z</time></trkpt><trkpt lat="41.76407308850216" lon="13.616103006404762"><ele>368.0</ele><time>2026-05-01T10:33:05Z</time></trkpt><trkpt lat="41.76426765878109" lon="13.616037252850825"><ele>368.0</ele><time>2026-05-01T10:33:06Z</time></trkpt><trkpt lat="41.76445871692569" lon="13.61594812186626"><ele>371.33333333333337</ele><time>2026-05-01T10:33:07Z</time></trkpt><trkpt lat="41.76464103044651" lon="13.615839041172194"><ele>374.6666666666667</ele><time>2026-05-01T10:33:08Z</time></trkpt><trkpt lat="41.7648215903734" lon="13.615717828447046"><ele>378.0</ele><time>2026-05-01T10:33:09Z</time></trkpt><trkpt lat="41.76498542094083" lon="13.615605769930976"><ele>378.0</ele><time>2026-05-01T10:33:10Z</time></trkpt><trkpt lat="41.76513155955018" lon="13.61551039886288"><ele>378.0</ele><time>2026-05-01T10:33:11Z</time></trkpt><trkpt lat="41.76526974735797" lon="13.615431037485099"><ele>378.0</ele><time>2026-05-01T10:33:12Z</time></trkpt><trkpt lat="41.76541750310257" lon="13.61539963132997"><ele>379.3333333333333</ele><time>2026-05-01T10:33:13Z</time></trkpt><trkpt lat="41.76557663973933" lon="13.615353086428584"><ele>380.66666666666663</ele><time>2026-05-01T10:33:14Z</time></trkpt><trkpt lat="41.76575012373959" lon="13.615302345098304"><ele>382.0</ele><time>2026-05-01T10:33:15Z</time></trkpt><trkpt lat="41.76591306376446" lon="13.615234627378035"><ele>383.8</ele><time>2026-05-01T10:33:16Z</time></trkpt><trkpt lat="41.76605162176346" lon="13.615198381740807"><ele>385.6</ele><time>2026-05-01T10:33:17Z</time></trkpt><trkpt lat="41.766142556949156" lon="13.61517229130159"><ele>387.40000000000003</ele><time>2026-05-01T10:33:18Z</time></trkpt><trkpt lat="41.76620349197909" lon="13.615200533922678"><ele>389.20000000000005</ele><time>2026-05-01T10:33:21Z</time></trkpt><trkpt lat="41.76622076651401" lon="13.615391662042686"><ele>391.0</ele><time>2026-05-01T10:33:23Z</time></trkpt><trkpt lat="41.766203074250384" lon="13.615522660880025"><ele>390.25</ele><time>2026-05-01T10:33:24Z</time></trkpt><trkpt lat="41.76616824000372" lon="13.615662285148268"><ele>389.5</ele><time>2026-05-01T10:33:25Z</time></trkpt><trkpt lat="41.76608212998935" lon="13.61578319653156"><ele>388.75</ele><time>2026-05-01T10:33:26Z</time></trkpt><trkpt lat="41.765984238038634" lon="13.61591223848102"><ele>388.0</ele><time>2026-05-01T10:33:27Z</time></trkpt><trkpt lat="41.765878599018336" lon="13.616081268407745"><ele>390.0</ele><time>2026-05-01T10:33:28Z</time></trkpt><trkpt lat="41.76575699630075" lon="13.61624703527884"><ele>392.0</ele><time>2026-05-01T10:33:29Z</time></trkpt><trkpt lat="41.76564640459592" lon="13.616395262458024"><ele>394.0</ele><time>2026-05-01T10:33:30Z</time></trkpt><trkpt lat="41.76554844290378" lon="13.616529328530763"><ele>394.0</ele><time>2026-05-01T10:33:31Z</time></trkpt><trkpt lat="41.765454688165605" lon="13.616644613715573"><ele>394.0</ele><time>2026-05-01T10:33:32Z</time></trkpt><trkpt lat="41.765400826454126" lon="13.61677877706986"><ele>394.0</ele><time>2026-05-01T10:33:33Z</time></trkpt><trkpt lat="41.76535883095487" lon="13.616892035457855"><ele>394.0</ele><time>2026-05-01T10:33:34Z</time></trkpt><trkpt lat="41.76539366245192" lon="13.617015997506318"><ele>394.0</ele><time>2026-05-01T10:33:35Z</time></trkpt><trkpt lat="41.76546593504829" lon="13.617123681792343"><ele>395.75</ele><time>2026-05-01T10:33:36Z</time></trkpt><trkpt lat="41.765574568266416" lon="13.617215394830142"><ele>397.5</ele><time>2026-05-01T10:33:37Z</time></trkpt><trkpt lat="41.765682791368924" lon="13.617306155179108"><ele>399.25</ele><time>2026-05-01T10:33:38Z</time></trkpt><trkpt lat="41.76579792754971" lon="13.617411870553408"><ele>401.0</ele><time>2026-05-01T10:33:39Z</time></trkpt><trkpt lat="41.76591605356837" lon="13.617522879811503"><ele>403.0</ele><time>2026-05-01T10:33:40Z</time></trkpt><trkpt lat="41.76603247681039" lon="13.617636712923863"><ele>405.0</ele><time>2026-05-01T10:33:41Z</time></trkpt><trkpt lat="41.76612541477168" lon="13.617743744728562"><ele>407.0</ele><time>2026-05-01T10:33:42Z</time></trkpt><trkpt lat="41.766208496319095" lon="13.61782389077221"><ele>409.0</ele><time>2026-05-01T10:33:43Z</time></trkpt><trkpt lat="41.76629292140237" lon="13.617899215765501"><ele>410.75</ele><time>2026-05-01T10:33:44Z</time></trkpt><trkpt lat="41.76639179475553" lon="13.61797649979593"><ele>412.5</ele><time>2026-05-01T10:33:45Z</time></trkpt><trkpt lat="41.76653113037713" lon="13.617977831449299"><ele>414.25</ele><time>2026-05-01T10:33:46Z</time></trkpt><trkpt lat="41.766668916120075" lon="13.617982234427442"><ele>416.0</ele><time>2026-05-01T10:33:47Z</time></trkpt><trkpt lat="41.76681822448603" lon="13.617968722651502"><ele>416.66666666666663</ele><time>2026-05-01T10:33:47.999Z</time></trkpt><trkpt lat="41.766986382435725" lon="13.617927089497162"><ele>417.33333333333337</ele><time>2026-05-01T10:33:48.999Z</time></trkpt><trkpt lat="41.7671723278136" lon="13.617857843707784"><ele>418.0</ele><time>2026-05-01T10:33:49.999Z</time></trkpt><trkpt lat="41.76735980675128" lon="13.61778385003306"><ele>418.0</ele><time>2026-05-01T10:33:50.999Z</time></trkpt><trkpt lat="41.76755680642728" lon="13.617734861283479"><ele>418.0</ele><time>2026-05-01T10:33:51.999Z</time></trkpt><trkpt lat="41.76776722255452" lon="13.617662442953488"><ele>418.0</ele><time>2026-05-01T10:33:52.999Z</time></trkpt><trkpt lat="41.767991638626" lon="13.617585855244908"><ele>423.5</ele><time>2026-05-01T10:33:53.999Z</time></trkpt><trkpt lat="41.76822470970265" lon="13.61750631380233"><ele>429.0</ele><time>2026-05-01T10:33:54.999Z</time></trkpt><trkpt lat="41.76846159650614" lon="13.617404717460134"><ele>432.33333333333337</ele><time>2026-05-01T10:33:55.999Z</time></trkpt><trkpt lat="41.76867351095056" lon="13.617332294816585"><ele>435.6666666666667</ele><time>2026-05-01T10:33:56.999Z</time></trkpt><trkpt lat="41.76885127809378" lon="13.617270914942878"><ele>439.0</ele><time>2026-05-01T10:33:57.999Z</time></trkpt><trkpt lat="41.76900183505878" lon="13.617217920572891"><ele>439.0</ele><time>2026-05-01T10:33:58.999Z</time></trkpt><trkpt lat="41.76912140993573" lon="13.617200128101782"><ele>439.0</ele><time>2026-05-01T10:33:59.999Z</time></trkpt><trkpt lat="41.76920725421843" lon="13.617158316357193"><ele>439.0</ele><time>2026-05-01T10:34:00.999Z</time></trkpt><trkpt lat="41.76928672281221" lon="13.617168026749056"><ele>439.0</ele><time>2026-05-01T10:34:01.999Z</time></trkpt><trkpt lat="41.769357070112044" lon="13.617231491517861"><ele>439.0</ele><time>2026-05-01T10:34:02.999Z</time></trkpt><trkpt lat="41.769390698521" lon="13.617355447059595"><ele>439.0</ele><time>2026-05-01T10:34:03.999Z</time></trkpt><trkpt lat="41.76935280237574" lon="13.61751246613689"><ele>439.0</ele><time>2026-05-01T10:34:04.999Z</time></trkpt><trkpt lat="41.7693089726623" lon="13.61768058356889"><ele>439.0</ele><time>2026-05-01T10:34:05.999Z</time></trkpt><trkpt lat="41.769275375592784" lon="13.617899228446962"><ele>439.0</ele><time>2026-05-01T10:34:06.999Z</time></trkpt><trkpt lat="41.76922562924729" lon="13.618125944208273"><ele>441.0</ele><time>2026-05-01T10:34:07.999Z</time></trkpt><trkpt lat="41.76917807200618" lon="13.618365653961295"><ele>443.0</ele><time>2026-05-01T10:34:08.999Z</time></trkpt><trkpt lat="41.76912599943361" lon="13.618614610554259"><ele>445.0</ele><time>2026-05-01T10:34:09.999Z</time></trkpt><trkpt lat="41.7690690442938" lon="13.618867815806928"><ele>447.33333333333337</ele><time>2026-05-01T10:34:10.999Z</time></trkpt><trkpt lat="41.76901212077021" lon="13.61913961242988"><ele>449.66666666666663</ele><time>2026-05-01T10:34:11.999Z</time></trkpt><trkpt lat="41.76895003368814" lon="13.619417213666779"><ele>452.0</ele><time>2026-05-01T10:34:12.999Z</time></trkpt><trkpt lat="41.7688982153367" lon="13.619680636214012"><ele>454.66666666666663</ele><time>2026-05-01T10:34:13.999Z</time></trkpt><trkpt lat="41.768847604566865" lon="13.619922358225924"><ele>457.33333333333337</ele><time>2026-05-01T10:34:14.999Z</time></trkpt><trkpt lat="41.76880281832049" lon="13.620164301106083"><ele>460.0</ele><time>2026-05-01T10:34:15.999Z</time></trkpt><trkpt lat="41.76876686507229" lon="13.620406973485679"><ele>462.33333333333337</ele><time>2026-05-01T10:34:16.999Z</time></trkpt><trkpt lat="41.76873480010904" lon="13.620652027839517"><ele>464.66666666666663</ele><time>2026-05-01T10:34:17.999Z</time></trkpt><trkpt lat="41.76870853626086" lon="13.620887535520417"><ele>467.0</ele><time>2026-05-01T10:34:18.999Z</time></trkpt><trkpt lat="41.76869201412948" lon="13.621094944888226"><ele>468.3333333333333</ele><time>2026-05-01T10:34:20.001Z</time></trkpt><trkpt lat="41.76869035241984" lon="13.621310264984334"><ele>469.66666666666663</ele><time>2026-05-01T10:34:21.001Z</time></trkpt><trkpt lat="41.76871692696474" lon="13.621522214185026"><ele>471.0</ele><time>2026-05-01T10:34:22.001Z</time></trkpt><trkpt lat="41.768758305269934" lon="13.621697952854968"><ele>471.0</ele><time>2026-05-01T10:34:23.001Z</time></trkpt><trkpt lat="41.7688041603658" lon="13.62181506006982"><ele>471.0</ele><time>2026-05-01T10:34:24.001Z</time></trkpt><trkpt lat="41.76886822647025" lon="13.621874218719862"><ele>471.0</ele><time>2026-05-01T10:34:25Z</time></trkpt><trkpt lat="41.768953740782194" lon="13.621878947439352"><ele>471.0</ele><time>2026-05-01T10:34:26Z</time></trkpt><trkpt lat="41.76904494775378" lon="13.621823206181217"><ele>471.0</ele><time>2026-05-01T10:34:27.001Z</time></trkpt><trkpt lat="41.769115258521666" lon="13.621700917331228"><ele>471.0</ele><time>2026-05-01T10:34:28Z</time></trkpt><trkpt lat="41.76919043588357" lon="13.621563710606093"><ele>471.0</ele><time>2026-05-01T10:34:29Z</time></trkpt><trkpt lat="41.76928601287273" lon="13.621426478987482"><ele>471.0</ele><time>2026-05-01T10:34:30Z</time></trkpt><trkpt lat="41.76939431129782" lon="13.621277508598226"><ele>471.0</ele><time>2026-05-01T10:34:31Z</time></trkpt><trkpt lat="41.769493418204306" lon="13.621130983141837"><ele>473.0</ele><time>2026-05-01T10:34:32Z</time></trkpt><trkpt lat="41.769598456974734" lon="13.621015819451367"><ele>475.0</ele><time>2026-05-01T10:34:33.001Z</time></trkpt><trkpt lat="41.769703426071835" lon="13.620915608665468"><ele>477.0</ele><time>2026-05-01T10:34:34Z</time></trkpt><trkpt lat="41.76985336839081" lon="13.620852904486028"><ele>479.0</ele><time>2026-05-01T10:34:35Z</time></trkpt><trkpt lat="41.77002458627385" lon="13.620776020902696"><ele>483.0</ele><time>2026-05-01T10:34:36Z</time></trkpt><trkpt lat="41.77021762904765" lon="13.620674493725065"><ele>487.0</ele><time>2026-05-01T10:34:37Z</time></trkpt><trkpt lat="41.77041176132852" lon="13.620587743204103"><ele>491.0</ele><time>2026-05-01T10:34:38Z</time></trkpt><trkpt lat="41.770602960478556" lon="13.620498510920026"><ele>491.0</ele><time>2026-05-01T10:34:39Z</time></trkpt><trkpt lat="41.770772057379126" lon="13.620426753487225"><ele>491.0</ele><time>2026-05-01T10:34:40Z</time></trkpt><trkpt lat="41.77093237959037" lon="13.62035887592824"><ele>491.0</ele><time>2026-05-01T10:34:41Z</time></trkpt><trkpt lat="41.77110022553616" lon="13.62028383297538"><ele>491.3333333333333</ele><time>2026-05-01T10:34:42Z</time></trkpt><trkpt lat="41.77126986289774" lon="13.620203270011453"><ele>491.66666666666663</ele><time>2026-05-01T10:34:43Z</time></trkpt><trkpt lat="41.771417626537755" lon="13.620128815160422"><ele>492.0</ele><time>2026-05-01T10:34:44Z</time></trkpt><trkpt lat="41.771553047615946" lon="13.620063415409861"><ele>492.0</ele><time>2026-05-01T10:34:45Z</time></trkpt><trkpt lat="41.771676818708876" lon="13.6200089125021"><ele>492.0</ele><time>2026-05-01T10:34:46Z</time></trkpt><trkpt lat="41.77183180844453" lon="13.619954684677195"><ele>492.0</ele><time>2026-05-01T10:34:48Z</time></trkpt><trkpt lat="41.77194642809377" lon="13.619915548834323"><ele>492.0</ele><time>2026-05-01T10:34:50Z</time></trkpt><trkpt lat="41.77205564822405" lon="13.6198986802694"><ele>494.0</ele><time>2026-05-01T10:34:51Z</time></trkpt><trkpt lat="41.77218109348134" lon="13.6198610700334"><ele>496.0</ele><time>2026-05-01T10:34:52Z</time></trkpt><trkpt lat="41.772311138393995" lon="13.619822661405184"><ele>498.0</ele><time>2026-05-01T10:34:53Z</time></trkpt><trkpt lat="41.772444169169844" lon="13.619775793981088"><ele>500.0</ele><time>2026-05-01T10:34:54Z</time></trkpt><trkpt lat="41.77256445521699" lon="13.61973877614573"><ele>500.0</ele><time>2026-05-01T10:34:55Z</time></trkpt><trkpt lat="41.77267455587969" lon="13.619718639522235"><ele>500.0</ele><time>2026-05-01T10:34:56Z</time></trkpt><trkpt lat="41.77277908081018" lon="13.619727874311925"><ele>500.0</ele><time>2026-05-01T10:34:57Z</time></trkpt><trkpt lat="41.77285833150258" lon="13.619807156970397"><ele>500.0</ele><time>2026-05-01T10:34:58Z</time></trkpt><trkpt lat="41.77292528650833" lon="13.619888201864446"><ele>500.0</ele><time>2026-05-01T10:34:59Z</time></trkpt><trkpt lat="41.772925093606446" lon="13.620018871002825"><ele>503.0</ele><time>2026-05-01T10:35:00Z</time></trkpt><trkpt lat="41.772883105484304" lon="13.620123584678439"><ele>506.0</ele><time>2026-05-01T10:35:01Z</time></trkpt><trkpt lat="41.772825076686075" lon="13.620227671266331"><ele>509.0</ele><time>2026-05-01T10:35:02Z</time></trkpt><trkpt lat="41.77274002640522" lon="13.620343662286345"><ele>512.0</ele><time>2026-05-01T10:35:03Z</time></trkpt><trkpt lat="41.772630039013144" lon="13.62047300796432"><ele>512.0</ele><time>2026-05-01T10:35:04Z</time></trkpt><trkpt lat="41.77251226201866" lon="13.620605581048155"><ele>512.0</ele><time>2026-05-01T10:35:05Z</time></trkpt><trkpt lat="41.77239299829304" lon="13.620769559875672"><ele>512.0</ele><time>2026-05-01T10:35:06Z</time></trkpt><trkpt lat="41.772255787909494" lon="13.620930031869714"><ele>512.0</ele><time>2026-05-01T10:35:07Z</time></trkpt><trkpt lat="41.77213063364682" lon="13.621086981552875"><ele>512.0</ele><time>2026-05-01T10:35:08Z</time></trkpt><trkpt lat="41.77202583971305" lon="13.621243910647971"><ele>512.0</ele><time>2026-05-01T10:35:09Z</time></trkpt><trkpt lat="41.77192975356795" lon="13.621418976912665"><ele>512.3333333333333</ele><time>2026-05-01T10:35:10Z</time></trkpt><trkpt lat="41.771847260890134" lon="13.62161599336085"><ele>512.6666666666666</ele><time>2026-05-01T10:35:11Z</time></trkpt><trkpt lat="41.77177968991382" lon="13.62180727847782"><ele>513.0</ele><time>2026-05-01T10:35:12Z</time></trkpt><trkpt lat="41.77172890740176" lon="13.621980892972207"><ele>514.6</ele><time>2026-05-01T10:35:13Z</time></trkpt><trkpt lat="41.77170993067949" lon="13.622135553916324"><ele>516.1999999999999</ele><time>2026-05-01T10:35:14Z</time></trkpt><trkpt lat="41.77174017263833" lon="13.622267320956393"><ele>517.8</ele><time>2026-05-01T10:35:15Z</time></trkpt><trkpt lat="41.77181135805601" lon="13.622363212546457"><ele>519.4</ele><time>2026-05-01T10:35:16Z</time></trkpt><trkpt lat="41.7719072926409" lon="13.622390302980875"><ele>521.0</ele><time>2026-05-01T10:35:17Z</time></trkpt><trkpt lat="41.77200413406537" lon="13.62234692314114"><ele>522.2</ele><time>2026-05-01T10:35:18Z</time></trkpt><trkpt lat="41.772093195850736" lon="13.622249249595614"><ele>523.4000000000001</ele><time>2026-05-01T10:35:19Z</time></trkpt><trkpt lat="41.772194894498746" lon="13.622171080845666"><ele>524.6</ele><time>2026-05-01T10:35:20Z</time></trkpt><trkpt lat="41.772283446590194" lon="13.622104890758003"><ele>525.8000000000001</ele><time>2026-05-01T10:35:21Z</time></trkpt><trkpt lat="41.77237580488097" lon="13.622037544768496"><ele>527.0</ele><time>2026-05-01T10:35:22Z</time></trkpt><trkpt lat="41.772465465112425" lon="13.621974928211952"><ele>527.0</ele><time>2026-05-01T10:35:23Z</time></trkpt><trkpt lat="41.772548092171846" lon="13.621907237446123"><ele>527.0</ele><time>2026-05-01T10:35:24Z</time></trkpt><trkpt lat="41.77261327426884" lon="13.621853901556857"><ele>527.0</ele><time>2026-05-01T10:35:25Z</time></trkpt><trkpt lat="41.77272094092278" lon="13.621808053676899"><ele>527.0</ele><time>2026-05-01T10:35:27Z</time></trkpt><trkpt lat="41.77285733131804" lon="13.62179348664635"><ele>527.0</ele><time>2026-05-01T10:35:29Z</time></trkpt><trkpt lat="41.77295640995448" lon="13.6217901202205"><ele>532.75</ele><time>2026-05-01T10:35:30Z</time></trkpt><trkpt lat="41.773047359595864" lon="13.621784438609465"><ele>538.5</ele><time>2026-05-01T10:35:31Z</time></trkpt><trkpt lat="41.773121598930985" lon="13.621680007711468"><ele>544.25</ele><time>2026-05-01T10:35:32Z</time></trkpt><trkpt lat="41.77318231694275" lon="13.621529501861254"><ele>550.0</ele><time>2026-05-01T10:35:33Z</time></trkpt><trkpt lat="41.77323258441549" lon="13.621349192015215"><ele>550.0</ele><time>2026-05-01T10:35:34Z</time></trkpt><trkpt lat="41.77328194774612" lon="13.621159408483654"><ele>550.0</ele><time>2026-05-01T10:35:35Z</time></trkpt><trkpt lat="41.77334174450651" lon="13.620951615378685"><ele>550.0</ele><time>2026-05-01T10:35:36Z</time></trkpt><trkpt lat="41.77343907231056" lon="13.620746921531596"><ele>554.3333333333334</ele><time>2026-05-01T10:35:37Z</time></trkpt><trkpt lat="41.77353573252115" lon="13.620521672389621"><ele>558.6666666666666</ele><time>2026-05-01T10:35:38Z</time></trkpt><trkpt lat="41.77363249874379" lon="13.620299621182513"><ele>563.0</ele><time>2026-05-01T10:35:39Z</time></trkpt><trkpt lat="41.773706733050055" lon="13.620072815482578"><ele>563.0</ele><time>2026-05-01T10:35:40Z</time></trkpt><trkpt lat="41.773792201960056" lon="13.619877267194829"><ele>563.0</ele><time>2026-05-01T10:35:41Z</time></trkpt><trkpt lat="41.77387681330356" lon="13.619691010850334"><ele>563.0</ele><time>2026-05-01T10:35:42Z</time></trkpt><trkpt lat="41.773969404922724" lon="13.619538502706629"><ele>560.75</ele><time>2026-05-01T10:35:43Z</time></trkpt><trkpt lat="41.7740935062954" lon="13.619443706900384"><ele>558.5</ele><time>2026-05-01T10:35:44Z</time></trkpt><trkpt lat="41.77422406063881" lon="13.619348507149018"><ele>556.25</ele><time>2026-05-01T10:35:45Z</time></trkpt><trkpt lat="41.77434849687379" lon="13.61927518237149"><ele>554.0</ele><time>2026-05-01T10:35:46Z</time></trkpt><trkpt lat="41.77446615938381" lon="13.619222469961276"><ele>554.0</ele><time>2026-05-01T10:35:47Z</time></trkpt><trkpt lat="41.7745813872069" lon="13.619278676902038"><ele>554.0</ele><time>2026-05-01T10:35:47.999Z</time></trkpt><trkpt lat="41.77466603925315" lon="13.61937139313611"><ele>554.0</ele><time>2026-05-01T10:35:48.999Z</time></trkpt><trkpt lat="41.774785309233195" lon="13.619460062476822"><ele>554.0</ele><time>2026-05-01T10:35:49.999Z</time></trkpt><trkpt lat="41.77493591712955" lon="13.619501673515934"><ele>560.6666666666666</ele><time>2026-05-01T10:35:50.999Z</time></trkpt><trkpt lat="41.77509761724987" lon="13.619525104810387"><ele>567.3333333333334</ele><time>2026-05-01T10:35:51.999Z</time></trkpt><trkpt lat="41.77527288372834" lon="13.61952253672436"><ele>574.0</ele><time>2026-05-01T10:35:52.999Z</time></trkpt><trkpt lat="41.775460009890985" lon="13.61951243498466"><ele>572.0</ele><time>2026-05-01T10:35:53.999Z</time></trkpt><trkpt lat="41.77562770887548" lon="13.619494514101124"><ele>570.0</ele><time>2026-05-01T10:35:54.999Z</time></trkpt><trkpt lat="41.77577441355893" lon="13.619471444851872"><ele>568.0</ele><time>2026-05-01T10:35:55.999Z</time></trkpt><trkpt lat="41.77591618821251" lon="13.61943867757204"><ele>571.5</ele><time>2026-05-01T10:35:56.999Z</time></trkpt><trkpt lat="41.77604085425234" lon="13.619375835847435"><ele>575.0</ele><time>2026-05-01T10:35:57.999Z</time></trkpt><trkpt lat="41.7761439836516" lon="13.619279349997111"><ele>578.5</ele><time>2026-05-01T10:35:58.999Z</time></trkpt><trkpt lat="41.77623045153382" lon="13.619144293679632"><ele>582.0</ele><time>2026-05-01T10:35:59.999Z</time></trkpt><trkpt lat="41.77630439315592" lon="13.619003916135192"><ele>582.0</ele><time>2026-05-01T10:36:00.999Z</time></trkpt><trkpt lat="41.77639923067969" lon="13.61892714571534"><ele>582.0</ele><time>2026-05-01T10:36:01.999Z</time></trkpt><trkpt lat="41.77650875167972" lon="13.618848831401174"><ele>582.0</ele><time>2026-05-01T10:36:02.999Z</time></trkpt><trkpt lat="41.77664198516537" lon="13.618747955334113"><ele>582.0</ele><time>2026-05-01T10:36:03.999Z</time></trkpt><trkpt lat="41.77680366559262" lon="13.618695122244441"><ele>583.3333333333334</ele><time>2026-05-01T10:36:04.999Z</time></trkpt><trkpt lat="41.77695364061786" lon="13.618589812118097"><ele>584.6666666666667</ele><time>2026-05-01T10:36:05.999Z</time></trkpt><trkpt lat="41.77709795766451" lon="13.618484249187599"><ele>586.0</ele><time>2026-05-01T10:36:06.999Z</time></trkpt><trkpt lat="41.777218707834685" lon="13.618349536141864"><ele>586.0</ele><time>2026-05-01T10:36:07.999Z</time></trkpt><trkpt lat="41.777333531480664" lon="13.618199209316808"><ele>586.0</ele><time>2026-05-01T10:36:08.999Z</time></trkpt><trkpt lat="41.77744165295966" lon="13.61802855031578"><ele>586.0</ele><time>2026-05-01T10:36:09.999Z</time></trkpt><trkpt lat="41.77754149232192" lon="13.617865955481722"><ele>586.75</ele><time>2026-05-01T10:36:10.999Z</time></trkpt><trkpt lat="41.777638460793376" lon="13.61771752816398"><ele>587.5</ele><time>2026-05-01T10:36:11.999Z</time></trkpt><trkpt lat="41.77773131323719" lon="13.617599552869589"><ele>588.25</ele><time>2026-05-01T10:36:12.999Z</time></trkpt><trkpt lat="41.777841931670686" lon="13.617526073780525"><ele>589.0</ele><time>2026-05-01T10:36:13.999Z</time></trkpt><trkpt lat="41.77794744581382" lon="13.617449684391827"><ele>589.0</ele><time>2026-05-01T10:36:14.999Z</time></trkpt><trkpt lat="41.77805732252647" lon="13.61738056558908"><ele>589.0</ele><time>2026-05-01T10:36:15.999Z</time></trkpt><trkpt lat="41.77817697391199" lon="13.61729798749548"><ele>589.0</ele><time>2026-05-01T10:36:16.999Z</time></trkpt><trkpt lat="41.778297134619095" lon="13.61720009369159"><ele>589.0</ele><time>2026-05-01T10:36:17.999Z</time></trkpt><trkpt lat="41.77840295107899" lon="13.617075885678556"><ele>589.0</ele><time>2026-05-01T10:36:18.999Z</time></trkpt><trkpt lat="41.7785040072444" lon="13.61699415438403"><ele>589.0</ele><time>2026-05-01T10:36:19.999Z</time></trkpt><trkpt lat="41.77859689292429" lon="13.616956954754231"><ele>589.0</ele><time>2026-05-01T10:36:20.999Z</time></trkpt><trkpt lat="41.778693709580715" lon="13.616930680428894"><ele>589.0</ele><time>2026-05-01T10:36:21.999Z</time></trkpt><trkpt lat="41.778805224811684" lon="13.61692416476207"><ele>589.0</ele><time>2026-05-01T10:36:22.999Z</time></trkpt><trkpt lat="41.77890562004156" lon="13.616911645744153"><ele>587.3333333333334</ele><time>2026-05-01T10:36:23.999Z</time></trkpt><trkpt lat="41.77896963651126" lon="13.616925373413405"><ele>585.6666666666667</ele><time>2026-05-01T10:36:24.999Z</time></trkpt><trkpt lat="41.779043819642546" lon="13.616912552065557"><ele>584.0</ele><time>2026-05-01T10:37:16Z</time></trkpt><trkpt lat="41.779164350707134" lon="13.616933780939805"><ele>582.3333333333334</ele><time>2026-05-01T10:37:18Z</time></trkpt><trkpt lat="41.77924574422308" lon="13.616935512065842"><ele>580.6666666666666</ele><time>2026-05-01T10:37:19Z</time></trkpt><trkpt lat="41.77933223721174" lon="13.616934671163069"><ele>579.0</ele><time>2026-05-01T10:37:20Z</time></trkpt><trkpt lat="41.779410362866315" lon="13.61693391160892"><ele>579.0</ele><time>2026-05-01T10:37:21Z</time></trkpt><trkpt lat="41.77947908643587" lon="13.616950011321839"><ele>579.0</ele><time>2026-05-01T10:37:22Z</time></trkpt><trkpt lat="41.779574766478845" lon="13.616974216041124"><ele>579.0</ele><time>2026-05-01T10:37:23Z</time></trkpt><trkpt lat="41.779683358980094" lon="13.617004725784454"><ele>579.0</ele><time>2026-05-01T10:37:24Z</time></trkpt><trkpt lat="41.77980160965017" lon="13.61700560660885"><ele>579.0</ele><time>2026-05-01T10:37:25Z</time></trkpt><trkpt lat="41.77991382763696" lon="13.616937363408589"><ele>579.0</ele><time>2026-05-01T10:37:26Z</time></trkpt><trkpt lat="41.78003700466383" lon="13.616859034575082"><ele>579.0</ele><time>2026-05-01T10:37:27Z</time></trkpt><trkpt lat="41.780123440186905" lon="13.616716788105887"><ele>579.0</ele><time>2026-05-01T10:37:28Z</time></trkpt><trkpt lat="41.78006507101329" lon="13.616793974043404"><ele>579.0</ele><time>2026-05-01T10:37:29Z</time></trkpt><trkpt lat="41.78009889389931" lon="13.61671529807115"><ele>579.0</ele><time>2026-05-01T10:37:30Z</time></trkpt><trkpt lat="41.78012274658243" lon="13.616623009305528"><ele>579.0</ele><time>2026-05-01T10:37:32Z</time></trkpt><trkpt lat="41.78006450653044" lon="13.616405434739814"><ele>579.0</ele><time>2026-05-01T10:37:35.999Z</time></trkpt><trkpt lat="41.78006891563282" lon="13.616290547956343"><ele>579.0</ele><time>2026-05-01T10:37:36.999Z</time></trkpt><trkpt lat="41.780077927017" lon="13.616193954565816"><ele>579.0</ele><time>2026-05-01T10:37:37.999Z</time></trkpt><trkpt lat="41.78006821592751" lon="13.616098396325723"><ele>579.0</ele><time>2026-05-01T10:37:38.999Z</time></trkpt><trkpt lat="41.78007242259314" lon="13.616008492822587"><ele>578.3333333333334</ele><time>2026-05-01T10:37:39.999Z</time></trkpt><trkpt lat="41.78007451026605" lon="13.615919801932083"><ele>577.6666666666666</ele><time>2026-05-01T10:37:40.999Z</time></trkpt><trkpt lat="41.78007381858088" lon="13.615828339005759"><ele>577.0</ele><time>2026-05-01T10:37:41.999Z</time></trkpt><trkpt lat="41.780071944594226" lon="13.615727567840421"><ele>576.3333333333333</ele><time>2026-05-01T10:37:42.999Z</time></trkpt><trkpt lat="41.78007945943883" lon="13.615621000612743"><ele>575.6666666666666</ele><time>2026-05-01T10:37:43.999Z</time></trkpt><trkpt lat="41.780106598704585" lon="13.615517645561528"><ele>575.0</ele><time>2026-05-01T10:37:44.999Z</time></trkpt><trkpt lat="41.78015091947251" lon="13.615423107664407"><ele>575.8</ele><time>2026-05-01T10:37:45.999Z</time></trkpt><trkpt lat="41.78020401043055" lon="13.615323654520006"><ele>576.6</ele><time>2026-05-01T10:37:46.999Z</time></trkpt><trkpt lat="41.78026180983857" lon="13.615219798348042"><ele>577.4</ele><time>2026-05-01T10:37:47.999Z</time></trkpt><trkpt lat="41.78030211061235" lon="13.615093963174612"><ele>578.2</ele><time>2026-05-01T10:37:48.999Z</time></trkpt><trkpt lat="41.78034757985467" lon="13.61497844318016"><ele>579.0</ele><time>2026-05-01T10:37:49.999Z</time></trkpt><trkpt lat="41.78036974682574" lon="13.614877465451693"><ele>579.0</ele><time>2026-05-01T10:37:50.999Z</time></trkpt><trkpt lat="41.78038614280692" lon="13.614774644081349"><ele>579.0</ele><time>2026-05-01T10:37:51.999Z</time></trkpt><trkpt lat="41.78041052520163" lon="13.614670867362012"><ele>579.0</ele><time>2026-05-01T10:37:52.999Z</time></trkpt><trkpt lat="41.780450823678706" lon="13.614567205883382"><ele>579.0</ele><time>2026-05-01T10:37:53.999Z</time></trkpt><trkpt lat="41.78050986238501" lon="13.61445718164712"><ele>579.0</ele><time>2026-05-01T10:37:54.999Z</time></trkpt><trkpt lat="41.780574918931734" lon="13.614342222377287"><ele>576.0</ele><time>2026-05-01T10:37:55.999Z</time></trkpt><trkpt lat="41.78063209841424" lon="13.614212466166318"><ele>573.0</ele><time>2026-05-01T10:37:56.999Z</time></trkpt><trkpt lat="41.78068009981477" lon="13.6140709578137"><ele>570.0</ele><time>2026-05-01T10:37:57.999Z</time></trkpt><trkpt lat="41.780737032723835" lon="13.613927329247076"><ele>567.0</ele><time>2026-05-01T10:37:58.999Z</time></trkpt><trkpt lat="41.78079989233533" lon="13.613787263086458"><ele>567.0</ele><time>2026-05-01T10:37:59.999Z</time></trkpt><trkpt lat="41.780862587146494" lon="13.613659038345375"><ele>567.0</ele><time>2026-05-01T10:38:00.999Z</time></trkpt><trkpt lat="41.780904263039346" lon="13.613542667366943"><ele>567.0</ele><time>2026-05-01T10:38:01.999Z</time></trkpt><trkpt lat="41.78094280674886" lon="13.61347155696039"><ele>567.0</ele><time>2026-05-01T10:38:02.999Z</time></trkpt><trkpt lat="41.781058485761456" lon="13.613368761848648"><ele>567.0</ele><time>2026-05-01T10:38:04.999Z</time></trkpt><trkpt lat="41.781152173622104" lon="13.61332737310223"><ele>566.25</ele><time>2026-05-01T10:38:05.999Z</time></trkpt><trkpt lat="41.78126231175854" lon="13.613293549636296"><ele>565.5</ele><time>2026-05-01T10:38:06.999Z</time></trkpt><trkpt lat="41.78138115277578" lon="13.613263018680966"><ele>564.75</ele><time>2026-05-01T10:38:07.999Z</time></trkpt><trkpt lat="41.781501031676086" lon="13.613225611516887"><ele>564.0</ele><time>2026-05-01T10:38:08.999Z</time></trkpt><trkpt lat="41.7816052488531" lon="13.613193923239129"><ele>564.0</ele><time>2026-05-01T10:38:09.999Z</time></trkpt><trkpt lat="41.78169876667213" lon="13.6131640556008"><ele>564.0</ele><time>2026-05-01T10:38:10.999Z</time></trkpt><trkpt lat="41.781790190843644" lon="13.613140071069745"><ele>564.0</ele><time>2026-05-01T10:38:11.999Z</time></trkpt><trkpt lat="41.7818835131049" lon="13.613097849563761"><ele>564.0</ele><time>2026-05-01T10:38:12.999Z</time></trkpt><trkpt lat="41.78195736904828" lon="13.613034535240361"><ele>564.0</ele><time>2026-05-01T10:38:13.999Z</time></trkpt><trkpt lat="41.782011404042585" lon="13.61298767499878"><ele>564.0</ele><time>2026-05-01T10:38:14.999Z</time></trkpt><trkpt lat="41.78206874714418" lon="13.612950356373974"><ele>563.6</ele><time>2026-05-01T10:38:16.999Z</time></trkpt><trkpt lat="41.78211662266683" lon="13.612759187159934"><ele>563.2</ele><time>2026-05-01T10:38:29.999Z</time></trkpt><trkpt lat="41.78213185129609" lon="13.612643409187662"><ele>562.8000000000001</ele><time>2026-05-01T10:38:30.999Z</time></trkpt><trkpt lat="41.782162110755685" lon="13.612523307957357"><ele>562.4</ele><time>2026-05-01T10:38:32Z</time></trkpt><trkpt lat="41.78220669177679" lon="13.612395587530258"><ele>562.0</ele><time>2026-05-01T10:38:33Z</time></trkpt><trkpt lat="41.78225159117425" lon="13.612264519364741"><ele>562.0</ele><time>2026-05-01T10:38:34Z</time></trkpt><trkpt lat="41.78228763167188" lon="13.612125036597522"><ele>562.0</ele><time>2026-05-01T10:38:35Z</time></trkpt><trkpt lat="41.78232259730566" lon="13.611973154545206"><ele>562.0</ele><time>2026-05-01T10:38:36Z</time></trkpt><trkpt lat="41.78237020099285" lon="13.61180780856138"><ele>562.0</ele><time>2026-05-01T10:38:37Z</time></trkpt><trkpt lat="41.78243026344245" lon="13.61164533884239"><ele>558.5</ele><time>2026-05-01T10:38:38Z</time></trkpt><trkpt lat="41.78248984319756" lon="13.611489711968844"><ele>555.0</ele><time>2026-05-01T10:38:39Z</time></trkpt><trkpt lat="41.782540164259004" lon="13.611339150464813"><ele>551.5</ele><time>2026-05-01T10:38:40Z</time></trkpt><trkpt lat="41.782585107720784" lon="13.611201309149685"><ele>548.0</ele><time>2026-05-01T10:38:41Z</time></trkpt><trkpt lat="41.78262805863771" lon="13.611071997221972"><ele>547.8</ele><time>2026-05-01T10:38:42Z</time></trkpt><trkpt lat="41.782666205345016" lon="13.610934718932164"><ele>547.5999999999999</ele><time>2026-05-01T10:38:43Z</time></trkpt><trkpt lat="41.78269815291742" lon="13.61078394624279"><ele>547.4000000000001</ele><time>2026-05-01T10:38:44Z</time></trkpt><trkpt lat="41.78273395811417" lon="13.61063319074501"><ele>547.2</ele><time>2026-05-01T10:38:45Z</time></trkpt><trkpt lat="41.78277537140466" lon="13.610515407727474"><ele>547.0</ele><time>2026-05-01T10:38:46Z</time></trkpt><trkpt lat="41.78281773969106" lon="13.610436689468855"><ele>547.0</ele><time>2026-05-01T10:38:47Z</time></trkpt><trkpt lat="41.782871578107596" lon="13.610381591497246"><ele>547.0</ele><time>2026-05-01T10:38:48Z</time></trkpt><trkpt lat="41.782949217761576" lon="13.610343957741348"><ele>547.0</ele><time>2026-05-01T10:38:49Z</time></trkpt><trkpt lat="41.78305786287648" lon="13.610316503318469"><ele>547.0</ele><time>2026-05-01T10:38:50Z</time></trkpt><trkpt lat="41.78317017977006" lon="13.610292093381364"><ele>547.0</ele><time>2026-05-01T10:38:51Z</time></trkpt><trkpt lat="41.783267493738464" lon="13.610243002751114"><ele>547.0</ele><time>2026-05-01T10:38:52Z</time></trkpt><trkpt lat="41.783342125509805" lon="13.610171799312262"><ele>547.0</ele><time>2026-05-01T10:38:53Z</time></trkpt><trkpt lat="41.783387764156984" lon="13.610097496742181"><ele>547.0</ele><time>2026-05-01T10:38:54Z</time></trkpt><trkpt lat="41.78344928786506" lon="13.610049833507004"><ele>547.0</ele><time>2026-05-01T10:38:55Z</time></trkpt><trkpt lat="41.78353447393416" lon="13.610014038883783"><ele>547.0</ele><time>2026-05-01T10:38:56Z</time></trkpt><trkpt lat="41.78362115571298" lon="13.609949810407404"><ele>547.0</ele><time>2026-05-01T10:38:57Z</time></trkpt><trkpt lat="41.78369258877749" lon="13.609839596956052"><ele>547.0</ele><time>2026-05-01T10:38:58Z</time></trkpt><trkpt lat="41.7837586378409" lon="13.609705977038782"><ele>547.0</ele><time>2026-05-01T10:38:59Z</time></trkpt><trkpt lat="41.78383323219414" lon="13.609557591913473"><ele>547.0</ele><time>2026-05-01T10:39:00Z</time></trkpt><trkpt lat="41.783906699778186" lon="13.609416469001285"><ele>547.0</ele><time>2026-05-01T10:39:01Z</time></trkpt><trkpt lat="41.783982570762134" lon="13.609286110162119"><ele>543.25</ele><time>2026-05-01T10:39:02Z</time></trkpt><trkpt lat="41.78407109522924" lon="13.609171919604133"><ele>539.5</ele><time>2026-05-01T10:39:03Z</time></trkpt><trkpt lat="41.78414966952021" lon="13.609040477230337"><ele>535.75</ele><time>2026-05-01T10:39:04Z</time></trkpt><trkpt lat="41.78420091209211" lon="13.608872343602634"><ele>532.0</ele><time>2026-05-01T10:39:05Z</time></trkpt><trkpt lat="41.78427381853035" lon="13.608727910214045"><ele>532.8000000000001</ele><time>2026-05-01T10:39:06Z</time></trkpt><trkpt lat="41.7843304124854" lon="13.608583676039078"><ele>533.6</ele><time>2026-05-01T10:39:07Z</time></trkpt><trkpt lat="41.784372883047375" lon="13.608462770962944"><ele>534.4000000000001</ele><time>2026-05-01T10:39:08Z</time></trkpt><trkpt lat="41.78439688195893" lon="13.60832161747404"><ele>535.2</ele><time>2026-05-01T10:39:09Z</time></trkpt><trkpt lat="41.78441856179997" lon="13.608183245311864"><ele>536.0</ele><time>2026-05-01T10:39:10Z</time></trkpt><trkpt lat="41.784439845920964" lon="13.6080604331137"><ele>536.0</ele><time>2026-05-01T10:39:11Z</time></trkpt><trkpt lat="41.784482950802435" lon="13.607962586982456"><ele>536.0</ele><time>2026-05-01T10:39:12Z</time></trkpt><trkpt lat="41.7845312797863" lon="13.607855503984721"><ele>536.0</ele><time>2026-05-01T10:39:13Z</time></trkpt><trkpt lat="41.78457184713561" lon="13.607714247071952"><ele>536.0</ele><time>2026-05-01T10:39:14Z</time></trkpt><trkpt lat="41.784616327421055" lon="13.607567836164009"><ele>536.0</ele><time>2026-05-01T10:39:15Z</time></trkpt><trkpt lat="41.78464512543336" lon="13.60741349666662"><ele>534.4</ele><time>2026-05-01T10:39:16Z</time></trkpt><trkpt lat="41.784665197709025" lon="13.607270046071623"><ele>532.8</ele><time>2026-05-01T10:39:17Z</time></trkpt><trkpt lat="41.784681369744526" lon="13.60714137790568"><ele>531.1999999999999</ele><time>2026-05-01T10:39:18Z</time></trkpt><trkpt lat="41.78471850045578" lon="13.6070219323027"><ele>529.6</ele><time>2026-05-01T10:39:19Z</time></trkpt><trkpt lat="41.784806576034704" lon="13.60692800793923"><ele>528.0</ele><time>2026-05-01T10:39:20Z</time></trkpt><trkpt lat="41.78486551547161" lon="13.606811148444775"><ele>526.0</ele><time>2026-05-01T10:39:21Z</time></trkpt><trkpt lat="41.78491858184375" lon="13.606714890443232"><ele>524.0</ele><time>2026-05-01T10:39:22Z</time></trkpt><trkpt lat="41.784943257525015" lon="13.606609074707352"><ele>522.0</ele><time>2026-05-01T10:39:23Z</time></trkpt><trkpt lat="41.78493616815252" lon="13.606503521346909"><ele>520.0</ele><time>2026-05-01T10:39:24Z</time></trkpt><trkpt lat="41.78490403288511" lon="13.606397548435114"><ele>518.0</ele><time>2026-05-01T10:39:25Z</time></trkpt><trkpt lat="41.7848608091478" lon="13.606274827434184"><ele>516.0</ele><time>2026-05-01T10:39:26Z</time></trkpt><trkpt lat="41.78485525229364" lon="13.606133123832814"><ele>515.2</ele><time>2026-05-01T10:39:27Z</time></trkpt><trkpt lat="41.78485632564529" lon="13.605988055492135"><ele>514.4000000000001</ele><time>2026-05-01T10:39:28Z</time></trkpt><trkpt lat="41.78486526935222" lon="13.605848761210183"><ele>513.6</ele><time>2026-05-01T10:39:29Z</time></trkpt><trkpt lat="41.78488635676666" lon="13.605726527027048"><ele>512.8000000000001</ele><time>2026-05-01T10:39:30Z</time></trkpt><trkpt lat="41.784902417509045" lon="13.605604533157411"><ele>512.0</ele><time>2026-05-01T10:39:31Z</time></trkpt><trkpt lat="41.78493322841515" lon="13.605498095033727"><ele>512.0</ele><time>2026-05-01T10:39:32Z</time></trkpt><trkpt lat="41.78494964976328" lon="13.605404277023181"><ele>512.0</ele><time>2026-05-01T10:39:33Z</time></trkpt><trkpt lat="41.784972714803125" lon="13.605257414034096"><ele>512.0</ele><time>2026-05-01T10:39:35Z</time></trkpt><trkpt lat="41.78500763530768" lon="13.605091545035913"><ele>512.0</ele><time>2026-05-01T10:39:37Z</time></trkpt><trkpt lat="41.78503211658921" lon="13.604983316051854"><ele>512.0</ele><time>2026-05-01T10:39:38Z</time></trkpt><trkpt lat="41.78505642229458" lon="13.604870913840161"><ele>511.8333333333333</ele><time>2026-05-01T10:39:39Z</time></trkpt><trkpt lat="41.78507915760206" lon="13.604765151146117"><ele>511.66666666666663</ele><time>2026-05-01T10:39:40Z</time></trkpt><trkpt lat="41.78510376916607" lon="13.604660886539627"><ele>511.5</ele><time>2026-05-01T10:39:41Z</time></trkpt><trkpt lat="41.785129946439014" lon="13.604558184686368"><ele>511.33333333333337</ele><time>2026-05-01T10:39:42Z</time></trkpt><trkpt lat="41.78515315046881" lon="13.604465005703371"><ele>511.1666666666667</ele><time>2026-05-01T10:39:43Z</time></trkpt><trkpt lat="41.78518785947507" lon="13.604375686984467"><ele>511.0</ele><time>2026-05-01T10:39:44Z</time></trkpt><trkpt lat="41.785232932412505" lon="13.604257400383082"><ele>511.00000000000006</ele><time>2026-05-01T10:39:46Z</time></trkpt><trkpt lat="41.785236372510994" lon="13.604168283768166"><ele>511.0</ele><time>2026-05-01T10:39:48Z</time></trkpt><trkpt lat="41.78523580931861" lon="13.604073808993176"><ele>511.0</ele><time>2026-05-01T10:39:50Z</time></trkpt><trkpt lat="41.78531746550354" lon="13.603962795139008"><ele>511.0</ele><time>2026-05-01T10:39:57Z</time></trkpt><trkpt lat="41.7853933205965" lon="13.603951366524244"><ele>511.00000000000006</ele><time>2026-05-01T10:39:58Z</time></trkpt><trkpt lat="41.78547169373055" lon="13.603946047047097"><ele>511.0</ele><time>2026-05-01T10:39:59Z</time></trkpt><trkpt lat="41.785561467732556" lon="13.603948180992493"><ele>511.0</ele><time>2026-05-01T10:40:00Z</time></trkpt><trkpt lat="41.78567070508241" lon="13.603950896661003"><ele>511.0</ele><time>2026-05-01T10:40:01Z</time></trkpt><trkpt lat="41.78579898075826" lon="13.60394637026173"><ele>511.0</ele><time>2026-05-01T10:40:02Z</time></trkpt><trkpt lat="41.78592910072274" lon="13.603937723379696"><ele>511.0</ele><time>2026-05-01T10:40:03Z</time></trkpt><trkpt lat="41.78606799225104" lon="13.603925019958693"><ele>513.0</ele><time>2026-05-01T10:40:03.999Z</time></trkpt><trkpt lat="41.78621452690177" lon="13.603909174678686"><ele>515.0</ele><time>2026-05-01T10:40:04.999Z</time></trkpt><trkpt lat="41.78635981709282" lon="13.603896435638266"><ele>517.0</ele><time>2026-05-01T10:40:05.999Z</time></trkpt><trkpt lat="41.78649862294825" lon="13.60388315314355"><ele>519.0</ele><time>2026-05-01T10:40:06.999Z</time></trkpt><trkpt lat="41.78663193824269" lon="13.60387904508061"><ele>519.0</ele><time>2026-05-01T10:40:07.999Z</time></trkpt><trkpt lat="41.78676551172739" lon="13.603884174324715"><ele>519.0</ele><time>2026-05-01T10:40:08.999Z</time></trkpt><trkpt lat="41.78690225565149" lon="13.603899064063294"><ele>519.0</ele><time>2026-05-01T10:40:09.999Z</time></trkpt><trkpt lat="41.787037716755414" lon="13.603924157762469"><ele>519.0</ele><time>2026-05-01T10:40:10.999Z</time></trkpt><trkpt lat="41.78717822662575" lon="13.603957559740044"><ele>520.5</ele><time>2026-05-01T10:40:11.999Z</time></trkpt><trkpt lat="41.787320018067405" lon="13.603989625527696"><ele>522.0</ele><time>2026-05-01T10:40:12.999Z</time></trkpt><trkpt lat="41.78744994891752" lon="13.60402083794501"><ele>523.5</ele><time>2026-05-01T10:40:13.999Z</time></trkpt><trkpt lat="41.78756416845135" lon="13.604047302340543"><ele>525.0</ele><time>2026-05-01T10:40:14.999Z</time></trkpt><trkpt lat="41.78767581971527" lon="13.60405212189647"><ele>525.0</ele><time>2026-05-01T10:40:15.999Z</time></trkpt><trkpt lat="41.78778811922701" lon="13.604006767543984"><ele>525.0</ele><time>2026-05-01T10:40:16.999Z</time></trkpt><trkpt lat="41.78789459383151" lon="13.603897209680285"><ele>525.0</ele><time>2026-05-01T10:40:17.999Z</time></trkpt><trkpt lat="41.78799558713166" lon="13.603772158953028"><ele>525.0</ele><time>2026-05-01T10:40:18.999Z</time></trkpt><trkpt lat="41.78809624511845" lon="13.603660532977107"><ele>525.0</ele><time>2026-05-01T10:40:19.999Z</time></trkpt><trkpt lat="41.78820058356326" lon="13.60355158226476"><ele>525.0</ele><time>2026-05-01T10:40:20.999Z</time></trkpt><trkpt lat="41.7883079092584" lon="13.60344039280161"><ele>525.0</ele><time>2026-05-01T10:40:21.999Z</time></trkpt><trkpt lat="41.788410824042295" lon="13.603321228921988"><ele>525.0</ele><time>2026-05-01T10:40:22.999Z</time></trkpt><trkpt lat="41.788504995314675" lon="13.60319745575248"><ele>527.5</ele><time>2026-05-01T10:40:23.999Z</time></trkpt><trkpt lat="41.78859645438105" lon="13.603067956403525"><ele>530.0</ele><time>2026-05-01T10:40:24.999Z</time></trkpt><trkpt lat="41.788688444284304" lon="13.602940220611721"><ele>532.5</ele><time>2026-05-01T10:40:25.999Z</time></trkpt><trkpt lat="41.7887834179682" lon="13.60281274530107"><ele>535.0</ele><time>2026-05-01T10:40:26.999Z</time></trkpt><trkpt lat="41.78887740694112" lon="13.602694622784401"><ele>535.0</ele><time>2026-05-01T10:40:27.999Z</time></trkpt><trkpt lat="41.788956920686594" lon="13.602605212692216"><ele>535.0</ele><time>2026-05-01T10:40:28.999Z</time></trkpt><trkpt lat="41.78901910802976" lon="13.602548210642157"><ele>535.0</ele><time>2026-05-01T10:40:29.999Z</time></trkpt><trkpt lat="41.789078672420565" lon="13.602510167417256"><ele>535.0</ele><time>2026-05-01T10:40:30.999Z</time></trkpt><trkpt lat="41.789152510193496" lon="13.6024980646642"><ele>535.0</ele><time>2026-05-01T10:40:31.999Z</time></trkpt><trkpt lat="41.789222080358584" lon="13.602525709796469"><ele>535.0</ele><time>2026-05-01T10:40:32.999Z</time></trkpt><trkpt lat="41.78927775846598" lon="13.602608070730486"><ele>535.0</ele><time>2026-05-01T10:40:33.999Z</time></trkpt><trkpt lat="41.78930409758889" lon="13.602712064240734"><ele>535.0</ele><time>2026-05-01T10:40:34.999Z</time></trkpt><trkpt lat="41.78927844512265" lon="13.602819877223238"><ele>535.0</ele><time>2026-05-01T10:40:35.999Z</time></trkpt><trkpt lat="41.78925909643307" lon="13.602931680220705"><ele>535.0</ele><time>2026-05-01T10:40:36.999Z</time></trkpt><trkpt lat="41.789238610237256" lon="13.603061688810735"><ele>535.0</ele><time>2026-05-01T10:40:38Z</time></trkpt><trkpt lat="41.789227316474005" lon="13.603201767514571"><ele>536.4</ele><time>2026-05-01T10:40:39Z</time></trkpt><trkpt lat="41.78921172696834" lon="13.603316558545217"><ele>537.8</ele><time>2026-05-01T10:40:40Z</time></trkpt><trkpt lat="41.78919730470406" lon="13.6034452571772"><ele>539.2</ele><time>2026-05-01T10:40:42Z</time></trkpt><trkpt lat="41.7892154417111" lon="13.603312031182915"><ele>540.6</ele><time>2026-05-01T10:40:47Z</time></trkpt><trkpt lat="41.7892638374742" lon="13.603182505060056"><ele>542.0</ele><time>2026-05-01T10:40:48Z</time></trkpt><trkpt lat="41.78928154904792" lon="13.603040981557513"><ele>542.0</ele><time>2026-05-01T10:40:49Z</time></trkpt><trkpt lat="41.789300498171684" lon="13.602905162073007"><ele>542.0</ele><time>2026-05-01T10:40:50Z</time></trkpt><trkpt lat="41.789314321856395" lon="13.602787105170322"><ele>542.0</ele><time>2026-05-01T10:40:51Z</time></trkpt><trkpt lat="41.7893164839959" lon="13.602671224365604"><ele>542.0</ele><time>2026-05-01T10:40:52Z</time></trkpt><trkpt lat="41.78928391876533" lon="13.602570814555465"><ele>542.0</ele><time>2026-05-01T10:40:53Z</time></trkpt><trkpt lat="41.789211592749524" lon="13.602491833331644"><ele>540.6</ele><time>2026-05-01T10:40:54Z</time></trkpt><trkpt lat="41.789116113715735" lon="13.602461076144023"><ele>539.2</ele><time>2026-05-01T10:40:55Z</time></trkpt><trkpt lat="41.789025498625215" lon="13.602491682122494"><ele>537.8</ele><time>2026-05-01T10:40:56Z</time></trkpt><trkpt lat="41.78894736945413" lon="13.602564571991602"><ele>536.4</ele><time>2026-05-01T10:40:57Z</time></trkpt><trkpt lat="41.7888812190776" lon="13.602655637207935"><ele>535.0</ele><time>2026-05-01T10:40:58Z</time></trkpt><trkpt lat="41.78883340150797" lon="13.602754819979223"><ele>535.0</ele><time>2026-05-01T10:40:59Z</time></trkpt><trkpt lat="41.78877266747915" lon="13.602840780253933"><ele>535.0</ele><time>2026-05-01T10:41:01Z</time></trkpt><trkpt lat="41.788717175639455" lon="13.602759632669706"><ele>535.0</ele><time>2026-05-01T10:41:04Z</time></trkpt><trkpt lat="41.78877763374961" lon="13.602626043385849"><ele>535.0</ele><time>2026-05-01T10:41:06Z</time></trkpt><trkpt lat="41.788839502229585" lon="13.602558822415503"><ele>535.0</ele><time>2026-05-01T10:41:07Z</time></trkpt><trkpt lat="41.788891486770375" lon="13.602459310633234"><ele>535.0</ele><time>2026-05-01T10:41:08Z</time></trkpt><trkpt lat="41.78893776539451" lon="13.602373915995507"><ele>535.0</ele><time>2026-05-01T10:41:09Z</time></trkpt><trkpt lat="41.78897612588635" lon="13.60229351637832"><ele>535.0</ele><time>2026-05-01T10:41:10Z</time></trkpt><trkpt lat="41.78900916145527" lon="13.602211118386881"><ele>535.0</ele><time>2026-05-01T10:41:11Z</time></trkpt><trkpt lat="41.78905647332152" lon="13.60214209858453"><ele>535.0</ele><time>2026-05-01T10:41:12Z</time></trkpt><trkpt lat="41.7891305481812" lon="13.602061483967434"><ele>535.0</ele><time>2026-05-01T10:41:13Z</time></trkpt><trkpt lat="41.78923982126063" lon="13.60203527740803"><ele>532.25</ele><time>2026-05-01T10:41:14Z</time></trkpt><trkpt lat="41.78936988952816" lon="13.60197762481063"><ele>529.5</ele><time>2026-05-01T10:41:15Z</time></trkpt><trkpt lat="41.78950575057047" lon="13.601905303898016"><ele>526.75</ele><time>2026-05-01T10:41:16Z</time></trkpt><trkpt lat="41.78963557204783" lon="13.601838010711308"><ele>524.0</ele><time>2026-05-01T10:41:17Z</time></trkpt><trkpt lat="41.78976048971881" lon="13.601764981284617"><ele>524.0</ele><time>2026-05-01T10:41:18Z</time></trkpt><trkpt lat="41.78988637198795" lon="13.60168593970219"><ele>524.0</ele><time>2026-05-01T10:41:19Z</time></trkpt><trkpt lat="41.789997609528335" lon="13.60157922184991"><ele>524.0</ele><time>2026-05-01T10:41:20Z</time></trkpt><trkpt lat="41.7900867972182" lon="13.601467915978922"><ele>524.0</ele><time>2026-05-01T10:41:21Z</time></trkpt><trkpt lat="41.7901720094614" lon="13.601357871808721"><ele>522.25</ele><time>2026-05-01T10:41:22Z</time></trkpt><trkpt lat="41.79025222568757" lon="13.60124834515874"><ele>520.5</ele><time>2026-05-01T10:41:23Z</time></trkpt><trkpt lat="41.790347768771724" lon="13.60117702200806"><ele>518.75</ele><time>2026-05-01T10:41:24Z</time></trkpt><trkpt lat="41.79046933755739" lon="13.60113147977741"><ele>517.0</ele><time>2026-05-01T10:41:25Z</time></trkpt><trkpt lat="41.790616602428855" lon="13.601113546575757"><ele>517.0</ele><time>2026-05-01T10:41:26Z</time></trkpt><trkpt lat="41.79074833285281" lon="13.601050244937868"><ele>517.0</ele><time>2026-05-01T10:41:27Z</time></trkpt><trkpt lat="41.79086831297426" lon="13.600967962288383"><ele>517.0</ele><time>2026-05-01T10:41:28Z</time></trkpt><trkpt lat="41.79098470658447" lon="13.600853694455083"><ele>517.0</ele><time>2026-05-01T10:41:29Z</time></trkpt><trkpt lat="41.79112004866788" lon="13.600792329966415"><ele>517.25</ele><time>2026-05-01T10:41:30Z</time></trkpt><trkpt lat="41.79124576695339" lon="13.600759555992276"><ele>517.5</ele><time>2026-05-01T10:41:31Z</time></trkpt><trkpt lat="41.791364961167126" lon="13.60075097739626"><ele>517.75</ele><time>2026-05-01T10:41:32Z</time></trkpt><trkpt lat="41.79147954540664" lon="13.600753823842336"><ele>518.0</ele><time>2026-05-01T10:41:33Z</time></trkpt><trkpt lat="41.79158731167132" lon="13.600777182695902"><ele>518.0</ele><time>2026-05-01T10:41:34Z</time></trkpt><trkpt lat="41.79170175983321" lon="13.600778097863646"><ele>518.0</ele><time>2026-05-01T10:41:35Z</time></trkpt><trkpt lat="41.791814449991904" lon="13.600789723071777"><ele>518.0</ele><time>2026-05-01T10:41:36Z</time></trkpt><trkpt lat="41.79193053078643" lon="13.600763979403728"><ele>518.0</ele><time>2026-05-01T10:41:37Z</time></trkpt><trkpt lat="41.792050833011245" lon="13.60070056828867"><ele>516.0</ele><time>2026-05-01T10:41:38Z</time></trkpt><trkpt lat="41.7921677032137" lon="13.600606542670542"><ele>514.0</ele><time>2026-05-01T10:41:39Z</time></trkpt><trkpt lat="41.79227471643802" lon="13.600514183762819"><ele>512.0</ele><time>2026-05-01T10:41:40Z</time></trkpt><trkpt lat="41.79236683803184" lon="13.600420106476966"><ele>510.0</ele><time>2026-05-01T10:41:41Z</time></trkpt><trkpt lat="41.792424479173015" lon="13.60029165799773"><ele>510.0</ele><time>2026-05-01T10:41:42Z</time></trkpt><trkpt lat="41.7924648273097" lon="13.600161987053943"><ele>510.0</ele><time>2026-05-01T10:41:43Z</time></trkpt><trkpt lat="41.79247195732626" lon="13.599992824752281"><ele>510.0</ele><time>2026-05-01T10:41:44Z</time></trkpt><trkpt lat="41.79244350216547" lon="13.59982083267855"><ele>510.0</ele><time>2026-05-01T10:41:45Z</time></trkpt><trkpt lat="41.79240161068027" lon="13.599644036959756"><ele>508.75</ele><time>2026-05-01T10:41:46Z</time></trkpt><trkpt lat="41.79236631355852" lon="13.599465834999082"><ele>507.5</ele><time>2026-05-01T10:41:47Z</time></trkpt><trkpt lat="41.792342659017194" lon="13.599294646634242"><ele>506.25</ele><time>2026-05-01T10:41:48Z</time></trkpt><trkpt lat="41.79232321664865" lon="13.599133156148627"><ele>505.0</ele><time>2026-05-01T10:41:49Z</time></trkpt><trkpt lat="41.7923045358576" lon="13.598972755117224"><ele>505.0</ele><time>2026-05-01T10:41:50Z</time></trkpt><trkpt lat="41.79228868414369" lon="13.598803578621633"><ele>505.0</ele><time>2026-05-01T10:41:51Z</time></trkpt><trkpt lat="41.79230811548974" lon="13.598626896379855"><ele>505.0</ele><time>2026-05-01T10:41:52Z</time></trkpt><trkpt lat="41.792302362565806" lon="13.598454803956043"><ele>505.0</ele><time>2026-05-01T10:41:53Z</time></trkpt><trkpt lat="41.792308285396416" lon="13.59829916872054"><ele>505.0</ele><time>2026-05-01T10:41:54Z</time></trkpt><trkpt lat="41.79231938798525" lon="13.598155600645963"><ele>505.0</ele><time>2026-05-01T10:41:55Z</time></trkpt><trkpt lat="41.79232957643891" lon="13.598021332333605"><ele>505.0</ele><time>2026-05-01T10:41:56Z</time></trkpt><trkpt lat="41.79233950170978" lon="13.597897555507014"><ele>505.0</ele><time>2026-05-01T10:41:57Z</time></trkpt><trkpt lat="41.79235775851575" lon="13.597768698838257"><ele>505.0</ele><time>2026-05-01T10:41:57.999Z</time></trkpt><trkpt lat="41.79237380144685" lon="13.597619181911483"><ele>505.6</ele><time>2026-05-01T10:41:58.999Z</time></trkpt><trkpt lat="41.79238080918692" lon="13.597476182087927"><ele>506.2</ele><time>2026-05-01T10:41:59.999Z</time></trkpt><trkpt lat="41.792368938458026" lon="13.597339088398392"><ele>506.79999999999995</ele><time>2026-05-01T10:42:00.999Z</time></trkpt><trkpt lat="41.79233860983093" lon="13.597206921271221"><ele>507.4</ele><time>2026-05-01T10:42:01.999Z</time></trkpt><trkpt lat="41.79230047664395" lon="13.597088114161263"><ele>508.0</ele><time>2026-05-01T10:42:02.999Z</time></trkpt><trkpt lat="41.79226153278197" lon="13.596971161145753"><ele>508.0</ele><time>2026-05-01T10:42:03.999Z</time></trkpt><trkpt lat="41.792216725312564" lon="13.59686273204125"><ele>507.99999999999994</ele><time>2026-05-01T10:42:04.999Z</time></trkpt><trkpt lat="41.79216779308443" lon="13.59675685961961"><ele>507.99999999999994</ele><time>2026-05-01T10:42:05.999Z</time></trkpt><trkpt lat="41.79210544763415" lon="13.596643530479867"><ele>508.0</ele><time>2026-05-01T10:42:06.999Z</time></trkpt><trkpt lat="41.79203073636221" lon="13.596505873111433"><ele>508.0</ele><time>2026-05-01T10:42:07.999Z</time></trkpt><trkpt lat="41.79194291283997" lon="13.596361630355485"><ele>508.0</ele><time>2026-05-01T10:42:08.999Z</time></trkpt><trkpt lat="41.791858618608" lon="13.596201847356149"><ele>508.0</ele><time>2026-05-01T10:42:09.999Z</time></trkpt><trkpt lat="41.791782362506666" lon="13.596040792550298"><ele>508.0</ele><time>2026-05-01T10:42:10.999Z</time></trkpt><trkpt lat="41.79171178647432" lon="13.595862307758694"><ele>508.0</ele><time>2026-05-01T10:42:11.999Z</time></trkpt><trkpt lat="41.79164645226294" lon="13.59567573197424"><ele>504.5</ele><time>2026-05-01T10:42:12.999Z</time></trkpt><trkpt lat="41.79160599100601" lon="13.595477152715462"><ele>501.0</ele><time>2026-05-01T10:42:13.999Z</time></trkpt><trkpt lat="41.79154974407234" lon="13.595298662867593"><ele>497.5</ele><time>2026-05-01T10:42:14.999Z</time></trkpt><trkpt lat="41.791479699461746" lon="13.595135954726786"><ele>494.0</ele><time>2026-05-01T10:42:15.999Z</time></trkpt><trkpt lat="41.7914367983504" lon="13.594953770595534"><ele>494.0</ele><time>2026-05-01T10:42:16.999Z</time></trkpt><trkpt lat="41.79138363444747" lon="13.594779079101032"><ele>494.0</ele><time>2026-05-01T10:42:17.999Z</time></trkpt><trkpt lat="41.79133061618909" lon="13.594602973819615"><ele>494.0</ele><time>2026-05-01T10:42:18.999Z</time></trkpt><trkpt lat="41.79128090674564" lon="13.59442915373115"><ele>494.0</ele><time>2026-05-01T10:42:19.999Z</time></trkpt><trkpt lat="41.79122738956249" lon="13.594259161577087"><ele>493.25</ele><time>2026-05-01T10:42:20.999Z</time></trkpt><trkpt lat="41.79116565995233" lon="13.594099896154166"><ele>492.5</ele><time>2026-05-01T10:42:21.999Z</time></trkpt><trkpt lat="41.791106981950456" lon="13.593939984107099"><ele>491.75</ele><time>2026-05-01T10:42:22.999Z</time></trkpt><trkpt lat="41.791063957224445" lon="13.593768596505763"><ele>491.0</ele><time>2026-05-01T10:42:23.999Z</time></trkpt><trkpt lat="41.79103606770756" lon="13.59359087307123"><ele>490.25</ele><time>2026-05-01T10:42:24.999Z</time></trkpt><trkpt lat="41.79102374153998" lon="13.593410395719086"><ele>489.5</ele><time>2026-05-01T10:42:25.999Z</time></trkpt><trkpt lat="41.7910600656999" lon="13.59323045412569"><ele>488.75</ele><time>2026-05-01T10:42:26.999Z</time></trkpt><trkpt lat="41.79107261168453" lon="13.593047954726533"><ele>488.0</ele><time>2026-05-01T10:42:27.999Z</time></trkpt><trkpt lat="41.79110133375185" lon="13.592853567564326"><ele>488.75</ele><time>2026-05-01T10:42:28.999Z</time></trkpt><trkpt lat="41.791099140055444" lon="13.592653452408126"><ele>489.5</ele><time>2026-05-01T10:42:29.999Z</time></trkpt><trkpt lat="41.79107176360952" lon="13.592462214740314"><ele>490.25</ele><time>2026-05-01T10:42:30.999Z</time></trkpt><trkpt lat="41.791042708363726" lon="13.592278106433811"><ele>491.0</ele><time>2026-05-01T10:42:31.999Z</time></trkpt><trkpt lat="41.79102696735884" lon="13.592095350461832"><ele>493.0</ele><time>2026-05-01T10:42:32.999Z</time></trkpt><trkpt lat="41.791020463659024" lon="13.591913417583811"><ele>495.0</ele><time>2026-05-01T10:42:33.999Z</time></trkpt><trkpt lat="41.79101594902939" lon="13.59174451994044"><ele>497.0</ele><time>2026-05-01T10:42:34.999Z</time></trkpt><trkpt lat="41.79100059440659" lon="13.591584673216143"><ele>499.0</ele><time>2026-05-01T10:42:35.999Z</time></trkpt><trkpt lat="41.79095691536791" lon="13.59143319222463"><ele>491.25</ele><time>2026-05-01T10:42:36.999Z</time></trkpt><trkpt lat="41.790874996874095" lon="13.591286821739189"><ele>483.5</ele><time>2026-05-01T10:42:37.999Z</time></trkpt><trkpt lat="41.790778407430004" lon="13.591142460346806"><ele>475.75</ele><time>2026-05-01T10:42:38.999Z</time></trkpt><trkpt lat="41.790710560301314" lon="13.590965447166136"><ele>468.0</ele><time>2026-05-01T10:42:39.999Z</time></trkpt><trkpt lat="41.79064082965828" lon="13.59079365137828"><ele>468.0</ele><time>2026-05-01T10:42:40.999Z</time></trkpt><trkpt lat="41.79057291878119" lon="13.59063084485596"><ele>468.0</ele><time>2026-05-01T10:42:41.999Z</time></trkpt><trkpt lat="41.79050693913593" lon="13.59047341817812"><ele>468.0</ele><time>2026-05-01T10:42:42.999Z</time></trkpt><trkpt lat="41.79044894431375" lon="13.59032062692622"><ele>468.0</ele><time>2026-05-01T10:42:44Z</time></trkpt><trkpt lat="41.79039869066046" lon="13.590168906564875"><ele>467.59999999999997</ele><time>2026-05-01T10:42:45Z</time></trkpt><trkpt lat="41.7903756303384" lon="13.59002795619015"><ele>467.19999999999993</ele><time>2026-05-01T10:42:46Z</time></trkpt><trkpt lat="41.790375855090254" lon="13.589887187548795"><ele>466.8</ele><time>2026-05-01T10:42:47Z</time></trkpt><trkpt lat="41.790410393645466" lon="13.589762484761865"><ele>466.4</ele><time>2026-05-01T10:42:48Z</time></trkpt><trkpt lat="41.79043296282266" lon="13.589609252750677"><ele>466.0</ele><time>2026-05-01T10:42:49Z</time></trkpt><trkpt lat="41.79047616406847" lon="13.589444435270966"><ele>464.5</ele><time>2026-05-01T10:42:50Z</time></trkpt><trkpt lat="41.79052093903494" lon="13.589275369606764"><ele>463.0</ele><time>2026-05-01T10:42:51Z</time></trkpt><trkpt lat="41.79055742604688" lon="13.58911691089484"><ele>461.5</ele><time>2026-05-01T10:42:52Z</time></trkpt><trkpt lat="41.79059074977971" lon="13.588961684975624"><ele>460.0</ele><time>2026-05-01T10:42:53Z</time></trkpt><trkpt lat="41.790617052518655" lon="13.588787944172603"><ele>458.75</ele><time>2026-05-01T10:42:54Z</time></trkpt><trkpt lat="41.79063689956477" lon="13.588612852717079"><ele>457.5</ele><time>2026-05-01T10:42:55Z</time></trkpt><trkpt lat="41.79064432047432" lon="13.588433944456137"><ele>456.25</ele><time>2026-05-01T10:42:56Z</time></trkpt><trkpt lat="41.79063220347298" lon="13.588270307829367"><ele>455.0</ele><time>2026-05-01T10:42:57Z</time></trkpt><trkpt lat="41.79060067035347" lon="13.588123227061732"><ele>455.0</ele><time>2026-05-01T10:42:58Z</time></trkpt><trkpt lat="41.79055274754957" lon="13.5879885687534"><ele>455.0</ele><time>2026-05-01T10:42:59Z</time></trkpt><trkpt lat="41.79051511295105" lon="13.587855673774468"><ele>455.0</ele><time>2026-05-01T10:43:00Z</time></trkpt><trkpt lat="41.79045290089525" lon="13.587752401241001"><ele>455.0</ele><time>2026-05-01T10:43:01Z</time></trkpt><trkpt lat="41.79040994802718" lon="13.587638037277289"><ele>455.0</ele><time>2026-05-01T10:43:02Z</time></trkpt><trkpt lat="41.790369884207955" lon="13.587520721600137"><ele>457.0</ele><time>2026-05-01T10:43:03Z</time></trkpt><trkpt lat="41.790356088361634" lon="13.587366312561405"><ele>459.0</ele><time>2026-05-01T10:43:04Z</time></trkpt><trkpt lat="41.79035106918912" lon="13.587181119859832"><ele>461.0</ele><time>2026-05-01T10:43:05Z</time></trkpt><trkpt lat="41.79032451075117" lon="13.58698142762741"><ele>463.0</ele><time>2026-05-01T10:43:06Z</time></trkpt><trkpt lat="41.790306165296414" lon="13.586790144538517"><ele>461.75</ele><time>2026-05-01T10:43:07Z</time></trkpt><trkpt lat="41.79027892165952" lon="13.586620248635132"><ele>460.5</ele><time>2026-05-01T10:43:08Z</time></trkpt><trkpt lat="41.790262600713156" lon="13.586460832594074"><ele>459.25</ele><time>2026-05-01T10:43:09Z</time></trkpt><trkpt lat="41.79026734754887" lon="13.586302556735706"><ele>458.0</ele><time>2026-05-01T10:43:10Z</time></trkpt><trkpt lat="41.79029398811635" lon="13.586146464599777"><ele>458.0</ele><time>2026-05-01T10:43:11Z</time></trkpt><trkpt lat="41.79034491564981" lon="13.585983613922982"><ele>458.0</ele><time>2026-05-01T10:43:12Z</time></trkpt><trkpt lat="41.79044131227239" lon="13.585830127390256"><ele>458.0</ele><time>2026-05-01T10:43:13Z</time></trkpt><trkpt lat="41.79052145170526" lon="13.58564670042218"><ele>458.0</ele><time>2026-05-01T10:43:14Z</time></trkpt><trkpt lat="41.79060190230253" lon="13.585457724465707"><ele>452.0</ele><time>2026-05-01T10:43:15Z</time></trkpt><trkpt lat="41.79065552215711" lon="13.585247909732475"><ele>446.0</ele><time>2026-05-01T10:43:16Z</time></trkpt><trkpt lat="41.790691996719396" lon="13.585028674321137"><ele>440.0</ele><time>2026-05-01T10:43:17Z</time></trkpt><trkpt lat="41.79072005151801" lon="13.584822940557059"><ele>440.0</ele><time>2026-05-01T10:43:18Z</time></trkpt><trkpt lat="41.79074831261116" lon="13.584637288767684"><ele>440.0</ele><time>2026-05-01T10:43:19Z</time></trkpt><trkpt lat="41.79079020077525" lon="13.584481189001485"><ele>440.0</ele><time>2026-05-01T10:43:20Z</time></trkpt><trkpt lat="41.79087543789727" lon="13.584358743035756"><ele>440.0</ele><time>2026-05-01T10:43:21Z</time></trkpt><trkpt lat="41.79098997585709" lon="13.584231315243798"><ele>437.66666666666663</ele><time>2026-05-01T10:43:22Z</time></trkpt><trkpt lat="41.791116072587805" lon="13.584061346874519"><ele>435.33333333333337</ele><time>2026-05-01T10:43:23Z</time></trkpt><trkpt lat="41.791245550657564" lon="13.583882045109508"><ele>433.0</ele><time>2026-05-01T10:43:24Z</time></trkpt><trkpt lat="41.79137282534403" lon="13.58366298408603"><ele>433.0</ele><time>2026-05-01T10:43:25Z</time></trkpt><trkpt lat="41.79149357714492" lon="13.583414819605006"><ele>433.0</ele><time>2026-05-01T10:43:26Z</time></trkpt><trkpt lat="41.79162386035846" lon="13.583198736284496"><ele>433.0</ele><time>2026-05-01T10:43:27Z</time></trkpt><trkpt lat="41.791744018723584" lon="13.583001532152261"><ele>435.33333333333337</ele><time>2026-05-01T10:43:28Z</time></trkpt><trkpt lat="41.79184002910292" lon="13.582816291729834"><ele>437.66666666666663</ele><time>2026-05-01T10:43:29Z</time></trkpt><trkpt lat="41.79195124191377" lon="13.582642524265136"><ele>440.0</ele><time>2026-05-01T10:43:30Z</time></trkpt><trkpt lat="41.79206890304493" lon="13.5824554350104"><ele>440.0</ele><time>2026-05-01T10:43:31Z</time></trkpt><trkpt lat="41.792186315605065" lon="13.582264480506526"><ele>440.0</ele><time>2026-05-01T10:43:32Z</time></trkpt><trkpt lat="41.79231094310041" lon="13.582092277645353"><ele>440.0</ele><time>2026-05-01T10:43:33Z</time></trkpt><trkpt lat="41.79242153563989" lon="13.581912904811809"><ele>439.66666666666663</ele><time>2026-05-01T10:43:34Z</time></trkpt><trkpt lat="41.792514656424224" lon="13.581732853686846"><ele>439.33333333333337</ele><time>2026-05-01T10:43:35Z</time></trkpt><trkpt lat="41.7926177672425" lon="13.581568149936862"><ele>439.0</ele><time>2026-05-01T10:43:36Z</time></trkpt><trkpt lat="41.79271595778661" lon="13.581411576578901"><ele>439.0</ele><time>2026-05-01T10:43:37Z</time></trkpt><trkpt lat="41.7928056434939" lon="13.581267141942199"><ele>439.0</ele><time>2026-05-01T10:43:38Z</time></trkpt><trkpt lat="41.792917766454856" lon="13.581160648543953"><ele>439.0</ele><time>2026-05-01T10:43:39Z</time></trkpt><trkpt lat="41.79304525309704" lon="13.581057033789527"><ele>439.0</ele><time>2026-05-01T10:43:40Z</time></trkpt><trkpt lat="41.79318135618433" lon="13.580952599825494"><ele>438.0</ele><time>2026-05-01T10:43:41Z</time></trkpt><trkpt lat="41.793315989445084" lon="13.58085113621862"><ele>437.0</ele><time>2026-05-01T10:43:42Z</time></trkpt><trkpt lat="41.79344262922028" lon="13.580736947882054"><ele>436.0</ele><time>2026-05-01T10:43:43Z</time></trkpt><trkpt lat="41.79357680077934" lon="13.5806364787512"><ele>436.0</ele><time>2026-05-01T10:43:44Z</time></trkpt><trkpt lat="41.79370660011744" lon="13.580537009302235"><ele>436.0</ele><time>2026-05-01T10:43:45Z</time></trkpt><trkpt lat="41.793827879019766" lon="13.580445287332862"><ele>436.0</ele><time>2026-05-01T10:43:46Z</time></trkpt><trkpt lat="41.79395080360249" lon="13.58037964793008"><ele>436.0</ele><time>2026-05-01T10:43:47Z</time></trkpt><trkpt lat="41.79405737564036" lon="13.580264701782147"><ele>435.33333333333337</ele><time>2026-05-01T10:43:48Z</time></trkpt><trkpt lat="41.79416994737412" lon="13.580147276263245"><ele>434.66666666666663</ele><time>2026-05-01T10:43:49Z</time></trkpt><trkpt lat="41.79427181452288" lon="13.579991657478308"><ele>434.0</ele><time>2026-05-01T10:43:50Z</time></trkpt><trkpt lat="41.79436321815205" lon="13.579815714224297"><ele>434.0</ele><time>2026-05-01T10:43:51Z</time></trkpt><trkpt lat="41.79445638698451" lon="13.579638397668342"><ele>434.0</ele><time>2026-05-01T10:43:52Z</time></trkpt><trkpt lat="41.79456566780289" lon="13.579487494927184"><ele>434.0</ele><time>2026-05-01T10:43:53Z</time></trkpt><trkpt lat="41.79465672426149" lon="13.579339009748798"><ele>432.0</ele><time>2026-05-01T10:43:54Z</time></trkpt><trkpt lat="41.79474255110467" lon="13.579193001300967"><ele>430.0</ele><time>2026-05-01T10:43:55Z</time></trkpt><trkpt lat="41.7948104573631" lon="13.579040334193495"><ele>428.0</ele><time>2026-05-01T10:43:56Z</time></trkpt><trkpt lat="41.79489920329549" lon="13.578917319695233"><ele>426.0</ele><time>2026-05-01T10:43:57Z</time></trkpt><trkpt lat="41.79497006543206" lon="13.578782236612598"><ele>427.75</ele><time>2026-05-01T10:43:58Z</time></trkpt><trkpt lat="41.79502688333757" lon="13.578635914606338"><ele>429.5</ele><time>2026-05-01T10:43:59Z</time></trkpt><trkpt lat="41.79510967807874" lon="13.578515035836801"><ele>431.25</ele><time>2026-05-01T10:44:00Z</time></trkpt><trkpt lat="41.79516588122194" lon="13.578376496100896"><ele>433.0</ele><time>2026-05-01T10:44:01Z</time></trkpt><trkpt lat="41.795229565474656" lon="13.578265181437251"><ele>433.0</ele><time>2026-05-01T10:44:02Z</time></trkpt><trkpt lat="41.79529591410586" lon="13.578167135504275"><ele>432.99999999999994</ele><time>2026-05-01T10:44:03Z</time></trkpt><trkpt lat="41.79539129028881" lon="13.578118867406449"><ele>432.99999999999994</ele><time>2026-05-01T10:44:04Z</time></trkpt><trkpt lat="41.795494111617515" lon="13.578078456455962"><ele>433.0</ele><time>2026-05-01T10:44:05Z</time></trkpt><trkpt lat="41.795608361358994" lon="13.578041025929382"><ele>433.0</ele><time>2026-05-01T10:44:05.999Z</time></trkpt><trkpt lat="41.79570580902065" lon="13.577960831610744"><ele>433.0</ele><time>2026-05-01T10:44:06.999Z</time></trkpt><trkpt lat="41.795784365696306" lon="13.577857146956774"><ele>433.0</ele><time>2026-05-01T10:44:07.999Z</time></trkpt><trkpt lat="41.79584999025968" lon="13.577725210376995"><ele>433.0</ele><time>2026-05-01T10:44:08.999Z</time></trkpt><trkpt lat="41.79591074122" lon="13.577589274954871"><ele>433.0</ele><time>2026-05-01T10:44:09.999Z</time></trkpt><trkpt lat="41.79598962145623" lon="13.57747241475317"><ele>433.25</ele><time>2026-05-01T10:44:10.999Z</time></trkpt><trkpt lat="41.79604806361276" lon="13.577332471892392"><ele>433.5</ele><time>2026-05-01T10:44:11.999Z</time></trkpt><trkpt lat="41.79611431804444" lon="13.5772058675984"><ele>433.75</ele><time>2026-05-01T10:44:12.999Z</time></trkpt><trkpt lat="41.796176356256886" lon="13.577079773365638"><ele>434.0</ele><time>2026-05-01T10:44:13.999Z</time></trkpt><trkpt lat="41.796231643282916" lon="13.576949493443262"><ele>434.0</ele><time>2026-05-01T10:44:14.999Z</time></trkpt><trkpt lat="41.7962798895071" lon="13.57681969289311"><ele>434.0</ele><time>2026-05-01T10:44:15.999Z</time></trkpt><trkpt lat="41.79626914538481" lon="13.576663017097344"><ele>434.0</ele><time>2026-05-01T10:44:16.999Z</time></trkpt><trkpt lat="41.796268596847234" lon="13.576525863531655"><ele>434.0</ele><time>2026-05-01T10:44:17.999Z</time></trkpt><trkpt lat="41.796276238144515" lon="13.576399099480188"><ele>434.0</ele><time>2026-05-01T10:44:18.999Z</time></trkpt><trkpt lat="41.79626606310085" lon="13.576281484093753"><ele>430.2</ele><time>2026-05-01T10:44:19.999Z</time></trkpt><trkpt lat="41.79628025132548" lon="13.57616906855276"><ele>426.4</ele><time>2026-05-01T10:44:20.999Z</time></trkpt><trkpt lat="41.796319632189544" lon="13.576059837290654"><ele>422.6</ele><time>2026-05-01T10:44:21.999Z</time></trkpt><trkpt lat="41.79638423553493" lon="13.575960467983677"><ele>418.8</ele><time>2026-05-01T10:44:22.999Z</time></trkpt><trkpt lat="41.79646025802277" lon="13.57588525794223"><ele>415.0</ele><time>2026-05-01T10:44:23.999Z</time></trkpt><trkpt lat="41.796564178796515" lon="13.575849016480005"><ele>415.0</ele><time>2026-05-01T10:44:24.999Z</time></trkpt><trkpt lat="41.79667616746396" lon="13.575816172864776"><ele>415.0</ele><time>2026-05-01T10:44:25.999Z</time></trkpt><trkpt lat="41.79679029842829" lon="13.57575166414502"><ele>415.0</ele><time>2026-05-01T10:44:26.999Z</time></trkpt><trkpt lat="41.79689470555759" lon="13.575700163123356"><ele>415.0</ele><time>2026-05-01T10:44:27.999Z</time></trkpt><trkpt lat="41.796992480438064" lon="13.575628750759481"><ele>417.0</ele><time>2026-05-01T10:44:28.999Z</time></trkpt><trkpt lat="41.79707871453302" lon="13.575542266406263"><ele>419.0</ele><time>2026-05-01T10:44:29.999Z</time></trkpt><trkpt lat="41.7971713124181" lon="13.575455211312253"><ele>421.0</ele><time>2026-05-01T10:44:30.999Z</time></trkpt><trkpt lat="41.797270429728535" lon="13.57538202372379"><ele>423.0</ele><time>2026-05-01T10:44:31.999Z</time></trkpt><trkpt lat="41.797381176979904" lon="13.575329666028669"><ele>419.0</ele><time>2026-05-01T10:44:32.999Z</time></trkpt><trkpt lat="41.79750586322259" lon="13.57530870605651"><ele>415.0</ele><time>2026-05-01T10:44:33.999Z</time></trkpt><trkpt lat="41.79762642430969" lon="13.575250308560214"><ele>411.0</ele><time>2026-05-01T10:44:34.999Z</time></trkpt><trkpt lat="41.797754940010385" lon="13.575213580467425"><ele>407.0</ele><time>2026-05-01T10:44:35.999Z</time></trkpt><trkpt lat="41.797879827082824" lon="13.575204323621566"><ele>407.0</ele><time>2026-05-01T10:44:36.999Z</time></trkpt><trkpt lat="41.79799213912506" lon="13.575171075150383"><ele>407.0</ele><time>2026-05-01T10:44:37.999Z</time></trkpt><trkpt lat="41.7980928689181" lon="13.575119658193726"><ele>407.0</ele><time>2026-05-01T10:44:38.999Z</time></trkpt><trkpt lat="41.79818850008145" lon="13.575075473036728"><ele>407.0</ele><time>2026-05-01T10:44:39.999Z</time></trkpt><trkpt lat="41.798273527117864" lon="13.575013963711472"><ele>407.0</ele><time>2026-05-01T10:44:40.999Z</time></trkpt><trkpt lat="41.79835734928512" lon="13.574946808576815"><ele>406.99999999999994</ele><time>2026-05-01T10:44:41.999Z</time></trkpt><trkpt lat="41.798437397779495" lon="13.574884743681798"><ele>407.0</ele><time>2026-05-01T10:44:42.999Z</time></trkpt><trkpt lat="41.7985093590943" lon="13.574830759481422"><ele>407.0</ele><time>2026-05-01T10:44:43.999Z</time></trkpt><trkpt lat="41.798572124487954" lon="13.574784012572488"><ele>407.0</ele><time>2026-05-01T10:44:44.999Z</time></trkpt><trkpt lat="41.798627083060495" lon="13.574741544735714"><ele>406.99999999999994</ele><time>2026-05-01T10:44:45.999Z</time></trkpt><trkpt lat="41.79871003506316" lon="13.574682309312186"><ele>407.0</ele><time>2026-05-01T10:44:47.999Z</time></trkpt><trkpt lat="41.79878314130627" lon="13.57463090619821"><ele>406.3333333333333</ele><time>2026-05-01T10:44:51Z</time></trkpt><trkpt lat="41.798850468643614" lon="13.574557362283466"><ele>405.66666666666663</ele><time>2026-05-01T10:44:54Z</time></trkpt><trkpt lat="41.79894490898951" lon="13.574469142023597"><ele>405.0</ele><time>2026-05-01T10:45:30Z</time></trkpt><trkpt lat="41.799007063574244" lon="13.574414769517157"><ele>404.33333333333337</ele><time>2026-05-01T10:45:31Z</time></trkpt><trkpt lat="41.799077778726925" lon="13.574354769246384"><ele>403.6666666666667</ele><time>2026-05-01T10:45:32Z</time></trkpt><trkpt lat="41.79915176853251" lon="13.574291062153161"><ele>403.0</ele><time>2026-05-01T10:45:33Z</time></trkpt><trkpt lat="41.799224946639285" lon="13.574226132764892"><ele>403.0</ele><time>2026-05-01T10:45:34Z</time></trkpt><trkpt lat="41.799309853802235" lon="13.574185387992356"><ele>403.0</ele><time>2026-05-01T10:45:35Z</time></trkpt><trkpt lat="41.79939234310144" lon="13.574136778737625"><ele>403.0</ele><time>2026-05-01T10:45:36Z</time></trkpt><trkpt lat="41.799478302124044" lon="13.574079614237805"><ele>403.0</ele><time>2026-05-01T10:45:37Z</time></trkpt><trkpt lat="41.79956938222663" lon="13.574001045272512"><ele>403.0</ele><time>2026-05-01T10:45:38Z</time></trkpt><trkpt lat="41.799630888600205" lon="13.573859484474136"><ele>403.75</ele><time>2026-05-01T10:45:39Z</time></trkpt><trkpt lat="41.79971284487674" lon="13.573715738153368"><ele>404.5</ele><time>2026-05-01T10:45:40Z</time></trkpt><trkpt lat="41.7997973005307" lon="13.573566501424649"><ele>405.25</ele><time>2026-05-01T10:45:41Z</time></trkpt><trkpt lat="41.79989205728997" lon="13.573421938275514"><ele>406.0</ele><time>2026-05-01T10:45:42Z</time></trkpt><trkpt lat="41.800006593602646" lon="13.57329989549713"><ele>406.0</ele><time>2026-05-01T10:45:43Z</time></trkpt><trkpt lat="41.8001065400722" lon="13.573163039074634"><ele>406.0</ele><time>2026-05-01T10:45:44Z</time></trkpt><trkpt lat="41.800174127530255" lon="13.572995005687538"><ele>406.0</ele><time>2026-05-01T10:45:45Z</time></trkpt><trkpt lat="41.8002398913643" lon="13.572854908305791"><ele>406.0</ele><time>2026-05-01T10:45:46Z</time></trkpt><trkpt lat="41.80031452713376" lon="13.57274850589653"><ele>405.0</ele><time>2026-05-01T10:45:47Z</time></trkpt><trkpt lat="41.800386021209064" lon="13.572638177386601"><ele>404.0</ele><time>2026-05-01T10:45:48Z</time></trkpt><trkpt lat="41.800451259036016" lon="13.57251660296919"><ele>403.0</ele><time>2026-05-01T10:45:49Z</time></trkpt><trkpt lat="41.800527639575485" lon="13.572429695115465"><ele>402.0</ele><time>2026-05-01T10:45:50Z</time></trkpt><trkpt lat="41.800607061796704" lon="13.57236439082365"><ele>401.0</ele><time>2026-05-01T10:45:51Z</time></trkpt><trkpt lat="41.800693057959315" lon="13.572360388046015"><ele>401.0</ele><time>2026-05-01T10:45:52Z</time></trkpt><trkpt lat="41.80079554989026" lon="13.572371128713376"><ele>401.0</ele><time>2026-05-01T10:45:54Z</time></trkpt><trkpt lat="41.800876269836024" lon="13.572379766239555"><ele>401.0</ele><time>2026-05-01T10:45:57Z</time></trkpt><trkpt lat="41.800918267057526" lon="13.572243808417271"><ele>401.0</ele><time>2026-05-01T10:46:02Z</time></trkpt><trkpt lat="41.80092078386854" lon="13.572152245067654"><ele>401.0</ele><time>2026-05-01T10:46:05Z</time></trkpt><trkpt lat="41.80083324241587" lon="13.57204423470854"><ele>401.0</ele><time>2026-05-01T10:46:06Z</time></trkpt><trkpt lat="41.800926407866825" lon="13.572160410987838"><ele>401.0</ele><time>2026-05-01T10:46:07Z</time></trkpt><trkpt lat="41.80079573281039" lon="13.57202637958303"><ele>401.0</ele><time>2026-05-01T10:46:08Z</time></trkpt><trkpt lat="41.800873319326314" lon="13.571985540176366"><ele>401.0</ele><time>2026-05-01T10:57:42Z</time></trkpt><trkpt lat="41.80100662078933" lon="13.572005045641514"><ele>398.0</ele><time>2026-05-01T10:57:44Z</time></trkpt><trkpt lat="41.80109732682405" lon="13.571984418813928"><ele>395.0</ele><time>2026-05-01T10:57:45Z</time></trkpt><trkpt lat="41.80119776923408" lon="13.57193265804558"><ele>392.0</ele><time>2026-05-01T10:57:46Z</time></trkpt><trkpt lat="41.80129848784436" lon="13.571901163736653"><ele>389.0</ele><time>2026-05-01T10:57:47Z</time></trkpt><trkpt lat="41.801389350334574" lon="13.571861594897829"><ele>386.0</ele><time>2026-05-01T10:57:48Z</time></trkpt><trkpt lat="41.8014756381638" lon="13.571851273011962"><ele>386.00000000000006</ele><time>2026-05-01T10:57:49Z</time></trkpt><trkpt lat="41.80155464174393" lon="13.571841009119506"><ele>386.0</ele><time>2026-05-01T10:57:50Z</time></trkpt><trkpt lat="41.801620192098866" lon="13.57181452176179"><ele>386.0</ele><time>2026-05-01T10:57:51Z</time></trkpt><trkpt lat="41.801668046053926" lon="13.571753646151343"><ele>386.0</ele><time>2026-05-01T10:57:52Z</time></trkpt><trkpt lat="41.8016788936722" lon="13.571657038853797"><ele>386.0</ele><time>2026-05-01T10:57:53Z</time></trkpt><trkpt lat="41.80167493510438" lon="13.571560957875844"><ele>386.00000000000006</ele><time>2026-05-01T10:57:54Z</time></trkpt><trkpt lat="41.801649859650944" lon="13.571458232876305"><ele>386.0</ele><time>2026-05-01T10:57:55Z</time></trkpt><trkpt lat="41.80165975537609" lon="13.57136604565175"><ele>386.0</ele><time>2026-05-01T10:57:56Z</time></trkpt><trkpt lat="41.80166517849322" lon="13.571270724258927"><ele>386.0</ele><time>2026-05-01T10:57:57Z</time></trkpt><trkpt lat="41.80173655122705" lon="13.57119422079566"><ele>386.0</ele><time>2026-05-01T10:57:58Z</time></trkpt><trkpt lat="41.80181619854287" lon="13.571093945136315"><ele>386.0</ele><time>2026-05-01T10:57:59Z</time></trkpt><trkpt lat="41.80190839027014" lon="13.57098469157642"><ele>386.0</ele><time>2026-05-01T10:58:00Z</time></trkpt><trkpt lat="41.80200329975459" lon="13.570865154047494"><ele>384.5</ele><time>2026-05-01T10:58:01Z</time></trkpt><trkpt lat="41.802090710725345" lon="13.570749102402205"><ele>383.0</ele><time>2026-05-01T10:58:02Z</time></trkpt><trkpt lat="41.80218481576706" lon="13.570655992559844"><ele>381.5</ele><time>2026-05-01T10:58:03Z</time></trkpt><trkpt lat="41.80228429377185" lon="13.570576281337265"><ele>380.0</ele><time>2026-05-01T10:58:04Z</time></trkpt><trkpt lat="41.802381723716046" lon="13.570505944215846"><ele>380.0</ele><time>2026-05-01T10:58:05Z</time></trkpt><trkpt lat="41.80247855052414" lon="13.570432066228047"><ele>380.0</ele><time>2026-05-01T10:58:06Z</time></trkpt><trkpt lat="41.802589237992144" lon="13.570400213086254"><ele>380.0</ele><time>2026-05-01T10:58:07Z</time></trkpt><trkpt lat="41.802708894703706" lon="13.57039638164768"><ele>380.0</ele><time>2026-05-01T10:58:08Z</time></trkpt><trkpt lat="41.80282815428049" lon="13.570448284588077"><ele>378.5</ele><time>2026-05-01T10:58:09Z</time></trkpt><trkpt lat="41.8029443964816" lon="13.570470025258471"><ele>377.0</ele><time>2026-05-01T10:58:10Z</time></trkpt><trkpt lat="41.80304051936758" lon="13.570567861884458"><ele>375.5</ele><time>2026-05-01T10:58:11Z</time></trkpt><trkpt lat="41.80313955010014" lon="13.570667890507783"><ele>374.0</ele><time>2026-05-01T10:58:12Z</time></trkpt><trkpt lat="41.803252997047984" lon="13.570758367463243"><ele>374.0</ele><time>2026-05-01T10:58:13Z</time></trkpt><trkpt lat="41.80335424924922" lon="13.570865444136494"><ele>374.0</ele><time>2026-05-01T10:58:14Z</time></trkpt><trkpt lat="41.80344074212552" lon="13.570982189346898"><ele>374.0</ele><time>2026-05-01T10:58:15Z</time></trkpt><trkpt lat="41.80352377032605" lon="13.571069709418417"><ele>374.0</ele><time>2026-05-01T10:58:16Z</time></trkpt><trkpt lat="41.80359911908869" lon="13.57111720188871"><ele>374.0</ele><time>2026-05-01T10:58:17Z</time></trkpt><trkpt lat="41.803687390988124" lon="13.571171358142811"><ele>372.6</ele><time>2026-05-01T10:58:19Z</time></trkpt><trkpt lat="41.803795231336345" lon="13.571064219686628"><ele>371.2</ele><time>2026-05-01T10:58:21Z</time></trkpt><trkpt lat="41.80387461074879" lon="13.571043400117857"><ele>369.8</ele><time>2026-05-01T10:58:22Z</time></trkpt><trkpt lat="41.803977164153096" lon="13.571021547708892"><ele>368.40000000000003</ele><time>2026-05-01T10:58:23Z</time></trkpt><trkpt lat="41.80408671308437" lon="13.570997871600781"><ele>367.0</ele><time>2026-05-01T10:58:24Z</time></trkpt><trkpt lat="41.804194740270994" lon="13.570965022662927"><ele>367.0</ele><time>2026-05-01T10:58:25Z</time></trkpt><trkpt lat="41.80430284275571" lon="13.570915977632053"><ele>367.0</ele><time>2026-05-01T10:58:26Z</time></trkpt><trkpt lat="41.804405564489464" lon="13.57080822501874"><ele>367.0</ele><time>2026-05-01T10:58:27Z</time></trkpt><trkpt lat="41.804480063965286" lon="13.570647549379695"><ele>367.0</ele><time>2026-05-01T10:58:28Z</time></trkpt><trkpt lat="41.804568258325105" lon="13.570494172391387"><ele>367.66666666666663</ele><time>2026-05-01T10:58:29Z</time></trkpt><trkpt lat="41.804636583973775" lon="13.570306017623372"><ele>368.3333333333333</ele><time>2026-05-01T10:58:30Z</time></trkpt><trkpt lat="41.80469753188118" lon="13.570097837987127"><ele>369.0</ele><time>2026-05-01T10:58:31Z</time></trkpt><trkpt lat="41.80475162506908" lon="13.569883461184965"><ele>369.0</ele><time>2026-05-01T10:58:32Z</time></trkpt><trkpt lat="41.80480564239272" lon="13.569665399025908"><ele>369.0</ele><time>2026-05-01T10:58:32.999Z</time></trkpt><trkpt lat="41.80486193629288" lon="13.569455421282143"><ele>369.0</ele><time>2026-05-01T10:58:33.999Z</time></trkpt><trkpt lat="41.80489704365337" lon="13.569260351804742"><ele>370.0</ele><time>2026-05-01T10:58:34.999Z</time></trkpt><trkpt lat="41.804924334775954" lon="13.569088297491797"><ele>371.0</ele><time>2026-05-01T10:58:35.999Z</time></trkpt><trkpt lat="41.804923032837095" lon="13.568905915804804"><ele>372.0</ele><time>2026-05-01T10:58:36.999Z</time></trkpt><trkpt lat="41.80489213751639" lon="13.56872072878542"><ele>373.0</ele><time>2026-05-01T10:58:37.999Z</time></trkpt><trkpt lat="41.80483239871958" lon="13.568544284028144"><ele>375.0</ele><time>2026-05-01T10:58:38.999Z</time></trkpt><trkpt lat="41.804758035367705" lon="13.568391591037482"><ele>377.0</ele><time>2026-05-01T10:58:39.999Z</time></trkpt><trkpt lat="41.80471371158649" lon="13.568249004141329"><ele>379.0</ele><time>2026-05-01T10:58:40.999Z</time></trkpt><trkpt lat="41.80466991697672" lon="13.568125809721714"><ele>381.0</ele><time>2026-05-01T10:58:41.999Z</time></trkpt><trkpt lat="41.80462001599146" lon="13.567999631081921"><ele>381.6</ele><time>2026-05-01T10:58:42.999Z</time></trkpt><trkpt lat="41.80460859672713" lon="13.56785449635299"><ele>382.20000000000005</ele><time>2026-05-01T10:58:43.999Z</time></trkpt><trkpt lat="41.80460765524948" lon="13.567718885684412"><ele>382.79999999999995</ele><time>2026-05-01T10:58:44.999Z</time></trkpt><trkpt lat="41.804632756874774" lon="13.567594374342452"><ele>383.4</ele><time>2026-05-01T10:58:45.999Z</time></trkpt><trkpt lat="41.8047083917186" lon="13.567515832462082"><ele>384.0</ele><time>2026-05-01T10:58:46.999Z</time></trkpt><trkpt lat="41.804797899304106" lon="13.567390858464295"><ele>384.0</ele><time>2026-05-01T10:58:47.999Z</time></trkpt><trkpt lat="41.804896331840396" lon="13.567249245891356"><ele>384.0</ele><time>2026-05-01T10:58:48.999Z</time></trkpt><trkpt lat="41.80496835485913" lon="13.567110331302398"><ele>384.0</ele><time>2026-05-01T10:58:49.999Z</time></trkpt><trkpt lat="41.80500565015029" lon="13.566954394502016"><ele>384.0</ele><time>2026-05-01T10:58:50.999Z</time></trkpt><trkpt lat="41.804981250437486" lon="13.566774265711295"><ele>384.79999999999995</ele><time>2026-05-01T10:58:51.999Z</time></trkpt><trkpt lat="41.80499465525052" lon="13.566621929554971"><ele>385.59999999999997</ele><time>2026-05-01T10:58:52.999Z</time></trkpt><trkpt lat="41.804999590624774" lon="13.566486338158546"><ele>386.4</ele><time>2026-05-01T10:58:53.999Z</time></trkpt><trkpt lat="41.80501204405665" lon="13.566349484840119"><ele>387.2</ele><time>2026-05-01T10:58:54.999Z</time></trkpt><trkpt lat="41.805093756829784" lon="13.566250180696485"><ele>388.0</ele><time>2026-05-01T10:58:55.999Z</time></trkpt><trkpt lat="41.80517420841966" lon="13.566148974637539"><ele>388.0</ele><time>2026-05-01T10:58:56.999Z</time></trkpt><trkpt lat="41.80523772914926" lon="13.566038867512564"><ele>388.0</ele><time>2026-05-01T10:58:57.999Z</time></trkpt><trkpt lat="41.805264046735736" lon="13.565900641354979"><ele>388.0</ele><time>2026-05-01T10:58:58.999Z</time></trkpt><trkpt lat="41.80528054127614" lon="13.565767576246373"><ele>388.0</ele><time>2026-05-01T10:58:59.999Z</time></trkpt><trkpt lat="41.80531879358657" lon="13.565636006846148"><ele>388.0</ele><time>2026-05-01T10:59:00.999Z</time></trkpt><trkpt lat="41.805368423064095" lon="13.565493055098038"><ele>385.0</ele><time>2026-05-01T10:59:01.999Z</time></trkpt><trkpt lat="41.805423134982725" lon="13.565359320383962"><ele>382.0</ele><time>2026-05-01T10:59:02.999Z</time></trkpt><trkpt lat="41.80549151883098" lon="13.565239372031245"><ele>379.0</ele><time>2026-05-01T10:59:03.999Z</time></trkpt><trkpt lat="41.805582284115445" lon="13.565110824382982"><ele>376.0</ele><time>2026-05-01T10:59:04.999Z</time></trkpt><trkpt lat="41.80567220812807" lon="13.564989500329762"><ele>376.0</ele><time>2026-05-01T10:59:05.999Z</time></trkpt><trkpt lat="41.805762141943674" lon="13.564869500348054"><ele>376.0</ele><time>2026-05-01T10:59:06.999Z</time></trkpt><trkpt lat="41.80584914081011" lon="13.56474967386571"><ele>376.0</ele><time>2026-05-01T10:59:07.999Z</time></trkpt><trkpt lat="41.80592501191458" lon="13.564621867317339"><ele>376.0</ele><time>2026-05-01T10:59:08.999Z</time></trkpt><trkpt lat="41.80601918657728" lon="13.564519300606863"><ele>373.5</ele><time>2026-05-01T10:59:09.999Z</time></trkpt><trkpt lat="41.80611404342599" lon="13.564424477831196"><ele>371.0</ele><time>2026-05-01T10:59:10.999Z</time></trkpt><trkpt lat="41.80620640845043" lon="13.564315558672307"><ele>368.5</ele><time>2026-05-01T10:59:11.999Z</time></trkpt><trkpt lat="41.8062924011593" lon="13.564214387709189"><ele>366.0</ele><time>2026-05-01T10:59:12.999Z</time></trkpt><trkpt lat="41.80638465691022" lon="13.564148941650544"><ele>366.0</ele><time>2026-05-01T10:59:13.999Z</time></trkpt><trkpt lat="41.80644981131021" lon="13.564076583266282"><ele>366.0</ele><time>2026-05-01T10:59:14.999Z</time></trkpt><trkpt lat="41.80651824842699" lon="13.56402462372015"><ele>366.0</ele><time>2026-05-01T10:59:15.999Z</time></trkpt><trkpt lat="41.80658859056829" lon="13.563996398755325"><ele>366.0</ele><time>2026-05-01T10:59:16.999Z</time></trkpt><trkpt lat="41.806645748667805" lon="13.56394225773454"><ele>366.0</ele><time>2026-05-01T10:59:18.999Z</time></trkpt><trkpt lat="41.80655573771175" lon="13.563709102326806"><ele>364.0</ele><time>2026-05-01T10:59:19.999Z</time></trkpt><trkpt lat="41.80647643818315" lon="13.563615368610098"><ele>362.0</ele><time>2026-05-01T10:59:20.999Z</time></trkpt><trkpt lat="41.80638486854013" lon="13.563514228470275"><ele>360.0</ele><time>2026-05-01T10:59:21.999Z</time></trkpt><trkpt lat="41.80629467422054" lon="13.563409667518"><ele>358.0</ele><time>2026-05-01T10:59:22.999Z</time></trkpt><trkpt lat="41.806197594515204" lon="13.563314172366184"><ele>358.0</ele><time>2026-05-01T10:59:23.999Z</time></trkpt><trkpt lat="41.80610728365626" lon="13.563206341347053"><ele>358.0</ele><time>2026-05-01T10:59:24.999Z</time></trkpt><trkpt lat="41.80601751385098" lon="13.563124405565167"><ele>358.0</ele><time>2026-05-01T10:59:25.999Z</time></trkpt><trkpt lat="41.80592921729222" lon="13.563043903364608"><ele>358.0</ele><time>2026-05-01T10:59:26.999Z</time></trkpt><trkpt lat="41.80584492267472" lon="13.562959325354178"><ele>358.0</ele><time>2026-05-01T10:59:27.999Z</time></trkpt><trkpt lat="41.80576925770537" lon="13.56287385199115"><ele>356.79999999999995</ele><time>2026-05-01T10:59:28.999Z</time></trkpt><trkpt lat="41.80568803146281" lon="13.562807584260224"><ele>355.6</ele><time>2026-05-01T10:59:29.999Z</time></trkpt><trkpt lat="41.8056096627311" lon="13.562732692735247"><ele>354.4</ele><time>2026-05-01T10:59:30.999Z</time></trkpt><trkpt lat="41.80551984430215" lon="13.562689926675068"><ele>353.20000000000005</ele><time>2026-05-01T10:59:32Z</time></trkpt><trkpt lat="41.80542279597034" lon="13.562655533045573"><ele>352.0</ele><time>2026-05-01T10:59:33Z</time></trkpt><trkpt lat="41.80531498048147" lon="13.562643207644497"><ele>352.0</ele><time>2026-05-01T10:59:34Z</time></trkpt><trkpt lat="41.80522299998398" lon="13.562615374784631"><ele>352.0</ele><time>2026-05-01T10:59:35Z</time></trkpt><trkpt lat="41.8051486253578" lon="13.56256298370883"><ele>352.0</ele><time>2026-05-01T10:59:36Z</time></trkpt><trkpt lat="41.80506992124845" lon="13.562508283634436"><ele>352.0</ele><time>2026-05-01T10:59:37Z</time></trkpt><trkpt lat="41.80499410197285" lon="13.562490648789467"><ele>352.0</ele><time>2026-05-01T10:59:38Z</time></trkpt><trkpt lat="41.804963706680034" lon="13.562403489222893"><ele>352.0</ele><time>2026-05-01T10:59:40Z</time></trkpt><trkpt lat="41.805011277703755" lon="13.56230875943463"><ele>352.0</ele><time>2026-05-01T10:59:42Z</time></trkpt><trkpt lat="41.80508234255031" lon="13.562240405203614"><ele>352.0</ele><time>2026-05-01T10:59:43Z</time></trkpt><trkpt lat="41.80517139893455" lon="13.562167619446846"><ele>352.0</ele><time>2026-05-01T10:59:44Z</time></trkpt><trkpt lat="41.80527208414365" lon="13.562077214460507"><ele>352.0</ele><time>2026-05-01T10:59:45Z</time></trkpt><trkpt lat="41.805378353571676" lon="13.56197268810011"><ele>352.0</ele><time>2026-05-01T10:59:46Z</time></trkpt><trkpt lat="41.80548891562485" lon="13.56185842061931"><ele>351.5</ele><time>2026-05-01T10:59:47Z</time></trkpt><trkpt lat="41.805604982439476" lon="13.561743249826513"><ele>351.0</ele><time>2026-05-01T10:59:48Z</time></trkpt><trkpt lat="41.805727844206395" lon="13.561633448424379"><ele>350.5</ele><time>2026-05-01T10:59:49Z</time></trkpt><trkpt lat="41.80585487052241" lon="13.561523022446956"><ele>350.0</ele><time>2026-05-01T10:59:50Z</time></trkpt><trkpt lat="41.80598882149775" lon="13.561401999195503"><ele>349.6666666666667</ele><time>2026-05-01T10:59:51Z</time></trkpt><trkpt lat="41.806128042631364" lon="13.561282738945271"><ele>349.3333333333333</ele><time>2026-05-01T10:59:52Z</time></trkpt><trkpt lat="41.806277432614976" lon="13.561165713605543"><ele>349.0</ele><time>2026-05-01T10:59:53Z</time></trkpt><trkpt lat="41.80643724334402" lon="13.561067705099466"><ele>349.0</ele><time>2026-05-01T10:59:54Z</time></trkpt><trkpt lat="41.80659901906682" lon="13.560969602913886"><ele>349.0</ele><time>2026-05-01T10:59:55Z</time></trkpt><trkpt lat="41.80676348166227" lon="13.560877984064831"><ele>349.0</ele><time>2026-05-01T10:59:56Z</time></trkpt><trkpt lat="41.80692994863576" lon="13.56078802631719"><ele>349.0</ele><time>2026-05-01T10:59:57Z</time></trkpt><trkpt lat="41.80709544420527" lon="13.560692280830043"><ele>349.0</ele><time>2026-05-01T10:59:58Z</time></trkpt><trkpt lat="41.807261637981334" lon="13.560591934082847"><ele>349.0</ele><time>2026-05-01T10:59:59Z</time></trkpt><trkpt lat="41.807421965138346" lon="13.560483273139717"><ele>349.0</ele><time>2026-05-01T11:00:00Z</time></trkpt><trkpt lat="41.807578104208986" lon="13.560368397824478"><ele>349.0</ele><time>2026-05-01T11:00:01Z</time></trkpt><trkpt lat="41.80772062223037" lon="13.560224823030234"><ele>349.0</ele><time>2026-05-01T11:00:02Z</time></trkpt><trkpt lat="41.8078568347431" lon="13.560061919915045"><ele>349.3333333333333</ele><time>2026-05-01T11:00:03Z</time></trkpt><trkpt lat="41.807987314913156" lon="13.55989260392903"><ele>349.6666666666667</ele><time>2026-05-01T11:00:04Z</time></trkpt><trkpt lat="41.808117717296795" lon="13.559725350988584"><ele>350.0</ele><time>2026-05-01T11:00:05Z</time></trkpt><trkpt lat="41.80823882635696" lon="13.559572506126012"><ele>349.33333333333337</ele><time>2026-05-01T11:00:06Z</time></trkpt><trkpt lat="41.808355899519526" lon="13.559425292913941"><ele>348.6666666666667</ele><time>2026-05-01T11:00:07Z</time></trkpt><trkpt lat="41.80847591878374" lon="13.559279966258181"><ele>348.0</ele><time>2026-05-01T11:00:08Z</time></trkpt><trkpt lat="41.80858512263472" lon="13.559139043114419"><ele>349.0</ele><time>2026-05-01T11:00:09Z</time></trkpt><trkpt lat="41.80868075409792" lon="13.559012984596965"><ele>350.0</ele><time>2026-05-01T11:00:10Z</time></trkpt><trkpt lat="41.80875453238734" lon="13.558909345653811"><ele>351.0</ele><time>2026-05-01T11:00:11Z</time></trkpt><trkpt lat="41.808864034548456" lon="13.558830487996211"><ele>352.0</ele><time>2026-05-01T11:00:12Z</time></trkpt><trkpt lat="41.80896487940467" lon="13.55870391962324"><ele>351.3333333333333</ele><time>2026-05-01T11:00:13Z</time></trkpt><trkpt lat="41.80907367568783" lon="13.558568835961687"><ele>350.6666666666667</ele><time>2026-05-01T11:00:14Z</time></trkpt><trkpt lat="41.80918281842192" lon="13.558417503021545"><ele>350.0</ele><time>2026-05-01T11:00:15Z</time></trkpt><trkpt lat="41.80930144372331" lon="13.558271823339945"><ele>349.6666666666667</ele><time>2026-05-01T11:00:16Z</time></trkpt><trkpt lat="41.80942049036244" lon="13.55812267102953"><ele>349.3333333333333</ele><time>2026-05-01T11:00:17Z</time></trkpt><trkpt lat="41.80954279087962" lon="13.55797184078952"><ele>349.0</ele><time>2026-05-01T11:00:18Z</time></trkpt><trkpt lat="41.809669645134484" lon="13.557817417194741"><ele>349.0</ele><time>2026-05-01T11:00:18.999Z</time></trkpt><trkpt lat="41.80979556487916" lon="13.557663276111109"><ele>349.0</ele><time>2026-05-01T11:00:19.999Z</time></trkpt><trkpt lat="41.80991983330286" lon="13.557511034343719"><ele>349.0</ele><time>2026-05-01T11:00:20.999Z</time></trkpt><trkpt lat="41.81004461396894" lon="13.557359639476898"><ele>349.3333333333333</ele><time>2026-05-01T11:00:21.999Z</time></trkpt><trkpt lat="41.81017543795186" lon="13.55721097546503"><ele>349.6666666666667</ele><time>2026-05-01T11:00:22.999Z</time></trkpt><trkpt lat="41.810305536052375" lon="13.557063935154693"><ele>350.0</ele><time>2026-05-01T11:00:23.999Z</time></trkpt><trkpt lat="41.810438245548376" lon="13.556920132544812"><ele>350.0</ele><time>2026-05-01T11:00:24.999Z</time></trkpt><trkpt lat="41.810572476897406" lon="13.556783458704418"><ele>350.0</ele><time>2026-05-01T11:00:25.999Z</time></trkpt><trkpt lat="41.810705466979876" lon="13.55664897456029"><ele>350.0</ele><time>2026-05-01T11:00:26.999Z</time></trkpt><trkpt lat="41.810840220150716" lon="13.556514154837542"><ele>350.0</ele><time>2026-05-01T11:00:27.999Z</time></trkpt><trkpt lat="41.81098076785174" lon="13.556388956417742"><ele>350.0</ele><time>2026-05-01T11:00:28.999Z</time></trkpt><trkpt lat="41.81113745529048" lon="13.556303874711727"><ele>350.0</ele><time>2026-05-01T11:00:29.999Z</time></trkpt><trkpt lat="41.81129501145805" lon="13.556217338543247"><ele>348.33333333333337</ele><time>2026-05-01T11:00:30.999Z</time></trkpt><trkpt lat="41.81145650387179" lon="13.556127996748"><ele>346.6666666666667</ele><time>2026-05-01T11:00:31.999Z</time></trkpt><trkpt lat="41.81162895354503" lon="13.556077242104028"><ele>345.0</ele><time>2026-05-01T11:00:32.999Z</time></trkpt><trkpt lat="41.811802328683264" lon="13.556044011447474"><ele>346.0</ele><time>2026-05-01T11:00:33.999Z</time></trkpt><trkpt lat="41.81197219046246" lon="13.556017361652845"><ele>347.0</ele><time>2026-05-01T11:00:34.999Z</time></trkpt><trkpt lat="41.81213811830589" lon="13.555994430140133"><ele>348.0</ele><time>2026-05-01T11:00:35.999Z</time></trkpt><trkpt lat="41.812300188413495" lon="13.555969076111682"><ele>348.0</ele><time>2026-05-01T11:00:36.999Z</time></trkpt><trkpt lat="41.81245955382415" lon="13.555932810833975"><ele>348.0</ele><time>2026-05-01T11:00:37.999Z</time></trkpt><trkpt lat="41.81261346218088" lon="13.5558754900912"><ele>348.0</ele><time>2026-05-01T11:00:38.999Z</time></trkpt><trkpt lat="41.81275182893769" lon="13.555768230114799"><ele>348.6666666666667</ele><time>2026-05-01T11:00:39.999Z</time></trkpt><trkpt lat="41.81287772379513" lon="13.555615185797393"><ele>349.33333333333337</ele><time>2026-05-01T11:00:40.999Z</time></trkpt><trkpt lat="41.81298363504675" lon="13.555423096180027"><ele>350.0</ele><time>2026-05-01T11:00:41.999Z</time></trkpt><trkpt lat="41.81308652644888" lon="13.555203761511326"><ele>350.0</ele><time>2026-05-01T11:00:42.999Z</time></trkpt><trkpt lat="41.813190177796834" lon="13.554960042941469"><ele>350.0</ele><time>2026-05-01T11:00:43.999Z</time></trkpt><trkpt lat="41.81330328030865" lon="13.554680638406838"><ele>350.0</ele><time>2026-05-01T11:00:44.999Z</time></trkpt><trkpt lat="41.81343118440591" lon="13.55437904123171"><ele>353.0</ele><time>2026-05-01T11:00:45.999Z</time></trkpt><trkpt lat="41.81356322400469" lon="13.554076255894564"><ele>356.0</ele><time>2026-05-01T11:00:46.999Z</time></trkpt><trkpt lat="41.813681665357166" lon="13.553810748893435"><ele>354.33333333333337</ele><time>2026-05-01T11:00:47.999Z</time></trkpt><trkpt lat="41.81378953703056" lon="13.553570756428888"><ele>352.6666666666667</ele><time>2026-05-01T11:00:48.999Z</time></trkpt><trkpt lat="41.81389170254032" lon="13.553345446627512"><ele>351.0</ele><time>2026-05-01T11:00:49.999Z</time></trkpt><trkpt lat="41.8139920957161" lon="13.55312959872609"><ele>351.0</ele><time>2026-05-01T11:00:50.999Z</time></trkpt><trkpt lat="41.81408371901985" lon="13.552942092265448"><ele>351.0</ele><time>2026-05-01T11:00:51.999Z</time></trkpt><trkpt lat="41.814176109389564" lon="13.552785625067218"><ele>351.0</ele><time>2026-05-01T11:00:52.999Z</time></trkpt><trkpt lat="41.81428075901873" lon="13.552653247439213"><ele>350.6</ele><time>2026-05-01T11:00:53.999Z</time></trkpt><trkpt lat="41.8144002795535" lon="13.55253988962531"><ele>350.20000000000005</ele><time>2026-05-01T11:00:54.999Z</time></trkpt><trkpt lat="41.81451569251626" lon="13.552478732693618"><ele>349.79999999999995</ele><time>2026-05-01T11:00:55.999Z</time></trkpt><trkpt lat="41.81458687484428" lon="13.55244880416186"><ele>349.4</ele><time>2026-05-01T11:00:56.999Z</time></trkpt><trkpt lat="41.81468813431315" lon="13.552419671667307"><ele>349.0</ele><time>2026-05-01T11:00:58.999Z</time></trkpt><trkpt lat="41.8147239973446" lon="13.552217114623408"><ele>349.0</ele><time>2026-05-01T11:00:59.999Z</time></trkpt><trkpt lat="41.81475618900151" lon="13.552095802365496"><ele>349.0</ele><time>2026-05-01T11:01:00.999Z</time></trkpt><trkpt lat="41.814757948135906" lon="13.551973967070882"><ele>349.0</ele><time>2026-05-01T11:01:01.999Z</time></trkpt><trkpt lat="41.81475668867746" lon="13.551830347801827"><ele>349.0</ele><time>2026-05-01T11:01:02.999Z</time></trkpt><trkpt lat="41.8146917824354" lon="13.551675023923321"><ele>349.0</ele><time>2026-05-01T11:01:03.999Z</time></trkpt><trkpt lat="41.81463027484094" lon="13.55151791935136"><ele>347.3333333333333</ele><time>2026-05-01T11:01:04.999Z</time></trkpt><trkpt lat="41.81455644600062" lon="13.55135064607668"><ele>345.6666666666667</ele><time>2026-05-01T11:01:05.999Z</time></trkpt><trkpt lat="41.81447641175308" lon="13.551167440392836"><ele>344.0</ele><time>2026-05-01T11:01:06.999Z</time></trkpt><trkpt lat="41.814396233617565" lon="13.55097411083065"><ele>343.75</ele><time>2026-05-01T11:01:07.999Z</time></trkpt><trkpt lat="41.81431605940194" lon="13.550787369137103"><ele>343.5</ele><time>2026-05-01T11:01:08.999Z</time></trkpt><trkpt lat="41.81424565623346" lon="13.55061713582084"><ele>343.25</ele><time>2026-05-01T11:01:09.999Z</time></trkpt><trkpt lat="41.81417592903991" lon="13.550449529400003"><ele>343.0</ele><time>2026-05-01T11:01:10.999Z</time></trkpt><trkpt lat="41.814110864990056" lon="13.550292961206319"><ele>342.79999999999995</ele><time>2026-05-01T11:01:11.999Z</time></trkpt><trkpt lat="41.81405987001876" lon="13.550150070603673"><ele>342.6</ele><time>2026-05-01T11:01:12.999Z</time></trkpt><trkpt lat="41.81402743255795" lon="13.550015290055327"><ele>342.4</ele><time>2026-05-01T11:01:13.999Z</time></trkpt><trkpt lat="41.8139947514643" lon="13.549897660228634"><ele>342.20000000000005</ele><time>2026-05-01T11:01:14.999Z</time></trkpt><trkpt lat="41.81400986043593" lon="13.549739783725641"><ele>342.0</ele><time>2026-05-01T11:01:15.999Z</time></trkpt><trkpt lat="41.81409564914391" lon="13.549586929964399"><ele>341.25</ele><time>2026-05-01T11:01:16.999Z</time></trkpt><trkpt lat="41.814189347395676" lon="13.549456918311513"><ele>340.5</ele><time>2026-05-01T11:01:17.999Z</time></trkpt><trkpt lat="41.81428915468315" lon="13.549357348990448"><ele>339.75</ele><time>2026-05-01T11:01:18.999Z</time></trkpt><trkpt lat="41.81439502759718" lon="13.549285079641876"><ele>339.0</ele><time>2026-05-01T11:01:19.999Z</time></trkpt><trkpt lat="41.814477479474974" lon="13.54918447385334"><ele>339.0</ele><time>2026-05-01T11:01:20.999Z</time></trkpt><trkpt lat="41.81458476167195" lon="13.549088642831391"><ele>339.0</ele><time>2026-05-01T11:01:21.999Z</time></trkpt><trkpt lat="41.81471125290761" lon="13.548975813070916"><ele>339.0</ele><time>2026-05-01T11:01:22.999Z</time></trkpt><trkpt lat="41.81485726280489" lon="13.548863505783059"><ele>339.0</ele><time>2026-05-01T11:01:23.999Z</time></trkpt><trkpt lat="41.814991757493274" lon="13.548740435861072"><ele>339.5</ele><time>2026-05-01T11:01:24.999Z</time></trkpt><trkpt lat="41.81511521469528" lon="13.54862686112248"><ele>340.0</ele><time>2026-05-01T11:01:25.999Z</time></trkpt><trkpt lat="41.81523480292861" lon="13.548517173958961"><ele>340.5</ele><time>2026-05-01T11:01:26.999Z</time></trkpt><trkpt lat="41.81534770771446" lon="13.54841416043926"><ele>341.0</ele><time>2026-05-01T11:01:27.999Z</time></trkpt><trkpt lat="41.815459317194474" lon="13.548315420645908"><ele>341.0</ele><time>2026-05-01T11:01:28.999Z</time></trkpt><trkpt lat="41.815568329825155" lon="13.54824370940623"><ele>341.0</ele><time>2026-05-01T11:01:29.999Z</time></trkpt><trkpt lat="41.81569333520467" lon="13.548215362290508"><ele>341.0</ele><time>2026-05-01T11:01:30.999Z</time></trkpt><trkpt lat="41.815839237203114" lon="13.548215123369415"><ele>341.0</ele><time>2026-05-01T11:01:31.999Z</time></trkpt><trkpt lat="41.815991178838004" lon="13.548238480026962"><ele>341.0</ele><time>2026-05-01T11:01:32.999Z</time></trkpt><trkpt lat="41.81614107572512" lon="13.548272015575593"><ele>341.0</ele><time>2026-05-01T11:01:33.999Z</time></trkpt><trkpt lat="41.816280395663846" lon="13.548277208994742"><ele>341.0</ele><time>2026-05-01T11:01:34.999Z</time></trkpt><trkpt lat="41.81640576143588" lon="13.548239766474296"><ele>341.0</ele><time>2026-05-01T11:01:35.999Z</time></trkpt><trkpt lat="41.81651690378367" lon="13.54813629141287"><ele>341.0</ele><time>2026-05-01T11:01:36.999Z</time></trkpt><trkpt lat="41.81661238586164" lon="13.54797568553336"><ele>341.0</ele><time>2026-05-01T11:01:38Z</time></trkpt><trkpt lat="41.816707709454015" lon="13.547781118912521"><ele>341.0</ele><time>2026-05-01T11:01:39Z</time></trkpt><trkpt lat="41.816835864155564" lon="13.547598359308598"><ele>341.5</ele><time>2026-05-01T11:01:40Z</time></trkpt><trkpt lat="41.81693428097624" lon="13.547409940900714"><ele>342.0</ele><time>2026-05-01T11:01:41Z</time></trkpt><trkpt lat="41.81702362396111" lon="13.547259112619951"><ele>342.5</ele><time>2026-05-01T11:01:42Z</time></trkpt><trkpt lat="41.81709294383216" lon="13.547106242624169"><ele>343.0</ele><time>2026-05-01T11:01:43Z</time></trkpt><trkpt lat="41.81715170500912" lon="13.546923550257274"><ele>345.0</ele><time>2026-05-01T11:01:44Z</time></trkpt><trkpt lat="41.81718762817524" lon="13.546742395661708"><ele>347.0</ele><time>2026-05-01T11:01:45Z</time></trkpt><trkpt lat="41.81720662450516" lon="13.546592129860393"><ele>349.0</ele><time>2026-05-01T11:01:46Z</time></trkpt><trkpt lat="41.81724101977684" lon="13.546486386028723"><ele>351.0</ele><time>2026-05-01T11:01:47Z</time></trkpt><trkpt lat="41.81729750025391" lon="13.546356487680766"><ele>351.0</ele><time>2026-05-01T11:01:49Z</time></trkpt><trkpt lat="41.81735513337326" lon="13.5463029043834"><ele>351.0</ele><time>2026-05-01T11:01:50Z</time></trkpt><trkpt lat="41.81741212126874" lon="13.546217189807987"><ele>351.0</ele><time>2026-05-01T11:01:51Z</time></trkpt><trkpt lat="41.81745917570472" lon="13.546086214218251"><ele>351.0</ele><time>2026-05-01T11:01:52Z</time></trkpt><trkpt lat="41.81751102049976" lon="13.545964947920222"><ele>351.0</ele><time>2026-05-01T11:01:53Z</time></trkpt><trkpt lat="41.81756142114032" lon="13.545824900095498"><ele>352.25</ele><time>2026-05-01T11:01:54Z</time></trkpt><trkpt lat="41.81760187283501" lon="13.545661674849264"><ele>353.5</ele><time>2026-05-01T11:01:55Z</time></trkpt><trkpt lat="41.81764012037113" lon="13.545494596216315"><ele>354.75</ele><time>2026-05-01T11:01:56Z</time></trkpt><trkpt lat="41.81769862814058" lon="13.5453492050234"><ele>356.0</ele><time>2026-05-01T11:01:57Z</time></trkpt><trkpt lat="41.817730024307615" lon="13.54520801856658"><ele>354.0</ele><time>2026-05-01T11:01:58Z</time></trkpt><trkpt lat="41.817770338233" lon="13.545112701135253"><ele>352.0</ele><time>2026-05-01T11:01:59Z</time></trkpt><trkpt lat="41.81781154330242" lon="13.5449919814798"><ele>350.0</ele><time>2026-05-01T11:02:01Z</time></trkpt><trkpt lat="41.81786464756336" lon="13.544867748284576"><ele>348.0</ele><time>2026-05-01T11:02:03Z</time></trkpt><trkpt lat="41.817908937993415" lon="13.544755091184388"><ele>346.0</ele><time>2026-05-01T11:02:05Z</time></trkpt><trkpt lat="41.81795741313155" lon="13.544688533910032"><ele>346.0</ele><time>2026-05-01T11:02:08Z</time></trkpt><trkpt lat="41.81802951654303" lon="13.54466865834316"><ele>346.0</ele><time>2026-05-01T11:02:25Z</time></trkpt><trkpt lat="41.818113424423416" lon="13.544624174366051"><ele>346.0</ele><time>2026-05-01T11:02:26.999Z</time></trkpt><trkpt lat="41.818236686929836" lon="13.544636915589386"><ele>346.0</ele><time>2026-05-01T11:02:28.999Z</time></trkpt><trkpt lat="41.81830582309612" lon="13.54464582877413"><ele>346.0</ele><time>2026-05-01T11:02:29.999Z</time></trkpt><trkpt lat="41.818384096198514" lon="13.544660986576112"><ele>346.0</ele><time>2026-05-01T11:02:30.999Z</time></trkpt><trkpt lat="41.81846881677777" lon="13.544667882668952"><ele>346.16666666666663</ele><time>2026-05-01T11:02:31.999Z</time></trkpt><trkpt lat="41.81854537143526" lon="13.544696133389966"><ele>346.3333333333333</ele><time>2026-05-01T11:02:32.999Z</time></trkpt><trkpt lat="41.81862284035718" lon="13.544708299048274"><ele>346.5</ele><time>2026-05-01T11:04:13Z</time></trkpt><trkpt lat="41.818745034901006" lon="13.544736580130754"><ele>346.6666666666667</ele><time>2026-05-01T11:04:15Z</time></trkpt><trkpt lat="41.81881439257425" lon="13.544767885367824"><ele>346.83333333333337</ele><time>2026-05-01T11:04:16Z</time></trkpt><trkpt lat="41.81888870294067" lon="13.544744004417344"><ele>347.0</ele><time>2026-05-01T11:04:17Z</time></trkpt><trkpt lat="41.81895433877308" lon="13.544690304172756"><ele>347.0</ele><time>2026-05-01T11:04:18Z</time></trkpt><trkpt lat="41.819023670359186" lon="13.544649053493801"><ele>347.0</ele><time>2026-05-01T11:04:19Z</time></trkpt><trkpt lat="41.81909413106768" lon="13.544652887657744"><ele>347.0</ele><time>2026-05-01T11:04:20Z</time></trkpt><trkpt lat="41.81914503059381" lon="13.544728388103618"><ele>347.0</ele><time>2026-05-01T11:04:21Z</time></trkpt><trkpt lat="41.81927636727258" lon="13.544745665940336"><ele>347.0</ele><time>2026-05-01T11:04:23Z</time></trkpt><trkpt lat="41.81932903375663" lon="13.54465326855154"><ele>347.0</ele><time>2026-05-01T11:04:24Z</time></trkpt><trkpt lat="41.81936906581629" lon="13.544563451972804"><ele>348.33333333333337</ele><time>2026-05-01T11:04:25Z</time></trkpt><trkpt lat="41.819436526396125" lon="13.544461476830136"><ele>349.6666666666667</ele><time>2026-05-01T11:04:26Z</time></trkpt><trkpt lat="41.81948180777881" lon="13.544335818789863"><ele>351.0</ele><time>2026-05-01T11:04:27Z</time></trkpt><trkpt lat="41.8195289468061" lon="13.544243874145675"><ele>352.3333333333333</ele><time>2026-05-01T11:04:28Z</time></trkpt><trkpt lat="41.81957748019211" lon="13.544176839367045"><ele>353.66666666666663</ele><time>2026-05-01T11:04:29Z</time></trkpt><trkpt lat="41.8196279822332" lon="13.54411521487025"><ele>355.0</ele><time>2026-05-01T11:04:30Z</time></trkpt><trkpt lat="41.81972366009873" lon="13.544166768968005"><ele>355.0</ele><time>2026-05-01T11:04:32Z</time></trkpt><trkpt lat="41.81985799809794" lon="13.544239363086781"><ele>355.0</ele><time>2026-05-01T11:04:34Z</time></trkpt><trkpt lat="41.81992476177456" lon="13.5442900877646"><ele>355.0</ele><time>2026-05-01T11:04:35Z</time></trkpt><trkpt lat="41.8199799530741" lon="13.544348574117274"><ele>355.0</ele><time>2026-05-01T11:04:37Z</time></trkpt><trkpt lat="41.82010338782725" lon="13.544214774921919"><ele>355.0</ele><time>2026-05-01T11:04:41Z</time></trkpt><trkpt lat="41.82014777118726" lon="13.54408451205365"><ele>355.0</ele><time>2026-05-01T11:04:42Z</time></trkpt><trkpt lat="41.820195146017845" lon="13.543947415253408"><ele>355.0</ele><time>2026-05-01T11:04:43Z</time></trkpt><trkpt lat="41.820269959673055" lon="13.543810609892262"><ele>355.0</ele><time>2026-05-01T11:04:44Z</time></trkpt><trkpt lat="41.82036458712372" lon="13.54366843340301"><ele>356.0</ele><time>2026-05-01T11:04:45Z</time></trkpt><trkpt lat="41.82047984526906" lon="13.543519745302092"><ele>357.0</ele><time>2026-05-01T11:04:46Z</time></trkpt><trkpt lat="41.82061411657579" lon="13.543386176289026"><ele>358.0</ele><time>2026-05-01T11:04:47Z</time></trkpt><trkpt lat="41.820755254522055" lon="13.543272705180211"><ele>358.0</ele><time>2026-05-01T11:04:48Z</time></trkpt><trkpt lat="41.820882485220835" lon="13.543188128767081"><ele>358.0</ele><time>2026-05-01T11:04:49Z</time></trkpt><trkpt lat="41.82100997279951" lon="13.543103335656122"><ele>358.0</ele><time>2026-05-01T11:04:50Z</time></trkpt><trkpt lat="41.821165783235955" lon="13.54300425016944"><ele>358.0</ele><time>2026-05-01T11:04:51Z</time></trkpt><trkpt lat="41.82135138280271" lon="13.542902823110456"><ele>358.0</ele><time>2026-05-01T11:04:52Z</time></trkpt><trkpt lat="41.82154808489372" lon="13.5428109288325"><ele>358.0</ele><time>2026-05-01T11:04:53Z</time></trkpt><trkpt lat="41.821753291998405" lon="13.542729404453455"><ele>358.66666666666663</ele><time>2026-05-01T11:04:54Z</time></trkpt><trkpt lat="41.82196171422697" lon="13.542649568447777"><ele>359.3333333333333</ele><time>2026-05-01T11:04:54.999Z</time></trkpt><trkpt lat="41.82217993315925" lon="13.542571580140283"><ele>360.0</ele><time>2026-05-01T11:04:55.999Z</time></trkpt><trkpt lat="41.82240961249485" lon="13.542507017262333"><ele>360.5</ele><time>2026-05-01T11:04:56.999Z</time></trkpt><trkpt lat="41.822651884035686" lon="13.54246784593709"><ele>361.0</ele><time>2026-05-01T11:04:57.999Z</time></trkpt><trkpt lat="41.82289478710575" lon="13.542471937896197"><ele>361.0</ele><time>2026-05-01T11:04:58.999Z</time></trkpt><trkpt lat="41.823147487110354" lon="13.54246618002089"><ele>361.0</ele><time>2026-05-01T11:04:59.999Z</time></trkpt><trkpt lat="41.82340229032137" lon="13.542441682285826"><ele>362.0</ele><time>2026-05-01T11:05:00.999Z</time></trkpt><trkpt lat="41.823645486188745" lon="13.542445461340517"><ele>363.0</ele><time>2026-05-01T11:05:01.999Z</time></trkpt><trkpt lat="41.82387338094708" lon="13.542444059115374"><ele>363.0</ele><time>2026-05-01T11:05:02.999Z</time></trkpt><trkpt lat="41.82409163975661" lon="13.542439012769766"><ele>363.0</ele><time>2026-05-01T11:05:03.999Z</time></trkpt><trkpt lat="41.824299078995914" lon="13.542423122004779"><ele>363.0</ele><time>2026-05-01T11:05:04.999Z</time></trkpt><trkpt lat="41.82451473398834" lon="13.542378437132808"><ele>363.5</ele><time>2026-05-01T11:05:05.999Z</time></trkpt><trkpt lat="41.82474077766461" lon="13.542292929243823"><ele>364.0</ele><time>2026-05-01T11:05:06.999Z</time></trkpt><trkpt lat="41.82496690969131" lon="13.542165537505923"><ele>365.0</ele><time>2026-05-01T11:05:07.999Z</time></trkpt><trkpt lat="41.8251843592067" lon="13.54199440482683"><ele>366.0</ele><time>2026-05-01T11:05:08.999Z</time></trkpt><trkpt lat="41.825396948131" lon="13.541780192340141"><ele>366.0</ele><time>2026-05-01T11:05:09.999Z</time></trkpt><trkpt lat="41.82561772953648" lon="13.541544475087107"><ele>366.0</ele><time>2026-05-01T11:05:10.999Z</time></trkpt><trkpt lat="41.82584189237349" lon="13.541304773151072"><ele>366.0</ele><time>2026-05-01T11:05:11.999Z</time></trkpt><trkpt lat="41.8260692615003" lon="13.541063545212154"><ele>366.0</ele><time>2026-05-01T11:05:12.999Z</time></trkpt><trkpt lat="41.82629387045537" lon="13.540822966004724"><ele>366.0</ele><time>2026-05-01T11:05:13.999Z</time></trkpt><trkpt lat="41.82651043971202" lon="13.540596478218275"><ele>366.0</ele><time>2026-05-01T11:05:14.999Z</time></trkpt><trkpt lat="41.82670434643501" lon="13.540388953990151"><ele>368.0</ele><time>2026-05-01T11:05:15.999Z</time></trkpt><trkpt lat="41.82687633806424" lon="13.54021057581388"><ele>370.0</ele><time>2026-05-01T11:05:16.999Z</time></trkpt><trkpt lat="41.8270520729801" lon="13.540021157522585"><ele>372.0</ele><time>2026-05-01T11:05:17.999Z</time></trkpt><trkpt lat="41.827266221398" lon="13.539768247864961"><ele>369.0</ele><time>2026-05-01T11:05:18.999Z</time></trkpt><trkpt lat="41.827456141642976" lon="13.539485952874164"><ele>366.0</ele><time>2026-05-01T11:05:19.999Z</time></trkpt><trkpt lat="41.827622684335324" lon="13.53919692529658"><ele>372.5</ele><time>2026-05-01T11:05:20.999Z</time></trkpt><trkpt lat="41.827770600368154" lon="13.538908127024591"><ele>379.0</ele><time>2026-05-01T11:05:21.999Z</time></trkpt><trkpt lat="41.827899428267116" lon="13.53863910062485"><ele>379.0</ele><time>2026-05-01T11:05:22.999Z</time></trkpt><trkpt lat="41.8280109386779" lon="13.53839173671521"><ele>379.0</ele><time>2026-05-01T11:05:23.999Z</time></trkpt><trkpt lat="41.82810744584422" lon="13.53816543745945"><ele>379.0</ele><time>2026-05-01T11:05:24.999Z</time></trkpt><trkpt lat="41.828195693351134" lon="13.537970127208476"><ele>379.0</ele><time>2026-05-01T11:05:25.999Z</time></trkpt><trkpt lat="41.82828080570382" lon="13.53780435703624"><ele>379.0</ele><time>2026-05-01T11:05:26.999Z</time></trkpt><trkpt lat="41.8283700330249" lon="13.537673232714436"><ele>379.0</ele><time>2026-05-01T11:05:27.999Z</time></trkpt><trkpt lat="41.82847903700244" lon="13.537577654209802"><ele>379.0</ele><time>2026-05-01T11:05:28.999Z</time></trkpt><trkpt lat="41.82862361805674" lon="13.537533016949956"><ele>379.0</ele><time>2026-05-01T11:05:29.999Z</time></trkpt><trkpt lat="41.8288014530111" lon="13.537531755564759"><ele>379.0</ele><time>2026-05-01T11:05:30.999Z</time></trkpt><trkpt lat="41.82899608774282" lon="13.53755140572916"><ele>379.0</ele><time>2026-05-01T11:05:31.999Z</time></trkpt><trkpt lat="41.82920035575919" lon="13.537541814666831"><ele>383.0</ele><time>2026-05-01T11:05:32.999Z</time></trkpt><trkpt lat="41.8293952294708" lon="13.537485911911524"><ele>387.0</ele><time>2026-05-01T11:05:33.999Z</time></trkpt><trkpt lat="41.82957049003835" lon="13.537383684995667"><ele>391.0</ele><time>2026-05-01T11:05:34.999Z</time></trkpt><trkpt lat="41.8297297777961" lon="13.537227677384992"><ele>394.6666666666667</ele><time>2026-05-01T11:05:35.999Z</time></trkpt><trkpt lat="41.82988570386426" lon="13.53703373577354"><ele>398.33333333333337</ele><time>2026-05-01T11:05:36.999Z</time></trkpt><trkpt lat="41.83002623760722" lon="13.53684118571243"><ele>402.0</ele><time>2026-05-01T11:05:37.999Z</time></trkpt><trkpt lat="41.83014391989108" lon="13.536675754428654"><ele>402.0</ele><time>2026-05-01T11:05:38.999Z</time></trkpt><trkpt lat="41.830243339746694" lon="13.536531832651548"><ele>402.0</ele><time>2026-05-01T11:05:39.999Z</time></trkpt><trkpt lat="41.83031397737403" lon="13.536367468530623"><ele>402.0</ele><time>2026-05-01T11:05:40.999Z</time></trkpt><trkpt lat="41.8303382368198" lon="13.536161567649383"><ele>402.0</ele><time>2026-05-01T11:05:41.999Z</time></trkpt><trkpt lat="41.830322407620045" lon="13.53592108391791"><ele>398.66666666666663</ele><time>2026-05-01T11:05:42.999Z</time></trkpt><trkpt lat="41.83031738898186" lon="13.53566771749407"><ele>395.3333333333333</ele><time>2026-05-01T11:05:43.999Z</time></trkpt><trkpt lat="41.830340654951925" lon="13.535421271449035"><ele>392.0</ele><time>2026-05-01T11:05:44.999Z</time></trkpt><trkpt lat="41.83038114704505" lon="13.535214417666007"><ele>388.25</ele><time>2026-05-01T11:05:45.999Z</time></trkpt><trkpt lat="41.8304400042638" lon="13.535053283787379"><ele>384.5</ele><time>2026-05-01T11:05:46.999Z</time></trkpt><trkpt lat="41.830533614633175" lon="13.534922545070504"><ele>380.75</ele><time>2026-05-01T11:05:47.999Z</time></trkpt><trkpt lat="41.830679334747074" lon="13.53486108304848"><ele>377.0</ele><time>2026-05-01T11:05:48.999Z</time></trkpt><trkpt lat="41.83083143855423" lon="13.534843304427277"><ele>380.33333333333337</ele><time>2026-05-01T11:05:50Z</time></trkpt><trkpt lat="41.830996439653966" lon="13.534862546665105"><ele>383.6666666666667</ele><time>2026-05-01T11:05:51Z</time></trkpt><trkpt lat="41.831144197842974" lon="13.53482289501868"><ele>387.0</ele><time>2026-05-01T11:05:52Z</time></trkpt><trkpt lat="41.83128394176263" lon="13.534732895210537"><ele>387.0</ele><time>2026-05-01T11:05:53Z</time></trkpt><trkpt lat="41.831404485586326" lon="13.534611846129774"><ele>387.0</ele><time>2026-05-01T11:05:54Z</time></trkpt><trkpt lat="41.83148598934173" lon="13.534490333749924"><ele>387.0</ele><time>2026-05-01T11:05:55Z</time></trkpt><trkpt lat="41.83152968011778" lon="13.534350260961748"><ele>387.0</ele><time>2026-05-01T11:05:56Z</time></trkpt><trkpt lat="41.83151275121535" lon="13.534183895956538"><ele>386.75</ele><time>2026-05-01T11:05:57Z</time></trkpt><trkpt lat="41.831448273764586" lon="13.534058519908536"><ele>386.5</ele><time>2026-05-01T11:05:58Z</time></trkpt><trkpt lat="41.83133169891001" lon="13.53397379506646"><ele>386.25</ele><time>2026-05-01T11:05:59Z</time></trkpt><trkpt lat="41.831186057658996" lon="13.533911542546111"><ele>386.0</ele><time>2026-05-01T11:06:00Z</time></trkpt><trkpt lat="41.83102607420449" lon="13.533840470991414"><ele>389.66666666666663</ele><time>2026-05-01T11:06:01Z</time></trkpt><trkpt lat="41.830851295059716" lon="13.53374501361783"><ele>393.33333333333337</ele><time>2026-05-01T11:06:02Z</time></trkpt><trkpt lat="41.830669135748614" lon="13.533616140874503"><ele>397.0</ele><time>2026-05-01T11:06:03Z</time></trkpt><trkpt lat="41.830485057492496" lon="13.533467791009226"><ele>397.0</ele><time>2026-05-01T11:06:04Z</time></trkpt><trkpt lat="41.83029708319005" lon="13.533343182820841"><ele>397.0</ele><time>2026-05-01T11:06:05Z</time></trkpt><trkpt lat="41.83011934113368" lon="13.533244950984606"><ele>397.0</ele><time>2026-05-01T11:06:06Z</time></trkpt><trkpt lat="41.82994321285311" lon="13.533156090419642"><ele>397.6666666666667</ele><time>2026-05-01T11:06:07Z</time></trkpt><trkpt lat="41.82978409872255" lon="13.533057228176888"><ele>398.33333333333337</ele><time>2026-05-01T11:06:08Z</time></trkpt><trkpt lat="41.829648391863635" lon="13.532934158139446"><ele>399.0</ele><time>2026-05-01T11:06:09Z</time></trkpt><trkpt lat="41.829544425437355" lon="13.53280888449337"><ele>399.0</ele><time>2026-05-01T11:06:10Z</time></trkpt><trkpt lat="41.829459964180685" lon="13.5326486094031"><ele>399.0</ele><time>2026-05-01T11:06:11Z</time></trkpt><trkpt lat="41.829417536045725" lon="13.532441114266785"><ele>399.0</ele><time>2026-05-01T11:06:12Z</time></trkpt><trkpt lat="41.82937721166253" lon="13.532214894479555"><ele>393.25</ele><time>2026-05-01T11:06:13Z</time></trkpt><trkpt lat="41.82929552444313" lon="13.532042598763516"><ele>387.5</ele><time>2026-05-01T11:06:14Z</time></trkpt><trkpt lat="41.8292182924275" lon="13.531890553682214"><ele>381.75</ele><time>2026-05-01T11:06:15Z</time></trkpt><trkpt lat="41.82917436122001" lon="13.531726865479595"><ele>376.0</ele><time>2026-05-01T11:06:16Z</time></trkpt><trkpt lat="41.82917335082871" lon="13.531540464562475"><ele>376.0</ele><time>2026-05-01T11:06:17Z</time></trkpt><trkpt lat="41.82923612685892" lon="13.531347566664593"><ele>376.0</ele><time>2026-05-01T11:06:18Z</time></trkpt><trkpt lat="41.82934768006239" lon="13.53116324900344"><ele>376.0</ele><time>2026-05-01T11:06:19Z</time></trkpt><trkpt lat="41.82947788242875" lon="13.530973297007456"><ele>380.3333333333333</ele><time>2026-05-01T11:06:20Z</time></trkpt><trkpt lat="41.82962016025523" lon="13.530803894926862"><ele>384.66666666666663</ele><time>2026-05-01T11:06:21Z</time></trkpt><trkpt lat="41.829769057186496" lon="13.530649621421793"><ele>389.0</ele><time>2026-05-01T11:06:22Z</time></trkpt><trkpt lat="41.829918234247764" lon="13.530529481220567"><ele>389.0</ele><time>2026-05-01T11:06:23Z</time></trkpt><trkpt lat="41.830053491163326" lon="13.530436651997965"><ele>389.0</ele><time>2026-05-01T11:06:24Z</time></trkpt><trkpt lat="41.83019929803759" lon="13.530385804898241"><ele>389.0</ele><time>2026-05-01T11:06:25Z</time></trkpt><trkpt lat="41.830373404045" lon="13.530376523876631"><ele>388.66666666666663</ele><time>2026-05-01T11:06:26Z</time></trkpt><trkpt lat="41.83052952980452" lon="13.530394111738838"><ele>388.33333333333337</ele><time>2026-05-01T11:06:27Z</time></trkpt><trkpt lat="41.83067795890116" lon="13.530398105939744"><ele>388.0</ele><time>2026-05-01T11:06:28Z</time></trkpt><trkpt lat="41.83082898576655" lon="13.530254900226687"><ele>389.6666666666667</ele><time>2026-05-01T11:06:29Z</time></trkpt><trkpt lat="41.83096534803021" lon="13.530096577212635"><ele>391.33333333333337</ele><time>2026-05-01T11:06:30Z</time></trkpt><trkpt lat="41.831083889185216" lon="13.529955814473622"><ele>393.0</ele><time>2026-05-01T11:06:31Z</time></trkpt><trkpt lat="41.831206199470685" lon="13.529885379812423"><ele>393.0</ele><time>2026-05-01T11:06:32Z</time></trkpt><trkpt lat="41.83133422026394" lon="13.529881567549682"><ele>393.0</ele><time>2026-05-01T11:06:33Z</time></trkpt><trkpt lat="41.83150039560213" lon="13.52987367980225"><ele>393.0</ele><time>2026-05-01T11:06:34Z</time></trkpt><trkpt lat="41.83168804039165" lon="13.529864908797617"><ele>398.0</ele><time>2026-05-01T11:06:35Z</time></trkpt><trkpt lat="41.83189551836973" lon="13.52984924168159"><ele>403.0</ele><time>2026-05-01T11:06:36Z</time></trkpt><trkpt lat="41.83211650847297" lon="13.529829492038594"><ele>408.0</ele><time>2026-05-01T11:06:37Z</time></trkpt><trkpt lat="41.832309385831586" lon="13.529789222936774"><ele>408.0</ele><time>2026-05-01T11:06:38Z</time></trkpt><trkpt lat="41.832517211621216" lon="13.529779117453467"><ele>408.0</ele><time>2026-05-01T11:06:39Z</time></trkpt><trkpt lat="41.83270280462962" lon="13.529691202719492"><ele>408.0</ele><time>2026-05-01T11:06:40Z</time></trkpt><trkpt lat="41.83287461574028" lon="13.529586306342773"><ele>403.33333333333337</ele><time>2026-05-01T11:06:41Z</time></trkpt><trkpt lat="41.83303936057798" lon="13.52953657895704"><ele>398.6666666666667</ele><time>2026-05-01T11:06:42Z</time></trkpt><trkpt lat="41.83320702206938" lon="13.52949231667257"><ele>394.0</ele><time>2026-05-01T11:06:43Z</time></trkpt><trkpt lat="41.83335907613239" lon="13.52940140218492"><ele>402.6666666666667</ele><time>2026-05-01T11:06:44Z</time></trkpt><trkpt lat="41.83349789425658" lon="13.529252673603404"><ele>411.33333333333337</ele><time>2026-05-01T11:06:45Z</time></trkpt><trkpt lat="41.83362060670152" lon="13.529034069609281"><ele>420.0</ele><time>2026-05-01T11:06:46Z</time></trkpt><trkpt lat="41.833746370342126" lon="13.528808637032704"><ele>413.66666666666663</ele><time>2026-05-01T11:06:47Z</time></trkpt><trkpt lat="41.833894129881436" lon="13.528615223966112"><ele>407.3333333333333</ele><time>2026-05-01T11:06:48Z</time></trkpt><trkpt lat="41.834042475053494" lon="13.528437465126975"><ele>401.0</ele><time>2026-05-01T11:06:49Z</time></trkpt><trkpt lat="41.83417324199763" lon="13.528272693901751"><ele>401.0</ele><time>2026-05-01T11:06:50Z</time></trkpt><trkpt lat="41.83426860333705" lon="13.528116533961974"><ele>401.0</ele><time>2026-05-01T11:06:51Z</time></trkpt><trkpt lat="41.83433856090485" lon="13.527945311067784"><ele>401.0</ele><time>2026-05-01T11:06:52Z</time></trkpt><trkpt lat="41.83440524088696" lon="13.52782068267528"><ele>401.0</ele><time>2026-05-01T11:06:53Z</time></trkpt><trkpt lat="41.834457714487996" lon="13.527726131739364"><ele>400.0</ele><time>2026-05-01T11:06:54Z</time></trkpt><trkpt lat="41.83452064692089" lon="13.527632948695137"><ele>399.0</ele><time>2026-05-01T11:06:55Z</time></trkpt><trkpt lat="41.834645997174064" lon="13.527650336806053"><ele>398.0</ele><time>2026-05-01T11:06:56Z</time></trkpt><trkpt lat="41.83476526277863" lon="13.527681863958561"><ele>397.0</ele><time>2026-05-01T11:06:57Z</time></trkpt><trkpt lat="41.83486387528713" lon="13.52775193900661"><ele>397.0</ele><time>2026-05-01T11:06:58Z</time></trkpt><trkpt lat="41.83494161749928" lon="13.527869782609894"><ele>397.0</ele><time>2026-05-01T11:06:59Z</time></trkpt><trkpt lat="41.83502876991354" lon="13.5280125872087"><ele>397.0</ele><time>2026-05-01T11:07:00Z</time></trkpt><trkpt lat="41.83511017621639" lon="13.528161452314675"><ele>397.0</ele><time>2026-05-01T11:07:00.999Z</time></trkpt><trkpt lat="41.835238120740435" lon="13.528242575303544"><ele>402.25</ele><time>2026-05-01T11:07:01.999Z</time></trkpt><trkpt lat="41.83538945958634" lon="13.528252561092962"><ele>407.5</ele><time>2026-05-01T11:07:02.999Z</time></trkpt><trkpt lat="41.83551781428068" lon="13.52822517717858"><ele>412.75</ele><time>2026-05-01T11:07:04Z</time></trkpt><trkpt lat="41.83562173977303" lon="13.528162232169992"><ele>418.0</ele><time>2026-05-01T11:07:04.999Z</time></trkpt><trkpt lat="41.83569693495468" lon="13.52802509186607"><ele>414.6666666666667</ele><time>2026-05-01T11:07:05.999Z</time></trkpt><trkpt lat="41.83572620267597" lon="13.527830508443904"><ele>411.33333333333337</ele><time>2026-05-01T11:07:06.999Z</time></trkpt><trkpt lat="41.83572422334928" lon="13.527603258669807"><ele>408.0</ele><time>2026-05-01T11:07:07.999Z</time></trkpt><trkpt lat="41.835715896146134" lon="13.52737837585431"><ele>408.0</ele><time>2026-05-01T11:07:08.999Z</time></trkpt><trkpt lat="41.83571122725906" lon="13.527171862206504"><ele>408.0</ele><time>2026-05-01T11:07:09.999Z</time></trkpt><trkpt lat="41.835706109984784" lon="13.526997075737391"><ele>408.0</ele><time>2026-05-01T11:07:10.999Z</time></trkpt><trkpt lat="41.835716663409286" lon="13.526826102038148"><ele>408.0</ele><time>2026-05-01T11:07:11.999Z</time></trkpt><trkpt lat="41.83579479717355" lon="13.52667238760635"><ele>407.5</ele><time>2026-05-01T11:07:12.999Z</time></trkpt><trkpt lat="41.835889560976966" lon="13.52650609250888"><ele>407.0</ele><time>2026-05-01T11:07:13.999Z</time></trkpt><trkpt lat="41.83598910436892" lon="13.526367938884919"><ele>406.5</ele><time>2026-05-01T11:07:14.999Z</time></trkpt><trkpt lat="41.836106096459886" lon="13.526257370040053"><ele>406.0</ele><time>2026-05-01T11:07:15.999Z</time></trkpt><trkpt lat="41.83625997793431" lon="13.52618877695788"><ele>406.0</ele><time>2026-05-01T11:07:16.999Z</time></trkpt><trkpt lat="41.83642907345014" lon="13.526134526984595"><ele>406.0</ele><time>2026-05-01T11:07:17.999Z</time></trkpt><trkpt lat="41.83659202662597" lon="13.526049541241145"><ele>406.0</ele><time>2026-05-01T11:07:18.999Z</time></trkpt><trkpt lat="41.836749754153274" lon="13.525928932944922"><ele>407.0</ele><time>2026-05-01T11:07:19.999Z</time></trkpt><trkpt lat="41.83688919209375" lon="13.525738001053115"><ele>408.0</ele><time>2026-05-01T11:07:20.999Z</time></trkpt><trkpt lat="41.83699133238767" lon="13.525514228978382"><ele>409.0</ele><time>2026-05-01T11:07:21.999Z</time></trkpt><trkpt lat="41.837055342441296" lon="13.525298989249663"><ele>409.0</ele><time>2026-05-01T11:07:22.999Z</time></trkpt><trkpt lat="41.83712112208577" lon="13.525114186821828"><ele>409.0</ele><time>2026-05-01T11:07:23.999Z</time></trkpt><trkpt lat="41.83723031872266" lon="13.524978031385462"><ele>409.0</ele><time>2026-05-01T11:07:24.999Z</time></trkpt><trkpt lat="41.83740121686586" lon="13.524911310664917"><ele>409.0</ele><time>2026-05-01T11:07:25.999Z</time></trkpt><trkpt lat="41.83758675913688" lon="13.52477600498334"><ele>409.0</ele><time>2026-05-01T11:07:26.999Z</time></trkpt><trkpt lat="41.83779402870929" lon="13.524637503281374"><ele>409.0</ele><time>2026-05-01T11:07:27.999Z</time></trkpt><trkpt lat="41.8380006836821" lon="13.52446101379784"><ele>407.33333333333337</ele><time>2026-05-01T11:07:28.999Z</time></trkpt><trkpt lat="41.83818529156528" lon="13.524308009077526"><ele>405.66666666666663</ele><time>2026-05-01T11:07:29.999Z</time></trkpt><trkpt lat="41.83834220885121" lon="13.524172747384661"><ele>404.0</ele><time>2026-05-01T11:07:30.999Z</time></trkpt><trkpt lat="41.838474099258214" lon="13.524068733321666"><ele>404.0</ele><time>2026-05-01T11:07:31.999Z</time></trkpt><trkpt lat="41.8385881511185" lon="13.523996680034925"><ele>404.0</ele><time>2026-05-01T11:07:32.999Z</time></trkpt><trkpt lat="41.83872652118466" lon="13.52395891835421"><ele>404.0</ele><time>2026-05-01T11:07:33.999Z</time></trkpt><trkpt lat="41.83888430997226" lon="13.524007689495663"><ele>404.0</ele><time>2026-05-01T11:07:34.999Z</time></trkpt><trkpt lat="41.83903941564435" lon="13.524020414226493"><ele>404.0</ele><time>2026-05-01T11:07:35.999Z</time></trkpt><trkpt lat="41.83917311307957" lon="13.524066924315203"><ele>404.0</ele><time>2026-05-01T11:07:36.999Z</time></trkpt><trkpt lat="41.83928075129338" lon="13.524157530075552"><ele>404.0</ele><time>2026-05-01T11:07:37.999Z</time></trkpt><trkpt lat="41.83934983861278" lon="13.524303897688743"><ele>404.0</ele><time>2026-05-01T11:07:38.999Z</time></trkpt><trkpt lat="41.839377090310506" lon="13.524491049561902"><ele>407.5</ele><time>2026-05-01T11:07:39.999Z</time></trkpt><trkpt lat="41.8394059137825" lon="13.524702154994865"><ele>411.0</ele><time>2026-05-01T11:07:40.999Z</time></trkpt><trkpt lat="41.839441503368235" lon="13.524907553288603"><ele>414.5</ele><time>2026-05-01T11:07:41.999Z</time></trkpt><trkpt lat="41.83947879069363" lon="13.525055261330584"><ele>418.0</ele><time>2026-05-01T11:07:42.999Z</time></trkpt><trkpt lat="41.83952661551445" lon="13.525154305959882"><ele>418.0</ele><time>2026-05-01T11:07:43.999Z</time></trkpt><trkpt lat="41.83961915795602" lon="13.525201204527388"><ele>418.0</ele><time>2026-05-01T11:07:44.999Z</time></trkpt><trkpt lat="41.83973284110757" lon="13.525164721960861"><ele>418.0</ele><time>2026-05-01T11:07:45.999Z</time></trkpt><trkpt lat="41.839814552310656" lon="13.525061370709885"><ele>418.0</ele><time>2026-05-01T11:07:46.999Z</time></trkpt><trkpt lat="41.839857420970176" lon="13.52488460651183"><ele>418.0</ele><time>2026-05-01T11:07:47.999Z</time></trkpt><trkpt lat="41.83987286758668" lon="13.524709469507423"><ele>418.0</ele><time>2026-05-01T11:07:48.999Z</time></trkpt><trkpt lat="41.83984258992882" lon="13.524517850254778"><ele>418.0</ele><time>2026-05-01T11:07:49.999Z</time></trkpt><trkpt lat="41.83980572002319" lon="13.524333367915977"><ele>418.0</ele><time>2026-05-01T11:07:50.999Z</time></trkpt><trkpt lat="41.839806587957604" lon="13.524148459242564"><ele>418.0</ele><time>2026-05-01T11:07:51.999Z</time></trkpt><trkpt lat="41.83984470722887" lon="13.523954652858151"><ele>418.0</ele><time>2026-05-01T11:07:52.999Z</time></trkpt><trkpt lat="41.83987650810035" lon="13.523744121789814"><ele>418.0</ele><time>2026-05-01T11:07:53.999Z</time></trkpt><trkpt lat="41.839855973765346" lon="13.523519741703913"><ele>417.6666666666667</ele><time>2026-05-01T11:07:54.999Z</time></trkpt><trkpt lat="41.83978572950488" lon="13.52328081555573"><ele>417.33333333333337</ele><time>2026-05-01T11:07:56Z</time></trkpt><trkpt lat="41.83971163536043" lon="13.523088524325324"><ele>417.0</ele><time>2026-05-01T11:07:57Z</time></trkpt><trkpt lat="41.83970658053643" lon="13.522931776273133"><ele>414.75</ele><time>2026-05-01T11:07:58Z</time></trkpt><trkpt lat="41.83972199003382" lon="13.522784642981115"><ele>412.5</ele><time>2026-05-01T11:07:59Z</time></trkpt><trkpt lat="41.83984421685599" lon="13.522687002659984"><ele>410.25</ele><time>2026-05-01T11:08:00Z</time></trkpt><trkpt lat="41.83997021775896" lon="13.522551125184073"><ele>408.0</ele><time>2026-05-01T11:08:01Z</time></trkpt><trkpt lat="41.84008219610738" lon="13.522371751505027"><ele>407.0</ele><time>2026-05-01T11:08:02Z</time></trkpt><trkpt lat="41.84017342473735" lon="13.522158674141714"><ele>406.0</ele><time>2026-05-01T11:08:03Z</time></trkpt><trkpt lat="41.84024285214128" lon="13.521960193371607"><ele>405.0</ele><time>2026-05-01T11:08:04Z</time></trkpt><trkpt lat="41.840330459050286" lon="13.521833021520887"><ele>405.0</ele><time>2026-05-01T11:08:05Z</time></trkpt><trkpt lat="41.84043223203209" lon="13.521766405051293"><ele>405.0</ele><time>2026-05-01T11:08:06Z</time></trkpt><trkpt lat="41.84056044976362" lon="13.521726123477455"><ele>405.0</ele><time>2026-05-01T11:08:07Z</time></trkpt><trkpt lat="41.840715065766204" lon="13.52176913241455"><ele>405.0</ele><time>2026-05-01T11:08:08Z</time></trkpt><trkpt lat="41.84088328816482" lon="13.521797047781428"><ele>405.66666666666663</ele><time>2026-05-01T11:08:09Z</time></trkpt><trkpt lat="41.84104308723914" lon="13.521867474967483"><ele>406.3333333333333</ele><time>2026-05-01T11:08:10Z</time></trkpt><trkpt lat="41.84119530026092" lon="13.52198716899695"><ele>407.0</ele><time>2026-05-01T11:08:11Z</time></trkpt><trkpt lat="41.84134912468952" lon="13.522115215631048"><ele>407.5</ele><time>2026-05-01T11:08:12Z</time></trkpt><trkpt lat="41.841493397421544" lon="13.52223041726344"><ele>408.0</ele><time>2026-05-01T11:08:13Z</time></trkpt><trkpt lat="41.84162798120995" lon="13.522313247404606"><ele>408.5</ele><time>2026-05-01T11:08:14Z</time></trkpt><trkpt lat="41.841752749898575" lon="13.522364365683883"><ele>409.0</ele><time>2026-05-01T11:08:15Z</time></trkpt><trkpt lat="41.84187869724382" lon="13.522388305512878"><ele>409.0</ele><time>2026-05-01T11:08:16Z</time></trkpt><trkpt lat="41.84201177023958" lon="13.522368682869468"><ele>409.0</ele><time>2026-05-01T11:08:17Z</time></trkpt><trkpt lat="41.84213161167965" lon="13.522300846633236"><ele>409.0</ele><time>2026-05-01T11:08:18Z</time></trkpt><trkpt lat="41.84220259159017" lon="13.52220679300341"><ele>409.0</ele><time>2026-05-01T11:08:19Z</time></trkpt><trkpt lat="41.842241328929596" lon="13.52207355000204"><ele>409.75</ele><time>2026-05-01T11:08:20Z</time></trkpt><trkpt lat="41.84224795817591" lon="13.521913354618436"><ele>410.5</ele><time>2026-05-01T11:08:21Z</time></trkpt><trkpt lat="41.842208253094526" lon="13.521760440149263"><ele>411.25</ele><time>2026-05-01T11:08:22Z</time></trkpt><trkpt lat="41.842104736067284" lon="13.521632505266888"><ele>412.0</ele><time>2026-05-01T11:08:23Z</time></trkpt><trkpt lat="41.84196561994172" lon="13.521525131572425"><ele>412.0</ele><time>2026-05-01T11:08:24Z</time></trkpt><trkpt lat="41.841809695532184" lon="13.521406220219317"><ele>412.0</ele><time>2026-05-01T11:08:25Z</time></trkpt><trkpt lat="41.841657943579044" lon="13.521263278919541"><ele>412.0</ele><time>2026-05-01T11:08:26Z</time></trkpt><trkpt lat="41.841487843968025" lon="13.521108898356776"><ele>415.6666666666667</ele><time>2026-05-01T11:08:27Z</time></trkpt><trkpt lat="41.84130500574858" lon="13.520947193511084"><ele>419.33333333333337</ele><time>2026-05-01T11:08:28Z</time></trkpt><trkpt lat="41.84115162490975" lon="13.520789131438038"><ele>423.0</ele><time>2026-05-01T11:08:29Z</time></trkpt><trkpt lat="41.84102501854026" lon="13.52067937849382"><ele>418.25</ele><time>2026-05-01T11:08:30Z</time></trkpt><trkpt lat="41.840920026933794" lon="13.520568883956912"><ele>413.5</ele><time>2026-05-01T11:08:31Z</time></trkpt><trkpt lat="41.84085473242985" lon="13.52042246726505"><ele>408.75</ele><time>2026-05-01T11:08:32Z</time></trkpt><trkpt lat="41.8408285029278" lon="13.520256977544603"><ele>404.0</ele><time>2026-05-01T11:08:33Z</time></trkpt><trkpt lat="41.84084249699259" lon="13.520063002292755"><ele>404.0</ele><time>2026-05-01T11:08:34Z</time></trkpt><trkpt lat="41.840885281796254" lon="13.519845152737222"><ele>404.0</ele><time>2026-05-01T11:08:35Z</time></trkpt><trkpt lat="41.84095065980897" lon="13.519608875624591"><ele>404.0</ele><time>2026-05-01T11:08:36Z</time></trkpt><trkpt lat="41.841003724172154" lon="13.519385997736606"><ele>407.75</ele><time>2026-05-01T11:08:37Z</time></trkpt><trkpt lat="41.84107565994994" lon="13.51919443690109"><ele>411.5</ele><time>2026-05-01T11:08:38Z</time></trkpt><trkpt lat="41.84116309612259" lon="13.519032726569867"><ele>415.25</ele><time>2026-05-01T11:08:39Z</time></trkpt><trkpt lat="41.841217358617605" lon="13.518864362858205"><ele>419.0</ele><time>2026-05-01T11:08:40Z</time></trkpt><trkpt lat="41.841282070696856" lon="13.51871638838634"><ele>419.0</ele><time>2026-05-01T11:08:41Z</time></trkpt><trkpt lat="41.84134743023169" lon="13.518562966355935"><ele>419.0</ele><time>2026-05-01T11:08:42Z</time></trkpt><trkpt lat="41.84141457275845" lon="13.518373299319862"><ele>419.0</ele><time>2026-05-01T11:08:43Z</time></trkpt><trkpt lat="41.84146217941374" lon="13.51815719569737"><ele>419.0</ele><time>2026-05-01T11:08:44Z</time></trkpt><trkpt lat="41.84148590026318" lon="13.517947188324767"><ele>419.0</ele><time>2026-05-01T11:08:45Z</time></trkpt><trkpt lat="41.84155288525648" lon="13.517758175974308"><ele>419.0</ele><time>2026-05-01T11:08:46Z</time></trkpt><trkpt lat="41.84165123549146" lon="13.51757554362706"><ele>422.0</ele><time>2026-05-01T11:08:47Z</time></trkpt><trkpt lat="41.84177862970903" lon="13.517406463751009"><ele>425.0</ele><time>2026-05-01T11:08:48Z</time></trkpt><trkpt lat="41.84190379628007" lon="13.51728998615197"><ele>428.0</ele><time>2026-05-01T11:08:49Z</time></trkpt><trkpt lat="41.842034281926935" lon="13.517237948797014"><ele>428.0</ele><time>2026-05-01T11:08:50Z</time></trkpt><trkpt lat="41.84216734374097" lon="13.517193071910349"><ele>428.0</ele><time>2026-05-01T11:08:51Z</time></trkpt><trkpt lat="41.842256988354734" lon="13.517117266374678"><ele>428.0</ele><time>2026-05-01T11:08:52Z</time></trkpt><trkpt lat="41.84230866940872" lon="13.516973420064037"><ele>428.0</ele><time>2026-05-01T11:08:53Z</time></trkpt><trkpt lat="41.84231611914253" lon="13.516791903755879"><ele>425.25</ele><time>2026-05-01T11:08:54Z</time></trkpt><trkpt lat="41.842290083226516" lon="13.51659573283387"><ele>422.5</ele><time>2026-05-01T11:08:55Z</time></trkpt><trkpt lat="41.8423255280062" lon="13.516416849087426"><ele>419.75</ele><time>2026-05-01T11:08:56Z</time></trkpt><trkpt lat="41.84240573926219" lon="13.516242959164423"><ele>417.0</ele><time>2026-05-01T11:08:57Z</time></trkpt><trkpt lat="41.842519565185235" lon="13.516065484320821"><ele>421.33333333333337</ele><time>2026-05-01T11:08:58Z</time></trkpt><trkpt lat="41.84265714169543" lon="13.515878219820484"><ele>425.6666666666667</ele><time>2026-05-01T11:08:59Z</time></trkpt><trkpt lat="41.8427988633208" lon="13.515705243588144"><ele>430.0</ele><time>2026-05-01T11:09:00Z</time></trkpt><trkpt lat="41.84295406466079" lon="13.515532332523682"><ele>421.6666666666667</ele><time>2026-05-01T11:09:01Z</time></trkpt><trkpt lat="41.843096148000726" lon="13.515366626768703"><ele>413.33333333333337</ele><time>2026-05-01T11:09:02Z</time></trkpt><trkpt lat="41.84324438985307" lon="13.515249435830155"><ele>405.0</ele><time>2026-05-01T11:09:03Z</time></trkpt><trkpt lat="41.84338442043004" lon="13.515159385767216"><ele>409.75</ele><time>2026-05-01T11:09:04Z</time></trkpt><trkpt lat="41.843529732042235" lon="13.515101011378508"><ele>414.5</ele><time>2026-05-01T11:09:05Z</time></trkpt><trkpt lat="41.84366394548628" lon="13.51507529918265"><ele>419.25</ele><time>2026-05-01T11:09:06Z</time></trkpt><trkpt lat="41.843775693827666" lon="13.515046140800964"><ele>424.0</ele><time>2026-05-01T11:09:07Z</time></trkpt><trkpt lat="41.84386922106476" lon="13.515033319450952"><ele>424.0</ele><time>2026-05-01T11:09:07.999Z</time></trkpt><trkpt lat="41.84393673332377" lon="13.51485850882246"><ele>424.0</ele><time>2026-05-01T11:09:08.999Z</time></trkpt><trkpt lat="41.84390407491369" lon="13.51469293774971"><ele>424.0</ele><time>2026-05-01T11:09:09.999Z</time></trkpt><trkpt lat="41.843809975027085" lon="13.514584648995584"><ele>424.0</ele><time>2026-05-01T11:09:10.999Z</time></trkpt><trkpt lat="41.84373583195018" lon="13.5144560535867"><ele>424.25</ele><time>2026-05-01T11:09:11.999Z</time></trkpt><trkpt lat="41.84369766166917" lon="13.51432969634478"><ele>424.5</ele><time>2026-05-01T11:09:12.999Z</time></trkpt><trkpt lat="41.84370936495427" lon="13.514161158155817"><ele>424.75</ele><time>2026-05-01T11:09:13.999Z</time></trkpt><trkpt lat="41.843792498492014" lon="13.514005057633605"><ele>425.0</ele><time>2026-05-01T11:09:14.999Z</time></trkpt><trkpt lat="41.84387228820484" lon="13.513814960258973"><ele>420.66666666666663</ele><time>2026-05-01T11:09:15.999Z</time></trkpt><trkpt lat="41.843955213307574" lon="13.513632521509425"><ele>416.33333333333337</ele><time>2026-05-01T11:09:16.999Z</time></trkpt><trkpt lat="41.84404668621135" lon="13.513465191929084"><ele>412.0</ele><time>2026-05-01T11:09:17.999Z</time></trkpt><trkpt lat="41.84417943151656" lon="13.513329773014124"><ele>416.6666666666667</ele><time>2026-05-01T11:09:18.999Z</time></trkpt><trkpt lat="41.84432820359654" lon="13.513204035564266"><ele>421.33333333333337</ele><time>2026-05-01T11:09:19.999Z</time></trkpt><trkpt lat="41.8444637578626" lon="13.513072856761891"><ele>426.0</ele><time>2026-05-01T11:09:20.999Z</time></trkpt><trkpt lat="41.8445875401472" lon="13.512885831746502"><ele>426.0</ele><time>2026-05-01T11:09:21.999Z</time></trkpt><trkpt lat="41.844683073908385" lon="13.512651098500681"><ele>426.0</ele><time>2026-05-01T11:09:22.999Z</time></trkpt><trkpt lat="41.844749904085376" lon="13.512393076868591"><ele>426.0</ele><time>2026-05-01T11:09:23.999Z</time></trkpt><trkpt lat="41.84478921594142" lon="13.512150449687079"><ele>421.0</ele><time>2026-05-01T11:09:24.999Z</time></trkpt><trkpt lat="41.84483469192977" lon="13.511916011522574"><ele>416.0</ele><time>2026-05-01T11:09:25.999Z</time></trkpt><trkpt lat="41.8449628911327" lon="13.511709801342086"><ele>411.0</ele><time>2026-05-01T11:09:26.999Z</time></trkpt><trkpt lat="41.84508037319317" lon="13.511465314192508"><ele>416.0</ele><time>2026-05-01T11:09:27.999Z</time></trkpt><trkpt lat="41.845213359617425" lon="13.511230669005265"><ele>421.0</ele><time>2026-05-01T11:09:28.999Z</time></trkpt><trkpt lat="41.84530147551736" lon="13.510991610186705"><ele>426.0</ele><time>2026-05-01T11:09:29.999Z</time></trkpt><trkpt lat="41.8453780667296" lon="13.51077005462799"><ele>426.0</ele><time>2026-05-01T11:09:30.999Z</time></trkpt><trkpt lat="41.845466720580085" lon="13.510568805103029"><ele>426.0</ele><time>2026-05-01T11:09:31.999Z</time></trkpt><trkpt lat="41.84557350972056" lon="13.510397667053317"><ele>426.0</ele><time>2026-05-01T11:09:32.999Z</time></trkpt><trkpt lat="41.84570880411686" lon="13.510247122300585"><ele>429.66666666666663</ele><time>2026-05-01T11:09:33.999Z</time></trkpt><trkpt lat="41.845860416421814" lon="13.510142292801046"><ele>433.3333333333333</ele><time>2026-05-01T11:09:34.999Z</time></trkpt><trkpt lat="41.846014518840974" lon="13.510047331719248"><ele>437.0</ele><time>2026-05-01T11:09:35.999Z</time></trkpt><trkpt lat="41.84613609288639" lon="13.509909466664693"><ele>437.0</ele><time>2026-05-01T11:09:36.999Z</time></trkpt><trkpt lat="41.84623790014701" lon="13.509743249532027"><ele>437.0</ele><time>2026-05-01T11:09:37.999Z</time></trkpt><trkpt lat="41.84630494939444" lon="13.509542232290551"><ele>437.0</ele><time>2026-05-01T11:09:38.999Z</time></trkpt><trkpt lat="41.84632652059686" lon="13.509318430727397"><ele>433.0</ele><time>2026-05-01T11:09:39.999Z</time></trkpt><trkpt lat="41.84632366555175" lon="13.509077529194272"><ele>429.0</ele><time>2026-05-01T11:09:40.999Z</time></trkpt><trkpt lat="41.846343810100784" lon="13.50886546313026"><ele>425.0</ele><time>2026-05-01T11:09:41.999Z</time></trkpt><trkpt lat="41.846353246900534" lon="13.508676183351126"><ele>422.75</ele><time>2026-05-01T11:09:42.999Z</time></trkpt><trkpt lat="41.84637585095364" lon="13.508505853214704"><ele>420.5</ele><time>2026-05-01T11:09:43.999Z</time></trkpt><trkpt lat="41.846437122932024" lon="13.508328714119337"><ele>418.25</ele><time>2026-05-01T11:09:44.999Z</time></trkpt><trkpt lat="41.846544276151725" lon="13.508149691393353"><ele>416.0</ele><time>2026-05-01T11:09:45.999Z</time></trkpt><trkpt lat="41.84667808673762" lon="13.507947588981303"><ele>419.0</ele><time>2026-05-01T11:09:46.999Z</time></trkpt><trkpt lat="41.84681976335264" lon="13.507732369549563"><ele>422.0</ele><time>2026-05-01T11:09:47.999Z</time></trkpt><trkpt lat="41.846964147353496" lon="13.507514030503861"><ele>425.0</ele><time>2026-05-01T11:09:48.999Z</time></trkpt><trkpt lat="41.84710575413421" lon="13.507301001467107"><ele>425.0</ele><time>2026-05-01T11:09:49.999Z</time></trkpt><trkpt lat="41.84723892531796" lon="13.50710151823691"><ele>425.0</ele><time>2026-05-01T11:09:50.999Z</time></trkpt><trkpt lat="41.84735825912458" lon="13.506891780097854"><ele>425.0</ele><time>2026-05-01T11:09:51.999Z</time></trkpt><trkpt lat="41.84747571232071" lon="13.506715375411634"><ele>425.66666666666663</ele><time>2026-05-01T11:09:52.999Z</time></trkpt><trkpt lat="41.84757687935468" lon="13.506545184689397"><ele>426.33333333333337</ele><time>2026-05-01T11:09:53.999Z</time></trkpt><trkpt lat="41.84765586846298" lon="13.506366277566196"><ele>427.0</ele><time>2026-05-01T11:09:54.999Z</time></trkpt><trkpt lat="41.84770767521026" lon="13.50616324703302"><ele>427.0</ele><time>2026-05-01T11:09:55.999Z</time></trkpt><trkpt lat="41.847724360222045" lon="13.50595669763216"><ele>427.0</ele><time>2026-05-01T11:09:56.999Z</time></trkpt><trkpt lat="41.847702048583024" lon="13.505773398312378"><ele>427.0</ele><time>2026-05-01T11:09:57.999Z</time></trkpt><trkpt lat="41.847630011038625" lon="13.50559440081301"><ele>427.0</ele><time>2026-05-01T11:09:58.999Z</time></trkpt><trkpt lat="41.847525262105286" lon="13.505423796919025"><ele>423.33333333333337</ele><time>2026-05-01T11:09:59.999Z</time></trkpt><trkpt lat="41.84739766610995" lon="13.50525299978804"><ele>419.66666666666663</ele><time>2026-05-01T11:10:01Z</time></trkpt><trkpt lat="41.84726573648642" lon="13.505086501042532"><ele>416.0</ele><time>2026-05-01T11:10:02Z</time></trkpt><trkpt lat="41.847144327506506" lon="13.504941007231425"><ele>416.0</ele><time>2026-05-01T11:10:03Z</time></trkpt><trkpt lat="41.84702719339527" lon="13.504798050171306"><ele>416.0</ele><time>2026-05-01T11:10:04Z</time></trkpt><trkpt lat="41.84692883310019" lon="13.504630386223361"><ele>416.0</ele><time>2026-05-01T11:10:05Z</time></trkpt><trkpt lat="41.846838397101784" lon="13.504453647673191"><ele>415.3333333333333</ele><time>2026-05-01T11:10:06Z</time></trkpt><trkpt lat="41.84674839210667" lon="13.50425914235271"><ele>414.66666666666663</ele><time>2026-05-01T11:10:07Z</time></trkpt><trkpt lat="41.846701099461775" lon="13.504045940797408"><ele>414.0</ele><time>2026-05-01T11:10:08Z</time></trkpt><trkpt lat="41.84664788013307" lon="13.503817558526737"><ele>414.66666666666663</ele><time>2026-05-01T11:10:09Z</time></trkpt><trkpt lat="41.846619146034264" lon="13.503591397401314"><ele>415.3333333333333</ele><time>2026-05-01T11:10:10Z</time></trkpt><trkpt lat="41.84656662808623" lon="13.503389216714545"><ele>416.0</ele><time>2026-05-01T11:10:11Z</time></trkpt><trkpt lat="41.846575223945216" lon="13.503169568852206"><ele>416.0</ele><time>2026-05-01T11:10:12Z</time></trkpt><trkpt lat="41.84661126125965" lon="13.502965570138924"><ele>416.0</ele><time>2026-05-01T11:10:13Z</time></trkpt><trkpt lat="41.846671068056885" lon="13.50278562606713"><ele>416.0</ele><time>2026-05-01T11:10:14Z</time></trkpt><trkpt lat="41.84672773316152" lon="13.5025912091783"><ele>416.66666666666663</ele><time>2026-05-01T11:10:15Z</time></trkpt><trkpt lat="41.84679492948649" lon="13.502398845484585"><ele>417.33333333333337</ele><time>2026-05-01T11:10:16Z</time></trkpt><trkpt lat="41.84686668009809" lon="13.50220837853505"><ele>418.0</ele><time>2026-05-01T11:10:17Z</time></trkpt><trkpt lat="41.84694758650751" lon="13.502036133972185"><ele>418.0</ele><time>2026-05-01T11:10:18Z</time></trkpt><trkpt lat="41.84703195021212" lon="13.50190768717081"><ele>418.0</ele><time>2026-05-01T11:10:19Z</time></trkpt><trkpt lat="41.84710730867931" lon="13.501819857589076"><ele>418.0</ele><time>2026-05-01T11:10:20Z</time></trkpt><trkpt lat="41.84717654081893" lon="13.501743790948296"><ele>418.0</ele><time>2026-05-01T11:10:21Z</time></trkpt><trkpt lat="41.84724348600986" lon="13.501674277925115"><ele>418.0</ele><time>2026-05-01T11:10:22Z</time></trkpt><trkpt lat="41.847306876083486" lon="13.501609557218876"><ele>418.00000000000006</ele><time>2026-05-01T11:10:23Z</time></trkpt><trkpt lat="41.84738044612473" lon="13.50158216614415"><ele>418.0</ele><time>2026-05-01T11:10:24Z</time></trkpt><trkpt lat="41.84744603990659" lon="13.501547772738533"><ele>418.0</ele><time>2026-05-01T11:10:25Z</time></trkpt><trkpt lat="41.84750967237623" lon="13.501497072350539"><ele>418.0</ele><time>2026-05-01T11:10:26Z</time></trkpt><trkpt lat="41.847590322491676" lon="13.501460581264395"><ele>418.00000000000006</ele><time>2026-05-01T11:10:27Z</time></trkpt><trkpt lat="41.84767592854579" lon="13.501415802866124"><ele>418.0</ele><time>2026-05-01T11:10:28Z</time></trkpt><trkpt lat="41.84776273545882" lon="13.501367069722399"><ele>418.1666666666667</ele><time>2026-05-01T11:10:29Z</time></trkpt><trkpt lat="41.8478523158495" lon="13.501317470814353"><ele>418.33333333333337</ele><time>2026-05-01T11:10:30Z</time></trkpt><trkpt lat="41.847936100861354" lon="13.501263172754042"><ele>418.5</ele><time>2026-05-01T11:10:31Z</time></trkpt><trkpt lat="41.848001374909934" lon="13.501199643408842"><ele>418.66666666666663</ele><time>2026-05-01T11:10:32Z</time></trkpt><trkpt lat="41.84806082102643" lon="13.501128081605765"><ele>418.8333333333333</ele><time>2026-05-01T11:10:33Z</time></trkpt><trkpt lat="41.84811794187575" lon="13.501047913065324"><ele>419.0</ele><time>2026-05-01T11:10:34Z</time></trkpt><trkpt lat="41.84817637461482" lon="13.500959287941894"><ele>419.0</ele><time>2026-05-01T11:10:35Z</time></trkpt><trkpt lat="41.848242320920725" lon="13.500861690221361"><ele>419.0</ele><time>2026-05-01T11:10:36Z</time></trkpt><trkpt lat="41.84831260857126" lon="13.500749374040495"><ele>419.0</ele><time>2026-05-01T11:10:37Z</time></trkpt><trkpt lat="41.84838842756463" lon="13.500630344267272"><ele>419.0</ele><time>2026-05-01T11:10:38Z</time></trkpt><trkpt lat="41.84846208326035" lon="13.500505714506193"><ele>419.0</ele><time>2026-05-01T11:10:39Z</time></trkpt><trkpt lat="41.84853195812933" lon="13.50039029112516"><ele>420.6</ele><time>2026-05-01T11:10:40Z</time></trkpt><trkpt lat="41.84860066810261" lon="13.50027854381483"><ele>422.2</ele><time>2026-05-01T11:10:41Z</time></trkpt><trkpt lat="41.8486658640917" lon="13.500165353979776"><ele>423.80000000000007</ele><time>2026-05-01T11:10:42Z</time></trkpt><trkpt lat="41.848731697957795" lon="13.500052548485918"><ele>425.40000000000003</ele><time>2026-05-01T11:10:43Z</time></trkpt><trkpt lat="41.84880064043406" lon="13.499934603363952"><ele>427.0</ele><time>2026-05-01T11:10:44Z</time></trkpt><trkpt lat="41.848871021892684" lon="13.499811761951976"><ele>427.0</ele><time>2026-05-01T11:10:45Z</time></trkpt><trkpt lat="41.84894040972381" lon="13.49968167248345"><ele>427.0</ele><time>2026-05-01T11:10:46Z</time></trkpt><trkpt lat="41.84900850043732" lon="13.499544409154016"><ele>427.0</ele><time>2026-05-01T11:10:47Z</time></trkpt><trkpt lat="41.84907174273236" lon="13.499398059400885"><ele>427.0</ele><time>2026-05-01T11:10:48Z</time></trkpt><trkpt lat="41.849130049098065" lon="13.499249217032164"><ele>426.25</ele><time>2026-05-01T11:10:49Z</time></trkpt><trkpt lat="41.849184097824796" lon="13.499102659032193"><ele>425.5</ele><time>2026-05-01T11:10:50Z</time></trkpt><trkpt lat="41.84923787229718" lon="13.4989582419275"><ele>424.75</ele><time>2026-05-01T11:10:51Z</time></trkpt><trkpt lat="41.84929430107666" lon="13.498817271762592"><ele>424.0</ele><time>2026-05-01T11:10:52Z</time></trkpt><trkpt lat="41.84935576672805" lon="13.498693836493606"><ele>424.0</ele><time>2026-05-01T11:10:53Z</time></trkpt><trkpt lat="41.84942379148886" lon="13.498572190914718"><ele>424.0</ele><time>2026-05-01T11:10:54Z</time></trkpt><trkpt lat="41.849491123935756" lon="13.498456494392942"><ele>424.0</ele><time>2026-05-01T11:10:55Z</time></trkpt><trkpt lat="41.849557514667474" lon="13.498341536677453"><ele>424.0</ele><time>2026-05-01T11:10:56Z</time></trkpt><trkpt lat="41.84962434559504" lon="13.498227918558095"><ele>424.0</ele><time>2026-05-01T11:10:57Z</time></trkpt><trkpt lat="41.84968471220966" lon="13.4981095718782"><ele>424.0</ele><time>2026-05-01T11:10:58Z</time></trkpt><trkpt lat="41.84973533050646" lon="13.497979460162439"><ele>424.0</ele><time>2026-05-01T11:10:59Z</time></trkpt><trkpt lat="41.84977505219189" lon="13.497842919736712"><ele>424.0</ele><time>2026-05-01T11:11:00Z</time></trkpt><trkpt lat="41.84980785403231" lon="13.497701595902981"><ele>424.0</ele><time>2026-05-01T11:11:01Z</time></trkpt><trkpt lat="41.84983329427081" lon="13.497558238168848"><ele>424.0</ele><time>2026-05-01T11:11:02Z</time></trkpt><trkpt lat="41.849858251269794" lon="13.497407265388317"><ele>422.0</ele><time>2026-05-01T11:11:03Z</time></trkpt><trkpt lat="41.84988595010164" lon="13.497254954356825"><ele>420.0</ele><time>2026-05-01T11:11:04Z</time></trkpt><trkpt lat="41.84991339047648" lon="13.49710163887905"><ele>418.0</ele><time>2026-05-01T11:11:05Z</time></trkpt><trkpt lat="41.8499400008562" lon="13.496947987645513"><ele>416.0</ele><time>2026-05-01T11:11:06Z</time></trkpt><trkpt lat="41.8499662469086" lon="13.496792854870273"><ele>415.6</ele><time>2026-05-01T11:11:07Z</time></trkpt><trkpt lat="41.849991772104566" lon="13.496641354331938"><ele>415.20000000000005</ele><time>2026-05-01T11:11:08Z</time></trkpt><trkpt lat="41.8500182779855" lon="13.496507907800888"><ele>414.79999999999995</ele><time>2026-05-01T11:11:09Z</time></trkpt><trkpt lat="41.8500423417644" lon="13.496373137988938"><ele>414.4</ele><time>2026-05-01T11:11:10Z</time></trkpt><trkpt lat="41.85006494167855" lon="13.496239819486137"><ele>414.0</ele><time>2026-05-01T11:11:11Z</time></trkpt><trkpt lat="41.85008728872188" lon="13.496104368683225"><ele>413.4</ele><time>2026-05-01T11:11:12Z</time></trkpt><trkpt lat="41.850106430846196" lon="13.495969252503805"><ele>412.79999999999995</ele><time>2026-05-01T11:11:13Z</time></trkpt><trkpt lat="41.850128147374335" lon="13.49583508131818"><ele>412.20000000000005</ele><time>2026-05-01T11:11:14Z</time></trkpt><trkpt lat="41.850150531203454" lon="13.49569985460982"><ele>411.6</ele><time>2026-05-01T11:11:15Z</time></trkpt><trkpt lat="41.85017323319645" lon="13.495565666462916"><ele>411.0</ele><time>2026-05-01T11:11:16Z</time></trkpt><trkpt lat="41.850193821012276" lon="13.495432215486153"><ele>412.8</ele><time>2026-05-01T11:11:17Z</time></trkpt><trkpt lat="41.85021049205733" lon="13.495298736274309"><ele>414.6</ele><time>2026-05-01T11:11:18Z</time></trkpt><trkpt lat="41.85022697036173" lon="13.495167701387459"><ele>416.4</ele><time>2026-05-01T11:11:19Z</time></trkpt><trkpt lat="41.850238050031756" lon="13.495034971368941"><ele>418.2</ele><time>2026-05-01T11:11:20Z</time></trkpt><trkpt lat="41.85024215975977" lon="13.494900670714362"><ele>420.0</ele><time>2026-05-01T11:11:21Z</time></trkpt><trkpt lat="41.850234365825976" lon="13.494764440938184"><ele>420.0</ele><time>2026-05-01T11:11:21.999Z</time></trkpt><trkpt lat="41.85021737953883" lon="13.494626447105423"><ele>420.0</ele><time>2026-05-01T11:11:22.999Z</time></trkpt><trkpt lat="41.85020205177642" lon="13.494488828003265"><ele>420.0</ele><time>2026-05-01T11:11:23.999Z</time></trkpt><trkpt lat="41.850191467211125" lon="13.494353219052552"><ele>420.0</ele><time>2026-05-01T11:11:24.999Z</time></trkpt><trkpt lat="41.850184503122286" lon="13.494212627588054"><ele>420.0</ele><time>2026-05-01T11:11:25.999Z</time></trkpt><trkpt lat="41.85018564372728" lon="13.494069649549527"><ele>420.4</ele><time>2026-05-01T11:11:26.999Z</time></trkpt><trkpt lat="41.85019634068352" lon="13.493922219617987"><ele>420.8</ele><time>2026-05-01T11:11:27.999Z</time></trkpt><trkpt lat="41.85022666063328" lon="13.493776928277134"><ele>421.20000000000005</ele><time>2026-05-01T11:11:28.999Z</time></trkpt><trkpt lat="41.85027075064099" lon="13.493639218752966"><ele>421.6</ele><time>2026-05-01T11:11:29.999Z</time></trkpt><trkpt lat="41.85032656070691" lon="13.493515433985579"><ele>422.0</ele><time>2026-05-01T11:11:30.999Z</time></trkpt><trkpt lat="41.85038941792266" lon="13.493398964199843"><ele>421.20000000000005</ele><time>2026-05-01T11:11:31.999Z</time></trkpt><trkpt lat="41.85045342180793" lon="13.493280729025626"><ele>420.4</ele><time>2026-05-01T11:11:32.999Z</time></trkpt><trkpt lat="41.85053222261549" lon="13.493179445268568"><ele>419.6</ele><time>2026-05-01T11:11:33.999Z</time></trkpt><trkpt lat="41.850598416388095" lon="13.49306418350595"><ele>418.79999999999995</ele><time>2026-05-01T11:11:34.999Z</time></trkpt><trkpt lat="41.85064795764326" lon="13.49293375790207"><ele>418.0</ele><time>2026-05-01T11:11:35.999Z</time></trkpt><trkpt lat="41.85071180720036" lon="13.49281624717212"><ele>417.4</ele><time>2026-05-01T11:11:36.999Z</time></trkpt><trkpt lat="41.85076846728869" lon="13.492698714045597"><ele>416.79999999999995</ele><time>2026-05-01T11:11:37.999Z</time></trkpt><trkpt lat="41.85081213824292" lon="13.492575596404775"><ele>416.2</ele><time>2026-05-01T11:11:38.999Z</time></trkpt><trkpt lat="41.85084981276366" lon="13.492451963797182"><ele>415.6</ele><time>2026-05-01T11:11:39.999Z</time></trkpt><trkpt lat="41.850885292393976" lon="13.492337095751639"><ele>415.0</ele><time>2026-05-01T11:11:40.999Z</time></trkpt><trkpt lat="41.85092272012281" lon="13.492230998029836"><ele>417.33333333333337</ele><time>2026-05-01T11:11:41.999Z</time></trkpt><trkpt lat="41.85096000318019" lon="13.49213160276818"><ele>419.6666666666667</ele><time>2026-05-01T11:11:42.999Z</time></trkpt><trkpt lat="41.851003694337706" lon="13.492041727991241"><ele>422.0</ele><time>2026-05-01T11:11:43.999Z</time></trkpt><trkpt lat="41.85106750641707" lon="13.491964140012403"><ele>424.33333333333337</ele><time>2026-05-01T11:11:44.999Z</time></trkpt><trkpt lat="41.85113443635352" lon="13.491891956812072"><ele>426.6666666666667</ele><time>2026-05-01T11:11:45.999Z</time></trkpt><trkpt lat="41.85119027577457" lon="13.491800334793997"><ele>429.0</ele><time>2026-05-01T11:11:46.999Z</time></trkpt><trkpt lat="41.85121754446964" lon="13.491686826328165"><ele>429.0</ele><time>2026-05-01T11:11:47.999Z</time></trkpt><trkpt lat="41.85122828664605" lon="13.491575101083225"><ele>429.0</ele><time>2026-05-01T11:11:48.999Z</time></trkpt><trkpt lat="41.85124810531521" lon="13.491459741451541"><ele>429.0</ele><time>2026-05-01T11:11:49.999Z</time></trkpt><trkpt lat="41.851273747791545" lon="13.491341923340054"><ele>429.0</ele><time>2026-05-01T11:11:50.999Z</time></trkpt><trkpt lat="41.85130110891497" lon="13.49122011280268"><ele>429.0</ele><time>2026-05-01T11:11:51.999Z</time></trkpt><trkpt lat="41.85132798905711" lon="13.491098494706218"><ele>428.2</ele><time>2026-05-01T11:11:52.999Z</time></trkpt><trkpt lat="41.85135387472461" lon="13.490977064819845"><ele>427.4</ele><time>2026-05-01T11:11:53.999Z</time></trkpt><trkpt lat="41.85138365379843" lon="13.49085817821093"><ele>426.6</ele><time>2026-05-01T11:11:54.999Z</time></trkpt><trkpt lat="41.85140917064779" lon="13.490763650917069"><ele>425.8</ele><time>2026-05-01T11:11:55.999Z</time></trkpt><trkpt lat="41.85149344087445" lon="13.490639915386527"><ele>425.0</ele><time>2026-05-01T11:11:57.999Z</time></trkpt><trkpt lat="41.85157127186873" lon="13.49062825935008"><ele>424.99999999999994</ele><time>2026-05-01T11:11:58.999Z</time></trkpt><trkpt lat="41.85164249821329" lon="13.490600196878301"><ele>425.0</ele><time>2026-05-01T11:11:59.999Z</time></trkpt><trkpt lat="41.851715825775976" lon="13.490654017735173"><ele>425.0</ele><time>2026-05-01T11:12:00.999Z</time></trkpt><trkpt lat="41.85179289292202" lon="13.490682490217647"><ele>425.0</ele><time>2026-05-01T11:12:01.999Z</time></trkpt><trkpt lat="41.851873697242944" lon="13.490694489346883"><ele>424.99999999999994</ele><time>2026-05-01T11:12:02.999Z</time></trkpt><trkpt lat="41.85195507121469" lon="13.49072148565383"><ele>425.0</ele><time>2026-05-01T11:12:03.999Z</time></trkpt><trkpt lat="41.852044264963276" lon="13.490739409168418"><ele>426.49999999999994</ele><time>2026-05-01T11:12:04.999Z</time></trkpt><trkpt lat="41.85213495234855" lon="13.490773993348267"><ele>428.0</ele><time>2026-05-01T11:12:05.999Z</time></trkpt><trkpt lat="41.85223634231426" lon="13.490764695773676"><ele>429.5</ele><time>2026-05-01T11:12:07.001Z</time></trkpt><trkpt lat="41.852325361355724" lon="13.49073655436705"><ele>431.0</ele><time>2026-05-01T11:12:08.001Z</time></trkpt><trkpt lat="41.85238462627183" lon="13.490675556723229"><ele>432.49999999999994</ele><time>2026-05-01T11:12:09.001Z</time></trkpt><trkpt lat="41.852443603400296" lon="13.490641716350147"><ele>434.0</ele><time>2026-05-01T11:12:10.001Z</time></trkpt><trkpt lat="41.85251232078683" lon="13.490631342802725"><ele>433.99999999999994</ele><time>2026-05-01T11:12:11.001Z</time></trkpt><trkpt lat="41.8525825814064" lon="13.490679644007136"><ele>434.0</ele><time>2026-05-01T11:12:12.001Z</time></trkpt><trkpt lat="41.852666665750505" lon="13.490691301655305"><ele>434.0</ele><time>2026-05-01T11:12:13.001Z</time></trkpt><trkpt lat="41.85275180683978" lon="13.49071951404611"><ele>434.0</ele><time>2026-05-01T11:12:14.001Z</time></trkpt><trkpt lat="41.85284244585318" lon="13.490761657851332"><ele>433.99999999999994</ele><time>2026-05-01T11:12:15.001Z</time></trkpt><trkpt lat="41.85293913695818" lon="13.490750531726269"><ele>434.0</ele><time>2026-05-01T11:12:16.001Z</time></trkpt><trkpt lat="41.85301964410884" lon="13.49075378818199"><ele>434.66666666666663</ele><time>2026-05-01T11:12:17.001Z</time></trkpt><trkpt lat="41.8530900271463" lon="13.490763344889963"><ele>435.3333333333333</ele><time>2026-05-01T11:12:18.001Z</time></trkpt><trkpt lat="41.85315822166873" lon="13.490782160669806"><ele>436.0</ele><time>2026-05-01T11:12:19Z</time></trkpt><trkpt lat="41.853233558024826" lon="13.49081497314958"><ele>436.66666666666663</ele><time>2026-05-01T11:12:20Z</time></trkpt><trkpt lat="41.853311295431986" lon="13.49088734019621"><ele>437.3333333333333</ele><time>2026-05-01T11:12:21Z</time></trkpt><trkpt lat="41.85341348974914" lon="13.49095072272965"><ele>438.0</ele><time>2026-05-01T11:12:22Z</time></trkpt><trkpt lat="41.8535345985423" lon="13.491025704488504"><ele>439.3333333333333</ele><time>2026-05-01T11:12:23Z</time></trkpt><trkpt lat="41.8536357729114" lon="13.491071292767643"><ele>440.66666666666663</ele><time>2026-05-01T11:12:24Z</time></trkpt><trkpt lat="41.853710796156996" lon="13.49111790024072"><ele>442.0</ele><time>2026-05-01T11:12:25Z</time></trkpt><trkpt lat="41.85377564564005" lon="13.491146385161045"><ele>443.3333333333333</ele><time>2026-05-01T11:12:26Z</time></trkpt><trkpt lat="41.8538393615055" lon="13.491155093165478"><ele>444.66666666666663</ele><time>2026-05-01T11:12:27Z</time></trkpt><trkpt lat="41.85392387651884" lon="13.491141337500746"><ele>446.0</ele><time>2026-05-01T11:12:28Z</time></trkpt><trkpt lat="41.85403005604599" lon="13.491119049150594"><ele>445.99999999999994</ele><time>2026-05-01T11:12:29Z</time></trkpt><trkpt lat="41.85411665554734" lon="13.491108538322115"><ele>446.0</ele><time>2026-05-01T11:12:30Z</time></trkpt><trkpt lat="41.85418711490778" lon="13.491135384175973"><ele>446.0</ele><time>2026-05-01T11:12:31Z</time></trkpt><trkpt lat="41.854279167973154" lon="13.49113658681933"><ele>446.0</ele><time>2026-05-01T11:12:32Z</time></trkpt><trkpt lat="41.85436605135714" lon="13.491152776847182"><ele>445.99999999999994</ele><time>2026-05-01T11:12:33Z</time></trkpt><trkpt lat="41.8544398675903" lon="13.491172875650967"><ele>446.0</ele><time>2026-05-01T11:12:34Z</time></trkpt><trkpt lat="41.854501118947965" lon="13.491113524657285"><ele>447.66666666666663</ele><time>2026-05-01T11:12:35Z</time></trkpt><trkpt lat="41.854528968132605" lon="13.490975694383614"><ele>449.3333333333333</ele><time>2026-05-01T11:12:36Z</time></trkpt><trkpt lat="41.85447948152126" lon="13.490855443859811"><ele>451.0</ele><time>2026-05-01T11:12:37Z</time></trkpt><trkpt lat="41.85447297496096" lon="13.490740039544486"><ele>452.66666666666663</ele><time>2026-05-01T11:12:39Z</time></trkpt><trkpt lat="41.854437469296606" lon="13.490654893373739"><ele>454.3333333333333</ele><time>2026-05-01T11:14:28Z</time></trkpt><trkpt lat="41.854385649074366" lon="13.490593919954964"><ele>456.0</ele><time>2026-05-01T11:14:29Z</time></trkpt><trkpt lat="41.85431933005452" lon="13.490513372733837"><ele>454.8</ele><time>2026-05-01T11:14:30Z</time></trkpt><trkpt lat="41.85425088921386" lon="13.490432665725516"><ele>453.6</ele><time>2026-05-01T11:14:31Z</time></trkpt><trkpt lat="41.85417904654809" lon="13.4903481837044"><ele>452.4</ele><time>2026-05-01T11:14:32Z</time></trkpt><trkpt lat="41.854112062971545" lon="13.490261202830515"><ele>451.2</ele><time>2026-05-01T11:14:33Z</time></trkpt><trkpt lat="41.85405086173888" lon="13.490159010654425"><ele>450.0</ele><time>2026-05-01T11:14:34Z</time></trkpt><trkpt lat="41.85399860102716" lon="13.49002440020149"><ele>450.0</ele><time>2026-05-01T11:14:35Z</time></trkpt><trkpt lat="41.85395047020437" lon="13.489861114884675"><ele>450.0</ele><time>2026-05-01T11:14:36Z</time></trkpt><trkpt lat="41.853909883956874" lon="13.48969848694197"><ele>450.0</ele><time>2026-05-01T11:14:37Z</time></trkpt><trkpt lat="41.85387941831302" lon="13.48954938921909"><ele>450.0</ele><time>2026-05-01T11:14:38Z</time></trkpt><trkpt lat="41.853868463357855" lon="13.489414332901463"><ele>450.6</ele><time>2026-05-01T11:14:39Z</time></trkpt><trkpt lat="41.8538820356381" lon="13.489294061712549"><ele>451.2</ele><time>2026-05-01T11:14:40Z</time></trkpt><trkpt lat="41.85392128472439" lon="13.48916145638466"><ele>451.79999999999995</ele><time>2026-05-01T11:14:41Z</time></trkpt><trkpt lat="41.853959419717754" lon="13.489046284066337"><ele>452.4</ele><time>2026-05-01T11:14:42Z</time></trkpt><trkpt lat="41.854031825280735" lon="13.488998424292285"><ele>453.0</ele><time>2026-05-01T11:14:43Z</time></trkpt><trkpt lat="41.85412749923439" lon="13.489002566043807"><ele>453.0</ele><time>2026-05-01T11:14:44Z</time></trkpt><trkpt lat="41.854225435883464" lon="13.489016055230794"><ele>453.0</ele><time>2026-05-01T11:14:45Z</time></trkpt><trkpt lat="41.854347223052166" lon="13.48892653062349"><ele>453.0</ele><time>2026-05-01T11:14:46Z</time></trkpt><trkpt lat="41.85446792646107" lon="13.488839398468837"><ele>453.0</ele><time>2026-05-01T11:14:47Z</time></trkpt><trkpt lat="41.854575825602" lon="13.488754473327058"><ele>452.0</ele><time>2026-05-01T11:14:48Z</time></trkpt><trkpt lat="41.85466722572194" lon="13.488733271274496"><ele>450.99999999999994</ele><time>2026-05-01T11:14:49Z</time></trkpt><trkpt lat="41.854739161368734" lon="13.488714863010177"><ele>449.99999999999994</ele><time>2026-05-01T11:14:50Z</time></trkpt><trkpt lat="41.85480386226433" lon="13.488785327141935"><ele>449.0</ele><time>2026-05-01T11:14:51Z</time></trkpt><trkpt lat="41.85487229817814" lon="13.488892576150176"><ele>448.0</ele><time>2026-05-01T11:14:52Z</time></trkpt><trkpt lat="41.85497133702523" lon="13.488970365817757"><ele>451.75</ele><time>2026-05-01T11:14:53Z</time></trkpt><trkpt lat="41.855099986333755" lon="13.488959070449548"><ele>455.5</ele><time>2026-05-01T11:14:54Z</time></trkpt><trkpt lat="41.85521990145487" lon="13.48893939246106"><ele>459.25</ele><time>2026-05-01T11:14:55Z</time></trkpt><trkpt lat="41.855329909143585" lon="13.488878792485025"><ele>463.0</ele><time>2026-05-01T11:14:56Z</time></trkpt><trkpt lat="41.85542126597455" lon="13.488787551806585"><ele>456.0</ele><time>2026-05-01T11:14:57Z</time></trkpt><trkpt lat="41.854437469296606" lon="13.490654893373739"><ele>456.0</ele><time>2026-05-01T11:14:28Z</time></trkpt><trkpt lat="41.854385649074366" lon="13.490593919954964"><ele>456.0</ele><time>2026-05-01T11:14:29Z</time></trkpt><trkpt lat="41.85431933005452" lon="13.490513372733837"><ele>456.0</ele><time>2026-05-01T11:14:30Z</time></trkpt><trkpt lat="41.85425088921386" lon="13.490432665725516"><ele>456.0</ele><time>2026-05-01T11:14:31Z</time></trkpt><trkpt lat="41.85417904654809" lon="13.4903481837044"><ele>456.0</ele><time>2026-05-01T11:14:32Z</time></trkpt><trkpt lat="41.854112062971545" lon="13.490261202830515"><ele>456.0</ele><time>2026-05-01T11:14:33Z</time></trkpt><trkpt lat="41.85405086173888" lon="13.490159010654425"><ele>455.25</ele><time>2026-05-01T11:14:34Z</time></trkpt><trkpt lat="41.85399860102716" lon="13.49002440020149"><ele>454.5</ele><time>2026-05-01T11:14:35Z</time></trkpt><trkpt lat="41.85395047020437" lon="13.489861114884675"><ele>453.75</ele><time>2026-05-01T11:14:36Z</time></trkpt><trkpt lat="41.853909883956874" lon="13.48969848694197"><ele>453.0</ele><time>2026-05-01T11:14:37Z</time></trkpt><trkpt lat="41.85387941831302" lon="13.48954938921909"><ele>453.0</ele><time>2026-05-01T11:14:38Z</time></trkpt><trkpt lat="41.853868463357855" lon="13.489414332901463"><ele>452.99999999999994</ele><time>2026-05-01T11:14:39Z</time></trkpt><trkpt lat="41.8538820356381" lon="13.489294061712549"><ele>452.99999999999994</ele><time>2026-05-01T11:14:40Z</time></trkpt><trkpt lat="41.85392128472439" lon="13.48916145638466"><ele>453.0</ele><time>2026-05-01T11:14:41Z</time></trkpt><trkpt lat="41.853959419717754" lon="13.489046284066337"><ele>453.0</ele><time>2026-05-01T11:14:42Z</time></trkpt><trkpt lat="41.854031825280735" lon="13.488998424292285"><ele>453.0</ele><time>2026-05-01T11:14:43Z</time></trkpt><trkpt lat="41.85412749923439" lon="13.489002566043807"><ele>453.0</ele><time>2026-05-01T11:14:44Z</time></trkpt><trkpt lat="41.854225435883464" lon="13.489016055230794"><ele>453.0</ele><time>2026-05-01T11:14:45Z</time></trkpt><trkpt lat="41.854347223052166" lon="13.48892653062349"><ele>453.0</ele><time>2026-05-01T11:14:46Z</time></trkpt><trkpt lat="41.85446792646107" lon="13.488839398468837"><ele>452.0</ele><time>2026-05-01T11:14:47Z</time></trkpt><trkpt lat="41.854575825602" lon="13.488754473327058"><ele>450.99999999999994</ele><time>2026-05-01T11:14:48Z</time></trkpt><trkpt lat="41.85466722572194" lon="13.488733271274496"><ele>449.99999999999994</ele><time>2026-05-01T11:14:49Z</time></trkpt><trkpt lat="41.854739161368734" lon="13.488714863010177"><ele>449.0</ele><time>2026-05-01T11:14:50Z</time></trkpt><trkpt lat="41.85480386226433" lon="13.488785327141935"><ele>448.0</ele><time>2026-05-01T11:14:51Z</time></trkpt><trkpt lat="41.85487229817814" lon="13.488892576150176"><ele>451.75</ele><time>2026-05-01T11:14:52Z</time></trkpt><trkpt lat="41.85497133702523" lon="13.488970365817757"><ele>455.5</ele><time>2026-05-01T11:14:53Z</time></trkpt><trkpt lat="41.855099986333755" lon="13.488959070449548"><ele>459.25</ele><time>2026-05-01T11:14:54Z</time></trkpt><trkpt lat="41.85521990145487" lon="13.48893939246106"><ele>463.0</ele><time>2026-05-01T11:14:55Z</time></trkpt><trkpt lat="41.855329909143585" lon="13.488878792485025"><ele>461.75</ele><time>2026-05-01T11:14:56Z</time></trkpt><trkpt lat="41.85542126597455" lon="13.488787551806585"><ele>460.5</ele><time>2026-05-01T11:14:57Z</time></trkpt><trkpt lat="41.85550852649871" lon="13.488733891358164"><ele>459.25</ele><time>2026-05-01T11:14:58Z</time></trkpt><trkpt lat="41.85561291954367" lon="13.488801257833225"><ele>458.0</ele><time>2026-05-01T11:14:59Z</time></trkpt><trkpt lat="41.85574208843872" lon="13.488834385339814"><ele>462.5</ele><time>2026-05-01T11:15:00Z</time></trkpt><trkpt lat="41.85588466072196" lon="13.488869986110021"><ele>467.0</ele><time>2026-05-01T11:15:01Z</time></trkpt><trkpt lat="41.85601962141851" lon="13.488883044248313"><ele>471.5</ele><time>2026-05-01T11:15:02Z</time></trkpt><trkpt lat="41.856130659872896" lon="13.488903612860591"><ele>476.0</ele><time>2026-05-01T11:15:03Z</time></trkpt><trkpt lat="41.85624516573092" lon="13.488893307778405"><ele>476.25</ele><time>2026-05-01T11:15:04Z</time></trkpt><trkpt lat="41.856361042782574" lon="13.488820793205893"><ele>476.5</ele><time>2026-05-01T11:15:05Z</time></trkpt><trkpt lat="41.85647872708102" lon="13.488717640326072"><ele>476.75</ele><time>2026-05-01T11:15:06Z</time></trkpt><trkpt lat="41.85659140469903" lon="13.488623587271377"><ele>477.0</ele><time>2026-05-01T11:15:07Z</time></trkpt><trkpt lat="41.85668571853399" lon="13.488518382500963"><ele>477.0</ele><time>2026-05-01T11:15:08Z</time></trkpt><trkpt lat="41.85676266866691" lon="13.488351545908953"><ele>477.0</ele><time>2026-05-01T11:15:09Z</time></trkpt><trkpt lat="41.85683563803323" lon="13.488152238625808"><ele>477.0</ele><time>2026-05-01T11:15:10Z</time></trkpt><trkpt lat="41.856905238926444" lon="13.487957415454716"><ele>482.5</ele><time>2026-05-01T11:15:11Z</time></trkpt><trkpt lat="41.85695840345003" lon="13.487769893095575"><ele>488.0</ele><time>2026-05-01T11:15:12Z</time></trkpt><trkpt lat="41.857003203781" lon="13.487603913852208"><ele>493.5</ele><time>2026-05-01T11:15:13Z</time></trkpt><trkpt lat="41.857095724735785" lon="13.487471659591662"><ele>499.0</ele><time>2026-05-01T11:15:14Z</time></trkpt><trkpt lat="41.857200614028926" lon="13.487325771998197"><ele>499.0</ele><time>2026-05-01T11:15:15Z</time></trkpt><trkpt lat="41.857302910729146" lon="13.487182605975395"><ele>499.0</ele><time>2026-05-01T11:15:16Z</time></trkpt><trkpt lat="41.85736473941321" lon="13.48706287801486"><ele>499.0</ele><time>2026-05-01T11:15:17Z</time></trkpt><trkpt lat="41.85740730897614" lon="13.486967164463028"><ele>499.0</ele><time>2026-05-01T11:15:18Z</time></trkpt><trkpt lat="41.85739796582677" lon="13.486817149330417"><ele>497.0</ele><time>2026-05-01T11:15:19Z</time></trkpt><trkpt lat="41.85738191091122" lon="13.486646919349914"><ele>495.0</ele><time>2026-05-01T11:15:20Z</time></trkpt><trkpt lat="41.857382565804194" lon="13.486508333890495"><ele>493.0</ele><time>2026-05-01T11:15:21Z</time></trkpt><trkpt lat="41.85742573976025" lon="13.486415909531438"><ele>491.0</ele><time>2026-05-01T11:15:23Z</time></trkpt><trkpt lat="41.85745216028694" lon="13.486334823774975"><ele>489.0</ele><time>2026-05-01T11:15:25.999Z</time></trkpt><trkpt lat="41.857447389191876" lon="13.486173479614713"><ele>488.6666666666667</ele><time>2026-05-01T11:15:27.999Z</time></trkpt><trkpt lat="41.857456975245626" lon="13.486076871939744"><ele>488.33333333333337</ele><time>2026-05-01T11:15:28.999Z</time></trkpt><trkpt lat="41.857461602431755" lon="13.485978526980173"><ele>488.0</ele><time>2026-05-01T11:15:29.999Z</time></trkpt><trkpt lat="41.8574602562496" lon="13.485878615565376"><ele>487.6666666666667</ele><time>2026-05-01T11:15:30.999Z</time></trkpt><trkpt lat="41.85746032186171" lon="13.485766677773512"><ele>487.33333333333337</ele><time>2026-05-01T11:15:31.999Z</time></trkpt><trkpt lat="41.85745180918725" lon="13.485664868241656"><ele>487.0</ele><time>2026-05-01T11:15:32.999Z</time></trkpt><trkpt lat="41.85744902378939" lon="13.485513573002939"><ele>485.50000000000006</ele><time>2026-05-01T11:15:34.999Z</time></trkpt><trkpt lat="41.85743714480753" lon="13.48536054498085"><ele>484.0</ele><time>2026-05-01T11:15:36.999Z</time></trkpt><trkpt lat="41.857500487061166" lon="13.48527163910514"><ele>482.5</ele><time>2026-05-01T11:15:38.999Z</time></trkpt><trkpt lat="41.85756304505825" lon="13.485281996657168"><ele>481.0</ele><time>2026-05-01T11:15:39.999Z</time></trkpt><trkpt lat="41.85763095983885" lon="13.48525196230091"><ele>479.50000000000006</ele><time>2026-05-01T11:15:40.999Z</time></trkpt><trkpt lat="41.857706487159746" lon="13.485246354235242"><ele>478.0</ele><time>2026-05-01T11:15:41.999Z</time></trkpt><trkpt lat="41.85781002365531" lon="13.485228949986507"><ele>477.50000000000006</ele><time>2026-05-01T11:15:43.999Z</time></trkpt><trkpt lat="41.85787769069315" lon="13.485213546252528"><ele>477.0</ele><time>2026-05-01T11:15:44.999Z</time></trkpt><trkpt lat="41.85795991107252" lon="13.485197926964691"><ele>476.5</ele><time>2026-05-01T11:15:45.999Z</time></trkpt><trkpt lat="41.858039465610396" lon="13.485196001395174"><ele>476.0</ele><time>2026-05-01T11:15:46.999Z</time></trkpt><trkpt lat="41.858111532118286" lon="13.48520883616172"><ele>475.50000000000006</ele><time>2026-05-01T11:15:47.999Z</time></trkpt><trkpt lat="41.8581773686712" lon="13.485219735661031"><ele>475.0</ele><time>2026-05-01T11:15:48.999Z</time></trkpt><trkpt lat="41.85828887577016" lon="13.48524819801151"><ele>475.00000000000006</ele><time>2026-05-01T11:15:50.999Z</time></trkpt><trkpt lat="41.85837545969134" lon="13.48530758750301"><ele>475.0</ele><time>2026-05-01T11:15:52.999Z</time></trkpt><trkpt lat="41.85844183691777" lon="13.48537590521404"><ele>475.0</ele><time>2026-05-01T11:15:54.999Z</time></trkpt><trkpt lat="41.85849590312794" lon="13.485422882742853"><ele>475.0</ele><time>2026-05-01T11:16:04.999Z</time></trkpt><trkpt lat="41.85856448287213" lon="13.485533437508076"><ele>475.00000000000006</ele><time>2026-05-01T11:16:06.999Z</time></trkpt><trkpt lat="41.858591195055" lon="13.485619421583039"><ele>475.0</ele><time>2026-05-01T11:16:07.999Z</time></trkpt><trkpt lat="41.85861116534626" lon="13.48570833168201"><ele>475.1666666666667</ele><time>2026-05-01T11:16:08.999Z</time></trkpt><trkpt lat="41.858625621085515" lon="13.485792023568429"><ele>475.33333333333337</ele><time>2026-05-01T11:16:09.999Z</time></trkpt><trkpt lat="41.85863608680359" lon="13.485881864441815"><ele>475.5</ele><time>2026-05-01T11:16:10.999Z</time></trkpt><trkpt lat="41.85864762204973" lon="13.485967895629548"><ele>475.66666666666663</ele><time>2026-05-01T11:16:11.999Z</time></trkpt><trkpt lat="41.85865770350972" lon="13.486052215148092"><ele>475.8333333333333</ele><time>2026-05-01T11:16:12.999Z</time></trkpt><trkpt lat="41.858656389263544" lon="13.48620868048088"><ele>476.0</ele><time>2026-05-01T11:16:14.999Z</time></trkpt><trkpt lat="41.858671297652215" lon="13.486355051801727"><ele>480.25</ele><time>2026-05-01T11:16:16.999Z</time></trkpt><trkpt lat="41.858687813975344" lon="13.486458359149955"><ele>484.5</ele><time>2026-05-01T11:16:19Z</time></trkpt><trkpt lat="41.85883341520396" lon="13.486576652773811"><ele>488.75</ele><time>2026-05-01T11:16:22Z</time></trkpt><trkpt lat="41.85887715031601" lon="13.486380754934979"><ele>493.0</ele><time>2026-05-01T11:16:23Z</time></trkpt><trkpt lat="41.85892955430159" lon="13.48630395704009"><ele>490.1666666666667</ele><time>2026-05-01T11:16:24Z</time></trkpt><trkpt lat="41.85897608234978" lon="13.486235323843685"><ele>487.33333333333337</ele><time>2026-05-01T11:16:25Z</time></trkpt><trkpt lat="41.859026469804995" lon="13.486165834541136"><ele>484.5</ele><time>2026-05-01T11:16:26Z</time></trkpt><trkpt lat="41.859081488573175" lon="13.486092390884215"><ele>481.66666666666663</ele><time>2026-05-01T11:16:27Z</time></trkpt><trkpt lat="41.85914332315194" lon="13.48602702577961"><ele>478.8333333333333</ele><time>2026-05-01T11:16:28Z</time></trkpt><trkpt lat="41.85920629933076" lon="13.485960441726483"><ele>476.0</ele><time>2026-05-01T11:16:29Z</time></trkpt><trkpt lat="41.859273104509015" lon="13.485883765607863"><ele>476.8333333333333</ele><time>2026-05-01T11:16:30Z</time></trkpt><trkpt lat="41.85932962086503" lon="13.485797233861247"><ele>477.66666666666663</ele><time>2026-05-01T11:16:31Z</time></trkpt><trkpt lat="41.85937932193452" lon="13.485705418194621"><ele>478.5</ele><time>2026-05-01T11:16:32Z</time></trkpt><trkpt lat="41.85942698715341" lon="13.485623863058807"><ele>479.33333333333337</ele><time>2026-05-01T11:16:33Z</time></trkpt><trkpt lat="41.85946768919574" lon="13.485553914710605"><ele>480.1666666666667</ele><time>2026-05-01T11:16:34Z</time></trkpt><trkpt lat="41.85952570900226" lon="13.485411793884337"><ele>481.0</ele><time>2026-05-01T11:16:36Z</time></trkpt><trkpt lat="41.8595227406898" lon="13.485324141835855"><ele>480.99999999999994</ele><time>2026-05-01T11:16:37Z</time></trkpt><trkpt lat="41.859533397161755" lon="13.485217237754757"><ele>481.0</ele><time>2026-05-01T11:16:38Z</time></trkpt><trkpt lat="41.85948046647041" lon="13.485124895462526"><ele>480.99999999999994</ele><time>2026-05-01T11:16:39Z</time></trkpt><trkpt lat="41.85945241523818" lon="13.485030654007174"><ele>480.99999999999994</ele><time>2026-05-01T11:16:40Z</time></trkpt><trkpt lat="41.859424400279025" lon="13.48494786989292"><ele>481.0</ele><time>2026-05-01T11:16:41Z</time></trkpt><trkpt lat="41.85940710353062" lon="13.484861769334504"><ele>480.99999999999994</ele><time>2026-05-01T11:16:42Z</time></trkpt><trkpt lat="41.859406602898524" lon="13.484775681190948"><ele>480.99999999999994</ele><time>2026-05-01T11:16:43Z</time></trkpt><trkpt lat="41.85940969127168" lon="13.48468676880743"><ele>481.00000000000006</ele><time>2026-05-01T11:16:44Z</time></trkpt><trkpt lat="41.85942051677094" lon="13.484597944271984"><ele>481.0</ele><time>2026-05-01T11:16:45Z</time></trkpt><trkpt lat="41.85942185488613" lon="13.484467336209473"><ele>481.0</ele><time>2026-05-01T11:16:47Z</time></trkpt><trkpt lat="41.85938345200597" lon="13.48432476273462"><ele>481.0</ele><time>2026-05-01T11:16:49Z</time></trkpt><trkpt lat="41.8593367998635" lon="13.484264296122205"><ele>481.00000000000006</ele><time>2026-05-01T11:16:50Z</time></trkpt><trkpt lat="41.85925058703638" lon="13.484285584217412"><ele>481.0</ele><time>2026-05-01T11:16:51Z</time></trkpt><trkpt lat="41.8591420503082" lon="13.484271721106515"><ele>474.6</ele><time>2026-05-01T11:16:53Z</time></trkpt><trkpt lat="41.85903768800586" lon="13.484271721102111"><ele>468.20000000000005</ele><time>2026-05-01T11:16:55Z</time></trkpt><trkpt lat="41.858903778027056" lon="13.484252815651228"><ele>461.79999999999995</ele><time>2026-05-01T11:16:57Z</time></trkpt><trkpt lat="41.85883408128948" lon="13.484224467136007"><ele>455.4</ele><time>2026-05-01T11:16:58Z</time></trkpt><trkpt lat="41.85877161229533" lon="13.484191258693151"><ele>449.0</ele><time>2026-05-01T11:16:59Z</time></trkpt><trkpt lat="41.85868258284524" lon="13.484133864155478"><ele>448.99999999999994</ele><time>2026-05-01T11:17:01Z</time></trkpt><trkpt lat="41.85859082475199" lon="13.484069948629923"><ele>449.0</ele><time>2026-05-01T11:17:03Z</time></trkpt><trkpt lat="41.858491790037306" lon="13.48399343778565"><ele>449.0</ele><time>2026-05-01T11:17:05Z</time></trkpt><trkpt lat="41.858437406895995" lon="13.483944658379352"><ele>449.0</ele><time>2026-05-01T11:17:06Z</time></trkpt><trkpt lat="41.85838250312517" lon="13.483886799545191"><ele>448.99999999999994</ele><time>2026-05-01T11:17:07Z</time></trkpt><trkpt lat="41.85832689410159" lon="13.483831405742325"><ele>449.0</ele><time>2026-05-01T11:17:08Z</time></trkpt><trkpt lat="41.858260924385654" lon="13.483780234017747"><ele>449.16666666666663</ele><time>2026-05-01T11:17:09Z</time></trkpt><trkpt lat="41.8581768318415" lon="13.48375098104457"><ele>449.3333333333333</ele><time>2026-05-01T11:17:10Z</time></trkpt><trkpt lat="41.85809941677446" lon="13.483724114244563"><ele>449.5</ele><time>2026-05-01T11:17:11Z</time></trkpt><trkpt lat="41.858025374860276" lon="13.483699227556246"><ele>449.66666666666663</ele><time>2026-05-01T11:17:12Z</time></trkpt><trkpt lat="41.857945590194014" lon="13.483666457598398"><ele>449.8333333333333</ele><time>2026-05-01T11:17:13Z</time></trkpt><trkpt lat="41.85786858656098" lon="13.483634956108867"><ele>450.0</ele><time>2026-05-01T11:17:14Z</time></trkpt><trkpt lat="41.85779342444638" lon="13.483606495535373"><ele>450.0</ele><time>2026-05-01T11:17:15Z</time></trkpt><trkpt lat="41.85771885294828" lon="13.483583265448267"><ele>450.0</ele><time>2026-05-01T11:17:16Z</time></trkpt><trkpt lat="41.85764587812854" lon="13.483568535722496"><ele>450.0</ele><time>2026-05-01T11:17:17Z</time></trkpt><trkpt lat="41.85752535615874" lon="13.483550753327636"><ele>450.0</ele><time>2026-05-01T11:17:19Z</time></trkpt><trkpt lat="41.85740729510598" lon="13.483523962316413"><ele>450.0</ele><time>2026-05-01T11:17:21Z</time></trkpt><trkpt lat="41.85732658974287" lon="13.483460663836581"><ele>448.0</ele><time>2026-05-01T11:17:22.999Z</time></trkpt><trkpt lat="41.857262167409445" lon="13.483340762031592"><ele>446.0</ele><time>2026-05-01T11:17:24.999Z</time></trkpt><trkpt lat="41.85719464017568" lon="13.483235347384687"><ele>444.0</ele><time>2026-05-01T11:17:26.999Z</time></trkpt><trkpt lat="41.85709444855988" lon="13.483147021744582"><ele>442.0</ele><time>2026-05-01T11:17:28.999Z</time></trkpt><trkpt lat="41.85698289409108" lon="13.483123412070952"><ele>440.0</ele><time>2026-05-01T11:17:30.999Z</time></trkpt><trkpt lat="41.857008552322185" lon="13.482916029111243"><ele>440.0</ele><time>2026-05-01T11:17:37.999Z</time></trkpt><trkpt lat="41.85701962194506" lon="13.482794980272134"><ele>440.0</ele><time>2026-05-01T11:17:38.999Z</time></trkpt><trkpt lat="41.856987802793256" lon="13.482676328593126"><ele>440.0</ele><time>2026-05-01T11:17:39.999Z</time></trkpt><trkpt lat="41.85695698937183" lon="13.482580554958615"><ele>440.0</ele><time>2026-05-01T11:17:40.999Z</time></trkpt><trkpt lat="41.85690718793733" lon="13.482448190992129"><ele>440.0</ele><time>2026-05-01T11:17:42.999Z</time></trkpt><trkpt lat="41.85686172787923" lon="13.482348334210979"><ele>440.0</ele><time>2026-05-01T11:17:50.999Z</time></trkpt><trkpt lat="41.85681885042286" lon="13.482265666793205"><ele>440.0</ele><time>2026-05-01T11:17:51.999Z</time></trkpt><trkpt lat="41.85677919560406" lon="13.48216443863907"><ele>440.0</ele><time>2026-05-01T11:17:52.999Z</time></trkpt><trkpt lat="41.85675345132558" lon="13.482024954975913"><ele>440.0</ele><time>2026-05-01T11:17:53.999Z</time></trkpt><trkpt lat="41.856708984781946" lon="13.481885495276149"><ele>440.0</ele><time>2026-05-01T11:17:54.999Z</time></trkpt><trkpt lat="41.85669853063945" lon="13.481720882624952"><ele>438.0</ele><time>2026-05-01T11:17:55.999Z</time></trkpt><trkpt lat="41.856704646346365" lon="13.481548955848575"><ele>436.0</ele><time>2026-05-01T11:17:56.999Z</time></trkpt><trkpt lat="41.85675983588077" lon="13.481378214913892"><ele>434.0</ele><time>2026-05-01T11:17:57.999Z</time></trkpt><trkpt lat="41.85682886312175" lon="13.481227408127515"><ele>432.0</ele><time>2026-05-01T11:17:58.999Z</time></trkpt><trkpt lat="41.85692597791485" lon="13.481093803571184"><ele>432.0</ele><time>2026-05-01T11:17:59.999Z</time></trkpt><trkpt lat="41.85704061334306" lon="13.480954382195964"><ele>432.0</ele><time>2026-05-01T11:18:00.999Z</time></trkpt><trkpt lat="41.85719351346335" lon="13.480871711160573"><ele>432.0</ele><time>2026-05-01T11:18:01.999Z</time></trkpt><trkpt lat="41.85733632384691" lon="13.480783363913018"><ele>432.0</ele><time>2026-05-01T11:18:02.999Z</time></trkpt><trkpt lat="41.85747662829861" lon="13.480655030305739"><ele>432.0</ele><time>2026-05-01T11:18:03.999Z</time></trkpt><trkpt lat="41.85761211378116" lon="13.480474969842668"><ele>432.0</ele><time>2026-05-01T11:18:04.999Z</time></trkpt><trkpt lat="41.85774786572651" lon="13.480284224047065"><ele>436.0</ele><time>2026-05-01T11:18:05.999Z</time></trkpt><trkpt lat="41.857838848997964" lon="13.480044323055225"><ele>440.0</ele><time>2026-05-01T11:18:06.999Z</time></trkpt><trkpt lat="41.8579187069115" lon="13.479804497948036"><ele>444.0</ele><time>2026-05-01T11:18:07.999Z</time></trkpt><trkpt lat="41.85800448248456" lon="13.47959000063369"><ele>444.0</ele><time>2026-05-01T11:18:08.999Z</time></trkpt><trkpt lat="41.85807356160522" lon="13.479384610410646"><ele>444.0</ele><time>2026-05-01T11:18:09.999Z</time></trkpt><trkpt lat="41.85813626671678" lon="13.479190708672643"><ele>444.0</ele><time>2026-05-01T11:18:10.999Z</time></trkpt><trkpt lat="41.85817785252986" lon="13.478998907038086"><ele>444.0</ele><time>2026-05-01T11:18:11.999Z</time></trkpt><trkpt lat="41.85823421178401" lon="13.478827308715578"><ele>444.0</ele><time>2026-05-01T11:18:12.999Z</time></trkpt><trkpt lat="41.85830866251074" lon="13.478681019782899"><ele>444.0</ele><time>2026-05-01T11:18:13.999Z</time></trkpt><trkpt lat="41.858403395025604" lon="13.478532176938874"><ele>444.0</ele><time>2026-05-01T11:18:14.999Z</time></trkpt><trkpt lat="41.858523487288565" lon="13.478372893443664"><ele>447.33333333333337</ele><time>2026-05-01T11:18:15.999Z</time></trkpt><trkpt lat="41.85865139029109" lon="13.4782228624983"><ele>450.6666666666667</ele><time>2026-05-01T11:18:16.999Z</time></trkpt><trkpt lat="41.85878026429232" lon="13.478103869497872"><ele>454.0</ele><time>2026-05-01T11:18:17.999Z</time></trkpt><trkpt lat="41.858884278298994" lon="13.477966596591191"><ele>450.25</ele><time>2026-05-01T11:18:18.999Z</time></trkpt><trkpt lat="41.8589475655352" lon="13.47778032641155"><ele>446.5</ele><time>2026-05-01T11:18:19.999Z</time></trkpt><trkpt lat="41.85897770751184" lon="13.477580299011398"><ele>442.75</ele><time>2026-05-01T11:18:20.999Z</time></trkpt><trkpt lat="41.859047964147166" lon="13.477425097208572"><ele>439.0</ele><time>2026-05-01T11:18:21.999Z</time></trkpt><trkpt lat="41.859154931956986" lon="13.477310447562168"><ele>437.33333333333337</ele><time>2026-05-01T11:18:23Z</time></trkpt><trkpt lat="41.859305759807924" lon="13.477232372379762"><ele>435.66666666666663</ele><time>2026-05-01T11:18:24Z</time></trkpt><trkpt lat="41.85946754603463" lon="13.477129795855427"><ele>434.0</ele><time>2026-05-01T11:18:25Z</time></trkpt><trkpt lat="41.85963913743467" lon="13.4770088396464"><ele>434.0</ele><time>2026-05-01T11:18:26Z</time></trkpt><trkpt lat="41.859802383744665" lon="13.476847062304259"><ele>434.0</ele><time>2026-05-01T11:18:27Z</time></trkpt><trkpt lat="41.8599616183536" lon="13.476649925705328"><ele>434.0</ele><time>2026-05-01T11:18:28Z</time></trkpt><trkpt lat="41.86010674075793" lon="13.476454698302938"><ele>440.3333333333333</ele><time>2026-05-01T11:18:29Z</time></trkpt><trkpt lat="41.86024049076028" lon="13.47628442921175"><ele>446.66666666666663</ele><time>2026-05-01T11:18:30Z</time></trkpt><trkpt lat="41.86036316653633" lon="13.476127760227577"><ele>453.0</ele><time>2026-05-01T11:18:31Z</time></trkpt><trkpt lat="41.86047267064048" lon="13.475987992114947"><ele>453.0</ele><time>2026-05-01T11:18:32Z</time></trkpt><trkpt lat="41.86056115985785" lon="13.47587807734303"><ele>452.99999999999994</ele><time>2026-05-01T11:18:33Z</time></trkpt><trkpt lat="41.860627430798154" lon="13.475782003475"><ele>452.99999999999994</ele><time>2026-05-01T11:18:34Z</time></trkpt><trkpt lat="41.86066642888717" lon="13.475660330732202"><ele>453.0</ele><time>2026-05-01T11:18:35Z</time></trkpt><trkpt lat="41.860649685874755" lon="13.4754931729698"><ele>453.0</ele><time>2026-05-01T11:18:36Z</time></trkpt><trkpt lat="41.86058517344497" lon="13.475318131617886"><ele>453.5</ele><time>2026-05-01T11:18:37Z</time></trkpt><trkpt lat="41.86051343394746" lon="13.475153105230659"><ele>454.0</ele><time>2026-05-01T11:18:38Z</time></trkpt><trkpt lat="41.86049610450189" lon="13.47496480898986"><ele>454.5</ele><time>2026-05-01T11:18:39Z</time></trkpt><trkpt lat="41.86047152345438" lon="13.47475703513153"><ele>455.0</ele><time>2026-05-01T11:18:40Z</time></trkpt><trkpt lat="41.86047001813297" lon="13.474529129464594"><ele>455.0</ele><time>2026-05-01T11:18:41Z</time></trkpt><trkpt lat="41.860505878969136" lon="13.47427197574584"><ele>455.0</ele><time>2026-05-01T11:18:42Z</time></trkpt><trkpt lat="41.86052686713266" lon="13.473989033168108"><ele>455.0</ele><time>2026-05-01T11:18:43Z</time></trkpt><trkpt lat="41.86056283766951" lon="13.47374710571789"><ele>452.66666666666663</ele><time>2026-05-01T11:18:44Z</time></trkpt><trkpt lat="41.86059124009232" lon="13.47352168604445"><ele>450.33333333333337</ele><time>2026-05-01T11:18:45Z</time></trkpt><trkpt lat="41.86060988426663" lon="13.473278170221386"><ele>448.0</ele><time>2026-05-01T11:18:46Z</time></trkpt><trkpt lat="41.86060909838239" lon="13.473024646235608"><ele>447.6666666666667</ele><time>2026-05-01T11:18:47Z</time></trkpt><trkpt lat="41.86058769007192" lon="13.47279364959924"><ele>447.33333333333337</ele><time>2026-05-01T11:18:48Z</time></trkpt><trkpt lat="41.86055861993502" lon="13.472581726252443"><ele>447.0</ele><time>2026-05-01T11:18:49Z</time></trkpt><trkpt lat="41.860536262858986" lon="13.472386320773891"><ele>447.0</ele><time>2026-05-01T11:18:50Z</time></trkpt><trkpt lat="41.86054748186251" lon="13.472197506106285"><ele>447.0</ele><time>2026-05-01T11:18:51Z</time></trkpt><trkpt lat="41.86060264449373" lon="13.472006373708147"><ele>447.0</ele><time>2026-05-01T11:18:52Z</time></trkpt><trkpt lat="41.86071491411313" lon="13.471860056631938"><ele>445.66666666666663</ele><time>2026-05-01T11:18:53Z</time></trkpt><trkpt lat="41.86083994491413" lon="13.471724644902006"><ele>444.3333333333333</ele><time>2026-05-01T11:18:54Z</time></trkpt><trkpt lat="41.86099160105832" lon="13.471651653248301"><ele>443.0</ele><time>2026-05-01T11:18:55Z</time></trkpt><trkpt lat="41.86115758064665" lon="13.471575394997"><ele>443.0</ele><time>2026-05-01T11:18:56Z</time></trkpt><trkpt lat="41.86133137593763" lon="13.47153403369469"><ele>443.0</ele><time>2026-05-01T11:18:57Z</time></trkpt><trkpt lat="41.861513611098104" lon="13.471525647322819"><ele>443.0</ele><time>2026-05-01T11:18:58Z</time></trkpt><trkpt lat="41.86170317576635" lon="13.47152553267603"><ele>442.66666666666663</ele><time>2026-05-01T11:18:59Z</time></trkpt><trkpt lat="41.861894192949016" lon="13.471564013606836"><ele>442.33333333333337</ele><time>2026-05-01T11:19:00Z</time></trkpt><trkpt lat="41.86207689349208" lon="13.47159545773637"><ele>442.0</ele><time>2026-05-01T11:19:01Z</time></trkpt><trkpt lat="41.86225647552777" lon="13.471634805032501"><ele>442.0</ele><time>2026-05-01T11:19:02Z</time></trkpt><trkpt lat="41.8624350675467" lon="13.471641458442404"><ele>442.0</ele><time>2026-05-01T11:19:03Z</time></trkpt><trkpt lat="41.86259608246537" lon="13.471620412699327"><ele>442.0</ele><time>2026-05-01T11:19:04Z</time></trkpt><trkpt lat="41.86274455467047" lon="13.471571016871517"><ele>442.6666666666667</ele><time>2026-05-01T11:19:05Z</time></trkpt><trkpt lat="41.8628830833753" lon="13.471457402955187"><ele>443.33333333333337</ele><time>2026-05-01T11:19:06Z</time></trkpt><trkpt lat="41.86300336380772" lon="13.471280166364748"><ele>444.0</ele><time>2026-05-01T11:19:07Z</time></trkpt><trkpt lat="41.8630973442584" lon="13.47105990706048"><ele>444.0</ele><time>2026-05-01T11:19:08Z</time></trkpt><trkpt lat="41.86316402802504" lon="13.470809228288347"><ele>444.0</ele><time>2026-05-01T11:19:09Z</time></trkpt><trkpt lat="41.86322043792355" lon="13.470546048687211"><ele>444.0</ele><time>2026-05-01T11:19:10Z</time></trkpt><trkpt lat="41.8632797834831" lon="13.470285915808235"><ele>442.66666666666663</ele><time>2026-05-01T11:19:11Z</time></trkpt><trkpt lat="41.863340008150765" lon="13.470020088047685"><ele>441.3333333333333</ele><time>2026-05-01T11:19:12Z</time></trkpt><trkpt lat="41.863401200760826" lon="13.469747973782898"><ele>440.0</ele><time>2026-05-01T11:19:13Z</time></trkpt><trkpt lat="41.863461578841985" lon="13.469471191974607"><ele>444.66666666666663</ele><time>2026-05-01T11:19:13.999Z</time></trkpt><trkpt lat="41.86351982589136" lon="13.46919137217817"><ele>449.33333333333337</ele><time>2026-05-01T11:19:14.999Z</time></trkpt><trkpt lat="41.863569440722095" lon="13.468930450921851"><ele>454.0</ele><time>2026-05-01T11:19:15.999Z</time></trkpt><trkpt lat="41.86361849046618" lon="13.468684900127037"><ele>454.0</ele><time>2026-05-01T11:19:16.999Z</time></trkpt><trkpt lat="41.86367540149404" lon="13.468431557509644"><ele>454.0</ele><time>2026-05-01T11:19:17.999Z</time></trkpt><trkpt lat="41.86376781562091" lon="13.468186080079317"><ele>454.0</ele><time>2026-05-01T11:19:18.999Z</time></trkpt><trkpt lat="41.86386693966283" lon="13.467922159831241"><ele>450.6666666666667</ele><time>2026-05-01T11:19:19.999Z</time></trkpt><trkpt lat="41.86396314057375" lon="13.467645360694151"><ele>447.33333333333337</ele><time>2026-05-01T11:19:20.999Z</time></trkpt><trkpt lat="41.864078129737614" lon="13.467406501820792"><ele>444.0</ele><time>2026-05-01T11:19:21.999Z</time></trkpt><trkpt lat="41.8641973387025" lon="13.467183869138461"><ele>449.33333333333337</ele><time>2026-05-01T11:19:22.999Z</time></trkpt><trkpt lat="41.864314357923725" lon="13.466984882464095"><ele>454.6666666666667</ele><time>2026-05-01T11:19:23.999Z</time></trkpt><trkpt lat="41.8644305096544" lon="13.466795816378491"><ele>460.0</ele><time>2026-05-01T11:19:24.999Z</time></trkpt><trkpt lat="41.8645350132702" lon="13.466584877220432"><ele>460.0</ele><time>2026-05-01T11:19:25.999Z</time></trkpt><trkpt lat="41.86461500409028" lon="13.466349813850524"><ele>460.0</ele><time>2026-05-01T11:19:26.999Z</time></trkpt><trkpt lat="41.86466911869937" lon="13.466090882674985"><ele>460.0</ele><time>2026-05-01T11:19:27.999Z</time></trkpt><trkpt lat="41.864706361333525" lon="13.46582788200772"><ele>457.0</ele><time>2026-05-01T11:19:28.999Z</time></trkpt><trkpt lat="41.864725584280656" lon="13.465558322695333"><ele>454.0</ele><time>2026-05-01T11:19:29.999Z</time></trkpt><trkpt lat="41.86472562546956" lon="13.465305300593702"><ele>451.0</ele><time>2026-05-01T11:19:30.999Z</time></trkpt><trkpt lat="41.864705005258116" lon="13.465080369831563"><ele>450.0</ele><time>2026-05-01T11:19:31.999Z</time></trkpt><trkpt lat="41.864721751359696" lon="13.464849599976311"><ele>449.0</ele><time>2026-05-01T11:19:32.999Z</time></trkpt><trkpt lat="41.86475384793567" lon="13.464629758014867"><ele>448.0</ele><time>2026-05-01T11:19:33.999Z</time></trkpt><trkpt lat="41.8648288100771" lon="13.464417125652501"><ele>445.33333333333337</ele><time>2026-05-01T11:19:34.999Z</time></trkpt><trkpt lat="41.86491137796883" lon="13.464213077553332"><ele>442.66666666666663</ele><time>2026-05-01T11:19:35.999Z</time></trkpt><trkpt lat="41.864961951601806" lon="13.464021836035958"><ele>440.0</ele><time>2026-05-01T11:19:36.999Z</time></trkpt><trkpt lat="41.8650169456152" lon="13.463868210995914"><ele>441.25</ele><time>2026-05-01T11:19:37.999Z</time></trkpt><trkpt lat="41.86507126357015" lon="13.463738509661546"><ele>442.5</ele><time>2026-05-01T11:19:38.999Z</time></trkpt><trkpt lat="41.865165336087166" lon="13.463636626883199"><ele>443.75</ele><time>2026-05-01T11:19:39.999Z</time></trkpt><trkpt lat="41.86529124875689" lon="13.463546131393068"><ele>445.0</ele><time>2026-05-01T11:19:40.999Z</time></trkpt><trkpt lat="41.86544312251164" lon="13.463455126378891"><ele>445.0</ele><time>2026-05-01T11:19:41.999Z</time></trkpt><trkpt lat="41.86561119430549" lon="13.463354637117954"><ele>445.0</ele><time>2026-05-01T11:19:42.999Z</time></trkpt><trkpt lat="41.86579685522656" lon="13.463260009391794"><ele>445.0</ele><time>2026-05-01T11:19:43.999Z</time></trkpt><trkpt lat="41.865983930416206" lon="13.463135318055823"><ele>444.33333333333337</ele><time>2026-05-01T11:19:44.999Z</time></trkpt><trkpt lat="41.86617111299699" lon="13.462995099301338"><ele>443.66666666666663</ele><time>2026-05-01T11:19:45.999Z</time></trkpt><trkpt lat="41.86635597680974" lon="13.462854181796333"><ele>443.0</ele><time>2026-05-01T11:19:46.999Z</time></trkpt><trkpt lat="41.86655759036723" lon="13.46275216664976"><ele>443.0</ele><time>2026-05-01T11:19:47.999Z</time></trkpt><trkpt lat="41.86676567942652" lon="13.462648011396201"><ele>443.0</ele><time>2026-05-01T11:19:48.999Z</time></trkpt><trkpt lat="41.866978576611345" lon="13.462557817232803"><ele>443.0</ele><time>2026-05-01T11:19:49.999Z</time></trkpt><trkpt lat="41.86719093049266" lon="13.46246910255749"><ele>447.66666666666663</ele><time>2026-05-01T11:19:50.999Z</time></trkpt><trkpt lat="41.86739494148984" lon="13.462369863954734"><ele>452.33333333333337</ele><time>2026-05-01T11:19:51.999Z</time></trkpt><trkpt lat="41.867560765097686" lon="13.46226114001923"><ele>457.0</ele><time>2026-05-01T11:19:52.999Z</time></trkpt><trkpt lat="41.86771834492677" lon="13.462170293025894"><ele>451.33333333333337</ele><time>2026-05-01T11:19:53.999Z</time></trkpt><trkpt lat="41.86789362024194" lon="13.462093412150196"><ele>445.66666666666663</ele><time>2026-05-01T11:19:54.999Z</time></trkpt><trkpt lat="41.868056361195954" lon="13.461977621819225"><ele>440.0</ele><time>2026-05-01T11:19:55.999Z</time></trkpt><trkpt lat="41.868220067007584" lon="13.461887091514322"><ele>440.0</ele><time>2026-05-01T11:19:56.999Z</time></trkpt><trkpt lat="41.86837815043541" lon="13.46179077459879"><ele>440.0</ele><time>2026-05-01T11:19:57.999Z</time></trkpt><trkpt lat="41.86854381465698" lon="13.461692565134436"><ele>440.0</ele><time>2026-05-01T11:19:58.999Z</time></trkpt><trkpt lat="41.86871176875918" lon="13.46159043658209"><ele>440.3333333333333</ele><time>2026-05-01T11:19:59.999Z</time></trkpt><trkpt lat="41.86887582421333" lon="13.461480941996136"><ele>440.66666666666663</ele><time>2026-05-01T11:20:00.999Z</time></trkpt><trkpt lat="41.8690269552419" lon="13.461368778887383"><ele>441.0</ele><time>2026-05-01T11:20:01.999Z</time></trkpt><trkpt lat="41.869158616695536" lon="13.461259016028999"><ele>443.0</ele><time>2026-05-01T11:20:02.999Z</time></trkpt><trkpt lat="41.86928282823208" lon="13.4611338278884"><ele>445.0</ele><time>2026-05-01T11:20:03.999Z</time></trkpt><trkpt lat="41.86939266275291" lon="13.460980202392124"><ele>447.0</ele><time>2026-05-01T11:20:04.999Z</time></trkpt><trkpt lat="41.869483460635685" lon="13.460793455631922"><ele>447.0</ele><time>2026-05-01T11:20:05.999Z</time></trkpt><trkpt lat="41.86958394989426" lon="13.460615180589505"><ele>447.0</ele><time>2026-05-01T11:20:06.999Z</time></trkpt><trkpt lat="41.86967301677922" lon="13.460447295451058"><ele>447.0</ele><time>2026-05-01T11:20:07.999Z</time></trkpt><trkpt lat="41.869760861307014" lon="13.460268752340658"><ele>447.33333333333337</ele><time>2026-05-01T11:20:08.999Z</time></trkpt><trkpt lat="41.86987754920441" lon="13.46011844268713"><ele>447.6666666666667</ele><time>2026-05-01T11:20:09.999Z</time></trkpt><trkpt lat="41.87000920628197" lon="13.45998574051325"><ele>448.0</ele><time>2026-05-01T11:20:10.999Z</time></trkpt><trkpt lat="41.870136910526476" lon="13.459882356596282"><ele>448.0</ele><time>2026-05-01T11:20:11.999Z</time></trkpt><trkpt lat="41.87025180986553" lon="13.459794751573783"><ele>448.0</ele><time>2026-05-01T11:20:12.999Z</time></trkpt><trkpt lat="41.870354070323636" lon="13.459710304616866"><ele>448.0</ele><time>2026-05-01T11:20:13.999Z</time></trkpt><trkpt lat="41.870454351477136" lon="13.45962478674121"><ele>448.0</ele><time>2026-05-01T11:20:14.999Z</time></trkpt><trkpt lat="41.87055292019749" lon="13.459541444969739"><ele>447.5</ele><time>2026-05-01T11:20:15.999Z</time></trkpt><trkpt lat="41.870650839622954" lon="13.459462826733287"><ele>447.0</ele><time>2026-05-01T11:20:16.999Z</time></trkpt><trkpt lat="41.87074359622654" lon="13.459391086383592"><ele>446.5</ele><time>2026-05-01T11:20:17.999Z</time></trkpt><trkpt lat="41.87084207924528" lon="13.459315982714728"><ele>446.0</ele><time>2026-05-01T11:20:18.999Z</time></trkpt><trkpt lat="41.87094515535088" lon="13.459235499447582"><ele>446.0</ele><time>2026-05-01T11:20:19.999Z</time></trkpt><trkpt lat="41.87105362303137" lon="13.459152192870803"><ele>446.0</ele><time>2026-05-01T11:20:20.999Z</time></trkpt><trkpt lat="41.871161319579514" lon="13.459071497284537"><ele>446.0</ele><time>2026-05-01T11:20:21.999Z</time></trkpt><trkpt lat="41.871272817288954" lon="13.458995251810913"><ele>446.0</ele><time>2026-05-01T11:20:22.999Z</time></trkpt><trkpt lat="41.87139356713216" lon="13.458935709391753"><ele>446.0</ele><time>2026-05-01T11:20:23.999Z</time></trkpt><trkpt lat="41.87152391673485" lon="13.45889039221521"><ele>446.0</ele><time>2026-05-01T11:20:24.999Z</time></trkpt><trkpt lat="41.8716568591666" lon="13.458852706754051"><ele>446.0</ele><time>2026-05-01T11:20:25.998Z</time></trkpt><trkpt lat="41.871790517196004" lon="13.458811817824255"><ele>446.0</ele><time>2026-05-01T11:20:26.998Z</time></trkpt><trkpt lat="41.87192455304586" lon="13.45876580254213"><ele>445.66666666666663</ele><time>2026-05-01T11:20:27.998Z</time></trkpt><trkpt lat="41.87206900457737" lon="13.458719820664431"><ele>445.33333333333337</ele><time>2026-05-01T11:20:29Z</time></trkpt><trkpt lat="41.872232925459194" lon="13.458669200910876"><ele>445.0</ele><time>2026-05-01T11:20:30Z</time></trkpt><trkpt lat="41.872396345249655" lon="13.458621213654892"><ele>445.0</ele><time>2026-05-01T11:20:31Z</time></trkpt><trkpt lat="41.87256750730737" lon="13.458570325672945"><ele>445.0</ele><time>2026-05-01T11:20:32Z</time></trkpt><trkpt lat="41.872751300105364" lon="13.45851016318643"><ele>445.0</ele><time>2026-05-01T11:20:33Z</time></trkpt><trkpt lat="41.87293670720853" lon="13.458449141825037"><ele>446.0</ele><time>2026-05-01T11:20:34Z</time></trkpt><trkpt lat="41.87311727100283" lon="13.458380701116615"><ele>447.0</ele><time>2026-05-01T11:20:35Z</time></trkpt><trkpt lat="41.87329970942836" lon="13.458293237085993"><ele>448.0</ele><time>2026-05-01T11:20:36Z</time></trkpt><trkpt lat="41.87347652820999" lon="13.458193589603626"><ele>450.0</ele><time>2026-05-01T11:20:37Z</time></trkpt><trkpt lat="41.87364661619347" lon="13.458107273297834"><ele>452.0</ele><time>2026-05-01T11:20:38Z</time></trkpt><trkpt lat="41.87383019435648" lon="13.457999596887078"><ele>454.0</ele><time>2026-05-01T11:20:39Z</time></trkpt><trkpt lat="41.87400932098313" lon="13.457870843137469"><ele>453.0</ele><time>2026-05-01T11:20:40Z</time></trkpt><trkpt lat="41.87420146349985" lon="13.45775630391395"><ele>452.0</ele><time>2026-05-01T11:20:41Z</time></trkpt><trkpt lat="41.87440000369385" lon="13.457659427041712"><ele>451.0</ele><time>2026-05-01T11:20:42Z</time></trkpt><trkpt lat="41.87457886117819" lon="13.457524354017183"><ele>451.0</ele><time>2026-05-01T11:20:43Z</time></trkpt><trkpt lat="41.874766857841784" lon="13.457410299626751"><ele>451.0</ele><time>2026-05-01T11:20:44Z</time></trkpt><trkpt lat="41.87496219329615" lon="13.457308045535566"><ele>451.0</ele><time>2026-05-01T11:20:45Z</time></trkpt><trkpt lat="41.875167772684115" lon="13.457228989902132"><ele>449.0</ele><time>2026-05-01T11:20:46Z</time></trkpt><trkpt lat="41.875387657157354" lon="13.457164387702479"><ele>447.0</ele><time>2026-05-01T11:20:47Z</time></trkpt><trkpt lat="41.875608446325025" lon="13.457104240658747"><ele>447.0</ele><time>2026-05-01T11:20:48Z</time></trkpt><trkpt lat="41.875819314155166" lon="13.457049051845326"><ele>447.0</ele><time>2026-05-01T11:20:49Z</time></trkpt><trkpt lat="41.876014632658936" lon="13.45699408854346"><ele>447.0</ele><time>2026-05-01T11:20:50Z</time></trkpt><trkpt lat="41.876192747705275" lon="13.456941799214643"><ele>448.0</ele><time>2026-05-01T11:20:51Z</time></trkpt><trkpt lat="41.8763512436627" lon="13.456891243625856"><ele>449.0</ele><time>2026-05-01T11:20:52Z</time></trkpt><trkpt lat="41.87649735759001" lon="13.456813924419091"><ele>450.0</ele><time>2026-05-01T11:20:53Z</time></trkpt><trkpt lat="41.87663112021763" lon="13.456666733656563"><ele>450.0</ele><time>2026-05-01T11:20:54Z</time></trkpt><trkpt lat="41.87674921186827" lon="13.456457516843118"><ele>450.0</ele><time>2026-05-01T11:20:55Z</time></trkpt><trkpt lat="41.87684976824622" lon="13.456223096116542"><ele>450.0</ele><time>2026-05-01T11:20:56Z</time></trkpt><trkpt lat="41.87694966085004" lon="13.455976526006621"><ele>451.0</ele><time>2026-05-01T11:20:57Z</time></trkpt><trkpt lat="41.87706105458915" lon="13.455728639021414"><ele>452.0</ele><time>2026-05-01T11:20:58Z</time></trkpt><trkpt lat="41.87718465396283" lon="13.455490713840437"><ele>453.0</ele><time>2026-05-01T11:20:59Z</time></trkpt><trkpt lat="41.87730903545689" lon="13.455254961106029"><ele>453.0</ele><time>2026-05-01T11:21:00Z</time></trkpt><trkpt lat="41.877430779576535" lon="13.455017353561649"><ele>453.0</ele><time>2026-05-01T11:21:01Z</time></trkpt><trkpt lat="41.87755195919103" lon="13.454774614345665"><ele>453.0</ele><time>2026-05-01T11:21:02Z</time></trkpt><trkpt lat="41.877670699102424" lon="13.45453572927527"><ele>453.66666666666663</ele><time>2026-05-01T11:21:03Z</time></trkpt><trkpt lat="41.87778402889891" lon="13.454320384069653"><ele>454.3333333333333</ele><time>2026-05-01T11:21:04Z</time></trkpt><trkpt lat="41.87788728049905" lon="13.454119226776918"><ele>455.0</ele><time>2026-05-01T11:21:05Z</time></trkpt><trkpt lat="41.877987729281905" lon="13.45391512027063"><ele>455.66666666666663</ele><time>2026-05-01T11:21:06Z</time></trkpt><trkpt lat="41.87807574853424" lon="13.453696173545818"><ele>456.33333333333337</ele><time>2026-05-01T11:21:07Z</time></trkpt><trkpt lat="41.878135030747394" lon="13.45345110090268"><ele>457.0</ele><time>2026-05-01T11:21:08Z</time></trkpt><trkpt lat="41.878162143327366" lon="13.453200512299468"><ele>457.0</ele><time>2026-05-01T11:21:09Z</time></trkpt><trkpt lat="41.87818733492292" lon="13.452969035100805"><ele>457.0</ele><time>2026-05-01T11:21:10Z</time></trkpt><trkpt lat="41.8782263188879" lon="13.452754894042473"><ele>457.0</ele><time>2026-05-01T11:21:11Z</time></trkpt><trkpt lat="41.87831777493424" lon="13.452562401916278"><ele>456.33333333333337</ele><time>2026-05-01T11:21:12Z</time></trkpt><trkpt lat="41.87843388696349" lon="13.45238552733243"><ele>455.66666666666663</ele><time>2026-05-01T11:21:13Z</time></trkpt><trkpt lat="41.87857885171574" lon="13.452232423249077"><ele>455.0</ele><time>2026-05-01T11:21:14Z</time></trkpt><trkpt lat="41.87873289184198" lon="13.452081760002699"><ele>454.75</ele><time>2026-05-01T11:21:15Z</time></trkpt><trkpt lat="41.878908536162946" lon="13.451952126801947"><ele>454.5</ele><time>2026-05-01T11:21:16Z</time></trkpt><trkpt lat="41.8790482667598" lon="13.451854349292764"><ele>454.25</ele><time>2026-05-01T11:21:17Z</time></trkpt><trkpt lat="41.8791132666017" lon="13.451811671547375"><ele>454.0</ele><time>2026-05-01T11:21:17.999Z</time></trkpt><trkpt lat="41.87924040940424" lon="13.45171010265969"><ele>455.75</ele><time>2026-05-01T11:21:19.999Z</time></trkpt><trkpt lat="41.87934720648403" lon="13.451642105660364"><ele>457.5</ele><time>2026-05-01T11:21:20.999Z</time></trkpt><trkpt lat="41.87945764137942" lon="13.45157194300915"><ele>459.25</ele><time>2026-05-01T11:21:21.999Z</time></trkpt><trkpt lat="41.8795699070973" lon="13.451497031181333"><ele>461.0</ele><time>2026-05-01T11:21:22.999Z</time></trkpt><trkpt lat="41.87968691104937" lon="13.451419175379128"><ele>461.0</ele><time>2026-05-01T11:21:23.999Z</time></trkpt><trkpt lat="41.87981109558156" lon="13.451336465541681"><ele>461.0</ele><time>2026-05-01T11:21:24.999Z</time></trkpt><trkpt lat="41.87993885421909" lon="13.451249587136083"><ele>461.0</ele><time>2026-05-01T11:21:25.999Z</time></trkpt><trkpt lat="41.880072689563924" lon="13.45117079601168"><ele>461.0</ele><time>2026-05-01T11:21:26.999Z</time></trkpt><trkpt lat="41.88021332441979" lon="13.451099114491182"><ele>461.25</ele><time>2026-05-01T11:21:27.999Z</time></trkpt><trkpt lat="41.8803548231518" lon="13.451039417226097"><ele>461.5</ele><time>2026-05-01T11:21:28.999Z</time></trkpt><trkpt lat="41.8805011226391" lon="13.45099489954624"><ele>461.75</ele><time>2026-05-01T11:21:29.999Z</time></trkpt><trkpt lat="41.88064771947933" lon="13.45095177023977"><ele>462.0</ele><time>2026-05-01T11:21:30.999Z</time></trkpt><trkpt lat="41.88079383413671" lon="13.45090795194417"><ele>465.66666666666663</ele><time>2026-05-01T11:21:31.999Z</time></trkpt><trkpt lat="41.88093741023354" lon="13.450857725685415"><ele>469.3333333333333</ele><time>2026-05-01T11:21:32.999Z</time></trkpt><trkpt lat="41.88108897162435" lon="13.450789756872666"><ele>473.0</ele><time>2026-05-01T11:21:33.999Z</time></trkpt><trkpt lat="41.88124423802596" lon="13.45071071776822"><ele>473.0</ele><time>2026-05-01T11:21:34.999Z</time></trkpt><trkpt lat="41.88140361418496" lon="13.450628045289175"><ele>473.0</ele><time>2026-05-01T11:21:35.999Z</time></trkpt><trkpt lat="41.881568383516786" lon="13.450546204751069"><ele>473.0</ele><time>2026-05-01T11:21:36.999Z</time></trkpt><trkpt lat="41.881742653419685" lon="13.450465862538193"><ele>469.3333333333333</ele><time>2026-05-01T11:21:37.999Z</time></trkpt><trkpt lat="41.88191963832531" lon="13.45038610484237"><ele>465.66666666666663</ele><time>2026-05-01T11:21:38.999Z</time></trkpt><trkpt lat="41.88209933588522" lon="13.450300729903347"><ele>462.0</ele><time>2026-05-01T11:21:39.999Z</time></trkpt><trkpt lat="41.88227840875061" lon="13.450207012598113"><ele>462.0</ele><time>2026-05-01T11:21:40.999Z</time></trkpt><trkpt lat="41.882459189259365" lon="13.450093175266234"><ele>462.0</ele><time>2026-05-01T11:21:41.999Z</time></trkpt><trkpt lat="41.88263845717509" lon="13.449962292215622"><ele>462.0</ele><time>2026-05-01T11:21:42.999Z</time></trkpt><trkpt lat="41.88282246169543" lon="13.449820160343211"><ele>461.33333333333337</ele><time>2026-05-01T11:21:43.999Z</time></trkpt><trkpt lat="41.88299428549401" lon="13.449681538679767"><ele>460.6666666666667</ele><time>2026-05-01T11:21:44.999Z</time></trkpt><trkpt lat="41.883154184507084" lon="13.449547726047623"><ele>460.0</ele><time>2026-05-01T11:21:45.999Z</time></trkpt><trkpt lat="41.88331685375462" lon="13.449414987602458"><ele>461.6666666666667</ele><time>2026-05-01T11:21:46.999Z</time></trkpt><trkpt lat="41.88349371903922" lon="13.449290031120496"><ele>463.33333333333337</ele><time>2026-05-01T11:21:47.999Z</time></trkpt><trkpt lat="41.88369131528663" lon="13.44918299191615"><ele>465.0</ele><time>2026-05-01T11:21:48.999Z</time></trkpt><trkpt lat="41.883895303327584" lon="13.449085467862949"><ele>465.0</ele><time>2026-05-01T11:21:49.999Z</time></trkpt><trkpt lat="41.88410811575592" lon="13.44899199150881"><ele>465.0</ele><time>2026-05-01T11:21:50.999Z</time></trkpt><trkpt lat="41.884325500072094" lon="13.44890167462244"><ele>465.5</ele><time>2026-05-01T11:21:51.999Z</time></trkpt><trkpt lat="41.88454971805954" lon="13.44881284311461"><ele>466.0</ele><time>2026-05-01T11:21:52.999Z</time></trkpt><trkpt lat="41.88477634048038" lon="13.448725630176257"><ele>463.5</ele><time>2026-05-01T11:21:53.999Z</time></trkpt><trkpt lat="41.88500521873404" lon="13.448642030264297"><ele>461.0</ele><time>2026-05-01T11:21:54.999Z</time></trkpt><trkpt lat="41.885237010971984" lon="13.448558361734628"><ele>461.0</ele><time>2026-05-01T11:21:55.999Z</time></trkpt><trkpt lat="41.88547124831777" lon="13.448470814933827"><ele>461.0</ele><time>2026-05-01T11:21:56.999Z</time></trkpt><trkpt lat="41.88569681203803" lon="13.4483845888547"><ele>461.0</ele><time>2026-05-01T11:21:57.999Z</time></trkpt><trkpt lat="41.88590996333895" lon="13.448304235893248"><ele>461.0</ele><time>2026-05-01T11:21:58.999Z</time></trkpt><trkpt lat="41.88611987789492" lon="13.448224596942374"><ele>461.0</ele><time>2026-05-01T11:21:59.999Z</time></trkpt><trkpt lat="41.88632678526809" lon="13.448144071195008"><ele>464.0</ele><time>2026-05-01T11:22:00.999Z</time></trkpt><trkpt lat="41.88653068502539" lon="13.448057911308997"><ele>467.0</ele><time>2026-05-01T11:22:01.999Z</time></trkpt><trkpt lat="41.88672509390893" lon="13.447962750774227"><ele>470.0</ele><time>2026-05-01T11:22:02.999Z</time></trkpt><trkpt lat="41.88690484090673" lon="13.44785143207173"><ele>470.5</ele><time>2026-05-01T11:22:03.999Z</time></trkpt><trkpt lat="41.88707934877915" lon="13.447725209612642"><ele>471.0</ele><time>2026-05-01T11:22:04.999Z</time></trkpt><trkpt lat="41.887194326324234" lon="13.447631086722836"><ele>471.5</ele><time>2026-05-01T11:22:05.999Z</time></trkpt><trkpt lat="41.8872771823609" lon="13.447560031473497"><ele>472.0</ele><time>2026-05-01T11:22:06.999Z</time></trkpt><trkpt lat="41.88734753284402" lon="13.447490578599181"><ele>472.0</ele><time>2026-05-01T11:22:07.999Z</time></trkpt><trkpt lat="41.88741928186961" lon="13.44740844044134"><ele>472.00000000000006</ele><time>2026-05-01T11:22:08.999Z</time></trkpt><trkpt lat="41.8875001877054" lon="13.447314137247348"><ele>472.00000000000006</ele><time>2026-05-01T11:22:09.999Z</time></trkpt><trkpt lat="41.88758718352883" lon="13.44721371848761"><ele>472.0</ele><time>2026-05-01T11:22:10.999Z</time></trkpt><trkpt lat="41.88768244688796" lon="13.447108209229041"><ele>472.0</ele><time>2026-05-01T11:22:11.999Z</time></trkpt><trkpt lat="41.88777895205309" lon="13.446981288416865"><ele>476.6666666666667</ele><time>2026-05-01T11:22:12.999Z</time></trkpt><trkpt lat="41.887872538812026" lon="13.44682367125792"><ele>481.33333333333337</ele><time>2026-05-01T11:22:13.999Z</time></trkpt><trkpt lat="41.88796252505237" lon="13.44664728102894"><ele>486.0</ele><time>2026-05-01T11:22:14.999Z</time></trkpt><trkpt lat="41.88805412815537" lon="13.446467212622544"><ele>480.66666666666663</ele><time>2026-05-01T11:22:15.999Z</time></trkpt><trkpt lat="41.88814553620465" lon="13.446287995770684"><ele>475.3333333333333</ele><time>2026-05-01T11:22:16.999Z</time></trkpt><trkpt lat="41.88823326678271" lon="13.446126632992552"><ele>470.0</ele><time>2026-05-01T11:22:17.999Z</time></trkpt><trkpt lat="41.88833402302178" lon="13.445969527565964"><ele>474.66666666666663</ele><time>2026-05-01T11:22:18.999Z</time></trkpt><trkpt lat="41.888442497266524" lon="13.445820283670688"><ele>479.33333333333337</ele><time>2026-05-01T11:22:19.999Z</time></trkpt><trkpt lat="41.88856407809415" lon="13.445680973698597"><ele>484.0</ele><time>2026-05-01T11:22:20.999Z</time></trkpt><trkpt lat="41.88869486203487" lon="13.445560480793668"><ele>480.0</ele><time>2026-05-01T11:22:21.999Z</time></trkpt><trkpt lat="41.88882628726621" lon="13.445461498541949"><ele>476.0</ele><time>2026-05-01T11:22:22.999Z</time></trkpt><trkpt lat="41.888959071833526" lon="13.445376990264316"><ele>472.0</ele><time>2026-05-01T11:22:23.999Z</time></trkpt><trkpt lat="41.88910171496318" lon="13.445311328507547"><ele>468.0</ele><time>2026-05-01T11:22:24.999Z</time></trkpt><trkpt lat="41.889251099538015" lon="13.445259892162936"><ele>470.0</ele><time>2026-05-01T11:22:25.999Z</time></trkpt><trkpt lat="41.88941567267514" lon="13.445213593109584"><ele>472.0</ele><time>2026-05-01T11:22:26.999Z</time></trkpt><trkpt lat="41.889584762272065" lon="13.445169894342348"><ele>474.0</ele><time>2026-05-01T11:22:27.999Z</time></trkpt><trkpt lat="41.889756785012686" lon="13.445124097229506"><ele>474.0</ele><time>2026-05-01T11:22:28.999Z</time></trkpt><trkpt lat="41.88993214124224" lon="13.445066209956591"><ele>474.0</ele><time>2026-05-01T11:22:29.999Z</time></trkpt><trkpt lat="41.89011569586144" lon="13.444994772773859"><ele>474.0</ele><time>2026-05-01T11:22:30.998Z</time></trkpt><trkpt lat="41.890293099930254" lon="13.444915070219796"><ele>473.66666666666663</ele><time>2026-05-01T11:22:31.998Z</time></trkpt><trkpt lat="41.89046680617199" lon="13.444822937151503"><ele>473.3333333333333</ele><time>2026-05-01T11:22:32.998Z</time></trkpt><trkpt lat="41.89063172539051" lon="13.444717617134296"><ele>473.0</ele><time>2026-05-01T11:22:33.998Z</time></trkpt><trkpt lat="41.89078886280824" lon="13.444603363177782"><ele>480.0</ele><time>2026-05-01T11:22:35Z</time></trkpt><trkpt lat="41.890926219077336" lon="13.44447879780259"><ele>487.0</ele><time>2026-05-01T11:22:36Z</time></trkpt><trkpt lat="41.89105100651704" lon="13.444318659256545"><ele>494.0</ele><time>2026-05-01T11:22:37Z</time></trkpt><trkpt lat="41.89116608523484" lon="13.444116880443104"><ele>494.0</ele><time>2026-05-01T11:22:38Z</time></trkpt><trkpt lat="41.89128090645452" lon="13.443893914487573"><ele>494.0</ele><time>2026-05-01T11:22:39Z</time></trkpt><trkpt lat="41.89140024502122" lon="13.443682371128844"><ele>494.0</ele><time>2026-05-01T11:22:40Z</time></trkpt><trkpt lat="41.89152630972153" lon="13.44348918510988"><ele>490.3333333333333</ele><time>2026-05-01T11:22:41Z</time></trkpt><trkpt lat="41.89165003784759" lon="13.44331908117973"><ele>486.66666666666663</ele><time>2026-05-01T11:22:42Z</time></trkpt><trkpt lat="41.891783746901936" lon="13.443150802223435"><ele>483.0</ele><time>2026-05-01T11:22:43Z</time></trkpt><trkpt lat="41.89192376197203" lon="13.442992735910417"><ele>482.33333333333337</ele><time>2026-05-01T11:22:44Z</time></trkpt><trkpt lat="41.89206060893668" lon="13.442852409647289"><ele>481.6666666666667</ele><time>2026-05-01T11:22:45Z</time></trkpt><trkpt lat="41.89220900941826" lon="13.4427273327569"><ele>481.0</ele><time>2026-05-01T11:22:46Z</time></trkpt><trkpt lat="41.89236696117304" lon="13.442634083532246"><ele>481.0</ele><time>2026-05-01T11:22:47Z</time></trkpt><trkpt lat="41.89254090656208" lon="13.442606094832536"><ele>481.0</ele><time>2026-05-01T11:22:48Z</time></trkpt><trkpt lat="41.89272767937352" lon="13.44256561560349"><ele>481.0</ele><time>2026-05-01T11:22:49Z</time></trkpt><trkpt lat="41.89292089948517" lon="13.44255415773114"><ele>482.0</ele><time>2026-05-01T11:22:50Z</time></trkpt><trkpt lat="41.893115069922814" lon="13.442557896762118"><ele>483.0</ele><time>2026-05-01T11:22:51Z</time></trkpt><trkpt lat="41.8933066799848" lon="13.44258589081137"><ele>484.0</ele><time>2026-05-01T11:22:52Z</time></trkpt><trkpt lat="41.893497790450134" lon="13.442633694551184"><ele>484.0</ele><time>2026-05-01T11:22:53Z</time></trkpt><trkpt lat="41.89368193005191" lon="13.44269587558768"><ele>484.0</ele><time>2026-05-01T11:22:54Z</time></trkpt><trkpt lat="41.89386692989975" lon="13.442733152713474"><ele>484.0</ele><time>2026-05-01T11:22:55Z</time></trkpt><trkpt lat="41.89405456960127" lon="13.44271905961997"><ele>484.0</ele><time>2026-05-01T11:22:56Z</time></trkpt><trkpt lat="41.894243209847914" lon="13.442641524871522"><ele>484.0</ele><time>2026-05-01T11:22:57Z</time></trkpt><trkpt lat="41.89443080818252" lon="13.44251875779407"><ele>484.0</ele><time>2026-05-01T11:22:58Z</time></trkpt><trkpt lat="41.89462819411744" lon="13.442387525281342"><ele>485.6666666666667</ele><time>2026-05-01T11:22:59Z</time></trkpt><trkpt lat="41.89484007752842" lon="13.442290854286712"><ele>487.33333333333337</ele><time>2026-05-01T11:23:00Z</time></trkpt><trkpt lat="41.89504771802797" lon="13.442175039611401"><ele>489.0</ele><time>2026-05-01T11:23:01Z</time></trkpt><trkpt lat="41.89524931289858" lon="13.44204572815604"><ele>489.0</ele><time>2026-05-01T11:23:02Z</time></trkpt><trkpt lat="41.895460984499316" lon="13.441941996431334"><ele>489.0</ele><time>2026-05-01T11:23:03Z</time></trkpt><trkpt lat="41.89567050999333" lon="13.441837642971088"><ele>489.0</ele><time>2026-05-01T11:23:04Z</time></trkpt><trkpt lat="41.895878664623694" lon="13.44173257580576"><ele>492.33333333333337</ele><time>2026-05-01T11:23:05Z</time></trkpt><trkpt lat="41.89608108001017" lon="13.44162890609771"><ele>495.6666666666667</ele><time>2026-05-01T11:23:06Z</time></trkpt><trkpt lat="41.89626690628022" lon="13.441536413667881"><ele>499.0</ele><time>2026-05-01T11:23:07Z</time></trkpt><trkpt lat="41.89642987593589" lon="13.441458143662192"><ele>499.0</ele><time>2026-05-01T11:23:08Z</time></trkpt><trkpt lat="41.89656683752404" lon="13.441389897621333"><ele>499.0</ele><time>2026-05-01T11:23:09Z</time></trkpt><trkpt lat="41.89667274490056" lon="13.441330643211534"><ele>499.0</ele><time>2026-05-01T11:23:10Z</time></trkpt><trkpt lat="41.89675242804345" lon="13.441278587014112"><ele>499.0</ele><time>2026-05-01T11:23:11Z</time></trkpt><trkpt lat="41.89681124719057" lon="13.44122497137079"><ele>499.0</ele><time>2026-05-01T11:23:12Z</time></trkpt><trkpt lat="41.89684889241646" lon="13.441138659701458"><ele>500.25</ele><time>2026-05-01T11:23:13Z</time></trkpt><trkpt lat="41.89685140197416" lon="13.441010184545851"><ele>501.5</ele><time>2026-05-01T11:23:14Z</time></trkpt><trkpt lat="41.896835628132834" lon="13.440856472994001"><ele>502.75</ele><time>2026-05-01T11:23:15Z</time></trkpt><trkpt lat="41.8968180763125" lon="13.440694750529238"><ele>504.0</ele><time>2026-05-01T11:23:16Z</time></trkpt><trkpt lat="41.89684323450485" lon="13.44052647692149"><ele>502.33333333333337</ele><time>2026-05-01T11:23:17Z</time></trkpt><trkpt lat="41.896939068276126" lon="13.440368866951363"><ele>500.6666666666667</ele><time>2026-05-01T11:23:18Z</time></trkpt><trkpt lat="41.8970253094417" lon="13.440187406856257"><ele>499.0</ele><time>2026-05-01T11:23:19Z</time></trkpt><trkpt lat="41.89712004112392" lon="13.44000113702585"><ele>499.0</ele><time>2026-05-01T11:23:20Z</time></trkpt><trkpt lat="41.89721710508361" lon="13.439807804780173"><ele>499.0</ele><time>2026-05-01T11:23:21Z</time></trkpt><trkpt lat="41.89731457181895" lon="13.439619205938458"><ele>499.0</ele><time>2026-05-01T11:23:22Z</time></trkpt><trkpt lat="41.897412425395345" lon="13.439452504099574"><ele>499.5</ele><time>2026-05-01T11:23:23Z</time></trkpt><trkpt lat="41.89751917955086" lon="13.439305424611657"><ele>500.0</ele><time>2026-05-01T11:23:24Z</time></trkpt><trkpt lat="41.89763372274346" lon="13.43919121161559"><ele>500.5</ele><time>2026-05-01T11:23:24.999Z</time></trkpt><trkpt lat="41.8977785984435" lon="13.439150923016356"><ele>501.0</ele><time>2026-05-01T11:23:25.999Z</time></trkpt><trkpt lat="41.897942105772366" lon="13.439143351899805"><ele>501.0</ele><time>2026-05-01T11:23:26.999Z</time></trkpt><trkpt lat="41.89812110447788" lon="13.439141927899145"><ele>501.0</ele><time>2026-05-01T11:23:27.999Z</time></trkpt><trkpt lat="41.898310313852825" lon="13.439147592338157"><ele>501.0</ele><time>2026-05-01T11:23:28.999Z</time></trkpt><trkpt lat="41.898497585260166" lon="13.439141364256747"><ele>502.66666666666663</ele><time>2026-05-01T11:23:29.999Z</time></trkpt><trkpt lat="41.89867719183115" lon="13.439137692421411"><ele>504.3333333333333</ele><time>2026-05-01T11:23:30.999Z</time></trkpt><trkpt lat="41.89885514093001" lon="13.439126017162543"><ele>506.0</ele><time>2026-05-01T11:23:31.999Z</time></trkpt><trkpt lat="41.89903914812294" lon="13.439093748360184"><ele>506.0</ele><time>2026-05-01T11:23:32.999Z</time></trkpt><trkpt lat="41.89922288635254" lon="13.43902414867515"><ele>506.0</ele><time>2026-05-01T11:23:33.999Z</time></trkpt><trkpt lat="41.89940367974276" lon="13.438912425216959"><ele>506.0</ele><time>2026-05-01T11:23:34.999Z</time></trkpt><trkpt lat="41.899582065322136" lon="13.43877779992651"><ele>505.0</ele><time>2026-05-01T11:23:35.999Z</time></trkpt><trkpt lat="41.89975267423656" lon="13.438637839453625"><ele>504.0</ele><time>2026-05-01T11:23:36.999Z</time></trkpt><trkpt lat="41.89991767520545" lon="13.43849024174992"><ele>503.0</ele><time>2026-05-01T11:23:37.999Z</time></trkpt><trkpt lat="41.90008400421528" lon="13.438335149065168"><ele>505.0</ele><time>2026-05-01T11:23:38.999Z</time></trkpt><trkpt lat="41.90025216555608" lon="13.438171357803643"><ele>507.0</ele><time>2026-05-01T11:23:39.999Z</time></trkpt><trkpt lat="41.90042222937657" lon="13.438003553591837"><ele>509.0</ele><time>2026-05-01T11:23:40.999Z</time></trkpt><trkpt lat="41.900589199116446" lon="13.437832975038022"><ele>509.0</ele><time>2026-05-01T11:23:41.999Z</time></trkpt><trkpt lat="41.90075212287303" lon="13.437665231896444"><ele>509.0</ele><time>2026-05-01T11:23:42.999Z</time></trkpt><trkpt lat="41.90090732269764" lon="13.43750689566144"><ele>509.0</ele><time>2026-05-01T11:23:43.999Z</time></trkpt><trkpt lat="41.9010502783146" lon="13.437363256324355"><ele>509.0</ele><time>2026-05-01T11:23:44.999Z</time></trkpt><trkpt lat="41.90118602054751" lon="13.437231931957006"><ele>509.0</ele><time>2026-05-01T11:23:45.999Z</time></trkpt><trkpt lat="41.901324240901374" lon="13.437115467794476"><ele>509.0</ele><time>2026-05-01T11:23:46.999Z</time></trkpt><trkpt lat="41.901456821142" lon="13.437031040102003"><ele>509.0</ele><time>2026-05-01T11:23:47.999Z</time></trkpt><trkpt lat="41.9015715660624" lon="13.436976189809174"><ele>509.0</ele><time>2026-05-01T11:23:48.999Z</time></trkpt><trkpt lat="41.90167848994702" lon="13.436900748771523"><ele>509.0</ele><time>2026-05-01T11:23:49.999Z</time></trkpt><trkpt lat="41.901760956910465" lon="13.436777211740754"><ele>509.0</ele><time>2026-05-01T11:23:50.999Z</time></trkpt><trkpt lat="41.90179831632028" lon="13.436615766580355"><ele>507.5</ele><time>2026-05-01T11:23:51.999Z</time></trkpt><trkpt lat="41.90177624105229" lon="13.436433782607375"><ele>506.0</ele><time>2026-05-01T11:23:52.999Z</time></trkpt><trkpt lat="41.901717026209944" lon="13.436274360145"><ele>504.5</ele><time>2026-05-01T11:23:53.999Z</time></trkpt><trkpt lat="41.90169528524917" lon="13.436137816956409"><ele>503.0</ele><time>2026-05-01T11:23:54.999Z</time></trkpt><trkpt lat="41.90172839644949" lon="13.435991769067513"><ele>506.75</ele><time>2026-05-01T11:23:55.999Z</time></trkpt><trkpt lat="41.90183062027071" lon="13.435874662731235"><ele>510.5</ele><time>2026-05-01T11:23:56.999Z</time></trkpt><trkpt lat="41.90192779160113" lon="13.435717880995055"><ele>514.25</ele><time>2026-05-01T11:23:57.999Z</time></trkpt><trkpt lat="41.90203834685987" lon="13.435559618571094"><ele>518.0</ele><time>2026-05-01T11:23:58.999Z</time></trkpt><trkpt lat="41.90212928198205" lon="13.435381355367817"><ele>518.0</ele><time>2026-05-01T11:23:59.999Z</time></trkpt><trkpt lat="41.90219052840279" lon="13.435169313842595"><ele>518.0</ele><time>2026-05-01T11:24:00.999Z</time></trkpt><trkpt lat="41.90221322473858" lon="13.434920127201831"><ele>518.0</ele><time>2026-05-01T11:24:01.999Z</time></trkpt><trkpt lat="41.90222525502461" lon="13.434682946411446"><ele>516.3333333333333</ele><time>2026-05-01T11:24:02.999Z</time></trkpt><trkpt lat="41.90221926369906" lon="13.434475529828966"><ele>514.6666666666666</ele><time>2026-05-01T11:24:03.999Z</time></trkpt><trkpt lat="41.902243916991836" lon="13.434269879315055"><ele>513.0</ele><time>2026-05-01T11:24:04.999Z</time></trkpt><trkpt lat="41.90230665873762" lon="13.434075399898468"><ele>513.0</ele><time>2026-05-01T11:24:05.999Z</time></trkpt><trkpt lat="41.902408714094854" lon="13.433915000144353"><ele>513.0</ele><time>2026-05-01T11:24:06.999Z</time></trkpt><trkpt lat="41.902543904737776" lon="13.433797079778248"><ele>513.0</ele><time>2026-05-01T11:24:07.999Z</time></trkpt><trkpt lat="41.902707647197005" lon="13.4337423059429"><ele>512.0</ele><time>2026-05-01T11:24:08.999Z</time></trkpt><trkpt lat="41.90287747097572" lon="13.433686966745462"><ele>511.0</ele><time>2026-05-01T11:24:09.999Z</time></trkpt><trkpt lat="41.90304457764919" lon="13.43358712412339"><ele>510.0</ele><time>2026-05-01T11:24:10.999Z</time></trkpt><trkpt lat="41.90321297931251" lon="13.433433725321285"><ele>510.0</ele><time>2026-05-01T11:24:11.999Z</time></trkpt><trkpt lat="41.90338135490722" lon="13.43326591607922"><ele>510.0</ele><time>2026-05-01T11:24:12.999Z</time></trkpt><trkpt lat="41.903532554896934" lon="13.433115133836372"><ele>510.0</ele><time>2026-05-01T11:24:13.999Z</time></trkpt><trkpt lat="41.90366942246662" lon="13.432973293332013"><ele>508.33333333333337</ele><time>2026-05-01T11:24:14.999Z</time></trkpt><trkpt lat="41.90380899660309" lon="13.43284206574187"><ele>506.6666666666667</ele><time>2026-05-01T11:24:15.999Z</time></trkpt><trkpt lat="41.903956820899225" lon="13.432760773907908"><ele>505.0</ele><time>2026-05-01T11:24:16.999Z</time></trkpt><trkpt lat="41.90408933831692" lon="13.432716683384069"><ele>505.0</ele><time>2026-05-01T11:24:17.999Z</time></trkpt><trkpt lat="41.904202942591915" lon="13.432724563514881"><ele>505.0</ele><time>2026-05-01T11:24:18.999Z</time></trkpt><trkpt lat="41.90430601338947" lon="13.432773485167212"><ele>505.0</ele><time>2026-05-01T11:24:19.999Z</time></trkpt><trkpt lat="41.9044258816521" lon="13.432839202992277"><ele>505.0</ele><time>2026-05-01T11:24:20.999Z</time></trkpt><trkpt lat="41.90456405120833" lon="13.432889554742111"><ele>505.33333333333337</ele><time>2026-05-01T11:24:21.999Z</time></trkpt><trkpt lat="41.904717252497335" lon="13.432898858471614"><ele>505.66666666666663</ele><time>2026-05-01T11:24:22.999Z</time></trkpt><trkpt lat="41.90489649901652" lon="13.432857324829005"><ele>506.0</ele><time>2026-05-01T11:24:23.999Z</time></trkpt><trkpt lat="41.90507729156386" lon="13.432789497898197"><ele>509.5</ele><time>2026-05-01T11:24:24.999Z</time></trkpt><trkpt lat="41.90528325078358" lon="13.432715676679774"><ele>513.0</ele><time>2026-05-01T11:24:25.999Z</time></trkpt><trkpt lat="41.905513218567" lon="13.432630388838792"><ele>513.0</ele><time>2026-05-01T11:24:26.999Z</time></trkpt><trkpt lat="41.905743047314296" lon="13.43254710657239"><ele>513.0</ele><time>2026-05-01T11:24:27.999Z</time></trkpt><trkpt lat="41.90598512345866" lon="13.432456036871864"><ele>518.5</ele><time>2026-05-01T11:24:28.999Z</time></trkpt><trkpt lat="41.906229212365226" lon="13.432359963119444"><ele>524.0</ele><time>2026-05-01T11:24:29.999Z</time></trkpt><trkpt lat="41.90644559389038" lon="13.432282401076188"><ele>524.0</ele><time>2026-05-01T11:24:30.999Z</time></trkpt><trkpt lat="41.90665263245341" lon="13.432195557001391"><ele>524.0</ele><time>2026-05-01T11:24:31.999Z</time></trkpt><trkpt lat="41.9068605288458" lon="13.4320970065157"><ele>524.0</ele><time>2026-05-01T11:24:32.999Z</time></trkpt><trkpt lat="41.907054371766684" lon="13.431985097256087"><ele>522.0</ele><time>2026-05-01T11:24:33.999Z</time></trkpt><trkpt lat="41.907230852851974" lon="13.43183068313383"><ele>520.0</ele><time>2026-05-01T11:24:34.999Z</time></trkpt><trkpt lat="41.907385105261554" lon="13.431627933180577"><ele>518.0</ele><time>2026-05-01T11:24:35.999Z</time></trkpt><trkpt lat="41.90750152363919" lon="13.43139550638628"><ele>517.6666666666666</ele><time>2026-05-01T11:24:36.999Z</time></trkpt><trkpt lat="41.90761755321994" lon="13.431202751252139"><ele>517.3333333333334</ele><time>2026-05-01T11:24:37.999Z</time></trkpt><trkpt lat="41.90776205547539" lon="13.431058949320207"><ele>517.0</ele><time>2026-05-01T11:24:38.998Z</time></trkpt><trkpt lat="41.9079304013021" lon="13.43093848584085"><ele>517.0</ele><time>2026-05-01T11:24:39.998Z</time></trkpt><trkpt lat="41.908092398268394" lon="13.430818119894036"><ele>517.0</ele><time>2026-05-01T11:24:41Z</time></trkpt><trkpt lat="41.90824150246005" lon="13.43066877194956"><ele>517.0</ele><time>2026-05-01T11:24:42Z</time></trkpt><trkpt lat="41.908372485983854" lon="13.430462473579935"><ele>521.0</ele><time>2026-05-01T11:24:43Z</time></trkpt><trkpt lat="41.90848827061406" lon="13.430220578279215"><ele>525.0</ele><time>2026-05-01T11:24:44Z</time></trkpt><trkpt lat="41.90858909705337" lon="13.429962137528396"><ele>529.0</ele><time>2026-05-01T11:24:45Z</time></trkpt><trkpt lat="41.90868163702735" lon="13.429697118663078"><ele>526.0</ele><time>2026-05-01T11:24:46Z</time></trkpt><trkpt lat="41.90876117692146" lon="13.429444000478618"><ele>523.0</ele><time>2026-05-01T11:24:47Z</time></trkpt><trkpt lat="41.90882716575469" lon="13.429212791854091"><ele>520.0</ele><time>2026-05-01T11:24:48Z</time></trkpt><trkpt lat="41.90889139765618" lon="13.429002681581268"><ele>520.0</ele><time>2026-05-01T11:24:49Z</time></trkpt><trkpt lat="41.90897091345478" lon="13.428816331424475"><ele>520.0</ele><time>2026-05-01T11:24:50Z</time></trkpt><trkpt lat="41.909075610896174" lon="13.428648630945547"><ele>520.0</ele><time>2026-05-01T11:24:51Z</time></trkpt><trkpt lat="41.90920613873353" lon="13.428522503427734"><ele>518.0</ele><time>2026-05-01T11:24:52Z</time></trkpt><trkpt lat="41.909359094545806" lon="13.428443755214493"><ele>516.0</ele><time>2026-05-01T11:24:53Z</time></trkpt><trkpt lat="41.909538667491276" lon="13.42840081865564"><ele>514.0</ele><time>2026-05-01T11:24:54Z</time></trkpt><trkpt lat="41.90971839795276" lon="13.428390115755253"><ele>514.0</ele><time>2026-05-01T11:24:55Z</time></trkpt><trkpt lat="41.909898470685974" lon="13.428404777653075"><ele>514.0</ele><time>2026-05-01T11:24:56Z</time></trkpt><trkpt lat="41.91008438151255" lon="13.428448199304823"><ele>514.0</ele><time>2026-05-01T11:24:57Z</time></trkpt><trkpt lat="41.91027430823842" lon="13.428520102189617"><ele>515.3333333333334</ele><time>2026-05-01T11:24:58Z</time></trkpt><trkpt lat="41.91046203401486" lon="13.428599244303529"><ele>516.6666666666666</ele><time>2026-05-01T11:24:59Z</time></trkpt><trkpt lat="41.91064403029861" lon="13.428682847829835"><ele>518.0</ele><time>2026-05-01T11:25:00Z</time></trkpt><trkpt lat="41.9108224808753" lon="13.428764662056727"><ele>518.0</ele><time>2026-05-01T11:25:01Z</time></trkpt><trkpt lat="41.91100092388806" lon="13.42882206091423"><ele>518.0</ele><time>2026-05-01T11:25:02Z</time></trkpt><trkpt lat="41.911175495432474" lon="13.428835529472549"><ele>518.0</ele><time>2026-05-01T11:25:03Z</time></trkpt><trkpt lat="41.91133385655566" lon="13.42880930013323"><ele>518.0</ele><time>2026-05-01T11:25:04Z</time></trkpt><trkpt lat="41.91149380489947" lon="13.428760157904378"><ele>518.0</ele><time>2026-05-01T11:25:05Z</time></trkpt><trkpt lat="41.91165948047964" lon="13.428689849961202"><ele>518.0</ele><time>2026-05-01T11:25:06Z</time></trkpt><trkpt lat="41.91181742899951" lon="13.428608749034037"><ele>520.3333333333333</ele><time>2026-05-01T11:25:07Z</time></trkpt><trkpt lat="41.911969626480165" lon="13.42851076361588"><ele>522.6666666666666</ele><time>2026-05-01T11:25:08Z</time></trkpt><trkpt lat="41.91211558104105" lon="13.428397531865237"><ele>525.0</ele><time>2026-05-01T11:25:09Z</time></trkpt><trkpt lat="41.9122674443363" lon="13.428290117925883"><ele>525.0</ele><time>2026-05-01T11:25:10Z</time></trkpt><trkpt lat="41.91240392520849" lon="13.428159760382457"><ele>525.0</ele><time>2026-05-01T11:25:11Z</time></trkpt><trkpt lat="41.91254225958906" lon="13.428031828656218"><ele>525.0</ele><time>2026-05-01T11:25:12Z</time></trkpt><trkpt lat="41.9126824688225" lon="13.427910688919097"><ele>524.0</ele><time>2026-05-01T11:25:13Z</time></trkpt><trkpt lat="41.91282656793662" lon="13.427808264276294"><ele>523.0</ele><time>2026-05-01T11:25:14Z</time></trkpt><trkpt lat="41.91297054619816" lon="13.427730877365763"><ele>522.0</ele><time>2026-05-01T11:25:15Z</time></trkpt><trkpt lat="41.91312209665025" lon="13.427669748698294"><ele>522.0</ele><time>2026-05-01T11:25:16Z</time></trkpt><trkpt lat="41.91326982460459" lon="13.427619775080615"><ele>522.0</ele><time>2026-05-01T11:25:17Z</time></trkpt><trkpt lat="41.91340698785255" lon="13.427576885983807"><ele>522.0</ele><time>2026-05-01T11:25:18Z</time></trkpt><trkpt lat="41.91353618513127" lon="13.42753648774331"><ele>522.0</ele><time>2026-05-01T11:25:19Z</time></trkpt><trkpt lat="41.91365725709461" lon="13.427498630123987"><ele>522.5</ele><time>2026-05-01T11:25:20Z</time></trkpt><trkpt lat="41.91377670422846" lon="13.427440072777879"><ele>523.0</ele><time>2026-05-01T11:25:21Z</time></trkpt><trkpt lat="41.91390588515628" lon="13.427400696438745"><ele>523.5</ele><time>2026-05-01T11:25:22Z</time></trkpt><trkpt lat="41.914038759241414" lon="13.427379406250736"><ele>524.0</ele><time>2026-05-01T11:25:23Z</time></trkpt><trkpt lat="41.91416765918702" lon="13.427318121543"><ele>523.75</ele><time>2026-05-01T11:25:24Z</time></trkpt><trkpt lat="41.91430880910885" lon="13.427273472816184"><ele>523.5</ele><time>2026-05-01T11:25:25Z</time></trkpt><trkpt lat="41.914454145093394" lon="13.427230174445548"><ele>523.25</ele><time>2026-05-01T11:25:26Z</time></trkpt><trkpt lat="41.91459749676745" lon="13.427187560743409"><ele>523.0</ele><time>2026-05-01T11:25:27Z</time></trkpt><trkpt lat="41.91472970957951" lon="13.427138775159598"><ele>523.0</ele><time>2026-05-01T11:25:28Z</time></trkpt><trkpt lat="41.91486487983344" lon="13.427086964014146"><ele>523.0</ele><time>2026-05-01T11:25:29Z</time></trkpt><trkpt lat="41.91500463079409" lon="13.427038666962567"><ele>523.0</ele><time>2026-05-01T11:25:30Z</time></trkpt><trkpt lat="41.91513879187679" lon="13.42697073937827"><ele>523.0</ele><time>2026-05-01T11:25:31Z</time></trkpt><trkpt lat="41.91528010468278" lon="13.426939003524405"><ele>524.0</ele><time>2026-05-01T11:25:32Z</time></trkpt><trkpt lat="41.91540196971493" lon="13.426871193754073"><ele>525.0</ele><time>2026-05-01T11:25:33Z</time></trkpt><trkpt lat="41.91551399819399" lon="13.426808957703516"><ele>526.0</ele><time>2026-05-01T11:25:34Z</time></trkpt><trkpt lat="41.915624856783076" lon="13.426754172227701"><ele>527.0</ele><time>2026-05-01T11:25:34.999Z</time></trkpt><trkpt lat="41.91573455516491" lon="13.42671869199881"><ele>527.0</ele><time>2026-05-01T11:25:35.999Z</time></trkpt><trkpt lat="41.915856028645905" lon="13.426713231257121"><ele>527.0</ele><time>2026-05-01T11:25:36.999Z</time></trkpt><trkpt lat="41.91598673016861" lon="13.42677180073708"><ele>527.0</ele><time>2026-05-01T11:25:37.999Z</time></trkpt><trkpt lat="41.91612354883532" lon="13.426843653454583"><ele>527.0</ele><time>2026-05-01T11:25:38.999Z</time></trkpt><trkpt lat="41.91626664786801" lon="13.426926456664045"><ele>526.6666666666666</ele><time>2026-05-01T11:25:39.999Z</time></trkpt><trkpt lat="41.91641134156773" lon="13.42700970222541"><ele>526.3333333333334</ele><time>2026-05-01T11:25:40.999Z</time></trkpt><trkpt lat="41.916554809232835" lon="13.427087618258087"><ele>526.0</ele><time>2026-05-01T11:25:41.999Z</time></trkpt><trkpt lat="41.91670368342169" lon="13.427161748082002"><ele>524.6666666666667</ele><time>2026-05-01T11:25:42.999Z</time></trkpt><trkpt lat="41.91685623320146" lon="13.427207197100183"><ele>523.3333333333334</ele><time>2026-05-01T11:25:43.999Z</time></trkpt><trkpt lat="41.917017052208486" lon="13.427197627011331"><ele>522.0</ele><time>2026-05-01T11:25:44.999Z</time></trkpt><trkpt lat="41.91718783299522" lon="13.427134908165758"><ele>522.0</ele><time>2026-05-01T11:25:45.999Z</time></trkpt><trkpt lat="41.91735659813553" lon="13.427056133235219"><ele>522.0</ele><time>2026-05-01T11:25:46.999Z</time></trkpt><trkpt lat="41.91752661834432" lon="13.427005869813739"><ele>522.0</ele><time>2026-05-01T11:25:47.999Z</time></trkpt><trkpt lat="41.91770810441877" lon="13.426989895473332"><ele>523.0</ele><time>2026-05-01T11:25:48.999Z</time></trkpt><trkpt lat="41.917901304647756" lon="13.426996683906266"><ele>524.0</ele><time>2026-05-01T11:25:49.999Z</time></trkpt><trkpt lat="41.91809369463277" lon="13.427007318254566"><ele>525.0</ele><time>2026-05-01T11:25:50.999Z</time></trkpt><trkpt lat="41.91828585348865" lon="13.427022275944475"><ele>525.3333333333334</ele><time>2026-05-01T11:25:51.999Z</time></trkpt><trkpt lat="41.91847666684553" lon="13.427034935061455"><ele>525.6666666666667</ele><time>2026-05-01T11:25:52.999Z</time></trkpt><trkpt lat="41.91866426852009" lon="13.427033706588002"><ele>526.0</ele><time>2026-05-01T11:25:53.999Z</time></trkpt><trkpt lat="41.91884381206013" lon="13.427016263477674"><ele>526.0</ele><time>2026-05-01T11:25:54.999Z</time></trkpt><trkpt lat="41.91902404563109" lon="13.426974763627086"><ele>526.0</ele><time>2026-05-01T11:25:55.999Z</time></trkpt><trkpt lat="41.91920413761198" lon="13.426897831153793"><ele>526.0</ele><time>2026-05-01T11:25:56.999Z</time></trkpt><trkpt lat="41.91937128512868" lon="13.426781828799585"><ele>528.6666666666667</ele><time>2026-05-01T11:25:57.999Z</time></trkpt><trkpt lat="41.919529908841426" lon="13.426659333870314"><ele>531.3333333333334</ele><time>2026-05-01T11:25:58.999Z</time></trkpt><trkpt lat="41.91970089999129" lon="13.426574259753663"><ele>534.0</ele><time>2026-05-01T11:25:59.999Z</time></trkpt><trkpt lat="41.91988932489182" lon="13.42653654727703"><ele>535.6666666666666</ele><time>2026-05-01T11:26:00.999Z</time></trkpt><trkpt lat="41.92008996662709" lon="13.426525260555971"><ele>537.3333333333333</ele><time>2026-05-01T11:26:01.999Z</time></trkpt><trkpt lat="41.920296438692404" lon="13.42650635617776"><ele>539.0</ele><time>2026-05-01T11:26:02.999Z</time></trkpt><trkpt lat="41.92049750687819" lon="13.426486230192003"><ele>539.0</ele><time>2026-05-01T11:26:03.999Z</time></trkpt><trkpt lat="41.92069679820743" lon="13.42645201748717"><ele>539.0</ele><time>2026-05-01T11:26:04.999Z</time></trkpt><trkpt lat="41.9208965003774" lon="13.426388441150113"><ele>539.0</ele><time>2026-05-01T11:26:05.999Z</time></trkpt><trkpt lat="41.92109479497529" lon="13.426296822329464"><ele>538.6666666666666</ele><time>2026-05-01T11:26:06.999Z</time></trkpt><trkpt lat="41.92128734439529" lon="13.426189915222224"><ele>538.3333333333334</ele><time>2026-05-01T11:26:07.999Z</time></trkpt><trkpt lat="41.92147216149359" lon="13.426058754128537"><ele>538.0</ele><time>2026-05-01T11:26:08.999Z</time></trkpt><trkpt lat="41.92164381746871" lon="13.425885144524653"><ele>537.3333333333334</ele><time>2026-05-01T11:26:09.999Z</time></trkpt><trkpt lat="41.921792104336916" lon="13.425680407073651"><ele>536.6666666666666</ele><time>2026-05-01T11:26:10.999Z</time></trkpt><trkpt lat="41.921940430785206" lon="13.425480198060438"><ele>536.0</ele><time>2026-05-01T11:26:11.999Z</time></trkpt><trkpt lat="41.92211088893119" lon="13.425298617731578"><ele>536.0</ele><time>2026-05-01T11:26:12.999Z</time></trkpt><trkpt lat="41.9222950116475" lon="13.425139726694573"><ele>536.0</ele><time>2026-05-01T11:26:13.999Z</time></trkpt><trkpt lat="41.92247824301031" lon="13.424995681298814"><ele>536.0</ele><time>2026-05-01T11:26:14.999Z</time></trkpt><trkpt lat="41.92266942337883" lon="13.424869050946436"><ele>539.5</ele><time>2026-05-01T11:26:15.999Z</time></trkpt><trkpt lat="41.92287707717196" lon="13.42476900310737"><ele>543.0</ele><time>2026-05-01T11:26:16.999Z</time></trkpt><trkpt lat="41.92309870825706" lon="13.424689647131101"><ele>539.5</ele><time>2026-05-01T11:26:17.999Z</time></trkpt><trkpt lat="41.92332212389627" lon="13.424611495148257"><ele>536.0</ele><time>2026-05-01T11:26:18.999Z</time></trkpt><trkpt lat="41.92353806193279" lon="13.424532355890014"><ele>536.0</ele><time>2026-05-01T11:26:19.999Z</time></trkpt><trkpt lat="41.92374043624552" lon="13.424455690518377"><ele>536.0</ele><time>2026-05-01T11:26:20.999Z</time></trkpt><trkpt lat="41.923942632600976" lon="13.424380322901069"><ele>536.0</ele><time>2026-05-01T11:26:21.999Z</time></trkpt><trkpt lat="41.92415639393765" lon="13.424309223488772"><ele>538.0</ele><time>2026-05-01T11:26:22.999Z</time></trkpt><trkpt lat="41.92437794672774" lon="13.424251153860295"><ele>540.0</ele><time>2026-05-01T11:26:23.999Z</time></trkpt><trkpt lat="41.9246160423083" lon="13.424234343209875"><ele>540.0</ele><time>2026-05-01T11:26:24.999Z</time></trkpt><trkpt lat="41.92486105178502" lon="13.424199866041429"><ele>540.0</ele><time>2026-05-01T11:26:25.999Z</time></trkpt><trkpt lat="41.92510614276611" lon="13.424197810461695"><ele>542.0</ele><time>2026-05-01T11:26:26.999Z</time></trkpt><trkpt lat="41.925357008742544" lon="13.424187541674627"><ele>544.0</ele><time>2026-05-01T11:26:27.999Z</time></trkpt><trkpt lat="41.92561450047255" lon="13.424169218601554"><ele>544.0</ele><time>2026-05-01T11:26:28.999Z</time></trkpt><trkpt lat="41.92587307733377" lon="13.424142915582083"><ele>544.0</ele><time>2026-05-01T11:26:29.999Z</time></trkpt><trkpt lat="41.92613238052446" lon="13.424107286046732"><ele>548.0</ele><time>2026-05-01T11:26:30.999Z</time></trkpt><trkpt lat="41.926396249447954" lon="13.42406047368309"><ele>552.0</ele><time>2026-05-01T11:26:31.999Z</time></trkpt><trkpt lat="41.926657776359214" lon="13.423994665707038"><ele>557.5</ele><time>2026-05-01T11:26:32.999Z</time></trkpt><trkpt lat="41.92691876050937" lon="13.423919924554786"><ele>563.0</ele><time>2026-05-01T11:26:33.999Z</time></trkpt><trkpt lat="41.9271774147632" lon="13.423845016735912"><ele>553.0</ele><time>2026-05-01T11:26:34.999Z</time></trkpt><trkpt lat="41.9274388906419" lon="13.423775169932622"><ele>543.0</ele><time>2026-05-01T11:26:35.999Z</time></trkpt><trkpt lat="41.927699040671946" lon="13.423708668506627"><ele>543.0</ele><time>2026-05-01T11:26:36.999Z</time></trkpt><trkpt lat="41.92796122970529" lon="13.423639725516525"><ele>543.0</ele><time>2026-05-01T11:26:37.999Z</time></trkpt><trkpt lat="41.9282202209233" lon="13.423567600079387"><ele>544.0</ele><time>2026-05-01T11:26:38.999Z</time></trkpt><trkpt lat="41.92848389076521" lon="13.423489239107724"><ele>545.0</ele><time>2026-05-01T11:26:39.999Z</time></trkpt><trkpt lat="41.928746704174515" lon="13.423416034986364"><ele>545.0</ele><time>2026-05-01T11:26:40.999Z</time></trkpt><trkpt lat="41.9290117717795" lon="13.423344846294722"><ele>545.0</ele><time>2026-05-01T11:26:41.999Z</time></trkpt><trkpt lat="41.929277399850235" lon="13.423272717780232"><ele>545.0</ele><time>2026-05-01T11:26:42.999Z</time></trkpt><trkpt lat="41.92954528522762" lon="13.423204396079523"><ele>545.0</ele><time>2026-05-01T11:26:43.999Z</time></trkpt><trkpt lat="41.92981356778481" lon="13.423135480721712"><ele>550.5</ele><time>2026-05-01T11:26:44.999Z</time></trkpt><trkpt lat="41.9300795353945" lon="13.423067991876957"><ele>556.0</ele><time>2026-05-01T11:26:45.999Z</time></trkpt><trkpt lat="41.930344367084274" lon="13.422998299886384"><ele>548.5</ele><time>2026-05-01T11:26:47Z</time></trkpt><trkpt lat="41.930607437304076" lon="13.422925494930922"><ele>541.0</ele><time>2026-05-01T11:26:48Z</time></trkpt><trkpt lat="41.93087090358622" lon="13.422851099214977"><ele>544.0</ele><time>2026-05-01T11:26:49Z</time></trkpt><trkpt lat="41.93113556049926" lon="13.422781595221005"><ele>547.0</ele><time>2026-05-01T11:26:50Z</time></trkpt><trkpt lat="41.931399882069236" lon="13.422713416999994"><ele>547.0</ele><time>2026-05-01T11:26:51Z</time></trkpt><trkpt lat="41.931657754497806" lon="13.422641893607498"><ele>547.0</ele><time>2026-05-01T11:26:52Z</time></trkpt><trkpt lat="41.931907371850365" lon="13.42256660348132"><ele>552.0</ele><time>2026-05-01T11:26:53Z</time></trkpt><trkpt lat="41.93215046876535" lon="13.422476349264784"><ele>557.0</ele><time>2026-05-01T11:26:54Z</time></trkpt><trkpt lat="41.932393418172715" lon="13.422357721774567"><ele>556.5</ele><time>2026-05-01T11:26:55Z</time></trkpt><trkpt lat="41.93263567426032" lon="13.422222512577846"><ele>556.0</ele><time>2026-05-01T11:26:56Z</time></trkpt><trkpt lat="41.932870598910505" lon="13.422063519684848"><ele>556.0</ele><time>2026-05-01T11:26:57Z</time></trkpt><trkpt lat="41.93310143428109" lon="13.421889696123904"><ele>556.0</ele><time>2026-05-01T11:26:58Z</time></trkpt><trkpt lat="41.93333012593256" lon="13.421714921475033"><ele>562.0</ele><time>2026-05-01T11:26:59Z</time></trkpt><trkpt lat="41.93357195578481" lon="13.421569426656761"><ele>568.0</ele><time>2026-05-01T11:27:00Z</time></trkpt><trkpt lat="41.93381188378898" lon="13.42140289060047"><ele>567.5</ele><time>2026-05-01T11:27:01Z</time></trkpt><trkpt lat="41.93406607093671" lon="13.421225479866472"><ele>567.0</ele><time>2026-05-01T11:27:02Z</time></trkpt><trkpt lat="41.93432388199038" lon="13.421045539754365"><ele>567.0</ele><time>2026-05-01T11:27:03Z</time></trkpt><trkpt lat="41.93456148968566" lon="13.420864130946294"><ele>567.0</ele><time>2026-05-01T11:27:04Z</time></trkpt><trkpt lat="41.9347953044595" lon="13.420725305609647"><ele>567.0</ele><time>2026-05-01T11:27:05Z</time></trkpt><trkpt lat="41.93502463058357" lon="13.420585741225773"><ele>567.0</ele><time>2026-05-01T11:27:06Z</time></trkpt><trkpt lat="41.93525957804765" lon="13.420453499444383"><ele>565.0</ele><time>2026-05-01T11:27:07Z</time></trkpt><trkpt lat="41.93550337595161" lon="13.42033390919954"><ele>563.0</ele><time>2026-05-01T11:27:08Z</time></trkpt><trkpt lat="41.93574626075952" lon="13.420219467459715"><ele>570.0</ele><time>2026-05-01T11:27:09Z</time></trkpt><trkpt lat="41.93599189648898" lon="13.420105893663965"><ele>577.0</ele><time>2026-05-01T11:27:10Z</time></trkpt><trkpt lat="41.93623937992411" lon="13.419991813345993"><ele>577.0</ele><time>2026-05-01T11:27:11Z</time></trkpt><trkpt lat="41.93649194131909" lon="13.419882815980735"><ele>577.0</ele><time>2026-05-01T11:27:12Z</time></trkpt><trkpt lat="41.936746141689476" lon="13.419778584611265"><ele>574.5</ele><time>2026-05-01T11:27:13Z</time></trkpt><trkpt lat="41.93700904158616" lon="13.419675842904102"><ele>572.0</ele><time>2026-05-01T11:27:14Z</time></trkpt><trkpt lat="41.9372765031957" lon="13.419572896662084"><ele>572.0</ele><time>2026-05-01T11:27:15Z</time></trkpt><trkpt lat="41.937544668601475" lon="13.41946596148902"><ele>572.0</ele><time>2026-05-01T11:27:16Z</time></trkpt><trkpt lat="41.93781347972162" lon="13.419357492127647"><ele>576.5</ele><time>2026-05-01T11:27:17Z</time></trkpt><trkpt lat="41.93808399123852" lon="13.419244470327353"><ele>581.0</ele><time>2026-05-01T11:27:18Z</time></trkpt><trkpt lat="41.938352270314795" lon="13.41913054602582"><ele>589.0</ele><time>2026-05-01T11:27:19Z</time></trkpt><trkpt lat="41.93860966535349" lon="13.419026950171007"><ele>597.0</ele><time>2026-05-01T11:27:20Z</time></trkpt><trkpt lat="41.93885703990001" lon="13.418920143684687"><ele>597.0</ele><time>2026-05-01T11:27:21Z</time></trkpt><trkpt lat="41.939102608389625" lon="13.41882458586523"><ele>597.0</ele><time>2026-05-01T11:27:22Z</time></trkpt><trkpt lat="41.93932611424782" lon="13.418749001359338"><ele>591.3333333333334</ele><time>2026-05-01T11:27:23Z</time></trkpt><trkpt lat="41.93953122740358" lon="13.41870132662284"><ele>585.6666666666667</ele><time>2026-05-01T11:27:24Z</time></trkpt><trkpt lat="41.939737313862864" lon="13.418676670506743"><ele>580.0</ele><time>2026-05-01T11:27:25Z</time></trkpt><trkpt lat="41.93994519247234" lon="13.418671118579182"><ele>582.0</ele><time>2026-05-01T11:27:26Z</time></trkpt><trkpt lat="41.940151071130714" lon="13.418692210578918"><ele>584.0</ele><time>2026-05-01T11:27:27Z</time></trkpt><trkpt lat="41.94035177911916" lon="13.418726866320661"><ele>586.0</ele><time>2026-05-01T11:27:28Z</time></trkpt><trkpt lat="41.94053539840959" lon="13.41875817974435"><ele>586.0</ele><time>2026-05-01T11:27:29Z</time></trkpt><trkpt lat="41.94071905006779" lon="13.418779326522358"><ele>586.0</ele><time>2026-05-01T11:27:30Z</time></trkpt><trkpt lat="41.940904879667535" lon="13.418804276372583"><ele>586.0</ele><time>2026-05-01T11:27:31Z</time></trkpt><trkpt lat="41.941074765875136" lon="13.418823856077283"><ele>588.25</ele><time>2026-05-01T11:27:32Z</time></trkpt><trkpt lat="41.94122287141809" lon="13.418851186046941"><ele>590.5</ele><time>2026-05-01T11:27:33Z</time></trkpt><trkpt lat="41.94134653926722" lon="13.41889378320354"><ele>592.75</ele><time>2026-05-01T11:27:34Z</time></trkpt><trkpt lat="41.941437683488395" lon="13.418977638129059"><ele>595.0</ele><time>2026-05-01T11:27:35Z</time></trkpt><trkpt lat="41.941481676831955" lon="13.419108344632225"><ele>595.0</ele><time>2026-05-01T11:27:36Z</time></trkpt><trkpt lat="41.94149515321313" lon="13.419278947540485"><ele>595.0</ele><time>2026-05-01T11:27:37Z</time></trkpt><trkpt lat="41.941502898766295" lon="13.419469287518362"><ele>595.0</ele><time>2026-05-01T11:27:38Z</time></trkpt><trkpt lat="41.94152471975347" lon="13.41964747286661"><ele>595.0</ele><time>2026-05-01T11:27:39Z</time></trkpt><trkpt lat="41.94158377921406" lon="13.419778612332411"><ele>598.25</ele><time>2026-05-01T11:27:39.999Z</time></trkpt><trkpt lat="41.94169278265455" lon="13.419843601026352"><ele>601.5</ele><time>2026-05-01T11:27:40.999Z</time></trkpt><trkpt lat="41.941822392359256" lon="13.419822472104697"><ele>604.75</ele><time>2026-05-01T11:27:41.999Z</time></trkpt><trkpt lat="41.9419372604776" lon="13.419724986308383"><ele>608.0</ele><time>2026-05-01T11:27:42.999Z</time></trkpt><trkpt lat="41.94203377526663" lon="13.419557292797013"><ele>608.0</ele><time>2026-05-01T11:27:43.999Z</time></trkpt><trkpt lat="41.94211374176766" lon="13.419344976933914"><ele>608.0</ele><time>2026-05-01T11:27:44.999Z</time></trkpt><trkpt lat="41.942212336468195" lon="13.419138227134113"><ele>608.0</ele><time>2026-05-01T11:27:45.999Z</time></trkpt><trkpt lat="41.94231890052515" lon="13.418942936858429"><ele>611.6666666666666</ele><time>2026-05-01T11:27:46.999Z</time></trkpt><trkpt lat="41.94245393176406" lon="13.418720039880203"><ele>615.3333333333334</ele><time>2026-05-01T11:27:47.999Z</time></trkpt><trkpt lat="41.94259142448352" lon="13.418505031987465"><ele>619.0</ele><time>2026-05-01T11:27:48.999Z</time></trkpt><trkpt lat="41.94271038945094" lon="13.418267762756813"><ele>619.0</ele><time>2026-05-01T11:27:49.999Z</time></trkpt><trkpt lat="41.94279954319173" lon="13.418000771390599"><ele>619.0</ele><time>2026-05-01T11:27:50.999Z</time></trkpt><trkpt lat="41.94286175885742" lon="13.417764004437092"><ele>619.0</ele><time>2026-05-01T11:27:51.999Z</time></trkpt><trkpt lat="41.94293074475141" lon="13.417561634222018"><ele>616.6666666666667</ele><time>2026-05-01T11:27:52.999Z</time></trkpt><trkpt lat="41.94304601232645" lon="13.417374751712638"><ele>614.3333333333334</ele><time>2026-05-01T11:27:53.999Z</time></trkpt><trkpt lat="41.94320815927192" lon="13.417219097301983"><ele>612.0</ele><time>2026-05-01T11:27:54.999Z</time></trkpt><trkpt lat="41.94336369864423" lon="13.41708598500289"><ele>618.6666666666666</ele><time>2026-05-01T11:27:55.999Z</time></trkpt><trkpt lat="41.94346989088171" lon="13.416930724666308"><ele>625.3333333333333</ele><time>2026-05-01T11:27:56.999Z</time></trkpt><trkpt lat="41.943516050608515" lon="13.416740281734954"><ele>632.0</ele><time>2026-05-01T11:27:57.999Z</time></trkpt><trkpt lat="41.943494164441006" lon="13.416522857363397"><ele>631.3333333333333</ele><time>2026-05-01T11:27:58.999Z</time></trkpt><trkpt lat="41.943435325833946" lon="13.416300961812464"><ele>630.6666666666666</ele><time>2026-05-01T11:27:59.999Z</time></trkpt><trkpt lat="41.94339675956999" lon="13.416086275086997"><ele>630.0</ele><time>2026-05-01T11:28:00.999Z</time></trkpt><trkpt lat="41.94341398065549" lon="13.415875549651172"><ele>630.0</ele><time>2026-05-01T11:28:01.999Z</time></trkpt><trkpt lat="41.94351212882682" lon="13.415665802652358"><ele>630.0</ele><time>2026-05-01T11:28:02.999Z</time></trkpt><trkpt lat="41.94365027305606" lon="13.415492488802782"><ele>630.0</ele><time>2026-05-01T11:28:03.999Z</time></trkpt><trkpt lat="41.94381511341308" lon="13.415333632815997"><ele>631.6666666666666</ele><time>2026-05-01T11:28:04.999Z</time></trkpt><trkpt lat="41.94398166989698" lon="13.415159766280356"><ele>633.3333333333333</ele><time>2026-05-01T11:28:05.999Z</time></trkpt><trkpt lat="41.944151904008315" lon="13.414956093333345"><ele>635.0</ele><time>2026-05-01T11:28:06.999Z</time></trkpt><trkpt lat="41.944324123705115" lon="13.414728040323789"><ele>630.5</ele><time>2026-05-01T11:28:07.999Z</time></trkpt><trkpt lat="41.944494979315806" lon="13.414479673833725"><ele>626.0</ele><time>2026-05-01T11:28:08.999Z</time></trkpt><trkpt lat="41.944642231967514" lon="13.414248339987"><ele>626.0</ele><time>2026-05-01T11:28:09.999Z</time></trkpt><trkpt lat="41.94478733549244" lon="13.414027860911263"><ele>626.0</ele><time>2026-05-01T11:28:10.999Z</time></trkpt><trkpt lat="41.94492824896108" lon="13.413807137704108"><ele>626.0</ele><time>2026-05-01T11:28:11.999Z</time></trkpt><trkpt lat="41.94505850428953" lon="13.41359427695219"><ele>627.0</ele><time>2026-05-01T11:28:12.999Z</time></trkpt><trkpt lat="41.945188153202544" lon="13.413409890212018"><ele>628.0</ele><time>2026-05-01T11:28:13.999Z</time></trkpt><trkpt lat="41.94535023110254" lon="13.413309811324988"><ele>629.0</ele><time>2026-05-01T11:28:14.999Z</time></trkpt><trkpt lat="41.94552465964039" lon="13.413235310655773"><ele>629.0</ele><time>2026-05-01T11:28:15.999Z</time></trkpt><trkpt lat="41.94571337184657" lon="13.413162330809973"><ele>629.0</ele><time>2026-05-01T11:28:16.999Z</time></trkpt><trkpt lat="41.94590274584095" lon="13.41306610377881"><ele>629.0</ele><time>2026-05-01T11:28:17.999Z</time></trkpt><trkpt lat="41.94607832740322" lon="13.412910304367182"><ele>630.6666666666666</ele><time>2026-05-01T11:28:18.999Z</time></trkpt><trkpt lat="41.94623622674344" lon="13.41269840258278"><ele>632.3333333333334</ele><time>2026-05-01T11:28:19.999Z</time></trkpt><trkpt lat="41.946377762988845" lon="13.41248698211128"><ele>634.0</ele><time>2026-05-01T11:28:20.999Z</time></trkpt><trkpt lat="41.9465378100065" lon="13.412309469188775"><ele>633.0</ele><time>2026-05-01T11:28:21.999Z</time></trkpt><trkpt lat="41.946723103457195" lon="13.412186118785163"><ele>632.0</ele><time>2026-05-01T11:28:22.999Z</time></trkpt><trkpt lat="41.946895028942826" lon="13.412068671652483"><ele>631.0</ele><time>2026-05-01T11:28:23.999Z</time></trkpt><trkpt lat="41.94703014666796" lon="13.411907569300705"><ele>631.0</ele><time>2026-05-01T11:28:24.999Z</time></trkpt><trkpt lat="41.94711777939187" lon="13.411715569276383"><ele>631.0</ele><time>2026-05-01T11:28:25.999Z</time></trkpt><trkpt lat="41.947197308138314" lon="13.411564588842236"><ele>631.0</ele><time>2026-05-01T11:28:26.999Z</time></trkpt><trkpt lat="41.947325376930706" lon="13.41146787654643"><ele>631.0</ele><time>2026-05-01T11:28:27.999Z</time></trkpt><trkpt lat="41.94750994975551" lon="13.411457086927525"><ele>631.0</ele><time>2026-05-01T11:28:28.999Z</time></trkpt><trkpt lat="41.94769963204671" lon="13.411448747711813"><ele>631.0</ele><time>2026-05-01T11:28:29.999Z</time></trkpt><trkpt lat="41.947897761493834" lon="13.41150004028042"><ele>632.6666666666667</ele><time>2026-05-01T11:28:30.999Z</time></trkpt><trkpt lat="41.948100193777535" lon="13.41157899664506"><ele>634.3333333333334</ele><time>2026-05-01T11:28:31.999Z</time></trkpt><trkpt lat="41.94830233535763" lon="13.4116638628393"><ele>636.0</ele><time>2026-05-01T11:28:32.999Z</time></trkpt><trkpt lat="41.948479794461775" lon="13.41173345952768"><ele>637.75</ele><time>2026-05-01T11:28:33.999Z</time></trkpt><trkpt lat="41.94863519754042" lon="13.411791249473755"><ele>639.5</ele><time>2026-05-01T11:28:34.999Z</time></trkpt><trkpt lat="41.94875761591764" lon="13.411831915585434"><ele>641.25</ele><time>2026-05-01T11:28:35.999Z</time></trkpt><trkpt lat="41.94888650200395" lon="13.411830461933002"><ele>643.0</ele><time>2026-05-01T11:28:36.999Z</time></trkpt><trkpt lat="41.94898830087065" lon="13.411753325230007"><ele>643.0</ele><time>2026-05-01T11:28:37.999Z</time></trkpt><trkpt lat="41.94905414764228" lon="13.411618810002643"><ele>643.0</ele><time>2026-05-01T11:28:38.999Z</time></trkpt><trkpt lat="41.9490857200651" lon="13.411452905606087"><ele>643.0</ele><time>2026-05-01T11:28:39.999Z</time></trkpt><trkpt lat="41.949118450730595" lon="13.411258603248257"><ele>643.0</ele><time>2026-05-01T11:28:40.999Z</time></trkpt><trkpt lat="41.94914275670315" lon="13.411084441415658"><ele>642.25</ele><time>2026-05-01T11:28:41.999Z</time></trkpt><trkpt lat="41.94921629544875" lon="13.41094258662779"><ele>641.5</ele><time>2026-05-01T11:28:42.999Z</time></trkpt><trkpt lat="41.94933688025094" lon="13.410852093922662"><ele>640.75</ele><time>2026-05-01T11:28:43.999Z</time></trkpt><trkpt lat="41.94948647100707" lon="13.410855396491742"><ele>640.0</ele><time>2026-05-01T11:28:44.999Z</time></trkpt><trkpt lat="41.94965425160153" lon="13.410889192493526"><ele>640.0</ele><time>2026-05-01T11:28:45.999Z</time></trkpt><trkpt lat="41.949821071695084" lon="13.411008679807038"><ele>640.0</ele><time>2026-05-01T11:28:46.999Z</time></trkpt><trkpt lat="41.94999662207703" lon="13.411131584622277"><ele>640.0</ele><time>2026-05-01T11:28:47.999Z</time></trkpt><trkpt lat="41.95013652421002" lon="13.411163643911486"><ele>643.25</ele><time>2026-05-01T11:28:48.999Z</time></trkpt><trkpt lat="41.95026412999047" lon="13.411222875089218"><ele>646.5</ele><time>2026-05-01T11:28:49.999Z</time></trkpt><trkpt lat="41.950395905649835" lon="13.411224187716691"><ele>649.75</ele><time>2026-05-01T11:28:50.998Z</time></trkpt><trkpt lat="41.950527532359175" lon="13.411136736525954"><ele>653.0</ele><time>2026-05-01T11:28:52Z</time></trkpt><trkpt lat="41.95063388651158" lon="13.41095295462461"><ele>653.0</ele><time>2026-05-01T11:28:53Z</time></trkpt><trkpt lat="41.95071254693193" lon="13.410715363784934"><ele>653.0</ele><time>2026-05-01T11:28:54Z</time></trkpt><trkpt lat="41.9507876482907" lon="13.410461276248286"><ele>653.0</ele><time>2026-05-01T11:28:55Z</time></trkpt><trkpt lat="41.95085641442319" lon="13.41021161353089"><ele>655.6666666666666</ele><time>2026-05-01T11:28:56Z</time></trkpt><trkpt lat="41.95088815460645" lon="13.409949534346902"><ele>658.3333333333334</ele><time>2026-05-01T11:28:57Z</time></trkpt><trkpt lat="41.95088703924909" lon="13.409719275245829"><ele>661.0</ele><time>2026-05-01T11:28:58Z</time></trkpt><trkpt lat="41.95089199289852" lon="13.409541048975095"><ele>657.5999999999999</ele><time>2026-05-01T11:28:59Z</time></trkpt><trkpt lat="41.950968851771634" lon="13.409431403259156"><ele>654.2</ele><time>2026-05-01T11:29:00Z</time></trkpt><trkpt lat="41.95107944601147" lon="13.409387303366342"><ele>650.8</ele><time>2026-05-01T11:29:01Z</time></trkpt><trkpt lat="41.95117653762419" lon="13.409422098066665"><ele>647.4000000000001</ele><time>2026-05-01T11:29:02Z</time></trkpt><trkpt lat="41.95127592022834" lon="13.409432559637184"><ele>644.0</ele><time>2026-05-01T11:29:03Z</time></trkpt><trkpt lat="41.9515005376167" lon="13.409622243381605"><ele>649.6666666666666</ele><time>2026-05-01T11:29:04Z</time></trkpt><trkpt lat="41.95165704506916" lon="13.409684143008278"><ele>655.3333333333334</ele><time>2026-05-01T11:29:05Z</time></trkpt><trkpt lat="41.951853048235236" lon="13.4097249262435"><ele>661.0</ele><time>2026-05-01T11:29:06Z</time></trkpt><trkpt lat="41.952022609225914" lon="13.409753720155988"><ele>657.6666666666667</ele><time>2026-05-01T11:29:07Z</time></trkpt><trkpt lat="41.95217387404675" lon="13.409726617562132"><ele>654.3333333333334</ele><time>2026-05-01T11:29:08Z</time></trkpt><trkpt lat="41.95232268298281" lon="13.40964352944932"><ele>651.0</ele><time>2026-05-01T11:29:09Z</time></trkpt><trkpt lat="41.95245608747559" lon="13.409512259722796"><ele>659.3333333333334</ele><time>2026-05-01T11:29:10Z</time></trkpt><trkpt lat="41.95261066423222" lon="13.409358730313778"><ele>667.6666666666667</ele><time>2026-05-01T11:29:11Z</time></trkpt><trkpt lat="41.95278536711903" lon="13.409167505822506"><ele>676.0</ele><time>2026-05-01T11:29:12Z</time></trkpt><trkpt lat="41.95295369438674" lon="13.408989765999374"><ele>671.6666666666667</ele><time>2026-05-01T11:29:13Z</time></trkpt><trkpt lat="41.95309639731949" lon="13.408798514372398"><ele>667.3333333333334</ele><time>2026-05-01T11:29:14Z</time></trkpt><trkpt lat="41.9532205642893" lon="13.408571573390164"><ele>663.0</ele><time>2026-05-01T11:29:15Z</time></trkpt><trkpt lat="41.95334256042428" lon="13.408340852234868"><ele>666.0</ele><time>2026-05-01T11:29:16Z</time></trkpt><trkpt lat="41.953445608147355" lon="13.408127716303891"><ele>669.0</ele><time>2026-05-01T11:29:17Z</time></trkpt><trkpt lat="41.95356097572581" lon="13.4079491257568"><ele>672.0</ele><time>2026-05-01T11:29:18Z</time></trkpt><trkpt lat="41.953708272531415" lon="13.407779557245997"><ele>672.0</ele><time>2026-05-01T11:29:19Z</time></trkpt><trkpt lat="41.953882719816875" lon="13.407651810986678"><ele>672.0</ele><time>2026-05-01T11:29:20Z</time></trkpt><trkpt lat="41.95404373516359" lon="13.407518386424963"><ele>672.0</ele><time>2026-05-01T11:29:21Z</time></trkpt><trkpt lat="41.95418218952601" lon="13.407384463010098"><ele>678.6666666666666</ele><time>2026-05-01T11:29:22Z</time></trkpt><trkpt lat="41.954297314783524" lon="13.407239996871345"><ele>685.3333333333333</ele><time>2026-05-01T11:29:23Z</time></trkpt><trkpt lat="41.95439135624334" lon="13.407083211539854"><ele>692.0</ele><time>2026-05-01T11:29:24Z</time></trkpt><trkpt lat="41.954440460189176" lon="13.406880901981593"><ele>692.0</ele><time>2026-05-01T11:29:25Z</time></trkpt><trkpt lat="41.9544492971749" lon="13.406646759234985"><ele>692.0</ele><time>2026-05-01T11:29:26Z</time></trkpt><trkpt lat="41.95440794208368" lon="13.406398477575463"><ele>692.0</ele><time>2026-05-01T11:29:27Z</time></trkpt><trkpt lat="41.95434133570867" lon="13.406164031773502"><ele>692.0</ele><time>2026-05-01T11:29:28Z</time></trkpt><trkpt lat="41.9543442243348" lon="13.40591539166931"><ele>692.0</ele><time>2026-05-01T11:29:29Z</time></trkpt><trkpt lat="41.95435491277067" lon="13.405652702172917"><ele>692.0</ele><time>2026-05-01T11:29:30Z</time></trkpt><trkpt lat="41.95435437303428" lon="13.405427212302689"><ele>691.25</ele><time>2026-05-01T11:29:31Z</time></trkpt><trkpt lat="41.95437331997182" lon="13.405243962850669"><ele>690.5</ele><time>2026-05-01T11:29:32Z</time></trkpt><trkpt lat="41.954403872576144" lon="13.405065186302176"><ele>689.75</ele><time>2026-05-01T11:29:33Z</time></trkpt><trkpt lat="41.95450622046824" lon="13.404914224025019"><ele>689.0</ele><time>2026-05-01T11:29:34Z</time></trkpt><trkpt lat="41.954633827982356" lon="13.404766634394598"><ele>685.3333333333333</ele><time>2026-05-01T11:29:35Z</time></trkpt><trkpt lat="41.954783286911805" lon="13.404618410433809"><ele>681.6666666666666</ele><time>2026-05-01T11:29:36Z</time></trkpt><trkpt lat="41.95492957590594" lon="13.404456212847437"><ele>678.0</ele><time>2026-05-01T11:29:37Z</time></trkpt><trkpt lat="41.95504805695555" lon="13.404288151890965"><ele>686.3333333333334</ele><time>2026-05-01T11:29:38Z</time></trkpt><trkpt lat="41.95515775019066" lon="13.404129836643882"><ele>694.6666666666667</ele><time>2026-05-01T11:29:39Z</time></trkpt><trkpt lat="41.955266679322435" lon="13.40396247834306"><ele>703.0</ele><time>2026-05-01T11:29:40Z</time></trkpt><trkpt lat="41.95535527309208" lon="13.403757637513353"><ele>703.0</ele><time>2026-05-01T11:29:41Z</time></trkpt><trkpt lat="41.955401070559056" lon="13.403501846821362"><ele>703.0</ele><time>2026-05-01T11:29:42Z</time></trkpt><trkpt lat="41.95540088088261" lon="13.403214324580043"><ele>703.0</ele><time>2026-05-01T11:29:43Z</time></trkpt><trkpt lat="41.95537968354688" lon="13.40290941483602"><ele>705.0</ele><time>2026-05-01T11:29:44Z</time></trkpt><trkpt lat="41.95536019634203" lon="13.402605505373595"><ele>707.0</ele><time>2026-05-01T11:29:44.999Z</time></trkpt><trkpt lat="41.95534927610893" lon="13.402294623034022"><ele>706.6666666666666</ele><time>2026-05-01T11:29:45.999Z</time></trkpt><trkpt lat="41.95534332050649" lon="13.402000411184897"><ele>706.3333333333334</ele><time>2026-05-01T11:29:46.999Z</time></trkpt><trkpt lat="41.9553376224948" lon="13.401736382518058"><ele>706.0</ele><time>2026-05-01T11:29:47.999Z</time></trkpt><trkpt lat="41.95533158269774" lon="13.401502702575511"><ele>707.25</ele><time>2026-05-01T11:29:48.999Z</time></trkpt><trkpt lat="41.95532703136722" lon="13.401309149629729"><ele>708.5</ele><time>2026-05-01T11:29:49.999Z</time></trkpt><trkpt lat="41.95530707670336" lon="13.401164891689142"><ele>709.75</ele><time>2026-05-01T11:29:50.999Z</time></trkpt><trkpt lat="41.955235066327155" lon="13.401038637696688"><ele>711.0</ele><time>2026-05-01T11:29:51.999Z</time></trkpt><trkpt lat="41.95510635025158" lon="13.400924357604286"><ele>705.25</ele><time>2026-05-01T11:29:52.999Z</time></trkpt><trkpt lat="41.954956903649055" lon="13.400866783299492"><ele>699.5</ele><time>2026-05-01T11:29:53.999Z</time></trkpt><trkpt lat="41.9548541532594" lon="13.400786978426634"><ele>693.75</ele><time>2026-05-01T11:29:54.999Z</time></trkpt><trkpt lat="41.954783778521744" lon="13.40067863007482"><ele>688.0</ele><time>2026-05-01T11:29:55.999Z</time></trkpt><trkpt lat="41.954773765274574" lon="13.400517708863996"><ele>691.3333333333334</ele><time>2026-05-01T11:29:56.999Z</time></trkpt><trkpt lat="41.954791425737746" lon="13.40032438115669"><ele>694.6666666666666</ele><time>2026-05-01T11:29:57.999Z</time></trkpt><trkpt lat="41.95479802623939" lon="13.400090039322782"><ele>698.0</ele><time>2026-05-01T11:29:58.999Z</time></trkpt><trkpt lat="41.95479907070961" lon="13.399864743770658"><ele>696.6666666666666</ele><time>2026-05-01T11:29:59.999Z</time></trkpt><trkpt lat="41.954808546040304" lon="13.399664790144692"><ele>695.3333333333334</ele><time>2026-05-01T11:30:00.999Z</time></trkpt><trkpt lat="41.95484613707958" lon="13.399450707181922"><ele>694.0</ele><time>2026-05-01T11:30:01.999Z</time></trkpt><trkpt lat="41.95489782365498" lon="13.399197891834284"><ele>694.0</ele><time>2026-05-01T11:30:02.999Z</time></trkpt><trkpt lat="41.95494290085168" lon="13.398928768432073"><ele>694.0</ele><time>2026-05-01T11:30:03.999Z</time></trkpt><trkpt lat="41.95504097705492" lon="13.398666014000963"><ele>694.0</ele><time>2026-05-01T11:30:04.999Z</time></trkpt><trkpt lat="41.95513263306397" lon="13.398381209989113"><ele>697.6666666666667</ele><time>2026-05-01T11:30:05.999Z</time></trkpt><trkpt lat="41.95519235714292" lon="13.398081696453037"><ele>701.3333333333334</ele><time>2026-05-01T11:30:06.999Z</time></trkpt><trkpt lat="41.955288679889684" lon="13.397825972348418"><ele>705.0</ele><time>2026-05-01T11:30:07.999Z</time></trkpt><trkpt lat="41.95537190598497" lon="13.397607957388459"><ele>705.0</ele><time>2026-05-01T11:30:08.999Z</time></trkpt><trkpt lat="41.955427511564295" lon="13.397418801634373"><ele>705.0</ele><time>2026-05-01T11:30:09.999Z</time></trkpt><trkpt lat="41.95548745405503" lon="13.397291458959614"><ele>705.0</ele><time>2026-05-01T11:30:10.999Z</time></trkpt><trkpt lat="41.95554588897262" lon="13.39718379418518"><ele>705.0</ele><time>2026-05-01T11:30:11.999Z</time></trkpt><trkpt lat="41.955644076257805" lon="13.397115022602048"><ele>701.75</ele><time>2026-05-01T11:30:12.999Z</time></trkpt><trkpt lat="41.95577421559851" lon="13.397101757508366"><ele>698.5</ele><time>2026-05-01T11:30:13.999Z</time></trkpt><trkpt lat="41.955907203318525" lon="13.397158071464418"><ele>695.25</ele><time>2026-05-01T11:30:14.999Z</time></trkpt><trkpt lat="41.95602314085127" lon="13.39721725366338"><ele>692.0</ele><time>2026-05-01T11:30:15.999Z</time></trkpt><trkpt lat="41.95612372345901" lon="13.39731932325714"><ele>692.0</ele><time>2026-05-01T11:30:16.999Z</time></trkpt><trkpt lat="41.95621583397864" lon="13.397454160019326"><ele>692.0</ele><time>2026-05-01T11:30:17.999Z</time></trkpt><trkpt lat="41.95630393391425" lon="13.39762185550597"><ele>692.0</ele><time>2026-05-01T11:30:18.999Z</time></trkpt><trkpt lat="41.95640479746862" lon="13.397784560557787"><ele>692.0</ele><time>2026-05-01T11:30:19.999Z</time></trkpt><trkpt lat="41.95651442350764" lon="13.39791442680847"><ele>699.5</ele><time>2026-05-01T11:30:20.999Z</time></trkpt><trkpt lat="41.95661372915032" lon="13.398020951846952"><ele>707.0</ele><time>2026-05-01T11:30:21.999Z</time></trkpt><trkpt lat="41.956734887807706" lon="13.398099213978348"><ele>714.5</ele><time>2026-05-01T11:30:22.999Z</time></trkpt><trkpt lat="41.95688235033494" lon="13.398135808844252"><ele>722.0</ele><time>2026-05-01T11:30:23.999Z</time></trkpt><trkpt lat="41.95704655754181" lon="13.39812481144382"><ele>728.0</ele><time>2026-05-01T11:30:24.999Z</time></trkpt><trkpt lat="41.95721489926152" lon="13.398072106338667"><ele>734.0</ele><time>2026-05-01T11:30:25.999Z</time></trkpt><trkpt lat="41.957389338037665" lon="13.397990214082592"><ele>740.0</ele><time>2026-05-01T11:30:26.999Z</time></trkpt><trkpt lat="41.957558041507255" lon="13.397900801502427"><ele>740.0</ele><time>2026-05-01T11:30:27.999Z</time></trkpt><trkpt lat="41.95770776751403" lon="13.39780985052676"><ele>740.0</ele><time>2026-05-01T11:30:28.999Z</time></trkpt><trkpt lat="41.95784981747234" lon="13.397696634758553"><ele>740.0</ele><time>2026-05-01T11:30:29.999Z</time></trkpt><trkpt lat="41.95797463692248" lon="13.397533163682844"><ele>740.0</ele><time>2026-05-01T11:30:30.999Z</time></trkpt><trkpt lat="41.95807888289307" lon="13.397328247966302"><ele>740.0</ele><time>2026-05-01T11:30:31.999Z</time></trkpt><trkpt lat="41.958163831850484" lon="13.397135666665413"><ele>740.0</ele><time>2026-05-01T11:30:32.999Z</time></trkpt><trkpt lat="41.95828083404154" lon="13.397009847602803"><ele>756.0</ele><time>2026-05-01T11:30:33.999Z</time></trkpt><trkpt lat="41.958409011968" lon="13.396870901693058"><ele>772.0</ele><time>2026-05-01T11:30:34.999Z</time></trkpt><trkpt lat="41.95850166742458" lon="13.396694068633051"><ele>788.0</ele><time>2026-05-01T11:30:35.999Z</time></trkpt><trkpt lat="41.958562856642715" lon="13.396521697396588"><ele>788.0</ele><time>2026-05-01T11:30:36.999Z</time></trkpt><trkpt lat="41.95861289828363" lon="13.396350424287801"><ele>788.0</ele><time>2026-05-01T11:30:37.999Z</time></trkpt><trkpt lat="41.95869766550671" lon="13.396215381759255"><ele>788.0</ele><time>2026-05-01T11:30:38.999Z</time></trkpt><trkpt lat="41.95877696917932" lon="13.396066243447347"><ele>788.0</ele><time>2026-05-01T11:30:39.999Z</time></trkpt><trkpt lat="41.958834067394996" lon="13.395896123946898"><ele>778.75</ele><time>2026-05-01T11:30:40.999Z</time></trkpt><trkpt lat="41.95889040114116" lon="13.39572843287196"><ele>769.5</ele><time>2026-05-01T11:30:41.999Z</time></trkpt><trkpt lat="41.95894141100114" lon="13.395545674709549"><ele>760.25</ele><time>2026-05-01T11:30:42.999Z</time></trkpt><trkpt lat="41.95900947569832" lon="13.39537654061599"><ele>751.0</ele><time>2026-05-01T11:30:43.999Z</time></trkpt><trkpt lat="41.959098215619875" lon="13.395216009519443"><ele>742.3333333333334</ele><time>2026-05-01T11:30:44.999Z</time></trkpt><trkpt lat="41.959165653875296" lon="13.395036517607661"><ele>733.6666666666666</ele><time>2026-05-01T11:30:45.999Z</time></trkpt><trkpt lat="41.95918455089749" lon="13.394834271908312"><ele>725.0</ele><time>2026-05-01T11:30:46.999Z</time></trkpt><trkpt lat="41.95914571636736" lon="13.394639822117096"><ele>720.8</ele><time>2026-05-01T11:30:47.999Z</time></trkpt><trkpt lat="41.9591141776755" lon="13.394480190137987"><ele>716.6</ele><time>2026-05-01T11:30:48.999Z</time></trkpt><trkpt lat="41.95912202676599" lon="13.394343903973228"><ele>712.4000000000001</ele><time>2026-05-01T11:30:49.999Z</time></trkpt><trkpt lat="41.959191079362704" lon="13.394249366338915"><ele>708.2</ele><time>2026-05-01T11:30:50.999Z</time></trkpt><trkpt lat="41.959303133514005" lon="13.394203146901742"><ele>704.0</ele><time>2026-05-01T11:30:51.999Z</time></trkpt><trkpt lat="41.959418616174204" lon="13.394113212289586"><ele>715.3333333333333</ele><time>2026-05-01T11:30:52.999Z</time></trkpt><trkpt lat="41.95952954602686" lon="13.394007499199972"><ele>726.6666666666666</ele><time>2026-05-01T11:30:53.999Z</time></trkpt><trkpt lat="41.95962054144952" lon="13.393836352633913"><ele>738.0</ele><time>2026-05-01T11:30:54.998Z</time></trkpt><trkpt lat="41.95968973696282" lon="13.393627553061279"><ele>738.0</ele><time>2026-05-01T11:30:55.998Z</time></trkpt><trkpt lat="41.95975494943274" lon="13.39340185436759"><ele>738.0</ele><time>2026-05-01T11:30:56.998Z</time></trkpt><trkpt lat="41.959833909343075" lon="13.393177242379132"><ele>738.0</ele><time>2026-05-01T11:30:58Z</time></trkpt><trkpt lat="41.959922361891614" lon="13.392968752081602"><ele>741.6666666666666</ele><time>2026-05-01T11:30:59Z</time></trkpt><trkpt lat="41.96002057446584" lon="13.392761130424446"><ele>745.3333333333333</ele><time>2026-05-01T11:31:00Z</time></trkpt><trkpt lat="41.960132052933496" lon="13.392553681942486"><ele>749.0</ele><time>2026-05-01T11:31:01Z</time></trkpt><trkpt lat="41.96025035112385" lon="13.392353832208464"><ele>749.0</ele><time>2026-05-01T11:31:02Z</time></trkpt><trkpt lat="41.960369485737374" lon="13.392182684972486"><ele>749.0</ele><time>2026-05-01T11:31:03Z</time></trkpt><trkpt lat="41.96049127682037" lon="13.392034075325855"><ele>749.0</ele><time>2026-05-01T11:31:04Z</time></trkpt><trkpt lat="41.960627819140875" lon="13.391901209261922"><ele>748.3333333333333</ele><time>2026-05-01T11:31:05Z</time></trkpt><trkpt lat="41.96077942693151" lon="13.391779792128457"><ele>747.6666666666666</ele><time>2026-05-01T11:31:06Z</time></trkpt><trkpt lat="41.960938646406845" lon="13.391663876057448"><ele>747.0</ele><time>2026-05-01T11:31:07Z</time></trkpt><trkpt lat="41.961095834720766" lon="13.39156150041962"><ele>747.0</ele><time>2026-05-01T11:31:08Z</time></trkpt><trkpt lat="41.961244468848776" lon="13.391493156553162"><ele>747.0</ele><time>2026-05-01T11:31:09Z</time></trkpt><trkpt lat="41.96139724618278" lon="13.391462300405982"><ele>747.0</ele><time>2026-05-01T11:31:10Z</time></trkpt><trkpt lat="41.961566652734184" lon="13.39145057571723"><ele>744.3333333333334</ele><time>2026-05-01T11:31:11Z</time></trkpt><trkpt lat="41.96173502595187" lon="13.391405192729517"><ele>741.6666666666667</ele><time>2026-05-01T11:31:12Z</time></trkpt><trkpt lat="41.96189857194532" lon="13.391299337438795"><ele>739.0</ele><time>2026-05-01T11:31:13Z</time></trkpt><trkpt lat="41.96205543126279" lon="13.391138249232077"><ele>739.0</ele><time>2026-05-01T11:31:14Z</time></trkpt><trkpt lat="41.962209360149366" lon="13.390963741276195"><ele>739.0</ele><time>2026-05-01T11:31:15Z</time></trkpt><trkpt lat="41.9623545414553" lon="13.390814721408319"><ele>739.0</ele><time>2026-05-01T11:31:16Z</time></trkpt><trkpt lat="41.962512296122085" lon="13.390713551180228"><ele>737.0</ele><time>2026-05-01T11:31:17Z</time></trkpt><trkpt lat="41.962681343183185" lon="13.390626250218217"><ele>735.0</ele><time>2026-05-01T11:31:18Z</time></trkpt><trkpt lat="41.962832318481965" lon="13.390553809216458"><ele>733.0</ele><time>2026-05-01T11:31:19Z</time></trkpt><trkpt lat="41.96294992203285" lon="13.390487957685004"><ele>733.0</ele><time>2026-05-01T11:31:20Z</time></trkpt><trkpt lat="41.9630206694817" lon="13.390462165739386"><ele>733.0</ele><time>2026-05-01T11:31:21Z</time></trkpt><trkpt lat="41.96309112785051" lon="13.39043600321067"><ele>733.0</ele><time>2026-05-01T11:31:23Z</time></trkpt><trkpt lat="41.96320219242141" lon="13.390387615825029"><ele>733.0</ele><time>2026-05-01T11:31:25Z</time></trkpt><trkpt lat="41.96326963122891" lon="13.390348288525932"><ele>733.0</ele><time>2026-05-01T11:31:26Z</time></trkpt><trkpt lat="41.963370145180136" lon="13.390301669674349"><ele>733.0</ele><time>2026-05-01T11:31:27Z</time></trkpt><trkpt lat="41.96349161034045" lon="13.390294126453712"><ele>734.75</ele><time>2026-05-01T11:31:28Z</time></trkpt><trkpt lat="41.96361703548808" lon="13.39026974013521"><ele>736.5</ele><time>2026-05-01T11:31:29Z</time></trkpt><trkpt lat="41.9637540627221" lon="13.390253454481053"><ele>738.25</ele><time>2026-05-01T11:31:30Z</time></trkpt><trkpt lat="41.96389615394115" lon="13.390247418041637"><ele>740.0</ele><time>2026-05-01T11:31:31Z</time></trkpt><trkpt lat="41.96404592145509" lon="13.390252375586735"><ele>740.0</ele><time>2026-05-01T11:31:32Z</time></trkpt><trkpt lat="41.96418809457481" lon="13.39023645258557"><ele>740.0</ele><time>2026-05-01T11:31:33Z</time></trkpt><trkpt lat="41.964315902363744" lon="13.390246749855992"><ele>740.0</ele><time>2026-05-01T11:31:34Z</time></trkpt><trkpt lat="41.964431494839026" lon="13.390288885271266"><ele>740.0</ele><time>2026-05-01T11:31:35Z</time></trkpt><trkpt lat="41.96456043694497" lon="13.390303411091224"><ele>739.75</ele><time>2026-05-01T11:31:36Z</time></trkpt><trkpt lat="41.9646755200246" lon="13.390398788256636"><ele>739.5</ele><time>2026-05-01T11:31:37Z</time></trkpt><trkpt lat="41.964788521625536" lon="13.390503762180549"><ele>739.25</ele><time>2026-05-01T11:31:38Z</time></trkpt><trkpt lat="41.9649148627721" lon="13.390630209773771"><ele>739.0</ele><time>2026-05-01T11:31:39Z</time></trkpt><trkpt lat="41.96504232052787" lon="13.390773415702201"><ele>739.0</ele><time>2026-05-01T11:31:40Z</time></trkpt><trkpt lat="41.965173223104436" lon="13.390921113993786"><ele>739.0</ele><time>2026-05-01T11:31:41Z</time></trkpt><trkpt lat="41.96530985539473" lon="13.391075264348135"><ele>739.0</ele><time>2026-05-01T11:31:42Z</time></trkpt><trkpt lat="41.96544363582216" lon="13.391224395439469"><ele>739.6666666666667</ele><time>2026-05-01T11:31:43Z</time></trkpt><trkpt lat="41.96557203451716" lon="13.391361672281684"><ele>740.3333333333334</ele><time>2026-05-01T11:31:44Z</time></trkpt><trkpt lat="41.96570737136162" lon="13.391481495461212"><ele>741.0</ele><time>2026-05-01T11:31:45Z</time></trkpt><trkpt lat="41.96585098903599" lon="13.391597035787928"><ele>740.6666666666666</ele><time>2026-05-01T11:31:46Z</time></trkpt><trkpt lat="41.96600670389257" lon="13.391688524620264"><ele>740.3333333333333</ele><time>2026-05-01T11:31:47Z</time></trkpt><trkpt lat="41.96614798487387" lon="13.391785284618443"><ele>740.0</ele><time>2026-05-01T11:31:48Z</time></trkpt><trkpt lat="41.966278735759346" lon="13.391874484032673"><ele>740.0</ele><time>2026-05-01T11:31:48.999Z</time></trkpt><trkpt lat="41.966398122571015" lon="13.391953658712152"><ele>740.0</ele><time>2026-05-01T11:31:49.999Z</time></trkpt><trkpt lat="41.96650150955073" lon="13.392022825828711"><ele>740.0</ele><time>2026-05-01T11:31:50.999Z</time></trkpt><trkpt lat="41.966576021994484" lon="13.3920762389968"><ele>740.0</ele><time>2026-05-01T11:31:51.999Z</time></trkpt><trkpt lat="41.966657719792224" lon="13.392157553161708"><ele>740.0</ele><time>2026-05-01T11:31:53.999Z</time></trkpt><trkpt lat="41.96676801089648" lon="13.392215197697995"><ele>739.6</ele><time>2026-05-01T11:32:02.999Z</time></trkpt><trkpt lat="41.966853696218706" lon="13.392266829329719"><ele>739.2</ele><time>2026-05-01T11:32:03.999Z</time></trkpt><trkpt lat="41.9669431870114" lon="13.392320806232677"><ele>738.8</ele><time>2026-05-01T11:32:04.999Z</time></trkpt><trkpt lat="41.96705003475882" lon="13.392390246374251"><ele>738.4</ele><time>2026-05-01T11:32:05.999Z</time></trkpt><trkpt lat="41.96716706893079" lon="13.392464658397556"><ele>738.0</ele><time>2026-05-01T11:32:06.999Z</time></trkpt><trkpt lat="41.96729666706631" lon="13.39254891280552"><ele>738.0</ele><time>2026-05-01T11:32:07.999Z</time></trkpt><trkpt lat="41.96743297891871" lon="13.392637501602612"><ele>738.0</ele><time>2026-05-01T11:32:08.999Z</time></trkpt><trkpt lat="41.967576677508916" lon="13.392731987690173"><ele>738.0</ele><time>2026-05-01T11:32:09.999Z</time></trkpt><trkpt lat="41.96772639601897" lon="13.392831845309518"><ele>738.0</ele><time>2026-05-01T11:32:10.999Z</time></trkpt><trkpt lat="41.967871643570334" lon="13.392934516894753"><ele>738.0</ele><time>2026-05-01T11:32:11.999Z</time></trkpt><trkpt lat="41.96800149343047" lon="13.393024245592867"><ele>738.0</ele><time>2026-05-01T11:32:12.999Z</time></trkpt><trkpt lat="41.96811370425447" lon="13.39310138576228"><ele>738.0</ele><time>2026-05-01T11:32:13.999Z</time></trkpt><trkpt lat="41.968216326737455" lon="13.393173065623584"><ele>738.2</ele><time>2026-05-01T11:32:14.999Z</time></trkpt><trkpt lat="41.96829865902418" lon="13.393233963371337"><ele>738.4</ele><time>2026-05-01T11:32:15.999Z</time></trkpt><trkpt lat="41.96838280617987" lon="13.393297228875795"><ele>738.6</ele><time>2026-05-01T11:32:16.999Z</time></trkpt><trkpt lat="41.96847586241673" lon="13.39342141156503"><ele>738.8000000000001</ele><time>2026-05-01T11:32:17.999Z</time></trkpt><trkpt lat="41.968571860884374" lon="13.393527569170304"><ele>739.0</ele><time>2026-05-01T11:32:18.999Z</time></trkpt><trkpt lat="41.96866316976882" lon="13.393639849473958"><ele>739.0</ele><time>2026-05-01T11:32:19.999Z</time></trkpt><trkpt lat="41.96876665392509" lon="13.393767943107388"><ele>739.0</ele><time>2026-05-01T11:32:20.999Z</time></trkpt><trkpt lat="41.96884822162868" lon="13.393919986290106"><ele>739.0</ele><time>2026-05-01T11:32:21.999Z</time></trkpt><trkpt lat="41.96894380045178" lon="13.394062142139646"><ele>739.0</ele><time>2026-05-01T11:32:22.999Z</time></trkpt><trkpt lat="41.969044572900586" lon="13.394211688630827"><ele>738.4000000000001</ele><time>2026-05-01T11:32:23.999Z</time></trkpt><trkpt lat="41.96913109370274" lon="13.394340540246713"><ele>737.8</ele><time>2026-05-01T11:32:24.999Z</time></trkpt><trkpt lat="41.96922390797212" lon="13.394428372014984"><ele>737.2</ele><time>2026-05-01T11:32:25.999Z</time></trkpt><trkpt lat="41.96928369529987" lon="13.394516916412"><ele>736.5999999999999</ele><time>2026-05-01T11:32:26.999Z</time></trkpt><trkpt lat="41.969341034507195" lon="13.394605513594438"><ele>736.0</ele><time>2026-05-01T11:32:27.999Z</time></trkpt><trkpt lat="41.96942572729184" lon="13.394703367399282"><ele>735.25</ele><time>2026-05-01T11:32:28.999Z</time></trkpt><trkpt lat="41.96951559640952" lon="13.394844093037637"><ele>734.5</ele><time>2026-05-01T11:32:29.999Z</time></trkpt><trkpt lat="41.96959898874741" lon="13.395001191089825"><ele>733.75</ele><time>2026-05-01T11:32:30.999Z</time></trkpt><trkpt lat="41.96969611078041" lon="13.39515983854861"><ele>733.0</ele><time>2026-05-01T11:32:31.999Z</time></trkpt><trkpt lat="41.96980091580235" lon="13.395318751694925"><ele>733.0</ele><time>2026-05-01T11:32:32.999Z</time></trkpt><trkpt lat="41.969907319221" lon="13.395478926023877"><ele>733.0</ele><time>2026-05-01T11:32:33.999Z</time></trkpt><trkpt lat="41.970024722478854" lon="13.395645512175335"><ele>733.0</ele><time>2026-05-01T11:32:34.999Z</time></trkpt><trkpt lat="41.97013999529103" lon="13.395814732864821"><ele>732.5</ele><time>2026-05-01T11:32:35.999Z</time></trkpt><trkpt lat="41.97024439811924" lon="13.395964904671043"><ele>732.0</ele><time>2026-05-01T11:32:36.999Z</time></trkpt><trkpt lat="41.97033535205637" lon="13.396108278155493"><ele>731.5</ele><time>2026-05-01T11:32:37.999Z</time></trkpt><trkpt lat="41.9704232528863" lon="13.396245197323367"><ele>731.0</ele><time>2026-05-01T11:32:38.999Z</time></trkpt><trkpt lat="41.970509190830946" lon="13.396373163266015"><ele>730.5</ele><time>2026-05-01T11:32:39.999Z</time></trkpt><trkpt lat="41.970592967733964" lon="13.396491294584612"><ele>730.0</ele><time>2026-05-01T11:32:40.999Z</time></trkpt><trkpt lat="41.970686078709434" lon="13.39662329328093"><ele>729.5</ele><time>2026-05-01T11:32:41.999Z</time></trkpt><trkpt lat="41.97078105353586" lon="13.396760172372577"><ele>729.0</ele><time>2026-05-01T11:32:42.999Z</time></trkpt><trkpt lat="41.97087881715466" lon="13.396904295570536"><ele>729.0</ele><time>2026-05-01T11:32:43.999Z</time></trkpt><trkpt lat="41.97097831971541" lon="13.397059886562547"><ele>729.0</ele><time>2026-05-01T11:32:44.999Z</time></trkpt><trkpt lat="41.9710818975664" lon="13.397222586930127"><ele>729.0</ele><time>2026-05-01T11:32:45.999Z</time></trkpt><trkpt lat="41.97118158973369" lon="13.397375615318355"><ele>729.0</ele><time>2026-05-01T11:32:46.999Z</time></trkpt><trkpt lat="41.97128235053687" lon="13.397530706859676"><ele>729.0</ele><time>2026-05-01T11:32:47.999Z</time></trkpt><trkpt lat="41.971394180580134" lon="13.397699540120135"><ele>729.0</ele><time>2026-05-01T11:32:48.999Z</time></trkpt><trkpt lat="41.97150763063916" lon="13.397861498799678"><ele>728.3333333333334</ele><time>2026-05-01T11:32:49.999Z</time></trkpt><trkpt lat="41.97162090057256" lon="13.398030692975848"><ele>727.6666666666667</ele><time>2026-05-01T11:32:50.999Z</time></trkpt><trkpt lat="41.9717354783081" lon="13.39820755902066"><ele>727.0</ele><time>2026-05-01T11:32:51.999Z</time></trkpt><trkpt lat="41.97185536008892" lon="13.398384645338322"><ele>726.6666666666667</ele><time>2026-05-01T11:32:52.999Z</time></trkpt><trkpt lat="41.97197432755232" lon="13.398561429478594"><ele>726.3333333333334</ele><time>2026-05-01T11:32:53.999Z</time></trkpt><trkpt lat="41.97209179026113" lon="13.398734864225966"><ele>726.0</ele><time>2026-05-01T11:32:54.999Z</time></trkpt><trkpt lat="41.972207539753484" lon="13.39890700530188"><ele>725.6666666666666</ele><time>2026-05-01T11:32:55.999Z</time></trkpt><trkpt lat="41.97232554027828" lon="13.39908031713175"><ele>725.3333333333333</ele><time>2026-05-01T11:32:56.998Z</time></trkpt><trkpt lat="41.9724475974449" lon="13.399255936761605"><ele>725.0</ele><time>2026-05-01T11:32:57.998Z</time></trkpt><trkpt lat="41.97256961446405" lon="13.399434852692922"><ele>725.0</ele><time>2026-05-01T11:32:58.998Z</time></trkpt><trkpt lat="41.972689385099805" lon="13.399614055338416"><ele>725.0</ele><time>2026-05-01T11:32:59.998Z</time></trkpt><trkpt lat="41.97280994728343" lon="13.399794444644229"><ele>725.0</ele><time>2026-05-01T11:33:00.998Z</time></trkpt><trkpt lat="41.97294524518576" lon="13.39999307383552"><ele>725.0</ele><time>2026-05-01T11:33:01.998Z</time></trkpt><trkpt lat="41.97308609386407" lon="13.40020027455668"><ele>725.0</ele><time>2026-05-01T11:33:02.998Z</time></trkpt><trkpt lat="41.973225790025424" lon="13.400404653453275"><ele>725.0</ele><time>2026-05-01T11:33:04Z</time></trkpt><trkpt lat="41.97335957158985" lon="13.400602923623756"><ele>725.0</ele><time>2026-05-01T11:33:05Z</time></trkpt><trkpt lat="41.973494094803556" lon="13.4008037229852"><ele>725.0</ele><time>2026-05-01T11:33:06Z</time></trkpt><trkpt lat="41.97362984305291" lon="13.401005419956734"><ele>725.0</ele><time>2026-05-01T11:33:07Z</time></trkpt><trkpt lat="41.973768467886885" lon="13.401213690530923"><ele>725.3333333333333</ele><time>2026-05-01T11:33:08Z</time></trkpt><trkpt lat="41.97390333129755" lon="13.40141985488687"><ele>725.6666666666666</ele><time>2026-05-01T11:33:09Z</time></trkpt><trkpt lat="41.97402938503578" lon="13.40161574245664"><ele>726.0</ele><time>2026-05-01T11:33:10Z</time></trkpt><trkpt lat="41.97414833725854" lon="13.401804838616012"><ele>725.6666666666666</ele><time>2026-05-01T11:33:11Z</time></trkpt><trkpt lat="41.97426710144508" lon="13.401991867246464"><ele>725.3333333333333</ele><time>2026-05-01T11:33:12Z</time></trkpt><trkpt lat="41.9743867027406" lon="13.402178340437686"><ele>725.0</ele><time>2026-05-01T11:33:13Z</time></trkpt><trkpt lat="41.97450782867264" lon="13.40236607315385"><ele>725.0</ele><time>2026-05-01T11:33:14Z</time></trkpt><trkpt lat="41.97462811875729" lon="13.402554890634246"><ele>725.0</ele><time>2026-05-01T11:33:15Z</time></trkpt><trkpt lat="41.97474920178748" lon="13.40274570125458"><ele>725.0</ele><time>2026-05-01T11:33:16Z</time></trkpt><trkpt lat="41.97486849154315" lon="13.402937070584281"><ele>725.0</ele><time>2026-05-01T11:33:17Z</time></trkpt><trkpt lat="41.974987588217786" lon="13.403128467578405"><ele>725.0</ele><time>2026-05-01T11:33:18Z</time></trkpt><trkpt lat="41.975110206639705" lon="13.403322083704383"><ele>725.0</ele><time>2026-05-01T11:33:19Z</time></trkpt><trkpt lat="41.97523163248279" lon="13.403515015430616"><ele>725.0</ele><time>2026-05-01T11:33:20Z</time></trkpt><trkpt lat="41.97535429393547" lon="13.403711560143453"><ele>725.0</ele><time>2026-05-01T11:33:21Z</time></trkpt><trkpt lat="41.97547419396952" lon="13.403902175944264"><ele>725.0</ele><time>2026-05-01T11:33:22Z</time></trkpt><trkpt lat="41.97559561538377" lon="13.40409331525487"><ele>725.0</ele><time>2026-05-01T11:33:23Z</time></trkpt><trkpt lat="41.97572037990255" lon="13.404274778169729"><ele>725.0</ele><time>2026-05-01T11:33:24Z</time></trkpt><trkpt lat="41.975835878539634" lon="13.404487411805588"><ele>725.0</ele><time>2026-05-01T11:33:25Z</time></trkpt><trkpt lat="41.97596087373528" lon="13.404657036782252"><ele>724.3333333333333</ele><time>2026-05-01T11:33:26Z</time></trkpt><trkpt lat="41.97608781735867" lon="13.404854271384407"><ele>723.6666666666666</ele><time>2026-05-01T11:33:27Z</time></trkpt><trkpt lat="41.97620636598158" lon="13.40507094397029"><ele>723.0</ele><time>2026-05-01T11:33:28Z</time></trkpt><trkpt lat="41.97635114289456" lon="13.40526480834804"><ele>723.0</ele><time>2026-05-01T11:33:29Z</time></trkpt><trkpt lat="41.97648386014974" lon="13.40547740088549"><ele>723.0</ele><time>2026-05-01T11:33:30Z</time></trkpt><trkpt lat="41.976622102343114" lon="13.405695754253305"><ele>723.0</ele><time>2026-05-01T11:33:31Z</time></trkpt><trkpt lat="41.97676231294988" lon="13.40591877139595"><ele>723.0</ele><time>2026-05-01T11:33:32Z</time></trkpt><trkpt lat="41.97690398710123" lon="13.406140772859304"><ele>723.0</ele><time>2026-05-01T11:33:33Z</time></trkpt><trkpt lat="41.97705053593758" lon="13.406359929400766"><ele>723.0</ele><time>2026-05-01T11:33:34Z</time></trkpt><trkpt lat="41.977198577320145" lon="13.406577189415644"><ele>723.0</ele><time>2026-05-01T11:33:35Z</time></trkpt><trkpt lat="41.97734819579658" lon="13.406796896896697"><ele>723.0</ele><time>2026-05-01T11:33:36Z</time></trkpt><trkpt lat="41.97749897758867" lon="13.407012960361131"><ele>723.0</ele><time>2026-05-01T11:33:37Z</time></trkpt><trkpt lat="41.97765119480943" lon="13.407225885481466"><ele>723.0</ele><time>2026-05-01T11:33:38Z</time></trkpt><trkpt lat="41.97780461353298" lon="13.407437098908211"><ele>723.0</ele><time>2026-05-01T11:33:39Z</time></trkpt><trkpt lat="41.97795674091082" lon="13.407647437795152"><ele>723.0</ele><time>2026-05-01T11:33:40Z</time></trkpt><trkpt lat="41.97810986615361" lon="13.407858332111498"><ele>722.6666666666666</ele><time>2026-05-01T11:33:41Z</time></trkpt><trkpt lat="41.9782623326684" lon="13.408068033899118"><ele>722.3333333333333</ele><time>2026-05-01T11:33:42Z</time></trkpt><trkpt lat="41.97841796178241" lon="13.408280674092337"><ele>722.0</ele><time>2026-05-01T11:33:43Z</time></trkpt><trkpt lat="41.978575444958146" lon="13.408495628055181"><ele>722.5</ele><time>2026-05-01T11:33:44Z</time></trkpt><trkpt lat="41.97873669030626" lon="13.408717277288996"><ele>723.0</ele><time>2026-05-01T11:33:45Z</time></trkpt><trkpt lat="41.978897681066506" lon="13.408937212545638"><ele>723.0</ele><time>2026-05-01T11:33:46Z</time></trkpt><trkpt lat="41.97905734893928" lon="13.409155353734938"><ele>723.0</ele><time>2026-05-01T11:33:47Z</time></trkpt><trkpt lat="41.979218813174505" lon="13.409371191088566"><ele>723.6666666666666</ele><time>2026-05-01T11:33:48Z</time></trkpt><trkpt lat="41.97937862190213" lon="13.409587370297453"><ele>724.3333333333333</ele><time>2026-05-01T11:33:49Z</time></trkpt><trkpt lat="41.9795347278078" lon="13.409800997566101"><ele>725.0</ele><time>2026-05-01T11:33:49.999Z</time></trkpt><trkpt lat="41.9796839925974" lon="13.41000522342859"><ele>725.0</ele><time>2026-05-01T11:33:50.999Z</time></trkpt><trkpt lat="41.97982570863457" lon="13.410195888150701"><ele>725.0</ele><time>2026-05-01T11:33:51.999Z</time></trkpt><trkpt lat="41.97995590353581" lon="13.410372182100467"><ele>725.0</ele><time>2026-05-01T11:33:52.999Z</time></trkpt><trkpt lat="41.98006570237674" lon="13.410551755301226"><ele>725.5</ele><time>2026-05-01T11:33:53.999Z</time></trkpt><trkpt lat="41.980167576042696" lon="13.410689901424714"><ele>726.0</ele><time>2026-05-01T11:33:54.999Z</time></trkpt><trkpt lat="41.98024948227646" lon="13.410802290302259"><ele>726.5</ele><time>2026-05-01T11:33:55.999Z</time></trkpt><trkpt lat="41.9803249944436" lon="13.410906710714107"><ele>727.0</ele><time>2026-05-01T11:33:56.999Z</time></trkpt><trkpt lat="41.98041028232316" lon="13.411024649263679"><ele>727.0</ele><time>2026-05-01T11:33:57.999Z</time></trkpt><trkpt lat="41.98052237740557" lon="13.411150351794122"><ele>727.0</ele><time>2026-05-01T11:33:58.999Z</time></trkpt><trkpt lat="41.98064762300033" lon="13.41132517323816"><ele>727.0</ele><time>2026-05-01T11:33:59.999Z</time></trkpt><trkpt lat="41.98078866808512" lon="13.411516740202158"><ele>728.5</ele><time>2026-05-01T11:34:00.999Z</time></trkpt><trkpt lat="41.98095151412978" lon="13.411740927919311"><ele>730.0</ele><time>2026-05-01T11:34:01.999Z</time></trkpt><trkpt lat="41.98113630939118" lon="13.411985845200407"><ele>731.5</ele><time>2026-05-01T11:34:02.999Z</time></trkpt><trkpt lat="41.981309738525695" lon="13.412253327600839"><ele>733.0</ele><time>2026-05-01T11:34:03.999Z</time></trkpt><trkpt lat="41.981497686368584" lon="13.412479409355715"><ele>733.0</ele><time>2026-05-01T11:34:04.999Z</time></trkpt><trkpt lat="41.981650331923746" lon="13.412697760214282"><ele>733.0</ele><time>2026-05-01T11:34:05.999Z</time></trkpt><trkpt lat="41.98179964546527" lon="13.412897347270622"><ele>733.0</ele><time>2026-05-01T11:34:06.999Z</time></trkpt><trkpt lat="41.98194788728348" lon="13.413099256594297"><ele>733.3333333333334</ele><time>2026-05-01T11:34:07.999Z</time></trkpt><trkpt lat="41.98208649070137" lon="13.413288304681851"><ele>733.6666666666666</ele><time>2026-05-01T11:34:08.999Z</time></trkpt><trkpt lat="41.98222786360363" lon="13.413473241813133"><ele>734.0</ele><time>2026-05-01T11:34:09.999Z</time></trkpt><trkpt lat="41.982382571363985" lon="13.413675796837266"><ele>731.5</ele><time>2026-05-01T11:34:10.999Z</time></trkpt><trkpt lat="41.98254954995854" lon="13.413900396631519"><ele>729.0</ele><time>2026-05-01T11:34:11.999Z</time></trkpt><trkpt lat="41.982720597921634" lon="13.414129840544387"><ele>729.0</ele><time>2026-05-01T11:34:12.999Z</time></trkpt><trkpt lat="41.98289813143311" lon="13.414366104502133"><ele>729.0</ele><time>2026-05-01T11:34:13.999Z</time></trkpt><trkpt lat="41.98307854492261" lon="13.414603691817447"><ele>728.0</ele><time>2026-05-01T11:34:14.999Z</time></trkpt><trkpt lat="41.983263731016486" lon="13.414845785394135"><ele>727.0</ele><time>2026-05-01T11:34:15.999Z</time></trkpt><trkpt lat="41.983452326486365" lon="13.415090515522254"><ele>726.5</ele><time>2026-05-01T11:34:16.999Z</time></trkpt><trkpt lat="41.98364201191044" lon="13.415335104724893"><ele>726.0</ele><time>2026-05-01T11:34:17.999Z</time></trkpt><trkpt lat="41.98383191187431" lon="13.41558550567856"><ele>726.0</ele><time>2026-05-01T11:34:18.999Z</time></trkpt><trkpt lat="41.98402111232416" lon="13.415836237967937"><ele>726.0</ele><time>2026-05-01T11:34:19.999Z</time></trkpt><trkpt lat="41.98421088787457" lon="13.416087361923225"><ele>726.0</ele><time>2026-05-01T11:34:20.999Z</time></trkpt><trkpt lat="41.98438970733442" lon="13.416323356166073"><ele>726.0</ele><time>2026-05-01T11:34:21.999Z</time></trkpt><trkpt lat="41.98456511892016" lon="13.416554062731764"><ele>726.0</ele><time>2026-05-01T11:34:22.999Z</time></trkpt><trkpt lat="41.98474384907614" lon="13.416786863629776"><ele>726.0</ele><time>2026-05-01T11:34:23.999Z</time></trkpt><trkpt lat="41.984923779150535" lon="13.417027833416254"><ele>727.5</ele><time>2026-05-01T11:34:24.999Z</time></trkpt><trkpt lat="41.98510225814225" lon="13.417266362749494"><ele>729.0</ele><time>2026-05-01T11:34:25.999Z</time></trkpt><trkpt lat="41.985281830012674" lon="13.4174944403559"><ele>729.0</ele><time>2026-05-01T11:34:26.999Z</time></trkpt><trkpt lat="41.98546079495339" lon="13.417708987001989"><ele>729.0</ele><time>2026-05-01T11:34:27.999Z</time></trkpt><trkpt lat="41.98564297523143" lon="13.41791721415613"><ele>730.0</ele><time>2026-05-01T11:34:28.999Z</time></trkpt><trkpt lat="41.985831134980145" lon="13.418121373843418"><ele>731.0</ele><time>2026-05-01T11:34:29.999Z</time></trkpt><trkpt lat="41.98602582284368" lon="13.418315015038337"><ele>733.0</ele><time>2026-05-01T11:34:30.999Z</time></trkpt><trkpt lat="41.98622304238888" lon="13.418494301168584"><ele>735.0</ele><time>2026-05-01T11:34:31.999Z</time></trkpt><trkpt lat="41.986435310746835" lon="13.418640157089223"><ele>735.0</ele><time>2026-05-01T11:34:32.999Z</time></trkpt><trkpt lat="41.98665720770733" lon="13.418765906886632"><ele>735.0</ele><time>2026-05-01T11:34:33.999Z</time></trkpt><trkpt lat="41.986898974045154" lon="13.41885238105969"><ele>735.0</ele><time>2026-05-01T11:34:34.999Z</time></trkpt><trkpt lat="41.987144302378475" lon="13.418907249998488"><ele>735.0</ele><time>2026-05-01T11:34:35.999Z</time></trkpt><trkpt lat="41.987394258910875" lon="13.418920371000278"><ele>736.0</ele><time>2026-05-01T11:34:36.999Z</time></trkpt><trkpt lat="41.987647547104615" lon="13.418893209631797"><ele>737.0</ele><time>2026-05-01T11:34:37.999Z</time></trkpt><trkpt lat="41.98789766316454" lon="13.418813263077508"><ele>737.0</ele><time>2026-05-01T11:34:38.999Z</time></trkpt><trkpt lat="41.98814407344711" lon="13.418682074280891"><ele>737.0</ele><time>2026-05-01T11:34:39.999Z</time></trkpt><trkpt lat="41.98838766551677" lon="13.41850599665623"><ele>741.0</ele><time>2026-05-01T11:34:40.999Z</time></trkpt><trkpt lat="41.9886349578526" lon="13.418300487227503"><ele>745.0</ele><time>2026-05-01T11:34:41.999Z</time></trkpt><trkpt lat="41.988886173327906" lon="13.418082359696479"><ele>746.5</ele><time>2026-05-01T11:34:42.999Z</time></trkpt><trkpt lat="41.989136358290075" lon="13.417868089431519"><ele>748.0</ele><time>2026-05-01T11:34:43.999Z</time></trkpt><trkpt lat="41.98938354172119" lon="13.417663108064444"><ele>748.0</ele><time>2026-05-01T11:34:44.999Z</time></trkpt><trkpt lat="41.989633753148254" lon="13.417456583508637"><ele>748.0</ele><time>2026-05-01T11:34:45.999Z</time></trkpt><trkpt lat="41.98989370430426" lon="13.417253850777824"><ele>748.0</ele><time>2026-05-01T11:34:46.999Z</time></trkpt><trkpt lat="41.990158233212036" lon="13.41704708627602"><ele>748.0</ele><time>2026-05-01T11:34:47.999Z</time></trkpt><trkpt lat="41.99042535191856" lon="13.416833367124726"><ele>748.0</ele><time>2026-05-01T11:34:48.999Z</time></trkpt><trkpt lat="41.990692649400316" lon="13.416615739878392"><ele>748.0</ele><time>2026-05-01T11:34:49.999Z</time></trkpt><trkpt lat="41.99095611884813" lon="13.416406358336893"><ele>750.5</ele><time>2026-05-01T11:34:50.999Z</time></trkpt><trkpt lat="41.991204101456674" lon="13.416209854421313"><ele>753.0</ele><time>2026-05-01T11:34:51.999Z</time></trkpt><trkpt lat="41.99144197386756" lon="13.416019783697488"><ele>761.0</ele><time>2026-05-01T11:34:52.999Z</time></trkpt><trkpt lat="41.9916746193244" lon="13.415818737132758"><ele>769.0</ele><time>2026-05-01T11:34:53.999Z</time></trkpt><trkpt lat="41.99190178903219" lon="13.415597133311275"><ele>763.0</ele><time>2026-05-01T11:34:54.999Z</time></trkpt><trkpt lat="41.99211554716818" lon="13.415348317007041"><ele>757.0</ele><time>2026-05-01T11:34:55.999Z</time></trkpt><trkpt lat="41.99232055296541" lon="13.415087732005633"><ele>768.5</ele><time>2026-05-01T11:34:56.998Z</time></trkpt><trkpt lat="41.992507640171986" lon="13.414822286944888"><ele>780.0</ele><time>2026-05-01T11:34:57.998Z</time></trkpt><trkpt lat="41.9926562753242" lon="13.41457780282892"><ele>780.0</ele><time>2026-05-01T11:34:58.998Z</time></trkpt><trkpt lat="41.992754853055054" lon="13.414348404393643"><ele>780.0</ele><time>2026-05-01T11:34:59.998Z</time></trkpt><trkpt lat="41.992831325955834" lon="13.414082865339244"><ele>780.0</ele><time>2026-05-01T11:35:00.998Z</time></trkpt><trkpt lat="41.992886611458665" lon="13.413783932547066"><ele>775.5</ele><time>2026-05-01T11:35:01.998Z</time></trkpt><trkpt lat="41.992949706745" lon="13.413477611545051"><ele>771.0</ele><time>2026-05-01T11:35:02.998Z</time></trkpt><trkpt lat="41.993014167530596" lon="13.413202178470787"><ele>768.6666666666666</ele><time>2026-05-01T11:35:03.998Z</time></trkpt><trkpt lat="41.99307915184433" lon="13.412955952394727"><ele>766.3333333333333</ele><time>2026-05-01T11:35:04.998Z</time></trkpt><trkpt lat="41.99316228835405" lon="13.41271916842129"><ele>764.0</ele><time>2026-05-01T11:35:05.998Z</time></trkpt><trkpt lat="41.993286392349304" lon="13.41248453248325"><ele>772.5</ele><time>2026-05-01T11:35:06.998Z</time></trkpt><trkpt lat="41.99344312196372" lon="13.412243959301021"><ele>781.0</ele><time>2026-05-01T11:35:07.998Z</time></trkpt><trkpt lat="41.993598433937535" lon="13.411993198096347"><ele>781.0</ele><time>2026-05-01T11:35:08.998Z</time></trkpt><trkpt lat="41.993750627896" lon="13.411726471731818"><ele>781.0</ele><time>2026-05-01T11:35:10Z</time></trkpt><trkpt lat="41.99388835784115" lon="13.411459118589443"><ele>777.3333333333333</ele><time>2026-05-01T11:35:11Z</time></trkpt><trkpt lat="41.99401251618218" lon="13.411203784562304"><ele>773.6666666666667</ele><time>2026-05-01T11:35:12Z</time></trkpt><trkpt lat="41.99412288356215" lon="13.410964447831889"><ele>770.0</ele><time>2026-05-01T11:35:13Z</time></trkpt><trkpt lat="41.99423001687839" lon="13.410725673189985"><ele>776.0</ele><time>2026-05-01T11:35:14Z</time></trkpt><trkpt lat="41.99433932223047" lon="13.410490729055319"><ele>782.0</ele><time>2026-05-01T11:35:15Z</time></trkpt><trkpt lat="41.994451135191774" lon="13.41025861381718"><ele>788.0</ele><time>2026-05-01T11:35:16Z</time></trkpt><trkpt lat="41.994565412341274" lon="13.410022726355715"><ele>788.0</ele><time>2026-05-01T11:35:17Z</time></trkpt><trkpt lat="41.99468666636065" lon="13.409785357047904"><ele>788.0</ele><time>2026-05-01T11:35:18Z</time></trkpt><trkpt lat="41.99482111839657" lon="13.409553871041922"><ele>788.0</ele><time>2026-05-01T11:35:19Z</time></trkpt><trkpt lat="41.99496218995832" lon="13.409330611571642"><ele>784.6666666666667</ele><time>2026-05-01T11:35:20Z</time></trkpt><trkpt lat="41.995094869214704" lon="13.409115821622036"><ele>781.3333333333333</ele><time>2026-05-01T11:35:21Z</time></trkpt><trkpt lat="41.995215272460925" lon="13.408914332872932"><ele>778.0</ele><time>2026-05-01T11:35:22Z</time></trkpt><trkpt lat="41.995341814387615" lon="13.40872099201095"><ele>778.0</ele><time>2026-05-01T11:35:23Z</time></trkpt><trkpt lat="41.995498912393224" lon="13.408568198012542"><ele>778.0</ele><time>2026-05-01T11:35:24Z</time></trkpt><trkpt lat="41.99565587740677" lon="13.408397880772464"><ele>778.0</ele><time>2026-05-01T11:35:25Z</time></trkpt><trkpt lat="41.995838740118025" lon="13.408275057074706"><ele>785.3333333333333</ele><time>2026-05-01T11:35:26Z</time></trkpt><trkpt lat="41.99603584528154" lon="13.408210827846135"><ele>792.6666666666667</ele><time>2026-05-01T11:35:27Z</time></trkpt><trkpt lat="41.996240420020904" lon="13.408110297105148"><ele>800.0</ele><time>2026-05-01T11:35:28Z</time></trkpt><trkpt lat="41.99646283237201" lon="13.408000788436176"><ele>797.5</ele><time>2026-05-01T11:35:29Z</time></trkpt><trkpt lat="41.9966906741903" lon="13.407839977827031"><ele>795.0</ele><time>2026-05-01T11:35:30Z</time></trkpt><trkpt lat="41.99693492566618" lon="13.407658485976961"><ele>795.0</ele><time>2026-05-01T11:35:31Z</time></trkpt><trkpt lat="41.99717158720549" lon="13.407494574299045"><ele>795.0</ele><time>2026-05-01T11:35:32Z</time></trkpt><trkpt lat="41.99738663853351" lon="13.407350388330219"><ele>792.6666666666667</ele><time>2026-05-01T11:35:33Z</time></trkpt><trkpt lat="41.99758163472762" lon="13.40721463581005"><ele>790.3333333333334</ele><time>2026-05-01T11:35:34Z</time></trkpt><trkpt lat="41.997776231566824" lon="13.407085088751566"><ele>788.0</ele><time>2026-05-01T11:35:35Z</time></trkpt><trkpt lat="41.99798710734286" lon="13.40699518635753"><ele>788.0</ele><time>2026-05-01T11:35:36Z</time></trkpt><trkpt lat="41.99820575383743" lon="13.406901176431443"><ele>788.0</ele><time>2026-05-01T11:35:37Z</time></trkpt><trkpt lat="41.998400598337305" lon="13.406853144713988"><ele>788.0</ele><time>2026-05-01T11:35:38Z</time></trkpt><trkpt lat="41.998548727923016" lon="13.406824433481203"><ele>786.0</ele><time>2026-05-01T11:35:39Z</time></trkpt><trkpt lat="41.99866928777074" lon="13.406851016625046"><ele>784.0</ele><time>2026-05-01T11:35:40Z</time></trkpt><trkpt lat="41.998770369283854" lon="13.406947644746978"><ele>782.0</ele><time>2026-05-01T11:35:41Z</time></trkpt><trkpt lat="41.99891430022393" lon="13.407078988264752"><ele>780.0</ele><time>2026-05-01T11:35:42Z</time></trkpt><trkpt lat="41.99906741059968" lon="13.407213870437758"><ele>789.0</ele><time>2026-05-01T11:35:43Z</time></trkpt><trkpt lat="41.99921749628776" lon="13.407360346410192"><ele>798.0</ele><time>2026-05-01T11:35:44Z</time></trkpt><trkpt lat="41.999348268282176" lon="13.407480732322474"><ele>807.0</ele><time>2026-05-01T11:35:45Z</time></trkpt><trkpt lat="41.99946126077281" lon="13.407581364914256"><ele>807.0</ele><time>2026-05-01T11:35:46Z</time></trkpt><trkpt lat="41.999551585197885" lon="13.407636434173888"><ele>807.0</ele><time>2026-05-01T11:35:47Z</time></trkpt><trkpt lat="41.99964554113384" lon="13.407638751104207"><ele>807.0</ele><time>2026-05-01T11:35:48Z</time></trkpt><trkpt lat="41.99974493107474" lon="13.407554478272067"><ele>807.0</ele><time>2026-05-01T11:35:49Z</time></trkpt><trkpt lat="41.99983717748255" lon="13.40741151072239"><ele>807.0</ele><time>2026-05-01T11:35:50Z</time></trkpt><trkpt lat="41.99994279080384" lon="13.407282459231995"><ele>807.0</ele><time>2026-05-01T11:35:51Z</time></trkpt><trkpt lat="42.000067654616366" lon="13.407201860021972"><ele>807.0</ele><time>2026-05-01T11:35:52Z</time></trkpt><trkpt lat="42.000208459531684" lon="13.407214330749847"><ele>807.0</ele><time>2026-05-01T11:35:52.999Z</time></trkpt><trkpt lat="42.000342311089476" lon="13.407256338291083"><ele>807.0</ele><time>2026-05-01T11:35:53.999Z</time></trkpt><trkpt lat="42.00048260941648" lon="13.407321509471599"><ele>807.0</ele><time>2026-05-01T11:35:54.999Z</time></trkpt><trkpt lat="42.00061928178065" lon="13.407385571534338"><ele>807.0</ele><time>2026-05-01T11:35:55.999Z</time></trkpt><trkpt lat="42.000731261542846" lon="13.407428265899295"><ele>807.0</ele><time>2026-05-01T11:35:56.999Z</time></trkpt><trkpt lat="42.00083402895597" lon="13.407405872838867"><ele>804.6666666666667</ele><time>2026-05-01T11:35:57.999Z</time></trkpt><trkpt lat="42.00091792294983" lon="13.407285214670475"><ele>802.3333333333334</ele><time>2026-05-01T11:35:58.999Z</time></trkpt><trkpt lat="42.00100112530664" lon="13.407107419149966"><ele>800.0</ele><time>2026-05-01T11:35:59.999Z</time></trkpt><trkpt lat="42.00110040467594" lon="13.406917683768437"><ele>800.0</ele><time>2026-05-01T11:36:00.999Z</time></trkpt><trkpt lat="42.00122356744032" lon="13.40672211893113"><ele>800.0</ele><time>2026-05-01T11:36:01.999Z</time></trkpt><trkpt lat="42.001372130070514" lon="13.406518813010369"><ele>800.0</ele><time>2026-05-01T11:36:02.999Z</time></trkpt><trkpt lat="42.00154467992369" lon="13.406308862969496"><ele>804.0</ele><time>2026-05-01T11:36:03.999Z</time></trkpt><trkpt lat="42.00172324240075" lon="13.406104207397384"><ele>808.0</ele><time>2026-05-01T11:36:04.999Z</time></trkpt><trkpt lat="42.00191659829604" lon="13.405898957975483"><ele>808.0</ele><time>2026-05-01T11:36:05.999Z</time></trkpt><trkpt lat="42.002122225017445" lon="13.405686243790903"><ele>808.0</ele><time>2026-05-01T11:36:06.999Z</time></trkpt><trkpt lat="42.00231048604761" lon="13.405489947962403"><ele>808.3333333333333</ele><time>2026-05-01T11:36:07.999Z</time></trkpt><trkpt lat="42.00249906644535" lon="13.405320512641975"><ele>808.6666666666667</ele><time>2026-05-01T11:36:08.999Z</time></trkpt><trkpt lat="42.0026903771067" lon="13.40518496484662"><ele>809.0</ele><time>2026-05-01T11:36:09.999Z</time></trkpt><trkpt lat="42.00287144317125" lon="13.405078682102726"><ele>809.0</ele><time>2026-05-01T11:36:10.999Z</time></trkpt><trkpt lat="42.00306103976403" lon="13.404986945793976"><ele>809.0</ele><time>2026-05-01T11:36:11.999Z</time></trkpt><trkpt lat="42.003262861043815" lon="13.404956665151818"><ele>809.0</ele><time>2026-05-01T11:36:12.999Z</time></trkpt><trkpt lat="42.00348592917742" lon="13.404922401957544"><ele>818.0</ele><time>2026-05-01T11:36:13.999Z</time></trkpt><trkpt lat="42.00372568802589" lon="13.404917061532489"><ele>827.0</ele><time>2026-05-01T11:36:14.999Z</time></trkpt><trkpt lat="42.00397149014274" lon="13.404897079359511"><ele>830.5</ele><time>2026-05-01T11:36:15.999Z</time></trkpt><trkpt lat="42.00421486712405" lon="13.404864295766297"><ele>834.0</ele><time>2026-05-01T11:36:16.999Z</time></trkpt><trkpt lat="42.0044365292107" lon="13.404830509965526"><ele>834.0</ele><time>2026-05-01T11:36:17.999Z</time></trkpt><trkpt lat="42.00463705011032" lon="13.40479863573332"><ele>834.0</ele><time>2026-05-01T11:36:18.999Z</time></trkpt><trkpt lat="42.00482042783123" lon="13.404770560684787"><ele>834.0</ele><time>2026-05-01T11:36:19.999Z</time></trkpt><trkpt lat="42.00500031520314" lon="13.404745086091246"><ele>836.6666666666667</ele><time>2026-05-01T11:36:20.999Z</time></trkpt><trkpt lat="42.00518455192675" lon="13.404736933494757"><ele>839.3333333333334</ele><time>2026-05-01T11:36:21.999Z</time></trkpt><trkpt lat="42.00537659721308" lon="13.404799001382756"><ele>842.0</ele><time>2026-05-01T11:36:22.999Z</time></trkpt><trkpt lat="42.005581446112245" lon="13.404843865960803"><ele>842.0</ele><time>2026-05-01T11:36:23.999Z</time></trkpt><trkpt lat="42.0057523204892" lon="13.404921232089606"><ele>842.0</ele><time>2026-05-01T11:36:24.999Z</time></trkpt><trkpt lat="42.00585848321221" lon="13.404990038594596"><ele>842.0</ele><time>2026-05-01T11:36:25.999Z</time></trkpt><trkpt lat="42.00593313752188" lon="13.405083182810984"><ele>842.0</ele><time>2026-05-01T11:36:26.999Z</time></trkpt><trkpt lat="42.00594226499474" lon="13.405249592620756"><ele>840.6666666666667</ele><time>2026-05-01T11:36:27.999Z</time></trkpt><trkpt lat="42.00597591436328" lon="13.405447733289712"><ele>839.3333333333333</ele><time>2026-05-01T11:36:28.999Z</time></trkpt><trkpt lat="42.00604448534559" lon="13.405646560512432"><ele>838.0</ele><time>2026-05-01T11:36:29.999Z</time></trkpt><trkpt lat="42.00614986572264" lon="13.405830363731502"><ele>842.25</ele><time>2026-05-01T11:36:30.999Z</time></trkpt><trkpt lat="42.00627524549425" lon="13.405978021218507"><ele>846.5</ele><time>2026-05-01T11:36:31.999Z</time></trkpt><trkpt lat="42.00638820016624" lon="13.406093880848308"><ele>850.75</ele><time>2026-05-01T11:36:32.999Z</time></trkpt><trkpt lat="42.00648543953453" lon="13.406169186773832"><ele>855.0</ele><time>2026-05-01T11:36:33.999Z</time></trkpt><trkpt lat="42.00657115134407" lon="13.406197441621911"><ele>853.5</ele><time>2026-05-01T11:36:34.999Z</time></trkpt><trkpt lat="42.00666639058152" lon="13.406170033443296"><ele>852.0</ele><time>2026-05-01T11:36:35.999Z</time></trkpt><trkpt lat="42.006762676664785" lon="13.406051800468314"><ele>850.5</ele><time>2026-05-01T11:36:36.999Z</time></trkpt><trkpt lat="42.006828070748554" lon="13.405847968407047"><ele>849.0</ele><time>2026-05-01T11:36:37.999Z</time></trkpt><trkpt lat="42.00687450857029" lon="13.405658157294708"><ele>844.0</ele><time>2026-05-01T11:36:38.999Z</time></trkpt><trkpt lat="42.006909813283634" lon="13.405447100263114"><ele>839.0</ele><time>2026-05-01T11:36:39.999Z</time></trkpt><trkpt lat="42.00697834218613" lon="13.405240793639457"><ele>834.0</ele><time>2026-05-01T11:36:40.999Z</time></trkpt><trkpt lat="42.007085790077916" lon="13.40504870363568"><ele>834.0</ele><time>2026-05-01T11:36:41.999Z</time></trkpt><trkpt lat="42.00723284135621" lon="13.404875131758555"><ele>834.0</ele><time>2026-05-01T11:36:42.999Z</time></trkpt><trkpt lat="42.007417670708975" lon="13.404717463124179"><ele>834.0</ele><time>2026-05-01T11:36:43.999Z</time></trkpt><trkpt lat="42.007624107120115" lon="13.40455758784117"><ele>836.5</ele><time>2026-05-01T11:36:44.999Z</time></trkpt><trkpt lat="42.007838582638776" lon="13.404388073812772"><ele>839.0</ele><time>2026-05-01T11:36:45.999Z</time></trkpt><trkpt lat="42.0080463313367" lon="13.404223663864904"><ele>839.0</ele><time>2026-05-01T11:36:46.999Z</time></trkpt><trkpt lat="42.00822252680922" lon="13.404082104539544"><ele>839.0</ele><time>2026-05-01T11:36:47.999Z</time></trkpt><trkpt lat="42.00840227127389" lon="13.403996045769153"><ele>839.0</ele><time>2026-05-01T11:36:48.999Z</time></trkpt><trkpt lat="42.008596798389014" lon="13.403941323259174"><ele>850.5</ele><time>2026-05-01T11:36:49.999Z</time></trkpt><trkpt lat="42.00882050382336" lon="13.40390360931625"><ele>862.0</ele><time>2026-05-01T11:36:50.999Z</time></trkpt><trkpt lat="42.009067894465964" lon="13.403837977316051"><ele>853.0</ele><time>2026-05-01T11:36:51.999Z</time></trkpt><trkpt lat="42.00930603288907" lon="13.403786318801465"><ele>844.0</ele><time>2026-05-01T11:36:52.999Z</time></trkpt><trkpt lat="42.00951190754925" lon="13.403721100966381"><ele>844.0</ele><time>2026-05-01T11:36:53.999Z</time></trkpt><trkpt lat="42.009696206821204" lon="13.403658753289626"><ele>844.0</ele><time>2026-05-01T11:36:54.999Z</time></trkpt><trkpt lat="42.009879313450035" lon="13.403680227997183"><ele>844.0</ele><time>2026-05-01T11:36:55.999Z</time></trkpt><trkpt lat="42.010082466264535" lon="13.403737529266873"><ele>846.6666666666666</ele><time>2026-05-01T11:36:56.999Z</time></trkpt><trkpt lat="42.010285414810646" lon="13.40380066510811"><ele>849.3333333333333</ele><time>2026-05-01T11:36:57.999Z</time></trkpt><trkpt lat="42.010459439417396" lon="13.403840322433487"><ele>852.0</ele><time>2026-05-01T11:36:58.999Z</time></trkpt><trkpt lat="42.010593449697744" lon="13.403837437677826"><ele>852.0</ele><time>2026-05-01T11:36:59.999Z</time></trkpt><trkpt lat="42.01070753207202" lon="13.403751086153902"><ele>852.0</ele><time>2026-05-01T11:37:00.998Z</time></trkpt><trkpt lat="42.010813369352064" lon="13.403597720365083"><ele>852.0</ele><time>2026-05-01T11:37:01.998Z</time></trkpt><trkpt lat="42.01093420464924" lon="13.4034186051478"><ele>857.0</ele><time>2026-05-01T11:37:02.998Z</time></trkpt><trkpt lat="42.011066933354556" lon="13.403264715308557"><ele>862.0</ele><time>2026-05-01T11:37:03.998Z</time></trkpt><trkpt lat="42.01121075026808" lon="13.403174604714433"><ele>867.0</ele><time>2026-05-01T11:37:04.998Z</time></trkpt><trkpt lat="42.011387676533396" lon="13.403114111158002"><ele>867.0</ele><time>2026-05-01T11:37:05.998Z</time></trkpt><trkpt lat="42.0115992966416" lon="13.403049220436074"><ele>867.0</ele><time>2026-05-01T11:37:06.998Z</time></trkpt><trkpt lat="42.01181505083487" lon="13.402967353258816"><ele>867.0</ele><time>2026-05-01T11:37:07.998Z</time></trkpt><trkpt lat="42.01203624775709" lon="13.402903451438073"><ele>866.0</ele><time>2026-05-01T11:37:08.998Z</time></trkpt><trkpt lat="42.01226416642399" lon="13.402866664150379"><ele>865.0</ele><time>2026-05-01T11:37:09.998Z</time></trkpt><trkpt lat="42.0125081063297" lon="13.40282980998343"><ele>865.0</ele><time>2026-05-01T11:37:10.998Z</time></trkpt><trkpt lat="42.01276638417691" lon="13.40278015434063"><ele>865.0</ele><time>2026-05-01T11:37:11.998Z</time></trkpt><trkpt lat="42.013034108455564" lon="13.40276427410491"><ele>865.0</ele><time>2026-05-01T11:37:12.998Z</time></trkpt><trkpt lat="42.01329302282222" lon="13.402736322178553"><ele>865.0</ele><time>2026-05-01T11:37:13.998Z</time></trkpt><trkpt lat="42.01355948066613" lon="13.402702886953271"><ele>870.0</ele><time>2026-05-01T11:37:14.998Z</time></trkpt><trkpt lat="42.01382020096336" lon="13.402673676586442"><ele>875.0</ele><time>2026-05-01T11:37:16Z</time></trkpt><trkpt lat="42.01405354752506" lon="13.402650181654623"><ele>880.0</ele><time>2026-05-01T11:37:17Z</time></trkpt><trkpt lat="42.014279117050584" lon="13.402622551302255"><ele>885.0</ele><time>2026-05-01T11:37:18Z</time></trkpt><trkpt lat="42.01450439633035" lon="13.40255709375631"><ele>885.0</ele><time>2026-05-01T11:37:19Z</time></trkpt><trkpt lat="42.014743193645145" lon="13.402432869673492"><ele>885.0</ele><time>2026-05-01T11:37:20Z</time></trkpt><trkpt lat="42.014974707313876" lon="13.402296601885892"><ele>883.3333333333333</ele><time>2026-05-01T11:37:21Z</time></trkpt><trkpt lat="42.01518115206027" lon="13.402189779442189"><ele>881.6666666666666</ele><time>2026-05-01T11:37:22Z</time></trkpt><trkpt lat="42.01537394596088" lon="13.40209700954193"><ele>880.0</ele><time>2026-05-01T11:37:23Z</time></trkpt><trkpt lat="42.01554461031633" lon="13.402019956964054"><ele>880.0</ele><time>2026-05-01T11:37:24Z</time></trkpt><trkpt lat="42.01568219942454" lon="13.401954126848828"><ele>880.0</ele><time>2026-05-01T11:37:25Z</time></trkpt><trkpt lat="42.01580149408238" lon="13.401909548867618"><ele>880.0</ele><time>2026-05-01T11:37:26Z</time></trkpt><trkpt lat="42.015920968828944" lon="13.401995878605305"><ele>880.0</ele><time>2026-05-01T11:37:27Z</time></trkpt><trkpt lat="42.01607527022394" lon="13.402108753552064"><ele>885.6666666666666</ele><time>2026-05-01T11:37:28Z</time></trkpt><trkpt lat="42.016245985617516" lon="13.402224857894723"><ele>891.3333333333333</ele><time>2026-05-01T11:37:29Z</time></trkpt><trkpt lat="42.016392986923215" lon="13.402346706570981"><ele>897.0</ele><time>2026-05-01T11:37:30Z</time></trkpt><trkpt lat="42.01653674698945" lon="13.402483224809298"><ele>897.0</ele><time>2026-05-01T11:37:31Z</time></trkpt><trkpt lat="42.01663659965271" lon="13.402694463378605"><ele>897.0</ele><time>2026-05-01T11:37:32Z</time></trkpt><trkpt lat="42.0167557133677" lon="13.402913011870563"><ele>897.0</ele><time>2026-05-01T11:37:33Z</time></trkpt><trkpt lat="42.01682543742638" lon="13.403169859680952"><ele>898.0</ele><time>2026-05-01T11:37:34Z</time></trkpt><trkpt lat="42.01684742156551" lon="13.403445159256181"><ele>899.0</ele><time>2026-05-01T11:37:35Z</time></trkpt><trkpt lat="42.01682587435438" lon="13.403704787975451"><ele>900.0</ele><time>2026-05-01T11:37:36Z</time></trkpt><trkpt lat="42.016822404272" lon="13.403907183201401"><ele>901.75</ele><time>2026-05-01T11:37:37Z</time></trkpt><trkpt lat="42.016877648059406" lon="13.404062648809058"><ele>903.5</ele><time>2026-05-01T11:37:38Z</time></trkpt><trkpt lat="42.016970818258834" lon="13.404169965067245"><ele>905.25</ele><time>2026-05-01T11:37:39Z</time></trkpt><trkpt lat="42.01709257167613" lon="13.404222701447475"><ele>907.0</ele><time>2026-05-01T11:37:40Z</time></trkpt><trkpt lat="42.01721676303132" lon="13.404261554575562"><ele>907.0</ele><time>2026-05-01T11:37:41Z</time></trkpt><trkpt lat="42.017313888552145" lon="13.404310733991844"><ele>907.0</ele><time>2026-05-01T11:37:42Z</time></trkpt><trkpt lat="42.017379786407325" lon="13.404369274418363"><ele>907.0</ele><time>2026-05-01T11:37:43Z</time></trkpt><trkpt lat="42.01743533729642" lon="13.404433057896174"><ele>907.0</ele><time>2026-05-01T11:37:44Z</time></trkpt><trkpt lat="42.01750260462381" lon="13.404513934326628"><ele>907.0</ele><time>2026-05-01T11:37:45Z</time></trkpt><trkpt lat="42.01758038539575" lon="13.404660609160084"><ele>904.3333333333333</ele><time>2026-05-01T11:37:46Z</time></trkpt><trkpt lat="42.017658884928835" lon="13.404840281314831"><ele>901.6666666666667</ele><time>2026-05-01T11:37:47Z</time></trkpt><trkpt lat="42.01773611751728" lon="13.405079927071435"><ele>899.0</ele><time>2026-05-01T11:37:48Z</time></trkpt><trkpt lat="42.01778267271093" lon="13.40533559751646"><ele>897.6666666666667</ele><time>2026-05-01T11:37:49Z</time></trkpt><trkpt lat="42.01777846915127" lon="13.405629478098477"><ele>896.3333333333333</ele><time>2026-05-01T11:37:50Z</time></trkpt><trkpt lat="42.01775518255863" lon="13.405921653491903"><ele>895.0</ele><time>2026-05-01T11:37:51Z</time></trkpt><trkpt lat="42.01774782094149" lon="13.406197926382083"><ele>893.6666666666666</ele><time>2026-05-01T11:37:52Z</time></trkpt><trkpt lat="42.01772723292983" lon="13.406450063989736"><ele>892.3333333333333</ele><time>2026-05-01T11:37:53Z</time></trkpt><trkpt lat="42.017680880640675" lon="13.406686197763335"><ele>891.0</ele><time>2026-05-01T11:37:54Z</time></trkpt><trkpt lat="42.01759913238713" lon="13.40689751484911"><ele>891.0</ele><time>2026-05-01T11:37:55Z</time></trkpt><trkpt lat="42.017505146879266" lon="13.40708212407746"><ele>891.0</ele><time>2026-05-01T11:37:56Z</time></trkpt><trkpt lat="42.01743267005634" lon="13.407212406905437"><ele>891.0</ele><time>2026-05-01T11:37:57Z</time></trkpt><trkpt lat="42.017397498983335" lon="13.407317644946854"><ele>891.0</ele><time>2026-05-01T11:37:58Z</time></trkpt><trkpt lat="42.01741738670733" lon="13.40743017605029"><ele>890.5</ele><time>2026-05-01T11:37:59Z</time></trkpt><trkpt lat="42.017494670643735" lon="13.407530325516895"><ele>890.0</ele><time>2026-05-01T11:37:59.999Z</time></trkpt><trkpt lat="42.01761350767802" lon="13.407552786813513"><ele>889.5</ele><time>2026-05-01T11:38:00.999Z</time></trkpt><trkpt lat="42.01772605158752" lon="13.407471213149094"><ele>889.0</ele><time>2026-05-01T11:38:01.999Z</time></trkpt><trkpt lat="42.01782859279677" lon="13.407317934108105"><ele>889.6666666666666</ele><time>2026-05-01T11:38:02.999Z</time></trkpt><trkpt lat="42.01795477170801" lon="13.407140745700866"><ele>890.3333333333333</ele><time>2026-05-01T11:38:03.999Z</time></trkpt><trkpt lat="42.01810527699737" lon="13.406966968842047"><ele>891.0</ele><time>2026-05-01T11:38:04.999Z</time></trkpt><trkpt lat="42.018254193821164" lon="13.406805423080952"><ele>891.25</ele><time>2026-05-01T11:38:05.999Z</time></trkpt><trkpt lat="42.01837940640364" lon="13.406673416355975"><ele>891.5</ele><time>2026-05-01T11:38:06.999Z</time></trkpt><trkpt lat="42.018474490147916" lon="13.406572854069397"><ele>891.75</ele><time>2026-05-01T11:38:07.999Z</time></trkpt><trkpt lat="42.0185715519796" lon="13.40651737228113"><ele>892.0</ele><time>2026-05-01T11:38:08.999Z</time></trkpt><trkpt lat="42.0186924765596" lon="13.406526518174005"><ele>892.0</ele><time>2026-05-01T11:38:09.999Z</time></trkpt><trkpt lat="42.01883273376543" lon="13.406645449644458"><ele>892.0</ele><time>2026-05-01T11:38:10.999Z</time></trkpt><trkpt lat="42.01898075356238" lon="13.406804631487864"><ele>892.0</ele><time>2026-05-01T11:38:11.999Z</time></trkpt><trkpt lat="42.019158390888826" lon="13.40696526179347"><ele>892.0</ele><time>2026-05-01T11:38:12.999Z</time></trkpt><trkpt lat="42.01936763666504" lon="13.407101111131558"><ele>892.0</ele><time>2026-05-01T11:38:13.999Z</time></trkpt><trkpt lat="42.01957752682742" lon="13.40722257167491"><ele>888.0</ele><time>2026-05-01T11:38:14.999Z</time></trkpt><trkpt lat="42.01976007096546" lon="13.40732985497956"><ele>884.0</ele><time>2026-05-01T11:38:15.999Z</time></trkpt><trkpt lat="42.01992262741481" lon="13.4074331832519"><ele>880.0</ele><time>2026-05-01T11:38:16.999Z</time></trkpt><trkpt lat="42.02005941177084" lon="13.407511514207554"><ele>880.0</ele><time>2026-05-01T11:38:17.999Z</time></trkpt><trkpt lat="42.020182587491135" lon="13.40756582127067"><ele>880.0</ele><time>2026-05-01T11:38:18.999Z</time></trkpt><trkpt lat="42.02035287258842" lon="13.407572182669579"><ele>880.0</ele><time>2026-05-01T11:38:19.999Z</time></trkpt><trkpt lat="42.02052576107626" lon="13.407513793091356"><ele>880.0</ele><time>2026-05-01T11:38:20.999Z</time></trkpt><trkpt lat="42.020678368064715" lon="13.407440337763394"><ele>880.0</ele><time>2026-05-01T11:38:21.999Z</time></trkpt><trkpt lat="42.02081567646758" lon="13.40737020780331"><ele>880.0</ele><time>2026-05-01T11:38:22.999Z</time></trkpt><trkpt lat="42.02094808445454" lon="13.407241846949548"><ele>883.0</ele><time>2026-05-01T11:38:23.999Z</time></trkpt><trkpt lat="42.0210432590059" lon="13.407043545277263"><ele>886.0</ele><time>2026-05-01T11:38:24.999Z</time></trkpt><trkpt lat="42.021103685070386" lon="13.406850452023937"><ele>889.0</ele><time>2026-05-01T11:38:25.999Z</time></trkpt><trkpt lat="42.02116286711335" lon="13.406684378767904"><ele>889.0</ele><time>2026-05-01T11:38:26.999Z</time></trkpt><trkpt lat="42.02125146867065" lon="13.406539607876462"><ele>889.0</ele><time>2026-05-01T11:38:27.999Z</time></trkpt><trkpt lat="42.02138707315655" lon="13.406440291305515"><ele>889.0</ele><time>2026-05-01T11:38:28.999Z</time></trkpt><trkpt lat="42.02154839940495" lon="13.406404896405592"><ele>882.3333333333333</ele><time>2026-05-01T11:38:29.999Z</time></trkpt><trkpt lat="42.021718692475154" lon="13.406436889953296"><ele>875.6666666666667</ele><time>2026-05-01T11:38:30.999Z</time></trkpt><trkpt lat="42.021868914671515" lon="13.406520918483817"><ele>869.0</ele><time>2026-05-01T11:38:31.999Z</time></trkpt><trkpt lat="42.02199977865413" lon="13.40656685372273"><ele>869.0</ele><time>2026-05-01T11:38:32.999Z</time></trkpt><trkpt lat="42.02211870319452" lon="13.40652861580188"><ele>869.0</ele><time>2026-05-01T11:38:33.999Z</time></trkpt><trkpt lat="42.02222244007193" lon="13.406402873942975"><ele>869.0</ele><time>2026-05-01T11:38:34.999Z</time></trkpt><trkpt lat="42.02229483867778" lon="13.406187203747718"><ele>869.0</ele><time>2026-05-01T11:38:35.999Z</time></trkpt><trkpt lat="42.02235856761291" lon="13.405946275673475"><ele>871.0</ele><time>2026-05-01T11:38:36.999Z</time></trkpt><trkpt lat="42.02243156481484" lon="13.40570149623419"><ele>873.0</ele><time>2026-05-01T11:38:37.999Z</time></trkpt><trkpt lat="42.02248903235833" lon="13.405440584688831"><ele>875.0</ele><time>2026-05-01T11:38:38.999Z</time></trkpt><trkpt lat="42.02252842452305" lon="13.405201562373364"><ele>875.0</ele><time>2026-05-01T11:38:39.999Z</time></trkpt><trkpt lat="42.022558477226916" lon="13.405000695761322"><ele>875.0</ele><time>2026-05-01T11:38:40.999Z</time></trkpt><trkpt lat="42.02260565562639" lon="13.404853020781234"><ele>875.0</ele><time>2026-05-01T11:38:41.999Z</time></trkpt><trkpt lat="42.02269451924003" lon="13.404740689023164"><ele>875.0</ele><time>2026-05-01T11:38:42.999Z</time></trkpt><trkpt lat="42.02282390305206" lon="13.40472146121794"><ele>875.0</ele><time>2026-05-01T11:38:43.999Z</time></trkpt><trkpt lat="42.02294998908665" lon="13.404778021185129"><ele>875.0</ele><time>2026-05-01T11:38:44.999Z</time></trkpt><trkpt lat="42.02307177933444" lon="13.404896693557628"><ele>875.0</ele><time>2026-05-01T11:38:45.999Z</time></trkpt><trkpt lat="42.02316843503236" lon="13.405046110348161"><ele>875.0</ele><time>2026-05-01T11:38:46.999Z</time></trkpt><trkpt lat="42.02321819806624" lon="13.405236118228565"><ele>875.0</ele><time>2026-05-01T11:38:47.999Z</time></trkpt><trkpt lat="42.023269648165794" lon="13.405456101767019"><ele>875.0</ele><time>2026-05-01T11:38:48.999Z</time></trkpt><trkpt lat="42.02335013749123" lon="13.405654136382891"><ele>875.0</ele><time>2026-05-01T11:38:49.999Z</time></trkpt><trkpt lat="42.023473613138755" lon="13.405862146232373"><ele>868.0</ele><time>2026-05-01T11:38:50.999Z</time></trkpt><trkpt lat="42.02361308882433" lon="13.406072809001927"><ele>861.0</ele><time>2026-05-01T11:38:51.999Z</time></trkpt><trkpt lat="42.02376683503998" lon="13.406269393177698"><ele>854.0</ele><time>2026-05-01T11:38:52.999Z</time></trkpt><trkpt lat="42.02392130005214" lon="13.406428725604338"><ele>852.0</ele><time>2026-05-01T11:38:53.999Z</time></trkpt><trkpt lat="42.02406772880422" lon="13.406565401776739"><ele>850.0</ele><time>2026-05-01T11:38:54.999Z</time></trkpt><trkpt lat="42.02419066086239" lon="13.406681271074547"><ele>848.0</ele><time>2026-05-01T11:38:55.999Z</time></trkpt><trkpt lat="42.02429256210573" lon="13.406776977987061"><ele>848.0</ele><time>2026-05-01T11:38:56.999Z</time></trkpt><trkpt lat="42.0243704243779" lon="13.40683182037427"><ele>848.0</ele><time>2026-05-01T11:38:57.999Z</time></trkpt><trkpt lat="42.0244302259898" lon="13.40686116058845"><ele>848.0</ele><time>2026-05-01T11:38:58.999Z</time></trkpt><trkpt lat="42.024566121036735" lon="13.406901709078896"><ele>848.0</ele><time>2026-05-01T11:39:00.999Z</time></trkpt><trkpt lat="42.02467551518083" lon="13.406930146617501"><ele>848.0</ele><time>2026-05-01T11:39:01.999Z</time></trkpt><trkpt lat="42.02481386756134" lon="13.406965451264393"><ele>849.0</ele><time>2026-05-01T11:39:02.999Z</time></trkpt><trkpt lat="42.02498688329998" lon="13.407007505656257"><ele>850.0</ele><time>2026-05-01T11:39:03.999Z</time></trkpt><trkpt lat="42.02517442353912" lon="13.407065281428393"><ele>851.0</ele><time>2026-05-01T11:39:04.999Z</time></trkpt><trkpt lat="42.02536477462449" lon="13.407133306797537"><ele>845.6666666666667</ele><time>2026-05-01T11:39:05.999Z</time></trkpt><trkpt lat="42.02556463548957" lon="13.407191199715733"><ele>840.3333333333333</ele><time>2026-05-01T11:39:06.998Z</time></trkpt><trkpt lat="42.02577445957734" lon="13.407237276986242"><ele>835.0</ele><time>2026-05-01T11:39:07.998Z</time></trkpt><trkpt lat="42.02597205299365" lon="13.407277615700108"><ele>835.0</ele><time>2026-05-01T11:39:08.998Z</time></trkpt><trkpt lat="42.02615889611556" lon="13.407314290851877"><ele>835.0</ele><time>2026-05-01T11:39:09.998Z</time></trkpt><trkpt lat="42.02632748651358" lon="13.40734929519401"><ele>835.0</ele><time>2026-05-01T11:39:10.998Z</time></trkpt><trkpt lat="42.026492934646576" lon="13.407387084246555"><ele>835.0</ele><time>2026-05-01T11:39:11.998Z</time></trkpt><trkpt lat="42.02664131493286" lon="13.407442946387404"><ele>835.0</ele><time>2026-05-01T11:39:12.998Z</time></trkpt><trkpt lat="42.02676779588678" lon="13.40754050044033"><ele>835.0</ele><time>2026-05-01T11:39:13.998Z</time></trkpt><trkpt lat="42.02683563094805" lon="13.407716406999825"><ele>835.0</ele><time>2026-05-01T11:39:14.998Z</time></trkpt><trkpt lat="42.026917210270334" lon="13.40788015401611"><ele>829.3333333333333</ele><time>2026-05-01T11:39:15.998Z</time></trkpt><trkpt lat="42.02701673038359" lon="13.40801076873486"><ele>823.6666666666667</ele><time>2026-05-01T11:39:16.998Z</time></trkpt><trkpt lat="42.027164085606444" lon="13.40814208491957"><ele>818.0</ele><time>2026-05-01T11:39:17.998Z</time></trkpt><trkpt lat="42.02733578057396" lon="13.408242947051571"><ele>824.0</ele><time>2026-05-01T11:39:18.998Z</time></trkpt><trkpt lat="42.027534110681906" lon="13.408312330823415"><ele>830.0</ele><time>2026-05-01T11:39:19.998Z</time></trkpt><trkpt lat="42.02773236648556" lon="13.408357779193686"><ele>836.0</ele><time>2026-05-01T11:39:21Z</time></trkpt><trkpt lat="42.02790854467847" lon="13.408389919861298"><ele>836.0</ele><time>2026-05-01T11:39:22Z</time></trkpt><trkpt lat="42.028068835667284" lon="13.408419497641045"><ele>836.0</ele><time>2026-05-01T11:39:23Z</time></trkpt><trkpt lat="42.02820189781186" lon="13.408448550591741"><ele>836.0</ele><time>2026-05-01T11:39:24Z</time></trkpt><trkpt lat="42.0283240926274" lon="13.408446280630477"><ele>836.0</ele><time>2026-05-01T11:39:25Z</time></trkpt><trkpt lat="42.02845404765307" lon="13.408372378448144"><ele>834.0</ele><time>2026-05-01T11:39:26Z</time></trkpt><trkpt lat="42.02857331339334" lon="13.408197674948605"><ele>832.0</ele><time>2026-05-01T11:39:27Z</time></trkpt><trkpt lat="42.028671370971736" lon="13.407991039389564"><ele>830.0</ele><time>2026-05-01T11:39:28Z</time></trkpt><trkpt lat="42.02877576149137" lon="13.407759362301123"><ele>830.5</ele><time>2026-05-01T11:39:29Z</time></trkpt><trkpt lat="42.02889167325226" lon="13.407563806605442"><ele>831.0</ele><time>2026-05-01T11:39:30Z</time></trkpt><trkpt lat="42.02900213913316" lon="13.407421182096622"><ele>831.5</ele><time>2026-05-01T11:39:31Z</time></trkpt><trkpt lat="42.02907450936041" lon="13.407352239013106"><ele>832.0</ele><time>2026-05-01T11:39:32Z</time></trkpt><trkpt lat="42.02915169498241" lon="13.407331735482545"><ele>832.0</ele><time>2026-05-01T11:39:33Z</time></trkpt><trkpt lat="42.02926498416379" lon="13.407370192885573"><ele>832.0</ele><time>2026-05-01T11:39:34Z</time></trkpt><trkpt lat="42.029380349910404" lon="13.407502211256563"><ele>832.0</ele><time>2026-05-01T11:39:35Z</time></trkpt><trkpt lat="42.02943656987029" lon="13.407697634134237"><ele>832.0</ele><time>2026-05-01T11:39:36Z</time></trkpt><trkpt lat="42.02950077842734" lon="13.407909731310928"><ele>824.6666666666666</ele><time>2026-05-01T11:39:37Z</time></trkpt><trkpt lat="42.0295902119939" lon="13.40812314912103"><ele>817.3333333333333</ele><time>2026-05-01T11:39:38Z</time></trkpt><trkpt lat="42.02967634298592" lon="13.408333496255574"><ele>810.0</ele><time>2026-05-01T11:39:39Z</time></trkpt><trkpt lat="42.0297916169664" lon="13.408527589526443"><ele>810.0</ele><time>2026-05-01T11:39:40Z</time></trkpt><trkpt lat="42.02992880473793" lon="13.408692414127692"><ele>810.0</ele><time>2026-05-01T11:39:41Z</time></trkpt><trkpt lat="42.030065627913004" lon="13.408827601480057"><ele>810.0</ele><time>2026-05-01T11:39:41.999Z</time></trkpt><trkpt lat="42.030226460875795" lon="13.408917140546048"><ele>808.0</ele><time>2026-05-01T11:39:42.999Z</time></trkpt><trkpt lat="42.03042249766378" lon="13.408932573362643"><ele>806.0</ele><time>2026-05-01T11:39:43.999Z</time></trkpt><trkpt lat="42.03062843170895" lon="13.408906468341392"><ele>804.0</ele><time>2026-05-01T11:39:44.999Z</time></trkpt><trkpt lat="42.03081779813387" lon="13.408866209015553"><ele>812.6666666666667</ele><time>2026-05-01T11:39:45.999Z</time></trkpt><trkpt lat="42.03098901465595" lon="13.40881527882625"><ele>821.3333333333334</ele><time>2026-05-01T11:39:46.999Z</time></trkpt><trkpt lat="42.03113859649251" lon="13.40873055955418"><ele>830.0</ele><time>2026-05-01T11:39:47.999Z</time></trkpt><trkpt lat="42.031262550256564" lon="13.40859197574267"><ele>830.0</ele><time>2026-05-01T11:39:48.999Z</time></trkpt><trkpt lat="42.03134350364252" lon="13.408384225609618"><ele>830.0</ele><time>2026-05-01T11:39:49.999Z</time></trkpt><trkpt lat="42.03140272798403" lon="13.408161642446434"><ele>830.0</ele><time>2026-05-01T11:39:50.999Z</time></trkpt><trkpt lat="42.03143572563971" lon="13.407994946478892"><ele>828.5</ele><time>2026-05-01T11:39:51.999Z</time></trkpt><trkpt lat="42.03147903263366" lon="13.407873874256863"><ele>827.0</ele><time>2026-05-01T11:39:52.999Z</time></trkpt><trkpt lat="42.03154450997679" lon="13.407750829250212"><ele>825.5</ele><time>2026-05-01T11:39:53.999Z</time></trkpt><trkpt lat="42.03167185672386" lon="13.407717754293998"><ele>824.0</ele><time>2026-05-01T11:39:54.999Z</time></trkpt><trkpt lat="42.03180596440334" lon="13.407760863944963"><ele>824.0</ele><time>2026-05-01T11:39:55.999Z</time></trkpt><trkpt lat="42.03195602809055" lon="13.407884390342582"><ele>824.0</ele><time>2026-05-01T11:39:56.999Z</time></trkpt><trkpt lat="42.03209697956339" lon="13.407976257941783"><ele>824.0</ele><time>2026-05-01T11:39:57.999Z</time></trkpt><trkpt lat="42.03223356175638" lon="13.408015968966776"><ele>823.75</ele><time>2026-05-01T11:39:58.999Z</time></trkpt><trkpt lat="42.03237156335701" lon="13.408011449479067"><ele>823.5</ele><time>2026-05-01T11:39:59.999Z</time></trkpt><trkpt lat="42.032513124466185" lon="13.407939796335533"><ele>823.25</ele><time>2026-05-01T11:40:00.999Z</time></trkpt><trkpt lat="42.032637407744005" lon="13.407828229705407"><ele>823.0</ele><time>2026-05-01T11:40:01.999Z</time></trkpt><trkpt lat="42.032766357399666" lon="13.407810030286932"><ele>823.0</ele><time>2026-05-01T11:40:02.999Z</time></trkpt><trkpt lat="42.03289166396631" lon="13.407864266645197"><ele>823.0</ele><time>2026-05-01T11:40:03.999Z</time></trkpt><trkpt lat="42.032980160524545" lon="13.408028415854641"><ele>823.0</ele><time>2026-05-01T11:40:04.999Z</time></trkpt><trkpt lat="42.03299193922418" lon="13.40822859800814"><ele>823.0</ele><time>2026-05-01T11:40:05.999Z</time></trkpt><trkpt lat="42.03299362657281" lon="13.408444398728882"><ele>817.5</ele><time>2026-05-01T11:40:06.999Z</time></trkpt><trkpt lat="42.03302638009293" lon="13.408646604107318"><ele>812.0</ele><time>2026-05-01T11:40:07.999Z</time></trkpt><trkpt lat="42.03308480129648" lon="13.408827621514673"><ele>806.5</ele><time>2026-05-01T11:40:08.999Z</time></trkpt><trkpt lat="42.03316516226849" lon="13.40898682838676"><ele>801.0</ele><time>2026-05-01T11:40:09.999Z</time></trkpt><trkpt lat="42.03329917232768" lon="13.409080289766317"><ele>797.6666666666667</ele><time>2026-05-01T11:40:10.999Z</time></trkpt><trkpt lat="42.033455080796294" lon="13.409099806483132"><ele>794.3333333333334</ele><time>2026-05-01T11:40:11.999Z</time></trkpt><trkpt lat="42.033625117916785" lon="13.409022026093682"><ele>791.0</ele><time>2026-05-01T11:40:12.999Z</time></trkpt><trkpt lat="42.033766051013444" lon="13.408925501849538"><ele>798.3333333333334</ele><time>2026-05-01T11:40:13.999Z</time></trkpt><trkpt lat="42.0338682203327" lon="13.408771913477946"><ele>805.6666666666667</ele><time>2026-05-01T11:40:14.999Z</time></trkpt><trkpt lat="42.03397084686516" lon="13.408568252051962"><ele>813.0</ele><time>2026-05-01T11:40:15.999Z</time></trkpt><trkpt lat="42.03406718455987" lon="13.408408224854066"><ele>809.6666666666667</ele><time>2026-05-01T11:40:16.999Z</time></trkpt><trkpt lat="42.03416628805751" lon="13.408248302876405"><ele>806.3333333333334</ele><time>2026-05-01T11:40:17.998Z</time></trkpt><trkpt lat="42.034331784766515" lon="13.408149365986013"><ele>803.0</ele><time>2026-05-01T11:40:18.998Z</time></trkpt><trkpt lat="42.03454687345314" lon="13.40806022898456"><ele>803.0</ele><time>2026-05-01T11:40:19.998Z</time></trkpt><trkpt lat="42.03476999636188" lon="13.407997361912395"><ele>803.0</ele><time>2026-05-01T11:40:20.998Z</time></trkpt><trkpt lat="42.03496797103459" lon="13.407981755108056"><ele>803.0</ele><time>2026-05-01T11:40:21.998Z</time></trkpt><trkpt lat="42.035152723343195" lon="13.40787260049422"><ele>806.3333333333334</ele><time>2026-05-01T11:40:22.998Z</time></trkpt><trkpt lat="42.035335365413076" lon="13.407749898814531"><ele>809.6666666666667</ele><time>2026-05-01T11:40:23.998Z</time></trkpt><trkpt lat="42.035515678671835" lon="13.407575467456093"><ele>813.0</ele><time>2026-05-01T11:40:24.998Z</time></trkpt><trkpt lat="42.03569539272028" lon="13.407375286397384"><ele>814.6666666666667</ele><time>2026-05-01T11:40:25.998Z</time></trkpt><trkpt lat="42.035879619328995" lon="13.407205608806889"><ele>816.3333333333334</ele><time>2026-05-01T11:40:26.998Z</time></trkpt><trkpt lat="42.03605865935104" lon="13.407076457928335"><ele>818.0</ele><time>2026-05-01T11:40:27.998Z</time></trkpt><trkpt lat="42.03624693089557" lon="13.406972715411426"><ele>818.0</ele><time>2026-05-01T11:40:28.998Z</time></trkpt><trkpt lat="42.036457127194005" lon="13.406881255318932"><ele>818.0</ele><time>2026-05-01T11:40:29.998Z</time></trkpt><trkpt lat="42.036698009220025" lon="13.40679613508224"><ele>809.0</ele><time>2026-05-01T11:40:30.998Z</time></trkpt><trkpt lat="42.036929813896116" lon="13.406716268597986"><ele>800.0</ele><time>2026-05-01T11:40:31.998Z</time></trkpt><trkpt lat="42.03714141155598" lon="13.406640877744422"><ele>800.0</ele><time>2026-05-01T11:40:32.998Z</time></trkpt><trkpt lat="42.03733967515831" lon="13.406563424849836"><ele>800.0</ele><time>2026-05-01T11:40:33.998Z</time></trkpt><trkpt lat="42.037516496956734" lon="13.406492279307901"><ele>800.0</ele><time>2026-05-01T11:40:34.998Z</time></trkpt><trkpt lat="42.03766490833979" lon="13.406430822050714"><ele>797.8</ele><time>2026-05-01T11:40:35.998Z</time></trkpt><trkpt lat="42.03778914825871" lon="13.406378715350112"><ele>795.6</ele><time>2026-05-01T11:40:36.998Z</time></trkpt><trkpt lat="42.03787683140108" lon="13.406341130109102"><ele>793.4000000000001</ele><time>2026-05-01T11:40:37.998Z</time></trkpt><trkpt lat="42.03794123021701" lon="13.40633553796303"><ele>791.2</ele><time>2026-05-01T11:40:38.998Z</time></trkpt><trkpt lat="42.03805452141151" lon="13.406399230888027"><ele>789.0</ele><time>2026-05-01T11:40:40.998Z</time></trkpt><trkpt lat="42.03805220464697" lon="13.406527353668682"><ele>789.0</ele><time>2026-05-01T11:40:41.998Z</time></trkpt><trkpt lat="42.03796945617684" lon="13.406621928507699"><ele>789.0</ele><time>2026-05-01T11:40:42.998Z</time></trkpt><trkpt lat="42.037855561784596" lon="13.406614710268343"><ele>789.0</ele><time>2026-05-01T11:40:43.998Z</time></trkpt><trkpt lat="42.037726202634296" lon="13.406668277661572"><ele>789.0</ele><time>2026-05-01T11:40:44.998Z</time></trkpt><trkpt lat="42.03756613343803" lon="13.406706227552512"><ele>792.6666666666667</ele><time>2026-05-01T11:40:45.998Z</time></trkpt><trkpt lat="42.037396033962025" lon="13.406760661317666"><ele>796.3333333333334</ele><time>2026-05-01T11:40:46.998Z</time></trkpt><trkpt lat="42.03720691710072" lon="13.406836683003624"><ele>800.0</ele><time>2026-05-01T11:40:47.998Z</time></trkpt><trkpt lat="42.03700301598795" lon="13.406934703910233"><ele>800.0</ele><time>2026-05-01T11:40:48.998Z</time></trkpt><trkpt lat="42.03679359575938" lon="13.407051663737642"><ele>800.0</ele><time>2026-05-01T11:40:49.998Z</time></trkpt><trkpt lat="42.03656801823316" lon="13.407193154567072"><ele>795.0</ele><time>2026-05-01T11:40:50.998Z</time></trkpt><trkpt lat="42.03634162473942" lon="13.407336166329413"><ele>790.0</ele><time>2026-05-01T11:40:51.998Z</time></trkpt><trkpt lat="42.036112677472545" lon="13.40750789663086"><ele>790.0</ele><time>2026-05-01T11:40:52.998Z</time></trkpt><trkpt lat="42.03587766323351" lon="13.407711846128331"><ele>790.0</ele><time>2026-05-01T11:40:53.998Z</time></trkpt><trkpt lat="42.03563180509528" lon="13.407929482697194"><ele>785.5</ele><time>2026-05-01T11:40:54.998Z</time></trkpt><trkpt lat="42.0353829048654" lon="13.408148837730975"><ele>781.0</ele><time>2026-05-01T11:40:55.998Z</time></trkpt><trkpt lat="42.035147524658605" lon="13.408340612843373"><ele>792.0</ele><time>2026-05-01T11:40:56.998Z</time></trkpt><trkpt lat="42.0349326813675" lon="13.408532289187786"><ele>803.0</ele><time>2026-05-01T11:40:57.998Z</time></trkpt><trkpt lat="42.034732981854035" lon="13.408713610002094"><ele>789.5</ele><time>2026-05-01T11:40:58.998Z</time></trkpt><trkpt lat="42.034542138233626" lon="13.408893936252529"><ele>776.0</ele><time>2026-05-01T11:40:59.998Z</time></trkpt><trkpt lat="42.034371289789526" lon="13.409083481267247"><ele>776.0</ele><time>2026-05-01T11:41:00.998Z</time></trkpt><trkpt lat="42.034228883849686" lon="13.409275171032078"><ele>776.0</ele><time>2026-05-01T11:41:01.998Z</time></trkpt><trkpt lat="42.03411374443106" lon="13.409456707542578"><ele>776.0</ele><time>2026-05-01T11:41:02.998Z</time></trkpt><trkpt lat="42.03399906399379" lon="13.409628280265421"><ele>772.0</ele><time>2026-05-01T11:41:03.998Z</time></trkpt><trkpt lat="42.03385066565047" lon="13.409767209316035"><ele>768.0</ele><time>2026-05-01T11:41:04.998Z</time></trkpt><trkpt lat="42.033680485131505" lon="13.4098865988343"><ele>764.0</ele><time>2026-05-01T11:41:05.998Z</time></trkpt><trkpt lat="42.033487870373555" lon="13.40998336114719"><ele>764.5</ele><time>2026-05-01T11:41:06.998Z</time></trkpt><trkpt lat="42.03328149540695" lon="13.410098131503144"><ele>765.0</ele><time>2026-05-01T11:41:07.998Z</time></trkpt><trkpt lat="42.0330654019187" lon="13.410192651639107"><ele>765.0</ele><time>2026-05-01T11:41:08.998Z</time></trkpt><trkpt lat="42.03289914427487" lon="13.410259438006342"><ele>765.0</ele><time>2026-05-01T11:41:09.998Z</time></trkpt><trkpt lat="42.03279597748841" lon="13.410297706651004"><ele>765.0</ele><time>2026-05-01T11:41:10.998Z</time></trkpt><trkpt lat="42.03271698639989" lon="13.410347591603427"><ele>765.0</ele><time>2026-05-01T11:41:13.998Z</time></trkpt><trkpt lat="42.032794834767294" lon="13.410436713143461"><ele>765.0</ele><time>2026-05-01T11:41:17.998Z</time></trkpt><trkpt lat="42.03286340773238" lon="13.410383337350549"><ele>765.0</ele><time>2026-05-01T11:41:44Z</time></trkpt><trkpt lat="42.0329732107165" lon="13.410389780551123"><ele>765.0</ele><time>2026-05-01T11:41:46Z</time></trkpt><trkpt lat="42.03307716253813" lon="13.410385332527445"><ele>765.0</ele><time>2026-05-01T11:41:48Z</time></trkpt><trkpt lat="42.03318865442323" lon="13.410361513930633"><ele>765.0</ele><time>2026-05-01T11:41:50Z</time></trkpt><trkpt lat="42.03330254613149" lon="13.410364411651253"><ele>764.8</ele><time>2026-05-01T11:41:52Z</time></trkpt><trkpt lat="42.03341144995391" lon="13.410380292568131"><ele>764.6</ele><time>2026-05-01T11:41:54Z</time></trkpt><trkpt lat="42.03352374364312" lon="13.410374043767844"><ele>764.4000000000001</ele><time>2026-05-01T11:41:55.999Z</time></trkpt><trkpt lat="42.03358544255392" lon="13.4103550278893"><ele>764.2</ele><time>2026-05-01T11:41:56.999Z</time></trkpt><trkpt lat="42.033703032821144" lon="13.410323271131352"><ele>764.0</ele><time>2026-05-01T11:41:58.999Z</time></trkpt><trkpt lat="42.0338237079231" lon="13.410311942195364"><ele>764.0</ele><time>2026-05-01T11:42:00.999Z</time></trkpt><trkpt lat="42.03393597462013" lon="13.410260184306413"><ele>764.0</ele><time>2026-05-01T11:42:02.999Z</time></trkpt><trkpt lat="42.03405114759381" lon="13.410226221053664"><ele>764.0</ele><time>2026-05-01T11:42:04.999Z</time></trkpt><trkpt lat="42.03416131764886" lon="13.410194504883213"><ele>764.0</ele><time>2026-05-01T11:42:06.999Z</time></trkpt><trkpt lat="42.034266182949935" lon="13.410185164815232"><ele>761.4000000000001</ele><time>2026-05-01T11:42:08.999Z</time></trkpt><trkpt lat="42.03437079832765" lon="13.410159300498856"><ele>758.8</ele><time>2026-05-01T11:42:10.999Z</time></trkpt><trkpt lat="42.034476325503796" lon="13.410134513351702"><ele>756.2</ele><time>2026-05-01T11:42:12.999Z</time></trkpt><trkpt lat="42.03457995215341" lon="13.41011779800962"><ele>753.5999999999999</ele><time>2026-05-01T11:42:14.999Z</time></trkpt><trkpt lat="42.034691590612006" lon="13.410100381953923"><ele>751.0</ele><time>2026-05-01T11:42:16.999Z</time></trkpt><trkpt lat="42.03479444476047" lon="13.410122436452054"><ele>751.0</ele><time>2026-05-01T11:42:18.999Z</time></trkpt><trkpt lat="42.034894432555916" lon="13.410126940766538"><ele>751.0</ele><time>2026-05-01T11:42:20.999Z</time></trkpt><trkpt lat="42.03499868429422" lon="13.410130650622934"><ele>751.0</ele><time>2026-05-01T11:42:22.999Z</time></trkpt><trkpt lat="42.03510502648974" lon="13.41015174089164"><ele>751.0</ele><time>2026-05-01T11:42:24.999Z</time></trkpt><trkpt lat="42.03520090453003" lon="13.410179398785505"><ele>751.0</ele><time>2026-05-01T11:42:26.999Z</time></trkpt><trkpt lat="42.03527973307654" lon="13.410231138173542"><ele>748.3333333333334</ele><time>2026-05-01T11:42:28.999Z</time></trkpt><trkpt lat="42.03534791181547" lon="13.41028679013515"><ele>745.6666666666667</ele><time>2026-05-01T11:42:30.999Z</time></trkpt><trkpt lat="42.035395417028376" lon="13.410352284760954"><ele>743.0</ele><time>2026-05-01T11:42:32.999Z</time></trkpt><trkpt lat="42.035414213915416" lon="13.410450459105004"><ele>740.3333333333334</ele><time>2026-05-01T11:42:34.999Z</time></trkpt><trkpt lat="42.03541644473122" lon="13.410583423244999"><ele>737.6666666666666</ele><time>2026-05-01T11:42:36.999Z</time></trkpt><trkpt lat="42.03541072924597" lon="13.410722791070267"><ele>735.0</ele><time>2026-05-01T11:42:38.999Z</time></trkpt><trkpt lat="42.0354064186625" lon="13.410807399669794"><ele>732.6</ele><time>2026-05-01T11:42:39.999Z</time></trkpt><trkpt lat="42.035396581295345" lon="13.410944016607282"><ele>730.2</ele><time>2026-05-01T11:42:41.999Z</time></trkpt><trkpt lat="42.03540269261165" lon="13.411030561745424"><ele>727.8</ele><time>2026-05-01T11:42:43.999Z</time></trkpt><trkpt lat="42.03531447761738" lon="13.411022710428389"><ele>725.4</ele><time>2026-05-01T11:42:44.999Z</time></trkpt><trkpt lat="42.03520438526572" lon="13.41107948532886"><ele>723.0</ele><time>2026-05-01T11:42:46.999Z</time></trkpt><trkpt lat="42.03510096822175" lon="13.411133056877519"><ele>723.0</ele><time>2026-05-01T11:42:48.999Z</time></trkpt><trkpt lat="42.03499324759238" lon="13.4112088040211"><ele>723.0</ele><time>2026-05-01T11:42:50.999Z</time></trkpt><trkpt lat="42.03492880311128" lon="13.411217175533393"><ele>723.0</ele><time>2026-05-01T11:42:51.999Z</time></trkpt><trkpt lat="42.03483006989316" lon="13.411308977616361"><ele>723.0</ele><time>2026-05-01T11:42:53.999Z</time></trkpt><trkpt lat="42.03474267153353" lon="13.411437531959006"><ele>723.0</ele><time>2026-05-01T11:42:55.999Z</time></trkpt><trkpt lat="42.034704218579854" lon="13.4115287191801"><ele>722.8</ele><time>2026-05-01T11:42:56.999Z</time></trkpt><trkpt lat="42.03467758184717" lon="13.411612313229089"><ele>722.5999999999999</ele><time>2026-05-01T11:42:57.999Z</time></trkpt><trkpt lat="42.0346272777222" lon="13.411767117053357"><ele>722.4000000000001</ele><time>2026-05-01T11:42:59.999Z</time></trkpt><trkpt lat="42.03460362261038" lon="13.411903786981165"><ele>722.2</ele><time>2026-05-01T11:43:01.999Z</time></trkpt><trkpt lat="42.03458689282664" lon="13.412005503054706"><ele>722.0</ele><time>2026-05-01T11:43:03.999Z</time></trkpt><trkpt lat="42.03457100584186" lon="13.41212579062516"><ele>721.6666666666666</ele><time>2026-05-01T11:43:05.999Z</time></trkpt><trkpt lat="42.03455841676501" lon="13.412255241900239"><ele>721.3333333333333</ele><time>2026-05-01T11:43:07.999Z</time></trkpt><trkpt lat="42.03455328908741" lon="13.412412422542317"><ele>721.0</ele><time>2026-05-01T11:43:09.999Z</time></trkpt><trkpt lat="42.0345496910216" lon="13.412501344813702"><ele>720.6666666666666</ele><time>2026-05-01T11:43:10.999Z</time></trkpt><trkpt lat="42.03454554977701" lon="13.412595744890854"><ele>720.3333333333334</ele><time>2026-05-01T11:43:11.999Z</time></trkpt><trkpt lat="42.034539282902514" lon="13.412698936046272"><ele>720.0</ele><time>2026-05-01T11:43:12.998Z</time></trkpt><trkpt lat="42.034533407674274" lon="13.412790176600371"><ele>720.0</ele><time>2026-05-01T11:43:13.998Z</time></trkpt><trkpt lat="42.034534229215424" lon="13.412913140857142"><ele>720.0</ele><time>2026-05-01T11:43:15.998Z</time></trkpt><trkpt lat="42.03453197887132" lon="13.41299977010336"><ele>720.0</ele><time>2026-05-01T11:43:17.998Z</time></trkpt><trkpt lat="42.034519803502704" lon="13.413147403489681"><ele>720.0</ele><time>2026-05-01T11:43:28.998Z</time></trkpt><trkpt lat="42.03452726031264" lon="13.41325098513653"><ele>720.0</ele><time>2026-05-01T11:43:29.998Z</time></trkpt><trkpt lat="42.034518992450984" lon="13.413353080117185"><ele>720.0</ele><time>2026-05-01T11:43:30.998Z</time></trkpt><trkpt lat="42.03451270953555" lon="13.413441186898588"><ele>719.2</ele><time>2026-05-01T11:43:32Z</time></trkpt><trkpt lat="42.03449364097246" lon="13.413557371836294"><ele>718.4</ele><time>2026-05-01T11:43:34Z</time></trkpt><trkpt lat="42.03448512449011" lon="13.413668771862293"><ele>717.5999999999999</ele><time>2026-05-01T11:43:36Z</time></trkpt><trkpt lat="42.034536974480446" lon="13.413772550476285"><ele>716.8</ele><time>2026-05-01T11:43:37Z</time></trkpt><trkpt lat="42.03457372264962" lon="13.41390069582446"><ele>716.0</ele><time>2026-05-01T11:43:38Z</time></trkpt><trkpt lat="42.03460957616735" lon="13.414035471902864"><ele>714.8</ele><time>2026-05-01T11:43:39Z</time></trkpt><trkpt lat="42.03464113854951" lon="13.41417705418168"><ele>713.5999999999999</ele><time>2026-05-01T11:43:40Z</time></trkpt><trkpt lat="42.03467197133639" lon="13.41430727111162"><ele>712.4</ele><time>2026-05-01T11:43:41Z</time></trkpt><trkpt lat="42.03470334014827" lon="13.414431510153328"><ele>711.2</ele><time>2026-05-01T11:43:42Z</time></trkpt><trkpt lat="42.034722300616686" lon="13.414559822687869"><ele>710.0</ele><time>2026-05-01T11:43:43Z</time></trkpt><trkpt lat="42.034733553927275" lon="13.414686287087301"><ele>709.6</ele><time>2026-05-01T11:43:44Z</time></trkpt><trkpt lat="42.03474147056811" lon="13.414829086044216"><ele>709.2</ele><time>2026-05-01T11:43:45Z</time></trkpt><trkpt lat="42.034750100680625" lon="13.414985690336035"><ele>708.8</ele><time>2026-05-01T11:43:46Z</time></trkpt><trkpt lat="42.03477421043463" lon="13.415133486683446"><ele>708.4</ele><time>2026-05-01T11:43:47Z</time></trkpt><trkpt lat="42.03479729522039" lon="13.415282812568513"><ele>708.0</ele><time>2026-05-01T11:43:48Z</time></trkpt><trkpt lat="42.03481417849057" lon="13.415420557585325"><ele>707.4</ele><time>2026-05-01T11:43:49Z</time></trkpt><trkpt lat="42.03483240238538" lon="13.415546397866741"><ele>706.8</ele><time>2026-05-01T11:43:50Z</time></trkpt><trkpt lat="42.03483185977015" lon="13.415669089408546"><ele>706.2</ele><time>2026-05-01T11:43:51Z</time></trkpt><trkpt lat="42.034842368964426" lon="13.415806339266911"><ele>705.6</ele><time>2026-05-01T11:43:52Z</time></trkpt><trkpt lat="42.034853572583195" lon="13.415961286638566"><ele>705.0</ele><time>2026-05-01T11:43:53Z</time></trkpt><trkpt lat="42.03486455235762" lon="13.416121226343307"><ele>705.0</ele><time>2026-05-01T11:43:54Z</time></trkpt><trkpt lat="42.034873480326986" lon="13.416268448568918"><ele>705.0</ele><time>2026-05-01T11:43:55Z</time></trkpt><trkpt lat="42.03488696084398" lon="13.416403021880392"><ele>705.0</ele><time>2026-05-01T11:43:56Z</time></trkpt><trkpt lat="42.03490378181701" lon="13.416535197094058"><ele>705.0</ele><time>2026-05-01T11:43:57Z</time></trkpt><trkpt lat="42.03494709233089" lon="13.416662885053649"><ele>705.0</ele><time>2026-05-01T11:43:58Z</time></trkpt><trkpt lat="42.03497852084997" lon="13.416785742295453"><ele>704.8</ele><time>2026-05-01T11:43:59Z</time></trkpt><trkpt lat="42.03501398929737" lon="13.416898938359285"><ele>704.6</ele><time>2026-05-01T11:44:00Z</time></trkpt><trkpt lat="42.035053671295984" lon="13.417004332156628"><ele>704.4000000000001</ele><time>2026-05-01T11:44:00.999Z</time></trkpt><trkpt lat="42.03508705455959" lon="13.417114087355806"><ele>704.2</ele><time>2026-05-01T11:44:01.999Z</time></trkpt><trkpt lat="42.03512592974749" lon="13.417229436161335"><ele>704.0</ele><time>2026-05-01T11:44:02.999Z</time></trkpt><trkpt lat="42.035167006469294" lon="13.41734385342856"><ele>703.8333333333333</ele><time>2026-05-01T11:44:03.999Z</time></trkpt><trkpt lat="42.03520513750258" lon="13.417449286819096"><ele>703.6666666666666</ele><time>2026-05-01T11:44:04.999Z</time></trkpt><trkpt lat="42.03524155233766" lon="13.417538724447317"><ele>703.5</ele><time>2026-05-01T11:44:05.999Z</time></trkpt><trkpt lat="42.03526350591435" lon="13.417618253414064"><ele>703.3333333333334</ele><time>2026-05-01T11:44:06.999Z</time></trkpt><trkpt lat="42.0351929414001" lon="13.417754597024402"><ele>703.1666666666667</ele><time>2026-05-01T11:44:10.999Z</time></trkpt><trkpt lat="42.03512878371534" lon="13.417833388036103"><ele>703.0</ele><time>2026-05-01T11:44:11.999Z</time></trkpt><trkpt lat="42.0350596893251" lon="13.417891825234951"><ele>703.0</ele><time>2026-05-01T11:44:12.999Z</time></trkpt><trkpt lat="42.0349965410918" lon="13.41795825317703"><ele>703.0</ele><time>2026-05-01T11:44:13.999Z</time></trkpt><trkpt lat="42.034932812762484" lon="13.41803129578495"><ele>703.0</ele><time>2026-05-01T11:44:14.999Z</time></trkpt><trkpt lat="42.034874607748115" lon="13.418104549118722"><ele>703.0</ele><time>2026-05-01T11:44:15.999Z</time></trkpt><trkpt lat="42.03481628914205" lon="13.41816877962363"><ele>703.0</ele><time>2026-05-01T11:44:16.999Z</time></trkpt><trkpt lat="42.03474919076299" lon="13.418233774142891"><ele>703.0</ele><time>2026-05-01T11:44:17.999Z</time></trkpt><trkpt lat="42.03468844055639" lon="13.418298372621582"><ele>703.2</ele><time>2026-05-01T11:44:18.999Z</time></trkpt><trkpt lat="42.03463350678777" lon="13.418360273505735"><ele>703.4</ele><time>2026-05-01T11:44:19.999Z</time></trkpt><trkpt lat="42.03457452525285" lon="13.41840309392658"><ele>703.6</ele><time>2026-05-01T11:44:20.999Z</time></trkpt><trkpt lat="42.0345189481353" lon="13.418485749707711"><ele>703.8000000000001</ele><time>2026-05-01T11:44:22.999Z</time></trkpt><trkpt lat="42.03465000029969" lon="13.418706370124298"><ele>704.0</ele><time>2026-05-01T11:44:23.999Z</time></trkpt><trkpt lat="42.03472779004642" lon="13.41878489937947"><ele>704.25</ele><time>2026-05-01T11:44:24.999Z</time></trkpt><trkpt lat="42.03481522334692" lon="13.418887154909712"><ele>704.5</ele><time>2026-05-01T11:44:25.999Z</time></trkpt><trkpt lat="42.03490057444377" lon="13.419004366300808"><ele>704.75</ele><time>2026-05-01T11:44:26.999Z</time></trkpt><trkpt lat="42.03500000267541" lon="13.419139601791752"><ele>705.0</ele><time>2026-05-01T11:44:27.999Z</time></trkpt><trkpt lat="42.03510608233764" lon="13.41927906093372"><ele>705.0</ele><time>2026-05-01T11:44:28.999Z</time></trkpt><trkpt lat="42.03521526974521" lon="13.41942043186481"><ele>705.0</ele><time>2026-05-01T11:44:29.999Z</time></trkpt><trkpt lat="42.03533452898339" lon="13.419572549120359"><ele>705.0</ele><time>2026-05-01T11:44:30.999Z</time></trkpt><trkpt lat="42.035453253243205" lon="13.419728126739553"><ele>705.0</ele><time>2026-05-01T11:44:31.999Z</time></trkpt><trkpt lat="42.03555977420722" lon="13.419872589736494"><ele>705.0</ele><time>2026-05-01T11:44:32.999Z</time></trkpt><trkpt lat="42.0356586149392" lon="13.420006381430452"><ele>705.0</ele><time>2026-05-01T11:44:33.999Z</time></trkpt><trkpt lat="42.03574736258508" lon="13.420130080385256"><ele>705.0</ele><time>2026-05-01T11:44:34.999Z</time></trkpt><trkpt lat="42.035833680473004" lon="13.420247261481391"><ele>705.0</ele><time>2026-05-01T11:44:35.999Z</time></trkpt><trkpt lat="42.03592192908251" lon="13.420361821522846"><ele>705.0</ele><time>2026-05-01T11:44:36.999Z</time></trkpt><trkpt lat="42.03601738554725" lon="13.42047957470683"><ele>705.0</ele><time>2026-05-01T11:44:37.999Z</time></trkpt><trkpt lat="42.03611695919728" lon="13.42060637673593"><ele>705.0</ele><time>2026-05-01T11:44:38.999Z</time></trkpt><trkpt lat="42.03622664206262" lon="13.420758357071268"><ele>704.75</ele><time>2026-05-01T11:44:39.999Z</time></trkpt><trkpt lat="42.03633010494873" lon="13.420899486414823"><ele>704.5</ele><time>2026-05-01T11:44:40.999Z</time></trkpt><trkpt lat="42.03642457042589" lon="13.421030543805038"><ele>704.25</ele><time>2026-05-01T11:44:41.999Z</time></trkpt><trkpt lat="42.036510151952434" lon="13.421149140178741"><ele>704.0</ele><time>2026-05-01T11:44:42.999Z</time></trkpt><trkpt lat="42.03658608559527" lon="13.421257076984759"><ele>704.2</ele><time>2026-05-01T11:44:43.999Z</time></trkpt><trkpt lat="42.036641329524436" lon="13.421340657529777"><ele>704.4000000000001</ele><time>2026-05-01T11:44:44.999Z</time></trkpt><trkpt lat="42.036716325575284" lon="13.421440629952864"><ele>704.6</ele><time>2026-05-01T11:44:46.999Z</time></trkpt><trkpt lat="42.03677897576454" lon="13.421525019416121"><ele>704.8</ele><time>2026-05-01T11:44:47.999Z</time></trkpt><trkpt lat="42.036862075016074" lon="13.421636902089242"><ele>705.0</ele><time>2026-05-01T11:44:48.999Z</time></trkpt><trkpt lat="42.037059614971" lon="13.421896379198788"><ele>705.0</ele><time>2026-05-01T11:44:50.999Z</time></trkpt><trkpt lat="42.0371682300548" lon="13.422035824170797"><ele>705.0</ele><time>2026-05-01T11:44:51.999Z</time></trkpt><trkpt lat="42.03727466501092" lon="13.422179430291303"><ele>705.0</ele><time>2026-05-01T11:44:52.999Z</time></trkpt><trkpt lat="42.037377612666305" lon="13.422317942169746"><ele>705.0</ele><time>2026-05-01T11:44:53.999Z</time></trkpt><trkpt lat="42.03747262455785" lon="13.422446749701647"><ele>705.0</ele><time>2026-05-01T11:44:54.999Z</time></trkpt><trkpt lat="42.03756249085334" lon="13.422591032728565"><ele>705.0</ele><time>2026-05-01T11:44:55.999Z</time></trkpt><trkpt lat="42.037624812305246" lon="13.422763527590805"><ele>705.0</ele><time>2026-05-01T11:44:56.999Z</time></trkpt><trkpt lat="42.03768430840424" lon="13.422949526928843"><ele>705.0</ele><time>2026-05-01T11:44:57.999Z</time></trkpt><trkpt lat="42.03774285395186" lon="13.423140724623048"><ele>704.75</ele><time>2026-05-01T11:44:58.999Z</time></trkpt><trkpt lat="42.03781463005878" lon="13.42331490704081"><ele>704.5</ele><time>2026-05-01T11:44:59.999Z</time></trkpt><trkpt lat="42.037869426654645" lon="13.42349559668019"><ele>704.25</ele><time>2026-05-01T11:45:00.999Z</time></trkpt><trkpt lat="42.037926753664195" lon="13.423674759251298"><ele>704.0</ele><time>2026-05-01T11:45:01.999Z</time></trkpt><trkpt lat="42.037983509931365" lon="13.423854152682269"><ele>704.0</ele><time>2026-05-01T11:45:02.999Z</time></trkpt><trkpt lat="42.038028404347855" lon="13.424052619282124"><ele>704.0</ele><time>2026-05-01T11:45:03.999Z</time></trkpt><trkpt lat="42.03810220222234" lon="13.424241797507879"><ele>704.0</ele><time>2026-05-01T11:45:04.999Z</time></trkpt><trkpt lat="42.03816621039457" lon="13.424437250368676"><ele>704.0</ele><time>2026-05-01T11:45:05.999Z</time></trkpt><trkpt lat="42.03822553315043" lon="13.424630854125045"><ele>704.0</ele><time>2026-05-01T11:45:06.999Z</time></trkpt><trkpt lat="42.03828390071249" lon="13.42482087429542"><ele>704.0</ele><time>2026-05-01T11:45:07.999Z</time></trkpt><trkpt lat="42.03833969780079" lon="13.425000416890178"><ele>704.25</ele><time>2026-05-01T11:45:08.999Z</time></trkpt><trkpt lat="42.03839235779706" lon="13.425175458676096"><ele>704.5</ele><time>2026-05-01T11:45:09.998Z</time></trkpt><trkpt lat="42.03844247663878" lon="13.425336493414767"><ele>704.75</ele><time>2026-05-01T11:45:10.998Z</time></trkpt><trkpt lat="42.03848395944132" lon="13.42547669969227"><ele>705.0</ele><time>2026-05-01T11:45:11.998Z</time></trkpt><trkpt lat="42.03852300525689" lon="13.4256067032151"><ele>705.0</ele><time>2026-05-01T11:45:12.998Z</time></trkpt><trkpt lat="42.038548168037885" lon="13.425752480436145"><ele>705.0</ele><time>2026-05-01T11:45:13.998Z</time></trkpt><trkpt lat="42.03855415624729" lon="13.42591244975604"><ele>705.0</ele><time>2026-05-01T11:45:14.998Z</time></trkpt><trkpt lat="42.03855442917898" lon="13.426067397762669"><ele>705.0</ele><time>2026-05-01T11:45:15.998Z</time></trkpt><trkpt lat="42.03855758661827" lon="13.426205448324755"><ele>705.0</ele><time>2026-05-01T11:45:16.998Z</time></trkpt><trkpt lat="42.03856852421629" lon="13.42633045729204"><ele>705.0</ele><time>2026-05-01T11:45:17.998Z</time></trkpt><trkpt lat="42.03857048429121" lon="13.426457193730103"><ele>705.0</ele><time>2026-05-01T11:45:18.998Z</time></trkpt><trkpt lat="42.03860056962302" lon="13.42658330476091"><ele>705.0</ele><time>2026-05-01T11:45:19.998Z</time></trkpt><trkpt lat="42.03863944717233" lon="13.426717409775062"><ele>705.0</ele><time>2026-05-01T11:45:20.998Z</time></trkpt><trkpt lat="42.03868360811273" lon="13.426855079269531"><ele>705.0</ele><time>2026-05-01T11:45:21.998Z</time></trkpt><trkpt lat="42.03873007953613" lon="13.426999403466358"><ele>705.0</ele><time>2026-05-01T11:45:22.998Z</time></trkpt><trkpt lat="42.03877605116266" lon="13.427140349701025"><ele>705.0</ele><time>2026-05-01T11:45:23.998Z</time></trkpt><trkpt lat="42.03882964220789" lon="13.427265633475216"><ele>705.0</ele><time>2026-05-01T11:45:24.998Z</time></trkpt><trkpt lat="42.03886433830562" lon="13.42738225100737"><ele>705.0</ele><time>2026-05-01T11:45:25.998Z</time></trkpt><trkpt lat="42.03889395775681" lon="13.427485473743197"><ele>705.0</ele><time>2026-05-01T11:45:26.998Z</time></trkpt><trkpt lat="42.038916803660065" lon="13.427566479726586"><ele>705.2</ele><time>2026-05-01T11:45:27.998Z</time></trkpt><trkpt lat="42.03896123238879" lon="13.427653368075239"><ele>705.4</ele><time>2026-05-01T11:45:29.998Z</time></trkpt><trkpt lat="42.03881589670637" lon="13.427743341854669"><ele>705.5999999999999</ele><time>2026-05-01T11:45:30.998Z</time></trkpt><trkpt lat="42.0387469021379" lon="13.427833733256529"><ele>705.8</ele><time>2026-05-01T11:45:31.998Z</time></trkpt><trkpt lat="42.03867491304386" lon="13.427953993562188"><ele>706.0</ele><time>2026-05-01T11:45:32.998Z</time></trkpt><trkpt lat="42.038580599090594" lon="13.428068265370811"><ele>705.0</ele><time>2026-05-01T11:45:33.998Z</time></trkpt><trkpt lat="42.03848521568794" lon="13.428204032235273"><ele>704.0</ele><time>2026-05-01T11:45:34.998Z</time></trkpt><trkpt lat="42.038379389387195" lon="13.42833704156457"><ele>703.0</ele><time>2026-05-01T11:45:35.998Z</time></trkpt><trkpt lat="42.038283298761954" lon="13.428464315936438"><ele>702.0</ele><time>2026-05-01T11:45:37Z</time></trkpt><trkpt lat="42.03818970589957" lon="13.428592765866787"><ele>701.75</ele><time>2026-05-01T11:45:38Z</time></trkpt><trkpt lat="42.03809138049162" lon="13.428720779272485"><ele>701.5</ele><time>2026-05-01T11:45:38.999Z</time></trkpt><trkpt lat="42.037994056669156" lon="13.428850479080072"><ele>701.25</ele><time>2026-05-01T11:45:40Z</time></trkpt><trkpt lat="42.03789749534698" lon="13.428969639274772"><ele>701.0</ele><time>2026-05-01T11:45:41Z</time></trkpt><trkpt lat="42.03781475951807" lon="13.429081145196532"><ele>700.75</ele><time>2026-05-01T11:45:41.999Z</time></trkpt><trkpt lat="42.03772692391183" lon="13.429184096105637"><ele>700.5</ele><time>2026-05-01T11:45:43Z</time></trkpt><trkpt lat="42.03763576707325" lon="13.429296236493125"><ele>700.25</ele><time>2026-05-01T11:45:44Z</time></trkpt><trkpt lat="42.03753921800401" lon="13.429414252987094"><ele>700.0</ele><time>2026-05-01T11:45:45Z</time></trkpt><trkpt lat="42.03744871156996" lon="13.429535897363401"><ele>699.0</ele><time>2026-05-01T11:45:46Z</time></trkpt><trkpt lat="42.03735652514646" lon="13.429662181907474"><ele>698.0</ele><time>2026-05-01T11:45:47Z</time></trkpt><trkpt lat="42.03725857726664" lon="13.429792104308117"><ele>697.0</ele><time>2026-05-01T11:45:48Z</time></trkpt><trkpt lat="42.0371601892752" lon="13.429926697787689"><ele>696.0</ele><time>2026-05-01T11:45:49Z</time></trkpt><trkpt lat="42.0370656374617" lon="13.430050731381643"><ele>696.0</ele><time>2026-05-01T11:45:50Z</time></trkpt><trkpt lat="42.03697867144857" lon="13.430162611335659"><ele>696.0</ele><time>2026-05-01T11:45:51Z</time></trkpt><trkpt lat="42.036897140031186" lon="13.43027005015452"><ele>696.0</ele><time>2026-05-01T11:45:52Z</time></trkpt><trkpt lat="42.03681666156264" lon="13.430379085863208"><ele>696.0</ele><time>2026-05-01T11:45:53Z</time></trkpt><trkpt lat="42.036730824361506" lon="13.430492600864518"><ele>695.5</ele><time>2026-05-01T11:45:54Z</time></trkpt><trkpt lat="42.03664176669597" lon="13.430611749465623"><ele>695.0</ele><time>2026-05-01T11:45:55Z</time></trkpt><trkpt lat="42.03654174749366" lon="13.430715393941776"><ele>694.5</ele><time>2026-05-01T11:45:55.999Z</time></trkpt><trkpt lat="42.03645887424952" lon="13.430850860472514"><ele>694.0</ele><time>2026-05-01T11:45:56.999Z</time></trkpt><trkpt lat="42.03636643890937" lon="13.430970424574653"><ele>693.8000000000001</ele><time>2026-05-01T11:45:57.999Z</time></trkpt><trkpt lat="42.03628024741257" lon="13.431075309230915"><ele>693.6</ele><time>2026-05-01T11:45:58.999Z</time></trkpt><trkpt lat="42.03619981683542" lon="13.431173066392253"><ele>693.4</ele><time>2026-05-01T11:45:59.999Z</time></trkpt><trkpt lat="42.0361294674719" lon="13.431258404263096"><ele>693.2</ele><time>2026-05-01T11:46:00.999Z</time></trkpt><trkpt lat="42.036065130766254" lon="13.431331667242382"><ele>693.0</ele><time>2026-05-01T11:46:01.999Z</time></trkpt><trkpt lat="42.03600014519547" lon="13.43137523688991"><ele>692.4</ele><time>2026-05-01T11:46:02.999Z</time></trkpt><trkpt lat="42.035894908302886" lon="13.431424442072903"><ele>691.8</ele><time>2026-05-01T11:46:04.999Z</time></trkpt><trkpt lat="42.035851040190906" lon="13.431530807086462"><ele>691.2</ele><time>2026-05-01T11:46:06.999Z</time></trkpt><trkpt lat="42.03590757612775" lon="13.431621112695577"><ele>690.6</ele><time>2026-05-01T11:46:07.999Z</time></trkpt><trkpt lat="42.035990025386525" lon="13.431695218611225"><ele>690.0</ele><time>2026-05-01T11:46:08.999Z</time></trkpt><trkpt lat="42.03608229240208" lon="13.431783983851556"><ele>690.0</ele><time>2026-05-01T11:46:09.999Z</time></trkpt><trkpt lat="42.036182098228274" lon="13.431908205954688"><ele>690.0</ele><time>2026-05-01T11:46:10.999Z</time></trkpt><trkpt lat="42.03628370437888" lon="13.432047178990983"><ele>690.0</ele><time>2026-05-01T11:46:11.999Z</time></trkpt><trkpt lat="42.03637696944251" lon="13.4322047000313"><ele>690.0</ele><time>2026-05-01T11:46:12.999Z</time></trkpt><trkpt lat="42.036461379448305" lon="13.432392099550706"><ele>690.0</ele><time>2026-05-01T11:46:13.999Z</time></trkpt><trkpt lat="42.03653608934673" lon="13.432564176134596"><ele>690.0</ele><time>2026-05-01T11:46:14.999Z</time></trkpt><trkpt lat="42.036607660781776" lon="13.432734385945254"><ele>690.0</ele><time>2026-05-01T11:46:15.999Z</time></trkpt><trkpt lat="42.03667190914503" lon="13.432890008033883"><ele>690.0</ele><time>2026-05-01T11:46:16.999Z</time></trkpt><trkpt lat="42.036731482325166" lon="13.433035753015949"><ele>690.0</ele><time>2026-05-01T11:46:17.999Z</time></trkpt><trkpt lat="42.03678497756668" lon="13.433167032563311"><ele>690.0</ele><time>2026-05-01T11:46:18.999Z</time></trkpt><trkpt lat="42.03683531853407" lon="13.433287912506136"><ele>690.0</ele><time>2026-05-01T11:46:19.999Z</time></trkpt><trkpt lat="42.036885753318515" lon="13.433404987102948"><ele>690.0</ele><time>2026-05-01T11:46:20.999Z</time></trkpt><trkpt lat="42.03694097153285" lon="13.433532902959977"><ele>690.0</ele><time>2026-05-01T11:46:21.999Z</time></trkpt><trkpt lat="42.03699564137099" lon="13.433658929567006"><ele>690.0</ele><time>2026-05-01T11:46:22.999Z</time></trkpt><trkpt lat="42.03704571414852" lon="13.433772095020297"><ele>690.0</ele><time>2026-05-01T11:46:23.999Z</time></trkpt><trkpt lat="42.037084391576904" lon="13.433868467890738"><ele>690.0</ele><time>2026-05-01T11:46:24.999Z</time></trkpt><trkpt lat="42.03714823435301" lon="13.433949632162124"><ele>690.0</ele><time>2026-05-01T11:46:25.999Z</time></trkpt><trkpt lat="42.0371550244406" lon="13.43407711102383"><ele>690.0</ele><time>2026-05-01T11:46:27.999Z</time></trkpt><trkpt lat="42.037215984969286" lon="13.434224194744846"><ele>689.8333333333334</ele><time>2026-05-01T11:50:05Z</time></trkpt><trkpt lat="42.03725089638377" lon="13.434308379123104"><ele>689.6666666666666</ele><time>2026-05-01T11:50:07Z</time></trkpt><trkpt lat="42.03730338729439" lon="13.434435637592525"><ele>689.5</ele><time>2026-05-01T11:50:10Z</time></trkpt><trkpt lat="42.03733554281647" lon="13.434520427839384"><ele>689.3333333333333</ele><time>2026-05-01T11:50:11Z</time></trkpt><trkpt lat="42.03737908561178" lon="13.434620803457337"><ele>689.1666666666666</ele><time>2026-05-01T11:50:12Z</time></trkpt><trkpt lat="42.037428724249054" lon="13.434745434865315"><ele>689.0</ele><time>2026-05-01T11:50:13Z</time></trkpt><trkpt lat="42.037486974790646" lon="13.43488093919875"><ele>689.0</ele><time>2026-05-01T11:50:14Z</time></trkpt><trkpt lat="42.03755019069985" lon="13.435032511838934"><ele>689.0</ele><time>2026-05-01T11:50:15Z</time></trkpt><trkpt lat="42.037622930918445" lon="13.435213256238464"><ele>689.0</ele><time>2026-05-01T11:50:16Z</time></trkpt><trkpt lat="42.037698542271514" lon="13.435403818330702"><ele>689.0</ele><time>2026-05-01T11:50:17Z</time></trkpt><trkpt lat="42.03777679709401" lon="13.435597543021885"><ele>689.0</ele><time>2026-05-01T11:50:18Z</time></trkpt><trkpt lat="42.037856464329195" lon="13.435792837081921"><ele>689.0</ele><time>2026-05-01T11:50:19Z</time></trkpt><trkpt lat="42.03793186631745" lon="13.435992425693179"><ele>689.0</ele><time>2026-05-01T11:50:20Z</time></trkpt><trkpt lat="42.038016299776345" lon="13.436192962891983"><ele>688.6666666666666</ele><time>2026-05-01T11:50:21Z</time></trkpt><trkpt lat="42.038099693037" lon="13.436397813825586"><ele>688.3333333333334</ele><time>2026-05-01T11:50:22Z</time></trkpt><trkpt lat="42.03818231819117" lon="13.436602799240353"><ele>688.0</ele><time>2026-05-01T11:50:23Z</time></trkpt><trkpt lat="42.03827047494014" lon="13.436815688652375"><ele>688.3333333333334</ele><time>2026-05-01T11:50:24Z</time></trkpt><trkpt lat="42.03835724993847" lon="13.43702502249011"><ele>688.6666666666666</ele><time>2026-05-01T11:50:25Z</time></trkpt><trkpt lat="42.0384472462836" lon="13.437239320925842"><ele>689.0</ele><time>2026-05-01T11:50:26Z</time></trkpt><trkpt lat="42.03853764501523" lon="13.4374562596429"><ele>688.3333333333333</ele><time>2026-05-01T11:50:27Z</time></trkpt><trkpt lat="42.038626865666075" lon="13.437673575104673"><ele>687.6666666666666</ele><time>2026-05-01T11:50:28Z</time></trkpt><trkpt lat="42.03871298198883" lon="13.437887019333703"><ele>687.0</ele><time>2026-05-01T11:50:29Z</time></trkpt><trkpt lat="42.03880305880169" lon="13.438105426609726"><ele>687.0</ele><time>2026-05-01T11:50:30Z</time></trkpt><trkpt lat="42.03889513630715" lon="13.438330902692956"><ele>687.0</ele><time>2026-05-01T11:50:31Z</time></trkpt><trkpt lat="42.038986496087105" lon="13.438553571964114"><ele>687.0</ele><time>2026-05-01T11:50:31.999Z</time></trkpt><trkpt lat="42.039074415257694" lon="13.438762372474327"><ele>688.0</ele><time>2026-05-01T11:50:32.999Z</time></trkpt><trkpt lat="42.03916225474625" lon="13.438969749135346"><ele>689.0</ele><time>2026-05-01T11:50:33.999Z</time></trkpt><trkpt lat="42.039245241779454" lon="13.439167554088037"><ele>690.0</ele><time>2026-05-01T11:50:34.999Z</time></trkpt><trkpt lat="42.0393187651732" lon="13.439346111214853"><ele>690.0</ele><time>2026-05-01T11:50:35.999Z</time></trkpt><trkpt lat="42.03937856821418" lon="13.439503263457935"><ele>690.0</ele><time>2026-05-01T11:50:36.999Z</time></trkpt><trkpt lat="42.03942033366323" lon="13.439631754397146"><ele>690.0</ele><time>2026-05-01T11:50:37.999Z</time></trkpt><trkpt lat="42.03944645327824" lon="13.43974346071078"><ele>690.0</ele><time>2026-05-01T11:50:38.999Z</time></trkpt><trkpt lat="42.03945545398408" lon="13.439851919953506"><ele>690.0</ele><time>2026-05-01T11:50:39.999Z</time></trkpt><trkpt lat="42.039437413680965" lon="13.439948041487893"><ele>689.6666666666666</ele><time>2026-05-01T11:50:40.999Z</time></trkpt><trkpt lat="42.039394797376175" lon="13.44003220079781"><ele>689.3333333333334</ele><time>2026-05-01T11:50:41.999Z</time></trkpt><trkpt lat="42.03938258270066" lon="13.440125638205899"><ele>689.0</ele><time>2026-05-01T11:50:42.999Z</time></trkpt><trkpt lat="42.03945758446849" lon="13.440219661720594"><ele>688.6666666666667</ele><time>2026-05-01T11:50:44.999Z</time></trkpt><trkpt lat="42.03952852123848" lon="13.440229065560779"><ele>688.3333333333334</ele><time>2026-05-01T11:50:45.999Z</time></trkpt><trkpt lat="42.03961606051932" lon="13.44024084748017"><ele>688.0</ele><time>2026-05-01T11:50:46.999Z</time></trkpt><trkpt lat="42.03970528714303" lon="13.440289740244172"><ele>688.0</ele><time>2026-05-01T11:50:47.999Z</time></trkpt><trkpt lat="42.039780441690255" lon="13.44039920766399"><ele>688.0</ele><time>2026-05-01T11:50:48.999Z</time></trkpt><trkpt lat="42.03984631394011" lon="13.440536926902634"><ele>688.0</ele><time>2026-05-01T11:50:49.999Z</time></trkpt><trkpt lat="42.03992416195233" lon="13.440689800090064"><ele>688.0</ele><time>2026-05-01T11:50:50.999Z</time></trkpt><trkpt lat="42.04000768297076" lon="13.440852574265895"><ele>689.0</ele><time>2026-05-01T11:50:51.999Z</time></trkpt><trkpt lat="42.04010056755792" lon="13.441026308404927"><ele>690.0</ele><time>2026-05-01T11:50:52.999Z</time></trkpt><trkpt lat="42.040199765831375" lon="13.441210641032113"><ele>691.0</ele><time>2026-05-01T11:50:53.999Z</time></trkpt><trkpt lat="42.04030414643655" lon="13.441403749193553"><ele>691.0</ele><time>2026-05-01T11:50:54.999Z</time></trkpt><trkpt lat="42.04041786317582" lon="13.441600977400302"><ele>691.0</ele><time>2026-05-01T11:50:55.999Z</time></trkpt><trkpt lat="42.04053425270747" lon="13.441808835485885"><ele>691.0</ele><time>2026-05-01T11:50:56.999Z</time></trkpt><trkpt lat="42.040653692400554" lon="13.442024871422687"><ele>691.3333333333334</ele><time>2026-05-01T11:50:57.999Z</time></trkpt><trkpt lat="42.040769971284654" lon="13.44224612835943"><ele>691.6666666666666</ele><time>2026-05-01T11:50:58.999Z</time></trkpt><trkpt lat="42.040884420524506" lon="13.442468215479327"><ele>692.0</ele><time>2026-05-01T11:50:59.999Z</time></trkpt><trkpt lat="42.041000132755194" lon="13.442685830584834"><ele>693.6666666666666</ele><time>2026-05-01T11:51:00.999Z</time></trkpt><trkpt lat="42.04111786309649" lon="13.442899645016258"><ele>695.3333333333334</ele><time>2026-05-01T11:51:01.999Z</time></trkpt><trkpt lat="42.041237562330174" lon="13.44311271360119"><ele>697.0</ele><time>2026-05-01T11:51:02.999Z</time></trkpt><trkpt lat="42.04135876906468" lon="13.443327821867591"><ele>697.0</ele><time>2026-05-01T11:51:03.999Z</time></trkpt><trkpt lat="42.041483548155455" lon="13.443550800362146"><ele>697.0</ele><time>2026-05-01T11:51:04.999Z</time></trkpt><trkpt lat="42.041607328861275" lon="13.443773578496362"><ele>697.0</ele><time>2026-05-01T11:51:05.999Z</time></trkpt><trkpt lat="42.04173165661113" lon="13.443996540807847"><ele>697.3333333333334</ele><time>2026-05-01T11:51:06.999Z</time></trkpt><trkpt lat="42.041845982623144" lon="13.444236836274486"><ele>697.6666666666666</ele><time>2026-05-01T11:51:07.999Z</time></trkpt><trkpt lat="42.0419829883473" lon="13.444453616974444"><ele>698.0</ele><time>2026-05-01T11:51:08.999Z</time></trkpt><trkpt lat="42.04210139809951" lon="13.444681660226383"><ele>698.3333333333333</ele><time>2026-05-01T11:51:09.999Z</time></trkpt><trkpt lat="42.042223345277165" lon="13.444913776078842"><ele>698.6666666666666</ele><time>2026-05-01T11:51:10.999Z</time></trkpt><trkpt lat="42.04234610456245" lon="13.445141522384258"><ele>699.0</ele><time>2026-05-01T11:51:11.999Z</time></trkpt><trkpt lat="42.042469815693146" lon="13.445372036715437"><ele>699.6666666666666</ele><time>2026-05-01T11:51:12.999Z</time></trkpt><trkpt lat="42.04259276499997" lon="13.445602627790446"><ele>700.3333333333333</ele><time>2026-05-01T11:51:13.999Z</time></trkpt><trkpt lat="42.04271456583021" lon="13.445831911636047"><ele>701.0</ele><time>2026-05-01T11:51:14.999Z</time></trkpt><trkpt lat="42.04283888312408" lon="13.446062954106182"><ele>701.0</ele><time>2026-05-01T11:51:15.999Z</time></trkpt><trkpt lat="42.04296439547926" lon="13.44628991228974"><ele>701.0</ele><time>2026-05-01T11:51:16.999Z</time></trkpt><trkpt lat="42.04309176546585" lon="13.446521726517702"><ele>701.0</ele><time>2026-05-01T11:51:17.999Z</time></trkpt><trkpt lat="42.04321774808621" lon="13.446754509650642"><ele>701.6666666666666</ele><time>2026-05-01T11:51:18.999Z</time></trkpt><trkpt lat="42.04334307194521" lon="13.446988964561205"><ele>702.3333333333334</ele><time>2026-05-01T11:51:19.999Z</time></trkpt><trkpt lat="42.0434660845633" lon="13.447222052010474"><ele>703.0</ele><time>2026-05-01T11:51:20.999Z</time></trkpt><trkpt lat="42.04359082121337" lon="13.447453813946815"><ele>703.0</ele><time>2026-05-01T11:51:21.999Z</time></trkpt><trkpt lat="42.04371419728334" lon="13.447681851665838"><ele>703.0</ele><time>2026-05-01T11:51:22.999Z</time></trkpt><trkpt lat="42.04383953214531" lon="13.447911943468927"><ele>703.0</ele><time>2026-05-01T11:51:23.999Z</time></trkpt><trkpt lat="42.043967773391884" lon="13.448142106866044"><ele>702.6666666666667</ele><time>2026-05-01T11:51:24.999Z</time></trkpt><trkpt lat="42.044093974113174" lon="13.448370331088778"><ele>702.3333333333334</ele><time>2026-05-01T11:51:25.999Z</time></trkpt><trkpt lat="42.044210468227405" lon="13.448587962518511"><ele>702.0</ele><time>2026-05-01T11:51:26.999Z</time></trkpt><trkpt lat="42.044318700560964" lon="13.448787812815889"><ele>701.75</ele><time>2026-05-01T11:51:27.999Z</time></trkpt><trkpt lat="42.044412694463695" lon="13.448965027128102"><ele>701.5</ele><time>2026-05-01T11:51:28.999Z</time></trkpt><trkpt lat="42.04449532926132" lon="13.449124648878264"><ele>701.25</ele><time>2026-05-01T11:51:29.999Z</time></trkpt><trkpt lat="42.044567482550036" lon="13.449262666615269"><ele>701.0</ele><time>2026-05-01T11:51:30.999Z</time></trkpt><trkpt lat="42.04462851030105" lon="13.449394697484065"><ele>701.0</ele><time>2026-05-01T11:51:31.999Z</time></trkpt><trkpt lat="42.044690035234844" lon="13.449546044490793"><ele>701.0</ele><time>2026-05-01T11:51:32.999Z</time></trkpt><trkpt lat="42.044771260682644" lon="13.449703384835743"><ele>701.0</ele><time>2026-05-01T11:51:33.999Z</time></trkpt><trkpt lat="42.044874178576926" lon="13.449856978791521"><ele>701.0</ele><time>2026-05-01T11:51:34.999Z</time></trkpt><trkpt lat="42.04497644111115" lon="13.450023694800343"><ele>701.3333333333333</ele><time>2026-05-01T11:51:35.999Z</time></trkpt><trkpt lat="42.045082689875066" lon="13.45020910972612"><ele>701.6666666666666</ele><time>2026-05-01T11:51:36.999Z</time></trkpt><trkpt lat="42.045183093469305" lon="13.450390141058946"><ele>702.0</ele><time>2026-05-01T11:51:37.999Z</time></trkpt><trkpt lat="42.04528783914142" lon="13.450576352808401"><ele>702.0</ele><time>2026-05-01T11:51:38.999Z</time></trkpt><trkpt lat="42.04539329615312" lon="13.45077186600142"><ele>702.0</ele><time>2026-05-01T11:51:39.999Z</time></trkpt><trkpt lat="42.04550057404156" lon="13.450975882664581"><ele>702.0</ele><time>2026-05-01T11:51:40.999Z</time></trkpt><trkpt lat="42.04561298301424" lon="13.451183217753798"><ele>701.3333333333334</ele><time>2026-05-01T11:51:41.999Z</time></trkpt><trkpt lat="42.04573277364821" lon="13.451395825060374"><ele>700.6666666666667</ele><time>2026-05-01T11:51:42.998Z</time></trkpt><trkpt lat="42.04584816455774" lon="13.451607679762303"><ele>700.0</ele><time>2026-05-01T11:51:43.998Z</time></trkpt><trkpt lat="42.045964693541144" lon="13.451826359831763"><ele>701.3333333333334</ele><time>2026-05-01T11:51:44.998Z</time></trkpt><trkpt lat="42.046084899323354" lon="13.452051060425624"><ele>702.6666666666666</ele><time>2026-05-01T11:51:45.998Z</time></trkpt><trkpt lat="42.04620964076486" lon="13.452275320709225"><ele>704.0</ele><time>2026-05-01T11:51:46.998Z</time></trkpt><trkpt lat="42.04633776991197" lon="13.452502947622358"><ele>704.0</ele><time>2026-05-01T11:51:47.998Z</time></trkpt><trkpt lat="42.046468151447144" lon="13.452736360623913"><ele>704.0</ele><time>2026-05-01T11:51:48.998Z</time></trkpt><trkpt lat="42.046592882930476" lon="13.452969303256888"><ele>704.0</ele><time>2026-05-01T11:51:49.998Z</time></trkpt><trkpt lat="42.04672267901565" lon="13.453211206753979"><ele>704.3333333333333</ele><time>2026-05-01T11:51:50.998Z</time></trkpt><trkpt lat="42.04685313956586" lon="13.453450799840553"><ele>704.6666666666666</ele><time>2026-05-01T11:51:51.998Z</time></trkpt><trkpt lat="42.04698450416881" lon="13.45369094387724"><ele>705.0</ele><time>2026-05-01T11:51:52.998Z</time></trkpt><trkpt lat="42.047120365607796" lon="13.453939449758556"><ele>705.0</ele><time>2026-05-01T11:51:53.998Z</time></trkpt><trkpt lat="42.04725561761018" lon="13.454183738116127"><ele>705.0</ele><time>2026-05-01T11:51:55Z</time></trkpt><trkpt lat="42.047392646342594" lon="13.45443225262132"><ele>705.5</ele><time>2026-05-01T11:51:56Z</time></trkpt><trkpt lat="42.047530541320164" lon="13.454683266408765"><ele>706.0</ele><time>2026-05-01T11:51:57Z</time></trkpt><trkpt lat="42.04766793870242" lon="13.454931367928776"><ele>706.0</ele><time>2026-05-01T11:51:58Z</time></trkpt><trkpt lat="42.04780508138928" lon="13.45518222619064"><ele>706.0</ele><time>2026-05-01T11:51:59Z</time></trkpt><trkpt lat="42.047942960415796" lon="13.455435845671524"><ele>705.0</ele><time>2026-05-01T11:52:00Z</time></trkpt><trkpt lat="42.04807979437914" lon="13.455691243574044"><ele>704.0</ele><time>2026-05-01T11:52:01Z</time></trkpt><trkpt lat="42.04821517553107" lon="13.455941210553648"><ele>704.6666666666666</ele><time>2026-05-01T11:52:02Z</time></trkpt><trkpt lat="42.04834912241814" lon="13.456182054230563"><ele>705.3333333333334</ele><time>2026-05-01T11:52:03Z</time></trkpt><trkpt lat="42.04847325299705" lon="13.456405291483737"><ele>706.0</ele><time>2026-05-01T11:52:04Z</time></trkpt><trkpt lat="42.04859139521119" lon="13.456615661978317"><ele>706.0</ele><time>2026-05-01T11:52:05Z</time></trkpt><trkpt lat="42.04870394641591" lon="13.456857263839302"><ele>706.0</ele><time>2026-05-01T11:52:06Z</time></trkpt><trkpt lat="42.048837856333016" lon="13.457103593689821"><ele>706.0</ele><time>2026-05-01T11:52:07Z</time></trkpt><trkpt lat="42.0489761345242" lon="13.457357353224252"><ele>706.0</ele><time>2026-05-01T11:52:08Z</time></trkpt><trkpt lat="42.049110900266356" lon="13.457604769663192"><ele>706.0</ele><time>2026-05-01T11:52:09Z</time></trkpt><trkpt lat="42.04925079236752" lon="13.45783645203049"><ele>705.3333333333334</ele><time>2026-05-01T11:52:10Z</time></trkpt><trkpt lat="42.04937650248211" lon="13.45808109138357"><ele>704.6666666666666</ele><time>2026-05-01T11:52:11Z</time></trkpt><trkpt lat="42.04950468748342" lon="13.45832062953046"><ele>704.0</ele><time>2026-05-01T11:52:12Z</time></trkpt><trkpt lat="42.049635122950406" lon="13.458562159240453"><ele>704.3333333333333</ele><time>2026-05-01T11:52:13Z</time></trkpt><trkpt lat="42.049767421565974" lon="13.458804307528668"><ele>704.6666666666666</ele><time>2026-05-01T11:52:14Z</time></trkpt><trkpt lat="42.04989957025063" lon="13.459045716911044"><ele>705.0</ele><time>2026-05-01T11:52:15Z</time></trkpt><trkpt lat="42.05003486908207" lon="13.459288559768282"><ele>705.0</ele><time>2026-05-01T11:52:16Z</time></trkpt><trkpt lat="42.050166208745765" lon="13.459532509632314"><ele>705.0</ele><time>2026-05-01T11:52:17Z</time></trkpt><trkpt lat="42.05029921758745" lon="13.459778244931965"><ele>704.6666666666666</ele><time>2026-05-01T11:52:18Z</time></trkpt><trkpt lat="42.05043039120942" lon="13.46002073666328"><ele>704.3333333333333</ele><time>2026-05-01T11:52:19Z</time></trkpt><trkpt lat="42.050557826493524" lon="13.46025618910178"><ele>704.0</ele><time>2026-05-01T11:52:20Z</time></trkpt><trkpt lat="42.05067768827679" lon="13.460473962496408"><ele>704.0</ele><time>2026-05-01T11:52:21Z</time></trkpt><trkpt lat="42.050779160688286" lon="13.460662829770083"><ele>704.0</ele><time>2026-05-01T11:52:22Z</time></trkpt><trkpt lat="42.05087151904955" lon="13.460833326628347"><ele>704.0</ele><time>2026-05-01T11:52:23Z</time></trkpt><trkpt lat="42.0509550165509" lon="13.460987172707771"><ele>704.0</ele><time>2026-05-01T11:52:24Z</time></trkpt><trkpt lat="42.051036442976255" lon="13.461139263401037"><ele>704.0</ele><time>2026-05-01T11:52:25Z</time></trkpt><trkpt lat="42.051113415769855" lon="13.461280683766509"><ele>704.0</ele><time>2026-05-01T11:52:26Z</time></trkpt><trkpt lat="42.05118080054383" lon="13.46140727955965"><ele>704.0</ele><time>2026-05-01T11:52:27Z</time></trkpt><trkpt lat="42.05123936136741" lon="13.461518059371915"><ele>703.5</ele><time>2026-05-01T11:52:28Z</time></trkpt><trkpt lat="42.05128998801887" lon="13.461615078278095"><ele>703.0</ele><time>2026-05-01T11:52:29Z</time></trkpt><trkpt lat="42.051327082744905" lon="13.461684561889461"><ele>702.5</ele><time>2026-05-01T11:52:30Z</time></trkpt><trkpt lat="42.05139431644366" lon="13.461784424975471"><ele>702.0</ele><time>2026-05-01T11:52:48.999Z</time></trkpt><trkpt lat="42.05143115912256" lon="13.461880572912188"><ele>701.5</ele><time>2026-05-01T11:52:49.999Z</time></trkpt><trkpt lat="42.051483445941436" lon="13.461978126242279"><ele>701.0</ele><time>2026-05-01T11:52:50.999Z</time></trkpt><trkpt lat="42.051543011969535" lon="13.462089350937692"><ele>700.5999999999999</ele><time>2026-05-01T11:52:51.999Z</time></trkpt><trkpt lat="42.05160406018948" lon="13.462203343210744"><ele>700.2</ele><time>2026-05-01T11:52:52.999Z</time></trkpt><trkpt lat="42.051668464362905" lon="13.46232360189359"><ele>699.8</ele><time>2026-05-01T11:52:53.999Z</time></trkpt><trkpt lat="42.05173415988064" lon="13.462446270798809"><ele>699.4000000000001</ele><time>2026-05-01T11:52:54.999Z</time></trkpt><trkpt lat="42.05180099706345" lon="13.462573834157315"><ele>699.0</ele><time>2026-05-01T11:52:55.999Z</time></trkpt><trkpt lat="42.05186962644854" lon="13.46270282357689"><ele>699.25</ele><time>2026-05-01T11:52:56.999Z</time></trkpt><trkpt lat="42.05193820617202" lon="13.462831719656414"><ele>699.5</ele><time>2026-05-01T11:52:57.999Z</time></trkpt><trkpt lat="42.052007773540524" lon="13.462962355318917"><ele>699.75</ele><time>2026-05-01T11:52:58.999Z</time></trkpt><trkpt lat="42.05209291385892" lon="13.46308766406545"><ele>700.0</ele><time>2026-05-01T11:52:59.999Z</time></trkpt><trkpt lat="42.05217249140941" lon="13.463233927787625"><ele>700.0</ele><time>2026-05-01T11:53:00.999Z</time></trkpt><trkpt lat="42.05225504038587" lon="13.46338928958861"><ele>700.0</ele><time>2026-05-01T11:53:01.999Z</time></trkpt><trkpt lat="42.052344214785926" lon="13.463556672395335"><ele>700.0</ele><time>2026-05-01T11:53:02.999Z</time></trkpt><trkpt lat="42.052422198595465" lon="13.463739132610302"><ele>700.0</ele><time>2026-05-01T11:53:03.999Z</time></trkpt><trkpt lat="42.05251655924429" lon="13.463917042043335"><ele>700.0</ele><time>2026-05-01T11:53:04.999Z</time></trkpt><trkpt lat="42.052626942918764" lon="13.46408886804491"><ele>700.0</ele><time>2026-05-01T11:53:05.999Z</time></trkpt><trkpt lat="42.052727609952235" lon="13.464279403446568"><ele>700.0</ele><time>2026-05-01T11:53:06.999Z</time></trkpt><trkpt lat="42.052829453015" lon="13.46447342194833"><ele>700.0</ele><time>2026-05-01T11:53:07.999Z</time></trkpt><trkpt lat="42.05293655290634" lon="13.464680334825585"><ele>700.0</ele><time>2026-05-01T11:53:08.999Z</time></trkpt><trkpt lat="42.05304575440454" lon="13.464885932070697"><ele>699.6666666666667</ele><time>2026-05-01T11:53:09.999Z</time></trkpt><trkpt lat="42.053154116032836" lon="13.465090751684732"><ele>699.3333333333334</ele><time>2026-05-01T11:53:10.999Z</time></trkpt><trkpt lat="42.05326121137969" lon="13.465292797259824"><ele>699.0</ele><time>2026-05-01T11:53:11.999Z</time></trkpt><trkpt lat="42.05336609344448" lon="13.465495477196374"><ele>699.0</ele><time>2026-05-01T11:53:12.999Z</time></trkpt><trkpt lat="42.05347657056318" lon="13.465705367458908"><ele>699.0</ele><time>2026-05-01T11:53:13.999Z</time></trkpt><trkpt lat="42.053587225837894" lon="13.46591338248241"><ele>699.0</ele><time>2026-05-01T11:53:14.999Z</time></trkpt><trkpt lat="42.05369265506698" lon="13.466110955151954"><ele>698.3333333333334</ele><time>2026-05-01T11:53:15.999Z</time></trkpt><trkpt lat="42.05379057114339" lon="13.466294611240697"><ele>697.6666666666667</ele><time>2026-05-01T11:53:16.999Z</time></trkpt><trkpt lat="42.053882958613656" lon="13.4664727693312"><ele>697.0</ele><time>2026-05-01T11:53:17.999Z</time></trkpt><trkpt lat="42.053979305925175" lon="13.466659167127187"><ele>697.0</ele><time>2026-05-01T11:53:18.999Z</time></trkpt><trkpt lat="42.05408221862623" lon="13.466856293655765"><ele>697.0</ele><time>2026-05-01T11:53:19.999Z</time></trkpt><trkpt lat="42.054192541190424" lon="13.467065097006422"><ele>697.0</ele><time>2026-05-01T11:53:20.999Z</time></trkpt><trkpt lat="42.05430760440384" lon="13.467284134807041"><ele>696.6666666666667</ele><time>2026-05-01T11:53:21.999Z</time></trkpt><trkpt lat="42.0544304012131" lon="13.467518616808318"><ele>696.3333333333334</ele><time>2026-05-01T11:53:22.999Z</time></trkpt><trkpt lat="42.05455412085614" lon="13.467759470113458"><ele>696.0</ele><time>2026-05-01T11:53:23.999Z</time></trkpt><trkpt lat="42.05467662068314" lon="13.467998637224383"><ele>695.3333333333334</ele><time>2026-05-01T11:53:24.999Z</time></trkpt><trkpt lat="42.05479761953451" lon="13.468233011553309"><ele>694.6666666666667</ele><time>2026-05-01T11:53:25.999Z</time></trkpt><trkpt lat="42.054918272584004" lon="13.468459541922147"><ele>694.0</ele><time>2026-05-01T11:53:26.999Z</time></trkpt><trkpt lat="42.05504458594128" lon="13.468691000207217"><ele>694.3333333333334</ele><time>2026-05-01T11:53:27.999Z</time></trkpt><trkpt lat="42.0551686212892" lon="13.46892329421568"><ele>694.6666666666666</ele><time>2026-05-01T11:53:28.999Z</time></trkpt><trkpt lat="42.05529286448921" lon="13.469155190681265"><ele>695.0</ele><time>2026-05-01T11:53:29.999Z</time></trkpt><trkpt lat="42.05540980130999" lon="13.469376159464883"><ele>695.0</ele><time>2026-05-01T11:53:30.999Z</time></trkpt><trkpt lat="42.0555203738928" lon="13.46959135960271"><ele>695.0</ele><time>2026-05-01T11:53:31.999Z</time></trkpt><trkpt lat="42.05562557366681" lon="13.469807727469586"><ele>695.0</ele><time>2026-05-01T11:53:32.999Z</time></trkpt><trkpt lat="42.05573045307312" lon="13.47004016583534"><ele>695.0</ele><time>2026-05-01T11:53:33.999Z</time></trkpt><trkpt lat="42.05582706331146" lon="13.47028426707581"><ele>695.0</ele><time>2026-05-01T11:53:34.999Z</time></trkpt><trkpt lat="42.05591210224149" lon="13.470537345661496"><ele>695.0</ele><time>2026-05-01T11:53:35.999Z</time></trkpt><trkpt lat="42.055986556175014" lon="13.470806550773453"><ele>694.0</ele><time>2026-05-01T11:53:36.999Z</time></trkpt><trkpt lat="42.05606193011324" lon="13.47107929738688"><ele>693.0</ele><time>2026-05-01T11:53:37.999Z</time></trkpt><trkpt lat="42.05613753058802" lon="13.471353579111051"><ele>692.0</ele><time>2026-05-01T11:53:38.999Z</time></trkpt><trkpt lat="42.05621628383407" lon="13.471631514404098"><ele>691.3333333333333</ele><time>2026-05-01T11:53:39.999Z</time></trkpt><trkpt lat="42.056296353372154" lon="13.471907945481085"><ele>690.6666666666666</ele><time>2026-05-01T11:53:40.999Z</time></trkpt><trkpt lat="42.05637465236641" lon="13.4721886453428"><ele>690.0</ele><time>2026-05-01T11:53:41.999Z</time></trkpt><trkpt lat="42.056437658695714" lon="13.47248307712578"><ele>689.0</ele><time>2026-05-01T11:53:42.999Z</time></trkpt><trkpt lat="42.056516161251814" lon="13.472767330888592"><ele>688.0</ele><time>2026-05-01T11:53:43.998Z</time></trkpt><trkpt lat="42.0565988780833" lon="13.473066844471935"><ele>690.0</ele><time>2026-05-01T11:53:44.998Z</time></trkpt><trkpt lat="42.056695820326496" lon="13.473360642307448"><ele>692.0</ele><time>2026-05-01T11:53:45.998Z</time></trkpt><trkpt lat="42.056780247565406" lon="13.47367226259425"><ele>690.5</ele><time>2026-05-01T11:53:46.998Z</time></trkpt><trkpt lat="42.05686760617418" lon="13.473983431803823"><ele>689.0</ele><time>2026-05-01T11:53:47.998Z</time></trkpt><trkpt lat="42.05695465088658" lon="13.474293807579393"><ele>687.5</ele><time>2026-05-01T11:53:48.998Z</time></trkpt><trkpt lat="42.05704206092173" lon="13.474610137162939"><ele>686.0</ele><time>2026-05-01T11:53:49.998Z</time></trkpt><trkpt lat="42.057129808827995" lon="13.474926034430695"><ele>686.0</ele><time>2026-05-01T11:53:50.998Z</time></trkpt><trkpt lat="42.05721703692776" lon="13.475241899876691"><ele>686.0</ele><time>2026-05-01T11:53:51.998Z</time></trkpt><trkpt lat="42.0573052759244" lon="13.475557950047008"><ele>684.0</ele><time>2026-05-01T11:53:52.998Z</time></trkpt><trkpt lat="42.05739348971858" lon="13.475874539066309"><ele>682.0</ele><time>2026-05-01T11:53:53.998Z</time></trkpt><trkpt lat="42.0574826961497" lon="13.476189518707988"><ele>683.5</ele><time>2026-05-01T11:53:54.998Z</time></trkpt><trkpt lat="42.05757331155711" lon="13.476507157636343"><ele>685.0</ele><time>2026-05-01T11:53:55.998Z</time></trkpt><trkpt lat="42.057665874621634" lon="13.476823842159115"><ele>683.0</ele><time>2026-05-01T11:53:56.998Z</time></trkpt><trkpt lat="42.057763828557405" lon="13.477141235881547"><ele>681.0</ele><time>2026-05-01T11:53:57.998Z</time></trkpt><trkpt lat="42.05786778875934" lon="13.477455163626926"><ele>681.0</ele><time>2026-05-01T11:53:58.998Z</time></trkpt><trkpt lat="42.05797445910442" lon="13.477766535352892"><ele>681.0</ele><time>2026-05-01T11:53:59.998Z</time></trkpt><trkpt lat="42.05808195146907" lon="13.478074488991433"><ele>680.0</ele><time>2026-05-01T11:54:01Z</time></trkpt><trkpt lat="42.05819074265912" lon="13.478377044074568"><ele>679.0</ele><time>2026-05-01T11:54:02Z</time></trkpt><trkpt lat="42.05829668976683" lon="13.478675593641738"><ele>681.5</ele><time>2026-05-01T11:54:03Z</time></trkpt><trkpt lat="42.05840124711352" lon="13.47896905928688"><ele>684.0</ele><time>2026-05-01T11:54:04Z</time></trkpt><trkpt lat="42.05850183788803" lon="13.47926300959405"><ele>684.0</ele><time>2026-05-01T11:54:05Z</time></trkpt><trkpt lat="42.05859835843289" lon="13.479553343400363"><ele>684.0</ele><time>2026-05-01T11:54:06Z</time></trkpt><trkpt lat="42.058695755028765" lon="13.479846278406516"><ele>682.0</ele><time>2026-05-01T11:54:07Z</time></trkpt><trkpt lat="42.05879423195425" lon="13.480134317489147"><ele>680.0</ele><time>2026-05-01T11:54:08Z</time></trkpt><trkpt lat="42.05889142857425" lon="13.480424506446614"><ele>679.5</ele><time>2026-05-01T11:54:09Z</time></trkpt><trkpt lat="42.05898900180194" lon="13.480714329407416"><ele>679.0</ele><time>2026-05-01T11:54:10Z</time></trkpt><trkpt lat="42.05908966383156" lon="13.48100741715013"><ele>681.5</ele><time>2026-05-01T11:54:11Z</time></trkpt><trkpt lat="42.05919017352817" lon="13.481294742116617"><ele>684.0</ele><time>2026-05-01T11:54:12Z</time></trkpt><trkpt lat="42.059296479933344" lon="13.481580981911153"><ele>684.0</ele><time>2026-05-01T11:54:13Z</time></trkpt><trkpt lat="42.059408061095525" lon="13.48186036337384"><ele>684.0</ele><time>2026-05-01T11:54:14Z</time></trkpt><trkpt lat="42.059528353322335" lon="13.482135697463006"><ele>683.0</ele><time>2026-05-01T11:54:15Z</time></trkpt><trkpt lat="42.059652902592255" lon="13.482403366246533"><ele>682.0</ele><time>2026-05-01T11:54:16Z</time></trkpt><trkpt lat="42.059773926109216" lon="13.482656502077091"><ele>682.0</ele><time>2026-05-01T11:54:17Z</time></trkpt><trkpt lat="42.059886092223834" lon="13.482892059877384"><ele>682.0</ele><time>2026-05-01T11:54:18Z</time></trkpt><trkpt lat="42.059993720230544" lon="13.483113827540059"><ele>682.0</ele><time>2026-05-01T11:54:19Z</time></trkpt><trkpt lat="42.06010380423792" lon="13.483339875359437"><ele>681.6666666666667</ele><time>2026-05-01T11:54:20Z</time></trkpt><trkpt lat="42.0602179514171" lon="13.483589120589574"><ele>681.3333333333334</ele><time>2026-05-01T11:54:21Z</time></trkpt><trkpt lat="42.06033191194222" lon="13.48384813199634"><ele>681.0</ele><time>2026-05-01T11:54:22Z</time></trkpt><trkpt lat="42.06045706042606" lon="13.4841143962249"><ele>681.0</ele><time>2026-05-01T11:54:23Z</time></trkpt><trkpt lat="42.06058958435351" lon="13.48438776229549"><ele>681.0</ele><time>2026-05-01T11:54:24Z</time></trkpt><trkpt lat="42.06071786692658" lon="13.48466733192949"><ele>682.5</ele><time>2026-05-01T11:54:25Z</time></trkpt><trkpt lat="42.06083892632565" lon="13.484948335750579"><ele>684.0</ele><time>2026-05-01T11:54:26Z</time></trkpt><trkpt lat="42.06095819274625" lon="13.485234134532014"><ele>681.5</ele><time>2026-05-01T11:54:27Z</time></trkpt><trkpt lat="42.06107930398897" lon="13.48551680148891"><ele>679.0</ele><time>2026-05-01T11:54:28Z</time></trkpt><trkpt lat="42.06120816204173" lon="13.485799816194465"><ele>679.0</ele><time>2026-05-01T11:54:29Z</time></trkpt><trkpt lat="42.06134038830669" lon="13.48607919236639"><ele>679.0</ele><time>2026-05-01T11:54:30Z</time></trkpt><trkpt lat="42.06147143229584" lon="13.486358431653008"><ele>678.5</ele><time>2026-05-01T11:54:31Z</time></trkpt><trkpt lat="42.06160051569283" lon="13.486637901399295"><ele>678.0</ele><time>2026-05-01T11:54:31.999Z</time></trkpt><trkpt lat="42.061726272737005" lon="13.48691153855393"><ele>679.5</ele><time>2026-05-01T11:54:32.999Z</time></trkpt><trkpt lat="42.061851319370824" lon="13.487181862690488"><ele>681.0</ele><time>2026-05-01T11:54:33.999Z</time></trkpt><trkpt lat="42.061974441907054" lon="13.48745043404201"><ele>681.0</ele><time>2026-05-01T11:54:34.999Z</time></trkpt><trkpt lat="42.06209611559043" lon="13.4877155225517"><ele>681.0</ele><time>2026-05-01T11:54:35.999Z</time></trkpt><trkpt lat="42.06221326959494" lon="13.487976232718857"><ele>680.0</ele><time>2026-05-01T11:54:36.999Z</time></trkpt><trkpt lat="42.062323462752246" lon="13.488242278588062"><ele>679.0</ele><time>2026-05-01T11:54:37.999Z</time></trkpt><trkpt lat="42.062422211751446" lon="13.488518907321538"><ele>680.5</ele><time>2026-05-01T11:54:38.999Z</time></trkpt><trkpt lat="42.06250333496875" lon="13.48881064150807"><ele>682.0</ele><time>2026-05-01T11:54:39.999Z</time></trkpt><trkpt lat="42.0625664417322" lon="13.48910774960431"><ele>682.0</ele><time>2026-05-01T11:54:40.999Z</time></trkpt><trkpt lat="42.06261055771069" lon="13.489414050794338"><ele>682.0</ele><time>2026-05-01T11:54:41.999Z</time></trkpt><trkpt lat="42.062631804297254" lon="13.489725767418104"><ele>681.0</ele><time>2026-05-01T11:54:42.999Z</time></trkpt><trkpt lat="42.062642949309414" lon="13.490047710635222"><ele>680.0</ele><time>2026-05-01T11:54:43.999Z</time></trkpt><trkpt lat="42.06264611915445" lon="13.490370411971206"><ele>679.0</ele><time>2026-05-01T11:54:44.999Z</time></trkpt><trkpt lat="42.06265407555378" lon="13.490700670412533"><ele>678.0</ele><time>2026-05-01T11:54:45.999Z</time></trkpt><trkpt lat="42.06266152931479" lon="13.491024208247412"><ele>678.0</ele><time>2026-05-01T11:54:46.999Z</time></trkpt><trkpt lat="42.06266707195616" lon="13.49134840334293"><ele>678.0</ele><time>2026-05-01T11:54:47.999Z</time></trkpt><trkpt lat="42.06267281326504" lon="13.491666291788418"><ele>678.0</ele><time>2026-05-01T11:54:48.999Z</time></trkpt><trkpt lat="42.062677871899936" lon="13.491966104964908"><ele>678.0</ele><time>2026-05-01T11:54:49.999Z</time></trkpt><trkpt lat="42.062681454357545" lon="13.492243854546283"><ele>678.0</ele><time>2026-05-01T11:54:50.999Z</time></trkpt><trkpt lat="42.062685776481956" lon="13.492496893848442"><ele>678.3333333333334</ele><time>2026-05-01T11:54:51.999Z</time></trkpt><trkpt lat="42.06268987352463" lon="13.492738306137788"><ele>678.6666666666667</ele><time>2026-05-01T11:54:52.999Z</time></trkpt><trkpt lat="42.06269372097325" lon="13.492982952646898"><ele>679.0</ele><time>2026-05-01T11:54:53.999Z</time></trkpt><trkpt lat="42.06269900385599" lon="13.493232690587558"><ele>679.0</ele><time>2026-05-01T11:54:54.999Z</time></trkpt><trkpt lat="42.06270823872486" lon="13.493504856795662"><ele>679.0</ele><time>2026-05-01T11:54:55.999Z</time></trkpt><trkpt lat="42.06272224843545" lon="13.493809705097988"><ele>679.0</ele><time>2026-05-01T11:54:56.999Z</time></trkpt><trkpt lat="42.06272627979021" lon="13.49411852401188"><ele>680.0</ele><time>2026-05-01T11:54:57.999Z</time></trkpt><trkpt lat="42.06272192489633" lon="13.494432365464078"><ele>681.0</ele><time>2026-05-01T11:54:58.999Z</time></trkpt><trkpt lat="42.062719371333" lon="13.494756053169361"><ele>682.0</ele><time>2026-05-01T11:54:59.999Z</time></trkpt><trkpt lat="42.06272409459736" lon="13.49508924068524"><ele>683.0</ele><time>2026-05-01T11:55:00.999Z</time></trkpt><trkpt lat="42.062734079970944" lon="13.495427608866024"><ele>683.0</ele><time>2026-05-01T11:55:01.999Z</time></trkpt><trkpt lat="42.06274370997804" lon="13.495776246057083"><ele>683.0</ele><time>2026-05-01T11:55:02.999Z</time></trkpt><trkpt lat="42.062749929389916" lon="13.496133747092397"><ele>682.5</ele><time>2026-05-01T11:55:03.999Z</time></trkpt><trkpt lat="42.062750244645926" lon="13.496492643846647"><ele>682.0</ele><time>2026-05-01T11:55:04.999Z</time></trkpt><trkpt lat="42.06274770456936" lon="13.496853460261956"><ele>681.0</ele><time>2026-05-01T11:55:05.999Z</time></trkpt><trkpt lat="42.06274762593677" lon="13.497217644562877"><ele>680.0</ele><time>2026-05-01T11:55:06.999Z</time></trkpt><trkpt lat="42.06275124135136" lon="13.497585979145125"><ele>680.5</ele><time>2026-05-01T11:55:07.999Z</time></trkpt><trkpt lat="42.06275668686489" lon="13.497959434024922"><ele>681.0</ele><time>2026-05-01T11:55:08.999Z</time></trkpt><trkpt lat="42.06276155951972" lon="13.498334514733864"><ele>681.0</ele><time>2026-05-01T11:55:09.999Z</time></trkpt><trkpt lat="42.06276577277343" lon="13.498709562720881"><ele>681.0</ele><time>2026-05-01T11:55:10.999Z</time></trkpt><trkpt lat="42.062771064817966" lon="13.499080057408948"><ele>681.5</ele><time>2026-05-01T11:55:11.999Z</time></trkpt><trkpt lat="42.06277756912323" lon="13.499448193561767"><ele>682.0</ele><time>2026-05-01T11:55:12.999Z</time></trkpt><trkpt lat="42.062782210798126" lon="13.49981611956716"><ele>682.0</ele><time>2026-05-01T11:55:13.999Z</time></trkpt><trkpt lat="42.06278515860768" lon="13.500184331301366"><ele>682.0</ele><time>2026-05-01T11:55:14.999Z</time></trkpt><trkpt lat="42.06278935674037" lon="13.500542778466292"><ele>682.0</ele><time>2026-05-01T11:55:15.999Z</time></trkpt><trkpt lat="42.06279467316798" lon="13.500875564085264"><ele>682.0</ele><time>2026-05-01T11:55:16.999Z</time></trkpt><trkpt lat="42.06280152568357" lon="13.50118663651152"><ele>682.0</ele><time>2026-05-01T11:55:17.999Z</time></trkpt><trkpt lat="42.062807211412284" lon="13.501479814888857"><ele>682.0</ele><time>2026-05-01T11:55:18.999Z</time></trkpt><trkpt lat="42.06281042749617" lon="13.50177760156292"><ele>682.0</ele><time>2026-05-01T11:55:19.999Z</time></trkpt><trkpt lat="42.062814093080576" lon="13.502095441445327"><ele>682.0</ele><time>2026-05-01T11:55:20.999Z</time></trkpt><trkpt lat="42.06281898058812" lon="13.50242106898863"><ele>682.0</ele><time>2026-05-01T11:55:21.999Z</time></trkpt><trkpt lat="42.06282180862904" lon="13.502755027656894"><ele>682.0</ele><time>2026-05-01T11:55:22.999Z</time></trkpt><trkpt lat="42.062825683568875" lon="13.50309794123291"><ele>682.0</ele><time>2026-05-01T11:55:23.999Z</time></trkpt><trkpt lat="42.06283125286999" lon="13.503443940877073"><ele>682.0</ele><time>2026-05-01T11:55:24.999Z</time></trkpt><trkpt lat="42.06283790818193" lon="13.503793161357335"><ele>682.0</ele><time>2026-05-01T11:55:25.999Z</time></trkpt><trkpt lat="42.062843838234116" lon="13.50414648292336"><ele>682.0</ele><time>2026-05-01T11:55:26.999Z</time></trkpt><trkpt lat="42.06284841841498" lon="13.504502361722434"><ele>682.0</ele><time>2026-05-01T11:55:27.999Z</time></trkpt><trkpt lat="42.062852178961585" lon="13.504857803659208"><ele>682.5</ele><time>2026-05-01T11:55:28.999Z</time></trkpt><trkpt lat="42.062856926673426" lon="13.505209546072274"><ele>683.0</ele><time>2026-05-01T11:55:29.999Z</time></trkpt><trkpt lat="42.06286041951973" lon="13.505560565632983"><ele>683.5</ele><time>2026-05-01T11:55:30.999Z</time></trkpt><trkpt lat="42.062865471815655" lon="13.505911307752102"><ele>684.0</ele><time>2026-05-01T11:55:31.999Z</time></trkpt><trkpt lat="42.0628709830676" lon="13.506264402705076"><ele>684.5</ele><time>2026-05-01T11:55:32.999Z</time></trkpt><trkpt lat="42.06287654802537" lon="13.506619020380395"><ele>685.0</ele><time>2026-05-01T11:55:33.999Z</time></trkpt><trkpt lat="42.0628821468581" lon="13.506977005315864"><ele>684.5</ele><time>2026-05-01T11:55:34.999Z</time></trkpt><trkpt lat="42.06288469239282" lon="13.507339946091529"><ele>684.0</ele><time>2026-05-01T11:55:35.999Z</time></trkpt><trkpt lat="42.06288694781048" lon="13.507706130053766"><ele>684.5</ele><time>2026-05-01T11:55:36.999Z</time></trkpt><trkpt lat="42.06289045674177" lon="13.508080082058367"><ele>685.0</ele><time>2026-05-01T11:55:37.999Z</time></trkpt><trkpt lat="42.06289574604579" lon="13.508454643881793"><ele>685.0</ele><time>2026-05-01T11:55:38.999Z</time></trkpt><trkpt lat="42.062902153700136" lon="13.508831506740027"><ele>685.0</ele><time>2026-05-01T11:55:39.998Z</time></trkpt><trkpt lat="42.062907733964174" lon="13.509209285050957"><ele>684.5</ele><time>2026-05-01T11:55:40.998Z</time></trkpt><trkpt lat="42.0629123987873" lon="13.509582128070635"><ele>684.0</ele><time>2026-05-01T11:55:41.998Z</time></trkpt><trkpt lat="42.062916873199185" lon="13.509952629142042"><ele>684.0</ele><time>2026-05-01T11:55:42.998Z</time></trkpt><trkpt lat="42.06291941868213" lon="13.510331442223452"><ele>684.0</ele><time>2026-05-01T11:55:43.998Z</time></trkpt><trkpt lat="42.06292425573947" lon="13.510714498723669"><ele>684.0</ele><time>2026-05-01T11:55:44.998Z</time></trkpt><trkpt lat="42.062931432337024" lon="13.511098460095077"><ele>684.0</ele><time>2026-05-01T11:55:45.998Z</time></trkpt><trkpt lat="42.0629400801694" lon="13.511484523872202"><ele>684.0</ele><time>2026-05-01T11:55:46.998Z</time></trkpt><trkpt lat="42.06294793258623" lon="13.511869254022397"><ele>684.0</ele><time>2026-05-01T11:55:47.998Z</time></trkpt><trkpt lat="42.062955136411325" lon="13.512252134809748"><ele>684.0</ele><time>2026-05-01T11:55:48.998Z</time></trkpt><trkpt lat="42.0629603261407" lon="13.512634378516536"><ele>684.0</ele><time>2026-05-01T11:55:49.998Z</time></trkpt><trkpt lat="42.06296561848514" lon="13.513020719184162"><ele>684.5</ele><time>2026-05-01T11:55:50.998Z</time></trkpt><trkpt lat="42.06297155704952" lon="13.513404363131235"><ele>685.0</ele><time>2026-05-01T11:55:51.998Z</time></trkpt><trkpt lat="42.06295983401099" lon="13.513785978919111"><ele>685.0</ele><time>2026-05-01T11:55:52.998Z</time></trkpt><trkpt lat="42.062965160477525" lon="13.514163870104067"><ele>685.0</ele><time>2026-05-01T11:55:53.998Z</time></trkpt><trkpt lat="42.062970433863214" lon="13.514537995434104"><ele>685.0</ele><time>2026-05-01T11:55:54.998Z</time></trkpt><trkpt lat="42.062975637105204" lon="13.514907144270554"><ele>685.0</ele><time>2026-05-01T11:55:55.998Z</time></trkpt><trkpt lat="42.062980446121095" lon="13.515272184962674"><ele>684.5</ele><time>2026-05-01T11:55:56.998Z</time></trkpt><trkpt lat="42.06298512568995" lon="13.51563910567684"><ele>684.0</ele><time>2026-05-01T11:55:57.998Z</time></trkpt><trkpt lat="42.062990533076764" lon="13.516002684261615"><ele>683.5</ele><time>2026-05-01T11:55:58.998Z</time></trkpt><trkpt lat="42.06301474715654" lon="13.516361935111211"><ele>683.0</ele><time>2026-05-01T11:55:59.998Z</time></trkpt><trkpt lat="42.063027185417766" lon="13.516712936238429"><ele>683.0</ele><time>2026-05-01T11:56:00.998Z</time></trkpt><trkpt lat="42.06305103844391" lon="13.517060308494134"><ele>683.0</ele><time>2026-05-01T11:56:01.998Z</time></trkpt><trkpt lat="42.06308143005361" lon="13.51734437284895"><ele>683.2</ele><time>2026-05-01T11:56:02.998Z</time></trkpt><trkpt lat="42.06310739158094" lon="13.517534325245771"><ele>683.4</ele><time>2026-05-01T11:56:03.998Z</time></trkpt><trkpt lat="42.06312397172532" lon="13.517684239797813"><ele>683.6</ele><time>2026-05-01T11:56:04.998Z</time></trkpt><trkpt lat="42.063133537110616" lon="13.51780753492902"><ele>683.8000000000001</ele><time>2026-05-01T11:56:05.998Z</time></trkpt><trkpt lat="42.06312365411136" lon="13.517929075746189"><ele>684.0</ele><time>2026-05-01T11:56:07Z</time></trkpt><trkpt lat="42.06308912435436" lon="13.518044694033115"><ele>684.25</ele><time>2026-05-01T11:56:08Z</time></trkpt><trkpt lat="42.06304712747597" lon="13.518175393283517"><ele>684.5</ele><time>2026-05-01T11:56:09Z</time></trkpt><trkpt lat="42.06303118007706" lon="13.518321207651754"><ele>684.75</ele><time>2026-05-01T11:56:10Z</time></trkpt><trkpt lat="42.06306455732854" lon="13.518478024091854"><ele>685.0</ele><time>2026-05-01T11:56:11Z</time></trkpt><trkpt lat="42.06314361914044" lon="13.518621011009873"><ele>684.6666666666667</ele><time>2026-05-01T11:56:12Z</time></trkpt><trkpt lat="42.06313243478374" lon="13.51883320759602"><ele>684.3333333333334</ele><time>2026-05-01T11:56:13Z</time></trkpt><trkpt lat="42.063113166467126" lon="13.5190437369795"><ele>684.0</ele><time>2026-05-01T11:56:14Z</time></trkpt><trkpt lat="42.06310420049515" lon="13.519276071857556"><ele>684.0</ele><time>2026-05-01T11:56:15Z</time></trkpt><trkpt lat="42.06307776105456" lon="13.519522153403388"><ele>684.0</ele><time>2026-05-01T11:56:16Z</time></trkpt><trkpt lat="42.063064029295134" lon="13.519798538823792"><ele>684.0</ele><time>2026-05-01T11:56:17Z</time></trkpt><trkpt lat="42.06305509370352" lon="13.520078897397052"><ele>684.0</ele><time>2026-05-01T11:56:18Z</time></trkpt><trkpt lat="42.063056928021666" lon="13.520378678598266"><ele>684.0</ele><time>2026-05-01T11:56:19Z</time></trkpt><trkpt lat="42.06306380691758" lon="13.520683291320276"><ele>684.0</ele><time>2026-05-01T11:56:20Z</time></trkpt><trkpt lat="42.063069043245285" lon="13.520961060175537"><ele>684.3333333333334</ele><time>2026-05-01T11:56:21Z</time></trkpt><trkpt lat="42.063072017429846" lon="13.521215973137807"><ele>684.6666666666667</ele><time>2026-05-01T11:56:22Z</time></trkpt><trkpt lat="42.06307520815655" lon="13.521477577613766"><ele>685.0</ele><time>2026-05-01T11:56:23Z</time></trkpt><trkpt lat="42.0630783389815" lon="13.52177694165252"><ele>686.0</ele><time>2026-05-01T11:56:24Z</time></trkpt><trkpt lat="42.063084756769186" lon="13.522099159779616"><ele>687.0</ele><time>2026-05-01T11:56:25Z</time></trkpt><trkpt lat="42.063090208016156" lon="13.522441329674535"><ele>687.0</ele><time>2026-05-01T11:56:26Z</time></trkpt><trkpt lat="42.06309433074115" lon="13.522789828020313"><ele>687.0</ele><time>2026-05-01T11:56:27Z</time></trkpt><trkpt lat="42.06310095338614" lon="13.523140267254075"><ele>687.0</ele><time>2026-05-01T11:56:28Z</time></trkpt><trkpt lat="42.063105599303476" lon="13.52349195902366"><ele>687.0</ele><time>2026-05-01T11:56:29Z</time></trkpt><trkpt lat="42.063112101554054" lon="13.523830820675403"><ele>687.0</ele><time>2026-05-01T11:56:30Z</time></trkpt><trkpt lat="42.063119264361305" lon="13.52415828286592"><ele>687.0</ele><time>2026-05-01T11:56:30.999Z</time></trkpt><trkpt lat="42.06312208177862" lon="13.524492629137592"><ele>686.0</ele><time>2026-05-01T11:56:31.999Z</time></trkpt><trkpt lat="42.06312014051906" lon="13.524839279322697"><ele>685.0</ele><time>2026-05-01T11:56:32.999Z</time></trkpt><trkpt lat="42.06310892931082" lon="13.525195053548469"><ele>685.0</ele><time>2026-05-01T11:56:33.999Z</time></trkpt><trkpt lat="42.063085900231556" lon="13.525556474288921"><ele>685.0</ele><time>2026-05-01T11:56:34.999Z</time></trkpt><trkpt lat="42.063049567138876" lon="13.525924938956397"><ele>684.0</ele><time>2026-05-01T11:56:35.999Z</time></trkpt><trkpt lat="42.06300419386265" lon="13.526296801902514"><ele>683.0</ele><time>2026-05-01T11:56:36.999Z</time></trkpt><trkpt lat="42.062951445881836" lon="13.52667012982571"><ele>683.0</ele><time>2026-05-01T11:56:37.999Z</time></trkpt><trkpt lat="42.0628956509726" lon="13.527040783397027"><ele>683.0</ele><time>2026-05-01T11:56:38.999Z</time></trkpt><trkpt lat="42.062835808320756" lon="13.527417267188014"><ele>683.0</ele><time>2026-05-01T11:56:39.999Z</time></trkpt><trkpt lat="42.062771783924354" lon="13.527801732102137"><ele>683.0</ele><time>2026-05-01T11:56:40.999Z</time></trkpt><trkpt lat="42.06270581873534" lon="13.528190415045302"><ele>683.0</ele><time>2026-05-01T11:56:41.999Z</time></trkpt><trkpt lat="42.06264013343844" lon="13.528586966823388"><ele>683.0</ele><time>2026-05-01T11:56:42.999Z</time></trkpt><trkpt lat="42.06257496943092" lon="13.528985845289931"><ele>683.0</ele><time>2026-05-01T11:56:43.999Z</time></trkpt><trkpt lat="42.06251050717396" lon="13.529385139035055"><ele>683.0</ele><time>2026-05-01T11:56:44.999Z</time></trkpt><trkpt lat="42.062449124497036" lon="13.529785638862359"><ele>683.0</ele><time>2026-05-01T11:56:45.999Z</time></trkpt><trkpt lat="42.06238367291142" lon="13.530187285704345"><ele>683.0</ele><time>2026-05-01T11:56:46.999Z</time></trkpt><trkpt lat="42.062315569654416" lon="13.530591448060362"><ele>683.0</ele><time>2026-05-01T11:56:47.999Z</time></trkpt><trkpt lat="42.06224715133465" lon="13.530993835498272"><ele>683.0</ele><time>2026-05-01T11:56:48.999Z</time></trkpt><trkpt lat="42.062180717124775" lon="13.531399155976478"><ele>684.0</ele><time>2026-05-01T11:56:49.999Z</time></trkpt><trkpt lat="42.062116346089944" lon="13.53180087958313"><ele>685.0</ele><time>2026-05-01T11:56:50.999Z</time></trkpt><trkpt lat="42.06205035362778" lon="13.532204343185366"><ele>685.5</ele><time>2026-05-01T11:56:51.999Z</time></trkpt><trkpt lat="42.06198566767913" lon="13.532606469190583"><ele>686.0</ele><time>2026-05-01T11:56:52.999Z</time></trkpt><trkpt lat="42.061919951178936" lon="13.533008844903945"><ele>686.0</ele><time>2026-05-01T11:56:53.999Z</time></trkpt><trkpt lat="42.06185300709681" lon="13.533412240867392"><ele>686.0</ele><time>2026-05-01T11:56:54.999Z</time></trkpt><trkpt lat="42.06178639626681" lon="13.533815394209311"><ele>687.0</ele><time>2026-05-01T11:56:55.999Z</time></trkpt><trkpt lat="42.06171853125809" lon="13.534217313495688"><ele>688.0</ele><time>2026-05-01T11:56:56.999Z</time></trkpt><trkpt lat="42.06165055806801" lon="13.534619381366081"><ele>688.0</ele><time>2026-05-01T11:56:57.999Z</time></trkpt><trkpt lat="42.06158180020909" lon="13.535023038144695"><ele>688.0</ele><time>2026-05-01T11:56:58.999Z</time></trkpt><trkpt lat="42.06151575140521" lon="13.535424903230982"><ele>688.0</ele><time>2026-05-01T11:56:59.999Z</time></trkpt><trkpt lat="42.06144872064688" lon="13.535828681480371"><ele>688.0</ele><time>2026-05-01T11:57:00.999Z</time></trkpt><trkpt lat="42.06138368127775" lon="13.536232289756745"><ele>689.0</ele><time>2026-05-01T11:57:01.999Z</time></trkpt><trkpt lat="42.06131846952196" lon="13.536636773794854"><ele>690.0</ele><time>2026-05-01T11:57:02.999Z</time></trkpt><trkpt lat="42.06125296101437" lon="13.537043681778943"><ele>691.5</ele><time>2026-05-01T11:57:03.999Z</time></trkpt><trkpt lat="42.06118762017829" lon="13.537449688878354"><ele>693.0</ele><time>2026-05-01T11:57:04.999Z</time></trkpt><trkpt lat="42.061121529441955" lon="13.537854667308382"><ele>693.5</ele><time>2026-05-01T11:57:05.999Z</time></trkpt><trkpt lat="42.061053590580144" lon="13.538257332943521"><ele>694.0</ele><time>2026-05-01T11:57:06.999Z</time></trkpt><trkpt lat="42.06098591844417" lon="13.53865548974221"><ele>694.5</ele><time>2026-05-01T11:57:07.999Z</time></trkpt><trkpt lat="42.06092189551127" lon="13.5390523354299"><ele>695.0</ele><time>2026-05-01T11:57:08.999Z</time></trkpt><trkpt lat="42.06086060412414" lon="13.539444141116851"><ele>696.0</ele><time>2026-05-01T11:57:09.999Z</time></trkpt><trkpt lat="42.0607985967158" lon="13.53983970523352"><ele>697.0</ele><time>2026-05-01T11:57:10.999Z</time></trkpt><trkpt lat="42.060736201140465" lon="13.540233824105817"><ele>695.5</ele><time>2026-05-01T11:57:11.999Z</time></trkpt><trkpt lat="42.06067220065198" lon="13.54063246658423"><ele>694.0</ele><time>2026-05-01T11:57:12.999Z</time></trkpt><trkpt lat="42.060605993540804" lon="13.541035226072932"><ele>695.0</ele><time>2026-05-01T11:57:13.999Z</time></trkpt><trkpt lat="42.0605414910215" lon="13.541434992033462"><ele>696.0</ele><time>2026-05-01T11:57:14.999Z</time></trkpt><trkpt lat="42.06047654605555" lon="13.541835954781922"><ele>696.0</ele><time>2026-05-01T11:57:15.999Z</time></trkpt><trkpt lat="42.06041206330928" lon="13.542234360186734"><ele>696.0</ele><time>2026-05-01T11:57:16.999Z</time></trkpt><trkpt lat="42.06034787537683" lon="13.542629867260652"><ele>696.5</ele><time>2026-05-01T11:57:17.999Z</time></trkpt><trkpt lat="42.060282592219274" lon="13.54302703179025"><ele>697.0</ele><time>2026-05-01T11:57:18.999Z</time></trkpt><trkpt lat="42.06021723830925" lon="13.54342591086227"><ele>696.5</ele><time>2026-05-01T11:57:19.999Z</time></trkpt><trkpt lat="42.06015168494804" lon="13.543826208742882"><ele>696.0</ele><time>2026-05-01T11:57:20.999Z</time></trkpt><trkpt lat="42.06008580122394" lon="13.544229224426989"><ele>695.5</ele><time>2026-05-01T11:57:21.999Z</time></trkpt><trkpt lat="42.06001978004672" lon="13.544632604862164"><ele>695.0</ele><time>2026-05-01T11:57:22.999Z</time></trkpt><trkpt lat="42.05995643260991" lon="13.5450291465262"><ele>695.5</ele><time>2026-05-01T11:57:23.999Z</time></trkpt><trkpt lat="42.05987657354014" lon="13.545415259729825"><ele>696.0</ele><time>2026-05-01T11:57:24.999Z</time></trkpt><trkpt lat="42.05981466776026" lon="13.54579645930381"><ele>696.0</ele><time>2026-05-01T11:57:25.999Z</time></trkpt><trkpt lat="42.059753941569014" lon="13.54617037617145"><ele>696.0</ele><time>2026-05-01T11:57:26.999Z</time></trkpt><trkpt lat="42.05971091519266" lon="13.546542021053506"><ele>696.0</ele><time>2026-05-01T11:57:27.999Z</time></trkpt><trkpt lat="42.05965087708142" lon="13.546905890258401"><ele>696.0</ele><time>2026-05-01T11:57:28.999Z</time></trkpt><trkpt lat="42.05959014972523" lon="13.54726319014168"><ele>696.0</ele><time>2026-05-01T11:57:29.999Z</time></trkpt><trkpt lat="42.059531348970594" lon="13.54760486192203"><ele>696.0</ele><time>2026-05-01T11:57:30.999Z</time></trkpt><trkpt lat="42.059474923503664" lon="13.547944331431944"><ele>695.5</ele><time>2026-05-01T11:57:31.999Z</time></trkpt><trkpt lat="42.059420626291164" lon="13.548283807745966"><ele>695.0</ele><time>2026-05-01T11:57:32.999Z</time></trkpt><trkpt lat="42.05936793833974" lon="13.54862268986397"><ele>696.0</ele><time>2026-05-01T11:57:33.999Z</time></trkpt><trkpt lat="42.059313970694745" lon="13.54896025217502"><ele>697.0</ele><time>2026-05-01T11:57:34.999Z</time></trkpt><trkpt lat="42.059257819837086" lon="13.549304010285937"><ele>697.0</ele><time>2026-05-01T11:57:35.999Z</time></trkpt><trkpt lat="42.059184943380146" lon="13.549650494794466"><ele>697.0</ele><time>2026-05-01T11:57:36.999Z</time></trkpt><trkpt lat="42.059127137171686" lon="13.550003513974815"><ele>697.0</ele><time>2026-05-01T11:57:37.999Z</time></trkpt><trkpt lat="42.05908557956223" lon="13.55036124310345"><ele>697.0</ele><time>2026-05-01T11:57:38.999Z</time></trkpt><trkpt lat="42.0590287001" lon="13.550704465553824"><ele>696.0</ele><time>2026-05-01T11:57:39.999Z</time></trkpt><trkpt lat="42.058959684219055" lon="13.551026574989878"><ele>695.0</ele><time>2026-05-01T11:57:40.999Z</time></trkpt><trkpt lat="42.05890681342604" lon="13.551349303708939"><ele>693.5</ele><time>2026-05-01T11:57:41.998Z</time></trkpt><trkpt lat="42.05885378789805" lon="13.551672976656084"><ele>692.0</ele><time>2026-05-01T11:57:42.998Z</time></trkpt><trkpt lat="42.058800339528894" lon="13.551999230963938"><ele>692.5</ele><time>2026-05-01T11:57:43.998Z</time></trkpt><trkpt lat="42.05875978460497" lon="13.552333634333134"><ele>693.0</ele><time>2026-05-01T11:57:44.998Z</time></trkpt><trkpt lat="42.05870401522623" lon="13.552668282529494"><ele>694.0</ele><time>2026-05-01T11:57:45.998Z</time></trkpt><trkpt lat="42.05864909049305" lon="13.553001252898119"><ele>695.0</ele><time>2026-05-01T11:57:46.998Z</time></trkpt><trkpt lat="42.05859548262577" lon="13.553331812837929"><ele>695.0</ele><time>2026-05-01T11:57:47.998Z</time></trkpt><trkpt lat="42.05853947701405" lon="13.553671897467463"><ele>695.0</ele><time>2026-05-01T11:57:48.998Z</time></trkpt><trkpt lat="42.05848735398139" lon="13.55399806165648"><ele>696.5</ele><time>2026-05-01T11:57:49.998Z</time></trkpt><trkpt lat="42.058436545447066" lon="13.554315768942057"><ele>698.0</ele><time>2026-05-01T11:57:50.998Z</time></trkpt><trkpt lat="42.0583908972231" lon="13.554636423892845"><ele>698.0</ele><time>2026-05-01T11:57:51.998Z</time></trkpt><trkpt lat="42.05834763508463" lon="13.554963205440428"><ele>698.0</ele><time>2026-05-01T11:57:52.998Z</time></trkpt><trkpt lat="42.05830655316518" lon="13.555290552841049"><ele>697.0</ele><time>2026-05-01T11:57:53.998Z</time></trkpt><trkpt lat="42.05826842655275" lon="13.555621793097144"><ele>696.0</ele><time>2026-05-01T11:57:54.998Z</time></trkpt><trkpt lat="42.058234699997854" lon="13.55594965033514"><ele>696.0</ele><time>2026-05-01T11:57:55.998Z</time></trkpt><trkpt lat="42.05820546320362" lon="13.556269583764768"><ele>696.0</ele><time>2026-05-01T11:57:56.998Z</time></trkpt><trkpt lat="42.05818118895922" lon="13.556568760401417"><ele>696.0</ele><time>2026-05-01T11:57:57.998Z</time></trkpt><trkpt lat="42.05815983237468" lon="13.556864241435067"><ele>696.0</ele><time>2026-05-01T11:57:58.998Z</time></trkpt><trkpt lat="42.058144419714665" lon="13.557146105473198"><ele>696.0</ele><time>2026-05-01T11:57:59.998Z</time></trkpt><trkpt lat="42.05813039572111" lon="13.55741485213724"><ele>695.6666666666666</ele><time>2026-05-01T11:58:00.998Z</time></trkpt><trkpt lat="42.05812023466756" lon="13.557663342577007"><ele>695.3333333333333</ele><time>2026-05-01T11:58:01.998Z</time></trkpt><trkpt lat="42.05811268701228" lon="13.557904254483145"><ele>695.0</ele><time>2026-05-01T11:58:02.998Z</time></trkpt><trkpt lat="42.0581114181336" lon="13.558118091403188"><ele>694.8</ele><time>2026-05-01T11:58:03.998Z</time></trkpt><trkpt lat="42.05811944551214" lon="13.558307342128817"><ele>694.6</ele><time>2026-05-01T11:58:04.998Z</time></trkpt><trkpt lat="42.058138797999604" lon="13.558471994561922"><ele>694.4000000000001</ele><time>2026-05-01T11:58:05.998Z</time></trkpt><trkpt lat="42.05815404278808" lon="13.558611126802434"><ele>694.2</ele><time>2026-05-01T11:58:06.998Z</time></trkpt><trkpt lat="42.05815990250378" lon="13.558704557400054"><ele>694.0</ele><time>2026-05-01T11:58:07.998Z</time></trkpt><trkpt lat="42.05814372939836" lon="13.558815112926458"><ele>693.8333333333334</ele><time>2026-05-01T11:58:09.998Z</time></trkpt><trkpt lat="42.058074384307815" lon="13.558979593394811"><ele>693.6666666666667</ele><time>2026-05-01T11:58:11.998Z</time></trkpt><trkpt lat="42.05803979738888" lon="13.559051470077598"><ele>693.5</ele><time>2026-05-01T11:58:13Z</time></trkpt><trkpt lat="42.05801411661146" lon="13.559136834589406"><ele>693.3333333333334</ele><time>2026-05-01T11:58:14Z</time></trkpt><trkpt lat="42.05800993944789" lon="13.559244861330939"><ele>693.1666666666666</ele><time>2026-05-01T11:58:15Z</time></trkpt><trkpt lat="42.05803224061858" lon="13.55935610575728"><ele>693.0</ele><time>2026-05-01T11:58:16Z</time></trkpt><trkpt lat="42.05807731566476" lon="13.55943215320032"><ele>693.0</ele><time>2026-05-01T11:58:17Z</time></trkpt><trkpt lat="42.05814179883096" lon="13.559484472401325"><ele>693.0</ele><time>2026-05-01T11:58:18Z</time></trkpt><trkpt lat="42.0582272860497" lon="13.559502706212234"><ele>693.0</ele><time>2026-05-01T11:58:19Z</time></trkpt><trkpt lat="42.05831676766143" lon="13.559480329605698"><ele>693.0</ele><time>2026-05-01T11:58:20Z</time></trkpt><trkpt lat="42.05839368043996" lon="13.559412658789274"><ele>693.0</ele><time>2026-05-01T11:58:21Z</time></trkpt><trkpt lat="42.05844604438486" lon="13.559303166172654"><ele>693.0</ele><time>2026-05-01T11:58:22Z</time></trkpt><trkpt lat="42.058465135429635" lon="13.559164846519042"><ele>693.0</ele><time>2026-05-01T11:58:23Z</time></trkpt><trkpt lat="42.058461357201466" lon="13.559016271199054"><ele>693.0</ele><time>2026-05-01T11:58:24Z</time></trkpt><trkpt lat="42.0584867240759" lon="13.55886689308412"><ele>693.0</ele><time>2026-05-01T11:58:25Z</time></trkpt><trkpt lat="42.05855970306454" lon="13.558743015999983"><ele>693.0</ele><time>2026-05-01T11:58:26Z</time></trkpt><trkpt lat="42.058791272670405" lon="13.558537783950065"><ele>693.3333333333334</ele><time>2026-05-01T11:58:28Z</time></trkpt><trkpt lat="42.05892947600268" lon="13.558440605615752"><ele>693.6666666666667</ele><time>2026-05-01T11:58:29Z</time></trkpt><trkpt lat="42.059074538328574" lon="13.558340642717123"><ele>694.0</ele><time>2026-05-01T11:58:30Z</time></trkpt><trkpt lat="42.059217105135076" lon="13.558237409318375"><ele>694.0</ele><time>2026-05-01T11:58:31Z</time></trkpt><trkpt lat="42.059369190033316" lon="13.558126784973965"><ele>694.0</ele><time>2026-05-01T11:58:32Z</time></trkpt><trkpt lat="42.05952608034223" lon="13.558011856390706"><ele>694.0</ele><time>2026-05-01T11:58:33Z</time></trkpt><trkpt lat="42.059687980699245" lon="13.557894085628902"><ele>694.0</ele><time>2026-05-01T11:58:34Z</time></trkpt><trkpt lat="42.05985692098069" lon="13.557775531646199"><ele>694.0</ele><time>2026-05-01T11:58:35Z</time></trkpt><trkpt lat="42.06003069972672" lon="13.557656645115854"><ele>694.0</ele><time>2026-05-01T11:58:36Z</time></trkpt><trkpt lat="42.060213402931055" lon="13.557536249624793"><ele>694.0</ele><time>2026-05-01T11:58:37Z</time></trkpt><trkpt lat="42.060399898425814" lon="13.557419995703695"><ele>694.0</ele><time>2026-05-01T11:58:38Z</time></trkpt><trkpt lat="42.06059844751358" lon="13.557303458262913"><ele>694.0</ele><time>2026-05-01T11:58:39Z</time></trkpt><trkpt lat="42.06081212583444" lon="13.5571834016187"><ele>695.0</ele><time>2026-05-01T11:58:40Z</time></trkpt><trkpt lat="42.06103464623923" lon="13.557057397602433"><ele>696.0</ele><time>2026-05-01T11:58:41Z</time></trkpt><trkpt lat="42.0612585158294" lon="13.556924474566102"><ele>697.0</ele><time>2026-05-01T11:58:42Z</time></trkpt><trkpt lat="42.06147877066651" lon="13.556776760929678"><ele>698.0</ele><time>2026-05-01T11:58:43Z</time></trkpt><trkpt lat="42.061700753152685" lon="13.556614646763732"><ele>698.0</ele><time>2026-05-01T11:58:43.999Z</time></trkpt><trkpt lat="42.061921357975734" lon="13.556447627361573"><ele>698.0</ele><time>2026-05-01T11:58:44.999Z</time></trkpt><trkpt lat="42.0621490922625" lon="13.556284273592315"><ele>698.5</ele><time>2026-05-01T11:58:45.999Z</time></trkpt><trkpt lat="42.06238119640188" lon="13.55611742031054"><ele>699.0</ele><time>2026-05-01T11:58:46.999Z</time></trkpt><trkpt lat="42.062615229167534" lon="13.555953250066596"><ele>700.0</ele><time>2026-05-01T11:58:47.999Z</time></trkpt><trkpt lat="42.062848292656405" lon="13.555791094836312"><ele>701.0</ele><time>2026-05-01T11:58:48.999Z</time></trkpt><trkpt lat="42.063076158852894" lon="13.555630342201798"><ele>701.5</ele><time>2026-05-01T11:58:49.999Z</time></trkpt><trkpt lat="42.063301705281816" lon="13.555477062762474"><ele>702.0</ele><time>2026-05-01T11:58:50.999Z</time></trkpt><trkpt lat="42.063528399615215" lon="13.555338180217523"><ele>702.5</ele><time>2026-05-01T11:58:51.999Z</time></trkpt><trkpt lat="42.063762228205164" lon="13.55524068083438"><ele>703.0</ele><time>2026-05-01T11:58:52.999Z</time></trkpt><trkpt lat="42.063989174742666" lon="13.55513404785959"><ele>702.5</ele><time>2026-05-01T11:58:53.999Z</time></trkpt><trkpt lat="42.06421759940037" lon="13.555016989847443"><ele>702.0</ele><time>2026-05-01T11:58:54.999Z</time></trkpt><trkpt lat="42.06445717965482" lon="13.554930654714193"><ele>702.0</ele><time>2026-05-01T11:58:55.999Z</time></trkpt><trkpt lat="42.064696682934326" lon="13.554854129958446"><ele>702.0</ele><time>2026-05-01T11:58:56.999Z</time></trkpt><trkpt lat="42.064934592167674" lon="13.55478645386458"><ele>704.5</ele><time>2026-05-01T11:58:57.999Z</time></trkpt><trkpt lat="42.065173562335936" lon="13.554712580449474"><ele>707.0</ele><time>2026-05-01T11:58:58.999Z</time></trkpt><trkpt lat="42.065410501991515" lon="13.554632254091482"><ele>707.0</ele><time>2026-05-01T11:58:59.999Z</time></trkpt><trkpt lat="42.06564686394664" lon="13.554553102360911"><ele>707.0</ele><time>2026-05-01T11:59:00.999Z</time></trkpt><trkpt lat="42.065882643722894" lon="13.554475289016375"><ele>708.0</ele><time>2026-05-01T11:59:01.999Z</time></trkpt><trkpt lat="42.06611146034004" lon="13.554404274708"><ele>709.0</ele><time>2026-05-01T11:59:02.999Z</time></trkpt><trkpt lat="42.06632445265042" lon="13.554338583709711"><ele>709.0</ele><time>2026-05-01T11:59:03.999Z</time></trkpt><trkpt lat="42.066522458653196" lon="13.554278598442142"><ele>709.0</ele><time>2026-05-01T11:59:04.999Z</time></trkpt><trkpt lat="42.06671361917598" lon="13.554228224426708"><ele>709.0</ele><time>2026-05-01T11:59:05.999Z</time></trkpt><trkpt lat="42.066897483179176" lon="13.55420398853964"><ele>710.0</ele><time>2026-05-01T11:59:06.999Z</time></trkpt><trkpt lat="42.06708688486473" lon="13.554227155977642"><ele>711.0</ele><time>2026-05-01T11:59:07.999Z</time></trkpt><trkpt lat="42.06728151655735" lon="13.5542389180246"><ele>712.0</ele><time>2026-05-01T11:59:08.999Z</time></trkpt><trkpt lat="42.067470645858386" lon="13.554330344610376"><ele>712.6666666666667</ele><time>2026-05-01T11:59:09.999Z</time></trkpt><trkpt lat="42.06766174865707" lon="13.554426575009431"><ele>713.3333333333334</ele><time>2026-05-01T11:59:10.999Z</time></trkpt><trkpt lat="42.06785708197052" lon="13.554536275973748"><ele>714.0</ele><time>2026-05-01T11:59:11.999Z</time></trkpt><trkpt lat="42.06804224306867" lon="13.554628537241555"><ele>714.0</ele><time>2026-05-01T11:59:12.999Z</time></trkpt><trkpt lat="42.06820418069672" lon="13.554722599356614"><ele>714.0</ele><time>2026-05-01T11:59:13.999Z</time></trkpt><trkpt lat="42.06836719188849" lon="13.554779897485481"><ele>714.0</ele><time>2026-05-01T11:59:14.999Z</time></trkpt><trkpt lat="42.06853926705146" lon="13.554788503874276"><ele>714.6666666666666</ele><time>2026-05-01T11:59:15.999Z</time></trkpt><trkpt lat="42.06871865942034" lon="13.554718617641903"><ele>715.3333333333333</ele><time>2026-05-01T11:59:16.999Z</time></trkpt><trkpt lat="42.06889147995942" lon="13.554579965542548"><ele>716.0</ele><time>2026-05-01T11:59:17.999Z</time></trkpt><trkpt lat="42.06905062810972" lon="13.554388053481938"><ele>718.0</ele><time>2026-05-01T11:59:18.999Z</time></trkpt><trkpt lat="42.06920651875875" lon="13.554198038617422"><ele>720.0</ele><time>2026-05-01T11:59:19.999Z</time></trkpt><trkpt lat="42.06936270908035" lon="13.55401858340793"><ele>722.0</ele><time>2026-05-01T11:59:20.999Z</time></trkpt><trkpt lat="42.06950979738688" lon="13.553860823710869"><ele>722.0</ele><time>2026-05-01T11:59:21.999Z</time></trkpt><trkpt lat="42.06965267232602" lon="13.553734716148302"><ele>722.0</ele><time>2026-05-01T11:59:22.999Z</time></trkpt><trkpt lat="42.069788892964574" lon="13.553599848772867"><ele>722.0</ele><time>2026-05-01T11:59:23.999Z</time></trkpt><trkpt lat="42.06996529947442" lon="13.55352387351365"><ele>722.0</ele><time>2026-05-01T11:59:24.999Z</time></trkpt><trkpt lat="42.07015750952466" lon="13.553462550044149"><ele>722.0</ele><time>2026-05-01T11:59:25.999Z</time></trkpt><trkpt lat="42.070358577057874" lon="13.553382860335983"><ele>722.0</ele><time>2026-05-01T11:59:26.999Z</time></trkpt><trkpt lat="42.07056972590111" lon="13.553333448899755"><ele>722.0</ele><time>2026-05-01T11:59:27.999Z</time></trkpt><trkpt lat="42.07077057631014" lon="13.553280782519634"><ele>722.0</ele><time>2026-05-01T11:59:28.999Z</time></trkpt><trkpt lat="42.07095252194817" lon="13.553226413591663"><ele>722.0</ele><time>2026-05-01T11:59:29.999Z</time></trkpt><trkpt lat="42.071119835457914" lon="13.553167407862695"><ele>721.3333333333333</ele><time>2026-05-01T11:59:30.999Z</time></trkpt><trkpt lat="42.07127866008621" lon="13.55309121606186"><ele>720.6666666666666</ele><time>2026-05-01T11:59:31.999Z</time></trkpt><trkpt lat="42.07143021193314" lon="13.552983441751925"><ele>720.0</ele><time>2026-05-01T11:59:32.999Z</time></trkpt><trkpt lat="42.07156111812899" lon="13.552865127363676"><ele>721.2</ele><time>2026-05-01T11:59:33.999Z</time></trkpt><trkpt lat="42.07168413333326" lon="13.55278674386849"><ele>722.4</ele><time>2026-05-01T11:59:34.999Z</time></trkpt><trkpt lat="42.071766542494615" lon="13.552698639100203"><ele>723.5999999999999</ele><time>2026-05-01T11:59:35.999Z</time></trkpt><trkpt lat="42.07183487529566" lon="13.552681431435362"><ele>724.8</ele><time>2026-05-01T11:59:36.999Z</time></trkpt><trkpt lat="42.07193185963658" lon="13.552638897227805"><ele>726.0</ele><time>2026-05-01T11:59:38.999Z</time></trkpt><trkpt lat="42.072001635360515" lon="13.552650119592855"><ele>726.0</ele><time>2026-05-01T11:59:39.999Z</time></trkpt><trkpt lat="42.07215791959283" lon="13.55270992430038"><ele>726.0</ele><time>2026-05-01T11:59:41.999Z</time></trkpt><trkpt lat="42.0722751317802" lon="13.552756858801857"><ele>726.0</ele><time>2026-05-01T11:59:42.999Z</time></trkpt><trkpt lat="42.07239833046436" lon="13.552761200184937"><ele>726.0</ele><time>2026-05-01T11:59:43.999Z</time></trkpt><trkpt lat="42.072527885525105" lon="13.552704296871529"><ele>727.6666666666666</ele><time>2026-05-01T11:59:44.999Z</time></trkpt><trkpt lat="42.072673618819465" lon="13.552626843103829"><ele>729.3333333333333</ele><time>2026-05-01T11:59:45.999Z</time></trkpt><trkpt lat="42.07282964640213" lon="13.552556953255612"><ele>731.0</ele><time>2026-05-01T11:59:46.999Z</time></trkpt><trkpt lat="42.07299181658492" lon="13.552490297079347"><ele>731.0</ele><time>2026-05-01T11:59:47.999Z</time></trkpt><trkpt lat="42.07316205825577" lon="13.552417092314718"><ele>731.0</ele><time>2026-05-01T11:59:48.999Z</time></trkpt><trkpt lat="42.07333431690317" lon="13.5523432364499"><ele>731.0</ele><time>2026-05-01T11:59:49.999Z</time></trkpt><trkpt lat="42.07349093036169" lon="13.552280197613888"><ele>733.3333333333333</ele><time>2026-05-01T11:59:50.999Z</time></trkpt><trkpt lat="42.0736450042676" lon="13.552223799705354"><ele>735.6666666666666</ele><time>2026-05-01T11:59:51.999Z</time></trkpt><trkpt lat="42.07379646687007" lon="13.552181502421881"><ele>738.0</ele><time>2026-05-01T11:59:52.998Z</time></trkpt><trkpt lat="42.073937138370134" lon="13.552161808571602"><ele>738.0</ele><time>2026-05-01T11:59:53.998Z</time></trkpt><trkpt lat="42.07406830066295" lon="13.55215440448639"><ele>738.0</ele><time>2026-05-01T11:59:54.998Z</time></trkpt><trkpt lat="42.07419195403503" lon="13.552159908975138"><ele>738.0</ele><time>2026-05-01T11:59:55.998Z</time></trkpt><trkpt lat="42.0743010340084" lon="13.552176494543192"><ele>738.0</ele><time>2026-05-01T11:59:56.998Z</time></trkpt><trkpt lat="42.07440569017388" lon="13.552204295225057"><ele>739.5</ele><time>2026-05-01T11:59:57.998Z</time></trkpt><trkpt lat="42.074519367955105" lon="13.552241388929826"><ele>741.0</ele><time>2026-05-01T11:59:58.998Z</time></trkpt><trkpt lat="42.07463304198275" lon="13.552285844035923"><ele>742.5</ele><time>2026-05-01T11:59:59.998Z</time></trkpt><trkpt lat="42.074749356127604" lon="13.552334957358774"><ele>744.0</ele><time>2026-05-01T12:00:00.998Z</time></trkpt><trkpt lat="42.0748675064769" lon="13.55238781748526"><ele>743.6666666666666</ele><time>2026-05-01T12:00:01.998Z</time></trkpt><trkpt lat="42.074987525534006" lon="13.552443243295315"><ele>743.3333333333333</ele><time>2026-05-01T12:00:02.998Z</time></trkpt><trkpt lat="42.07511059161219" lon="13.55250453975648"><ele>743.0</ele><time>2026-05-01T12:00:03.998Z</time></trkpt><trkpt lat="42.075356158629205" lon="13.552668296337481"><ele>743.0</ele><time>2026-05-01T12:00:05.998Z</time></trkpt><trkpt lat="42.07548085922805" lon="13.552774360972041"><ele>743.0</ele><time>2026-05-01T12:00:06.998Z</time></trkpt><trkpt lat="42.0756073500364" lon="13.552892331591632"><ele>743.0</ele><time>2026-05-01T12:00:07.998Z</time></trkpt><trkpt lat="42.07573180355194" lon="13.553011898084648"><ele>744.5</ele><time>2026-05-01T12:00:08.998Z</time></trkpt><trkpt lat="42.07585453744171" lon="13.553124649596361"><ele>746.0</ele><time>2026-05-01T12:00:09.998Z</time></trkpt><trkpt lat="42.07597574526547" lon="13.55323277653721"><ele>747.5</ele><time>2026-05-01T12:00:10.998Z</time></trkpt><trkpt lat="42.07608907074624" lon="13.553340940806873"><ele>749.0</ele><time>2026-05-01T12:00:11.998Z</time></trkpt><trkpt lat="42.07620675824255" lon="13.553437435481396"><ele>749.0</ele><time>2026-05-01T12:00:12.998Z</time></trkpt><trkpt lat="42.07632649756698" lon="13.553505424710256"><ele>749.0</ele><time>2026-05-01T12:00:13.998Z</time></trkpt><trkpt lat="42.07645142920046" lon="13.553536969117875"><ele>749.0</ele><time>2026-05-01T12:00:14.998Z</time></trkpt><trkpt lat="42.07657431644826" lon="13.553529151469444"><ele>749.0</ele><time>2026-05-01T12:00:15.998Z</time></trkpt><trkpt lat="42.07669296844596" lon="13.55347897920434"><ele>748.0</ele><time>2026-05-01T12:00:16.998Z</time></trkpt><trkpt lat="42.076813125253544" lon="13.553399687564534"><ele>747.0</ele><time>2026-05-01T12:00:17.998Z</time></trkpt><trkpt lat="42.076948394226974" lon="13.553422097173723"><ele>746.0</ele><time>2026-05-01T12:00:19Z</time></trkpt><trkpt lat="42.077075469840786" lon="13.553372191569386"><ele>745.0</ele><time>2026-05-01T12:00:20Z</time></trkpt><trkpt lat="42.0771870467413" lon="13.553323056325123"><ele>745.0</ele><time>2026-05-01T12:00:21Z</time></trkpt><trkpt lat="42.07730770140171" lon="13.553279172500357"><ele>745.0</ele><time>2026-05-01T12:00:22Z</time></trkpt><trkpt lat="42.07741793936164" lon="13.553234656839008"><ele>745.0</ele><time>2026-05-01T12:00:23Z</time></trkpt><trkpt lat="42.07751645720482" lon="13.553173632674536"><ele>745.0</ele><time>2026-05-01T12:00:24Z</time></trkpt><trkpt lat="42.07759004096847" lon="13.553060465549885"><ele>745.5</ele><time>2026-05-01T12:00:25Z</time></trkpt><trkpt lat="42.0776254783267" lon="13.552902344385252"><ele>746.0</ele><time>2026-05-01T12:00:26Z</time></trkpt><trkpt lat="42.07761166362952" lon="13.552730544137304"><ele>746.5</ele><time>2026-05-01T12:00:27Z</time></trkpt><trkpt lat="42.077560974801244" lon="13.552570198427627"><ele>747.0</ele><time>2026-05-01T12:00:28Z</time></trkpt><trkpt lat="42.0775093997478" lon="13.55241979910916"><ele>747.0</ele><time>2026-05-01T12:00:29Z</time></trkpt><trkpt lat="42.077461104187705" lon="13.55228478634174"><ele>747.0</ele><time>2026-05-01T12:00:30Z</time></trkpt><trkpt lat="42.07742417856233" lon="13.552171721794437"><ele>747.0</ele><time>2026-05-01T12:00:31Z</time></trkpt><trkpt lat="42.07738961277002" lon="13.55206962984087"><ele>747.0</ele><time>2026-05-01T12:00:32Z</time></trkpt><trkpt lat="42.07736163249209" lon="13.55199188304076"><ele>747.0</ele><time>2026-05-01T12:00:33Z</time></trkpt><trkpt lat="42.077355854530985" lon="13.551896993976431"><ele>747.0</ele><time>2026-05-01T12:00:36Z</time></trkpt><trkpt lat="42.077437147448734" lon="13.551920726515112"><ele>748.1666666666666</ele><time>2026-05-01T12:00:38Z</time></trkpt><trkpt lat="42.07743580426456" lon="13.552008787732536"><ele>749.3333333333334</ele><time>2026-05-01T12:00:39Z</time></trkpt><trkpt lat="42.07747878620153" lon="13.552162025890306"><ele>750.5</ele><time>2026-05-01T12:00:41Z</time></trkpt><trkpt lat="42.077517326166415" lon="13.552233585604343"><ele>751.6666666666667</ele><time>2026-05-01T12:00:42Z</time></trkpt><trkpt lat="42.07756463723054" lon="13.55230176588515"><ele>752.8333333333334</ele><time>2026-05-01T12:00:44Z</time></trkpt><trkpt lat="42.077619278939146" lon="13.552425671379822"><ele>754.0</ele><time>2026-05-01T12:00:54Z</time></trkpt><trkpt lat="42.077682295017" lon="13.552576449484329"><ele>753.9999999999999</ele><time>2026-05-01T12:00:55.999Z</time></trkpt><trkpt lat="42.077711507738755" lon="13.552663636432444"><ele>754.0</ele><time>2026-05-01T12:00:56.999Z</time></trkpt><trkpt lat="42.077739491578946" lon="13.552756072169085"><ele>754.0</ele><time>2026-05-01T12:00:57.999Z</time></trkpt><trkpt lat="42.07777011347136" lon="13.552849164359294"><ele>754.0</ele><time>2026-05-01T12:00:58.999Z</time></trkpt><trkpt lat="42.07780753225605" lon="13.552935462034265"><ele>754.0</ele><time>2026-05-01T12:00:59.999Z</time></trkpt><trkpt lat="42.077850452061064" lon="13.553013900056023"><ele>753.9999999999999</ele><time>2026-05-01T12:01:00.999Z</time></trkpt><trkpt lat="42.077892180047336" lon="13.55308785425386"><ele>754.0</ele><time>2026-05-01T12:01:01.999Z</time></trkpt><trkpt lat="42.077933235888416" lon="13.553161050714772"><ele>752.8333333333334</ele><time>2026-05-01T12:01:02.999Z</time></trkpt><trkpt lat="42.077977559261285" lon="13.553240072701554"><ele>751.6666666666667</ele><time>2026-05-01T12:01:03.999Z</time></trkpt><trkpt lat="42.07802319609773" lon="13.553321436391705"><ele>750.5</ele><time>2026-05-01T12:01:04.999Z</time></trkpt><trkpt lat="42.078067570771736" lon="13.553402890709723"><ele>749.3333333333334</ele><time>2026-05-01T12:01:05.999Z</time></trkpt><trkpt lat="42.078116985225826" lon="13.553474339229298"><ele>748.1666666666666</ele><time>2026-05-01T12:01:06.999Z</time></trkpt><trkpt lat="42.07814675871637" lon="13.553566721525977"><ele>747.0</ele><time>2026-05-01T12:01:07.999Z</time></trkpt><trkpt lat="42.07818669029971" lon="13.553663946890474"><ele>747.6</ele><time>2026-05-01T12:01:08.999Z</time></trkpt><trkpt lat="42.07822755413272" lon="13.553776305726176"><ele>748.2</ele><time>2026-05-01T12:01:09.999Z</time></trkpt><trkpt lat="42.07825777316122" lon="13.55390702916404"><ele>748.8</ele><time>2026-05-01T12:01:10.999Z</time></trkpt><trkpt lat="42.07830093454308" lon="13.554057123720911"><ele>749.4</ele><time>2026-05-01T12:01:11.999Z</time></trkpt><trkpt lat="42.078360633014924" lon="13.554191989508618"><ele>750.0</ele><time>2026-05-01T12:01:12.999Z</time></trkpt><trkpt lat="42.07842080403354" lon="13.554340781203022"><ele>749.75</ele><time>2026-05-01T12:01:13.999Z</time></trkpt><trkpt lat="42.078486832566426" lon="13.554487412258068"><ele>749.5</ele><time>2026-05-01T12:01:14.999Z</time></trkpt><trkpt lat="42.078550199734984" lon="13.554629557456607"><ele>749.25</ele><time>2026-05-01T12:01:15.999Z</time></trkpt><trkpt lat="42.078611255844706" lon="13.554774911573233"><ele>749.0</ele><time>2026-05-01T12:01:16.999Z</time></trkpt><trkpt lat="42.078671171517556" lon="13.554916889803572"><ele>749.0</ele><time>2026-05-01T12:01:17.999Z</time></trkpt><trkpt lat="42.07873041040764" lon="13.555055349784485"><ele>749.0</ele><time>2026-05-01T12:01:18.999Z</time></trkpt><trkpt lat="42.07878689693352" lon="13.555187376630796"><ele>749.0</ele><time>2026-05-01T12:01:19.999Z</time></trkpt><trkpt lat="42.07883643031128" lon="13.5553122768495"><ele>749.0</ele><time>2026-05-01T12:01:20.999Z</time></trkpt><trkpt lat="42.07887720009404" lon="13.555429346559288"><ele>749.0</ele><time>2026-05-01T12:01:21.999Z</time></trkpt><trkpt lat="42.078916500790925" lon="13.555544407641225"><ele>749.2</ele><time>2026-05-01T12:01:22.999Z</time></trkpt><trkpt lat="42.07896220304929" lon="13.555667860019376"><ele>749.4000000000001</ele><time>2026-05-01T12:01:23.999Z</time></trkpt><trkpt lat="42.07901394277613" lon="13.555794285772821"><ele>749.6</ele><time>2026-05-01T12:01:24.999Z</time></trkpt><trkpt lat="42.07907069149728" lon="13.555919090170006"><ele>749.8</ele><time>2026-05-01T12:01:25.999Z</time></trkpt><trkpt lat="42.079130344139344" lon="13.556044706417959"><ele>750.0</ele><time>2026-05-01T12:01:26.999Z</time></trkpt><trkpt lat="42.07918810168234" lon="13.55616618984999"><ele>751.4</ele><time>2026-05-01T12:01:27.999Z</time></trkpt><trkpt lat="42.07924647613532" lon="13.556281203354743"><ele>752.8</ele><time>2026-05-01T12:01:28.999Z</time></trkpt><trkpt lat="42.079328961253694" lon="13.556379023717735"><ele>754.2</ele><time>2026-05-01T12:01:29.999Z</time></trkpt><trkpt lat="42.07940703240508" lon="13.556486438622798"><ele>755.6</ele><time>2026-05-01T12:01:30.999Z</time></trkpt><trkpt lat="42.07947564204569" lon="13.556612372841743"><ele>757.0</ele><time>2026-05-01T12:01:31.999Z</time></trkpt><trkpt lat="42.07955129814339" lon="13.556720853139328"><ele>757.0</ele><time>2026-05-01T12:01:32.999Z</time></trkpt><trkpt lat="42.07961869658979" lon="13.556821258365128"><ele>757.0</ele><time>2026-05-01T12:01:33.999Z</time></trkpt><trkpt lat="42.07967778200951" lon="13.556919845730572"><ele>757.0</ele><time>2026-05-01T12:01:34.999Z</time></trkpt><trkpt lat="42.07973156496777" lon="13.557038865925305"><ele>757.0</ele><time>2026-05-01T12:01:35.999Z</time></trkpt><trkpt lat="42.07977935193845" lon="13.55716667400738"><ele>757.0</ele><time>2026-05-01T12:01:36.999Z</time></trkpt><trkpt lat="42.079823248262315" lon="13.557280527496275"><ele>757.0</ele><time>2026-05-01T12:01:37.999Z</time></trkpt><trkpt lat="42.07986805227086" lon="13.557382610099758"><ele>757.0</ele><time>2026-05-01T12:01:38.999Z</time></trkpt><trkpt lat="42.07992691530591" lon="13.55747341317925"><ele>757.0</ele><time>2026-05-01T12:01:39.999Z</time></trkpt><trkpt lat="42.079991260451656" lon="13.557559975841196"><ele>757.0</ele><time>2026-05-01T12:01:40.999Z</time></trkpt><trkpt lat="42.08007872146712" lon="13.557622878385212"><ele>757.0</ele><time>2026-05-01T12:01:41.999Z</time></trkpt><trkpt lat="42.080140356498994" lon="13.557727397940916"><ele>757.8</ele><time>2026-05-01T12:01:42.999Z</time></trkpt><trkpt lat="42.080206750697954" lon="13.557821855811813"><ele>758.6</ele><time>2026-05-01T12:01:43.999Z</time></trkpt><trkpt lat="42.080256534412285" lon="13.557935426977155"><ele>759.4</ele><time>2026-05-01T12:01:44.999Z</time></trkpt><trkpt lat="42.08030828858025" lon="13.558065077035629"><ele>760.1999999999999</ele><time>2026-05-01T12:01:45.999Z</time></trkpt><trkpt lat="42.08035661317263" lon="13.558196772746202"><ele>761.0</ele><time>2026-05-01T12:01:46.999Z</time></trkpt><trkpt lat="42.08039747357769" lon="13.558329465990171"><ele>761.0</ele><time>2026-05-01T12:01:47.999Z</time></trkpt><trkpt lat="42.08042651867473" lon="13.558450221935315"><ele>761.0</ele><time>2026-05-01T12:01:48.999Z</time></trkpt><trkpt lat="42.08044564601661" lon="13.55856926778021"><ele>761.0</ele><time>2026-05-01T12:01:49.999Z</time></trkpt><trkpt lat="42.080462104050106" lon="13.558698518701977"><ele>761.0</ele><time>2026-05-01T12:01:50.999Z</time></trkpt><trkpt lat="42.08047994454616" lon="13.55883206812279"><ele>761.0</ele><time>2026-05-01T12:01:51.999Z</time></trkpt><trkpt lat="42.08050532538698" lon="13.558959783463104"><ele>761.4</ele><time>2026-05-01T12:01:52.999Z</time></trkpt><trkpt lat="42.08054658483454" lon="13.559069691114335"><ele>761.8</ele><time>2026-05-01T12:01:53.999Z</time></trkpt><trkpt lat="42.08057271013539" lon="13.559186930711762"><ele>762.1999999999999</ele><time>2026-05-01T12:01:54.999Z</time></trkpt><trkpt lat="42.080566304483405" lon="13.559315930249454"><ele>762.5999999999999</ele><time>2026-05-01T12:01:55.999Z</time></trkpt><trkpt lat="42.08056835742591" lon="13.559450044926379"><ele>763.0</ele><time>2026-05-01T12:01:56.999Z</time></trkpt><trkpt lat="42.08058358662383" lon="13.559573227739591"><ele>763.5999999999999</ele><time>2026-05-01T12:01:57.999Z</time></trkpt><trkpt lat="42.08063127501305" lon="13.559674173951613"><ele>764.1999999999999</ele><time>2026-05-01T12:01:58.999Z</time></trkpt><trkpt lat="42.08068204737365" lon="13.559770437266353"><ele>764.8</ele><time>2026-05-01T12:01:59.999Z</time></trkpt><trkpt lat="42.080753762645045" lon="13.559854229561825"><ele>765.4</ele><time>2026-05-01T12:02:00.999Z</time></trkpt><trkpt lat="42.08084313569533" lon="13.559921375030584"><ele>766.0</ele><time>2026-05-01T12:02:01.999Z</time></trkpt><trkpt lat="42.08091631264919" lon="13.560026709207518"><ele>766.0</ele><time>2026-05-01T12:02:02.999Z</time></trkpt><trkpt lat="42.080992740039115" lon="13.560128155126527"><ele>766.0</ele><time>2026-05-01T12:02:03.998Z</time></trkpt><trkpt lat="42.081067771927124" lon="13.560238299530338"><ele>766.0</ele><time>2026-05-01T12:02:04.998Z</time></trkpt><trkpt lat="42.08114149686502" lon="13.56034538900294"><ele>766.0</ele><time>2026-05-01T12:02:05.998Z</time></trkpt><trkpt lat="42.081225038340996" lon="13.560419726763008"><ele>766.0</ele><time>2026-05-01T12:02:06.998Z</time></trkpt><trkpt lat="42.081276171944026" lon="13.560524508205926"><ele>766.5</ele><time>2026-05-01T12:02:07.998Z</time></trkpt><trkpt lat="42.08134658512814" lon="13.560608194347934"><ele>767.0</ele><time>2026-05-01T12:02:08.998Z</time></trkpt><trkpt lat="42.08138048820861" lon="13.560733165549228"><ele>767.5</ele><time>2026-05-01T12:02:09.998Z</time></trkpt><trkpt lat="42.08141408801076" lon="13.560845780387444"><ele>768.0</ele><time>2026-05-01T12:02:10.998Z</time></trkpt><trkpt lat="42.08143422362036" lon="13.560946147504819"><ele>768.4999999999999</ele><time>2026-05-01T12:02:11.998Z</time></trkpt><trkpt lat="42.0814524857011" lon="13.561064272361536"><ele>769.0</ele><time>2026-05-01T12:02:12.998Z</time></trkpt><trkpt lat="42.081465222078975" lon="13.561196102052852"><ele>769.8000000000001</ele><time>2026-05-01T12:02:13.998Z</time></trkpt><trkpt lat="42.08147844889651" lon="13.561336963924738"><ele>770.6</ele><time>2026-05-01T12:02:14.998Z</time></trkpt><trkpt lat="42.08149479345694" lon="13.561475687556916"><ele>771.4</ele><time>2026-05-01T12:02:15.998Z</time></trkpt><trkpt lat="42.08151897227861" lon="13.561603612216109"><ele>772.2</ele><time>2026-05-01T12:02:16.998Z</time></trkpt><trkpt lat="42.081562989599654" lon="13.56171291671487"><ele>773.0</ele><time>2026-05-01T12:02:17.998Z</time></trkpt><trkpt lat="42.08159682259369" lon="13.561830516550962"><ele>773.0</ele><time>2026-05-01T12:02:18.998Z</time></trkpt><trkpt lat="42.081624232306" lon="13.56195805283599"><ele>773.0</ele><time>2026-05-01T12:02:19.998Z</time></trkpt><trkpt lat="42.081647899318185" lon="13.562088583020927"><ele>773.0</ele><time>2026-05-01T12:02:20.998Z</time></trkpt><trkpt lat="42.081674118614984" lon="13.562223395492657"><ele>773.0</ele><time>2026-05-01T12:02:21.998Z</time></trkpt><trkpt lat="42.08169777191168" lon="13.562365565737757"><ele>773.0</ele><time>2026-05-01T12:02:22.998Z</time></trkpt><trkpt lat="42.08171433990754" lon="13.562504343382715"><ele>773.0</ele><time>2026-05-01T12:02:23.998Z</time></trkpt><trkpt lat="42.08173196602951" lon="13.56265036012704"><ele>773.0</ele><time>2026-05-01T12:02:25Z</time></trkpt><trkpt lat="42.08174699718967" lon="13.56279638180944"><ele>773.0</ele><time>2026-05-01T12:02:26Z</time></trkpt><trkpt lat="42.08175174657669" lon="13.562948454395766"><ele>773.0</ele><time>2026-05-01T12:02:27Z</time></trkpt><trkpt lat="42.08174891702037" lon="13.563100470468024"><ele>773.0</ele><time>2026-05-01T12:02:28Z</time></trkpt><trkpt lat="42.08176063928978" lon="13.563247015023492"><ele>773.2</ele><time>2026-05-01T12:02:29Z</time></trkpt><trkpt lat="42.0817464076086" lon="13.563394510756575"><ele>773.4</ele><time>2026-05-01T12:02:30Z</time></trkpt><trkpt lat="42.08173790288744" lon="13.563536402096831"><ele>773.6</ele><time>2026-05-01T12:02:31Z</time></trkpt><trkpt lat="42.081730269004396" lon="13.563663972406156"><ele>773.8000000000001</ele><time>2026-05-01T12:02:32Z</time></trkpt><trkpt lat="42.08172531592" lon="13.56378365207858"><ele>774.0</ele><time>2026-05-01T12:02:33Z</time></trkpt><trkpt lat="42.08176392461444" lon="13.563905035371551"><ele>774.2</ele><time>2026-05-01T12:02:34Z</time></trkpt><trkpt lat="42.08183577919165" lon="13.56400423103336"><ele>774.4000000000001</ele><time>2026-05-01T12:02:35Z</time></trkpt><trkpt lat="42.08188630226918" lon="13.564139548414055"><ele>774.6</ele><time>2026-05-01T12:02:36Z</time></trkpt><trkpt lat="42.08195396467166" lon="13.564257914310136"><ele>774.8</ele><time>2026-05-01T12:02:37Z</time></trkpt><trkpt lat="42.08201485208156" lon="13.564387880012205"><ele>775.0</ele><time>2026-05-01T12:02:38Z</time></trkpt><trkpt lat="42.08206770697291" lon="13.564511346819929"><ele>775.0</ele><time>2026-05-01T12:02:39Z</time></trkpt><trkpt lat="42.08212005940825" lon="13.564625851004637"><ele>775.0</ele><time>2026-05-01T12:02:40Z</time></trkpt><trkpt lat="42.08217988898435" lon="13.564748123680348"><ele>775.0</ele><time>2026-05-01T12:02:41Z</time></trkpt><trkpt lat="42.082239750698555" lon="13.564863574965907"><ele>775.0</ele><time>2026-05-01T12:02:42Z</time></trkpt><trkpt lat="42.0823172984961" lon="13.564961270477207"><ele>775.0</ele><time>2026-05-01T12:02:43Z</time></trkpt><trkpt lat="42.08239907229234" lon="13.565062875773206"><ele>776.6666666666666</ele><time>2026-05-01T12:02:44Z</time></trkpt><trkpt lat="42.08257032299255" lon="13.565252443837345"><ele>778.3333333333333</ele><time>2026-05-01T12:02:46Z</time></trkpt><trkpt lat="42.08265795016346" lon="13.565354040827494"><ele>780.0</ele><time>2026-05-01T12:02:47Z</time></trkpt><trkpt lat="42.082746167096694" lon="13.565463388159115"><ele>780.0</ele><time>2026-05-01T12:02:48Z</time></trkpt><trkpt lat="42.082829137996995" lon="13.565580275862125"><ele>780.0</ele><time>2026-05-01T12:02:49Z</time></trkpt><trkpt lat="42.0829072147006" lon="13.565699787494403"><ele>780.0</ele><time>2026-05-01T12:02:50Z</time></trkpt><trkpt lat="42.08297737343706" lon="13.565824793035894"><ele>780.0</ele><time>2026-05-01T12:02:51Z</time></trkpt><trkpt lat="42.083041413322135" lon="13.565952354358094"><ele>780.0</ele><time>2026-05-01T12:02:52Z</time></trkpt><trkpt lat="42.08310658096741" lon="13.566081349799678"><ele>780.0</ele><time>2026-05-01T12:02:53Z</time></trkpt><trkpt lat="42.08316621896789" lon="13.566204238137647"><ele>780.0</ele><time>2026-05-01T12:02:54Z</time></trkpt><trkpt lat="42.08322356128877" lon="13.566311489252902"><ele>780.0</ele><time>2026-05-01T12:02:54.999Z</time></trkpt><trkpt lat="42.083293140260395" lon="13.566407474557822"><ele>780.0</ele><time>2026-05-01T12:02:55.999Z</time></trkpt><trkpt lat="42.083369227314236" lon="13.566496265041485"><ele>781.6</ele><time>2026-05-01T12:02:56.999Z</time></trkpt><trkpt lat="42.08344818202924" lon="13.566579427020477"><ele>783.2</ele><time>2026-05-01T12:02:57.999Z</time></trkpt><trkpt lat="42.083531917398034" lon="13.566664239515573"><ele>784.8</ele><time>2026-05-01T12:02:58.999Z</time></trkpt><trkpt lat="42.08360749052265" lon="13.56674855906214"><ele>786.4</ele><time>2026-05-01T12:02:59.999Z</time></trkpt><trkpt lat="42.083683046273606" lon="13.566818003622734"><ele>788.0</ele><time>2026-05-01T12:03:00.999Z</time></trkpt><trkpt lat="42.08376256889018" lon="13.566892601098138"><ele>788.0</ele><time>2026-05-01T12:03:01.999Z</time></trkpt><trkpt lat="42.08382616710332" lon="13.566984055002013"><ele>788.0</ele><time>2026-05-01T12:03:02.999Z</time></trkpt><trkpt lat="42.083901866532095" lon="13.56706300075577"><ele>788.0</ele><time>2026-05-01T12:03:03.999Z</time></trkpt><trkpt lat="42.083975185643695" lon="13.567143012814997"><ele>788.0</ele><time>2026-05-01T12:03:04.999Z</time></trkpt><trkpt lat="42.08404963600939" lon="13.567230788923068"><ele>788.0</ele><time>2026-05-01T12:03:05.999Z</time></trkpt><trkpt lat="42.08413301457999" lon="13.567307608431385"><ele>789.0</ele><time>2026-05-01T12:03:06.999Z</time></trkpt><trkpt lat="42.084203379750065" lon="13.56741393787882"><ele>790.0</ele><time>2026-05-01T12:03:07.999Z</time></trkpt><trkpt lat="42.08427212900013" lon="13.567492046823974"><ele>791.0</ele><time>2026-05-01T12:03:08.999Z</time></trkpt><trkpt lat="42.084335917950995" lon="13.567570871611405"><ele>792.0</ele><time>2026-05-01T12:03:09.999Z</time></trkpt><trkpt lat="42.08440279375355" lon="13.567653042057303"><ele>793.0</ele><time>2026-05-01T12:03:10.999Z</time></trkpt><trkpt lat="42.0844583082457" lon="13.567738271876458"><ele>792.9999999999999</ele><time>2026-05-01T12:03:11.999Z</time></trkpt><trkpt lat="42.084520549990025" lon="13.567809320982322"><ele>793.0</ele><time>2026-05-01T12:03:12.999Z</time></trkpt><trkpt lat="42.084587416925245" lon="13.567875852187582"><ele>793.0</ele><time>2026-05-01T12:03:13.999Z</time></trkpt><trkpt lat="42.08465818885015" lon="13.567932948805618"><ele>793.0</ele><time>2026-05-01T12:03:14.999Z</time></trkpt><trkpt lat="42.0847375711814" lon="13.567978856761513"><ele>792.9999999999999</ele><time>2026-05-01T12:03:15.999Z</time></trkpt><trkpt lat="42.08482084414584" lon="13.568010136216666"><ele>793.0</ele><time>2026-05-01T12:03:16.999Z</time></trkpt><trkpt lat="42.08490731872288" lon="13.568027297587776"><ele>792.9999999999999</ele><time>2026-05-01T12:03:17.999Z</time></trkpt><trkpt lat="42.084989073023266" lon="13.568039817004182"><ele>793.0</ele><time>2026-05-01T12:03:18.999Z</time></trkpt><trkpt lat="42.085066813093114" lon="13.568045796901936"><ele>793.0</ele><time>2026-05-01T12:03:19.999Z</time></trkpt><trkpt lat="42.08513591926963" lon="13.568047902063096"><ele>793.0</ele><time>2026-05-01T12:03:20.999Z</time></trkpt><trkpt lat="42.08523650841704" lon="13.568039682807074"><ele>792.9999999999999</ele><time>2026-05-01T12:03:22.999Z</time></trkpt><trkpt lat="42.08529948988719" lon="13.568050956269431"><ele>793.0</ele><time>2026-05-01T12:03:25.999Z</time></trkpt><trkpt lat="42.085388381393294" lon="13.568048320986184"><ele>793.0</ele><time>2026-05-01T12:03:28.999Z</time></trkpt><trkpt lat="42.08545998742273" lon="13.56804609902967"><ele>793.0</ele><time>2026-05-01T12:03:34.999Z</time></trkpt><trkpt lat="42.08552602544636" lon="13.568042831269025"><ele>793.0</ele><time>2026-05-01T12:03:38.999Z</time></trkpt></trkseg></trk></gpx>